<?xml version="1.0" encoding="utf-8"?>
<gpx xmlns:xsi="http://www.w3.org/2001/XMLSchema-instance" xmlns:xsd="http://www.w3.org/2001/XMLSchema" version="1.1" creator="Shapelink.com" xmlns="http://www.topografix.com/GPX/1/1" xmlns:gpxtpx="http://www.garmin.com/xmlschemas/TrackPointExtension/v1">
  <metadata>
    <name>Løping 17.07 km, 2014-06-04</name>
    <desc></desc>
    <author><name>Mikael Blom</name></author> 
    <time>2014-06-04T13:43:14Z</time>
  </metadata>
  <trk>
    <name>Løping 17.07 km, 2014-06-04</name>
    <trkseg>
      <trkpt lat="59.9091356" lon="17.7136508">
        <ele>53.0098</ele>
        <time>2014-06-04T13:43:14Z</time>
      </trkpt>
      <trkpt lat="59.909142" lon="17.7136575">
        <ele>53.0098</ele>
        <time>2014-06-04T13:43:15Z</time>
      </trkpt>
      <trkpt lat="59.9091513" lon="17.7136719">
        <ele>53.0098</ele>
        <time>2014-06-04T13:43:16Z</time>
      </trkpt>
      <trkpt lat="59.9091639" lon="17.7136948">
        <ele>53.0098</ele>
        <time>2014-06-04T13:43:17Z</time>
      </trkpt>
      <trkpt lat="59.9091819" lon="17.71372">
        <ele>53.0098</ele>
        <time>2014-06-04T13:43:18Z</time>
      </trkpt>
      <trkpt lat="59.9092062" lon="17.7137427">
        <ele>53.4905</ele>
        <time>2014-06-04T13:43:19Z</time>
      </trkpt>
      <trkpt lat="59.9092249" lon="17.7137663">
        <ele>53.9712</ele>
        <time>2014-06-04T13:43:20Z</time>
      </trkpt>
      <trkpt lat="59.9092441" lon="17.7137998">
        <ele>53.4905</ele>
        <time>2014-06-04T13:43:21Z</time>
      </trkpt>
      <trkpt lat="59.9092715" lon="17.7138241">
        <ele>53.4905</ele>
        <time>2014-06-04T13:43:22Z</time>
      </trkpt>
      <trkpt lat="59.9092956" lon="17.7138392">
        <ele>53.0098</ele>
        <time>2014-06-04T13:43:23Z</time>
      </trkpt>
      <trkpt lat="59.9093166" lon="17.713854">
        <ele>52.5292</ele>
        <time>2014-06-04T13:43:24Z</time>
      </trkpt>
      <trkpt lat="59.9093346" lon="17.7138728">
        <ele>51.5679</ele>
        <time>2014-06-04T13:43:25Z</time>
      </trkpt>
      <trkpt lat="59.9093523" lon="17.7138853">
        <ele>52.0486</ele>
        <time>2014-06-04T13:43:26Z</time>
      </trkpt>
      <trkpt lat="59.9093668" lon="17.71389">
        <ele>52.0486</ele>
        <time>2014-06-04T13:43:27Z</time>
      </trkpt>
      <trkpt lat="59.9093824" lon="17.7138915">
        <ele>52.0486</ele>
        <time>2014-06-04T13:43:28Z</time>
      </trkpt>
      <trkpt lat="59.9094041" lon="17.71389">
        <ele>52.0486</ele>
        <time>2014-06-04T13:43:29Z</time>
      </trkpt>
      <trkpt lat="59.9094263" lon="17.7138865">
        <ele>51.5679</ele>
        <time>2014-06-04T13:43:30Z</time>
      </trkpt>
      <trkpt lat="59.9094544" lon="17.7138898">
        <ele>51.5679</ele>
        <time>2014-06-04T13:43:31Z</time>
      </trkpt>
      <trkpt lat="59.9094771" lon="17.7139014">
        <ele>51.0872</ele>
        <time>2014-06-04T13:43:32Z</time>
      </trkpt>
      <trkpt lat="59.9095014" lon="17.7139117">
        <ele>51.5679</ele>
        <time>2014-06-04T13:43:33Z</time>
      </trkpt>
      <trkpt lat="59.9095212" lon="17.7139147">
        <ele>51.5679</ele>
        <time>2014-06-04T13:43:34Z</time>
      </trkpt>
      <trkpt lat="59.9095439" lon="17.7139082">
        <ele>51.5679</ele>
        <time>2014-06-04T13:43:35Z</time>
      </trkpt>
      <trkpt lat="59.9095622" lon="17.7139012">
        <ele>51.0872</ele>
        <time>2014-06-04T13:43:36Z</time>
      </trkpt>
      <trkpt lat="59.9095868" lon="17.71389">
        <ele>50.6066</ele>
        <time>2014-06-04T13:43:37Z</time>
      </trkpt>
      <trkpt lat="59.9096101" lon="17.7138919">
        <ele>50.126</ele>
        <time>2014-06-04T13:43:38Z</time>
      </trkpt>
      <trkpt lat="59.9096313" lon="17.7139002">
        <ele>50.126</ele>
        <time>2014-06-04T13:43:39Z</time>
      </trkpt>
      <trkpt lat="59.9096553" lon="17.7139067">
        <ele>49.1646</ele>
        <time>2014-06-04T13:43:40Z</time>
      </trkpt>
      <trkpt lat="59.9096796" lon="17.7139074">
        <ele>48.2034</ele>
        <time>2014-06-04T13:43:41Z</time>
      </trkpt>
      <trkpt lat="59.9096998" lon="17.7139076">
        <ele>47.2418</ele>
        <time>2014-06-04T13:43:42Z</time>
      </trkpt>
      <trkpt lat="59.9097201" lon="17.7139076">
        <ele>47.2418</ele>
        <time>2014-06-04T13:43:43Z</time>
      </trkpt>
      <trkpt lat="59.9097392" lon="17.7139131">
        <ele>46.7612</ele>
        <time>2014-06-04T13:43:44Z</time>
      </trkpt>
      <trkpt lat="59.9097588" lon="17.7139174">
        <ele>46.7612</ele>
        <time>2014-06-04T13:43:45Z</time>
      </trkpt>
      <trkpt lat="59.909776" lon="17.7139299">
        <ele>46.7612</ele>
        <time>2014-06-04T13:43:46Z</time>
      </trkpt>
      <trkpt lat="59.9097962" lon="17.713947">
        <ele>46.2806</ele>
        <time>2014-06-04T13:43:47Z</time>
      </trkpt>
      <trkpt lat="59.9098197" lon="17.7139614">
        <ele>46.7612</ele>
        <time>2014-06-04T13:43:48Z</time>
      </trkpt>
      <trkpt lat="59.9098397" lon="17.7139676">
        <ele>45.7999</ele>
        <time>2014-06-04T13:43:49Z</time>
      </trkpt>
      <trkpt lat="59.9098621" lon="17.713963">
        <ele>45.3192</ele>
        <time>2014-06-04T13:43:50Z</time>
      </trkpt>
      <trkpt lat="59.9098939" lon="17.7139579">
        <ele>46.7612</ele>
        <time>2014-06-04T13:43:51Z</time>
      </trkpt>
      <trkpt lat="59.9099242" lon="17.7139493">
        <ele>48.2034</ele>
        <time>2014-06-04T13:43:52Z</time>
      </trkpt>
      <trkpt lat="59.9099506" lon="17.7139589">
        <ele>48.2034</ele>
        <time>2014-06-04T13:43:53Z</time>
      </trkpt>
      <trkpt lat="59.9099776" lon="17.7139651">
        <ele>48.684</ele>
        <time>2014-06-04T13:43:54Z</time>
      </trkpt>
      <trkpt lat="59.910005" lon="17.7139733">
        <ele>49.1646</ele>
        <time>2014-06-04T13:43:55Z</time>
      </trkpt>
      <trkpt lat="59.9100345" lon="17.7139804">
        <ele>48.684</ele>
        <time>2014-06-04T13:43:56Z</time>
      </trkpt>
      <trkpt lat="59.910063" lon="17.7139764">
        <ele>49.6453</ele>
        <time>2014-06-04T13:43:57Z</time>
      </trkpt>
      <trkpt lat="59.9100868" lon="17.7139713">
        <ele>49.6453</ele>
        <time>2014-06-04T13:43:58Z</time>
      </trkpt>
      <trkpt lat="59.9101041" lon="17.7139723">
        <ele>49.1646</ele>
        <time>2014-06-04T13:43:59Z</time>
      </trkpt>
      <trkpt lat="59.9101232" lon="17.7139652">
        <ele>49.6453</ele>
        <time>2014-06-04T13:44:00Z</time>
      </trkpt>
      <trkpt lat="59.9101445" lon="17.7139604">
        <ele>49.6453</ele>
        <time>2014-06-04T13:44:01Z</time>
      </trkpt>
      <trkpt lat="59.9101702" lon="17.7139645">
        <ele>49.6453</ele>
        <time>2014-06-04T13:44:02Z</time>
      </trkpt>
      <trkpt lat="59.9101954" lon="17.713976">
        <ele>49.6453</ele>
        <time>2014-06-04T13:44:03Z</time>
      </trkpt>
      <trkpt lat="59.9102179" lon="17.7139915">
        <ele>49.6453</ele>
        <time>2014-06-04T13:44:04Z</time>
      </trkpt>
      <trkpt lat="59.9102405" lon="17.7140106">
        <ele>49.6453</ele>
        <time>2014-06-04T13:44:05Z</time>
      </trkpt>
      <trkpt lat="59.9102639" lon="17.7140361">
        <ele>50.6066</ele>
        <time>2014-06-04T13:44:06Z</time>
      </trkpt>
      <trkpt lat="59.910285" lon="17.7140731">
        <ele>50.6066</ele>
        <time>2014-06-04T13:44:07Z</time>
      </trkpt>
      <trkpt lat="59.9103018" lon="17.7141091">
        <ele>50.6066</ele>
        <time>2014-06-04T13:44:08Z</time>
      </trkpt>
      <trkpt lat="59.9103241" lon="17.7141508">
        <ele>51.0872</ele>
        <time>2014-06-04T13:44:09Z</time>
      </trkpt>
      <trkpt lat="59.910364" lon="17.7141832">
        <ele>53.9712</ele>
        <time>2014-06-04T13:44:10Z</time>
      </trkpt>
      <trkpt lat="59.9103931" lon="17.7142315">
        <ele>54.9324</ele>
        <time>2014-06-04T13:44:11Z</time>
      </trkpt>
      <trkpt lat="59.9104163" lon="17.7142754">
        <ele>54.9324</ele>
        <time>2014-06-04T13:44:12Z</time>
      </trkpt>
      <trkpt lat="59.9104385" lon="17.7143185">
        <ele>55.8938</ele>
        <time>2014-06-04T13:44:13Z</time>
      </trkpt>
      <trkpt lat="59.9104561" lon="17.71437">
        <ele>56.3745</ele>
        <time>2014-06-04T13:44:14Z</time>
      </trkpt>
      <trkpt lat="59.9104929" lon="17.7144184">
        <ele>59.2584</ele>
        <time>2014-06-04T13:44:15Z</time>
      </trkpt>
      <trkpt lat="59.9105018" lon="17.7144692">
        <ele>59.2584</ele>
        <time>2014-06-04T13:44:16Z</time>
      </trkpt>
      <trkpt lat="59.9105179" lon="17.7145145">
        <ele>60.2197</ele>
        <time>2014-06-04T13:44:17Z</time>
      </trkpt>
      <trkpt lat="59.9105275" lon="17.7145598">
        <ele>61.181</ele>
        <time>2014-06-04T13:44:18Z</time>
      </trkpt>
      <trkpt lat="59.9105276" lon="17.7146048">
        <ele>61.181</ele>
        <time>2014-06-04T13:44:19Z</time>
      </trkpt>
      <trkpt lat="59.9105281" lon="17.7146487">
        <ele>62.1423</ele>
        <time>2014-06-04T13:44:20Z</time>
      </trkpt>
      <trkpt lat="59.910521" lon="17.7146912">
        <ele>62.6229</ele>
        <time>2014-06-04T13:44:21Z</time>
      </trkpt>
      <trkpt lat="59.9105116" lon="17.7147246">
        <ele>62.6229</ele>
        <time>2014-06-04T13:44:22Z</time>
      </trkpt>
      <trkpt lat="59.9105065" lon="17.7147617">
        <ele>62.6229</ele>
        <time>2014-06-04T13:44:23Z</time>
      </trkpt>
      <trkpt lat="59.9105073" lon="17.7148132">
        <ele>62.6229</ele>
        <time>2014-06-04T13:44:24Z</time>
      </trkpt>
      <trkpt lat="59.910509" lon="17.7148696">
        <ele>63.5844</ele>
        <time>2014-06-04T13:44:25Z</time>
      </trkpt>
      <trkpt lat="59.9104912" lon="17.7149284">
        <ele>61.6617</ele>
        <time>2014-06-04T13:44:26Z</time>
      </trkpt>
      <trkpt lat="59.9104789" lon="17.7149898">
        <ele>62.1423</ele>
        <time>2014-06-04T13:44:27Z</time>
      </trkpt>
      <trkpt lat="59.910469" lon="17.7150384">
        <ele>62.1423</ele>
        <time>2014-06-04T13:44:28Z</time>
      </trkpt>
      <trkpt lat="59.9104655" lon="17.7150872">
        <ele>62.6229</ele>
        <time>2014-06-04T13:44:29Z</time>
      </trkpt>
      <trkpt lat="59.9104634" lon="17.7151345">
        <ele>63.1036</ele>
        <time>2014-06-04T13:44:30Z</time>
      </trkpt>
      <trkpt lat="59.9104649" lon="17.7151886">
        <ele>63.1036</ele>
        <time>2014-06-04T13:44:31Z</time>
      </trkpt>
      <trkpt lat="59.910464" lon="17.7152433">
        <ele>62.6229</ele>
        <time>2014-06-04T13:44:32Z</time>
      </trkpt>
      <trkpt lat="59.9104712" lon="17.7152948">
        <ele>62.6229</ele>
        <time>2014-06-04T13:44:33Z</time>
      </trkpt>
      <trkpt lat="59.9104753" lon="17.7153452">
        <ele>62.1423</ele>
        <time>2014-06-04T13:44:34Z</time>
      </trkpt>
      <trkpt lat="59.9104809" lon="17.7153962">
        <ele>61.6617</ele>
        <time>2014-06-04T13:44:35Z</time>
      </trkpt>
      <trkpt lat="59.910486" lon="17.715444">
        <ele>61.181</ele>
        <time>2014-06-04T13:44:36Z</time>
      </trkpt>
      <trkpt lat="59.9104922" lon="17.715485">
        <ele>60.7003</ele>
        <time>2014-06-04T13:44:37Z</time>
      </trkpt>
      <trkpt lat="59.9105013" lon="17.7155298">
        <ele>60.7003</ele>
        <time>2014-06-04T13:44:38Z</time>
      </trkpt>
      <trkpt lat="59.9105085" lon="17.7155843">
        <ele>60.7003</ele>
        <time>2014-06-04T13:44:39Z</time>
      </trkpt>
      <trkpt lat="59.9105146" lon="17.7156331">
        <ele>60.7003</ele>
        <time>2014-06-04T13:44:40Z</time>
      </trkpt>
      <trkpt lat="59.9105229" lon="17.715684">
        <ele>60.2197</ele>
        <time>2014-06-04T13:44:41Z</time>
      </trkpt>
      <trkpt lat="59.9105321" lon="17.7157394">
        <ele>60.2197</ele>
        <time>2014-06-04T13:44:42Z</time>
      </trkpt>
      <trkpt lat="59.9105385" lon="17.7157927">
        <ele>59.7391</ele>
        <time>2014-06-04T13:44:43Z</time>
      </trkpt>
      <trkpt lat="59.9105518" lon="17.7158942">
        <ele>59.2584</ele>
        <time>2014-06-04T13:44:45Z</time>
      </trkpt>
      <trkpt lat="59.9105572" lon="17.7159416">
        <ele>58.7777</ele>
        <time>2014-06-04T13:44:46Z</time>
      </trkpt>
      <trkpt lat="59.9105653" lon="17.7159894">
        <ele>58.7777</ele>
        <time>2014-06-04T13:44:47Z</time>
      </trkpt>
      <trkpt lat="59.910579" lon="17.7160361">
        <ele>58.2971</ele>
        <time>2014-06-04T13:44:48Z</time>
      </trkpt>
      <trkpt lat="59.9105904" lon="17.7160835">
        <ele>58.2971</ele>
        <time>2014-06-04T13:44:49Z</time>
      </trkpt>
      <trkpt lat="59.9105977" lon="17.7161267">
        <ele>57.3358</ele>
        <time>2014-06-04T13:44:50Z</time>
      </trkpt>
      <trkpt lat="59.9106054" lon="17.7161661">
        <ele>56.3745</ele>
        <time>2014-06-04T13:44:51Z</time>
      </trkpt>
      <trkpt lat="59.9106214" lon="17.7162075">
        <ele>55.8938</ele>
        <time>2014-06-04T13:44:52Z</time>
      </trkpt>
      <trkpt lat="59.9106399" lon="17.7162521">
        <ele>54.9324</ele>
        <time>2014-06-04T13:44:53Z</time>
      </trkpt>
      <trkpt lat="59.9106534" lon="17.7162944">
        <ele>54.9324</ele>
        <time>2014-06-04T13:44:54Z</time>
      </trkpt>
      <trkpt lat="59.9106687" lon="17.7163325">
        <ele>54.4518</ele>
        <time>2014-06-04T13:44:55Z</time>
      </trkpt>
      <trkpt lat="59.9106898" lon="17.7163692">
        <ele>53.4905</ele>
        <time>2014-06-04T13:44:56Z</time>
      </trkpt>
      <trkpt lat="59.9107121" lon="17.7163988">
        <ele>53.0098</ele>
        <time>2014-06-04T13:44:57Z</time>
      </trkpt>
      <trkpt lat="59.9107381" lon="17.7164215">
        <ele>52.0486</ele>
        <time>2014-06-04T13:44:58Z</time>
      </trkpt>
      <trkpt lat="59.9107639" lon="17.7164427">
        <ele>51.0872</ele>
        <time>2014-06-04T13:44:59Z</time>
      </trkpt>
      <trkpt lat="59.9107854" lon="17.7164655">
        <ele>51.0872</ele>
        <time>2014-06-04T13:45:00Z</time>
      </trkpt>
      <trkpt lat="59.9108048" lon="17.7164841">
        <ele>50.126</ele>
        <time>2014-06-04T13:45:01Z</time>
      </trkpt>
      <trkpt lat="59.9108317" lon="17.7164987">
        <ele>49.6453</ele>
        <time>2014-06-04T13:45:02Z</time>
      </trkpt>
      <trkpt lat="59.9108574" lon="17.7165106">
        <ele>49.1646</ele>
        <time>2014-06-04T13:45:03Z</time>
      </trkpt>
      <trkpt lat="59.91088" lon="17.7165226">
        <ele>48.684</ele>
        <time>2014-06-04T13:45:04Z</time>
      </trkpt>
      <trkpt lat="59.9109012" lon="17.716536">
        <ele>47.7225</ele>
        <time>2014-06-04T13:45:05Z</time>
      </trkpt>
      <trkpt lat="59.9109238" lon="17.7165399">
        <ele>47.2418</ele>
        <time>2014-06-04T13:45:06Z</time>
      </trkpt>
      <trkpt lat="59.9109443" lon="17.7165423">
        <ele>46.7612</ele>
        <time>2014-06-04T13:45:07Z</time>
      </trkpt>
      <trkpt lat="59.9109669" lon="17.7165474">
        <ele>46.7612</ele>
        <time>2014-06-04T13:45:08Z</time>
      </trkpt>
      <trkpt lat="59.9109903" lon="17.7165484">
        <ele>45.7999</ele>
        <time>2014-06-04T13:45:09Z</time>
      </trkpt>
      <trkpt lat="59.9110125" lon="17.7165412">
        <ele>45.3192</ele>
        <time>2014-06-04T13:45:10Z</time>
      </trkpt>
      <trkpt lat="59.9110353" lon="17.7165303">
        <ele>44.8386</ele>
        <time>2014-06-04T13:45:11Z</time>
      </trkpt>
      <trkpt lat="59.9110601" lon="17.7165101">
        <ele>44.358</ele>
        <time>2014-06-04T13:45:12Z</time>
      </trkpt>
      <trkpt lat="59.9110836" lon="17.7164891">
        <ele>43.3966</ele>
        <time>2014-06-04T13:45:13Z</time>
      </trkpt>
      <trkpt lat="59.9111067" lon="17.7164649">
        <ele>43.3966</ele>
        <time>2014-06-04T13:45:14Z</time>
      </trkpt>
      <trkpt lat="59.9111296" lon="17.7164468">
        <ele>42.916</ele>
        <time>2014-06-04T13:45:15Z</time>
      </trkpt>
      <trkpt lat="59.9111509" lon="17.7164365">
        <ele>42.916</ele>
        <time>2014-06-04T13:45:16Z</time>
      </trkpt>
      <trkpt lat="59.9111712" lon="17.7164263">
        <ele>42.4354</ele>
        <time>2014-06-04T13:45:17Z</time>
      </trkpt>
      <trkpt lat="59.9111941" lon="17.7164164">
        <ele>41.9547</ele>
        <time>2014-06-04T13:45:18Z</time>
      </trkpt>
      <trkpt lat="59.9112185" lon="17.716407">
        <ele>41.9547</ele>
        <time>2014-06-04T13:45:19Z</time>
      </trkpt>
      <trkpt lat="59.9112429" lon="17.7164023">
        <ele>41.9547</ele>
        <time>2014-06-04T13:45:20Z</time>
      </trkpt>
      <trkpt lat="59.9112678" lon="17.7163961">
        <ele>42.4354</ele>
        <time>2014-06-04T13:45:21Z</time>
      </trkpt>
      <trkpt lat="59.9112897" lon="17.7163886">
        <ele>42.4354</ele>
        <time>2014-06-04T13:45:22Z</time>
      </trkpt>
      <trkpt lat="59.9113138" lon="17.716384">
        <ele>42.916</ele>
        <time>2014-06-04T13:45:23Z</time>
      </trkpt>
      <trkpt lat="59.9113395" lon="17.7163825">
        <ele>42.916</ele>
        <time>2014-06-04T13:45:24Z</time>
      </trkpt>
      <trkpt lat="59.9113643" lon="17.7163859">
        <ele>43.3966</ele>
        <time>2014-06-04T13:45:25Z</time>
      </trkpt>
      <trkpt lat="59.9113876" lon="17.7163931">
        <ele>43.3966</ele>
        <time>2014-06-04T13:45:26Z</time>
      </trkpt>
      <trkpt lat="59.9114117" lon="17.7164008">
        <ele>43.8773</ele>
        <time>2014-06-04T13:45:27Z</time>
      </trkpt>
      <trkpt lat="59.9114347" lon="17.7164045">
        <ele>43.8773</ele>
        <time>2014-06-04T13:45:28Z</time>
      </trkpt>
      <trkpt lat="59.9114589" lon="17.7164044">
        <ele>44.358</ele>
        <time>2014-06-04T13:45:29Z</time>
      </trkpt>
      <trkpt lat="59.9114812" lon="17.7164059">
        <ele>44.358</ele>
        <time>2014-06-04T13:45:30Z</time>
      </trkpt>
      <trkpt lat="59.9115047" lon="17.7164047">
        <ele>44.358</ele>
        <time>2014-06-04T13:45:31Z</time>
      </trkpt>
      <trkpt lat="59.9115254" lon="17.7164008">
        <ele>44.358</ele>
        <time>2014-06-04T13:45:32Z</time>
      </trkpt>
      <trkpt lat="59.911545" lon="17.7163915">
        <ele>44.358</ele>
        <time>2014-06-04T13:45:33Z</time>
      </trkpt>
      <trkpt lat="59.9115678" lon="17.7163765">
        <ele>44.8386</ele>
        <time>2014-06-04T13:45:34Z</time>
      </trkpt>
      <trkpt lat="59.9115894" lon="17.7163624">
        <ele>44.358</ele>
        <time>2014-06-04T13:45:35Z</time>
      </trkpt>
      <trkpt lat="59.9116127" lon="17.7163394">
        <ele>44.358</ele>
        <time>2014-06-04T13:45:36Z</time>
      </trkpt>
      <trkpt lat="59.9116362" lon="17.7163044">
        <ele>43.8773</ele>
        <time>2014-06-04T13:45:37Z</time>
      </trkpt>
      <trkpt lat="59.9116584" lon="17.7162802">
        <ele>44.358</ele>
        <time>2014-06-04T13:45:38Z</time>
      </trkpt>
      <trkpt lat="59.9116774" lon="17.7162609">
        <ele>44.358</ele>
        <time>2014-06-04T13:45:39Z</time>
      </trkpt>
      <trkpt lat="59.9116951" lon="17.7162408">
        <ele>44.358</ele>
        <time>2014-06-04T13:45:40Z</time>
      </trkpt>
      <trkpt lat="59.9117164" lon="17.7162165">
        <ele>43.8773</ele>
        <time>2014-06-04T13:45:41Z</time>
      </trkpt>
      <trkpt lat="59.9117417" lon="17.7161935">
        <ele>43.8773</ele>
        <time>2014-06-04T13:45:42Z</time>
      </trkpt>
      <trkpt lat="59.9117638" lon="17.7161651">
        <ele>43.8773</ele>
        <time>2014-06-04T13:45:43Z</time>
      </trkpt>
      <trkpt lat="59.9117818" lon="17.7161239">
        <ele>43.8773</ele>
        <time>2014-06-04T13:45:44Z</time>
      </trkpt>
      <trkpt lat="59.9117947" lon="17.7160947">
        <ele>43.8773</ele>
        <time>2014-06-04T13:45:45Z</time>
      </trkpt>
      <trkpt lat="59.9118081" lon="17.716058">
        <ele>43.8773</ele>
        <time>2014-06-04T13:45:46Z</time>
      </trkpt>
      <trkpt lat="59.911823" lon="17.7160206">
        <ele>43.8773</ele>
        <time>2014-06-04T13:45:47Z</time>
      </trkpt>
      <trkpt lat="59.9118393" lon="17.7159745">
        <ele>43.8773</ele>
        <time>2014-06-04T13:45:48Z</time>
      </trkpt>
      <trkpt lat="59.9118543" lon="17.7159302">
        <ele>44.358</ele>
        <time>2014-06-04T13:45:49Z</time>
      </trkpt>
      <trkpt lat="59.9118703" lon="17.7158895">
        <ele>44.8386</ele>
        <time>2014-06-04T13:45:50Z</time>
      </trkpt>
      <trkpt lat="59.9118855" lon="17.71585">
        <ele>45.3192</ele>
        <time>2014-06-04T13:45:51Z</time>
      </trkpt>
      <trkpt lat="59.9118999" lon="17.7158121">
        <ele>45.7999</ele>
        <time>2014-06-04T13:45:52Z</time>
      </trkpt>
      <trkpt lat="59.9119135" lon="17.7157751">
        <ele>46.2806</ele>
        <time>2014-06-04T13:45:53Z</time>
      </trkpt>
      <trkpt lat="59.9119266" lon="17.715736">
        <ele>46.7612</ele>
        <time>2014-06-04T13:45:54Z</time>
      </trkpt>
      <trkpt lat="59.9119429" lon="17.7156947">
        <ele>47.7225</ele>
        <time>2014-06-04T13:45:55Z</time>
      </trkpt>
      <trkpt lat="59.9119584" lon="17.7156547">
        <ele>47.7225</ele>
        <time>2014-06-04T13:45:56Z</time>
      </trkpt>
      <trkpt lat="59.9119765" lon="17.7156177">
        <ele>47.7225</ele>
        <time>2014-06-04T13:45:57Z</time>
      </trkpt>
      <trkpt lat="59.9119973" lon="17.7155858">
        <ele>47.7225</ele>
        <time>2014-06-04T13:45:58Z</time>
      </trkpt>
      <trkpt lat="59.9120154" lon="17.7155515">
        <ele>47.7225</ele>
        <time>2014-06-04T13:45:59Z</time>
      </trkpt>
      <trkpt lat="59.9120349" lon="17.7155208">
        <ele>47.7225</ele>
        <time>2014-06-04T13:46:00Z</time>
      </trkpt>
      <trkpt lat="59.9120571" lon="17.7154961">
        <ele>47.7225</ele>
        <time>2014-06-04T13:46:01Z</time>
      </trkpt>
      <trkpt lat="59.9120799" lon="17.7154742">
        <ele>47.7225</ele>
        <time>2014-06-04T13:46:02Z</time>
      </trkpt>
      <trkpt lat="59.9121008" lon="17.7154519">
        <ele>47.2418</ele>
        <time>2014-06-04T13:46:03Z</time>
      </trkpt>
      <trkpt lat="59.912118" lon="17.7154205">
        <ele>47.2418</ele>
        <time>2014-06-04T13:46:04Z</time>
      </trkpt>
      <trkpt lat="59.9121366" lon="17.7153886">
        <ele>47.2418</ele>
        <time>2014-06-04T13:46:05Z</time>
      </trkpt>
      <trkpt lat="59.9121543" lon="17.715361">
        <ele>47.2418</ele>
        <time>2014-06-04T13:46:06Z</time>
      </trkpt>
      <trkpt lat="59.9121717" lon="17.7153415">
        <ele>47.2418</ele>
        <time>2014-06-04T13:46:07Z</time>
      </trkpt>
      <trkpt lat="59.9121894" lon="17.7153258">
        <ele>46.7612</ele>
        <time>2014-06-04T13:46:08Z</time>
      </trkpt>
      <trkpt lat="59.9122116" lon="17.7153182">
        <ele>46.2806</ele>
        <time>2014-06-04T13:46:09Z</time>
      </trkpt>
      <trkpt lat="59.9122402" lon="17.7153113">
        <ele>46.2806</ele>
        <time>2014-06-04T13:46:10Z</time>
      </trkpt>
      <trkpt lat="59.9122642" lon="17.7153076">
        <ele>46.2806</ele>
        <time>2014-06-04T13:46:11Z</time>
      </trkpt>
      <trkpt lat="59.9122901" lon="17.7153109">
        <ele>46.2806</ele>
        <time>2014-06-04T13:46:12Z</time>
      </trkpt>
      <trkpt lat="59.9123164" lon="17.7153257">
        <ele>45.7999</ele>
        <time>2014-06-04T13:46:13Z</time>
      </trkpt>
      <trkpt lat="59.9123421" lon="17.7153397">
        <ele>45.3192</ele>
        <time>2014-06-04T13:46:14Z</time>
      </trkpt>
      <trkpt lat="59.9123667" lon="17.7153508">
        <ele>45.3192</ele>
        <time>2014-06-04T13:46:15Z</time>
      </trkpt>
      <trkpt lat="59.9123942" lon="17.7153637">
        <ele>45.3192</ele>
        <time>2014-06-04T13:46:16Z</time>
      </trkpt>
      <trkpt lat="59.9124236" lon="17.7153865">
        <ele>44.8386</ele>
        <time>2014-06-04T13:46:17Z</time>
      </trkpt>
      <trkpt lat="59.9124498" lon="17.7154243">
        <ele>44.358</ele>
        <time>2014-06-04T13:46:18Z</time>
      </trkpt>
      <trkpt lat="59.9124713" lon="17.7154483">
        <ele>43.8773</ele>
        <time>2014-06-04T13:46:19Z</time>
      </trkpt>
      <trkpt lat="59.912491" lon="17.715473">
        <ele>43.8773</ele>
        <time>2014-06-04T13:46:20Z</time>
      </trkpt>
      <trkpt lat="59.9125023" lon="17.7155031">
        <ele>43.3966</ele>
        <time>2014-06-04T13:46:21Z</time>
      </trkpt>
      <trkpt lat="59.9125169" lon="17.7155269">
        <ele>42.916</ele>
        <time>2014-06-04T13:46:22Z</time>
      </trkpt>
      <trkpt lat="59.9125346" lon="17.7155496">
        <ele>42.4354</ele>
        <time>2014-06-04T13:46:23Z</time>
      </trkpt>
      <trkpt lat="59.912554" lon="17.715562">
        <ele>42.4354</ele>
        <time>2014-06-04T13:46:24Z</time>
      </trkpt>
      <trkpt lat="59.9125721" lon="17.7155806">
        <ele>41.9547</ele>
        <time>2014-06-04T13:46:25Z</time>
      </trkpt>
      <trkpt lat="59.9125904" lon="17.7155984">
        <ele>41.474</ele>
        <time>2014-06-04T13:46:26Z</time>
      </trkpt>
      <trkpt lat="59.9126123" lon="17.7155979">
        <ele>40.9934</ele>
        <time>2014-06-04T13:46:27Z</time>
      </trkpt>
      <trkpt lat="59.9126396" lon="17.7155807">
        <ele>40.9934</ele>
        <time>2014-06-04T13:46:28Z</time>
      </trkpt>
      <trkpt lat="59.9126665" lon="17.7155683">
        <ele>40.9934</ele>
        <time>2014-06-04T13:46:29Z</time>
      </trkpt>
      <trkpt lat="59.9126899" lon="17.7155637">
        <ele>40.5128</ele>
        <time>2014-06-04T13:46:30Z</time>
      </trkpt>
      <trkpt lat="59.9127133" lon="17.715566">
        <ele>40.0321</ele>
        <time>2014-06-04T13:46:31Z</time>
      </trkpt>
      <trkpt lat="59.9127399" lon="17.7155645">
        <ele>40.5128</ele>
        <time>2014-06-04T13:46:32Z</time>
      </trkpt>
      <trkpt lat="59.9127674" lon="17.7155545">
        <ele>40.5128</ele>
        <time>2014-06-04T13:46:33Z</time>
      </trkpt>
      <trkpt lat="59.9127924" lon="17.7155488">
        <ele>40.5128</ele>
        <time>2014-06-04T13:46:34Z</time>
      </trkpt>
      <trkpt lat="59.9128161" lon="17.715548">
        <ele>40.9934</ele>
        <time>2014-06-04T13:46:35Z</time>
      </trkpt>
      <trkpt lat="59.9128402" lon="17.7155523">
        <ele>40.9934</ele>
        <time>2014-06-04T13:46:36Z</time>
      </trkpt>
      <trkpt lat="59.9128676" lon="17.7155394">
        <ele>41.474</ele>
        <time>2014-06-04T13:46:37Z</time>
      </trkpt>
      <trkpt lat="59.9128839" lon="17.7155286">
        <ele>40.9934</ele>
        <time>2014-06-04T13:46:38Z</time>
      </trkpt>
      <trkpt lat="59.9128985" lon="17.7155184">
        <ele>40.5128</ele>
        <time>2014-06-04T13:46:39Z</time>
      </trkpt>
      <trkpt lat="59.9129178" lon="17.7155113">
        <ele>40.5128</ele>
        <time>2014-06-04T13:46:40Z</time>
      </trkpt>
      <trkpt lat="59.9129322" lon="17.7155037">
        <ele>40.0321</ele>
        <time>2014-06-04T13:46:41Z</time>
      </trkpt>
      <trkpt lat="59.9129569" lon="17.7154824">
        <ele>41.474</ele>
        <time>2014-06-04T13:46:42Z</time>
      </trkpt>
      <trkpt lat="59.912979" lon="17.715465">
        <ele>40.9934</ele>
        <time>2014-06-04T13:46:43Z</time>
      </trkpt>
      <trkpt lat="59.9130008" lon="17.715442">
        <ele>40.5128</ele>
        <time>2014-06-04T13:46:44Z</time>
      </trkpt>
      <trkpt lat="59.9130196" lon="17.7154196">
        <ele>40.0321</ele>
        <time>2014-06-04T13:46:45Z</time>
      </trkpt>
      <trkpt lat="59.9130406" lon="17.7153949">
        <ele>39.5513</ele>
        <time>2014-06-04T13:46:46Z</time>
      </trkpt>
      <trkpt lat="59.9130618" lon="17.7153767">
        <ele>39.5513</ele>
        <time>2014-06-04T13:46:47Z</time>
      </trkpt>
      <trkpt lat="59.9130835" lon="17.7153735">
        <ele>40.0321</ele>
        <time>2014-06-04T13:46:48Z</time>
      </trkpt>
      <trkpt lat="59.9131007" lon="17.7153699">
        <ele>40.0321</ele>
        <time>2014-06-04T13:46:49Z</time>
      </trkpt>
      <trkpt lat="59.9131265" lon="17.7153682">
        <ele>40.5128</ele>
        <time>2014-06-04T13:46:50Z</time>
      </trkpt>
      <trkpt lat="59.9131514" lon="17.7153684">
        <ele>40.0321</ele>
        <time>2014-06-04T13:46:51Z</time>
      </trkpt>
      <trkpt lat="59.9131725" lon="17.7153874">
        <ele>40.0321</ele>
        <time>2014-06-04T13:46:52Z</time>
      </trkpt>
      <trkpt lat="59.9131933" lon="17.7154086">
        <ele>40.5128</ele>
        <time>2014-06-04T13:46:53Z</time>
      </trkpt>
      <trkpt lat="59.9132177" lon="17.7154216">
        <ele>40.5128</ele>
        <time>2014-06-04T13:46:54Z</time>
      </trkpt>
      <trkpt lat="59.9132452" lon="17.7154338">
        <ele>40.9934</ele>
        <time>2014-06-04T13:46:55Z</time>
      </trkpt>
      <trkpt lat="59.9132726" lon="17.7154286">
        <ele>41.474</ele>
        <time>2014-06-04T13:46:56Z</time>
      </trkpt>
      <trkpt lat="59.9133038" lon="17.7154254">
        <ele>41.9547</ele>
        <time>2014-06-04T13:46:57Z</time>
      </trkpt>
      <trkpt lat="59.9133305" lon="17.7154279">
        <ele>42.4354</ele>
        <time>2014-06-04T13:46:58Z</time>
      </trkpt>
      <trkpt lat="59.9133509" lon="17.7154253">
        <ele>42.916</ele>
        <time>2014-06-04T13:46:59Z</time>
      </trkpt>
      <trkpt lat="59.9133663" lon="17.7154193">
        <ele>42.4354</ele>
        <time>2014-06-04T13:47:00Z</time>
      </trkpt>
      <trkpt lat="59.9133888" lon="17.7154186">
        <ele>42.916</ele>
        <time>2014-06-04T13:47:01Z</time>
      </trkpt>
      <trkpt lat="59.9134135" lon="17.7154329">
        <ele>43.3966</ele>
        <time>2014-06-04T13:47:02Z</time>
      </trkpt>
      <trkpt lat="59.9134364" lon="17.7154523">
        <ele>43.8773</ele>
        <time>2014-06-04T13:47:03Z</time>
      </trkpt>
      <trkpt lat="59.9134596" lon="17.7154702">
        <ele>43.8773</ele>
        <time>2014-06-04T13:47:04Z</time>
      </trkpt>
      <trkpt lat="59.9134874" lon="17.7154829">
        <ele>44.8386</ele>
        <time>2014-06-04T13:47:05Z</time>
      </trkpt>
      <trkpt lat="59.9135154" lon="17.7154891">
        <ele>45.3192</ele>
        <time>2014-06-04T13:47:06Z</time>
      </trkpt>
      <trkpt lat="59.9135369" lon="17.715498">
        <ele>45.7999</ele>
        <time>2014-06-04T13:47:07Z</time>
      </trkpt>
      <trkpt lat="59.9135597" lon="17.7155087">
        <ele>45.7999</ele>
        <time>2014-06-04T13:47:08Z</time>
      </trkpt>
      <trkpt lat="59.9135803" lon="17.7155134">
        <ele>45.7999</ele>
        <time>2014-06-04T13:47:09Z</time>
      </trkpt>
      <trkpt lat="59.9136036" lon="17.7155154">
        <ele>45.7999</ele>
        <time>2014-06-04T13:47:10Z</time>
      </trkpt>
      <trkpt lat="59.9136264" lon="17.7155222">
        <ele>45.3192</ele>
        <time>2014-06-04T13:47:11Z</time>
      </trkpt>
      <trkpt lat="59.9136471" lon="17.7155342">
        <ele>45.3192</ele>
        <time>2014-06-04T13:47:12Z</time>
      </trkpt>
      <trkpt lat="59.9136693" lon="17.7155528">
        <ele>45.3192</ele>
        <time>2014-06-04T13:47:13Z</time>
      </trkpt>
      <trkpt lat="59.9136937" lon="17.7155647">
        <ele>45.3192</ele>
        <time>2014-06-04T13:47:14Z</time>
      </trkpt>
      <trkpt lat="59.9137169" lon="17.7155726">
        <ele>45.3192</ele>
        <time>2014-06-04T13:47:15Z</time>
      </trkpt>
      <trkpt lat="59.9137394" lon="17.715584">
        <ele>45.3192</ele>
        <time>2014-06-04T13:47:16Z</time>
      </trkpt>
      <trkpt lat="59.9137607" lon="17.7155974">
        <ele>45.3192</ele>
        <time>2014-06-04T13:47:17Z</time>
      </trkpt>
      <trkpt lat="59.9137826" lon="17.7156113">
        <ele>45.3192</ele>
        <time>2014-06-04T13:47:18Z</time>
      </trkpt>
      <trkpt lat="59.913806" lon="17.7156263">
        <ele>45.3192</ele>
        <time>2014-06-04T13:47:19Z</time>
      </trkpt>
      <trkpt lat="59.9138294" lon="17.7156471">
        <ele>45.3192</ele>
        <time>2014-06-04T13:47:20Z</time>
      </trkpt>
      <trkpt lat="59.9138549" lon="17.7156686">
        <ele>45.3192</ele>
        <time>2014-06-04T13:47:21Z</time>
      </trkpt>
      <trkpt lat="59.9138806" lon="17.7156916">
        <ele>44.8386</ele>
        <time>2014-06-04T13:47:22Z</time>
      </trkpt>
      <trkpt lat="59.913902" lon="17.7157117">
        <ele>44.358</ele>
        <time>2014-06-04T13:47:23Z</time>
      </trkpt>
      <trkpt lat="59.9139228" lon="17.7157227">
        <ele>44.358</ele>
        <time>2014-06-04T13:47:24Z</time>
      </trkpt>
      <trkpt lat="59.9139465" lon="17.7157365">
        <ele>44.8386</ele>
        <time>2014-06-04T13:47:25Z</time>
      </trkpt>
      <trkpt lat="59.9139672" lon="17.7157454">
        <ele>44.8386</ele>
        <time>2014-06-04T13:47:26Z</time>
      </trkpt>
      <trkpt lat="59.9139847" lon="17.7157445">
        <ele>45.3192</ele>
        <time>2014-06-04T13:47:27Z</time>
      </trkpt>
      <trkpt lat="59.9140028" lon="17.7157361">
        <ele>46.2806</ele>
        <time>2014-06-04T13:47:28Z</time>
      </trkpt>
      <trkpt lat="59.914017" lon="17.7157237">
        <ele>46.7612</ele>
        <time>2014-06-04T13:47:29Z</time>
      </trkpt>
      <trkpt lat="59.9140363" lon="17.7157142">
        <ele>47.7225</ele>
        <time>2014-06-04T13:47:30Z</time>
      </trkpt>
      <trkpt lat="59.9140587" lon="17.7157158">
        <ele>48.2034</ele>
        <time>2014-06-04T13:47:31Z</time>
      </trkpt>
      <trkpt lat="59.9140762" lon="17.7157227">
        <ele>48.2034</ele>
        <time>2014-06-04T13:47:32Z</time>
      </trkpt>
      <trkpt lat="59.9140976" lon="17.7157228">
        <ele>48.684</ele>
        <time>2014-06-04T13:47:33Z</time>
      </trkpt>
      <trkpt lat="59.9141164" lon="17.7157185">
        <ele>48.684</ele>
        <time>2014-06-04T13:47:34Z</time>
      </trkpt>
      <trkpt lat="59.9141351" lon="17.7157144">
        <ele>49.6453</ele>
        <time>2014-06-04T13:47:35Z</time>
      </trkpt>
      <trkpt lat="59.9141605" lon="17.7157098">
        <ele>50.6066</ele>
        <time>2014-06-04T13:47:36Z</time>
      </trkpt>
      <trkpt lat="59.9141823" lon="17.715708">
        <ele>50.6066</ele>
        <time>2014-06-04T13:47:37Z</time>
      </trkpt>
      <trkpt lat="59.9142003" lon="17.7157052">
        <ele>50.126</ele>
        <time>2014-06-04T13:47:38Z</time>
      </trkpt>
      <trkpt lat="59.914222" lon="17.7157029">
        <ele>50.126</ele>
        <time>2014-06-04T13:47:39Z</time>
      </trkpt>
      <trkpt lat="59.9142408" lon="17.7157083">
        <ele>50.126</ele>
        <time>2014-06-04T13:47:40Z</time>
      </trkpt>
      <trkpt lat="59.9142595" lon="17.7157081">
        <ele>50.6066</ele>
        <time>2014-06-04T13:47:41Z</time>
      </trkpt>
      <trkpt lat="59.914279" lon="17.7157009">
        <ele>50.6066</ele>
        <time>2014-06-04T13:47:42Z</time>
      </trkpt>
      <trkpt lat="59.9143009" lon="17.7157007">
        <ele>50.6066</ele>
        <time>2014-06-04T13:47:43Z</time>
      </trkpt>
      <trkpt lat="59.9143252" lon="17.7156987">
        <ele>50.6066</ele>
        <time>2014-06-04T13:47:44Z</time>
      </trkpt>
      <trkpt lat="59.9143493" lon="17.7156827">
        <ele>51.5679</ele>
        <time>2014-06-04T13:47:45Z</time>
      </trkpt>
      <trkpt lat="59.914367" lon="17.7156551">
        <ele>51.0872</ele>
        <time>2014-06-04T13:47:46Z</time>
      </trkpt>
      <trkpt lat="59.9143895" lon="17.7156267">
        <ele>51.5679</ele>
        <time>2014-06-04T13:47:47Z</time>
      </trkpt>
      <trkpt lat="59.9144105" lon="17.7155954">
        <ele>51.0872</ele>
        <time>2014-06-04T13:47:48Z</time>
      </trkpt>
      <trkpt lat="59.9144304" lon="17.7155724">
        <ele>51.5679</ele>
        <time>2014-06-04T13:47:49Z</time>
      </trkpt>
      <trkpt lat="59.9144489" lon="17.7155555">
        <ele>51.5679</ele>
        <time>2014-06-04T13:47:50Z</time>
      </trkpt>
      <trkpt lat="59.914463" lon="17.7155372">
        <ele>51.0872</ele>
        <time>2014-06-04T13:47:51Z</time>
      </trkpt>
      <trkpt lat="59.9144811" lon="17.7155129">
        <ele>51.0872</ele>
        <time>2014-06-04T13:47:52Z</time>
      </trkpt>
      <trkpt lat="59.9145011" lon="17.7154896">
        <ele>51.0872</ele>
        <time>2014-06-04T13:47:53Z</time>
      </trkpt>
      <trkpt lat="59.9145193" lon="17.7154642">
        <ele>51.0872</ele>
        <time>2014-06-04T13:47:54Z</time>
      </trkpt>
      <trkpt lat="59.9145367" lon="17.7154445">
        <ele>50.6066</ele>
        <time>2014-06-04T13:47:55Z</time>
      </trkpt>
      <trkpt lat="59.9145604" lon="17.7154274">
        <ele>50.6066</ele>
        <time>2014-06-04T13:47:56Z</time>
      </trkpt>
      <trkpt lat="59.9145846" lon="17.7154092">
        <ele>51.0872</ele>
        <time>2014-06-04T13:47:57Z</time>
      </trkpt>
      <trkpt lat="59.9146099" lon="17.7154032">
        <ele>50.6066</ele>
        <time>2014-06-04T13:47:58Z</time>
      </trkpt>
      <trkpt lat="59.9146322" lon="17.7153938">
        <ele>50.126</ele>
        <time>2014-06-04T13:47:59Z</time>
      </trkpt>
      <trkpt lat="59.9146526" lon="17.7153765">
        <ele>50.126</ele>
        <time>2014-06-04T13:48:00Z</time>
      </trkpt>
      <trkpt lat="59.9146706" lon="17.7153657">
        <ele>49.6453</ele>
        <time>2014-06-04T13:48:01Z</time>
      </trkpt>
      <trkpt lat="59.9146877" lon="17.7153704">
        <ele>50.126</ele>
        <time>2014-06-04T13:48:02Z</time>
      </trkpt>
      <trkpt lat="59.9147057" lon="17.7153716">
        <ele>49.6453</ele>
        <time>2014-06-04T13:48:03Z</time>
      </trkpt>
      <trkpt lat="59.9147304" lon="17.715376">
        <ele>50.126</ele>
        <time>2014-06-04T13:48:04Z</time>
      </trkpt>
      <trkpt lat="59.9147526" lon="17.715386">
        <ele>50.126</ele>
        <time>2014-06-04T13:48:05Z</time>
      </trkpt>
      <trkpt lat="59.9147728" lon="17.7153952">
        <ele>49.6453</ele>
        <time>2014-06-04T13:48:06Z</time>
      </trkpt>
      <trkpt lat="59.9147961" lon="17.7154044">
        <ele>50.126</ele>
        <time>2014-06-04T13:48:07Z</time>
      </trkpt>
      <trkpt lat="59.9148178" lon="17.7153969">
        <ele>49.6453</ele>
        <time>2014-06-04T13:48:08Z</time>
      </trkpt>
      <trkpt lat="59.9148347" lon="17.7153734">
        <ele>48.684</ele>
        <time>2014-06-04T13:48:09Z</time>
      </trkpt>
      <trkpt lat="59.9148443" lon="17.7153294">
        <ele>48.2034</ele>
        <time>2014-06-04T13:48:10Z</time>
      </trkpt>
      <trkpt lat="59.9148478" lon="17.7152845">
        <ele>47.2418</ele>
        <time>2014-06-04T13:48:11Z</time>
      </trkpt>
      <trkpt lat="59.9148531" lon="17.7152461">
        <ele>47.2418</ele>
        <time>2014-06-04T13:48:12Z</time>
      </trkpt>
      <trkpt lat="59.9148603" lon="17.7152239">
        <ele>46.2806</ele>
        <time>2014-06-04T13:48:13Z</time>
      </trkpt>
      <trkpt lat="59.9148857" lon="17.7152057">
        <ele>47.2418</ele>
        <time>2014-06-04T13:48:14Z</time>
      </trkpt>
      <trkpt lat="59.9149095" lon="17.7151866">
        <ele>46.7612</ele>
        <time>2014-06-04T13:48:15Z</time>
      </trkpt>
      <trkpt lat="59.9149357" lon="17.7151736">
        <ele>46.2806</ele>
        <time>2014-06-04T13:48:16Z</time>
      </trkpt>
      <trkpt lat="59.9149586" lon="17.7151651">
        <ele>45.7999</ele>
        <time>2014-06-04T13:48:17Z</time>
      </trkpt>
      <trkpt lat="59.9149839" lon="17.7151597">
        <ele>45.7999</ele>
        <time>2014-06-04T13:48:18Z</time>
      </trkpt>
      <trkpt lat="59.9150038" lon="17.7151595">
        <ele>45.3192</ele>
        <time>2014-06-04T13:48:19Z</time>
      </trkpt>
      <trkpt lat="59.9150203" lon="17.7151555">
        <ele>44.8386</ele>
        <time>2014-06-04T13:48:20Z</time>
      </trkpt>
      <trkpt lat="59.9150394" lon="17.7151565">
        <ele>43.8773</ele>
        <time>2014-06-04T13:48:21Z</time>
      </trkpt>
      <trkpt lat="59.9150637" lon="17.7151591">
        <ele>44.358</ele>
        <time>2014-06-04T13:48:22Z</time>
      </trkpt>
      <trkpt lat="59.9150904" lon="17.7151504">
        <ele>44.358</ele>
        <time>2014-06-04T13:48:23Z</time>
      </trkpt>
      <trkpt lat="59.9151243" lon="17.715144">
        <ele>45.3192</ele>
        <time>2014-06-04T13:48:24Z</time>
      </trkpt>
      <trkpt lat="59.9151495" lon="17.7151384">
        <ele>45.7999</ele>
        <time>2014-06-04T13:48:25Z</time>
      </trkpt>
      <trkpt lat="59.9151767" lon="17.7151314">
        <ele>46.2806</ele>
        <time>2014-06-04T13:48:26Z</time>
      </trkpt>
      <trkpt lat="59.9152004" lon="17.7151253">
        <ele>46.2806</ele>
        <time>2014-06-04T13:48:27Z</time>
      </trkpt>
      <trkpt lat="59.9152289" lon="17.7151228">
        <ele>46.7612</ele>
        <time>2014-06-04T13:48:28Z</time>
      </trkpt>
      <trkpt lat="59.915253" lon="17.7150985">
        <ele>47.2418</ele>
        <time>2014-06-04T13:48:29Z</time>
      </trkpt>
      <trkpt lat="59.9152809" lon="17.7150706">
        <ele>47.7225</ele>
        <time>2014-06-04T13:48:30Z</time>
      </trkpt>
      <trkpt lat="59.9153021" lon="17.7150312">
        <ele>47.7225</ele>
        <time>2014-06-04T13:48:31Z</time>
      </trkpt>
      <trkpt lat="59.9153188" lon="17.7149836">
        <ele>47.7225</ele>
        <time>2014-06-04T13:48:32Z</time>
      </trkpt>
      <trkpt lat="59.9153277" lon="17.7149444">
        <ele>47.2418</ele>
        <time>2014-06-04T13:48:33Z</time>
      </trkpt>
      <trkpt lat="59.915324" lon="17.71488">
        <ele>47.2418</ele>
        <time>2014-06-04T13:48:34Z</time>
      </trkpt>
      <trkpt lat="59.9153183" lon="17.7148105">
        <ele>47.2418</ele>
        <time>2014-06-04T13:48:35Z</time>
      </trkpt>
      <trkpt lat="59.9153222" lon="17.714757">
        <ele>47.2418</ele>
        <time>2014-06-04T13:48:36Z</time>
      </trkpt>
      <trkpt lat="59.915329" lon="17.7147142">
        <ele>47.7225</ele>
        <time>2014-06-04T13:48:37Z</time>
      </trkpt>
      <trkpt lat="59.9153348" lon="17.7146657">
        <ele>47.7225</ele>
        <time>2014-06-04T13:48:38Z</time>
      </trkpt>
      <trkpt lat="59.91534" lon="17.7146106">
        <ele>48.2034</ele>
        <time>2014-06-04T13:48:39Z</time>
      </trkpt>
      <trkpt lat="59.9153426" lon="17.7145534">
        <ele>48.2034</ele>
        <time>2014-06-04T13:48:40Z</time>
      </trkpt>
      <trkpt lat="59.9153507" lon="17.7145003">
        <ele>48.2034</ele>
        <time>2014-06-04T13:48:41Z</time>
      </trkpt>
      <trkpt lat="59.9153524" lon="17.7144581">
        <ele>48.2034</ele>
        <time>2014-06-04T13:48:42Z</time>
      </trkpt>
      <trkpt lat="59.9153556" lon="17.7144104">
        <ele>48.684</ele>
        <time>2014-06-04T13:48:43Z</time>
      </trkpt>
      <trkpt lat="59.9153595" lon="17.7143619">
        <ele>49.1646</ele>
        <time>2014-06-04T13:48:44Z</time>
      </trkpt>
      <trkpt lat="59.9153648" lon="17.7143153">
        <ele>48.684</ele>
        <time>2014-06-04T13:48:45Z</time>
      </trkpt>
      <trkpt lat="59.9153693" lon="17.7142623">
        <ele>48.684</ele>
        <time>2014-06-04T13:48:46Z</time>
      </trkpt>
      <trkpt lat="59.9153668" lon="17.7142107">
        <ele>48.2034</ele>
        <time>2014-06-04T13:48:47Z</time>
      </trkpt>
      <trkpt lat="59.9153694" lon="17.7141591">
        <ele>48.2034</ele>
        <time>2014-06-04T13:48:48Z</time>
      </trkpt>
      <trkpt lat="59.9153761" lon="17.7141149">
        <ele>48.2034</ele>
        <time>2014-06-04T13:48:49Z</time>
      </trkpt>
      <trkpt lat="59.9153825" lon="17.7140631">
        <ele>48.684</ele>
        <time>2014-06-04T13:48:50Z</time>
      </trkpt>
      <trkpt lat="59.9153874" lon="17.714026">
        <ele>48.2034</ele>
        <time>2014-06-04T13:48:51Z</time>
      </trkpt>
      <trkpt lat="59.9153903" lon="17.7139837">
        <ele>48.2034</ele>
        <time>2014-06-04T13:48:52Z</time>
      </trkpt>
      <trkpt lat="59.9153908" lon="17.7139459">
        <ele>47.7225</ele>
        <time>2014-06-04T13:48:53Z</time>
      </trkpt>
      <trkpt lat="59.9153896" lon="17.7139051">
        <ele>47.7225</ele>
        <time>2014-06-04T13:48:54Z</time>
      </trkpt>
      <trkpt lat="59.9153862" lon="17.7138428">
        <ele>47.7225</ele>
        <time>2014-06-04T13:48:55Z</time>
      </trkpt>
      <trkpt lat="59.9153845" lon="17.7137722">
        <ele>48.2034</ele>
        <time>2014-06-04T13:48:56Z</time>
      </trkpt>
      <trkpt lat="59.9153817" lon="17.7137112">
        <ele>48.2034</ele>
        <time>2014-06-04T13:48:57Z</time>
      </trkpt>
      <trkpt lat="59.9153821" lon="17.7136614">
        <ele>47.7225</ele>
        <time>2014-06-04T13:48:58Z</time>
      </trkpt>
      <trkpt lat="59.9153912" lon="17.7136119">
        <ele>47.7225</ele>
        <time>2014-06-04T13:48:59Z</time>
      </trkpt>
      <trkpt lat="59.9154016" lon="17.7135679">
        <ele>47.7225</ele>
        <time>2014-06-04T13:49:00Z</time>
      </trkpt>
      <trkpt lat="59.9154186" lon="17.7135231">
        <ele>47.2418</ele>
        <time>2014-06-04T13:49:01Z</time>
      </trkpt>
      <trkpt lat="59.9154354" lon="17.7134849">
        <ele>46.2806</ele>
        <time>2014-06-04T13:49:02Z</time>
      </trkpt>
      <trkpt lat="59.9154493" lon="17.7134477">
        <ele>45.7999</ele>
        <time>2014-06-04T13:49:03Z</time>
      </trkpt>
      <trkpt lat="59.9154679" lon="17.7133987">
        <ele>46.2806</ele>
        <time>2014-06-04T13:49:04Z</time>
      </trkpt>
      <trkpt lat="59.915483" lon="17.7133614">
        <ele>45.7999</ele>
        <time>2014-06-04T13:49:05Z</time>
      </trkpt>
      <trkpt lat="59.9154976" lon="17.7133321">
        <ele>45.3192</ele>
        <time>2014-06-04T13:49:06Z</time>
      </trkpt>
      <trkpt lat="59.9155133" lon="17.7132974">
        <ele>44.358</ele>
        <time>2014-06-04T13:49:07Z</time>
      </trkpt>
      <trkpt lat="59.91553" lon="17.7132693">
        <ele>43.8773</ele>
        <time>2014-06-04T13:49:08Z</time>
      </trkpt>
      <trkpt lat="59.9155419" lon="17.7132369">
        <ele>43.8773</ele>
        <time>2014-06-04T13:49:09Z</time>
      </trkpt>
      <trkpt lat="59.9155566" lon="17.7132065">
        <ele>43.3966</ele>
        <time>2014-06-04T13:49:10Z</time>
      </trkpt>
      <trkpt lat="59.9155752" lon="17.7131752">
        <ele>43.3966</ele>
        <time>2014-06-04T13:49:11Z</time>
      </trkpt>
      <trkpt lat="59.9155918" lon="17.7131507">
        <ele>42.916</ele>
        <time>2014-06-04T13:49:12Z</time>
      </trkpt>
      <trkpt lat="59.9156152" lon="17.7131042">
        <ele>43.3966</ele>
        <time>2014-06-04T13:49:13Z</time>
      </trkpt>
      <trkpt lat="59.9156354" lon="17.7130664">
        <ele>43.3966</ele>
        <time>2014-06-04T13:49:14Z</time>
      </trkpt>
      <trkpt lat="59.9156565" lon="17.7130477">
        <ele>43.3966</ele>
        <time>2014-06-04T13:49:15Z</time>
      </trkpt>
      <trkpt lat="59.9156776" lon="17.7130258">
        <ele>42.916</ele>
        <time>2014-06-04T13:49:16Z</time>
      </trkpt>
      <trkpt lat="59.9157046" lon="17.7130042">
        <ele>43.3966</ele>
        <time>2014-06-04T13:49:17Z</time>
      </trkpt>
      <trkpt lat="59.915726" lon="17.7129897">
        <ele>43.3966</ele>
        <time>2014-06-04T13:49:18Z</time>
      </trkpt>
      <trkpt lat="59.9157469" lon="17.7129763">
        <ele>43.8773</ele>
        <time>2014-06-04T13:49:19Z</time>
      </trkpt>
      <trkpt lat="59.9157648" lon="17.7129701">
        <ele>43.8773</ele>
        <time>2014-06-04T13:49:20Z</time>
      </trkpt>
      <trkpt lat="59.915788" lon="17.7129576">
        <ele>43.8773</ele>
        <time>2014-06-04T13:49:21Z</time>
      </trkpt>
      <trkpt lat="59.9158129" lon="17.712941">
        <ele>43.8773</ele>
        <time>2014-06-04T13:49:22Z</time>
      </trkpt>
      <trkpt lat="59.9158373" lon="17.7129276">
        <ele>43.8773</ele>
        <time>2014-06-04T13:49:23Z</time>
      </trkpt>
      <trkpt lat="59.9158621" lon="17.712918">
        <ele>44.8386</ele>
        <time>2014-06-04T13:49:24Z</time>
      </trkpt>
      <trkpt lat="59.9158852" lon="17.7129121">
        <ele>44.8386</ele>
        <time>2014-06-04T13:49:25Z</time>
      </trkpt>
      <trkpt lat="59.9159108" lon="17.7129015">
        <ele>44.8386</ele>
        <time>2014-06-04T13:49:26Z</time>
      </trkpt>
      <trkpt lat="59.9159305" lon="17.7128957">
        <ele>44.358</ele>
        <time>2014-06-04T13:49:27Z</time>
      </trkpt>
      <trkpt lat="59.9159523" lon="17.7128914">
        <ele>44.358</ele>
        <time>2014-06-04T13:49:28Z</time>
      </trkpt>
      <trkpt lat="59.9159749" lon="17.7128857">
        <ele>43.8773</ele>
        <time>2014-06-04T13:49:29Z</time>
      </trkpt>
      <trkpt lat="59.9159989" lon="17.7128819">
        <ele>43.8773</ele>
        <time>2014-06-04T13:49:30Z</time>
      </trkpt>
      <trkpt lat="59.9160161" lon="17.7128907">
        <ele>43.8773</ele>
        <time>2014-06-04T13:49:31Z</time>
      </trkpt>
      <trkpt lat="59.9160315" lon="17.7128971">
        <ele>43.8773</ele>
        <time>2014-06-04T13:49:32Z</time>
      </trkpt>
      <trkpt lat="59.9160466" lon="17.7129015">
        <ele>43.3966</ele>
        <time>2014-06-04T13:49:33Z</time>
      </trkpt>
      <trkpt lat="59.9160725" lon="17.7128932">
        <ele>44.8386</ele>
        <time>2014-06-04T13:49:34Z</time>
      </trkpt>
      <trkpt lat="59.9160915" lon="17.7128794">
        <ele>44.8386</ele>
        <time>2014-06-04T13:49:35Z</time>
      </trkpt>
      <trkpt lat="59.9161106" lon="17.7128589">
        <ele>44.8386</ele>
        <time>2014-06-04T13:49:36Z</time>
      </trkpt>
      <trkpt lat="59.9161318" lon="17.7128346">
        <ele>45.3192</ele>
        <time>2014-06-04T13:49:37Z</time>
      </trkpt>
      <trkpt lat="59.9161542" lon="17.7128114">
        <ele>45.3192</ele>
        <time>2014-06-04T13:49:38Z</time>
      </trkpt>
      <trkpt lat="59.9161755" lon="17.71279">
        <ele>44.8386</ele>
        <time>2014-06-04T13:49:39Z</time>
      </trkpt>
      <trkpt lat="59.9161968" lon="17.7127658">
        <ele>44.8386</ele>
        <time>2014-06-04T13:49:40Z</time>
      </trkpt>
      <trkpt lat="59.916217" lon="17.7127522">
        <ele>44.358</ele>
        <time>2014-06-04T13:49:41Z</time>
      </trkpt>
      <trkpt lat="59.9162386" lon="17.7127328">
        <ele>44.8386</ele>
        <time>2014-06-04T13:49:42Z</time>
      </trkpt>
      <trkpt lat="59.9162569" lon="17.7127088">
        <ele>44.8386</ele>
        <time>2014-06-04T13:49:43Z</time>
      </trkpt>
      <trkpt lat="59.9162738" lon="17.712684">
        <ele>44.8386</ele>
        <time>2014-06-04T13:49:44Z</time>
      </trkpt>
      <trkpt lat="59.9162921" lon="17.7126624">
        <ele>44.8386</ele>
        <time>2014-06-04T13:49:45Z</time>
      </trkpt>
      <trkpt lat="59.9163117" lon="17.7126327">
        <ele>44.8386</ele>
        <time>2014-06-04T13:49:46Z</time>
      </trkpt>
      <trkpt lat="59.9163307" lon="17.7125981">
        <ele>45.3192</ele>
        <time>2014-06-04T13:49:47Z</time>
      </trkpt>
      <trkpt lat="59.9163465" lon="17.7125676">
        <ele>45.7999</ele>
        <time>2014-06-04T13:49:48Z</time>
      </trkpt>
      <trkpt lat="59.9163632" lon="17.7125315">
        <ele>46.2806</ele>
        <time>2014-06-04T13:49:49Z</time>
      </trkpt>
      <trkpt lat="59.9163789" lon="17.7124919">
        <ele>47.2418</ele>
        <time>2014-06-04T13:49:50Z</time>
      </trkpt>
      <trkpt lat="59.916389" lon="17.712455">
        <ele>47.2418</ele>
        <time>2014-06-04T13:49:51Z</time>
      </trkpt>
      <trkpt lat="59.9164034" lon="17.7124088">
        <ele>47.7225</ele>
        <time>2014-06-04T13:49:52Z</time>
      </trkpt>
      <trkpt lat="59.9164169" lon="17.7123561">
        <ele>48.684</ele>
        <time>2014-06-04T13:49:53Z</time>
      </trkpt>
      <trkpt lat="59.9164263" lon="17.7123021">
        <ele>49.6453</ele>
        <time>2014-06-04T13:49:54Z</time>
      </trkpt>
      <trkpt lat="59.916434" lon="17.7122417">
        <ele>50.6066</ele>
        <time>2014-06-04T13:49:55Z</time>
      </trkpt>
      <trkpt lat="59.9164433" lon="17.7121866">
        <ele>51.5679</ele>
        <time>2014-06-04T13:49:56Z</time>
      </trkpt>
      <trkpt lat="59.9164537" lon="17.7121499">
        <ele>52.0486</ele>
        <time>2014-06-04T13:49:57Z</time>
      </trkpt>
      <trkpt lat="59.9164625" lon="17.7121187">
        <ele>52.0486</ele>
        <time>2014-06-04T13:49:58Z</time>
      </trkpt>
      <trkpt lat="59.9164781" lon="17.7120731">
        <ele>53.0098</ele>
        <time>2014-06-04T13:49:59Z</time>
      </trkpt>
      <trkpt lat="59.9164988" lon="17.7120194">
        <ele>53.9712</ele>
        <time>2014-06-04T13:50:00Z</time>
      </trkpt>
      <trkpt lat="59.9165222" lon="17.7119763">
        <ele>53.9712</ele>
        <time>2014-06-04T13:50:01Z</time>
      </trkpt>
      <trkpt lat="59.9165443" lon="17.7119543">
        <ele>54.4518</ele>
        <time>2014-06-04T13:50:02Z</time>
      </trkpt>
      <trkpt lat="59.9165651" lon="17.7119179">
        <ele>54.9324</ele>
        <time>2014-06-04T13:50:03Z</time>
      </trkpt>
      <trkpt lat="59.9165892" lon="17.7118864">
        <ele>54.9324</ele>
        <time>2014-06-04T13:50:04Z</time>
      </trkpt>
      <trkpt lat="59.9166158" lon="17.7118584">
        <ele>55.4131</ele>
        <time>2014-06-04T13:50:05Z</time>
      </trkpt>
      <trkpt lat="59.91664" lon="17.7118215">
        <ele>55.4131</ele>
        <time>2014-06-04T13:50:06Z</time>
      </trkpt>
      <trkpt lat="59.9166607" lon="17.7117841">
        <ele>55.4131</ele>
        <time>2014-06-04T13:50:07Z</time>
      </trkpt>
      <trkpt lat="59.9166685" lon="17.7117426">
        <ele>54.4518</ele>
        <time>2014-06-04T13:50:08Z</time>
      </trkpt>
      <trkpt lat="59.9166783" lon="17.711695">
        <ele>54.4518</ele>
        <time>2014-06-04T13:50:09Z</time>
      </trkpt>
      <trkpt lat="59.9166961" lon="17.711589">
        <ele>53.9712</ele>
        <time>2014-06-04T13:50:11Z</time>
      </trkpt>
      <trkpt lat="59.916706" lon="17.7115491">
        <ele>53.4905</ele>
        <time>2014-06-04T13:50:12Z</time>
      </trkpt>
      <trkpt lat="59.9167108" lon="17.7115095">
        <ele>53.0098</ele>
        <time>2014-06-04T13:50:13Z</time>
      </trkpt>
      <trkpt lat="59.9167179" lon="17.7114781">
        <ele>52.5292</ele>
        <time>2014-06-04T13:50:14Z</time>
      </trkpt>
      <trkpt lat="59.9167255" lon="17.7114383">
        <ele>52.0486</ele>
        <time>2014-06-04T13:50:15Z</time>
      </trkpt>
      <trkpt lat="59.9167344" lon="17.7113966">
        <ele>52.0486</ele>
        <time>2014-06-04T13:50:16Z</time>
      </trkpt>
      <trkpt lat="59.9167386" lon="17.711356">
        <ele>52.0486</ele>
        <time>2014-06-04T13:50:17Z</time>
      </trkpt>
      <trkpt lat="59.9167392" lon="17.7113124">
        <ele>51.5679</ele>
        <time>2014-06-04T13:50:18Z</time>
      </trkpt>
      <trkpt lat="59.9167375" lon="17.7112594">
        <ele>51.5679</ele>
        <time>2014-06-04T13:50:19Z</time>
      </trkpt>
      <trkpt lat="59.916734" lon="17.7112032">
        <ele>51.5679</ele>
        <time>2014-06-04T13:50:20Z</time>
      </trkpt>
      <trkpt lat="59.9167371" lon="17.7111482">
        <ele>51.5679</ele>
        <time>2014-06-04T13:50:21Z</time>
      </trkpt>
      <trkpt lat="59.9167412" lon="17.7111036">
        <ele>51.0872</ele>
        <time>2014-06-04T13:50:22Z</time>
      </trkpt>
      <trkpt lat="59.9167447" lon="17.7110421">
        <ele>51.5679</ele>
        <time>2014-06-04T13:50:23Z</time>
      </trkpt>
      <trkpt lat="59.9167532" lon="17.7109933">
        <ele>51.5679</ele>
        <time>2014-06-04T13:50:24Z</time>
      </trkpt>
      <trkpt lat="59.9167619" lon="17.7109332">
        <ele>52.0486</ele>
        <time>2014-06-04T13:50:25Z</time>
      </trkpt>
      <trkpt lat="59.9167666" lon="17.7108798">
        <ele>52.0486</ele>
        <time>2014-06-04T13:50:26Z</time>
      </trkpt>
      <trkpt lat="59.9167691" lon="17.7108338">
        <ele>52.0486</ele>
        <time>2014-06-04T13:50:27Z</time>
      </trkpt>
      <trkpt lat="59.9167697" lon="17.7107931">
        <ele>52.0486</ele>
        <time>2014-06-04T13:50:28Z</time>
      </trkpt>
      <trkpt lat="59.9167682" lon="17.7107489">
        <ele>52.5292</ele>
        <time>2014-06-04T13:50:29Z</time>
      </trkpt>
      <trkpt lat="59.9167688" lon="17.7107146">
        <ele>52.5292</ele>
        <time>2014-06-04T13:50:30Z</time>
      </trkpt>
      <trkpt lat="59.9167648" lon="17.71067">
        <ele>53.0098</ele>
        <time>2014-06-04T13:50:31Z</time>
      </trkpt>
      <trkpt lat="59.9167545" lon="17.7106234">
        <ele>52.5292</ele>
        <time>2014-06-04T13:50:32Z</time>
      </trkpt>
      <trkpt lat="59.9167524" lon="17.7105851">
        <ele>53.4905</ele>
        <time>2014-06-04T13:50:33Z</time>
      </trkpt>
      <trkpt lat="59.9167573" lon="17.710539">
        <ele>54.4518</ele>
        <time>2014-06-04T13:50:34Z</time>
      </trkpt>
      <trkpt lat="59.9167641" lon="17.7104921">
        <ele>54.4518</ele>
        <time>2014-06-04T13:50:35Z</time>
      </trkpt>
      <trkpt lat="59.9167723" lon="17.7104445">
        <ele>54.9324</ele>
        <time>2014-06-04T13:50:36Z</time>
      </trkpt>
      <trkpt lat="59.9167788" lon="17.7104067">
        <ele>55.4131</ele>
        <time>2014-06-04T13:50:37Z</time>
      </trkpt>
      <trkpt lat="59.9167816" lon="17.7103676">
        <ele>55.8938</ele>
        <time>2014-06-04T13:50:38Z</time>
      </trkpt>
      <trkpt lat="59.9167732" lon="17.7103327">
        <ele>55.4131</ele>
        <time>2014-06-04T13:50:39Z</time>
      </trkpt>
      <trkpt lat="59.9167656" lon="17.7102896">
        <ele>55.4131</ele>
        <time>2014-06-04T13:50:40Z</time>
      </trkpt>
      <trkpt lat="59.9167509" lon="17.7102551">
        <ele>54.9324</ele>
        <time>2014-06-04T13:50:41Z</time>
      </trkpt>
      <trkpt lat="59.9167402" lon="17.710224">
        <ele>54.9324</ele>
        <time>2014-06-04T13:50:42Z</time>
      </trkpt>
      <trkpt lat="59.9167273" lon="17.7101961">
        <ele>54.4518</ele>
        <time>2014-06-04T13:50:43Z</time>
      </trkpt>
      <trkpt lat="59.9167162" lon="17.7101576">
        <ele>53.9712</ele>
        <time>2014-06-04T13:50:44Z</time>
      </trkpt>
      <trkpt lat="59.916706" lon="17.7101254">
        <ele>53.9712</ele>
        <time>2014-06-04T13:50:45Z</time>
      </trkpt>
      <trkpt lat="59.9166945" lon="17.7100877">
        <ele>53.4905</ele>
        <time>2014-06-04T13:50:46Z</time>
      </trkpt>
      <trkpt lat="59.9166826" lon="17.7100448">
        <ele>53.0098</ele>
        <time>2014-06-04T13:50:47Z</time>
      </trkpt>
      <trkpt lat="59.9166729" lon="17.7100018">
        <ele>53.0098</ele>
        <time>2014-06-04T13:50:48Z</time>
      </trkpt>
      <trkpt lat="59.916665" lon="17.7099614">
        <ele>52.5292</ele>
        <time>2014-06-04T13:50:49Z</time>
      </trkpt>
      <trkpt lat="59.9166532" lon="17.7099204">
        <ele>52.5292</ele>
        <time>2014-06-04T13:50:50Z</time>
      </trkpt>
      <trkpt lat="59.9166372" lon="17.7098671">
        <ele>53.0098</ele>
        <time>2014-06-04T13:50:51Z</time>
      </trkpt>
      <trkpt lat="59.9166221" lon="17.7098276">
        <ele>53.4905</ele>
        <time>2014-06-04T13:50:52Z</time>
      </trkpt>
      <trkpt lat="59.916609" lon="17.7097832">
        <ele>53.4905</ele>
        <time>2014-06-04T13:50:53Z</time>
      </trkpt>
      <trkpt lat="59.9165985" lon="17.7097424">
        <ele>53.9712</ele>
        <time>2014-06-04T13:50:54Z</time>
      </trkpt>
      <trkpt lat="59.9165838" lon="17.7096994">
        <ele>53.4905</ele>
        <time>2014-06-04T13:50:55Z</time>
      </trkpt>
      <trkpt lat="59.916562" lon="17.7096528">
        <ele>53.4905</ele>
        <time>2014-06-04T13:50:56Z</time>
      </trkpt>
      <trkpt lat="59.9165417" lon="17.7096138">
        <ele>53.4905</ele>
        <time>2014-06-04T13:50:57Z</time>
      </trkpt>
      <trkpt lat="59.9165261" lon="17.7095744">
        <ele>53.0098</ele>
        <time>2014-06-04T13:50:58Z</time>
      </trkpt>
      <trkpt lat="59.9165191" lon="17.7095273">
        <ele>52.5292</ele>
        <time>2014-06-04T13:50:59Z</time>
      </trkpt>
      <trkpt lat="59.9165152" lon="17.7094774">
        <ele>53.0098</ele>
        <time>2014-06-04T13:51:00Z</time>
      </trkpt>
      <trkpt lat="59.9165117" lon="17.7094323">
        <ele>52.5292</ele>
        <time>2014-06-04T13:51:01Z</time>
      </trkpt>
      <trkpt lat="59.9165158" lon="17.7093725">
        <ele>53.0098</ele>
        <time>2014-06-04T13:51:02Z</time>
      </trkpt>
      <trkpt lat="59.9165241" lon="17.7093101">
        <ele>53.0098</ele>
        <time>2014-06-04T13:51:03Z</time>
      </trkpt>
      <trkpt lat="59.91653" lon="17.7092429">
        <ele>53.0098</ele>
        <time>2014-06-04T13:51:04Z</time>
      </trkpt>
      <trkpt lat="59.9165376" lon="17.7091905">
        <ele>53.0098</ele>
        <time>2014-06-04T13:51:05Z</time>
      </trkpt>
      <trkpt lat="59.9165506" lon="17.7091382">
        <ele>53.0098</ele>
        <time>2014-06-04T13:51:06Z</time>
      </trkpt>
      <trkpt lat="59.9165629" lon="17.7091016">
        <ele>52.5292</ele>
        <time>2014-06-04T13:51:07Z</time>
      </trkpt>
      <trkpt lat="59.9165716" lon="17.7090607">
        <ele>53.0098</ele>
        <time>2014-06-04T13:51:08Z</time>
      </trkpt>
      <trkpt lat="59.9165778" lon="17.7090195">
        <ele>53.0098</ele>
        <time>2014-06-04T13:51:09Z</time>
      </trkpt>
      <trkpt lat="59.9165842" lon="17.7089791">
        <ele>53.4905</ele>
        <time>2014-06-04T13:51:10Z</time>
      </trkpt>
      <trkpt lat="59.916591" lon="17.7089471">
        <ele>53.0098</ele>
        <time>2014-06-04T13:51:11Z</time>
      </trkpt>
      <trkpt lat="59.9165982" lon="17.7089145">
        <ele>52.5292</ele>
        <time>2014-06-04T13:51:12Z</time>
      </trkpt>
      <trkpt lat="59.9166095" lon="17.7088817">
        <ele>52.5292</ele>
        <time>2014-06-04T13:51:13Z</time>
      </trkpt>
      <trkpt lat="59.916621" lon="17.7088456">
        <ele>52.5292</ele>
        <time>2014-06-04T13:51:14Z</time>
      </trkpt>
      <trkpt lat="59.916632" lon="17.7087957">
        <ele>53.0098</ele>
        <time>2014-06-04T13:51:15Z</time>
      </trkpt>
      <trkpt lat="59.9166417" lon="17.7087477">
        <ele>53.0098</ele>
        <time>2014-06-04T13:51:16Z</time>
      </trkpt>
      <trkpt lat="59.9166545" lon="17.7087012">
        <ele>53.4905</ele>
        <time>2014-06-04T13:51:17Z</time>
      </trkpt>
      <trkpt lat="59.9166739" lon="17.7086616">
        <ele>53.4905</ele>
        <time>2014-06-04T13:51:18Z</time>
      </trkpt>
      <trkpt lat="59.9166951" lon="17.7086167">
        <ele>53.4905</ele>
        <time>2014-06-04T13:51:19Z</time>
      </trkpt>
      <trkpt lat="59.91671" lon="17.7085738">
        <ele>53.4905</ele>
        <time>2014-06-04T13:51:20Z</time>
      </trkpt>
      <trkpt lat="59.9167156" lon="17.7085351">
        <ele>53.0098</ele>
        <time>2014-06-04T13:51:21Z</time>
      </trkpt>
      <trkpt lat="59.9167148" lon="17.7084854">
        <ele>53.9712</ele>
        <time>2014-06-04T13:51:22Z</time>
      </trkpt>
      <trkpt lat="59.916711" lon="17.7084448">
        <ele>53.9712</ele>
        <time>2014-06-04T13:51:23Z</time>
      </trkpt>
      <trkpt lat="59.9167105" lon="17.708393">
        <ele>53.4905</ele>
        <time>2014-06-04T13:51:24Z</time>
      </trkpt>
      <trkpt lat="59.9167099" lon="17.70834">
        <ele>53.0098</ele>
        <time>2014-06-04T13:51:25Z</time>
      </trkpt>
      <trkpt lat="59.9167081" lon="17.7082861">
        <ele>53.0098</ele>
        <time>2014-06-04T13:51:26Z</time>
      </trkpt>
      <trkpt lat="59.9167063" lon="17.7082384">
        <ele>52.5292</ele>
        <time>2014-06-04T13:51:27Z</time>
      </trkpt>
      <trkpt lat="59.916707" lon="17.7081844">
        <ele>52.5292</ele>
        <time>2014-06-04T13:51:28Z</time>
      </trkpt>
      <trkpt lat="59.9167025" lon="17.7081381">
        <ele>52.0486</ele>
        <time>2014-06-04T13:51:29Z</time>
      </trkpt>
      <trkpt lat="59.9166915" lon="17.70808">
        <ele>52.5292</ele>
        <time>2014-06-04T13:51:30Z</time>
      </trkpt>
      <trkpt lat="59.916688" lon="17.7080246">
        <ele>52.5292</ele>
        <time>2014-06-04T13:51:31Z</time>
      </trkpt>
      <trkpt lat="59.9166909" lon="17.7079782">
        <ele>52.5292</ele>
        <time>2014-06-04T13:51:32Z</time>
      </trkpt>
      <trkpt lat="59.9166939" lon="17.7079316">
        <ele>52.5292</ele>
        <time>2014-06-04T13:51:33Z</time>
      </trkpt>
      <trkpt lat="59.9167043" lon="17.7078852">
        <ele>53.0098</ele>
        <time>2014-06-04T13:51:34Z</time>
      </trkpt>
      <trkpt lat="59.9167158" lon="17.7078441">
        <ele>53.9712</ele>
        <time>2014-06-04T13:51:35Z</time>
      </trkpt>
      <trkpt lat="59.9167262" lon="17.7078012">
        <ele>53.9712</ele>
        <time>2014-06-04T13:51:36Z</time>
      </trkpt>
      <trkpt lat="59.9167391" lon="17.7077692">
        <ele>54.4518</ele>
        <time>2014-06-04T13:51:37Z</time>
      </trkpt>
      <trkpt lat="59.9167558" lon="17.7077412">
        <ele>53.9712</ele>
        <time>2014-06-04T13:51:38Z</time>
      </trkpt>
      <trkpt lat="59.9167758" lon="17.707706">
        <ele>53.9712</ele>
        <time>2014-06-04T13:51:39Z</time>
      </trkpt>
      <trkpt lat="59.916791" lon="17.7076595">
        <ele>53.9712</ele>
        <time>2014-06-04T13:51:40Z</time>
      </trkpt>
      <trkpt lat="59.9168054" lon="17.707617">
        <ele>53.4905</ele>
        <time>2014-06-04T13:51:41Z</time>
      </trkpt>
      <trkpt lat="59.9168169" lon="17.7075728">
        <ele>53.4905</ele>
        <time>2014-06-04T13:51:42Z</time>
      </trkpt>
      <trkpt lat="59.9168259" lon="17.7075253">
        <ele>53.4905</ele>
        <time>2014-06-04T13:51:43Z</time>
      </trkpt>
      <trkpt lat="59.9168319" lon="17.7074764">
        <ele>53.4905</ele>
        <time>2014-06-04T13:51:44Z</time>
      </trkpt>
      <trkpt lat="59.9168381" lon="17.7074343">
        <ele>53.4905</ele>
        <time>2014-06-04T13:51:45Z</time>
      </trkpt>
      <trkpt lat="59.9168452" lon="17.7073941">
        <ele>53.9712</ele>
        <time>2014-06-04T13:51:46Z</time>
      </trkpt>
      <trkpt lat="59.9168527" lon="17.7073484">
        <ele>54.4518</ele>
        <time>2014-06-04T13:51:47Z</time>
      </trkpt>
      <trkpt lat="59.9168664" lon="17.7073044">
        <ele>54.4518</ele>
        <time>2014-06-04T13:51:48Z</time>
      </trkpt>
      <trkpt lat="59.9168821" lon="17.707271">
        <ele>54.4518</ele>
        <time>2014-06-04T13:51:49Z</time>
      </trkpt>
      <trkpt lat="59.9168986" lon="17.7072455">
        <ele>54.4518</ele>
        <time>2014-06-04T13:51:50Z</time>
      </trkpt>
      <trkpt lat="59.9169156" lon="17.7072259">
        <ele>54.4518</ele>
        <time>2014-06-04T13:51:51Z</time>
      </trkpt>
      <trkpt lat="59.9169297" lon="17.7072002">
        <ele>54.4518</ele>
        <time>2014-06-04T13:51:52Z</time>
      </trkpt>
      <trkpt lat="59.9169463" lon="17.7071645">
        <ele>54.4518</ele>
        <time>2014-06-04T13:51:53Z</time>
      </trkpt>
      <trkpt lat="59.916967" lon="17.7071372">
        <ele>54.4518</ele>
        <time>2014-06-04T13:51:54Z</time>
      </trkpt>
      <trkpt lat="59.9169893" lon="17.7071175">
        <ele>54.4518</ele>
        <time>2014-06-04T13:51:55Z</time>
      </trkpt>
      <trkpt lat="59.9170128" lon="17.7070989">
        <ele>54.9324</ele>
        <time>2014-06-04T13:51:56Z</time>
      </trkpt>
      <trkpt lat="59.9170361" lon="17.7070902">
        <ele>54.4518</ele>
        <time>2014-06-04T13:51:57Z</time>
      </trkpt>
      <trkpt lat="59.9170602" lon="17.7070862">
        <ele>54.4518</ele>
        <time>2014-06-04T13:51:58Z</time>
      </trkpt>
      <trkpt lat="59.9170822" lon="17.7070668">
        <ele>54.4518</ele>
        <time>2014-06-04T13:51:59Z</time>
      </trkpt>
      <trkpt lat="59.9171001" lon="17.7070383">
        <ele>53.9712</ele>
        <time>2014-06-04T13:52:00Z</time>
      </trkpt>
      <trkpt lat="59.917121" lon="17.7069953">
        <ele>53.9712</ele>
        <time>2014-06-04T13:52:01Z</time>
      </trkpt>
      <trkpt lat="59.9171375" lon="17.7069519">
        <ele>53.4905</ele>
        <time>2014-06-04T13:52:02Z</time>
      </trkpt>
      <trkpt lat="59.9171432" lon="17.7068993">
        <ele>53.4905</ele>
        <time>2014-06-04T13:52:03Z</time>
      </trkpt>
      <trkpt lat="59.9171443" lon="17.7068545">
        <ele>53.0098</ele>
        <time>2014-06-04T13:52:04Z</time>
      </trkpt>
      <trkpt lat="59.917141" lon="17.7068136">
        <ele>52.0486</ele>
        <time>2014-06-04T13:52:05Z</time>
      </trkpt>
      <trkpt lat="59.9171359" lon="17.7067662">
        <ele>51.5679</ele>
        <time>2014-06-04T13:52:06Z</time>
      </trkpt>
      <trkpt lat="59.9171331" lon="17.7067231">
        <ele>51.0872</ele>
        <time>2014-06-04T13:52:07Z</time>
      </trkpt>
      <trkpt lat="59.9171282" lon="17.7066765">
        <ele>50.126</ele>
        <time>2014-06-04T13:52:08Z</time>
      </trkpt>
      <trkpt lat="59.9171215" lon="17.7066259">
        <ele>49.6453</ele>
        <time>2014-06-04T13:52:09Z</time>
      </trkpt>
      <trkpt lat="59.9171125" lon="17.7065756">
        <ele>49.6453</ele>
        <time>2014-06-04T13:52:10Z</time>
      </trkpt>
      <trkpt lat="59.9171011" lon="17.7065231">
        <ele>49.1646</ele>
        <time>2014-06-04T13:52:11Z</time>
      </trkpt>
      <trkpt lat="59.917092" lon="17.7064734">
        <ele>48.2034</ele>
        <time>2014-06-04T13:52:12Z</time>
      </trkpt>
      <trkpt lat="59.9170801" lon="17.7064336">
        <ele>47.7225</ele>
        <time>2014-06-04T13:52:13Z</time>
      </trkpt>
      <trkpt lat="59.9170633" lon="17.7063929">
        <ele>48.2034</ele>
        <time>2014-06-04T13:52:14Z</time>
      </trkpt>
      <trkpt lat="59.9170489" lon="17.7063504">
        <ele>48.2034</ele>
        <time>2014-06-04T13:52:15Z</time>
      </trkpt>
      <trkpt lat="59.9170415" lon="17.7063136">
        <ele>48.2034</ele>
        <time>2014-06-04T13:52:16Z</time>
      </trkpt>
      <trkpt lat="59.9170391" lon="17.7062699">
        <ele>47.7225</ele>
        <time>2014-06-04T13:52:17Z</time>
      </trkpt>
      <trkpt lat="59.9170354" lon="17.7062214">
        <ele>47.7225</ele>
        <time>2014-06-04T13:52:18Z</time>
      </trkpt>
      <trkpt lat="59.9170308" lon="17.7061747">
        <ele>47.2418</ele>
        <time>2014-06-04T13:52:19Z</time>
      </trkpt>
      <trkpt lat="59.9170273" lon="17.7061256">
        <ele>47.2418</ele>
        <time>2014-06-04T13:52:20Z</time>
      </trkpt>
      <trkpt lat="59.9170194" lon="17.7060815">
        <ele>47.2418</ele>
        <time>2014-06-04T13:52:21Z</time>
      </trkpt>
      <trkpt lat="59.9170038" lon="17.7060473">
        <ele>47.7225</ele>
        <time>2014-06-04T13:52:22Z</time>
      </trkpt>
      <trkpt lat="59.9169832" lon="17.7060098">
        <ele>47.7225</ele>
        <time>2014-06-04T13:52:23Z</time>
      </trkpt>
      <trkpt lat="59.9169583" lon="17.7059814">
        <ele>47.7225</ele>
        <time>2014-06-04T13:52:24Z</time>
      </trkpt>
      <trkpt lat="59.9169339" lon="17.7059494">
        <ele>47.2418</ele>
        <time>2014-06-04T13:52:25Z</time>
      </trkpt>
      <trkpt lat="59.9169085" lon="17.7059152">
        <ele>47.7225</ele>
        <time>2014-06-04T13:52:26Z</time>
      </trkpt>
      <trkpt lat="59.916893" lon="17.705878">
        <ele>47.7225</ele>
        <time>2014-06-04T13:52:27Z</time>
      </trkpt>
      <trkpt lat="59.9168785" lon="17.7058318">
        <ele>47.7225</ele>
        <time>2014-06-04T13:52:28Z</time>
      </trkpt>
      <trkpt lat="59.9168628" lon="17.7057843">
        <ele>47.2418</ele>
        <time>2014-06-04T13:52:29Z</time>
      </trkpt>
      <trkpt lat="59.9168546" lon="17.7057373">
        <ele>47.2418</ele>
        <time>2014-06-04T13:52:30Z</time>
      </trkpt>
      <trkpt lat="59.9168527" lon="17.705675">
        <ele>47.2418</ele>
        <time>2014-06-04T13:52:31Z</time>
      </trkpt>
      <trkpt lat="59.9168479" lon="17.7056092">
        <ele>47.2418</ele>
        <time>2014-06-04T13:52:32Z</time>
      </trkpt>
      <trkpt lat="59.9168457" lon="17.705553">
        <ele>47.2418</ele>
        <time>2014-06-04T13:52:33Z</time>
      </trkpt>
      <trkpt lat="59.9168484" lon="17.7055023">
        <ele>46.7612</ele>
        <time>2014-06-04T13:52:34Z</time>
      </trkpt>
      <trkpt lat="59.9168475" lon="17.705454">
        <ele>46.2806</ele>
        <time>2014-06-04T13:52:35Z</time>
      </trkpt>
      <trkpt lat="59.9168472" lon="17.7053998">
        <ele>46.2806</ele>
        <time>2014-06-04T13:52:36Z</time>
      </trkpt>
      <trkpt lat="59.9168514" lon="17.705347">
        <ele>45.7999</ele>
        <time>2014-06-04T13:52:37Z</time>
      </trkpt>
      <trkpt lat="59.9168515" lon="17.7052957">
        <ele>45.7999</ele>
        <time>2014-06-04T13:52:38Z</time>
      </trkpt>
      <trkpt lat="59.9168487" lon="17.7052595">
        <ele>45.7999</ele>
        <time>2014-06-04T13:52:39Z</time>
      </trkpt>
      <trkpt lat="59.9168408" lon="17.7052382">
        <ele>45.7999</ele>
        <time>2014-06-04T13:52:40Z</time>
      </trkpt>
      <trkpt lat="59.9168262" lon="17.7052129">
        <ele>46.2806</ele>
        <time>2014-06-04T13:52:41Z</time>
      </trkpt>
      <trkpt lat="59.9168111" lon="17.7051827">
        <ele>46.7612</ele>
        <time>2014-06-04T13:52:42Z</time>
      </trkpt>
      <trkpt lat="59.9167962" lon="17.7051419">
        <ele>46.7612</ele>
        <time>2014-06-04T13:52:43Z</time>
      </trkpt>
      <trkpt lat="59.9167807" lon="17.7051205">
        <ele>47.2418</ele>
        <time>2014-06-04T13:52:44Z</time>
      </trkpt>
      <trkpt lat="59.9167576" lon="17.7051116">
        <ele>48.2034</ele>
        <time>2014-06-04T13:52:45Z</time>
      </trkpt>
      <trkpt lat="59.9167268" lon="17.7050971">
        <ele>48.684</ele>
        <time>2014-06-04T13:52:46Z</time>
      </trkpt>
      <trkpt lat="59.9166981" lon="17.7050802">
        <ele>48.684</ele>
        <time>2014-06-04T13:52:47Z</time>
      </trkpt>
      <trkpt lat="59.9166691" lon="17.7050704">
        <ele>49.6453</ele>
        <time>2014-06-04T13:52:48Z</time>
      </trkpt>
      <trkpt lat="59.9166499" lon="17.7050561">
        <ele>50.126</ele>
        <time>2014-06-04T13:52:49Z</time>
      </trkpt>
      <trkpt lat="59.9166301" lon="17.7050377">
        <ele>50.6066</ele>
        <time>2014-06-04T13:52:50Z</time>
      </trkpt>
      <trkpt lat="59.9166055" lon="17.7050206">
        <ele>50.6066</ele>
        <time>2014-06-04T13:52:51Z</time>
      </trkpt>
      <trkpt lat="59.9165832" lon="17.7050051">
        <ele>51.0872</ele>
        <time>2014-06-04T13:52:52Z</time>
      </trkpt>
      <trkpt lat="59.9165614" lon="17.7049875">
        <ele>51.0872</ele>
        <time>2014-06-04T13:52:53Z</time>
      </trkpt>
      <trkpt lat="59.9165371" lon="17.7049807">
        <ele>51.5679</ele>
        <time>2014-06-04T13:52:54Z</time>
      </trkpt>
      <trkpt lat="59.9165122" lon="17.7049806">
        <ele>51.5679</ele>
        <time>2014-06-04T13:52:55Z</time>
      </trkpt>
      <trkpt lat="59.9164813" lon="17.7049845">
        <ele>52.0486</ele>
        <time>2014-06-04T13:52:56Z</time>
      </trkpt>
      <trkpt lat="59.9164542" lon="17.7049919">
        <ele>52.0486</ele>
        <time>2014-06-04T13:52:57Z</time>
      </trkpt>
      <trkpt lat="59.9164268" lon="17.7049973">
        <ele>52.0486</ele>
        <time>2014-06-04T13:52:58Z</time>
      </trkpt>
      <trkpt lat="59.9163966" lon="17.7049902">
        <ele>52.0486</ele>
        <time>2014-06-04T13:52:59Z</time>
      </trkpt>
      <trkpt lat="59.9163729" lon="17.7049738">
        <ele>51.0872</ele>
        <time>2014-06-04T13:53:00Z</time>
      </trkpt>
      <trkpt lat="59.9163564" lon="17.70495">
        <ele>50.6066</ele>
        <time>2014-06-04T13:53:01Z</time>
      </trkpt>
      <trkpt lat="59.916337" lon="17.7049242">
        <ele>50.6066</ele>
        <time>2014-06-04T13:53:02Z</time>
      </trkpt>
      <trkpt lat="59.9163131" lon="17.7048948">
        <ele>50.6066</ele>
        <time>2014-06-04T13:53:03Z</time>
      </trkpt>
      <trkpt lat="59.9162932" lon="17.7048589">
        <ele>50.126</ele>
        <time>2014-06-04T13:53:04Z</time>
      </trkpt>
      <trkpt lat="59.9162823" lon="17.7048124">
        <ele>50.126</ele>
        <time>2014-06-04T13:53:05Z</time>
      </trkpt>
      <trkpt lat="59.9162771" lon="17.704756">
        <ele>49.6453</ele>
        <time>2014-06-04T13:53:06Z</time>
      </trkpt>
      <trkpt lat="59.9162717" lon="17.7047035">
        <ele>49.1646</ele>
        <time>2014-06-04T13:53:07Z</time>
      </trkpt>
      <trkpt lat="59.9162622" lon="17.7046585">
        <ele>49.1646</ele>
        <time>2014-06-04T13:53:08Z</time>
      </trkpt>
      <trkpt lat="59.9162499" lon="17.7046099">
        <ele>48.684</ele>
        <time>2014-06-04T13:53:09Z</time>
      </trkpt>
      <trkpt lat="59.9162382" lon="17.7045507">
        <ele>48.2034</ele>
        <time>2014-06-04T13:53:10Z</time>
      </trkpt>
      <trkpt lat="59.9162238" lon="17.7044942">
        <ele>47.7225</ele>
        <time>2014-06-04T13:53:11Z</time>
      </trkpt>
      <trkpt lat="59.9162118" lon="17.7044462">
        <ele>47.7225</ele>
        <time>2014-06-04T13:53:12Z</time>
      </trkpt>
      <trkpt lat="59.9162029" lon="17.7044037">
        <ele>47.2418</ele>
        <time>2014-06-04T13:53:13Z</time>
      </trkpt>
      <trkpt lat="59.9161893" lon="17.7043623">
        <ele>47.2418</ele>
        <time>2014-06-04T13:53:14Z</time>
      </trkpt>
      <trkpt lat="59.9161701" lon="17.7043269">
        <ele>47.2418</ele>
        <time>2014-06-04T13:53:15Z</time>
      </trkpt>
      <trkpt lat="59.9161515" lon="17.7042924">
        <ele>47.7225</ele>
        <time>2014-06-04T13:53:16Z</time>
      </trkpt>
      <trkpt lat="59.9161336" lon="17.7042623">
        <ele>47.7225</ele>
        <time>2014-06-04T13:53:17Z</time>
      </trkpt>
      <trkpt lat="59.9161047" lon="17.7042456">
        <ele>48.2034</ele>
        <time>2014-06-04T13:53:18Z</time>
      </trkpt>
      <trkpt lat="59.9160766" lon="17.7042372">
        <ele>49.1646</ele>
        <time>2014-06-04T13:53:19Z</time>
      </trkpt>
      <trkpt lat="59.9160542" lon="17.7042281">
        <ele>49.6453</ele>
        <time>2014-06-04T13:53:20Z</time>
      </trkpt>
      <trkpt lat="59.9160327" lon="17.7042097">
        <ele>49.6453</ele>
        <time>2014-06-04T13:53:21Z</time>
      </trkpt>
      <trkpt lat="59.9160088" lon="17.704197">
        <ele>49.6453</ele>
        <time>2014-06-04T13:53:22Z</time>
      </trkpt>
      <trkpt lat="59.9159811" lon="17.7042069">
        <ele>49.6453</ele>
        <time>2014-06-04T13:53:23Z</time>
      </trkpt>
      <trkpt lat="59.9159542" lon="17.7042157">
        <ele>50.126</ele>
        <time>2014-06-04T13:53:24Z</time>
      </trkpt>
      <trkpt lat="59.9159272" lon="17.7042171">
        <ele>50.6066</ele>
        <time>2014-06-04T13:53:25Z</time>
      </trkpt>
      <trkpt lat="59.9159008" lon="17.7042227">
        <ele>51.5679</ele>
        <time>2014-06-04T13:53:26Z</time>
      </trkpt>
      <trkpt lat="59.9158782" lon="17.7042271">
        <ele>51.5679</ele>
        <time>2014-06-04T13:53:27Z</time>
      </trkpt>
      <trkpt lat="59.9158481" lon="17.7042365">
        <ele>52.0486</ele>
        <time>2014-06-04T13:53:28Z</time>
      </trkpt>
      <trkpt lat="59.9158166" lon="17.704254">
        <ele>52.5292</ele>
        <time>2014-06-04T13:53:29Z</time>
      </trkpt>
      <trkpt lat="59.9157907" lon="17.7042584">
        <ele>52.5292</ele>
        <time>2014-06-04T13:53:30Z</time>
      </trkpt>
      <trkpt lat="59.9157656" lon="17.7042657">
        <ele>52.5292</ele>
        <time>2014-06-04T13:53:31Z</time>
      </trkpt>
      <trkpt lat="59.9157429" lon="17.7042793">
        <ele>52.5292</ele>
        <time>2014-06-04T13:53:32Z</time>
      </trkpt>
      <trkpt lat="59.9157172" lon="17.7042994">
        <ele>52.5292</ele>
        <time>2014-06-04T13:53:33Z</time>
      </trkpt>
      <trkpt lat="59.9156931" lon="17.7043192">
        <ele>52.5292</ele>
        <time>2014-06-04T13:53:34Z</time>
      </trkpt>
      <trkpt lat="59.9156745" lon="17.7043421">
        <ele>52.5292</ele>
        <time>2014-06-04T13:53:35Z</time>
      </trkpt>
      <trkpt lat="59.9156582" lon="17.7043705">
        <ele>52.5292</ele>
        <time>2014-06-04T13:53:36Z</time>
      </trkpt>
      <trkpt lat="59.9156441" lon="17.7044027">
        <ele>52.5292</ele>
        <time>2014-06-04T13:53:37Z</time>
      </trkpt>
      <trkpt lat="59.9156348" lon="17.7044372">
        <ele>52.5292</ele>
        <time>2014-06-04T13:53:38Z</time>
      </trkpt>
      <trkpt lat="59.9156262" lon="17.7044762">
        <ele>52.0486</ele>
        <time>2014-06-04T13:53:39Z</time>
      </trkpt>
      <trkpt lat="59.9156156" lon="17.7045154">
        <ele>51.5679</ele>
        <time>2014-06-04T13:53:40Z</time>
      </trkpt>
      <trkpt lat="59.9156025" lon="17.7045487">
        <ele>51.5679</ele>
        <time>2014-06-04T13:53:41Z</time>
      </trkpt>
      <trkpt lat="59.9155856" lon="17.7045783">
        <ele>51.5679</ele>
        <time>2014-06-04T13:53:42Z</time>
      </trkpt>
      <trkpt lat="59.9155674" lon="17.7046092">
        <ele>51.0872</ele>
        <time>2014-06-04T13:53:43Z</time>
      </trkpt>
      <trkpt lat="59.915556" lon="17.7046426">
        <ele>51.0872</ele>
        <time>2014-06-04T13:53:44Z</time>
      </trkpt>
      <trkpt lat="59.9155477" lon="17.7046781">
        <ele>51.0872</ele>
        <time>2014-06-04T13:53:45Z</time>
      </trkpt>
      <trkpt lat="59.9155389" lon="17.7047133">
        <ele>51.0872</ele>
        <time>2014-06-04T13:53:46Z</time>
      </trkpt>
      <trkpt lat="59.9155291" lon="17.7047472">
        <ele>51.0872</ele>
        <time>2014-06-04T13:53:47Z</time>
      </trkpt>
      <trkpt lat="59.9155147" lon="17.7047874">
        <ele>51.0872</ele>
        <time>2014-06-04T13:53:48Z</time>
      </trkpt>
      <trkpt lat="59.9155017" lon="17.7048241">
        <ele>51.5679</ele>
        <time>2014-06-04T13:53:49Z</time>
      </trkpt>
      <trkpt lat="59.9154902" lon="17.7048572">
        <ele>51.0872</ele>
        <time>2014-06-04T13:53:50Z</time>
      </trkpt>
      <trkpt lat="59.9154831" lon="17.7049">
        <ele>51.5679</ele>
        <time>2014-06-04T13:53:51Z</time>
      </trkpt>
      <trkpt lat="59.9154765" lon="17.7049386">
        <ele>51.0872</ele>
        <time>2014-06-04T13:53:52Z</time>
      </trkpt>
      <trkpt lat="59.9154679" lon="17.704975">
        <ele>51.5679</ele>
        <time>2014-06-04T13:53:53Z</time>
      </trkpt>
      <trkpt lat="59.9154545" lon="17.70501">
        <ele>51.5679</ele>
        <time>2014-06-04T13:53:54Z</time>
      </trkpt>
      <trkpt lat="59.9154415" lon="17.705046">
        <ele>51.0872</ele>
        <time>2014-06-04T13:53:55Z</time>
      </trkpt>
      <trkpt lat="59.9154286" lon="17.7050838">
        <ele>51.5679</ele>
        <time>2014-06-04T13:53:56Z</time>
      </trkpt>
      <trkpt lat="59.9154161" lon="17.705118">
        <ele>51.5679</ele>
        <time>2014-06-04T13:53:57Z</time>
      </trkpt>
      <trkpt lat="59.915403" lon="17.7051593">
        <ele>51.5679</ele>
        <time>2014-06-04T13:53:58Z</time>
      </trkpt>
      <trkpt lat="59.9153939" lon="17.7051973">
        <ele>52.0486</ele>
        <time>2014-06-04T13:53:59Z</time>
      </trkpt>
      <trkpt lat="59.9153835" lon="17.7052361">
        <ele>52.0486</ele>
        <time>2014-06-04T13:54:00Z</time>
      </trkpt>
      <trkpt lat="59.9153706" lon="17.7052823">
        <ele>52.5292</ele>
        <time>2014-06-04T13:54:01Z</time>
      </trkpt>
      <trkpt lat="59.91536" lon="17.705322">
        <ele>52.5292</ele>
        <time>2014-06-04T13:54:02Z</time>
      </trkpt>
      <trkpt lat="59.9153488" lon="17.7053604">
        <ele>53.4905</ele>
        <time>2014-06-04T13:54:03Z</time>
      </trkpt>
      <trkpt lat="59.9153395" lon="17.7053999">
        <ele>53.4905</ele>
        <time>2014-06-04T13:54:04Z</time>
      </trkpt>
      <trkpt lat="59.9153316" lon="17.7054331">
        <ele>53.4905</ele>
        <time>2014-06-04T13:54:05Z</time>
      </trkpt>
      <trkpt lat="59.9153198" lon="17.7054692">
        <ele>53.4905</ele>
        <time>2014-06-04T13:54:06Z</time>
      </trkpt>
      <trkpt lat="59.9153066" lon="17.7055085">
        <ele>53.9712</ele>
        <time>2014-06-04T13:54:07Z</time>
      </trkpt>
      <trkpt lat="59.9152928" lon="17.7055511">
        <ele>53.4905</ele>
        <time>2014-06-04T13:54:08Z</time>
      </trkpt>
      <trkpt lat="59.9152794" lon="17.7055934">
        <ele>53.9712</ele>
        <time>2014-06-04T13:54:09Z</time>
      </trkpt>
      <trkpt lat="59.9152663" lon="17.7056371">
        <ele>53.9712</ele>
        <time>2014-06-04T13:54:10Z</time>
      </trkpt>
      <trkpt lat="59.9152512" lon="17.7056732">
        <ele>53.9712</ele>
        <time>2014-06-04T13:54:11Z</time>
      </trkpt>
      <trkpt lat="59.9152362" lon="17.7057121">
        <ele>53.9712</ele>
        <time>2014-06-04T13:54:12Z</time>
      </trkpt>
      <trkpt lat="59.9152214" lon="17.7057477">
        <ele>53.9712</ele>
        <time>2014-06-04T13:54:13Z</time>
      </trkpt>
      <trkpt lat="59.9152047" lon="17.7057769">
        <ele>53.4905</ele>
        <time>2014-06-04T13:54:14Z</time>
      </trkpt>
      <trkpt lat="59.915187" lon="17.7058079">
        <ele>53.4905</ele>
        <time>2014-06-04T13:54:15Z</time>
      </trkpt>
      <trkpt lat="59.915168" lon="17.7058395">
        <ele>53.0098</ele>
        <time>2014-06-04T13:54:16Z</time>
      </trkpt>
      <trkpt lat="59.9151483" lon="17.7058611">
        <ele>53.0098</ele>
        <time>2014-06-04T13:54:17Z</time>
      </trkpt>
      <trkpt lat="59.9151262" lon="17.7058775">
        <ele>53.0098</ele>
        <time>2014-06-04T13:54:18Z</time>
      </trkpt>
      <trkpt lat="59.9151023" lon="17.7058904">
        <ele>52.5292</ele>
        <time>2014-06-04T13:54:19Z</time>
      </trkpt>
      <trkpt lat="59.9150805" lon="17.7058976">
        <ele>52.0486</ele>
        <time>2014-06-04T13:54:20Z</time>
      </trkpt>
      <trkpt lat="59.9150606" lon="17.7058904">
        <ele>52.0486</ele>
        <time>2014-06-04T13:54:21Z</time>
      </trkpt>
      <trkpt lat="59.9150415" lon="17.7058782">
        <ele>51.5679</ele>
        <time>2014-06-04T13:54:22Z</time>
      </trkpt>
      <trkpt lat="59.9150256" lon="17.705876">
        <ele>51.0872</ele>
        <time>2014-06-04T13:54:23Z</time>
      </trkpt>
      <trkpt lat="59.915006" lon="17.705873">
        <ele>50.6066</ele>
        <time>2014-06-04T13:54:24Z</time>
      </trkpt>
      <trkpt lat="59.914981" lon="17.7058659">
        <ele>49.6453</ele>
        <time>2014-06-04T13:54:25Z</time>
      </trkpt>
      <trkpt lat="59.9149536" lon="17.7058649">
        <ele>49.1646</ele>
        <time>2014-06-04T13:54:26Z</time>
      </trkpt>
      <trkpt lat="59.9149264" lon="17.7058576">
        <ele>48.684</ele>
        <time>2014-06-04T13:54:27Z</time>
      </trkpt>
      <trkpt lat="59.9149019" lon="17.7058416">
        <ele>48.684</ele>
        <time>2014-06-04T13:54:28Z</time>
      </trkpt>
      <trkpt lat="59.914877" lon="17.705828">
        <ele>48.684</ele>
        <time>2014-06-04T13:54:29Z</time>
      </trkpt>
      <trkpt lat="59.9148531" lon="17.7058106">
        <ele>48.2034</ele>
        <time>2014-06-04T13:54:30Z</time>
      </trkpt>
      <trkpt lat="59.914823" lon="17.7057981">
        <ele>48.2034</ele>
        <time>2014-06-04T13:54:31Z</time>
      </trkpt>
      <trkpt lat="59.9147919" lon="17.705794">
        <ele>47.7225</ele>
        <time>2014-06-04T13:54:32Z</time>
      </trkpt>
      <trkpt lat="59.9147587" lon="17.705795">
        <ele>47.2418</ele>
        <time>2014-06-04T13:54:33Z</time>
      </trkpt>
      <trkpt lat="59.9147271" lon="17.7058011">
        <ele>47.2418</ele>
        <time>2014-06-04T13:54:34Z</time>
      </trkpt>
      <trkpt lat="59.9147031" lon="17.7058011">
        <ele>46.2806</ele>
        <time>2014-06-04T13:54:35Z</time>
      </trkpt>
      <trkpt lat="59.9146757" lon="17.7058047">
        <ele>46.2806</ele>
        <time>2014-06-04T13:54:36Z</time>
      </trkpt>
      <trkpt lat="59.9146453" lon="17.7058102">
        <ele>46.2806</ele>
        <time>2014-06-04T13:54:37Z</time>
      </trkpt>
      <trkpt lat="59.9146151" lon="17.7058121">
        <ele>46.2806</ele>
        <time>2014-06-04T13:54:38Z</time>
      </trkpt>
      <trkpt lat="59.9145868" lon="17.7058064">
        <ele>46.7612</ele>
        <time>2014-06-04T13:54:39Z</time>
      </trkpt>
      <trkpt lat="59.9145569" lon="17.7058085">
        <ele>46.7612</ele>
        <time>2014-06-04T13:54:40Z</time>
      </trkpt>
      <trkpt lat="59.9145262" lon="17.7058277">
        <ele>47.2418</ele>
        <time>2014-06-04T13:54:41Z</time>
      </trkpt>
      <trkpt lat="59.914493" lon="17.7058644">
        <ele>47.7225</ele>
        <time>2014-06-04T13:54:42Z</time>
      </trkpt>
      <trkpt lat="59.9144619" lon="17.7058966">
        <ele>47.7225</ele>
        <time>2014-06-04T13:54:43Z</time>
      </trkpt>
      <trkpt lat="59.9144353" lon="17.7059024">
        <ele>47.2418</ele>
        <time>2014-06-04T13:54:44Z</time>
      </trkpt>
      <trkpt lat="59.9144112" lon="17.7059006">
        <ele>47.2418</ele>
        <time>2014-06-04T13:54:45Z</time>
      </trkpt>
      <trkpt lat="59.9143858" lon="17.7058876">
        <ele>47.2418</ele>
        <time>2014-06-04T13:54:46Z</time>
      </trkpt>
      <trkpt lat="59.9143628" lon="17.7058586">
        <ele>47.2418</ele>
        <time>2014-06-04T13:54:47Z</time>
      </trkpt>
      <trkpt lat="59.9143418" lon="17.7058266">
        <ele>46.7612</ele>
        <time>2014-06-04T13:54:48Z</time>
      </trkpt>
      <trkpt lat="59.9143237" lon="17.7057915">
        <ele>46.7612</ele>
        <time>2014-06-04T13:54:49Z</time>
      </trkpt>
      <trkpt lat="59.9143019" lon="17.7057648">
        <ele>46.7612</ele>
        <time>2014-06-04T13:54:50Z</time>
      </trkpt>
      <trkpt lat="59.9142774" lon="17.7057421">
        <ele>46.7612</ele>
        <time>2014-06-04T13:54:51Z</time>
      </trkpt>
      <trkpt lat="59.9142525" lon="17.7057199">
        <ele>46.7612</ele>
        <time>2014-06-04T13:54:52Z</time>
      </trkpt>
      <trkpt lat="59.9142302" lon="17.7056996">
        <ele>46.7612</ele>
        <time>2014-06-04T13:54:53Z</time>
      </trkpt>
      <trkpt lat="59.9142098" lon="17.7056845">
        <ele>46.2806</ele>
        <time>2014-06-04T13:54:54Z</time>
      </trkpt>
      <trkpt lat="59.9141895" lon="17.7056619">
        <ele>45.7999</ele>
        <time>2014-06-04T13:54:55Z</time>
      </trkpt>
      <trkpt lat="59.9141651" lon="17.7056298">
        <ele>46.2806</ele>
        <time>2014-06-04T13:54:56Z</time>
      </trkpt>
      <trkpt lat="59.9141465" lon="17.705603">
        <ele>45.7999</ele>
        <time>2014-06-04T13:54:57Z</time>
      </trkpt>
      <trkpt lat="59.9141297" lon="17.7055728">
        <ele>45.3192</ele>
        <time>2014-06-04T13:54:58Z</time>
      </trkpt>
      <trkpt lat="59.9141077" lon="17.7055418">
        <ele>44.8386</ele>
        <time>2014-06-04T13:54:59Z</time>
      </trkpt>
      <trkpt lat="59.9140848" lon="17.7055059">
        <ele>44.358</ele>
        <time>2014-06-04T13:55:00Z</time>
      </trkpt>
      <trkpt lat="59.9140676" lon="17.7054516">
        <ele>44.358</ele>
        <time>2014-06-04T13:55:01Z</time>
      </trkpt>
      <trkpt lat="59.9140508" lon="17.7054018">
        <ele>44.358</ele>
        <time>2014-06-04T13:55:02Z</time>
      </trkpt>
      <trkpt lat="59.9140337" lon="17.7053638">
        <ele>43.8773</ele>
        <time>2014-06-04T13:55:03Z</time>
      </trkpt>
      <trkpt lat="59.9140223" lon="17.7053236">
        <ele>44.358</ele>
        <time>2014-06-04T13:55:04Z</time>
      </trkpt>
      <trkpt lat="59.9140103" lon="17.7052771">
        <ele>44.358</ele>
        <time>2014-06-04T13:55:05Z</time>
      </trkpt>
      <trkpt lat="59.9139958" lon="17.7052321">
        <ele>43.8773</ele>
        <time>2014-06-04T13:55:06Z</time>
      </trkpt>
      <trkpt lat="59.9139803" lon="17.7051792">
        <ele>43.8773</ele>
        <time>2014-06-04T13:55:07Z</time>
      </trkpt>
      <trkpt lat="59.9139647" lon="17.7051303">
        <ele>43.8773</ele>
        <time>2014-06-04T13:55:08Z</time>
      </trkpt>
      <trkpt lat="59.9139464" lon="17.7050802">
        <ele>44.358</ele>
        <time>2014-06-04T13:55:09Z</time>
      </trkpt>
      <trkpt lat="59.9139306" lon="17.7050227">
        <ele>44.8386</ele>
        <time>2014-06-04T13:55:10Z</time>
      </trkpt>
      <trkpt lat="59.913913" lon="17.7049755">
        <ele>44.8386</ele>
        <time>2014-06-04T13:55:11Z</time>
      </trkpt>
      <trkpt lat="59.9138945" lon="17.7049329">
        <ele>45.7999</ele>
        <time>2014-06-04T13:55:12Z</time>
      </trkpt>
      <trkpt lat="59.9138749" lon="17.7049051">
        <ele>45.3192</ele>
        <time>2014-06-04T13:55:13Z</time>
      </trkpt>
      <trkpt lat="59.9138507" lon="17.7048743">
        <ele>45.3192</ele>
        <time>2014-06-04T13:55:14Z</time>
      </trkpt>
      <trkpt lat="59.9138314" lon="17.7048508">
        <ele>45.3192</ele>
        <time>2014-06-04T13:55:15Z</time>
      </trkpt>
      <trkpt lat="59.913814" lon="17.7048435">
        <ele>45.3192</ele>
        <time>2014-06-04T13:55:16Z</time>
      </trkpt>
      <trkpt lat="59.9137989" lon="17.7048465">
        <ele>45.3192</ele>
        <time>2014-06-04T13:55:17Z</time>
      </trkpt>
      <trkpt lat="59.9137826" lon="17.7048529">
        <ele>45.3192</ele>
        <time>2014-06-04T13:55:18Z</time>
      </trkpt>
      <trkpt lat="59.9137674" lon="17.7048615">
        <ele>44.8386</ele>
        <time>2014-06-04T13:55:19Z</time>
      </trkpt>
      <trkpt lat="59.9137446" lon="17.7048745">
        <ele>44.358</ele>
        <time>2014-06-04T13:55:20Z</time>
      </trkpt>
      <trkpt lat="59.9137274" lon="17.7048854">
        <ele>43.8773</ele>
        <time>2014-06-04T13:55:21Z</time>
      </trkpt>
      <trkpt lat="59.9137151" lon="17.704902">
        <ele>42.916</ele>
        <time>2014-06-04T13:55:22Z</time>
      </trkpt>
      <trkpt lat="59.9136979" lon="17.7049161">
        <ele>41.9547</ele>
        <time>2014-06-04T13:55:23Z</time>
      </trkpt>
      <trkpt lat="59.9136817" lon="17.7049345">
        <ele>40.9934</ele>
        <time>2014-06-04T13:55:24Z</time>
      </trkpt>
      <trkpt lat="59.9136632" lon="17.7049506">
        <ele>40.0321</ele>
        <time>2014-06-04T13:55:25Z</time>
      </trkpt>
      <trkpt lat="59.913646" lon="17.7049679">
        <ele>39.5513</ele>
        <time>2014-06-04T13:55:26Z</time>
      </trkpt>
      <trkpt lat="59.9136219" lon="17.7049967">
        <ele>38.1094</ele>
        <time>2014-06-04T13:55:27Z</time>
      </trkpt>
      <trkpt lat="59.9136031" lon="17.7050279">
        <ele>37.1481</ele>
        <time>2014-06-04T13:55:28Z</time>
      </trkpt>
      <trkpt lat="59.9135793" lon="17.7050662">
        <ele>36.1868</ele>
        <time>2014-06-04T13:55:29Z</time>
      </trkpt>
      <trkpt lat="59.9135571" lon="17.7051045">
        <ele>36.1868</ele>
        <time>2014-06-04T13:55:30Z</time>
      </trkpt>
      <trkpt lat="59.9135332" lon="17.7051543">
        <ele>35.2255</ele>
        <time>2014-06-04T13:55:31Z</time>
      </trkpt>
      <trkpt lat="59.9135146" lon="17.7051978">
        <ele>34.7449</ele>
        <time>2014-06-04T13:55:32Z</time>
      </trkpt>
      <trkpt lat="59.9135026" lon="17.7052346">
        <ele>34.2642</ele>
        <time>2014-06-04T13:55:33Z</time>
      </trkpt>
      <trkpt lat="59.913487" lon="17.7052768">
        <ele>34.2642</ele>
        <time>2014-06-04T13:55:34Z</time>
      </trkpt>
      <trkpt lat="59.9134739" lon="17.7053283">
        <ele>34.2642</ele>
        <time>2014-06-04T13:55:35Z</time>
      </trkpt>
      <trkpt lat="59.9134648" lon="17.7053759">
        <ele>34.7449</ele>
        <time>2014-06-04T13:55:36Z</time>
      </trkpt>
      <trkpt lat="59.9134622" lon="17.7054143">
        <ele>34.7449</ele>
        <time>2014-06-04T13:55:37Z</time>
      </trkpt>
      <trkpt lat="59.9134547" lon="17.7054612">
        <ele>35.2255</ele>
        <time>2014-06-04T13:55:38Z</time>
      </trkpt>
      <trkpt lat="59.9134503" lon="17.7055035">
        <ele>35.7061</ele>
        <time>2014-06-04T13:55:39Z</time>
      </trkpt>
      <trkpt lat="59.9134539" lon="17.7055365">
        <ele>36.1868</ele>
        <time>2014-06-04T13:55:40Z</time>
      </trkpt>
      <trkpt lat="59.9134582" lon="17.7055628">
        <ele>36.6675</ele>
        <time>2014-06-04T13:55:41Z</time>
      </trkpt>
      <trkpt lat="59.9134564" lon="17.7055972">
        <ele>37.6287</ele>
        <time>2014-06-04T13:55:42Z</time>
      </trkpt>
      <trkpt lat="59.9134518" lon="17.7056322">
        <ele>38.1094</ele>
        <time>2014-06-04T13:55:43Z</time>
      </trkpt>
      <trkpt lat="59.9134507" lon="17.70567">
        <ele>38.5901</ele>
        <time>2014-06-04T13:55:44Z</time>
      </trkpt>
      <trkpt lat="59.913447" lon="17.7057053">
        <ele>39.5513</ele>
        <time>2014-06-04T13:55:45Z</time>
      </trkpt>
      <trkpt lat="59.9134452" lon="17.7057358">
        <ele>40.5128</ele>
        <time>2014-06-04T13:55:46Z</time>
      </trkpt>
      <trkpt lat="59.9134472" lon="17.7057612">
        <ele>40.9934</ele>
        <time>2014-06-04T13:55:47Z</time>
      </trkpt>
      <trkpt lat="59.9134431" lon="17.7057814">
        <ele>40.9934</ele>
        <time>2014-06-04T13:55:48Z</time>
      </trkpt>
      <trkpt lat="59.9134433" lon="17.7057992">
        <ele>40.5128</ele>
        <time>2014-06-04T13:55:49Z</time>
      </trkpt>
      <trkpt lat="59.9134377" lon="17.7058223">
        <ele>40.5128</ele>
        <time>2014-06-04T13:55:50Z</time>
      </trkpt>
      <trkpt lat="59.9134301" lon="17.7058482">
        <ele>40.0321</ele>
        <time>2014-06-04T13:55:51Z</time>
      </trkpt>
      <trkpt lat="59.9134222" lon="17.7058805">
        <ele>40.0321</ele>
        <time>2014-06-04T13:55:52Z</time>
      </trkpt>
      <trkpt lat="59.9134105" lon="17.7059233">
        <ele>40.5128</ele>
        <time>2014-06-04T13:55:53Z</time>
      </trkpt>
      <trkpt lat="59.9133976" lon="17.7059671">
        <ele>41.9547</ele>
        <time>2014-06-04T13:55:54Z</time>
      </trkpt>
      <trkpt lat="59.9133818" lon="17.7060089">
        <ele>42.916</ele>
        <time>2014-06-04T13:55:55Z</time>
      </trkpt>
      <trkpt lat="59.9133683" lon="17.7060541">
        <ele>44.8386</ele>
        <time>2014-06-04T13:55:56Z</time>
      </trkpt>
      <trkpt lat="59.9133507" lon="17.706096">
        <ele>46.2806</ele>
        <time>2014-06-04T13:55:57Z</time>
      </trkpt>
      <trkpt lat="59.9133275" lon="17.7061281">
        <ele>45.7999</ele>
        <time>2014-06-04T13:55:58Z</time>
      </trkpt>
      <trkpt lat="59.9133111" lon="17.7061591">
        <ele>44.358</ele>
        <time>2014-06-04T13:55:59Z</time>
      </trkpt>
      <trkpt lat="59.9132938" lon="17.7061896">
        <ele>44.358</ele>
        <time>2014-06-04T13:56:00Z</time>
      </trkpt>
      <trkpt lat="59.9132792" lon="17.7062188">
        <ele>42.916</ele>
        <time>2014-06-04T13:56:01Z</time>
      </trkpt>
      <trkpt lat="59.9132574" lon="17.7062414">
        <ele>42.4354</ele>
        <time>2014-06-04T13:56:02Z</time>
      </trkpt>
      <trkpt lat="59.913239" lon="17.7062634">
        <ele>41.474</ele>
        <time>2014-06-04T13:56:03Z</time>
      </trkpt>
      <trkpt lat="59.9132139" lon="17.7062903">
        <ele>40.9934</ele>
        <time>2014-06-04T13:56:04Z</time>
      </trkpt>
      <trkpt lat="59.9131855" lon="17.7063162">
        <ele>41.474</ele>
        <time>2014-06-04T13:56:05Z</time>
      </trkpt>
      <trkpt lat="59.913155" lon="17.7063377">
        <ele>40.9934</ele>
        <time>2014-06-04T13:56:06Z</time>
      </trkpt>
      <trkpt lat="59.9131264" lon="17.7063695">
        <ele>40.9934</ele>
        <time>2014-06-04T13:56:07Z</time>
      </trkpt>
      <trkpt lat="59.9131047" lon="17.7063911">
        <ele>41.474</ele>
        <time>2014-06-04T13:56:08Z</time>
      </trkpt>
      <trkpt lat="59.9130772" lon="17.7064156">
        <ele>40.9934</ele>
        <time>2014-06-04T13:56:09Z</time>
      </trkpt>
      <trkpt lat="59.9130472" lon="17.7064446">
        <ele>40.5128</ele>
        <time>2014-06-04T13:56:10Z</time>
      </trkpt>
      <trkpt lat="59.91301" lon="17.7064864">
        <ele>40.5128</ele>
        <time>2014-06-04T13:56:11Z</time>
      </trkpt>
      <trkpt lat="59.912979" lon="17.7065161">
        <ele>40.5128</ele>
        <time>2014-06-04T13:56:12Z</time>
      </trkpt>
      <trkpt lat="59.9129509" lon="17.7065392">
        <ele>40.5128</ele>
        <time>2014-06-04T13:56:13Z</time>
      </trkpt>
      <trkpt lat="59.9129271" lon="17.7065419">
        <ele>40.0321</ele>
        <time>2014-06-04T13:56:14Z</time>
      </trkpt>
      <trkpt lat="59.9129012" lon="17.7065431">
        <ele>40.0321</ele>
        <time>2014-06-04T13:56:15Z</time>
      </trkpt>
      <trkpt lat="59.9128818" lon="17.7065291">
        <ele>40.0321</ele>
        <time>2014-06-04T13:56:16Z</time>
      </trkpt>
      <trkpt lat="59.9128664" lon="17.7065089">
        <ele>39.5513</ele>
        <time>2014-06-04T13:56:17Z</time>
      </trkpt>
      <trkpt lat="59.9128476" lon="17.7065042">
        <ele>39.0707</ele>
        <time>2014-06-04T13:56:18Z</time>
      </trkpt>
      <trkpt lat="59.9128173" lon="17.7065244">
        <ele>39.0707</ele>
        <time>2014-06-04T13:56:19Z</time>
      </trkpt>
      <trkpt lat="59.9127902" lon="17.7065393">
        <ele>39.5513</ele>
        <time>2014-06-04T13:56:20Z</time>
      </trkpt>
      <trkpt lat="59.9127666" lon="17.7065518">
        <ele>39.5513</ele>
        <time>2014-06-04T13:56:21Z</time>
      </trkpt>
      <trkpt lat="59.9127427" lon="17.7065555">
        <ele>39.5513</ele>
        <time>2014-06-04T13:56:22Z</time>
      </trkpt>
      <trkpt lat="59.9127176" lon="17.7065731">
        <ele>40.0321</ele>
        <time>2014-06-04T13:56:23Z</time>
      </trkpt>
      <trkpt lat="59.912692" lon="17.7065829">
        <ele>39.0707</ele>
        <time>2014-06-04T13:56:24Z</time>
      </trkpt>
      <trkpt lat="59.9126639" lon="17.7065908">
        <ele>39.0707</ele>
        <time>2014-06-04T13:56:25Z</time>
      </trkpt>
      <trkpt lat="59.9126394" lon="17.7065964">
        <ele>39.0707</ele>
        <time>2014-06-04T13:56:26Z</time>
      </trkpt>
      <trkpt lat="59.9126178" lon="17.7066058">
        <ele>39.5513</ele>
        <time>2014-06-04T13:56:27Z</time>
      </trkpt>
      <trkpt lat="59.9126028" lon="17.7066105">
        <ele>39.5513</ele>
        <time>2014-06-04T13:56:28Z</time>
      </trkpt>
      <trkpt lat="59.9125874" lon="17.7066306">
        <ele>39.5513</ele>
        <time>2014-06-04T13:56:29Z</time>
      </trkpt>
      <trkpt lat="59.9125696" lon="17.7066611">
        <ele>39.0707</ele>
        <time>2014-06-04T13:56:30Z</time>
      </trkpt>
      <trkpt lat="59.9125565" lon="17.7066896">
        <ele>39.0707</ele>
        <time>2014-06-04T13:56:31Z</time>
      </trkpt>
      <trkpt lat="59.912551" lon="17.7067073">
        <ele>39.0707</ele>
        <time>2014-06-04T13:56:32Z</time>
      </trkpt>
      <trkpt lat="59.9125427" lon="17.706725">
        <ele>38.5901</ele>
        <time>2014-06-04T13:56:33Z</time>
      </trkpt>
      <trkpt lat="59.9125387" lon="17.7067435">
        <ele>38.5901</ele>
        <time>2014-06-04T13:56:34Z</time>
      </trkpt>
      <trkpt lat="59.9125382" lon="17.7067699">
        <ele>38.5901</ele>
        <time>2014-06-04T13:56:35Z</time>
      </trkpt>
      <trkpt lat="59.912536" lon="17.7068047">
        <ele>38.1094</ele>
        <time>2014-06-04T13:56:36Z</time>
      </trkpt>
      <trkpt lat="59.9125319" lon="17.7068518">
        <ele>38.5901</ele>
        <time>2014-06-04T13:56:37Z</time>
      </trkpt>
      <trkpt lat="59.9125281" lon="17.7068984">
        <ele>39.5513</ele>
        <time>2014-06-04T13:56:38Z</time>
      </trkpt>
      <trkpt lat="59.912506" lon="17.7069839">
        <ele>40.0321</ele>
        <time>2014-06-04T13:56:39Z</time>
      </trkpt>
      <trkpt lat="59.912493" lon="17.7070669">
        <ele>40.0321</ele>
        <time>2014-06-04T13:56:40Z</time>
      </trkpt>
      <trkpt lat="59.912483" lon="17.7071252">
        <ele>40.5128</ele>
        <time>2014-06-04T13:56:41Z</time>
      </trkpt>
      <trkpt lat="59.9124742" lon="17.7071895">
        <ele>40.9934</ele>
        <time>2014-06-04T13:56:42Z</time>
      </trkpt>
      <trkpt lat="59.9124649" lon="17.7072594">
        <ele>40.9934</ele>
        <time>2014-06-04T13:56:43Z</time>
      </trkpt>
      <trkpt lat="59.9124574" lon="17.7073255">
        <ele>40.5128</ele>
        <time>2014-06-04T13:56:44Z</time>
      </trkpt>
      <trkpt lat="59.9124604" lon="17.7073821">
        <ele>41.9547</ele>
        <time>2014-06-04T13:56:45Z</time>
      </trkpt>
      <trkpt lat="59.9124588" lon="17.7074476">
        <ele>42.4354</ele>
        <time>2014-06-04T13:56:46Z</time>
      </trkpt>
      <trkpt lat="59.912449" lon="17.707507">
        <ele>42.4354</ele>
        <time>2014-06-04T13:56:47Z</time>
      </trkpt>
      <trkpt lat="59.9124395" lon="17.707561">
        <ele>43.3966</ele>
        <time>2014-06-04T13:56:48Z</time>
      </trkpt>
      <trkpt lat="59.9124306" lon="17.70762">
        <ele>44.358</ele>
        <time>2014-06-04T13:56:49Z</time>
      </trkpt>
      <trkpt lat="59.9124163" lon="17.7076649">
        <ele>44.358</ele>
        <time>2014-06-04T13:56:50Z</time>
      </trkpt>
      <trkpt lat="59.9124032" lon="17.7077028">
        <ele>43.8773</ele>
        <time>2014-06-04T13:56:51Z</time>
      </trkpt>
      <trkpt lat="59.9123904" lon="17.7077501">
        <ele>43.8773</ele>
        <time>2014-06-04T13:56:52Z</time>
      </trkpt>
      <trkpt lat="59.9123729" lon="17.7077843">
        <ele>43.3966</ele>
        <time>2014-06-04T13:56:53Z</time>
      </trkpt>
      <trkpt lat="59.9123568" lon="17.7078178">
        <ele>42.916</ele>
        <time>2014-06-04T13:56:54Z</time>
      </trkpt>
      <trkpt lat="59.9123427" lon="17.707875">
        <ele>43.3966</ele>
        <time>2014-06-04T13:56:55Z</time>
      </trkpt>
      <trkpt lat="59.9123293" lon="17.7079205">
        <ele>43.8773</ele>
        <time>2014-06-04T13:56:56Z</time>
      </trkpt>
      <trkpt lat="59.9123203" lon="17.7079586">
        <ele>44.8386</ele>
        <time>2014-06-04T13:56:57Z</time>
      </trkpt>
      <trkpt lat="59.912311" lon="17.708009">
        <ele>45.3192</ele>
        <time>2014-06-04T13:56:58Z</time>
      </trkpt>
      <trkpt lat="59.9123116" lon="17.708054">
        <ele>45.7999</ele>
        <time>2014-06-04T13:56:59Z</time>
      </trkpt>
      <trkpt lat="59.9123082" lon="17.7081125">
        <ele>46.7612</ele>
        <time>2014-06-04T13:57:00Z</time>
      </trkpt>
      <trkpt lat="59.9123087" lon="17.7081676">
        <ele>47.2418</ele>
        <time>2014-06-04T13:57:01Z</time>
      </trkpt>
      <trkpt lat="59.9123008" lon="17.70823">
        <ele>47.2418</ele>
        <time>2014-06-04T13:57:02Z</time>
      </trkpt>
      <trkpt lat="59.9122956" lon="17.7082824">
        <ele>47.2418</ele>
        <time>2014-06-04T13:57:03Z</time>
      </trkpt>
      <trkpt lat="59.912292" lon="17.708339">
        <ele>47.7225</ele>
        <time>2014-06-04T13:57:04Z</time>
      </trkpt>
      <trkpt lat="59.9122906" lon="17.7083722">
        <ele>48.2034</ele>
        <time>2014-06-04T13:57:05Z</time>
      </trkpt>
      <trkpt lat="59.9122926" lon="17.7084099">
        <ele>49.1646</ele>
        <time>2014-06-04T13:57:06Z</time>
      </trkpt>
      <trkpt lat="59.9122939" lon="17.7084508">
        <ele>49.6453</ele>
        <time>2014-06-04T13:57:07Z</time>
      </trkpt>
      <trkpt lat="59.9122879" lon="17.7084866">
        <ele>49.6453</ele>
        <time>2014-06-04T13:57:08Z</time>
      </trkpt>
      <trkpt lat="59.9122849" lon="17.7085287">
        <ele>49.6453</ele>
        <time>2014-06-04T13:57:09Z</time>
      </trkpt>
      <trkpt lat="59.9122696" lon="17.7085748">
        <ele>49.6453</ele>
        <time>2014-06-04T13:57:10Z</time>
      </trkpt>
      <trkpt lat="59.9122538" lon="17.7086286">
        <ele>49.1646</ele>
        <time>2014-06-04T13:57:11Z</time>
      </trkpt>
      <trkpt lat="59.9122339" lon="17.7086715">
        <ele>49.6453</ele>
        <time>2014-06-04T13:57:12Z</time>
      </trkpt>
      <trkpt lat="59.9122148" lon="17.7087088">
        <ele>49.1646</ele>
        <time>2014-06-04T13:57:13Z</time>
      </trkpt>
      <trkpt lat="59.9121992" lon="17.7087509">
        <ele>49.1646</ele>
        <time>2014-06-04T13:57:14Z</time>
      </trkpt>
      <trkpt lat="59.9121807" lon="17.7087983">
        <ele>50.126</ele>
        <time>2014-06-04T13:57:15Z</time>
      </trkpt>
      <trkpt lat="59.9121599" lon="17.7088455">
        <ele>49.6453</ele>
        <time>2014-06-04T13:57:16Z</time>
      </trkpt>
      <trkpt lat="59.9121408" lon="17.7088887">
        <ele>50.126</ele>
        <time>2014-06-04T13:57:17Z</time>
      </trkpt>
      <trkpt lat="59.9121174" lon="17.7089325">
        <ele>49.6453</ele>
        <time>2014-06-04T13:57:18Z</time>
      </trkpt>
      <trkpt lat="59.9121014" lon="17.7089705">
        <ele>49.6453</ele>
        <time>2014-06-04T13:57:19Z</time>
      </trkpt>
      <trkpt lat="59.9120836" lon="17.709008">
        <ele>49.6453</ele>
        <time>2014-06-04T13:57:20Z</time>
      </trkpt>
      <trkpt lat="59.912068" lon="17.7090403">
        <ele>50.126</ele>
        <time>2014-06-04T13:57:21Z</time>
      </trkpt>
      <trkpt lat="59.9120499" lon="17.7090712">
        <ele>50.6066</ele>
        <time>2014-06-04T13:57:22Z</time>
      </trkpt>
      <trkpt lat="59.9120344" lon="17.7091077">
        <ele>50.6066</ele>
        <time>2014-06-04T13:57:23Z</time>
      </trkpt>
      <trkpt lat="59.912019" lon="17.7091552">
        <ele>50.6066</ele>
        <time>2014-06-04T13:57:24Z</time>
      </trkpt>
      <trkpt lat="59.9120081" lon="17.7092092">
        <ele>50.6066</ele>
        <time>2014-06-04T13:57:25Z</time>
      </trkpt>
      <trkpt lat="59.912005" lon="17.7092569">
        <ele>50.126</ele>
        <time>2014-06-04T13:57:26Z</time>
      </trkpt>
      <trkpt lat="59.912002" lon="17.70931">
        <ele>50.6066</ele>
        <time>2014-06-04T13:57:27Z</time>
      </trkpt>
      <trkpt lat="59.9120014" lon="17.7093615">
        <ele>49.6453</ele>
        <time>2014-06-04T13:57:28Z</time>
      </trkpt>
      <trkpt lat="59.9120049" lon="17.7094014">
        <ele>49.1646</ele>
        <time>2014-06-04T13:57:29Z</time>
      </trkpt>
      <trkpt lat="59.912" lon="17.709453">
        <ele>49.1646</ele>
        <time>2014-06-04T13:57:30Z</time>
      </trkpt>
      <trkpt lat="59.9119979" lon="17.7094888">
        <ele>49.1646</ele>
        <time>2014-06-04T13:57:31Z</time>
      </trkpt>
      <trkpt lat="59.9119904" lon="17.7095268">
        <ele>48.684</ele>
        <time>2014-06-04T13:57:32Z</time>
      </trkpt>
      <trkpt lat="59.9119832" lon="17.7095644">
        <ele>47.2418</ele>
        <time>2014-06-04T13:57:33Z</time>
      </trkpt>
      <trkpt lat="59.9119748" lon="17.7096069">
        <ele>47.7225</ele>
        <time>2014-06-04T13:57:34Z</time>
      </trkpt>
      <trkpt lat="59.9119662" lon="17.7096494">
        <ele>48.2034</ele>
        <time>2014-06-04T13:57:35Z</time>
      </trkpt>
      <trkpt lat="59.9119569" lon="17.709692">
        <ele>48.2034</ele>
        <time>2014-06-04T13:57:36Z</time>
      </trkpt>
      <trkpt lat="59.9119434" lon="17.7097291">
        <ele>48.2034</ele>
        <time>2014-06-04T13:57:37Z</time>
      </trkpt>
      <trkpt lat="59.9119237" lon="17.7097734">
        <ele>47.2418</ele>
        <time>2014-06-04T13:57:38Z</time>
      </trkpt>
      <trkpt lat="59.9119067" lon="17.709808">
        <ele>47.2418</ele>
        <time>2014-06-04T13:57:39Z</time>
      </trkpt>
      <trkpt lat="59.9119002" lon="17.7098334">
        <ele>47.2418</ele>
        <time>2014-06-04T13:57:40Z</time>
      </trkpt>
      <trkpt lat="59.9118849" lon="17.7098692">
        <ele>46.7612</ele>
        <time>2014-06-04T13:57:41Z</time>
      </trkpt>
      <trkpt lat="59.9118681" lon="17.709903">
        <ele>46.7612</ele>
        <time>2014-06-04T13:57:42Z</time>
      </trkpt>
      <trkpt lat="59.9118525" lon="17.7099343">
        <ele>46.2806</ele>
        <time>2014-06-04T13:57:43Z</time>
      </trkpt>
      <trkpt lat="59.9118274" lon="17.7099692">
        <ele>46.2806</ele>
        <time>2014-06-04T13:57:44Z</time>
      </trkpt>
      <trkpt lat="59.9118035" lon="17.7099899">
        <ele>45.7999</ele>
        <time>2014-06-04T13:57:45Z</time>
      </trkpt>
      <trkpt lat="59.9117782" lon="17.7100071">
        <ele>46.2806</ele>
        <time>2014-06-04T13:57:46Z</time>
      </trkpt>
      <trkpt lat="59.9117579" lon="17.7100119">
        <ele>46.2806</ele>
        <time>2014-06-04T13:57:47Z</time>
      </trkpt>
      <trkpt lat="59.9117396" lon="17.7100259">
        <ele>46.2806</ele>
        <time>2014-06-04T13:57:48Z</time>
      </trkpt>
      <trkpt lat="59.9117254" lon="17.7100282">
        <ele>46.2806</ele>
        <time>2014-06-04T13:57:49Z</time>
      </trkpt>
      <trkpt lat="59.9117098" lon="17.7100211">
        <ele>45.3192</ele>
        <time>2014-06-04T13:57:50Z</time>
      </trkpt>
      <trkpt lat="59.911692" lon="17.7100154">
        <ele>44.8386</ele>
        <time>2014-06-04T13:57:51Z</time>
      </trkpt>
      <trkpt lat="59.9116721" lon="17.7100068">
        <ele>43.8773</ele>
        <time>2014-06-04T13:57:52Z</time>
      </trkpt>
      <trkpt lat="59.9116511" lon="17.7099759">
        <ele>43.3966</ele>
        <time>2014-06-04T13:57:53Z</time>
      </trkpt>
      <trkpt lat="59.9116357" lon="17.7099444">
        <ele>43.8773</ele>
        <time>2014-06-04T13:57:54Z</time>
      </trkpt>
      <trkpt lat="59.911615" lon="17.709907">
        <ele>43.3966</ele>
        <time>2014-06-04T13:57:55Z</time>
      </trkpt>
      <trkpt lat="59.9115916" lon="17.7098763">
        <ele>43.3966</ele>
        <time>2014-06-04T13:57:56Z</time>
      </trkpt>
      <trkpt lat="59.9115647" lon="17.7098483">
        <ele>43.3966</ele>
        <time>2014-06-04T13:57:57Z</time>
      </trkpt>
      <trkpt lat="59.9115356" lon="17.7098355">
        <ele>43.3966</ele>
        <time>2014-06-04T13:57:58Z</time>
      </trkpt>
      <trkpt lat="59.9115093" lon="17.7098143">
        <ele>43.8773</ele>
        <time>2014-06-04T13:57:59Z</time>
      </trkpt>
      <trkpt lat="59.9114974" lon="17.7097691">
        <ele>44.358</ele>
        <time>2014-06-04T13:58:00Z</time>
      </trkpt>
      <trkpt lat="59.9114879" lon="17.7097274">
        <ele>45.7999</ele>
        <time>2014-06-04T13:58:01Z</time>
      </trkpt>
      <trkpt lat="59.9114808" lon="17.7096774">
        <ele>46.2806</ele>
        <time>2014-06-04T13:58:02Z</time>
      </trkpt>
      <trkpt lat="59.911471" lon="17.7096279">
        <ele>46.7612</ele>
        <time>2014-06-04T13:58:03Z</time>
      </trkpt>
      <trkpt lat="59.9114554" lon="17.7095794">
        <ele>47.2418</ele>
        <time>2014-06-04T13:58:04Z</time>
      </trkpt>
      <trkpt lat="59.9114373" lon="17.709533">
        <ele>47.7225</ele>
        <time>2014-06-04T13:58:05Z</time>
      </trkpt>
      <trkpt lat="59.9114234" lon="17.7095035">
        <ele>48.2034</ele>
        <time>2014-06-04T13:58:06Z</time>
      </trkpt>
      <trkpt lat="59.9114162" lon="17.7094879">
        <ele>47.7225</ele>
        <time>2014-06-04T13:58:07Z</time>
      </trkpt>
      <trkpt lat="59.9114046" lon="17.7094642">
        <ele>47.7225</ele>
        <time>2014-06-04T13:58:08Z</time>
      </trkpt>
      <trkpt lat="59.9113969" lon="17.7094221">
        <ele>48.2034</ele>
        <time>2014-06-04T13:58:09Z</time>
      </trkpt>
      <trkpt lat="59.911385" lon="17.7093905">
        <ele>48.684</ele>
        <time>2014-06-04T13:58:10Z</time>
      </trkpt>
      <trkpt lat="59.9113747" lon="17.7093594">
        <ele>49.1646</ele>
        <time>2014-06-04T13:58:11Z</time>
      </trkpt>
      <trkpt lat="59.9113621" lon="17.7093367">
        <ele>48.684</ele>
        <time>2014-06-04T13:58:12Z</time>
      </trkpt>
      <trkpt lat="59.9113456" lon="17.7093249">
        <ele>49.1646</ele>
        <time>2014-06-04T13:58:13Z</time>
      </trkpt>
      <trkpt lat="59.911329" lon="17.7093194">
        <ele>49.6453</ele>
        <time>2014-06-04T13:58:14Z</time>
      </trkpt>
      <trkpt lat="59.9113176" lon="17.7093134">
        <ele>49.6453</ele>
        <time>2014-06-04T13:58:15Z</time>
      </trkpt>
      <trkpt lat="59.9113022" lon="17.7092942">
        <ele>49.6453</ele>
        <time>2014-06-04T13:58:16Z</time>
      </trkpt>
      <trkpt lat="59.9112877" lon="17.709276">
        <ele>50.126</ele>
        <time>2014-06-04T13:58:17Z</time>
      </trkpt>
      <trkpt lat="59.9112704" lon="17.7092608">
        <ele>50.126</ele>
        <time>2014-06-04T13:58:18Z</time>
      </trkpt>
      <trkpt lat="59.9112468" lon="17.709237">
        <ele>50.126</ele>
        <time>2014-06-04T13:58:19Z</time>
      </trkpt>
      <trkpt lat="59.9112281" lon="17.7092275">
        <ele>50.126</ele>
        <time>2014-06-04T13:58:20Z</time>
      </trkpt>
      <trkpt lat="59.9112059" lon="17.7092244">
        <ele>50.126</ele>
        <time>2014-06-04T13:58:21Z</time>
      </trkpt>
      <trkpt lat="59.9111827" lon="17.7092225">
        <ele>50.6066</ele>
        <time>2014-06-04T13:58:22Z</time>
      </trkpt>
      <trkpt lat="59.9111612" lon="17.7092254">
        <ele>50.6066</ele>
        <time>2014-06-04T13:58:23Z</time>
      </trkpt>
      <trkpt lat="59.9111389" lon="17.7092403">
        <ele>50.6066</ele>
        <time>2014-06-04T13:58:24Z</time>
      </trkpt>
      <trkpt lat="59.9111173" lon="17.7092507">
        <ele>50.6066</ele>
        <time>2014-06-04T13:58:25Z</time>
      </trkpt>
      <trkpt lat="59.9110989" lon="17.7092635">
        <ele>51.0872</ele>
        <time>2014-06-04T13:58:26Z</time>
      </trkpt>
      <trkpt lat="59.9110798" lon="17.709286">
        <ele>51.5679</ele>
        <time>2014-06-04T13:58:27Z</time>
      </trkpt>
      <trkpt lat="59.911065" lon="17.7092966">
        <ele>51.5679</ele>
        <time>2014-06-04T13:58:28Z</time>
      </trkpt>
      <trkpt lat="59.911054" lon="17.7093104">
        <ele>52.0486</ele>
        <time>2014-06-04T13:58:29Z</time>
      </trkpt>
      <trkpt lat="59.91104" lon="17.7093133">
        <ele>52.5292</ele>
        <time>2014-06-04T13:58:30Z</time>
      </trkpt>
      <trkpt lat="59.9110246" lon="17.7093106">
        <ele>52.5292</ele>
        <time>2014-06-04T13:58:31Z</time>
      </trkpt>
      <trkpt lat="59.9110038" lon="17.7093154">
        <ele>52.5292</ele>
        <time>2014-06-04T13:58:32Z</time>
      </trkpt>
      <trkpt lat="59.9109752" lon="17.7093165">
        <ele>51.0872</ele>
        <time>2014-06-04T13:58:33Z</time>
      </trkpt>
      <trkpt lat="59.9109494" lon="17.7093216">
        <ele>51.0872</ele>
        <time>2014-06-04T13:58:34Z</time>
      </trkpt>
      <trkpt lat="59.9109237" lon="17.7093222">
        <ele>51.5679</ele>
        <time>2014-06-04T13:58:35Z</time>
      </trkpt>
      <trkpt lat="59.9108947" lon="17.709303">
        <ele>52.0486</ele>
        <time>2014-06-04T13:58:36Z</time>
      </trkpt>
      <trkpt lat="59.9108732" lon="17.7092823">
        <ele>52.5292</ele>
        <time>2014-06-04T13:58:37Z</time>
      </trkpt>
      <trkpt lat="59.9108543" lon="17.7092674">
        <ele>52.5292</ele>
        <time>2014-06-04T13:58:38Z</time>
      </trkpt>
      <trkpt lat="59.9108416" lon="17.7092507">
        <ele>52.5292</ele>
        <time>2014-06-04T13:58:39Z</time>
      </trkpt>
      <trkpt lat="59.9108271" lon="17.7092274">
        <ele>52.5292</ele>
        <time>2014-06-04T13:58:40Z</time>
      </trkpt>
      <trkpt lat="59.9108095" lon="17.7092091">
        <ele>52.0486</ele>
        <time>2014-06-04T13:58:41Z</time>
      </trkpt>
      <trkpt lat="59.9107911" lon="17.7091946">
        <ele>51.5679</ele>
        <time>2014-06-04T13:58:42Z</time>
      </trkpt>
      <trkpt lat="59.9107753" lon="17.7091683">
        <ele>51.5679</ele>
        <time>2014-06-04T13:58:43Z</time>
      </trkpt>
      <trkpt lat="59.910756" lon="17.7091512">
        <ele>51.5679</ele>
        <time>2014-06-04T13:58:44Z</time>
      </trkpt>
      <trkpt lat="59.9107286" lon="17.7091401">
        <ele>51.5679</ele>
        <time>2014-06-04T13:58:45Z</time>
      </trkpt>
      <trkpt lat="59.9107047" lon="17.7091326">
        <ele>51.0872</ele>
        <time>2014-06-04T13:58:46Z</time>
      </trkpt>
      <trkpt lat="59.9106818" lon="17.7091305">
        <ele>51.0872</ele>
        <time>2014-06-04T13:58:47Z</time>
      </trkpt>
      <trkpt lat="59.9106561" lon="17.7091383">
        <ele>51.0872</ele>
        <time>2014-06-04T13:58:48Z</time>
      </trkpt>
      <trkpt lat="59.9106347" lon="17.7091554">
        <ele>51.0872</ele>
        <time>2014-06-04T13:58:49Z</time>
      </trkpt>
      <trkpt lat="59.9106116" lon="17.7091756">
        <ele>51.0872</ele>
        <time>2014-06-04T13:58:50Z</time>
      </trkpt>
      <trkpt lat="59.9105861" lon="17.7091995">
        <ele>51.5679</ele>
        <time>2014-06-04T13:58:51Z</time>
      </trkpt>
      <trkpt lat="59.9105545" lon="17.7092309">
        <ele>53.0098</ele>
        <time>2014-06-04T13:58:52Z</time>
      </trkpt>
      <trkpt lat="59.9105297" lon="17.7092487">
        <ele>53.0098</ele>
        <time>2014-06-04T13:58:53Z</time>
      </trkpt>
      <trkpt lat="59.9105076" lon="17.7092547">
        <ele>53.4905</ele>
        <time>2014-06-04T13:58:54Z</time>
      </trkpt>
      <trkpt lat="59.9104876" lon="17.7092529">
        <ele>54.4518</ele>
        <time>2014-06-04T13:58:55Z</time>
      </trkpt>
      <trkpt lat="59.9104676" lon="17.7092331">
        <ele>54.9324</ele>
        <time>2014-06-04T13:58:56Z</time>
      </trkpt>
      <trkpt lat="59.9104503" lon="17.7092064">
        <ele>54.9324</ele>
        <time>2014-06-04T13:58:57Z</time>
      </trkpt>
      <trkpt lat="59.9104288" lon="17.7091845">
        <ele>55.4131</ele>
        <time>2014-06-04T13:58:58Z</time>
      </trkpt>
      <trkpt lat="59.9104096" lon="17.7091515">
        <ele>55.4131</ele>
        <time>2014-06-04T13:58:59Z</time>
      </trkpt>
      <trkpt lat="59.9103877" lon="17.7091202">
        <ele>54.9324</ele>
        <time>2014-06-04T13:59:00Z</time>
      </trkpt>
      <trkpt lat="59.9103696" lon="17.7090725">
        <ele>55.4131</ele>
        <time>2014-06-04T13:59:01Z</time>
      </trkpt>
      <trkpt lat="59.9103516" lon="17.7090155">
        <ele>55.4131</ele>
        <time>2014-06-04T13:59:02Z</time>
      </trkpt>
      <trkpt lat="59.9103323" lon="17.7089715">
        <ele>55.4131</ele>
        <time>2014-06-04T13:59:03Z</time>
      </trkpt>
      <trkpt lat="59.9103144" lon="17.7089498">
        <ele>54.9324</ele>
        <time>2014-06-04T13:59:04Z</time>
      </trkpt>
      <trkpt lat="59.9102921" lon="17.7089585">
        <ele>54.9324</ele>
        <time>2014-06-04T13:59:05Z</time>
      </trkpt>
      <trkpt lat="59.9102749" lon="17.7089715">
        <ele>55.4131</ele>
        <time>2014-06-04T13:59:06Z</time>
      </trkpt>
      <trkpt lat="59.9102509" lon="17.7089842">
        <ele>55.4131</ele>
        <time>2014-06-04T13:59:07Z</time>
      </trkpt>
      <trkpt lat="59.9102258" lon="17.7090099">
        <ele>55.4131</ele>
        <time>2014-06-04T13:59:08Z</time>
      </trkpt>
      <trkpt lat="59.9102017" lon="17.7090342">
        <ele>54.9324</ele>
        <time>2014-06-04T13:59:09Z</time>
      </trkpt>
      <trkpt lat="59.9101811" lon="17.7090524">
        <ele>54.4518</ele>
        <time>2014-06-04T13:59:10Z</time>
      </trkpt>
      <trkpt lat="59.9101604" lon="17.7090751">
        <ele>53.4905</ele>
        <time>2014-06-04T13:59:11Z</time>
      </trkpt>
      <trkpt lat="59.9101375" lon="17.709087">
        <ele>53.4905</ele>
        <time>2014-06-04T13:59:12Z</time>
      </trkpt>
      <trkpt lat="59.910112" lon="17.709102">
        <ele>53.4905</ele>
        <time>2014-06-04T13:59:13Z</time>
      </trkpt>
      <trkpt lat="59.9100816" lon="17.7091114">
        <ele>53.9712</ele>
        <time>2014-06-04T13:59:14Z</time>
      </trkpt>
      <trkpt lat="59.910052" lon="17.7091303">
        <ele>53.4905</ele>
        <time>2014-06-04T13:59:15Z</time>
      </trkpt>
      <trkpt lat="59.910019" lon="17.7091388">
        <ele>53.4905</ele>
        <time>2014-06-04T13:59:16Z</time>
      </trkpt>
      <trkpt lat="59.9099863" lon="17.7091353">
        <ele>53.9712</ele>
        <time>2014-06-04T13:59:17Z</time>
      </trkpt>
      <trkpt lat="59.909954" lon="17.7091491">
        <ele>54.4518</ele>
        <time>2014-06-04T13:59:18Z</time>
      </trkpt>
      <trkpt lat="59.9099215" lon="17.7091712">
        <ele>54.4518</ele>
        <time>2014-06-04T13:59:19Z</time>
      </trkpt>
      <trkpt lat="59.90989" lon="17.7091979">
        <ele>54.9324</ele>
        <time>2014-06-04T13:59:20Z</time>
      </trkpt>
      <trkpt lat="59.9098642" lon="17.7091977">
        <ele>55.8938</ele>
        <time>2014-06-04T13:59:21Z</time>
      </trkpt>
      <trkpt lat="59.9098445" lon="17.7091938">
        <ele>56.8551</ele>
        <time>2014-06-04T13:59:22Z</time>
      </trkpt>
      <trkpt lat="59.9098164" lon="17.7092018">
        <ele>56.3745</ele>
        <time>2014-06-04T13:59:23Z</time>
      </trkpt>
      <trkpt lat="59.9097891" lon="17.7092122">
        <ele>56.8551</ele>
        <time>2014-06-04T13:59:24Z</time>
      </trkpt>
      <trkpt lat="59.9097709" lon="17.7092052">
        <ele>55.4131</ele>
        <time>2014-06-04T13:59:25Z</time>
      </trkpt>
      <trkpt lat="59.9097553" lon="17.7092149">
        <ele>53.4905</ele>
        <time>2014-06-04T13:59:26Z</time>
      </trkpt>
      <trkpt lat="59.909735" lon="17.7092272">
        <ele>53.0098</ele>
        <time>2014-06-04T13:59:27Z</time>
      </trkpt>
      <trkpt lat="59.9097138" lon="17.7092319">
        <ele>52.5292</ele>
        <time>2014-06-04T13:59:28Z</time>
      </trkpt>
      <trkpt lat="59.9096901" lon="17.7092525">
        <ele>52.5292</ele>
        <time>2014-06-04T13:59:29Z</time>
      </trkpt>
      <trkpt lat="59.9096689" lon="17.7092745">
        <ele>51.5679</ele>
        <time>2014-06-04T13:59:30Z</time>
      </trkpt>
      <trkpt lat="59.909656" lon="17.7092904">
        <ele>50.126</ele>
        <time>2014-06-04T13:59:31Z</time>
      </trkpt>
      <trkpt lat="59.9096344" lon="17.7093261">
        <ele>49.1646</ele>
        <time>2014-06-04T13:59:32Z</time>
      </trkpt>
      <trkpt lat="59.909608" lon="17.7093645">
        <ele>49.1646</ele>
        <time>2014-06-04T13:59:33Z</time>
      </trkpt>
      <trkpt lat="59.909592" lon="17.7093921">
        <ele>47.7225</ele>
        <time>2014-06-04T13:59:34Z</time>
      </trkpt>
      <trkpt lat="59.9095754" lon="17.7094159">
        <ele>47.2418</ele>
        <time>2014-06-04T13:59:35Z</time>
      </trkpt>
      <trkpt lat="59.9095655" lon="17.7094319">
        <ele>46.2806</ele>
        <time>2014-06-04T13:59:36Z</time>
      </trkpt>
      <trkpt lat="59.9095508" lon="17.709472">
        <ele>45.7999</ele>
        <time>2014-06-04T13:59:37Z</time>
      </trkpt>
      <trkpt lat="59.9095383" lon="17.7095183">
        <ele>45.7999</ele>
        <time>2014-06-04T13:59:38Z</time>
      </trkpt>
      <trkpt lat="59.9095232" lon="17.7095625">
        <ele>45.7999</ele>
        <time>2014-06-04T13:59:39Z</time>
      </trkpt>
      <trkpt lat="59.9095068" lon="17.7095899">
        <ele>45.3192</ele>
        <time>2014-06-04T13:59:40Z</time>
      </trkpt>
      <trkpt lat="59.9094866" lon="17.7096219">
        <ele>45.3192</ele>
        <time>2014-06-04T13:59:41Z</time>
      </trkpt>
      <trkpt lat="59.9094632" lon="17.7096385">
        <ele>44.358</ele>
        <time>2014-06-04T13:59:42Z</time>
      </trkpt>
      <trkpt lat="59.9094377" lon="17.7096666">
        <ele>43.3966</ele>
        <time>2014-06-04T13:59:43Z</time>
      </trkpt>
      <trkpt lat="59.9094133" lon="17.7097022">
        <ele>42.916</ele>
        <time>2014-06-04T13:59:44Z</time>
      </trkpt>
      <trkpt lat="59.9093928" lon="17.7097348">
        <ele>41.9547</ele>
        <time>2014-06-04T13:59:45Z</time>
      </trkpt>
      <trkpt lat="59.9093747" lon="17.7097666">
        <ele>41.9547</ele>
        <time>2014-06-04T13:59:46Z</time>
      </trkpt>
      <trkpt lat="59.9093554" lon="17.7097806">
        <ele>41.474</ele>
        <time>2014-06-04T13:59:47Z</time>
      </trkpt>
      <trkpt lat="59.9093352" lon="17.7097933">
        <ele>41.9547</ele>
        <time>2014-06-04T13:59:48Z</time>
      </trkpt>
      <trkpt lat="59.9093119" lon="17.7098132">
        <ele>41.474</ele>
        <time>2014-06-04T13:59:49Z</time>
      </trkpt>
      <trkpt lat="59.9092954" lon="17.7098374">
        <ele>40.5128</ele>
        <time>2014-06-04T13:59:50Z</time>
      </trkpt>
      <trkpt lat="59.9092771" lon="17.7098654">
        <ele>39.5513</ele>
        <time>2014-06-04T13:59:51Z</time>
      </trkpt>
      <trkpt lat="59.9092621" lon="17.70988">
        <ele>39.5513</ele>
        <time>2014-06-04T13:59:52Z</time>
      </trkpt>
      <trkpt lat="59.9092465" lon="17.7099049">
        <ele>38.5901</ele>
        <time>2014-06-04T13:59:53Z</time>
      </trkpt>
      <trkpt lat="59.9092346" lon="17.7099068">
        <ele>38.1094</ele>
        <time>2014-06-04T13:59:54Z</time>
      </trkpt>
      <trkpt lat="59.909228" lon="17.7099206">
        <ele>37.1481</ele>
        <time>2014-06-04T13:59:55Z</time>
      </trkpt>
      <trkpt lat="59.9092249" lon="17.7099394">
        <ele>35.7061</ele>
        <time>2014-06-04T13:59:56Z</time>
      </trkpt>
      <trkpt lat="59.9092213" lon="17.7099464">
        <ele>35.7061</ele>
        <time>2014-06-04T13:59:57Z</time>
      </trkpt>
      <trkpt lat="59.909213" lon="17.7099701">
        <ele>34.7449</ele>
        <time>2014-06-04T13:59:58Z</time>
      </trkpt>
      <trkpt lat="59.9092016" lon="17.7099919">
        <ele>33.7834</ele>
        <time>2014-06-04T13:59:59Z</time>
      </trkpt>
      <trkpt lat="59.9091915" lon="17.7100043">
        <ele>33.7834</ele>
        <time>2014-06-04T14:00:00Z</time>
      </trkpt>
      <trkpt lat="59.9091763" lon="17.7100277">
        <ele>33.7834</ele>
        <time>2014-06-04T14:00:01Z</time>
      </trkpt>
      <trkpt lat="59.909154" lon="17.7100556">
        <ele>34.7449</ele>
        <time>2014-06-04T14:00:02Z</time>
      </trkpt>
      <trkpt lat="59.9091285" lon="17.7100922">
        <ele>35.2255</ele>
        <time>2014-06-04T14:00:03Z</time>
      </trkpt>
      <trkpt lat="59.9091046" lon="17.7101244">
        <ele>35.7061</ele>
        <time>2014-06-04T14:00:04Z</time>
      </trkpt>
      <trkpt lat="59.909083" lon="17.7101628">
        <ele>36.1868</ele>
        <time>2014-06-04T14:00:05Z</time>
      </trkpt>
      <trkpt lat="59.909058" lon="17.7101976">
        <ele>36.6675</ele>
        <time>2014-06-04T14:00:06Z</time>
      </trkpt>
      <trkpt lat="59.9090338" lon="17.7102331">
        <ele>37.1481</ele>
        <time>2014-06-04T14:00:07Z</time>
      </trkpt>
      <trkpt lat="59.9090111" lon="17.7102592">
        <ele>37.1481</ele>
        <time>2014-06-04T14:00:08Z</time>
      </trkpt>
      <trkpt lat="59.9089877" lon="17.7102927">
        <ele>37.1481</ele>
        <time>2014-06-04T14:00:09Z</time>
      </trkpt>
      <trkpt lat="59.908955" lon="17.7103348">
        <ele>37.1481</ele>
        <time>2014-06-04T14:00:10Z</time>
      </trkpt>
      <trkpt lat="59.9089242" lon="17.7103717">
        <ele>37.6287</ele>
        <time>2014-06-04T14:00:11Z</time>
      </trkpt>
      <trkpt lat="59.9088986" lon="17.7104088">
        <ele>37.1481</ele>
        <time>2014-06-04T14:00:12Z</time>
      </trkpt>
      <trkpt lat="59.9088593" lon="17.7104727">
        <ele>38.1094</ele>
        <time>2014-06-04T14:00:13Z</time>
      </trkpt>
      <trkpt lat="59.9088378" lon="17.710511">
        <ele>38.1094</ele>
        <time>2014-06-04T14:00:14Z</time>
      </trkpt>
      <trkpt lat="59.9088214" lon="17.7105434">
        <ele>38.1094</ele>
        <time>2014-06-04T14:00:15Z</time>
      </trkpt>
      <trkpt lat="59.9088032" lon="17.7105721">
        <ele>38.1094</ele>
        <time>2014-06-04T14:00:16Z</time>
      </trkpt>
      <trkpt lat="59.9087866" lon="17.7106032">
        <ele>38.1094</ele>
        <time>2014-06-04T14:00:17Z</time>
      </trkpt>
      <trkpt lat="59.9087662" lon="17.7106289">
        <ele>38.1094</ele>
        <time>2014-06-04T14:00:18Z</time>
      </trkpt>
      <trkpt lat="59.9087507" lon="17.7106524">
        <ele>37.1481</ele>
        <time>2014-06-04T14:00:19Z</time>
      </trkpt>
      <trkpt lat="59.9087322" lon="17.7106866">
        <ele>37.1481</ele>
        <time>2014-06-04T14:00:20Z</time>
      </trkpt>
      <trkpt lat="59.9087131" lon="17.7107126">
        <ele>36.6675</ele>
        <time>2014-06-04T14:00:21Z</time>
      </trkpt>
      <trkpt lat="59.9086887" lon="17.7107467">
        <ele>37.1481</ele>
        <time>2014-06-04T14:00:22Z</time>
      </trkpt>
      <trkpt lat="59.9086707" lon="17.7107701">
        <ele>36.6675</ele>
        <time>2014-06-04T14:00:23Z</time>
      </trkpt>
      <trkpt lat="59.9086531" lon="17.7107903">
        <ele>37.1481</ele>
        <time>2014-06-04T14:00:24Z</time>
      </trkpt>
      <trkpt lat="59.9086322" lon="17.7108247">
        <ele>36.6675</ele>
        <time>2014-06-04T14:00:25Z</time>
      </trkpt>
      <trkpt lat="59.9086098" lon="17.710867">
        <ele>36.6675</ele>
        <time>2014-06-04T14:00:26Z</time>
      </trkpt>
      <trkpt lat="59.9085803" lon="17.7109124">
        <ele>36.6675</ele>
        <time>2014-06-04T14:00:27Z</time>
      </trkpt>
      <trkpt lat="59.9085476" lon="17.7109534">
        <ele>36.6675</ele>
        <time>2014-06-04T14:00:28Z</time>
      </trkpt>
      <trkpt lat="59.9085183" lon="17.7109946">
        <ele>36.6675</ele>
        <time>2014-06-04T14:00:29Z</time>
      </trkpt>
      <trkpt lat="59.9084821" lon="17.7110585">
        <ele>37.6287</ele>
        <time>2014-06-04T14:00:30Z</time>
      </trkpt>
      <trkpt lat="59.908453" lon="17.7111151">
        <ele>38.1094</ele>
        <time>2014-06-04T14:00:31Z</time>
      </trkpt>
      <trkpt lat="59.9084283" lon="17.7111663">
        <ele>37.6287</ele>
        <time>2014-06-04T14:00:32Z</time>
      </trkpt>
      <trkpt lat="59.9084075" lon="17.7112158">
        <ele>38.1094</ele>
        <time>2014-06-04T14:00:33Z</time>
      </trkpt>
      <trkpt lat="59.9083872" lon="17.7112678">
        <ele>38.1094</ele>
        <time>2014-06-04T14:00:34Z</time>
      </trkpt>
      <trkpt lat="59.9083727" lon="17.7113212">
        <ele>39.0707</ele>
        <time>2014-06-04T14:00:35Z</time>
      </trkpt>
      <trkpt lat="59.9083645" lon="17.7113755">
        <ele>39.5513</ele>
        <time>2014-06-04T14:00:36Z</time>
      </trkpt>
      <trkpt lat="59.9083663" lon="17.7114254">
        <ele>40.0321</ele>
        <time>2014-06-04T14:00:37Z</time>
      </trkpt>
      <trkpt lat="59.9083698" lon="17.7114792">
        <ele>40.9934</ele>
        <time>2014-06-04T14:00:38Z</time>
      </trkpt>
      <trkpt lat="59.9083758" lon="17.7115298">
        <ele>41.9547</ele>
        <time>2014-06-04T14:00:39Z</time>
      </trkpt>
      <trkpt lat="59.9083827" lon="17.7115833">
        <ele>43.3966</ele>
        <time>2014-06-04T14:00:40Z</time>
      </trkpt>
      <trkpt lat="59.9083867" lon="17.7116252">
        <ele>44.358</ele>
        <time>2014-06-04T14:00:41Z</time>
      </trkpt>
      <trkpt lat="59.9083891" lon="17.7116751">
        <ele>44.358</ele>
        <time>2014-06-04T14:00:42Z</time>
      </trkpt>
      <trkpt lat="59.9083961" lon="17.7117294">
        <ele>44.8386</ele>
        <time>2014-06-04T14:00:43Z</time>
      </trkpt>
      <trkpt lat="59.9084014" lon="17.7117911">
        <ele>45.3192</ele>
        <time>2014-06-04T14:00:44Z</time>
      </trkpt>
      <trkpt lat="59.9084029" lon="17.7118485">
        <ele>45.3192</ele>
        <time>2014-06-04T14:00:45Z</time>
      </trkpt>
      <trkpt lat="59.9084104" lon="17.7119034">
        <ele>45.3192</ele>
        <time>2014-06-04T14:00:46Z</time>
      </trkpt>
      <trkpt lat="59.9084132" lon="17.7119598">
        <ele>45.3192</ele>
        <time>2014-06-04T14:00:47Z</time>
      </trkpt>
      <trkpt lat="59.9084137" lon="17.7120137">
        <ele>45.3192</ele>
        <time>2014-06-04T14:00:48Z</time>
      </trkpt>
      <trkpt lat="59.9084228" lon="17.7120609">
        <ele>46.2806</ele>
        <time>2014-06-04T14:00:49Z</time>
      </trkpt>
      <trkpt lat="59.9084328" lon="17.7121101">
        <ele>47.7225</ele>
        <time>2014-06-04T14:00:50Z</time>
      </trkpt>
      <trkpt lat="59.9084406" lon="17.7121573">
        <ele>48.684</ele>
        <time>2014-06-04T14:00:51Z</time>
      </trkpt>
      <trkpt lat="59.9084634" lon="17.7122006">
        <ele>50.126</ele>
        <time>2014-06-04T14:00:52Z</time>
      </trkpt>
      <trkpt lat="59.9084841" lon="17.71225">
        <ele>51.0872</ele>
        <time>2014-06-04T14:00:53Z</time>
      </trkpt>
      <trkpt lat="59.9085018" lon="17.7122988">
        <ele>50.6066</ele>
        <time>2014-06-04T14:00:54Z</time>
      </trkpt>
      <trkpt lat="59.908521" lon="17.7123401">
        <ele>51.0872</ele>
        <time>2014-06-04T14:00:55Z</time>
      </trkpt>
      <trkpt lat="59.9085451" lon="17.7123758">
        <ele>51.5679</ele>
        <time>2014-06-04T14:00:56Z</time>
      </trkpt>
      <trkpt lat="59.9085682" lon="17.7124085">
        <ele>51.5679</ele>
        <time>2014-06-04T14:00:57Z</time>
      </trkpt>
      <trkpt lat="59.9085872" lon="17.712442">
        <ele>50.6066</ele>
        <time>2014-06-04T14:00:58Z</time>
      </trkpt>
      <trkpt lat="59.9086072" lon="17.7124753">
        <ele>49.6453</ele>
        <time>2014-06-04T14:00:59Z</time>
      </trkpt>
      <trkpt lat="59.9086271" lon="17.7125007">
        <ele>49.6453</ele>
        <time>2014-06-04T14:01:00Z</time>
      </trkpt>
      <trkpt lat="59.9086472" lon="17.7125228">
        <ele>49.1646</ele>
        <time>2014-06-04T14:01:01Z</time>
      </trkpt>
      <trkpt lat="59.9086775" lon="17.7125775">
        <ele>48.684</ele>
        <time>2014-06-04T14:01:03Z</time>
      </trkpt>
      <trkpt lat="59.9086913" lon="17.7126118">
        <ele>48.2034</ele>
        <time>2014-06-04T14:01:04Z</time>
      </trkpt>
      <trkpt lat="59.9087062" lon="17.7126467">
        <ele>48.2034</ele>
        <time>2014-06-04T14:01:05Z</time>
      </trkpt>
      <trkpt lat="59.9087157" lon="17.7126789">
        <ele>47.7225</ele>
        <time>2014-06-04T14:01:06Z</time>
      </trkpt>
      <trkpt lat="59.9087267" lon="17.7127167">
        <ele>46.7612</ele>
        <time>2014-06-04T14:01:07Z</time>
      </trkpt>
      <trkpt lat="59.9087429" lon="17.7127607">
        <ele>46.2806</ele>
        <time>2014-06-04T14:01:08Z</time>
      </trkpt>
      <trkpt lat="59.9087592" lon="17.7128088">
        <ele>45.3192</ele>
        <time>2014-06-04T14:01:09Z</time>
      </trkpt>
      <trkpt lat="59.9087752" lon="17.7128576">
        <ele>44.8386</ele>
        <time>2014-06-04T14:01:10Z</time>
      </trkpt>
      <trkpt lat="59.9087875" lon="17.7129077">
        <ele>43.8773</ele>
        <time>2014-06-04T14:01:11Z</time>
      </trkpt>
      <trkpt lat="59.9088048" lon="17.7129515">
        <ele>44.358</ele>
        <time>2014-06-04T14:01:12Z</time>
      </trkpt>
      <trkpt lat="59.9088234" lon="17.712991">
        <ele>44.358</ele>
        <time>2014-06-04T14:01:13Z</time>
      </trkpt>
      <trkpt lat="59.9088487" lon="17.7130294">
        <ele>44.8386</ele>
        <time>2014-06-04T14:01:14Z</time>
      </trkpt>
      <trkpt lat="59.9088675" lon="17.7130692">
        <ele>44.358</ele>
        <time>2014-06-04T14:01:15Z</time>
      </trkpt>
      <trkpt lat="59.9088892" lon="17.7131019">
        <ele>45.7999</ele>
        <time>2014-06-04T14:01:16Z</time>
      </trkpt>
      <trkpt lat="59.908913" lon="17.7131356">
        <ele>46.7612</ele>
        <time>2014-06-04T14:01:17Z</time>
      </trkpt>
      <trkpt lat="59.9089414" lon="17.7131724">
        <ele>47.7225</ele>
        <time>2014-06-04T14:01:18Z</time>
      </trkpt>
      <trkpt lat="59.9089732" lon="17.713214">
        <ele>49.6453</ele>
        <time>2014-06-04T14:01:19Z</time>
      </trkpt>
      <trkpt lat="59.9089993" lon="17.7132596">
        <ele>51.5679</ele>
        <time>2014-06-04T14:01:20Z</time>
      </trkpt>
      <trkpt lat="59.9090269" lon="17.7132989">
        <ele>53.4905</ele>
        <time>2014-06-04T14:01:21Z</time>
      </trkpt>
      <trkpt lat="59.909043" lon="17.7133383">
        <ele>54.4518</ele>
        <time>2014-06-04T14:01:22Z</time>
      </trkpt>
      <trkpt lat="59.9090533" lon="17.7133834">
        <ele>54.4518</ele>
        <time>2014-06-04T14:01:23Z</time>
      </trkpt>
      <trkpt lat="59.9090736" lon="17.7134274">
        <ele>54.9324</ele>
        <time>2014-06-04T14:01:24Z</time>
      </trkpt>
      <trkpt lat="59.909091" lon="17.7134652">
        <ele>55.4131</ele>
        <time>2014-06-04T14:01:25Z</time>
      </trkpt>
      <trkpt lat="59.9091069" lon="17.7134985">
        <ele>56.3745</ele>
        <time>2014-06-04T14:01:26Z</time>
      </trkpt>
      <trkpt lat="59.909128" lon="17.7135202">
        <ele>57.3358</ele>
        <time>2014-06-04T14:01:27Z</time>
      </trkpt>
      <trkpt lat="59.9091425" lon="17.7135542">
        <ele>58.2971</ele>
        <time>2014-06-04T14:01:28Z</time>
      </trkpt>
      <trkpt lat="59.9091612" lon="17.7135838">
        <ele>59.7391</ele>
        <time>2014-06-04T14:01:29Z</time>
      </trkpt>
      <trkpt lat="59.909177" lon="17.7136132">
        <ele>60.2197</ele>
        <time>2014-06-04T14:01:30Z</time>
      </trkpt>
      <trkpt lat="59.9091916" lon="17.7136419">
        <ele>60.7003</ele>
        <time>2014-06-04T14:01:31Z</time>
      </trkpt>
      <trkpt lat="59.9092024" lon="17.7136679">
        <ele>60.7003</ele>
        <time>2014-06-04T14:01:32Z</time>
      </trkpt>
      <trkpt lat="59.9092205" lon="17.7136979">
        <ele>61.181</ele>
        <time>2014-06-04T14:01:33Z</time>
      </trkpt>
      <trkpt lat="59.9092519" lon="17.71373">
        <ele>63.5844</ele>
        <time>2014-06-04T14:01:34Z</time>
      </trkpt>
      <trkpt lat="59.9092731" lon="17.7137729">
        <ele>63.1036</ele>
        <time>2014-06-04T14:01:35Z</time>
      </trkpt>
      <trkpt lat="59.909297" lon="17.7137926">
        <ele>63.5844</ele>
        <time>2014-06-04T14:01:36Z</time>
      </trkpt>
      <trkpt lat="59.9093135" lon="17.7138143">
        <ele>63.5844</ele>
        <time>2014-06-04T14:01:37Z</time>
      </trkpt>
      <trkpt lat="59.9093276" lon="17.7138314">
        <ele>63.1036</ele>
        <time>2014-06-04T14:01:38Z</time>
      </trkpt>
      <trkpt lat="59.9093378" lon="17.7138521">
        <ele>63.1036</ele>
        <time>2014-06-04T14:01:39Z</time>
      </trkpt>
      <trkpt lat="59.909346" lon="17.7138785">
        <ele>62.1423</ele>
        <time>2014-06-04T14:01:40Z</time>
      </trkpt>
      <trkpt lat="59.9093578" lon="17.7138847">
        <ele>63.1036</ele>
        <time>2014-06-04T14:01:41Z</time>
      </trkpt>
      <trkpt lat="59.9093693" lon="17.7138857">
        <ele>62.1423</ele>
        <time>2014-06-04T14:01:42Z</time>
      </trkpt>
      <trkpt lat="59.9093897" lon="17.7138889">
        <ele>61.181</ele>
        <time>2014-06-04T14:01:43Z</time>
      </trkpt>
      <trkpt lat="59.9094117" lon="17.7138896">
        <ele>60.7003</ele>
        <time>2014-06-04T14:01:44Z</time>
      </trkpt>
      <trkpt lat="59.9094326" lon="17.713892">
        <ele>60.2197</ele>
        <time>2014-06-04T14:01:45Z</time>
      </trkpt>
      <trkpt lat="59.9094497" lon="17.7138975">
        <ele>59.2584</ele>
        <time>2014-06-04T14:01:46Z</time>
      </trkpt>
      <trkpt lat="59.9094746" lon="17.7139029">
        <ele>59.7391</ele>
        <time>2014-06-04T14:01:47Z</time>
      </trkpt>
      <trkpt lat="59.9095009" lon="17.713904">
        <ele>59.7391</ele>
        <time>2014-06-04T14:01:48Z</time>
      </trkpt>
      <trkpt lat="59.9095278" lon="17.7139076">
        <ele>60.2197</ele>
        <time>2014-06-04T14:01:49Z</time>
      </trkpt>
      <trkpt lat="59.9095544" lon="17.7139076">
        <ele>60.7003</ele>
        <time>2014-06-04T14:01:50Z</time>
      </trkpt>
      <trkpt lat="59.9095733" lon="17.7139108">
        <ele>60.2197</ele>
        <time>2014-06-04T14:01:51Z</time>
      </trkpt>
      <trkpt lat="59.9095906" lon="17.713916">
        <ele>59.7391</ele>
        <time>2014-06-04T14:01:52Z</time>
      </trkpt>
      <trkpt lat="59.909619" lon="17.7139123">
        <ele>60.2197</ele>
        <time>2014-06-04T14:01:53Z</time>
      </trkpt>
      <trkpt lat="59.9096435" lon="17.7139059">
        <ele>61.181</ele>
        <time>2014-06-04T14:01:54Z</time>
      </trkpt>
      <trkpt lat="59.9096713" lon="17.7139045">
        <ele>61.6617</ele>
        <time>2014-06-04T14:01:55Z</time>
      </trkpt>
      <trkpt lat="59.9096967" lon="17.713908">
        <ele>61.6617</ele>
        <time>2014-06-04T14:01:56Z</time>
      </trkpt>
      <trkpt lat="59.9097179" lon="17.7139205">
        <ele>61.181</ele>
        <time>2014-06-04T14:01:57Z</time>
      </trkpt>
      <trkpt lat="59.9097408" lon="17.7139214">
        <ele>61.181</ele>
        <time>2014-06-04T14:01:58Z</time>
      </trkpt>
      <trkpt lat="59.909759" lon="17.7139251">
        <ele>60.2197</ele>
        <time>2014-06-04T14:01:59Z</time>
      </trkpt>
      <trkpt lat="59.9097781" lon="17.7139308">
        <ele>60.2197</ele>
        <time>2014-06-04T14:02:00Z</time>
      </trkpt>
      <trkpt lat="59.9098028" lon="17.7139242">
        <ele>61.181</ele>
        <time>2014-06-04T14:02:01Z</time>
      </trkpt>
      <trkpt lat="59.9098266" lon="17.7139224">
        <ele>61.6617</ele>
        <time>2014-06-04T14:02:02Z</time>
      </trkpt>
      <trkpt lat="59.9098445" lon="17.713926">
        <ele>61.6617</ele>
        <time>2014-06-04T14:02:03Z</time>
      </trkpt>
      <trkpt lat="59.9098621" lon="17.7139325">
        <ele>61.181</ele>
        <time>2014-06-04T14:02:04Z</time>
      </trkpt>
      <trkpt lat="59.9098816" lon="17.7139315">
        <ele>61.181</ele>
        <time>2014-06-04T14:02:05Z</time>
      </trkpt>
      <trkpt lat="59.9099004" lon="17.7139352">
        <ele>60.7003</ele>
        <time>2014-06-04T14:02:06Z</time>
      </trkpt>
      <trkpt lat="59.9099238" lon="17.7139354">
        <ele>61.181</ele>
        <time>2014-06-04T14:02:07Z</time>
      </trkpt>
      <trkpt lat="59.9099465" lon="17.7139403">
        <ele>61.181</ele>
        <time>2014-06-04T14:02:08Z</time>
      </trkpt>
      <trkpt lat="59.9099758" lon="17.7139418">
        <ele>62.1423</ele>
        <time>2014-06-04T14:02:09Z</time>
      </trkpt>
      <trkpt lat="59.9100002" lon="17.7139465">
        <ele>62.1423</ele>
        <time>2014-06-04T14:02:10Z</time>
      </trkpt>
      <trkpt lat="59.9100181" lon="17.7139641">
        <ele>61.181</ele>
        <time>2014-06-04T14:02:11Z</time>
      </trkpt>
      <trkpt lat="59.9100403" lon="17.7139745">
        <ele>62.1423</ele>
        <time>2014-06-04T14:02:12Z</time>
      </trkpt>
      <trkpt lat="59.9100551" lon="17.7139848">
        <ele>61.181</ele>
        <time>2014-06-04T14:02:13Z</time>
      </trkpt>
      <trkpt lat="59.9100802" lon="17.7139887">
        <ele>61.6617</ele>
        <time>2014-06-04T14:02:14Z</time>
      </trkpt>
      <trkpt lat="59.9101041" lon="17.7139868">
        <ele>61.6617</ele>
        <time>2014-06-04T14:02:15Z</time>
      </trkpt>
      <trkpt lat="59.9101331" lon="17.7139796">
        <ele>62.1423</ele>
        <time>2014-06-04T14:02:16Z</time>
      </trkpt>
      <trkpt lat="59.9101626" lon="17.7139766">
        <ele>62.1423</ele>
        <time>2014-06-04T14:02:17Z</time>
      </trkpt>
      <trkpt lat="59.9101923" lon="17.7139672">
        <ele>62.6229</ele>
        <time>2014-06-04T14:02:18Z</time>
      </trkpt>
      <trkpt lat="59.9102229" lon="17.7139652">
        <ele>63.5844</ele>
        <time>2014-06-04T14:02:19Z</time>
      </trkpt>
      <trkpt lat="59.9102558" lon="17.7139599">
        <ele>63.5844</ele>
        <time>2014-06-04T14:02:20Z</time>
      </trkpt>
      <trkpt lat="59.9102845" lon="17.7139506">
        <ele>63.5844</ele>
        <time>2014-06-04T14:02:21Z</time>
      </trkpt>
      <trkpt lat="59.9103112" lon="17.71395">
        <ele>63.5844</ele>
        <time>2014-06-04T14:02:22Z</time>
      </trkpt>
      <trkpt lat="59.9103354" lon="17.7139603">
        <ele>64.0651</ele>
        <time>2014-06-04T14:02:23Z</time>
      </trkpt>
      <trkpt lat="59.9103655" lon="17.7139753">
        <ele>65.9877</ele>
        <time>2014-06-04T14:02:24Z</time>
      </trkpt>
      <trkpt lat="59.9103866" lon="17.7140216">
        <ele>65.9877</ele>
        <time>2014-06-04T14:02:25Z</time>
      </trkpt>
      <trkpt lat="59.9104013" lon="17.7140723">
        <ele>65.0264</ele>
        <time>2014-06-04T14:02:26Z</time>
      </trkpt>
      <trkpt lat="59.9104174" lon="17.7141151">
        <ele>64.5457</ele>
        <time>2014-06-04T14:02:27Z</time>
      </trkpt>
      <trkpt lat="59.9104391" lon="17.7141598">
        <ele>65.5071</ele>
        <time>2014-06-04T14:02:28Z</time>
      </trkpt>
      <trkpt lat="59.9104608" lon="17.7142039">
        <ele>65.9877</ele>
        <time>2014-06-04T14:02:29Z</time>
      </trkpt>
      <trkpt lat="59.9104851" lon="17.7142427">
        <ele>66.949</ele>
        <time>2014-06-04T14:02:30Z</time>
      </trkpt>
      <trkpt lat="59.9104985" lon="17.7142897">
        <ele>67.9103</ele>
        <time>2014-06-04T14:02:31Z</time>
      </trkpt>
      <trkpt lat="59.9105031" lon="17.7143474">
        <ele>67.9103</ele>
        <time>2014-06-04T14:02:32Z</time>
      </trkpt>
      <trkpt lat="59.9105023" lon="17.7144049">
        <ele>66.949</ele>
        <time>2014-06-04T14:02:33Z</time>
      </trkpt>
      <trkpt lat="59.9105023" lon="17.7144658">
        <ele>67.4297</ele>
        <time>2014-06-04T14:02:34Z</time>
      </trkpt>
      <trkpt lat="59.910496" lon="17.71452">
        <ele>65.9877</ele>
        <time>2014-06-04T14:02:35Z</time>
      </trkpt>
      <trkpt lat="59.9104935" lon="17.7145612">
        <ele>65.0264</ele>
        <time>2014-06-04T14:02:36Z</time>
      </trkpt>
      <trkpt lat="59.9104879" lon="17.7146059">
        <ele>63.1036</ele>
        <time>2014-06-04T14:02:37Z</time>
      </trkpt>
      <trkpt lat="59.9104858" lon="17.714652">
        <ele>62.6229</ele>
        <time>2014-06-04T14:02:38Z</time>
      </trkpt>
      <trkpt lat="59.9104843" lon="17.7146867">
        <ele>61.6617</ele>
        <time>2014-06-04T14:02:39Z</time>
      </trkpt>
      <trkpt lat="59.9104815" lon="17.7147275">
        <ele>61.181</ele>
        <time>2014-06-04T14:02:40Z</time>
      </trkpt>
      <trkpt lat="59.9104847" lon="17.714766">
        <ele>61.181</ele>
        <time>2014-06-04T14:02:41Z</time>
      </trkpt>
      <trkpt lat="59.9104805" lon="17.7148115">
        <ele>60.7003</ele>
        <time>2014-06-04T14:02:42Z</time>
      </trkpt>
      <trkpt lat="59.9104743" lon="17.7148632">
        <ele>59.2584</ele>
        <time>2014-06-04T14:02:43Z</time>
      </trkpt>
      <trkpt lat="59.9104623" lon="17.7149208">
        <ele>57.8165</ele>
        <time>2014-06-04T14:02:44Z</time>
      </trkpt>
      <trkpt lat="59.9104591" lon="17.7149753">
        <ele>56.3745</ele>
        <time>2014-06-04T14:02:45Z</time>
      </trkpt>
      <trkpt lat="59.9104519" lon="17.7150373">
        <ele>55.4131</ele>
        <time>2014-06-04T14:02:46Z</time>
      </trkpt>
      <trkpt lat="59.9104406" lon="17.7150991">
        <ele>55.4131</ele>
        <time>2014-06-04T14:02:47Z</time>
      </trkpt>
      <trkpt lat="59.9104299" lon="17.7151661">
        <ele>54.9324</ele>
        <time>2014-06-04T14:02:48Z</time>
      </trkpt>
      <trkpt lat="59.9104254" lon="17.7152182">
        <ele>54.4518</ele>
        <time>2014-06-04T14:02:49Z</time>
      </trkpt>
      <trkpt lat="59.9104192" lon="17.7152732">
        <ele>53.9712</ele>
        <time>2014-06-04T14:02:50Z</time>
      </trkpt>
      <trkpt lat="59.9104198" lon="17.7153279">
        <ele>53.4905</ele>
        <time>2014-06-04T14:02:51Z</time>
      </trkpt>
      <trkpt lat="59.9104301" lon="17.715383">
        <ele>54.4518</ele>
        <time>2014-06-04T14:02:52Z</time>
      </trkpt>
      <trkpt lat="59.9104345" lon="17.7154495">
        <ele>53.9712</ele>
        <time>2014-06-04T14:02:53Z</time>
      </trkpt>
      <trkpt lat="59.910439" lon="17.7155101">
        <ele>53.4905</ele>
        <time>2014-06-04T14:02:54Z</time>
      </trkpt>
      <trkpt lat="59.9104503" lon="17.7155653">
        <ele>54.4518</ele>
        <time>2014-06-04T14:02:55Z</time>
      </trkpt>
      <trkpt lat="59.9104577" lon="17.7156191">
        <ele>54.9324</ele>
        <time>2014-06-04T14:02:56Z</time>
      </trkpt>
      <trkpt lat="59.9104664" lon="17.7156648">
        <ele>54.9324</ele>
        <time>2014-06-04T14:02:57Z</time>
      </trkpt>
      <trkpt lat="59.9104738" lon="17.715714">
        <ele>54.4518</ele>
        <time>2014-06-04T14:02:58Z</time>
      </trkpt>
      <trkpt lat="59.9104804" lon="17.7157644">
        <ele>53.9712</ele>
        <time>2014-06-04T14:02:59Z</time>
      </trkpt>
      <trkpt lat="59.9104867" lon="17.715815">
        <ele>53.9712</ele>
        <time>2014-06-04T14:03:00Z</time>
      </trkpt>
      <trkpt lat="59.9104923" lon="17.7158655">
        <ele>53.4905</ele>
        <time>2014-06-04T14:03:01Z</time>
      </trkpt>
      <trkpt lat="59.9104959" lon="17.715917">
        <ele>53.0098</ele>
        <time>2014-06-04T14:03:02Z</time>
      </trkpt>
      <trkpt lat="59.9105002" lon="17.7159651">
        <ele>51.5679</ele>
        <time>2014-06-04T14:03:03Z</time>
      </trkpt>
      <trkpt lat="59.9105068" lon="17.7160134">
        <ele>51.5679</ele>
        <time>2014-06-04T14:03:04Z</time>
      </trkpt>
      <trkpt lat="59.9105132" lon="17.7160631">
        <ele>51.0872</ele>
        <time>2014-06-04T14:03:05Z</time>
      </trkpt>
      <trkpt lat="59.9105189" lon="17.7161097">
        <ele>50.126</ele>
        <time>2014-06-04T14:03:06Z</time>
      </trkpt>
      <trkpt lat="59.9105313" lon="17.7161552">
        <ele>49.6453</ele>
        <time>2014-06-04T14:03:07Z</time>
      </trkpt>
      <trkpt lat="59.9105417" lon="17.7161986">
        <ele>48.684</ele>
        <time>2014-06-04T14:03:08Z</time>
      </trkpt>
      <trkpt lat="59.9105525" lon="17.7162391">
        <ele>47.2418</ele>
        <time>2014-06-04T14:03:09Z</time>
      </trkpt>
      <trkpt lat="59.9105677" lon="17.716279">
        <ele>46.7612</ele>
        <time>2014-06-04T14:03:10Z</time>
      </trkpt>
      <trkpt lat="59.9105841" lon="17.716321">
        <ele>46.2806</ele>
        <time>2014-06-04T14:03:11Z</time>
      </trkpt>
      <trkpt lat="59.9106033" lon="17.7163586">
        <ele>45.3192</ele>
        <time>2014-06-04T14:03:12Z</time>
      </trkpt>
      <trkpt lat="59.9106432" lon="17.7163791">
        <ele>48.684</ele>
        <time>2014-06-04T14:03:13Z</time>
      </trkpt>
      <trkpt lat="59.9106606" lon="17.7164034">
        <ele>49.1646</ele>
        <time>2014-06-04T14:03:14Z</time>
      </trkpt>
      <trkpt lat="59.9106758" lon="17.7164266">
        <ele>48.684</ele>
        <time>2014-06-04T14:03:15Z</time>
      </trkpt>
      <trkpt lat="59.9106935" lon="17.7164489">
        <ele>47.2418</ele>
        <time>2014-06-04T14:03:16Z</time>
      </trkpt>
      <trkpt lat="59.910714" lon="17.7164728">
        <ele>47.2418</ele>
        <time>2014-06-04T14:03:17Z</time>
      </trkpt>
      <trkpt lat="59.9107321" lon="17.7164874">
        <ele>47.2418</ele>
        <time>2014-06-04T14:03:18Z</time>
      </trkpt>
      <trkpt lat="59.9107504" lon="17.7164976">
        <ele>46.7612</ele>
        <time>2014-06-04T14:03:19Z</time>
      </trkpt>
      <trkpt lat="59.9107736" lon="17.7165093">
        <ele>46.2806</ele>
        <time>2014-06-04T14:03:20Z</time>
      </trkpt>
      <trkpt lat="59.9107971" lon="17.7165198">
        <ele>45.7999</ele>
        <time>2014-06-04T14:03:21Z</time>
      </trkpt>
      <trkpt lat="59.9108218" lon="17.7165251">
        <ele>45.3192</ele>
        <time>2014-06-04T14:03:22Z</time>
      </trkpt>
      <trkpt lat="59.9108491" lon="17.7165288">
        <ele>44.8386</ele>
        <time>2014-06-04T14:03:23Z</time>
      </trkpt>
      <trkpt lat="59.9108777" lon="17.7165399">
        <ele>44.8386</ele>
        <time>2014-06-04T14:03:24Z</time>
      </trkpt>
      <trkpt lat="59.9109057" lon="17.7165474">
        <ele>44.8386</ele>
        <time>2014-06-04T14:03:25Z</time>
      </trkpt>
      <trkpt lat="59.9109308" lon="17.7165496">
        <ele>44.358</ele>
        <time>2014-06-04T14:03:26Z</time>
      </trkpt>
      <trkpt lat="59.9109544" lon="17.7165427">
        <ele>44.358</ele>
        <time>2014-06-04T14:03:27Z</time>
      </trkpt>
      <trkpt lat="59.9109805" lon="17.716535">
        <ele>44.358</ele>
        <time>2014-06-04T14:03:28Z</time>
      </trkpt>
      <trkpt lat="59.9110103" lon="17.716523">
        <ele>44.358</ele>
        <time>2014-06-04T14:03:29Z</time>
      </trkpt>
      <trkpt lat="59.9110405" lon="17.7165032">
        <ele>44.8386</ele>
        <time>2014-06-04T14:03:30Z</time>
      </trkpt>
      <trkpt lat="59.9110701" lon="17.7164869">
        <ele>44.358</ele>
        <time>2014-06-04T14:03:31Z</time>
      </trkpt>
      <trkpt lat="59.9110996" lon="17.7164696">
        <ele>44.358</ele>
        <time>2014-06-04T14:03:32Z</time>
      </trkpt>
      <trkpt lat="59.911129" lon="17.7164597">
        <ele>44.358</ele>
        <time>2014-06-04T14:03:33Z</time>
      </trkpt>
      <trkpt lat="59.9111575" lon="17.7164548">
        <ele>44.358</ele>
        <time>2014-06-04T14:03:34Z</time>
      </trkpt>
      <trkpt lat="59.9111829" lon="17.7164531">
        <ele>44.358</ele>
        <time>2014-06-04T14:03:35Z</time>
      </trkpt>
      <trkpt lat="59.9112074" lon="17.716451">
        <ele>44.358</ele>
        <time>2014-06-04T14:03:36Z</time>
      </trkpt>
      <trkpt lat="59.9112291" lon="17.7164436">
        <ele>43.8773</ele>
        <time>2014-06-04T14:03:37Z</time>
      </trkpt>
      <trkpt lat="59.9112501" lon="17.7164368">
        <ele>43.8773</ele>
        <time>2014-06-04T14:03:38Z</time>
      </trkpt>
      <trkpt lat="59.9112746" lon="17.7164356">
        <ele>44.358</ele>
        <time>2014-06-04T14:03:39Z</time>
      </trkpt>
      <trkpt lat="59.9112974" lon="17.7164345">
        <ele>44.358</ele>
        <time>2014-06-04T14:03:40Z</time>
      </trkpt>
      <trkpt lat="59.9113182" lon="17.7164349">
        <ele>44.358</ele>
        <time>2014-06-04T14:03:41Z</time>
      </trkpt>
      <trkpt lat="59.9113426" lon="17.716437">
        <ele>43.8773</ele>
        <time>2014-06-04T14:03:42Z</time>
      </trkpt>
      <trkpt lat="59.911369" lon="17.7164391">
        <ele>43.8773</ele>
        <time>2014-06-04T14:03:43Z</time>
      </trkpt>
      <trkpt lat="59.9113948" lon="17.7164531">
        <ele>44.358</ele>
        <time>2014-06-04T14:03:44Z</time>
      </trkpt>
      <trkpt lat="59.9114165" lon="17.7164625">
        <ele>43.8773</ele>
        <time>2014-06-04T14:03:45Z</time>
      </trkpt>
      <trkpt lat="59.9114383" lon="17.716464">
        <ele>43.8773</ele>
        <time>2014-06-04T14:03:46Z</time>
      </trkpt>
      <trkpt lat="59.9114657" lon="17.7164608">
        <ele>43.8773</ele>
        <time>2014-06-04T14:03:47Z</time>
      </trkpt>
      <trkpt lat="59.9114917" lon="17.7164519">
        <ele>43.3966</ele>
        <time>2014-06-04T14:03:48Z</time>
      </trkpt>
      <trkpt lat="59.9115156" lon="17.7164396">
        <ele>42.916</ele>
        <time>2014-06-04T14:03:49Z</time>
      </trkpt>
      <trkpt lat="59.9115397" lon="17.716426">
        <ele>43.3966</ele>
        <time>2014-06-04T14:03:50Z</time>
      </trkpt>
      <trkpt lat="59.9115595" lon="17.7164133">
        <ele>42.916</ele>
        <time>2014-06-04T14:03:51Z</time>
      </trkpt>
      <trkpt lat="59.9115786" lon="17.716395">
        <ele>42.4354</ele>
        <time>2014-06-04T14:03:52Z</time>
      </trkpt>
      <trkpt lat="59.9116056" lon="17.7163724">
        <ele>42.4354</ele>
        <time>2014-06-04T14:03:53Z</time>
      </trkpt>
      <trkpt lat="59.9116331" lon="17.7163473">
        <ele>42.4354</ele>
        <time>2014-06-04T14:03:54Z</time>
      </trkpt>
      <trkpt lat="59.9116548" lon="17.7163211">
        <ele>42.916</ele>
        <time>2014-06-04T14:03:55Z</time>
      </trkpt>
      <trkpt lat="59.9116761" lon="17.7162972">
        <ele>42.4354</ele>
        <time>2014-06-04T14:03:56Z</time>
      </trkpt>
      <trkpt lat="59.9116972" lon="17.7162726">
        <ele>42.916</ele>
        <time>2014-06-04T14:03:57Z</time>
      </trkpt>
      <trkpt lat="59.9117177" lon="17.7162529">
        <ele>42.916</ele>
        <time>2014-06-04T14:03:58Z</time>
      </trkpt>
      <trkpt lat="59.9117396" lon="17.7162288">
        <ele>42.4354</ele>
        <time>2014-06-04T14:03:59Z</time>
      </trkpt>
      <trkpt lat="59.9117752" lon="17.7161599">
        <ele>42.916</ele>
        <time>2014-06-04T14:04:01Z</time>
      </trkpt>
      <trkpt lat="59.911792" lon="17.7161182">
        <ele>42.916</ele>
        <time>2014-06-04T14:04:02Z</time>
      </trkpt>
      <trkpt lat="59.9118065" lon="17.7160692">
        <ele>42.916</ele>
        <time>2014-06-04T14:04:03Z</time>
      </trkpt>
      <trkpt lat="59.9118165" lon="17.7160226">
        <ele>42.916</ele>
        <time>2014-06-04T14:04:04Z</time>
      </trkpt>
      <trkpt lat="59.9118285" lon="17.7159696">
        <ele>43.3966</ele>
        <time>2014-06-04T14:04:05Z</time>
      </trkpt>
      <trkpt lat="59.9118419" lon="17.7159137">
        <ele>43.3966</ele>
        <time>2014-06-04T14:04:06Z</time>
      </trkpt>
      <trkpt lat="59.911856" lon="17.7158686">
        <ele>43.8773</ele>
        <time>2014-06-04T14:04:07Z</time>
      </trkpt>
      <trkpt lat="59.9118668" lon="17.7158246">
        <ele>43.8773</ele>
        <time>2014-06-04T14:04:08Z</time>
      </trkpt>
      <trkpt lat="59.9118765" lon="17.7157729">
        <ele>43.8773</ele>
        <time>2014-06-04T14:04:09Z</time>
      </trkpt>
      <trkpt lat="59.9118901" lon="17.7157268">
        <ele>44.358</ele>
        <time>2014-06-04T14:04:10Z</time>
      </trkpt>
      <trkpt lat="59.9119072" lon="17.7156828">
        <ele>44.358</ele>
        <time>2014-06-04T14:04:11Z</time>
      </trkpt>
      <trkpt lat="59.9119276" lon="17.7156459">
        <ele>44.8386</ele>
        <time>2014-06-04T14:04:12Z</time>
      </trkpt>
      <trkpt lat="59.9119504" lon="17.7156201">
        <ele>44.358</ele>
        <time>2014-06-04T14:04:13Z</time>
      </trkpt>
      <trkpt lat="59.9119745" lon="17.7155906">
        <ele>44.358</ele>
        <time>2014-06-04T14:04:14Z</time>
      </trkpt>
      <trkpt lat="59.9119968" lon="17.7155594">
        <ele>44.8386</ele>
        <time>2014-06-04T14:04:15Z</time>
      </trkpt>
      <trkpt lat="59.9120152" lon="17.7155268">
        <ele>44.8386</ele>
        <time>2014-06-04T14:04:16Z</time>
      </trkpt>
      <trkpt lat="59.912038" lon="17.7155001">
        <ele>44.8386</ele>
        <time>2014-06-04T14:04:17Z</time>
      </trkpt>
      <trkpt lat="59.9120589" lon="17.7154736">
        <ele>45.3192</ele>
        <time>2014-06-04T14:04:18Z</time>
      </trkpt>
      <trkpt lat="59.912079" lon="17.7154409">
        <ele>45.3192</ele>
        <time>2014-06-04T14:04:19Z</time>
      </trkpt>
      <trkpt lat="59.9121048" lon="17.7154075">
        <ele>45.3192</ele>
        <time>2014-06-04T14:04:20Z</time>
      </trkpt>
      <trkpt lat="59.9121288" lon="17.7153787">
        <ele>44.8386</ele>
        <time>2014-06-04T14:04:21Z</time>
      </trkpt>
      <trkpt lat="59.9121505" lon="17.7153597">
        <ele>44.8386</ele>
        <time>2014-06-04T14:04:22Z</time>
      </trkpt>
      <trkpt lat="59.9121755" lon="17.7153431">
        <ele>44.358</ele>
        <time>2014-06-04T14:04:23Z</time>
      </trkpt>
      <trkpt lat="59.9121993" lon="17.7153265">
        <ele>44.358</ele>
        <time>2014-06-04T14:04:24Z</time>
      </trkpt>
      <trkpt lat="59.9122209" lon="17.7153171">
        <ele>43.8773</ele>
        <time>2014-06-04T14:04:25Z</time>
      </trkpt>
      <trkpt lat="59.9122449" lon="17.7153098">
        <ele>43.8773</ele>
        <time>2014-06-04T14:04:26Z</time>
      </trkpt>
      <trkpt lat="59.9122691" lon="17.7153034">
        <ele>43.8773</ele>
        <time>2014-06-04T14:04:27Z</time>
      </trkpt>
      <trkpt lat="59.9122911" lon="17.7153017">
        <ele>43.8773</ele>
        <time>2014-06-04T14:04:28Z</time>
      </trkpt>
      <trkpt lat="59.9123191" lon="17.7153034">
        <ele>43.8773</ele>
        <time>2014-06-04T14:04:29Z</time>
      </trkpt>
      <trkpt lat="59.912345" lon="17.7153087">
        <ele>43.8773</ele>
        <time>2014-06-04T14:04:30Z</time>
      </trkpt>
      <trkpt lat="59.9123639" lon="17.7153281">
        <ele>42.916</ele>
        <time>2014-06-04T14:04:31Z</time>
      </trkpt>
      <trkpt lat="59.9123871" lon="17.7153533">
        <ele>42.916</ele>
        <time>2014-06-04T14:04:32Z</time>
      </trkpt>
      <trkpt lat="59.9124169" lon="17.7153674">
        <ele>42.4354</ele>
        <time>2014-06-04T14:04:33Z</time>
      </trkpt>
      <trkpt lat="59.9124433" lon="17.7153741">
        <ele>42.4354</ele>
        <time>2014-06-04T14:04:34Z</time>
      </trkpt>
      <trkpt lat="59.9124688" lon="17.7153787">
        <ele>42.4354</ele>
        <time>2014-06-04T14:04:35Z</time>
      </trkpt>
      <trkpt lat="59.9124928" lon="17.7153889">
        <ele>41.9547</ele>
        <time>2014-06-04T14:04:36Z</time>
      </trkpt>
      <trkpt lat="59.9125112" lon="17.7154084">
        <ele>40.9934</ele>
        <time>2014-06-04T14:04:37Z</time>
      </trkpt>
      <trkpt lat="59.9125313" lon="17.7154294">
        <ele>40.9934</ele>
        <time>2014-06-04T14:04:38Z</time>
      </trkpt>
      <trkpt lat="59.9125501" lon="17.7154588">
        <ele>40.5128</ele>
        <time>2014-06-04T14:04:39Z</time>
      </trkpt>
      <trkpt lat="59.9125669" lon="17.7154874">
        <ele>40.0321</ele>
        <time>2014-06-04T14:04:40Z</time>
      </trkpt>
      <trkpt lat="59.9125868" lon="17.7155132">
        <ele>40.0321</ele>
        <time>2014-06-04T14:04:41Z</time>
      </trkpt>
      <trkpt lat="59.9126095" lon="17.7155346">
        <ele>40.0321</ele>
        <time>2014-06-04T14:04:42Z</time>
      </trkpt>
      <trkpt lat="59.9126323" lon="17.7155584">
        <ele>40.5128</ele>
        <time>2014-06-04T14:04:43Z</time>
      </trkpt>
      <trkpt lat="59.9126525" lon="17.715587">
        <ele>40.9934</ele>
        <time>2014-06-04T14:04:44Z</time>
      </trkpt>
      <trkpt lat="59.9126645" lon="17.7156294">
        <ele>40.5128</ele>
        <time>2014-06-04T14:04:45Z</time>
      </trkpt>
      <trkpt lat="59.9126759" lon="17.715673">
        <ele>40.9934</ele>
        <time>2014-06-04T14:04:46Z</time>
      </trkpt>
      <trkpt lat="59.9126888" lon="17.7157091">
        <ele>40.9934</ele>
        <time>2014-06-04T14:04:47Z</time>
      </trkpt>
      <trkpt lat="59.9127048" lon="17.7157544">
        <ele>41.474</ele>
        <time>2014-06-04T14:04:48Z</time>
      </trkpt>
      <trkpt lat="59.9127247" lon="17.7158014">
        <ele>42.4354</ele>
        <time>2014-06-04T14:04:49Z</time>
      </trkpt>
      <trkpt lat="59.9127415" lon="17.7158437">
        <ele>43.3966</ele>
        <time>2014-06-04T14:04:50Z</time>
      </trkpt>
      <trkpt lat="59.9127591" lon="17.7158849">
        <ele>44.358</ele>
        <time>2014-06-04T14:04:51Z</time>
      </trkpt>
      <trkpt lat="59.9127857" lon="17.7159039">
        <ele>46.2806</ele>
        <time>2014-06-04T14:04:52Z</time>
      </trkpt>
      <trkpt lat="59.9128111" lon="17.7159314">
        <ele>47.7225</ele>
        <time>2014-06-04T14:04:53Z</time>
      </trkpt>
      <trkpt lat="59.9128332" lon="17.7159729">
        <ele>48.684</ele>
        <time>2014-06-04T14:04:54Z</time>
      </trkpt>
      <trkpt lat="59.9128586" lon="17.7160095">
        <ele>50.126</ele>
        <time>2014-06-04T14:04:55Z</time>
      </trkpt>
      <trkpt lat="59.9128789" lon="17.7160507">
        <ele>51.0872</ele>
        <time>2014-06-04T14:04:56Z</time>
      </trkpt>
      <trkpt lat="59.9128995" lon="17.7160926">
        <ele>51.5679</ele>
        <time>2014-06-04T14:04:57Z</time>
      </trkpt>
      <trkpt lat="59.9129212" lon="17.7161314">
        <ele>52.0486</ele>
        <time>2014-06-04T14:04:58Z</time>
      </trkpt>
      <trkpt lat="59.9129476" lon="17.7161638">
        <ele>53.9712</ele>
        <time>2014-06-04T14:04:59Z</time>
      </trkpt>
      <trkpt lat="59.912974" lon="17.716192">
        <ele>55.8938</ele>
        <time>2014-06-04T14:05:00Z</time>
      </trkpt>
      <trkpt lat="59.9130007" lon="17.7162217">
        <ele>57.8165</ele>
        <time>2014-06-04T14:05:01Z</time>
      </trkpt>
      <trkpt lat="59.9130217" lon="17.7162583">
        <ele>58.2971</ele>
        <time>2014-06-04T14:05:02Z</time>
      </trkpt>
      <trkpt lat="59.9130359" lon="17.7162931">
        <ele>58.2971</ele>
        <time>2014-06-04T14:05:03Z</time>
      </trkpt>
      <trkpt lat="59.9130495" lon="17.7163236">
        <ele>58.7777</ele>
        <time>2014-06-04T14:05:04Z</time>
      </trkpt>
      <trkpt lat="59.9130628" lon="17.7163572">
        <ele>59.2584</ele>
        <time>2014-06-04T14:05:05Z</time>
      </trkpt>
      <trkpt lat="59.9130761" lon="17.7163966">
        <ele>58.7777</ele>
        <time>2014-06-04T14:05:06Z</time>
      </trkpt>
      <trkpt lat="59.9130876" lon="17.7164395">
        <ele>58.7777</ele>
        <time>2014-06-04T14:05:07Z</time>
      </trkpt>
      <trkpt lat="59.9130975" lon="17.7164852">
        <ele>58.2971</ele>
        <time>2014-06-04T14:05:08Z</time>
      </trkpt>
      <trkpt lat="59.9131131" lon="17.7165343">
        <ele>58.7777</ele>
        <time>2014-06-04T14:05:09Z</time>
      </trkpt>
      <trkpt lat="59.9131302" lon="17.7165758">
        <ele>59.2584</ele>
        <time>2014-06-04T14:05:10Z</time>
      </trkpt>
      <trkpt lat="59.91314" lon="17.7166159">
        <ele>58.7777</ele>
        <time>2014-06-04T14:05:11Z</time>
      </trkpt>
      <trkpt lat="59.9131486" lon="17.7166639">
        <ele>57.8165</ele>
        <time>2014-06-04T14:05:12Z</time>
      </trkpt>
      <trkpt lat="59.9131581" lon="17.7167105">
        <ele>57.3358</ele>
        <time>2014-06-04T14:05:13Z</time>
      </trkpt>
      <trkpt lat="59.9131662" lon="17.7167541">
        <ele>56.3745</ele>
        <time>2014-06-04T14:05:14Z</time>
      </trkpt>
      <trkpt lat="59.9131741" lon="17.7168023">
        <ele>55.8938</ele>
        <time>2014-06-04T14:05:15Z</time>
      </trkpt>
      <trkpt lat="59.9131862" lon="17.7168459">
        <ele>55.8938</ele>
        <time>2014-06-04T14:05:16Z</time>
      </trkpt>
      <trkpt lat="59.9131984" lon="17.716886">
        <ele>55.8938</ele>
        <time>2014-06-04T14:05:17Z</time>
      </trkpt>
      <trkpt lat="59.9132115" lon="17.7169323">
        <ele>55.8938</ele>
        <time>2014-06-04T14:05:18Z</time>
      </trkpt>
      <trkpt lat="59.9132265" lon="17.7169819">
        <ele>55.8938</ele>
        <time>2014-06-04T14:05:19Z</time>
      </trkpt>
      <trkpt lat="59.9132348" lon="17.7170268">
        <ele>55.4131</ele>
        <time>2014-06-04T14:05:20Z</time>
      </trkpt>
      <trkpt lat="59.9132457" lon="17.717069">
        <ele>55.4131</ele>
        <time>2014-06-04T14:05:21Z</time>
      </trkpt>
      <trkpt lat="59.9132556" lon="17.7171092">
        <ele>55.4131</ele>
        <time>2014-06-04T14:05:22Z</time>
      </trkpt>
      <trkpt lat="59.9132655" lon="17.7171504">
        <ele>54.9324</ele>
        <time>2014-06-04T14:05:23Z</time>
      </trkpt>
      <trkpt lat="59.9132758" lon="17.7171926">
        <ele>54.4518</ele>
        <time>2014-06-04T14:05:24Z</time>
      </trkpt>
      <trkpt lat="59.9132846" lon="17.717234">
        <ele>53.9712</ele>
        <time>2014-06-04T14:05:25Z</time>
      </trkpt>
      <trkpt lat="59.9132914" lon="17.7172724">
        <ele>53.0098</ele>
        <time>2014-06-04T14:05:26Z</time>
      </trkpt>
      <trkpt lat="59.9133001" lon="17.7173171">
        <ele>52.0486</ele>
        <time>2014-06-04T14:05:27Z</time>
      </trkpt>
      <trkpt lat="59.9133113" lon="17.7173591">
        <ele>51.0872</ele>
        <time>2014-06-04T14:05:28Z</time>
      </trkpt>
      <trkpt lat="59.9133261" lon="17.7173933">
        <ele>51.5679</ele>
        <time>2014-06-04T14:05:29Z</time>
      </trkpt>
      <trkpt lat="59.9133363" lon="17.7174335">
        <ele>50.6066</ele>
        <time>2014-06-04T14:05:30Z</time>
      </trkpt>
      <trkpt lat="59.9133514" lon="17.7174694">
        <ele>50.126</ele>
        <time>2014-06-04T14:05:31Z</time>
      </trkpt>
      <trkpt lat="59.9133656" lon="17.7174984">
        <ele>50.6066</ele>
        <time>2014-06-04T14:05:32Z</time>
      </trkpt>
      <trkpt lat="59.9133787" lon="17.7175335">
        <ele>50.126</ele>
        <time>2014-06-04T14:05:33Z</time>
      </trkpt>
      <trkpt lat="59.9133936" lon="17.717568">
        <ele>49.6453</ele>
        <time>2014-06-04T14:05:34Z</time>
      </trkpt>
      <trkpt lat="59.9134068" lon="17.7176053">
        <ele>48.2034</ele>
        <time>2014-06-04T14:05:35Z</time>
      </trkpt>
      <trkpt lat="59.9134201" lon="17.7176377">
        <ele>47.7225</ele>
        <time>2014-06-04T14:05:36Z</time>
      </trkpt>
      <trkpt lat="59.9134309" lon="17.7176653">
        <ele>46.7612</ele>
        <time>2014-06-04T14:05:37Z</time>
      </trkpt>
      <trkpt lat="59.9134436" lon="17.717701">
        <ele>46.2806</ele>
        <time>2014-06-04T14:05:38Z</time>
      </trkpt>
      <trkpt lat="59.9134564" lon="17.7177377">
        <ele>45.3192</ele>
        <time>2014-06-04T14:05:39Z</time>
      </trkpt>
      <trkpt lat="59.9134746" lon="17.717765">
        <ele>45.7999</ele>
        <time>2014-06-04T14:05:40Z</time>
      </trkpt>
      <trkpt lat="59.9134903" lon="17.7177961">
        <ele>45.3192</ele>
        <time>2014-06-04T14:05:41Z</time>
      </trkpt>
      <trkpt lat="59.9135074" lon="17.7178282">
        <ele>44.8386</ele>
        <time>2014-06-04T14:05:42Z</time>
      </trkpt>
      <trkpt lat="59.9135221" lon="17.7178569">
        <ele>44.358</ele>
        <time>2014-06-04T14:05:43Z</time>
      </trkpt>
      <trkpt lat="59.9135353" lon="17.7178895">
        <ele>44.358</ele>
        <time>2014-06-04T14:05:44Z</time>
      </trkpt>
      <trkpt lat="59.9135512" lon="17.7179191">
        <ele>43.8773</ele>
        <time>2014-06-04T14:05:45Z</time>
      </trkpt>
      <trkpt lat="59.9135658" lon="17.7179442">
        <ele>42.916</ele>
        <time>2014-06-04T14:05:46Z</time>
      </trkpt>
      <trkpt lat="59.9135848" lon="17.7179719">
        <ele>42.916</ele>
        <time>2014-06-04T14:05:47Z</time>
      </trkpt>
      <trkpt lat="59.9135987" lon="17.7179953">
        <ele>41.9547</ele>
        <time>2014-06-04T14:05:48Z</time>
      </trkpt>
      <trkpt lat="59.9136186" lon="17.7180107">
        <ele>41.474</ele>
        <time>2014-06-04T14:05:49Z</time>
      </trkpt>
      <trkpt lat="59.9136417" lon="17.7180216">
        <ele>41.474</ele>
        <time>2014-06-04T14:05:50Z</time>
      </trkpt>
      <trkpt lat="59.9136642" lon="17.7180257">
        <ele>40.9934</ele>
        <time>2014-06-04T14:05:51Z</time>
      </trkpt>
      <trkpt lat="59.9136861" lon="17.7180215">
        <ele>40.9934</ele>
        <time>2014-06-04T14:05:52Z</time>
      </trkpt>
      <trkpt lat="59.9137124" lon="17.7180113">
        <ele>40.9934</ele>
        <time>2014-06-04T14:05:53Z</time>
      </trkpt>
      <trkpt lat="59.9137365" lon="17.7180034">
        <ele>40.5128</ele>
        <time>2014-06-04T14:05:54Z</time>
      </trkpt>
      <trkpt lat="59.9137637" lon="17.7179911">
        <ele>41.474</ele>
        <time>2014-06-04T14:05:55Z</time>
      </trkpt>
      <trkpt lat="59.9137941" lon="17.7179772">
        <ele>42.4354</ele>
        <time>2014-06-04T14:05:56Z</time>
      </trkpt>
      <trkpt lat="59.9138215" lon="17.7179683">
        <ele>42.916</ele>
        <time>2014-06-04T14:05:57Z</time>
      </trkpt>
      <trkpt lat="59.9138412" lon="17.7179601">
        <ele>43.3966</ele>
        <time>2014-06-04T14:05:58Z</time>
      </trkpt>
      <trkpt lat="59.9138607" lon="17.7179444">
        <ele>43.3966</ele>
        <time>2014-06-04T14:05:59Z</time>
      </trkpt>
      <trkpt lat="59.9138844" lon="17.7179254">
        <ele>43.8773</ele>
        <time>2014-06-04T14:06:00Z</time>
      </trkpt>
      <trkpt lat="59.9139096" lon="17.7179124">
        <ele>43.8773</ele>
        <time>2014-06-04T14:06:01Z</time>
      </trkpt>
      <trkpt lat="59.9139345" lon="17.717903">
        <ele>43.8773</ele>
        <time>2014-06-04T14:06:02Z</time>
      </trkpt>
      <trkpt lat="59.9139624" lon="17.717899">
        <ele>44.358</ele>
        <time>2014-06-04T14:06:03Z</time>
      </trkpt>
      <trkpt lat="59.9139879" lon="17.7179051">
        <ele>44.358</ele>
        <time>2014-06-04T14:06:04Z</time>
      </trkpt>
      <trkpt lat="59.9140106" lon="17.717914">
        <ele>44.358</ele>
        <time>2014-06-04T14:06:05Z</time>
      </trkpt>
      <trkpt lat="59.9140321" lon="17.7179273">
        <ele>44.358</ele>
        <time>2014-06-04T14:06:06Z</time>
      </trkpt>
      <trkpt lat="59.9140497" lon="17.7179531">
        <ele>44.358</ele>
        <time>2014-06-04T14:06:07Z</time>
      </trkpt>
      <trkpt lat="59.914064" lon="17.7179873">
        <ele>44.358</ele>
        <time>2014-06-04T14:06:08Z</time>
      </trkpt>
      <trkpt lat="59.9140802" lon="17.7180216">
        <ele>44.358</ele>
        <time>2014-06-04T14:06:09Z</time>
      </trkpt>
      <trkpt lat="59.9140968" lon="17.7180523">
        <ele>44.8386</ele>
        <time>2014-06-04T14:06:10Z</time>
      </trkpt>
      <trkpt lat="59.9141133" lon="17.7180848">
        <ele>45.3192</ele>
        <time>2014-06-04T14:06:11Z</time>
      </trkpt>
      <trkpt lat="59.9141342" lon="17.7181123">
        <ele>45.3192</ele>
        <time>2014-06-04T14:06:12Z</time>
      </trkpt>
      <trkpt lat="59.9141563" lon="17.7181366">
        <ele>45.7999</ele>
        <time>2014-06-04T14:06:13Z</time>
      </trkpt>
      <trkpt lat="59.9141759" lon="17.7181671">
        <ele>45.7999</ele>
        <time>2014-06-04T14:06:14Z</time>
      </trkpt>
      <trkpt lat="59.9141943" lon="17.7182027">
        <ele>45.7999</ele>
        <time>2014-06-04T14:06:15Z</time>
      </trkpt>
      <trkpt lat="59.9142106" lon="17.7182318">
        <ele>45.3192</ele>
        <time>2014-06-04T14:06:16Z</time>
      </trkpt>
      <trkpt lat="59.9142297" lon="17.7182573">
        <ele>45.3192</ele>
        <time>2014-06-04T14:06:17Z</time>
      </trkpt>
      <trkpt lat="59.9142485" lon="17.7182833">
        <ele>45.3192</ele>
        <time>2014-06-04T14:06:18Z</time>
      </trkpt>
      <trkpt lat="59.9142691" lon="17.7183015">
        <ele>44.8386</ele>
        <time>2014-06-04T14:06:19Z</time>
      </trkpt>
      <trkpt lat="59.9142921" lon="17.7183108">
        <ele>45.3192</ele>
        <time>2014-06-04T14:06:20Z</time>
      </trkpt>
      <trkpt lat="59.9143148" lon="17.7183213">
        <ele>44.8386</ele>
        <time>2014-06-04T14:06:21Z</time>
      </trkpt>
      <trkpt lat="59.9143345" lon="17.7183366">
        <ele>44.8386</ele>
        <time>2014-06-04T14:06:22Z</time>
      </trkpt>
      <trkpt lat="59.9143574" lon="17.7183538">
        <ele>44.8386</ele>
        <time>2014-06-04T14:06:23Z</time>
      </trkpt>
      <trkpt lat="59.9143796" lon="17.7183754">
        <ele>44.8386</ele>
        <time>2014-06-04T14:06:24Z</time>
      </trkpt>
      <trkpt lat="59.9143972" lon="17.7183965">
        <ele>44.358</ele>
        <time>2014-06-04T14:06:25Z</time>
      </trkpt>
      <trkpt lat="59.9144148" lon="17.7184209">
        <ele>44.358</ele>
        <time>2014-06-04T14:06:26Z</time>
      </trkpt>
      <trkpt lat="59.9144312" lon="17.7184517">
        <ele>43.8773</ele>
        <time>2014-06-04T14:06:27Z</time>
      </trkpt>
      <trkpt lat="59.9144483" lon="17.7184809">
        <ele>43.3966</ele>
        <time>2014-06-04T14:06:28Z</time>
      </trkpt>
      <trkpt lat="59.9144654" lon="17.718507">
        <ele>42.916</ele>
        <time>2014-06-04T14:06:29Z</time>
      </trkpt>
      <trkpt lat="59.9144806" lon="17.7185344">
        <ele>42.4354</ele>
        <time>2014-06-04T14:06:30Z</time>
      </trkpt>
      <trkpt lat="59.9144975" lon="17.7185648">
        <ele>41.9547</ele>
        <time>2014-06-04T14:06:31Z</time>
      </trkpt>
      <trkpt lat="59.9145161" lon="17.7185946">
        <ele>41.9547</ele>
        <time>2014-06-04T14:06:32Z</time>
      </trkpt>
      <trkpt lat="59.9145333" lon="17.7186281">
        <ele>41.474</ele>
        <time>2014-06-04T14:06:33Z</time>
      </trkpt>
      <trkpt lat="59.9145485" lon="17.7186587">
        <ele>41.474</ele>
        <time>2014-06-04T14:06:34Z</time>
      </trkpt>
      <trkpt lat="59.9145635" lon="17.7186848">
        <ele>41.474</ele>
        <time>2014-06-04T14:06:35Z</time>
      </trkpt>
      <trkpt lat="59.9145795" lon="17.7187179">
        <ele>41.474</ele>
        <time>2014-06-04T14:06:36Z</time>
      </trkpt>
      <trkpt lat="59.9145903" lon="17.7187547">
        <ele>41.474</ele>
        <time>2014-06-04T14:06:37Z</time>
      </trkpt>
      <trkpt lat="59.9146063" lon="17.7187842">
        <ele>42.916</ele>
        <time>2014-06-04T14:06:38Z</time>
      </trkpt>
      <trkpt lat="59.91462" lon="17.7188189">
        <ele>42.916</ele>
        <time>2014-06-04T14:06:39Z</time>
      </trkpt>
      <trkpt lat="59.9146368" lon="17.7188571">
        <ele>43.3966</ele>
        <time>2014-06-04T14:06:40Z</time>
      </trkpt>
      <trkpt lat="59.914651" lon="17.7188913">
        <ele>42.916</ele>
        <time>2014-06-04T14:06:41Z</time>
      </trkpt>
      <trkpt lat="59.9146671" lon="17.7189233">
        <ele>43.3966</ele>
        <time>2014-06-04T14:06:42Z</time>
      </trkpt>
      <trkpt lat="59.9146769" lon="17.7189559">
        <ele>42.4354</ele>
        <time>2014-06-04T14:06:43Z</time>
      </trkpt>
      <trkpt lat="59.9146881" lon="17.7189877">
        <ele>41.9547</ele>
        <time>2014-06-04T14:06:44Z</time>
      </trkpt>
      <trkpt lat="59.9147017" lon="17.719028">
        <ele>41.474</ele>
        <time>2014-06-04T14:06:45Z</time>
      </trkpt>
      <trkpt lat="59.9147149" lon="17.7190733">
        <ele>41.474</ele>
        <time>2014-06-04T14:06:46Z</time>
      </trkpt>
      <trkpt lat="59.9147281" lon="17.7191157">
        <ele>41.474</ele>
        <time>2014-06-04T14:06:47Z</time>
      </trkpt>
      <trkpt lat="59.9147418" lon="17.7191602">
        <ele>41.474</ele>
        <time>2014-06-04T14:06:48Z</time>
      </trkpt>
      <trkpt lat="59.9147515" lon="17.7192085">
        <ele>41.474</ele>
        <time>2014-06-04T14:06:49Z</time>
      </trkpt>
      <trkpt lat="59.9147624" lon="17.7192529">
        <ele>42.4354</ele>
        <time>2014-06-04T14:06:50Z</time>
      </trkpt>
      <trkpt lat="59.9147697" lon="17.7192959">
        <ele>42.916</ele>
        <time>2014-06-04T14:06:51Z</time>
      </trkpt>
      <trkpt lat="59.9147753" lon="17.7193436">
        <ele>42.916</ele>
        <time>2014-06-04T14:06:52Z</time>
      </trkpt>
      <trkpt lat="59.9147825" lon="17.7193939">
        <ele>42.4354</ele>
        <time>2014-06-04T14:06:53Z</time>
      </trkpt>
      <trkpt lat="59.9147895" lon="17.7194415">
        <ele>42.916</ele>
        <time>2014-06-04T14:06:54Z</time>
      </trkpt>
      <trkpt lat="59.9147946" lon="17.7194886">
        <ele>43.3966</ele>
        <time>2014-06-04T14:06:55Z</time>
      </trkpt>
      <trkpt lat="59.9147928" lon="17.7195363">
        <ele>43.3966</ele>
        <time>2014-06-04T14:06:56Z</time>
      </trkpt>
      <trkpt lat="59.9147899" lon="17.7195801">
        <ele>42.916</ele>
        <time>2014-06-04T14:06:57Z</time>
      </trkpt>
      <trkpt lat="59.914793" lon="17.7196226">
        <ele>43.3966</ele>
        <time>2014-06-04T14:06:58Z</time>
      </trkpt>
      <trkpt lat="59.9147964" lon="17.7196731">
        <ele>44.358</ele>
        <time>2014-06-04T14:06:59Z</time>
      </trkpt>
      <trkpt lat="59.9147953" lon="17.7197155">
        <ele>45.3192</ele>
        <time>2014-06-04T14:07:00Z</time>
      </trkpt>
      <trkpt lat="59.9147923" lon="17.7197574">
        <ele>45.7999</ele>
        <time>2014-06-04T14:07:01Z</time>
      </trkpt>
      <trkpt lat="59.9147915" lon="17.7198031">
        <ele>46.2806</ele>
        <time>2014-06-04T14:07:02Z</time>
      </trkpt>
      <trkpt lat="59.9147936" lon="17.7198466">
        <ele>46.2806</ele>
        <time>2014-06-04T14:07:03Z</time>
      </trkpt>
      <trkpt lat="59.9148013" lon="17.7198866">
        <ele>47.2418</ele>
        <time>2014-06-04T14:07:04Z</time>
      </trkpt>
      <trkpt lat="59.9148104" lon="17.7199259">
        <ele>48.2034</ele>
        <time>2014-06-04T14:07:05Z</time>
      </trkpt>
      <trkpt lat="59.9148161" lon="17.719973">
        <ele>48.684</ele>
        <time>2014-06-04T14:07:06Z</time>
      </trkpt>
      <trkpt lat="59.9148203" lon="17.7200217">
        <ele>49.1646</ele>
        <time>2014-06-04T14:07:07Z</time>
      </trkpt>
      <trkpt lat="59.914826" lon="17.7200657">
        <ele>49.6453</ele>
        <time>2014-06-04T14:07:08Z</time>
      </trkpt>
      <trkpt lat="59.9148365" lon="17.7201045">
        <ele>50.6066</ele>
        <time>2014-06-04T14:07:09Z</time>
      </trkpt>
      <trkpt lat="59.9148463" lon="17.7201484">
        <ele>51.0872</ele>
        <time>2014-06-04T14:07:10Z</time>
      </trkpt>
      <trkpt lat="59.9148572" lon="17.7201955">
        <ele>51.5679</ele>
        <time>2014-06-04T14:07:11Z</time>
      </trkpt>
      <trkpt lat="59.9148684" lon="17.720238">
        <ele>52.0486</ele>
        <time>2014-06-04T14:07:12Z</time>
      </trkpt>
      <trkpt lat="59.914877" lon="17.720277">
        <ele>52.0486</ele>
        <time>2014-06-04T14:07:13Z</time>
      </trkpt>
      <trkpt lat="59.9148927" lon="17.7203153">
        <ele>52.5292</ele>
        <time>2014-06-04T14:07:14Z</time>
      </trkpt>
      <trkpt lat="59.914916" lon="17.7203549">
        <ele>53.4905</ele>
        <time>2014-06-04T14:07:15Z</time>
      </trkpt>
      <trkpt lat="59.9149383" lon="17.7203857">
        <ele>53.4905</ele>
        <time>2014-06-04T14:07:16Z</time>
      </trkpt>
      <trkpt lat="59.9149525" lon="17.7204198">
        <ele>53.0098</ele>
        <time>2014-06-04T14:07:17Z</time>
      </trkpt>
      <trkpt lat="59.9149675" lon="17.7204496">
        <ele>52.5292</ele>
        <time>2014-06-04T14:07:18Z</time>
      </trkpt>
      <trkpt lat="59.9149792" lon="17.7204739">
        <ele>52.5292</ele>
        <time>2014-06-04T14:07:19Z</time>
      </trkpt>
      <trkpt lat="59.9150002" lon="17.7204856">
        <ele>53.0098</ele>
        <time>2014-06-04T14:07:20Z</time>
      </trkpt>
      <trkpt lat="59.9150203" lon="17.7205024">
        <ele>53.4905</ele>
        <time>2014-06-04T14:07:21Z</time>
      </trkpt>
      <trkpt lat="59.9150385" lon="17.7205147">
        <ele>53.0098</ele>
        <time>2014-06-04T14:07:22Z</time>
      </trkpt>
      <trkpt lat="59.9150606" lon="17.7205356">
        <ele>53.4905</ele>
        <time>2014-06-04T14:07:23Z</time>
      </trkpt>
      <trkpt lat="59.9150917" lon="17.7205417">
        <ele>54.9324</ele>
        <time>2014-06-04T14:07:24Z</time>
      </trkpt>
      <trkpt lat="59.9151147" lon="17.7205272">
        <ele>55.8938</ele>
        <time>2014-06-04T14:07:25Z</time>
      </trkpt>
      <trkpt lat="59.9151455" lon="17.7205157">
        <ele>57.3358</ele>
        <time>2014-06-04T14:07:26Z</time>
      </trkpt>
      <trkpt lat="59.9151684" lon="17.7205074">
        <ele>57.8165</ele>
        <time>2014-06-04T14:07:27Z</time>
      </trkpt>
      <trkpt lat="59.9151919" lon="17.7204968">
        <ele>58.7777</ele>
        <time>2014-06-04T14:07:28Z</time>
      </trkpt>
      <trkpt lat="59.9152118" lon="17.7204942">
        <ele>58.7777</ele>
        <time>2014-06-04T14:07:29Z</time>
      </trkpt>
      <trkpt lat="59.9152338" lon="17.7204977">
        <ele>58.7777</ele>
        <time>2014-06-04T14:07:30Z</time>
      </trkpt>
      <trkpt lat="59.9152529" lon="17.7204987">
        <ele>58.7777</ele>
        <time>2014-06-04T14:07:31Z</time>
      </trkpt>
      <trkpt lat="59.9152758" lon="17.7205147">
        <ele>58.7777</ele>
        <time>2014-06-04T14:07:32Z</time>
      </trkpt>
      <trkpt lat="59.9152909" lon="17.7205334">
        <ele>58.2971</ele>
        <time>2014-06-04T14:07:33Z</time>
      </trkpt>
      <trkpt lat="59.9153094" lon="17.7205468">
        <ele>57.8165</ele>
        <time>2014-06-04T14:07:34Z</time>
      </trkpt>
      <trkpt lat="59.9153302" lon="17.7205552">
        <ele>58.2971</ele>
        <time>2014-06-04T14:07:35Z</time>
      </trkpt>
      <trkpt lat="59.9153466" lon="17.7205698">
        <ele>57.8165</ele>
        <time>2014-06-04T14:07:36Z</time>
      </trkpt>
      <trkpt lat="59.9153654" lon="17.7205928">
        <ele>56.8551</ele>
        <time>2014-06-04T14:07:37Z</time>
      </trkpt>
      <trkpt lat="59.9153835" lon="17.720609">
        <ele>56.3745</ele>
        <time>2014-06-04T14:07:38Z</time>
      </trkpt>
      <trkpt lat="59.9153964" lon="17.7206324">
        <ele>55.4131</ele>
        <time>2014-06-04T14:07:39Z</time>
      </trkpt>
      <trkpt lat="59.9154114" lon="17.7206562">
        <ele>55.8938</ele>
        <time>2014-06-04T14:07:40Z</time>
      </trkpt>
      <trkpt lat="59.9154302" lon="17.7206749">
        <ele>55.4131</ele>
        <time>2014-06-04T14:07:41Z</time>
      </trkpt>
      <trkpt lat="59.9154514" lon="17.7206908">
        <ele>55.8938</ele>
        <time>2014-06-04T14:07:42Z</time>
      </trkpt>
      <trkpt lat="59.9154742" lon="17.720708">
        <ele>56.3745</ele>
        <time>2014-06-04T14:07:43Z</time>
      </trkpt>
      <trkpt lat="59.9154938" lon="17.7207322">
        <ele>55.8938</ele>
        <time>2014-06-04T14:07:44Z</time>
      </trkpt>
      <trkpt lat="59.915512" lon="17.7207386">
        <ele>54.9324</ele>
        <time>2014-06-04T14:07:45Z</time>
      </trkpt>
      <trkpt lat="59.9155306" lon="17.7207463">
        <ele>54.4518</ele>
        <time>2014-06-04T14:07:46Z</time>
      </trkpt>
      <trkpt lat="59.9155489" lon="17.7207645">
        <ele>53.9712</ele>
        <time>2014-06-04T14:07:47Z</time>
      </trkpt>
      <trkpt lat="59.9155682" lon="17.7207767">
        <ele>53.0098</ele>
        <time>2014-06-04T14:07:48Z</time>
      </trkpt>
      <trkpt lat="59.9155881" lon="17.7207971">
        <ele>52.5292</ele>
        <time>2014-06-04T14:07:49Z</time>
      </trkpt>
      <trkpt lat="59.9156105" lon="17.7208167">
        <ele>52.0486</ele>
        <time>2014-06-04T14:07:50Z</time>
      </trkpt>
      <trkpt lat="59.915633" lon="17.7208358">
        <ele>51.0872</ele>
        <time>2014-06-04T14:07:51Z</time>
      </trkpt>
      <trkpt lat="59.9156549" lon="17.7208529">
        <ele>51.5679</ele>
        <time>2014-06-04T14:07:52Z</time>
      </trkpt>
      <trkpt lat="59.9156762" lon="17.7208702">
        <ele>51.5679</ele>
        <time>2014-06-04T14:07:53Z</time>
      </trkpt>
      <trkpt lat="59.9156967" lon="17.720881">
        <ele>52.0486</ele>
        <time>2014-06-04T14:07:54Z</time>
      </trkpt>
      <trkpt lat="59.9157192" lon="17.7209007">
        <ele>51.5679</ele>
        <time>2014-06-04T14:07:55Z</time>
      </trkpt>
      <trkpt lat="59.9157445" lon="17.7209312">
        <ele>52.0486</ele>
        <time>2014-06-04T14:07:56Z</time>
      </trkpt>
      <trkpt lat="59.9157706" lon="17.7209628">
        <ele>52.5292</ele>
        <time>2014-06-04T14:07:57Z</time>
      </trkpt>
      <trkpt lat="59.9157969" lon="17.7209852">
        <ele>53.4905</ele>
        <time>2014-06-04T14:07:58Z</time>
      </trkpt>
      <trkpt lat="59.9158228" lon="17.7209971">
        <ele>53.9712</ele>
        <time>2014-06-04T14:07:59Z</time>
      </trkpt>
      <trkpt lat="59.9158507" lon="17.721">
        <ele>54.9324</ele>
        <time>2014-06-04T14:08:00Z</time>
      </trkpt>
      <trkpt lat="59.9158803" lon="17.7209967">
        <ele>55.4131</ele>
        <time>2014-06-04T14:08:01Z</time>
      </trkpt>
      <trkpt lat="59.9159027" lon="17.7210027">
        <ele>54.9324</ele>
        <time>2014-06-04T14:08:02Z</time>
      </trkpt>
      <trkpt lat="59.915926" lon="17.7210121">
        <ele>54.4518</ele>
        <time>2014-06-04T14:08:03Z</time>
      </trkpt>
      <trkpt lat="59.9159502" lon="17.7210174">
        <ele>53.9712</ele>
        <time>2014-06-04T14:08:04Z</time>
      </trkpt>
      <trkpt lat="59.9159751" lon="17.7210234">
        <ele>53.9712</ele>
        <time>2014-06-04T14:08:05Z</time>
      </trkpt>
      <trkpt lat="59.9160013" lon="17.7210297">
        <ele>54.4518</ele>
        <time>2014-06-04T14:08:06Z</time>
      </trkpt>
      <trkpt lat="59.9160254" lon="17.7210338">
        <ele>53.9712</ele>
        <time>2014-06-04T14:08:07Z</time>
      </trkpt>
      <trkpt lat="59.9160469" lon="17.7210339">
        <ele>53.9712</ele>
        <time>2014-06-04T14:08:08Z</time>
      </trkpt>
      <trkpt lat="59.9160689" lon="17.7210374">
        <ele>53.9712</ele>
        <time>2014-06-04T14:08:09Z</time>
      </trkpt>
      <trkpt lat="59.9160921" lon="17.721045">
        <ele>53.4905</ele>
        <time>2014-06-04T14:08:10Z</time>
      </trkpt>
      <trkpt lat="59.9161139" lon="17.7210489">
        <ele>53.4905</ele>
        <time>2014-06-04T14:08:11Z</time>
      </trkpt>
      <trkpt lat="59.9161346" lon="17.7210494">
        <ele>53.4905</ele>
        <time>2014-06-04T14:08:12Z</time>
      </trkpt>
      <trkpt lat="59.9161596" lon="17.7210566">
        <ele>53.4905</ele>
        <time>2014-06-04T14:08:13Z</time>
      </trkpt>
      <trkpt lat="59.9161838" lon="17.7210587">
        <ele>53.0098</ele>
        <time>2014-06-04T14:08:14Z</time>
      </trkpt>
      <trkpt lat="59.9162054" lon="17.721055">
        <ele>52.5292</ele>
        <time>2014-06-04T14:08:15Z</time>
      </trkpt>
      <trkpt lat="59.9162274" lon="17.7210624">
        <ele>53.0098</ele>
        <time>2014-06-04T14:08:16Z</time>
      </trkpt>
      <trkpt lat="59.916246" lon="17.7210749">
        <ele>53.0098</ele>
        <time>2014-06-04T14:08:17Z</time>
      </trkpt>
      <trkpt lat="59.9162635" lon="17.7210837">
        <ele>52.5292</ele>
        <time>2014-06-04T14:08:18Z</time>
      </trkpt>
      <trkpt lat="59.9162831" lon="17.7210908">
        <ele>52.5292</ele>
        <time>2014-06-04T14:08:19Z</time>
      </trkpt>
      <trkpt lat="59.9163061" lon="17.721101">
        <ele>52.5292</ele>
        <time>2014-06-04T14:08:20Z</time>
      </trkpt>
      <trkpt lat="59.9163285" lon="17.7211069">
        <ele>52.5292</ele>
        <time>2014-06-04T14:08:21Z</time>
      </trkpt>
      <trkpt lat="59.9163495" lon="17.7211064">
        <ele>52.0486</ele>
        <time>2014-06-04T14:08:22Z</time>
      </trkpt>
      <trkpt lat="59.9163735" lon="17.7211036">
        <ele>52.5292</ele>
        <time>2014-06-04T14:08:23Z</time>
      </trkpt>
      <trkpt lat="59.9163947" lon="17.7211064">
        <ele>52.5292</ele>
        <time>2014-06-04T14:08:24Z</time>
      </trkpt>
      <trkpt lat="59.9164149" lon="17.7211064">
        <ele>53.0098</ele>
        <time>2014-06-04T14:08:25Z</time>
      </trkpt>
      <trkpt lat="59.916436" lon="17.7211109">
        <ele>53.0098</ele>
        <time>2014-06-04T14:08:26Z</time>
      </trkpt>
      <trkpt lat="59.9164563" lon="17.721115">
        <ele>52.5292</ele>
        <time>2014-06-04T14:08:27Z</time>
      </trkpt>
      <trkpt lat="59.9164771" lon="17.7211135">
        <ele>52.5292</ele>
        <time>2014-06-04T14:08:28Z</time>
      </trkpt>
      <trkpt lat="59.9165008" lon="17.7211015">
        <ele>52.5292</ele>
        <time>2014-06-04T14:08:29Z</time>
      </trkpt>
      <trkpt lat="59.9165237" lon="17.7210903">
        <ele>53.0098</ele>
        <time>2014-06-04T14:08:30Z</time>
      </trkpt>
      <trkpt lat="59.9165444" lon="17.7210842">
        <ele>53.0098</ele>
        <time>2014-06-04T14:08:31Z</time>
      </trkpt>
      <trkpt lat="59.9165682" lon="17.7210815">
        <ele>53.0098</ele>
        <time>2014-06-04T14:08:32Z</time>
      </trkpt>
      <trkpt lat="59.9165935" lon="17.7210748">
        <ele>53.4905</ele>
        <time>2014-06-04T14:08:33Z</time>
      </trkpt>
      <trkpt lat="59.9166154" lon="17.7210697">
        <ele>53.0098</ele>
        <time>2014-06-04T14:08:34Z</time>
      </trkpt>
      <trkpt lat="59.9166374" lon="17.7210737">
        <ele>53.0098</ele>
        <time>2014-06-04T14:08:35Z</time>
      </trkpt>
      <trkpt lat="59.9166599" lon="17.7210761">
        <ele>53.0098</ele>
        <time>2014-06-04T14:08:36Z</time>
      </trkpt>
      <trkpt lat="59.9166827" lon="17.721079">
        <ele>53.0098</ele>
        <time>2014-06-04T14:08:37Z</time>
      </trkpt>
      <trkpt lat="59.9167029" lon="17.7210966">
        <ele>53.0098</ele>
        <time>2014-06-04T14:08:38Z</time>
      </trkpt>
      <trkpt lat="59.916721" lon="17.7211125">
        <ele>53.0098</ele>
        <time>2014-06-04T14:08:39Z</time>
      </trkpt>
      <trkpt lat="59.9167421" lon="17.7211302">
        <ele>53.4905</ele>
        <time>2014-06-04T14:08:40Z</time>
      </trkpt>
      <trkpt lat="59.9167655" lon="17.7211468">
        <ele>53.9712</ele>
        <time>2014-06-04T14:08:41Z</time>
      </trkpt>
      <trkpt lat="59.9167902" lon="17.7211733">
        <ele>53.9712</ele>
        <time>2014-06-04T14:08:42Z</time>
      </trkpt>
      <trkpt lat="59.9168099" lon="17.7212012">
        <ele>53.9712</ele>
        <time>2014-06-04T14:08:43Z</time>
      </trkpt>
      <trkpt lat="59.9168291" lon="17.7212186">
        <ele>53.9712</ele>
        <time>2014-06-04T14:08:44Z</time>
      </trkpt>
      <trkpt lat="59.9168496" lon="17.7212258">
        <ele>53.9712</ele>
        <time>2014-06-04T14:08:45Z</time>
      </trkpt>
      <trkpt lat="59.9168697" lon="17.7212229">
        <ele>53.9712</ele>
        <time>2014-06-04T14:08:46Z</time>
      </trkpt>
      <trkpt lat="59.9168897" lon="17.7212198">
        <ele>53.9712</ele>
        <time>2014-06-04T14:08:47Z</time>
      </trkpt>
      <trkpt lat="59.9169104" lon="17.7212209">
        <ele>54.4518</ele>
        <time>2014-06-04T14:08:48Z</time>
      </trkpt>
      <trkpt lat="59.9169314" lon="17.7212087">
        <ele>54.9324</ele>
        <time>2014-06-04T14:08:49Z</time>
      </trkpt>
      <trkpt lat="59.9169541" lon="17.7211982">
        <ele>54.9324</ele>
        <time>2014-06-04T14:08:50Z</time>
      </trkpt>
      <trkpt lat="59.916977" lon="17.7211856">
        <ele>55.8938</ele>
        <time>2014-06-04T14:08:51Z</time>
      </trkpt>
      <trkpt lat="59.9169997" lon="17.7211769">
        <ele>55.8938</ele>
        <time>2014-06-04T14:08:52Z</time>
      </trkpt>
      <trkpt lat="59.9170199" lon="17.7211611">
        <ele>55.4131</ele>
        <time>2014-06-04T14:08:53Z</time>
      </trkpt>
      <trkpt lat="59.9170386" lon="17.7211474">
        <ele>55.4131</ele>
        <time>2014-06-04T14:08:54Z</time>
      </trkpt>
      <trkpt lat="59.9170592" lon="17.7211301">
        <ele>55.4131</ele>
        <time>2014-06-04T14:08:55Z</time>
      </trkpt>
      <trkpt lat="59.917083" lon="17.7211141">
        <ele>55.8938</ele>
        <time>2014-06-04T14:08:56Z</time>
      </trkpt>
      <trkpt lat="59.9171048" lon="17.7210929">
        <ele>55.8938</ele>
        <time>2014-06-04T14:08:57Z</time>
      </trkpt>
      <trkpt lat="59.9171267" lon="17.7210784">
        <ele>56.3745</ele>
        <time>2014-06-04T14:08:58Z</time>
      </trkpt>
      <trkpt lat="59.917148" lon="17.7210622">
        <ele>55.8938</ele>
        <time>2014-06-04T14:08:59Z</time>
      </trkpt>
      <trkpt lat="59.9171686" lon="17.7210462">
        <ele>55.8938</ele>
        <time>2014-06-04T14:09:00Z</time>
      </trkpt>
      <trkpt lat="59.9171896" lon="17.7210283">
        <ele>56.3745</ele>
        <time>2014-06-04T14:09:01Z</time>
      </trkpt>
      <trkpt lat="59.9172113" lon="17.7210246">
        <ele>55.8938</ele>
        <time>2014-06-04T14:09:02Z</time>
      </trkpt>
      <trkpt lat="59.9172331" lon="17.7210167">
        <ele>56.3745</ele>
        <time>2014-06-04T14:09:03Z</time>
      </trkpt>
      <trkpt lat="59.9172556" lon="17.7210048">
        <ele>56.3745</ele>
        <time>2014-06-04T14:09:04Z</time>
      </trkpt>
      <trkpt lat="59.9172771" lon="17.7209964">
        <ele>56.8551</ele>
        <time>2014-06-04T14:09:05Z</time>
      </trkpt>
      <trkpt lat="59.9172955" lon="17.7209872">
        <ele>56.8551</ele>
        <time>2014-06-04T14:09:06Z</time>
      </trkpt>
      <trkpt lat="59.9173126" lon="17.7209711">
        <ele>56.3745</ele>
        <time>2014-06-04T14:09:07Z</time>
      </trkpt>
      <trkpt lat="59.9173329" lon="17.7209511">
        <ele>56.3745</ele>
        <time>2014-06-04T14:09:08Z</time>
      </trkpt>
      <trkpt lat="59.9173519" lon="17.7209285">
        <ele>55.8938</ele>
        <time>2014-06-04T14:09:09Z</time>
      </trkpt>
      <trkpt lat="59.9173699" lon="17.7209038">
        <ele>55.4131</ele>
        <time>2014-06-04T14:09:10Z</time>
      </trkpt>
      <trkpt lat="59.9173893" lon="17.7208886">
        <ele>54.9324</ele>
        <time>2014-06-04T14:09:11Z</time>
      </trkpt>
      <trkpt lat="59.9174098" lon="17.7208817">
        <ele>54.4518</ele>
        <time>2014-06-04T14:09:12Z</time>
      </trkpt>
      <trkpt lat="59.917432" lon="17.7208754">
        <ele>53.9712</ele>
        <time>2014-06-04T14:09:13Z</time>
      </trkpt>
      <trkpt lat="59.9174543" lon="17.7208651">
        <ele>53.9712</ele>
        <time>2014-06-04T14:09:14Z</time>
      </trkpt>
      <trkpt lat="59.9174751" lon="17.7208546">
        <ele>53.9712</ele>
        <time>2014-06-04T14:09:15Z</time>
      </trkpt>
      <trkpt lat="59.9174974" lon="17.7208437">
        <ele>53.9712</ele>
        <time>2014-06-04T14:09:16Z</time>
      </trkpt>
      <trkpt lat="59.9175197" lon="17.7208306">
        <ele>53.4905</ele>
        <time>2014-06-04T14:09:17Z</time>
      </trkpt>
      <trkpt lat="59.9175456" lon="17.7208225">
        <ele>53.4905</ele>
        <time>2014-06-04T14:09:18Z</time>
      </trkpt>
      <trkpt lat="59.9175678" lon="17.7208142">
        <ele>53.4905</ele>
        <time>2014-06-04T14:09:19Z</time>
      </trkpt>
      <trkpt lat="59.917587" lon="17.7207987">
        <ele>53.4905</ele>
        <time>2014-06-04T14:09:20Z</time>
      </trkpt>
      <trkpt lat="59.9176105" lon="17.7207811">
        <ele>53.0098</ele>
        <time>2014-06-04T14:09:21Z</time>
      </trkpt>
      <trkpt lat="59.9176332" lon="17.7207598">
        <ele>53.0098</ele>
        <time>2014-06-04T14:09:22Z</time>
      </trkpt>
      <trkpt lat="59.9176512" lon="17.7207338">
        <ele>52.5292</ele>
        <time>2014-06-04T14:09:23Z</time>
      </trkpt>
      <trkpt lat="59.9176725" lon="17.7207074">
        <ele>53.0098</ele>
        <time>2014-06-04T14:09:24Z</time>
      </trkpt>
      <trkpt lat="59.9176907" lon="17.720693">
        <ele>53.0098</ele>
        <time>2014-06-04T14:09:25Z</time>
      </trkpt>
      <trkpt lat="59.9177273" lon="17.7206511">
        <ele>53.4905</ele>
        <time>2014-06-04T14:09:27Z</time>
      </trkpt>
      <trkpt lat="59.9177451" lon="17.7206325">
        <ele>53.4905</ele>
        <time>2014-06-04T14:09:28Z</time>
      </trkpt>
      <trkpt lat="59.9177662" lon="17.7206177">
        <ele>53.4905</ele>
        <time>2014-06-04T14:09:29Z</time>
      </trkpt>
      <trkpt lat="59.9177865" lon="17.7205991">
        <ele>53.9712</ele>
        <time>2014-06-04T14:09:30Z</time>
      </trkpt>
      <trkpt lat="59.9178055" lon="17.7205781">
        <ele>53.4905</ele>
        <time>2014-06-04T14:09:31Z</time>
      </trkpt>
      <trkpt lat="59.9178275" lon="17.7205562">
        <ele>53.4905</ele>
        <time>2014-06-04T14:09:32Z</time>
      </trkpt>
      <trkpt lat="59.9178461" lon="17.7205309">
        <ele>53.0098</ele>
        <time>2014-06-04T14:09:33Z</time>
      </trkpt>
      <trkpt lat="59.9178611" lon="17.7205065">
        <ele>52.5292</ele>
        <time>2014-06-04T14:09:34Z</time>
      </trkpt>
      <trkpt lat="59.9178804" lon="17.7204841">
        <ele>52.0486</ele>
        <time>2014-06-04T14:09:35Z</time>
      </trkpt>
      <trkpt lat="59.917905" lon="17.7204555">
        <ele>52.0486</ele>
        <time>2014-06-04T14:09:36Z</time>
      </trkpt>
      <trkpt lat="59.9179281" lon="17.7204303">
        <ele>52.0486</ele>
        <time>2014-06-04T14:09:37Z</time>
      </trkpt>
      <trkpt lat="59.9179521" lon="17.7203946">
        <ele>52.0486</ele>
        <time>2014-06-04T14:09:38Z</time>
      </trkpt>
      <trkpt lat="59.9179814" lon="17.7203598">
        <ele>53.0098</ele>
        <time>2014-06-04T14:09:39Z</time>
      </trkpt>
      <trkpt lat="59.918" lon="17.720333">
        <ele>52.0486</ele>
        <time>2014-06-04T14:09:40Z</time>
      </trkpt>
      <trkpt lat="59.9180186" lon="17.7203072">
        <ele>52.0486</ele>
        <time>2014-06-04T14:09:41Z</time>
      </trkpt>
      <trkpt lat="59.9180357" lon="17.7202776">
        <ele>51.5679</ele>
        <time>2014-06-04T14:09:42Z</time>
      </trkpt>
      <trkpt lat="59.9180571" lon="17.7202556">
        <ele>51.5679</ele>
        <time>2014-06-04T14:09:43Z</time>
      </trkpt>
      <trkpt lat="59.9180782" lon="17.7202247">
        <ele>51.5679</ele>
        <time>2014-06-04T14:09:44Z</time>
      </trkpt>
      <trkpt lat="59.9180992" lon="17.7201823">
        <ele>51.5679</ele>
        <time>2014-06-04T14:09:45Z</time>
      </trkpt>
      <trkpt lat="59.9181217" lon="17.7201551">
        <ele>51.5679</ele>
        <time>2014-06-04T14:09:46Z</time>
      </trkpt>
      <trkpt lat="59.9181409" lon="17.720119">
        <ele>52.5292</ele>
        <time>2014-06-04T14:09:47Z</time>
      </trkpt>
      <trkpt lat="59.9181574" lon="17.7200828">
        <ele>52.5292</ele>
        <time>2014-06-04T14:09:48Z</time>
      </trkpt>
      <trkpt lat="59.918179" lon="17.7200406">
        <ele>52.5292</ele>
        <time>2014-06-04T14:09:49Z</time>
      </trkpt>
      <trkpt lat="59.9182004" lon="17.7200075">
        <ele>52.5292</ele>
        <time>2014-06-04T14:09:50Z</time>
      </trkpt>
      <trkpt lat="59.9182228" lon="17.7199729">
        <ele>52.5292</ele>
        <time>2014-06-04T14:09:51Z</time>
      </trkpt>
      <trkpt lat="59.9182503" lon="17.7199435">
        <ele>53.0098</ele>
        <time>2014-06-04T14:09:52Z</time>
      </trkpt>
      <trkpt lat="59.9182771" lon="17.719904">
        <ele>53.9712</ele>
        <time>2014-06-04T14:09:53Z</time>
      </trkpt>
      <trkpt lat="59.9183025" lon="17.7198683">
        <ele>53.4905</ele>
        <time>2014-06-04T14:09:54Z</time>
      </trkpt>
      <trkpt lat="59.9183299" lon="17.7198378">
        <ele>54.4518</ele>
        <time>2014-06-04T14:09:55Z</time>
      </trkpt>
      <trkpt lat="59.918351" lon="17.7197814">
        <ele>55.8938</ele>
        <time>2014-06-04T14:09:56Z</time>
      </trkpt>
      <trkpt lat="59.9183636" lon="17.7197311">
        <ele>55.4131</ele>
        <time>2014-06-04T14:09:57Z</time>
      </trkpt>
      <trkpt lat="59.9183828" lon="17.7196869">
        <ele>55.4131</ele>
        <time>2014-06-04T14:09:58Z</time>
      </trkpt>
      <trkpt lat="59.9183963" lon="17.7196435">
        <ele>53.9712</ele>
        <time>2014-06-04T14:09:59Z</time>
      </trkpt>
      <trkpt lat="59.9184114" lon="17.7196">
        <ele>53.4905</ele>
        <time>2014-06-04T14:10:00Z</time>
      </trkpt>
      <trkpt lat="59.9184273" lon="17.7195581">
        <ele>53.4905</ele>
        <time>2014-06-04T14:10:01Z</time>
      </trkpt>
      <trkpt lat="59.9184456" lon="17.7195213">
        <ele>53.4905</ele>
        <time>2014-06-04T14:10:02Z</time>
      </trkpt>
      <trkpt lat="59.918462" lon="17.7194835">
        <ele>53.4905</ele>
        <time>2014-06-04T14:10:03Z</time>
      </trkpt>
      <trkpt lat="59.9184729" lon="17.7194451">
        <ele>52.5292</ele>
        <time>2014-06-04T14:10:04Z</time>
      </trkpt>
      <trkpt lat="59.9184858" lon="17.7194063">
        <ele>52.0486</ele>
        <time>2014-06-04T14:10:05Z</time>
      </trkpt>
      <trkpt lat="59.9185022" lon="17.7193761">
        <ele>51.5679</ele>
        <time>2014-06-04T14:10:06Z</time>
      </trkpt>
      <trkpt lat="59.9185162" lon="17.7193373">
        <ele>51.0872</ele>
        <time>2014-06-04T14:10:07Z</time>
      </trkpt>
      <trkpt lat="59.9185283" lon="17.7192923">
        <ele>50.126</ele>
        <time>2014-06-04T14:10:08Z</time>
      </trkpt>
      <trkpt lat="59.9185402" lon="17.7192426">
        <ele>49.6453</ele>
        <time>2014-06-04T14:10:09Z</time>
      </trkpt>
      <trkpt lat="59.9185552" lon="17.7191952">
        <ele>49.6453</ele>
        <time>2014-06-04T14:10:10Z</time>
      </trkpt>
      <trkpt lat="59.9185748" lon="17.7191606">
        <ele>48.684</ele>
        <time>2014-06-04T14:10:11Z</time>
      </trkpt>
      <trkpt lat="59.9185889" lon="17.7191261">
        <ele>48.2034</ele>
        <time>2014-06-04T14:10:12Z</time>
      </trkpt>
      <trkpt lat="59.9185977" lon="17.7190927">
        <ele>46.7612</ele>
        <time>2014-06-04T14:10:13Z</time>
      </trkpt>
      <trkpt lat="59.9186076" lon="17.7190473">
        <ele>46.2806</ele>
        <time>2014-06-04T14:10:14Z</time>
      </trkpt>
      <trkpt lat="59.9186186" lon="17.7189991">
        <ele>45.7999</ele>
        <time>2014-06-04T14:10:15Z</time>
      </trkpt>
      <trkpt lat="59.9186305" lon="17.7189535">
        <ele>45.7999</ele>
        <time>2014-06-04T14:10:16Z</time>
      </trkpt>
      <trkpt lat="59.9186429" lon="17.7189091">
        <ele>45.3192</ele>
        <time>2014-06-04T14:10:17Z</time>
      </trkpt>
      <trkpt lat="59.918653" lon="17.7188738">
        <ele>43.8773</ele>
        <time>2014-06-04T14:10:18Z</time>
      </trkpt>
      <trkpt lat="59.9186729" lon="17.7188511">
        <ele>43.3966</ele>
        <time>2014-06-04T14:10:19Z</time>
      </trkpt>
      <trkpt lat="59.918692" lon="17.718823">
        <ele>42.916</ele>
        <time>2014-06-04T14:10:20Z</time>
      </trkpt>
      <trkpt lat="59.9187034" lon="17.7187976">
        <ele>42.4354</ele>
        <time>2014-06-04T14:10:21Z</time>
      </trkpt>
      <trkpt lat="59.9187158" lon="17.7187665">
        <ele>42.916</ele>
        <time>2014-06-04T14:10:22Z</time>
      </trkpt>
      <trkpt lat="59.9187361" lon="17.7187272">
        <ele>42.916</ele>
        <time>2014-06-04T14:10:23Z</time>
      </trkpt>
      <trkpt lat="59.9187536" lon="17.7186841">
        <ele>42.4354</ele>
        <time>2014-06-04T14:10:24Z</time>
      </trkpt>
      <trkpt lat="59.9187698" lon="17.718651">
        <ele>42.916</ele>
        <time>2014-06-04T14:10:25Z</time>
      </trkpt>
      <trkpt lat="59.9187878" lon="17.7186202">
        <ele>43.3966</ele>
        <time>2014-06-04T14:10:26Z</time>
      </trkpt>
      <trkpt lat="59.9188013" lon="17.7185798">
        <ele>44.358</ele>
        <time>2014-06-04T14:10:27Z</time>
      </trkpt>
      <trkpt lat="59.9188141" lon="17.7185353">
        <ele>44.8386</ele>
        <time>2014-06-04T14:10:28Z</time>
      </trkpt>
      <trkpt lat="59.9188283" lon="17.7184952">
        <ele>44.8386</ele>
        <time>2014-06-04T14:10:29Z</time>
      </trkpt>
      <trkpt lat="59.9188507" lon="17.7184656">
        <ele>45.7999</ele>
        <time>2014-06-04T14:10:30Z</time>
      </trkpt>
      <trkpt lat="59.9188775" lon="17.7184417">
        <ele>46.2806</ele>
        <time>2014-06-04T14:10:31Z</time>
      </trkpt>
      <trkpt lat="59.9189074" lon="17.71842">
        <ele>47.2418</ele>
        <time>2014-06-04T14:10:32Z</time>
      </trkpt>
      <trkpt lat="59.9189334" lon="17.7183976">
        <ele>47.2418</ele>
        <time>2014-06-04T14:10:33Z</time>
      </trkpt>
      <trkpt lat="59.9189565" lon="17.7183794">
        <ele>46.7612</ele>
        <time>2014-06-04T14:10:34Z</time>
      </trkpt>
      <trkpt lat="59.9189775" lon="17.7183671">
        <ele>45.7999</ele>
        <time>2014-06-04T14:10:35Z</time>
      </trkpt>
      <trkpt lat="59.9190003" lon="17.7183578">
        <ele>45.7999</ele>
        <time>2014-06-04T14:10:36Z</time>
      </trkpt>
      <trkpt lat="59.9190204" lon="17.7183469">
        <ele>44.8386</ele>
        <time>2014-06-04T14:10:37Z</time>
      </trkpt>
      <trkpt lat="59.9190454" lon="17.7183401">
        <ele>45.3192</ele>
        <time>2014-06-04T14:10:38Z</time>
      </trkpt>
      <trkpt lat="59.9190681" lon="17.7183304">
        <ele>44.8386</ele>
        <time>2014-06-04T14:10:39Z</time>
      </trkpt>
      <trkpt lat="59.9190856" lon="17.7183225">
        <ele>43.8773</ele>
        <time>2014-06-04T14:10:40Z</time>
      </trkpt>
      <trkpt lat="59.9191106" lon="17.7183172">
        <ele>43.8773</ele>
        <time>2014-06-04T14:10:41Z</time>
      </trkpt>
      <trkpt lat="59.9191307" lon="17.7183149">
        <ele>43.3966</ele>
        <time>2014-06-04T14:10:42Z</time>
      </trkpt>
      <trkpt lat="59.9191525" lon="17.7183095">
        <ele>42.916</ele>
        <time>2014-06-04T14:10:43Z</time>
      </trkpt>
      <trkpt lat="59.9191741" lon="17.7183087">
        <ele>42.916</ele>
        <time>2014-06-04T14:10:44Z</time>
      </trkpt>
      <trkpt lat="59.9191958" lon="17.7183014">
        <ele>42.4354</ele>
        <time>2014-06-04T14:10:45Z</time>
      </trkpt>
      <trkpt lat="59.9192166" lon="17.7182894">
        <ele>41.9547</ele>
        <time>2014-06-04T14:10:46Z</time>
      </trkpt>
      <trkpt lat="59.9192401" lon="17.71828">
        <ele>41.474</ele>
        <time>2014-06-04T14:10:47Z</time>
      </trkpt>
      <trkpt lat="59.9192614" lon="17.7182708">
        <ele>40.9934</ele>
        <time>2014-06-04T14:10:48Z</time>
      </trkpt>
      <trkpt lat="59.9192824" lon="17.7182548">
        <ele>40.9934</ele>
        <time>2014-06-04T14:10:49Z</time>
      </trkpt>
      <trkpt lat="59.9193047" lon="17.7182405">
        <ele>40.9934</ele>
        <time>2014-06-04T14:10:50Z</time>
      </trkpt>
      <trkpt lat="59.9193303" lon="17.7182252">
        <ele>40.9934</ele>
        <time>2014-06-04T14:10:51Z</time>
      </trkpt>
      <trkpt lat="59.9193539" lon="17.7182148">
        <ele>40.9934</ele>
        <time>2014-06-04T14:10:52Z</time>
      </trkpt>
      <trkpt lat="59.9193763" lon="17.7182111">
        <ele>40.5128</ele>
        <time>2014-06-04T14:10:53Z</time>
      </trkpt>
      <trkpt lat="59.9193944" lon="17.7182053">
        <ele>40.0321</ele>
        <time>2014-06-04T14:10:54Z</time>
      </trkpt>
      <trkpt lat="59.9194152" lon="17.7181996">
        <ele>40.0321</ele>
        <time>2014-06-04T14:10:55Z</time>
      </trkpt>
      <trkpt lat="59.9194407" lon="17.7181898">
        <ele>40.0321</ele>
        <time>2014-06-04T14:10:56Z</time>
      </trkpt>
      <trkpt lat="59.9194602" lon="17.7181839">
        <ele>39.5513</ele>
        <time>2014-06-04T14:10:57Z</time>
      </trkpt>
      <trkpt lat="59.9194779" lon="17.7181837">
        <ele>38.5901</ele>
        <time>2014-06-04T14:10:58Z</time>
      </trkpt>
      <trkpt lat="59.9195006" lon="17.7181784">
        <ele>38.1094</ele>
        <time>2014-06-04T14:10:59Z</time>
      </trkpt>
      <trkpt lat="59.9195245" lon="17.7181707">
        <ele>37.6287</ele>
        <time>2014-06-04T14:11:00Z</time>
      </trkpt>
      <trkpt lat="59.9195421" lon="17.7181713">
        <ele>37.1481</ele>
        <time>2014-06-04T14:11:01Z</time>
      </trkpt>
      <trkpt lat="59.919566" lon="17.7181733">
        <ele>37.1481</ele>
        <time>2014-06-04T14:11:02Z</time>
      </trkpt>
      <trkpt lat="59.9195913" lon="17.7181821">
        <ele>36.1868</ele>
        <time>2014-06-04T14:11:03Z</time>
      </trkpt>
      <trkpt lat="59.9196151" lon="17.7181941">
        <ele>36.1868</ele>
        <time>2014-06-04T14:11:04Z</time>
      </trkpt>
      <trkpt lat="59.919642" lon="17.7181978">
        <ele>36.1868</ele>
        <time>2014-06-04T14:11:05Z</time>
      </trkpt>
      <trkpt lat="59.9196636" lon="17.7182044">
        <ele>35.2255</ele>
        <time>2014-06-04T14:11:06Z</time>
      </trkpt>
      <trkpt lat="59.9196845" lon="17.7182112">
        <ele>34.7449</ele>
        <time>2014-06-04T14:11:07Z</time>
      </trkpt>
      <trkpt lat="59.9197084" lon="17.7182154">
        <ele>34.7449</ele>
        <time>2014-06-04T14:11:08Z</time>
      </trkpt>
      <trkpt lat="59.9197327" lon="17.7182199">
        <ele>34.7449</ele>
        <time>2014-06-04T14:11:09Z</time>
      </trkpt>
      <trkpt lat="59.9197561" lon="17.7182257">
        <ele>34.2642</ele>
        <time>2014-06-04T14:11:10Z</time>
      </trkpt>
      <trkpt lat="59.9197804" lon="17.7182345">
        <ele>33.3029</ele>
        <time>2014-06-04T14:11:11Z</time>
      </trkpt>
      <trkpt lat="59.9198052" lon="17.7182418">
        <ele>33.3029</ele>
        <time>2014-06-04T14:11:12Z</time>
      </trkpt>
      <trkpt lat="59.9198301" lon="17.7182444">
        <ele>32.8223</ele>
        <time>2014-06-04T14:11:13Z</time>
      </trkpt>
      <trkpt lat="59.9198581" lon="17.7182458">
        <ele>32.8223</ele>
        <time>2014-06-04T14:11:14Z</time>
      </trkpt>
      <trkpt lat="59.9198818" lon="17.7182459">
        <ele>32.8223</ele>
        <time>2014-06-04T14:11:15Z</time>
      </trkpt>
      <trkpt lat="59.9199104" lon="17.7182433">
        <ele>32.8223</ele>
        <time>2014-06-04T14:11:16Z</time>
      </trkpt>
      <trkpt lat="59.919942" lon="17.7182345">
        <ele>33.3029</ele>
        <time>2014-06-04T14:11:17Z</time>
      </trkpt>
      <trkpt lat="59.91997" lon="17.7182247">
        <ele>32.8223</ele>
        <time>2014-06-04T14:11:18Z</time>
      </trkpt>
      <trkpt lat="59.9199959" lon="17.7182241">
        <ele>32.3416</ele>
        <time>2014-06-04T14:11:19Z</time>
      </trkpt>
      <trkpt lat="59.9200253" lon="17.7182257">
        <ele>32.8223</ele>
        <time>2014-06-04T14:11:20Z</time>
      </trkpt>
      <trkpt lat="59.9200557" lon="17.71822">
        <ele>32.8223</ele>
        <time>2014-06-04T14:11:21Z</time>
      </trkpt>
      <trkpt lat="59.9200819" lon="17.7182203">
        <ele>32.3416</ele>
        <time>2014-06-04T14:11:22Z</time>
      </trkpt>
      <trkpt lat="59.9201066" lon="17.7182268">
        <ele>31.8607</ele>
        <time>2014-06-04T14:11:23Z</time>
      </trkpt>
      <trkpt lat="59.920128" lon="17.7182315">
        <ele>30.8995</ele>
        <time>2014-06-04T14:11:24Z</time>
      </trkpt>
      <trkpt lat="59.920149" lon="17.7182402">
        <ele>30.4188</ele>
        <time>2014-06-04T14:11:25Z</time>
      </trkpt>
      <trkpt lat="59.9201731" lon="17.7182538">
        <ele>29.9381</ele>
        <time>2014-06-04T14:11:26Z</time>
      </trkpt>
      <trkpt lat="59.9201926" lon="17.7182672">
        <ele>28.9769</ele>
        <time>2014-06-04T14:11:27Z</time>
      </trkpt>
      <trkpt lat="59.9202146" lon="17.718275">
        <ele>28.0155</ele>
        <time>2014-06-04T14:11:28Z</time>
      </trkpt>
      <trkpt lat="59.9202373" lon="17.7182905">
        <ele>27.0543</ele>
        <time>2014-06-04T14:11:29Z</time>
      </trkpt>
      <trkpt lat="59.9202586" lon="17.7183035">
        <ele>27.0543</ele>
        <time>2014-06-04T14:11:30Z</time>
      </trkpt>
      <trkpt lat="59.9202802" lon="17.7183095">
        <ele>26.5736</ele>
        <time>2014-06-04T14:11:31Z</time>
      </trkpt>
      <trkpt lat="59.9203024" lon="17.7183215">
        <ele>26.0929</ele>
        <time>2014-06-04T14:11:32Z</time>
      </trkpt>
      <trkpt lat="59.9203303" lon="17.7183278">
        <ele>26.0929</ele>
        <time>2014-06-04T14:11:33Z</time>
      </trkpt>
      <trkpt lat="59.9203616" lon="17.7183267">
        <ele>27.0543</ele>
        <time>2014-06-04T14:11:34Z</time>
      </trkpt>
      <trkpt lat="59.9203911" lon="17.7183324">
        <ele>27.5349</ele>
        <time>2014-06-04T14:11:35Z</time>
      </trkpt>
      <trkpt lat="59.9204181" lon="17.7183379">
        <ele>28.0155</ele>
        <time>2014-06-04T14:11:36Z</time>
      </trkpt>
      <trkpt lat="59.920443" lon="17.7183374">
        <ele>27.5349</ele>
        <time>2014-06-04T14:11:37Z</time>
      </trkpt>
      <trkpt lat="59.9204691" lon="17.718341">
        <ele>28.0155</ele>
        <time>2014-06-04T14:11:38Z</time>
      </trkpt>
      <trkpt lat="59.9204931" lon="17.7183501">
        <ele>28.0155</ele>
        <time>2014-06-04T14:11:39Z</time>
      </trkpt>
      <trkpt lat="59.9205191" lon="17.7183505">
        <ele>28.0155</ele>
        <time>2014-06-04T14:11:40Z</time>
      </trkpt>
      <trkpt lat="59.9205455" lon="17.7183501">
        <ele>27.5349</ele>
        <time>2014-06-04T14:11:41Z</time>
      </trkpt>
      <trkpt lat="59.9205789" lon="17.7183509">
        <ele>28.0155</ele>
        <time>2014-06-04T14:11:42Z</time>
      </trkpt>
      <trkpt lat="59.9206051" lon="17.7183552">
        <ele>28.0155</ele>
        <time>2014-06-04T14:11:43Z</time>
      </trkpt>
      <trkpt lat="59.9206298" lon="17.7183625">
        <ele>28.4962</ele>
        <time>2014-06-04T14:11:44Z</time>
      </trkpt>
      <trkpt lat="59.9206543" lon="17.71837">
        <ele>28.9769</ele>
        <time>2014-06-04T14:11:45Z</time>
      </trkpt>
      <trkpt lat="59.920675" lon="17.7183811">
        <ele>28.4962</ele>
        <time>2014-06-04T14:11:46Z</time>
      </trkpt>
      <trkpt lat="59.920701" lon="17.7183933">
        <ele>28.9769</ele>
        <time>2014-06-04T14:11:47Z</time>
      </trkpt>
      <trkpt lat="59.9207233" lon="17.7184008">
        <ele>28.9769</ele>
        <time>2014-06-04T14:11:48Z</time>
      </trkpt>
      <trkpt lat="59.9207454" lon="17.7184117">
        <ele>28.9769</ele>
        <time>2014-06-04T14:11:49Z</time>
      </trkpt>
      <trkpt lat="59.9207712" lon="17.7184229">
        <ele>29.4575</ele>
        <time>2014-06-04T14:11:50Z</time>
      </trkpt>
      <trkpt lat="59.9207981" lon="17.7184263">
        <ele>29.9381</ele>
        <time>2014-06-04T14:11:51Z</time>
      </trkpt>
      <trkpt lat="59.9208209" lon="17.7184294">
        <ele>29.9381</ele>
        <time>2014-06-04T14:11:52Z</time>
      </trkpt>
      <trkpt lat="59.9208454" lon="17.7184304">
        <ele>29.9381</ele>
        <time>2014-06-04T14:11:53Z</time>
      </trkpt>
      <trkpt lat="59.9208726" lon="17.7184293">
        <ele>30.4188</ele>
        <time>2014-06-04T14:11:54Z</time>
      </trkpt>
      <trkpt lat="59.9208954" lon="17.718425">
        <ele>30.4188</ele>
        <time>2014-06-04T14:11:55Z</time>
      </trkpt>
      <trkpt lat="59.9209173" lon="17.718422">
        <ele>29.9381</ele>
        <time>2014-06-04T14:11:56Z</time>
      </trkpt>
      <trkpt lat="59.9209392" lon="17.7184229">
        <ele>30.4188</ele>
        <time>2014-06-04T14:11:57Z</time>
      </trkpt>
      <trkpt lat="59.9209614" lon="17.7184162">
        <ele>30.8995</ele>
        <time>2014-06-04T14:11:58Z</time>
      </trkpt>
      <trkpt lat="59.9209796" lon="17.7184116">
        <ele>30.8995</ele>
        <time>2014-06-04T14:11:59Z</time>
      </trkpt>
      <trkpt lat="59.9210001" lon="17.718405">
        <ele>30.8995</ele>
        <time>2014-06-04T14:12:00Z</time>
      </trkpt>
      <trkpt lat="59.9210242" lon="17.7183905">
        <ele>31.3801</ele>
        <time>2014-06-04T14:12:01Z</time>
      </trkpt>
      <trkpt lat="59.9210516" lon="17.7183786">
        <ele>32.3416</ele>
        <time>2014-06-04T14:12:02Z</time>
      </trkpt>
      <trkpt lat="59.9210763" lon="17.718375">
        <ele>32.3416</ele>
        <time>2014-06-04T14:12:03Z</time>
      </trkpt>
      <trkpt lat="59.9211008" lon="17.7183682">
        <ele>32.8223</ele>
        <time>2014-06-04T14:12:04Z</time>
      </trkpt>
      <trkpt lat="59.9211271" lon="17.7183614">
        <ele>33.3029</ele>
        <time>2014-06-04T14:12:05Z</time>
      </trkpt>
      <trkpt lat="59.9211514" lon="17.7183593">
        <ele>34.7449</ele>
        <time>2014-06-04T14:12:06Z</time>
      </trkpt>
      <trkpt lat="59.9211739" lon="17.7183538">
        <ele>35.2255</ele>
        <time>2014-06-04T14:12:07Z</time>
      </trkpt>
      <trkpt lat="59.921198" lon="17.7183506">
        <ele>35.2255</ele>
        <time>2014-06-04T14:12:08Z</time>
      </trkpt>
      <trkpt lat="59.9212223" lon="17.718351">
        <ele>35.7061</ele>
        <time>2014-06-04T14:12:09Z</time>
      </trkpt>
      <trkpt lat="59.9212468" lon="17.7183448">
        <ele>36.1868</ele>
        <time>2014-06-04T14:12:10Z</time>
      </trkpt>
      <trkpt lat="59.9212707" lon="17.7183369">
        <ele>36.6675</ele>
        <time>2014-06-04T14:12:11Z</time>
      </trkpt>
      <trkpt lat="59.9212959" lon="17.7183267">
        <ele>37.1481</ele>
        <time>2014-06-04T14:12:12Z</time>
      </trkpt>
      <trkpt lat="59.9213207" lon="17.7183133">
        <ele>38.1094</ele>
        <time>2014-06-04T14:12:13Z</time>
      </trkpt>
      <trkpt lat="59.9213438" lon="17.7183009">
        <ele>38.5901</ele>
        <time>2014-06-04T14:12:14Z</time>
      </trkpt>
      <trkpt lat="59.9213671" lon="17.7182843">
        <ele>39.5513</ele>
        <time>2014-06-04T14:12:15Z</time>
      </trkpt>
      <trkpt lat="59.9213925" lon="17.7182677">
        <ele>40.0321</ele>
        <time>2014-06-04T14:12:16Z</time>
      </trkpt>
      <trkpt lat="59.9214187" lon="17.7182497">
        <ele>40.9934</ele>
        <time>2014-06-04T14:12:17Z</time>
      </trkpt>
      <trkpt lat="59.9214445" lon="17.7182305">
        <ele>41.474</ele>
        <time>2014-06-04T14:12:18Z</time>
      </trkpt>
      <trkpt lat="59.9214681" lon="17.7182138">
        <ele>42.4354</ele>
        <time>2014-06-04T14:12:19Z</time>
      </trkpt>
      <trkpt lat="59.9214929" lon="17.7181986">
        <ele>42.916</ele>
        <time>2014-06-04T14:12:20Z</time>
      </trkpt>
      <trkpt lat="59.9215166" lon="17.7181823">
        <ele>43.8773</ele>
        <time>2014-06-04T14:12:21Z</time>
      </trkpt>
      <trkpt lat="59.9215389" lon="17.7181675">
        <ele>44.358</ele>
        <time>2014-06-04T14:12:22Z</time>
      </trkpt>
      <trkpt lat="59.9215635" lon="17.7181582">
        <ele>44.8386</ele>
        <time>2014-06-04T14:12:23Z</time>
      </trkpt>
      <trkpt lat="59.9215845" lon="17.7181488">
        <ele>44.358</ele>
        <time>2014-06-04T14:12:24Z</time>
      </trkpt>
      <trkpt lat="59.9216057" lon="17.718134">
        <ele>44.358</ele>
        <time>2014-06-04T14:12:25Z</time>
      </trkpt>
      <trkpt lat="59.9216286" lon="17.7181227">
        <ele>44.358</ele>
        <time>2014-06-04T14:12:26Z</time>
      </trkpt>
      <trkpt lat="59.9216469" lon="17.7181159">
        <ele>42.916</ele>
        <time>2014-06-04T14:12:27Z</time>
      </trkpt>
      <trkpt lat="59.921668" lon="17.7181107">
        <ele>41.9547</ele>
        <time>2014-06-04T14:12:28Z</time>
      </trkpt>
      <trkpt lat="59.9216919" lon="17.7181087">
        <ele>41.474</ele>
        <time>2014-06-04T14:12:29Z</time>
      </trkpt>
      <trkpt lat="59.921715" lon="17.7180988">
        <ele>40.0321</ele>
        <time>2014-06-04T14:12:30Z</time>
      </trkpt>
      <trkpt lat="59.9217395" lon="17.7180833">
        <ele>39.5513</ele>
        <time>2014-06-04T14:12:31Z</time>
      </trkpt>
      <trkpt lat="59.9217663" lon="17.7180672">
        <ele>40.0321</ele>
        <time>2014-06-04T14:12:32Z</time>
      </trkpt>
      <trkpt lat="59.9217865" lon="17.7180489">
        <ele>40.0321</ele>
        <time>2014-06-04T14:12:33Z</time>
      </trkpt>
      <trkpt lat="59.9218052" lon="17.7180316">
        <ele>39.0707</ele>
        <time>2014-06-04T14:12:34Z</time>
      </trkpt>
      <trkpt lat="59.921826" lon="17.7180162">
        <ele>38.5901</ele>
        <time>2014-06-04T14:12:35Z</time>
      </trkpt>
      <trkpt lat="59.9218479" lon="17.7179997">
        <ele>38.5901</ele>
        <time>2014-06-04T14:12:36Z</time>
      </trkpt>
      <trkpt lat="59.9218662" lon="17.717986">
        <ele>38.1094</ele>
        <time>2014-06-04T14:12:37Z</time>
      </trkpt>
      <trkpt lat="59.9218865" lon="17.7179715">
        <ele>37.6287</ele>
        <time>2014-06-04T14:12:38Z</time>
      </trkpt>
      <trkpt lat="59.9219083" lon="17.7179548">
        <ele>37.6287</ele>
        <time>2014-06-04T14:12:39Z</time>
      </trkpt>
      <trkpt lat="59.9219322" lon="17.7179326">
        <ele>38.1094</ele>
        <time>2014-06-04T14:12:40Z</time>
      </trkpt>
      <trkpt lat="59.9219551" lon="17.7179129">
        <ele>37.6287</ele>
        <time>2014-06-04T14:12:41Z</time>
      </trkpt>
      <trkpt lat="59.9219755" lon="17.7178959">
        <ele>37.1481</ele>
        <time>2014-06-04T14:12:42Z</time>
      </trkpt>
      <trkpt lat="59.9219969" lon="17.7178733">
        <ele>37.1481</ele>
        <time>2014-06-04T14:12:43Z</time>
      </trkpt>
      <trkpt lat="59.9220197" lon="17.7178522">
        <ele>37.1481</ele>
        <time>2014-06-04T14:12:44Z</time>
      </trkpt>
      <trkpt lat="59.922041" lon="17.7178294">
        <ele>37.1481</ele>
        <time>2014-06-04T14:12:45Z</time>
      </trkpt>
      <trkpt lat="59.9220627" lon="17.7178065">
        <ele>36.6675</ele>
        <time>2014-06-04T14:12:46Z</time>
      </trkpt>
      <trkpt lat="59.922089" lon="17.717787">
        <ele>37.6287</ele>
        <time>2014-06-04T14:12:47Z</time>
      </trkpt>
      <trkpt lat="59.9221104" lon="17.7177677">
        <ele>37.1481</ele>
        <time>2014-06-04T14:12:48Z</time>
      </trkpt>
      <trkpt lat="59.9221312" lon="17.7177516">
        <ele>37.1481</ele>
        <time>2014-06-04T14:12:49Z</time>
      </trkpt>
      <trkpt lat="59.9221528" lon="17.7177403">
        <ele>37.6287</ele>
        <time>2014-06-04T14:12:50Z</time>
      </trkpt>
      <trkpt lat="59.9221745" lon="17.7177232">
        <ele>37.1481</ele>
        <time>2014-06-04T14:12:51Z</time>
      </trkpt>
      <trkpt lat="59.9221948" lon="17.7177087">
        <ele>37.1481</ele>
        <time>2014-06-04T14:12:52Z</time>
      </trkpt>
      <trkpt lat="59.9222171" lon="17.7176963">
        <ele>37.1481</ele>
        <time>2014-06-04T14:12:53Z</time>
      </trkpt>
      <trkpt lat="59.9222404" lon="17.7176755">
        <ele>36.6675</ele>
        <time>2014-06-04T14:12:54Z</time>
      </trkpt>
      <trkpt lat="59.9222627" lon="17.71766">
        <ele>36.6675</ele>
        <time>2014-06-04T14:12:55Z</time>
      </trkpt>
      <trkpt lat="59.9222847" lon="17.7176464">
        <ele>37.1481</ele>
        <time>2014-06-04T14:12:56Z</time>
      </trkpt>
      <trkpt lat="59.9223008" lon="17.7176342">
        <ele>36.1868</ele>
        <time>2014-06-04T14:12:57Z</time>
      </trkpt>
      <trkpt lat="59.9223233" lon="17.717617">
        <ele>36.1868</ele>
        <time>2014-06-04T14:12:58Z</time>
      </trkpt>
      <trkpt lat="59.9223422" lon="17.7176027">
        <ele>36.1868</ele>
        <time>2014-06-04T14:12:59Z</time>
      </trkpt>
      <trkpt lat="59.9223626" lon="17.7175813">
        <ele>37.1481</ele>
        <time>2014-06-04T14:13:00Z</time>
      </trkpt>
      <trkpt lat="59.9223832" lon="17.7175609">
        <ele>37.1481</ele>
        <time>2014-06-04T14:13:01Z</time>
      </trkpt>
      <trkpt lat="59.9224046" lon="17.7175368">
        <ele>37.1481</ele>
        <time>2014-06-04T14:13:02Z</time>
      </trkpt>
      <trkpt lat="59.9224221" lon="17.7175134">
        <ele>37.6287</ele>
        <time>2014-06-04T14:13:03Z</time>
      </trkpt>
      <trkpt lat="59.9224357" lon="17.717486">
        <ele>37.6287</ele>
        <time>2014-06-04T14:13:04Z</time>
      </trkpt>
      <trkpt lat="59.9224479" lon="17.717471">
        <ele>37.1481</ele>
        <time>2014-06-04T14:13:05Z</time>
      </trkpt>
      <trkpt lat="59.9224614" lon="17.7174508">
        <ele>37.6287</ele>
        <time>2014-06-04T14:13:06Z</time>
      </trkpt>
      <trkpt lat="59.9224736" lon="17.7174337">
        <ele>38.1094</ele>
        <time>2014-06-04T14:13:07Z</time>
      </trkpt>
      <trkpt lat="59.9224886" lon="17.7174119">
        <ele>38.5901</ele>
        <time>2014-06-04T14:13:08Z</time>
      </trkpt>
      <trkpt lat="59.9225061" lon="17.7173885">
        <ele>38.1094</ele>
        <time>2014-06-04T14:13:09Z</time>
      </trkpt>
      <trkpt lat="59.9225326" lon="17.7173695">
        <ele>39.0707</ele>
        <time>2014-06-04T14:13:10Z</time>
      </trkpt>
      <trkpt lat="59.9225605" lon="17.7173582">
        <ele>40.5128</ele>
        <time>2014-06-04T14:13:11Z</time>
      </trkpt>
      <trkpt lat="59.9225909" lon="17.7173519">
        <ele>41.474</ele>
        <time>2014-06-04T14:13:12Z</time>
      </trkpt>
      <trkpt lat="59.9226149" lon="17.7173419">
        <ele>42.4354</ele>
        <time>2014-06-04T14:13:13Z</time>
      </trkpt>
      <trkpt lat="59.9226335" lon="17.7173302">
        <ele>42.4354</ele>
        <time>2014-06-04T14:13:14Z</time>
      </trkpt>
      <trkpt lat="59.9226564" lon="17.7173292">
        <ele>42.916</ele>
        <time>2014-06-04T14:13:15Z</time>
      </trkpt>
      <trkpt lat="59.9226815" lon="17.7173213">
        <ele>43.8773</ele>
        <time>2014-06-04T14:13:16Z</time>
      </trkpt>
      <trkpt lat="59.9227004" lon="17.7173118">
        <ele>44.358</ele>
        <time>2014-06-04T14:13:17Z</time>
      </trkpt>
      <trkpt lat="59.9227314" lon="17.7173099">
        <ele>46.7612</ele>
        <time>2014-06-04T14:13:18Z</time>
      </trkpt>
      <trkpt lat="59.9227688" lon="17.7173025">
        <ele>49.6453</ele>
        <time>2014-06-04T14:13:19Z</time>
      </trkpt>
      <trkpt lat="59.9228009" lon="17.7172943">
        <ele>51.5679</ele>
        <time>2014-06-04T14:13:20Z</time>
      </trkpt>
      <trkpt lat="59.9228278" lon="17.7172941">
        <ele>52.5292</ele>
        <time>2014-06-04T14:13:21Z</time>
      </trkpt>
      <trkpt lat="59.9228542" lon="17.7173083">
        <ele>53.0098</ele>
        <time>2014-06-04T14:13:22Z</time>
      </trkpt>
      <trkpt lat="59.922883" lon="17.7173152">
        <ele>53.9712</ele>
        <time>2014-06-04T14:13:23Z</time>
      </trkpt>
      <trkpt lat="59.922919" lon="17.7173151">
        <ele>54.9324</ele>
        <time>2014-06-04T14:13:24Z</time>
      </trkpt>
      <trkpt lat="59.9229506" lon="17.7173202">
        <ele>56.3745</ele>
        <time>2014-06-04T14:13:25Z</time>
      </trkpt>
      <trkpt lat="59.92298" lon="17.7173157">
        <ele>56.3745</ele>
        <time>2014-06-04T14:13:26Z</time>
      </trkpt>
      <trkpt lat="59.9230044" lon="17.717312">
        <ele>55.8938</ele>
        <time>2014-06-04T14:13:27Z</time>
      </trkpt>
      <trkpt lat="59.9230265" lon="17.717314">
        <ele>55.8938</ele>
        <time>2014-06-04T14:13:28Z</time>
      </trkpt>
      <trkpt lat="59.9230413" lon="17.7173195">
        <ele>53.9712</ele>
        <time>2014-06-04T14:13:29Z</time>
      </trkpt>
      <trkpt lat="59.9230616" lon="17.7173296">
        <ele>53.4905</ele>
        <time>2014-06-04T14:13:30Z</time>
      </trkpt>
      <trkpt lat="59.9230837" lon="17.7173285">
        <ele>52.5292</ele>
        <time>2014-06-04T14:13:31Z</time>
      </trkpt>
      <trkpt lat="59.9231069" lon="17.717325">
        <ele>52.5292</ele>
        <time>2014-06-04T14:13:32Z</time>
      </trkpt>
      <trkpt lat="59.9231265" lon="17.7173284">
        <ele>51.5679</ele>
        <time>2014-06-04T14:13:33Z</time>
      </trkpt>
      <trkpt lat="59.9231505" lon="17.7173376">
        <ele>51.5679</ele>
        <time>2014-06-04T14:13:34Z</time>
      </trkpt>
      <trkpt lat="59.9231739" lon="17.7173414">
        <ele>52.0486</ele>
        <time>2014-06-04T14:13:35Z</time>
      </trkpt>
      <trkpt lat="59.9232014" lon="17.7173452">
        <ele>53.0098</ele>
        <time>2014-06-04T14:13:36Z</time>
      </trkpt>
      <trkpt lat="59.923235" lon="17.7173382">
        <ele>54.4518</ele>
        <time>2014-06-04T14:13:37Z</time>
      </trkpt>
      <trkpt lat="59.9232643" lon="17.7173378">
        <ele>55.4131</ele>
        <time>2014-06-04T14:13:38Z</time>
      </trkpt>
      <trkpt lat="59.9232871" lon="17.7173384">
        <ele>55.8938</ele>
        <time>2014-06-04T14:13:39Z</time>
      </trkpt>
      <trkpt lat="59.9233031" lon="17.7173404">
        <ele>56.3745</ele>
        <time>2014-06-04T14:13:40Z</time>
      </trkpt>
      <trkpt lat="59.9233174" lon="17.7173532">
        <ele>55.8938</ele>
        <time>2014-06-04T14:13:41Z</time>
      </trkpt>
      <trkpt lat="59.9233355" lon="17.7173726">
        <ele>55.4131</ele>
        <time>2014-06-04T14:13:42Z</time>
      </trkpt>
      <trkpt lat="59.9233689" lon="17.7173628">
        <ele>56.8551</ele>
        <time>2014-06-04T14:13:43Z</time>
      </trkpt>
      <trkpt lat="59.9234048" lon="17.7173586">
        <ele>58.7777</ele>
        <time>2014-06-04T14:13:44Z</time>
      </trkpt>
      <trkpt lat="59.9234395" lon="17.7173558">
        <ele>59.7391</ele>
        <time>2014-06-04T14:13:45Z</time>
      </trkpt>
      <trkpt lat="59.9234661" lon="17.7173611">
        <ele>60.2197</ele>
        <time>2014-06-04T14:13:46Z</time>
      </trkpt>
      <trkpt lat="59.9234831" lon="17.7173727">
        <ele>60.7003</ele>
        <time>2014-06-04T14:13:47Z</time>
      </trkpt>
      <trkpt lat="59.9235049" lon="17.7173762">
        <ele>60.7003</ele>
        <time>2014-06-04T14:13:48Z</time>
      </trkpt>
      <trkpt lat="59.9235343" lon="17.7173915">
        <ele>61.181</ele>
        <time>2014-06-04T14:13:49Z</time>
      </trkpt>
      <trkpt lat="59.9235547" lon="17.7174172">
        <ele>61.181</ele>
        <time>2014-06-04T14:13:50Z</time>
      </trkpt>
      <trkpt lat="59.9235716" lon="17.717453">
        <ele>60.2197</ele>
        <time>2014-06-04T14:13:51Z</time>
      </trkpt>
      <trkpt lat="59.9235894" lon="17.7174832">
        <ele>58.2971</ele>
        <time>2014-06-04T14:13:52Z</time>
      </trkpt>
      <trkpt lat="59.9236111" lon="17.717507">
        <ele>58.7777</ele>
        <time>2014-06-04T14:13:53Z</time>
      </trkpt>
      <trkpt lat="59.9236316" lon="17.7175523">
        <ele>58.7777</ele>
        <time>2014-06-04T14:13:54Z</time>
      </trkpt>
      <trkpt lat="59.9236549" lon="17.7175944">
        <ele>58.7777</ele>
        <time>2014-06-04T14:13:55Z</time>
      </trkpt>
      <trkpt lat="59.9236723" lon="17.7176352">
        <ele>57.8165</ele>
        <time>2014-06-04T14:13:56Z</time>
      </trkpt>
      <trkpt lat="59.9236857" lon="17.7176751">
        <ele>57.8165</ele>
        <time>2014-06-04T14:13:57Z</time>
      </trkpt>
      <trkpt lat="59.9236902" lon="17.7177206">
        <ele>57.3358</ele>
        <time>2014-06-04T14:13:58Z</time>
      </trkpt>
      <trkpt lat="59.9236917" lon="17.7177679">
        <ele>55.4131</ele>
        <time>2014-06-04T14:13:59Z</time>
      </trkpt>
      <trkpt lat="59.9237033" lon="17.7178108">
        <ele>54.9324</ele>
        <time>2014-06-04T14:14:00Z</time>
      </trkpt>
      <trkpt lat="59.9237068" lon="17.7178482">
        <ele>53.4905</ele>
        <time>2014-06-04T14:14:01Z</time>
      </trkpt>
      <trkpt lat="59.9237214" lon="17.7178848">
        <ele>53.9712</ele>
        <time>2014-06-04T14:14:02Z</time>
      </trkpt>
      <trkpt lat="59.9237369" lon="17.7179175">
        <ele>53.4905</ele>
        <time>2014-06-04T14:14:03Z</time>
      </trkpt>
      <trkpt lat="59.9237591" lon="17.7179501">
        <ele>52.5292</ele>
        <time>2014-06-04T14:14:04Z</time>
      </trkpt>
      <trkpt lat="59.9237841" lon="17.7179782">
        <ele>51.5679</ele>
        <time>2014-06-04T14:14:05Z</time>
      </trkpt>
      <trkpt lat="59.9237954" lon="17.718024">
        <ele>50.6066</ele>
        <time>2014-06-04T14:14:06Z</time>
      </trkpt>
      <trkpt lat="59.923808" lon="17.7180625">
        <ele>50.6066</ele>
        <time>2014-06-04T14:14:07Z</time>
      </trkpt>
      <trkpt lat="59.9238199" lon="17.718103">
        <ele>49.6453</ele>
        <time>2014-06-04T14:14:08Z</time>
      </trkpt>
      <trkpt lat="59.9238372" lon="17.7181401">
        <ele>47.7225</ele>
        <time>2014-06-04T14:14:09Z</time>
      </trkpt>
      <trkpt lat="59.9238519" lon="17.7181775">
        <ele>47.2418</ele>
        <time>2014-06-04T14:14:10Z</time>
      </trkpt>
      <trkpt lat="59.9238665" lon="17.7182169">
        <ele>45.7999</ele>
        <time>2014-06-04T14:14:11Z</time>
      </trkpt>
      <trkpt lat="59.9238824" lon="17.718248">
        <ele>44.8386</ele>
        <time>2014-06-04T14:14:12Z</time>
      </trkpt>
      <trkpt lat="59.9239022" lon="17.718266">
        <ele>44.8386</ele>
        <time>2014-06-04T14:14:13Z</time>
      </trkpt>
      <trkpt lat="59.9239234" lon="17.7182749">
        <ele>44.8386</ele>
        <time>2014-06-04T14:14:14Z</time>
      </trkpt>
      <trkpt lat="59.9239395" lon="17.7182791">
        <ele>44.358</ele>
        <time>2014-06-04T14:14:15Z</time>
      </trkpt>
      <trkpt lat="59.9239624" lon="17.7182688">
        <ele>43.8773</ele>
        <time>2014-06-04T14:14:16Z</time>
      </trkpt>
      <trkpt lat="59.9239843" lon="17.7182489">
        <ele>43.8773</ele>
        <time>2014-06-04T14:14:17Z</time>
      </trkpt>
      <trkpt lat="59.9240041" lon="17.7182391">
        <ele>44.8386</ele>
        <time>2014-06-04T14:14:18Z</time>
      </trkpt>
      <trkpt lat="59.9240281" lon="17.7182205">
        <ele>44.8386</ele>
        <time>2014-06-04T14:14:19Z</time>
      </trkpt>
      <trkpt lat="59.9240492" lon="17.7182074">
        <ele>44.358</ele>
        <time>2014-06-04T14:14:20Z</time>
      </trkpt>
      <trkpt lat="59.9240834" lon="17.7181843">
        <ele>45.7999</ele>
        <time>2014-06-04T14:14:21Z</time>
      </trkpt>
      <trkpt lat="59.9241143" lon="17.7181611">
        <ele>47.2418</ele>
        <time>2014-06-04T14:14:22Z</time>
      </trkpt>
      <trkpt lat="59.9241486" lon="17.7181319">
        <ele>48.2034</ele>
        <time>2014-06-04T14:14:23Z</time>
      </trkpt>
      <trkpt lat="59.9241843" lon="17.7181048">
        <ele>49.1646</ele>
        <time>2014-06-04T14:14:24Z</time>
      </trkpt>
      <trkpt lat="59.9242098" lon="17.7180753">
        <ele>50.126</ele>
        <time>2014-06-04T14:14:25Z</time>
      </trkpt>
      <trkpt lat="59.9242312" lon="17.7180383">
        <ele>51.0872</ele>
        <time>2014-06-04T14:14:26Z</time>
      </trkpt>
      <trkpt lat="59.9242579" lon="17.7180013">
        <ele>53.0098</ele>
        <time>2014-06-04T14:14:27Z</time>
      </trkpt>
      <trkpt lat="59.9242902" lon="17.717959">
        <ele>54.4518</ele>
        <time>2014-06-04T14:14:28Z</time>
      </trkpt>
      <trkpt lat="59.9243237" lon="17.7179218">
        <ele>55.8938</ele>
        <time>2014-06-04T14:14:29Z</time>
      </trkpt>
      <trkpt lat="59.92434" lon="17.7178878">
        <ele>56.8551</ele>
        <time>2014-06-04T14:14:30Z</time>
      </trkpt>
      <trkpt lat="59.9243606" lon="17.7178744">
        <ele>57.3358</ele>
        <time>2014-06-04T14:14:31Z</time>
      </trkpt>
      <trkpt lat="59.9243863" lon="17.7178688">
        <ele>57.8165</ele>
        <time>2014-06-04T14:14:32Z</time>
      </trkpt>
      <trkpt lat="59.9244066" lon="17.7178433">
        <ele>58.2971</ele>
        <time>2014-06-04T14:14:33Z</time>
      </trkpt>
      <trkpt lat="59.924429" lon="17.7178062">
        <ele>59.2584</ele>
        <time>2014-06-04T14:14:34Z</time>
      </trkpt>
      <trkpt lat="59.9244601" lon="17.7177803">
        <ele>59.7391</ele>
        <time>2014-06-04T14:14:35Z</time>
      </trkpt>
      <trkpt lat="59.9244952" lon="17.7177596">
        <ele>61.6617</ele>
        <time>2014-06-04T14:14:36Z</time>
      </trkpt>
      <trkpt lat="59.9245164" lon="17.7177142">
        <ele>63.1036</ele>
        <time>2014-06-04T14:14:37Z</time>
      </trkpt>
      <trkpt lat="59.9245404" lon="17.7176744">
        <ele>63.5844</ele>
        <time>2014-06-04T14:14:38Z</time>
      </trkpt>
      <trkpt lat="59.9245581" lon="17.7176283">
        <ele>64.5457</ele>
        <time>2014-06-04T14:14:39Z</time>
      </trkpt>
      <trkpt lat="59.9245746" lon="17.7175807">
        <ele>64.5457</ele>
        <time>2014-06-04T14:14:40Z</time>
      </trkpt>
      <trkpt lat="59.9245948" lon="17.7175337">
        <ele>65.5071</ele>
        <time>2014-06-04T14:14:41Z</time>
      </trkpt>
      <trkpt lat="59.9246082" lon="17.7174689">
        <ele>66.949</ele>
        <time>2014-06-04T14:14:42Z</time>
      </trkpt>
      <trkpt lat="59.9246274" lon="17.717406">
        <ele>68.3909</ele>
        <time>2014-06-04T14:14:43Z</time>
      </trkpt>
      <trkpt lat="59.9246388" lon="17.7173494">
        <ele>68.3909</ele>
        <time>2014-06-04T14:14:44Z</time>
      </trkpt>
      <trkpt lat="59.9246506" lon="17.7173">
        <ele>68.8716</ele>
        <time>2014-06-04T14:14:45Z</time>
      </trkpt>
      <trkpt lat="59.92467" lon="17.7172664">
        <ele>69.3523</ele>
        <time>2014-06-04T14:14:46Z</time>
      </trkpt>
      <trkpt lat="59.9246847" lon="17.7172405">
        <ele>67.9103</ele>
        <time>2014-06-04T14:14:47Z</time>
      </trkpt>
      <trkpt lat="59.9247014" lon="17.7172128">
        <ele>67.4297</ele>
        <time>2014-06-04T14:14:48Z</time>
      </trkpt>
      <trkpt lat="59.9247165" lon="17.7171838">
        <ele>65.9877</ele>
        <time>2014-06-04T14:14:49Z</time>
      </trkpt>
      <trkpt lat="59.9247301" lon="17.7171612">
        <ele>64.5457</ele>
        <time>2014-06-04T14:14:50Z</time>
      </trkpt>
      <trkpt lat="59.9247461" lon="17.7171259">
        <ele>65.0264</ele>
        <time>2014-06-04T14:14:51Z</time>
      </trkpt>
      <trkpt lat="59.9247813" lon="17.7170655">
        <ele>64.5457</ele>
        <time>2014-06-04T14:14:53Z</time>
      </trkpt>
      <trkpt lat="59.924801" lon="17.7170391">
        <ele>65.0264</ele>
        <time>2014-06-04T14:14:54Z</time>
      </trkpt>
      <trkpt lat="59.9248206" lon="17.7170115">
        <ele>65.0264</ele>
        <time>2014-06-04T14:14:55Z</time>
      </trkpt>
      <trkpt lat="59.9248425" lon="17.7169953">
        <ele>64.5457</ele>
        <time>2014-06-04T14:14:56Z</time>
      </trkpt>
      <trkpt lat="59.9248619" lon="17.7169917">
        <ele>63.5844</ele>
        <time>2014-06-04T14:14:57Z</time>
      </trkpt>
      <trkpt lat="59.9248786" lon="17.7169754">
        <ele>62.6229</ele>
        <time>2014-06-04T14:14:58Z</time>
      </trkpt>
      <trkpt lat="59.9248971" lon="17.7169526">
        <ele>61.6617</ele>
        <time>2014-06-04T14:14:59Z</time>
      </trkpt>
      <trkpt lat="59.9249136" lon="17.7169293">
        <ele>60.7003</ele>
        <time>2014-06-04T14:15:00Z</time>
      </trkpt>
      <trkpt lat="59.9249297" lon="17.716911">
        <ele>60.7003</ele>
        <time>2014-06-04T14:15:01Z</time>
      </trkpt>
      <trkpt lat="59.924947" lon="17.7168841">
        <ele>59.7391</ele>
        <time>2014-06-04T14:15:02Z</time>
      </trkpt>
      <trkpt lat="59.9249647" lon="17.7168645">
        <ele>58.7777</ele>
        <time>2014-06-04T14:15:03Z</time>
      </trkpt>
      <trkpt lat="59.9249843" lon="17.7168421">
        <ele>57.8165</ele>
        <time>2014-06-04T14:15:04Z</time>
      </trkpt>
      <trkpt lat="59.9250022" lon="17.7168139">
        <ele>56.3745</ele>
        <time>2014-06-04T14:15:05Z</time>
      </trkpt>
      <trkpt lat="59.9250194" lon="17.7167761">
        <ele>55.8938</ele>
        <time>2014-06-04T14:15:06Z</time>
      </trkpt>
      <trkpt lat="59.9250369" lon="17.7167427">
        <ele>54.9324</ele>
        <time>2014-06-04T14:15:07Z</time>
      </trkpt>
      <trkpt lat="59.9250522" lon="17.7167057">
        <ele>53.9712</ele>
        <time>2014-06-04T14:15:08Z</time>
      </trkpt>
      <trkpt lat="59.9250585" lon="17.7166632">
        <ele>53.0098</ele>
        <time>2014-06-04T14:15:09Z</time>
      </trkpt>
      <trkpt lat="59.9250603" lon="17.7166152">
        <ele>52.5292</ele>
        <time>2014-06-04T14:15:10Z</time>
      </trkpt>
      <trkpt lat="59.9250589" lon="17.7165728">
        <ele>52.5292</ele>
        <time>2014-06-04T14:15:11Z</time>
      </trkpt>
      <trkpt lat="59.9250537" lon="17.7165245">
        <ele>51.5679</ele>
        <time>2014-06-04T14:15:12Z</time>
      </trkpt>
      <trkpt lat="59.9250504" lon="17.7164777">
        <ele>51.5679</ele>
        <time>2014-06-04T14:15:13Z</time>
      </trkpt>
      <trkpt lat="59.9250408" lon="17.7164401">
        <ele>52.0486</ele>
        <time>2014-06-04T14:15:14Z</time>
      </trkpt>
      <trkpt lat="59.9250235" lon="17.7164003">
        <ele>52.0486</ele>
        <time>2014-06-04T14:15:15Z</time>
      </trkpt>
      <trkpt lat="59.9250025" lon="17.7163603">
        <ele>51.5679</ele>
        <time>2014-06-04T14:15:16Z</time>
      </trkpt>
      <trkpt lat="59.9249822" lon="17.7163349">
        <ele>50.6066</ele>
        <time>2014-06-04T14:15:17Z</time>
      </trkpt>
      <trkpt lat="59.9249675" lon="17.7163221">
        <ele>50.6066</ele>
        <time>2014-06-04T14:15:18Z</time>
      </trkpt>
      <trkpt lat="59.9249533" lon="17.7163019">
        <ele>51.0872</ele>
        <time>2014-06-04T14:15:19Z</time>
      </trkpt>
      <trkpt lat="59.9249335" lon="17.7162591">
        <ele>52.0486</ele>
        <time>2014-06-04T14:15:20Z</time>
      </trkpt>
      <trkpt lat="59.9249123" lon="17.7162215">
        <ele>52.0486</ele>
        <time>2014-06-04T14:15:21Z</time>
      </trkpt>
      <trkpt lat="59.9248865" lon="17.7161681">
        <ele>51.5679</ele>
        <time>2014-06-04T14:15:22Z</time>
      </trkpt>
      <trkpt lat="59.924867" lon="17.7161266">
        <ele>52.0486</ele>
        <time>2014-06-04T14:15:23Z</time>
      </trkpt>
      <trkpt lat="59.9248455" lon="17.7160796">
        <ele>52.5292</ele>
        <time>2014-06-04T14:15:24Z</time>
      </trkpt>
      <trkpt lat="59.9248272" lon="17.7160325">
        <ele>53.4905</ele>
        <time>2014-06-04T14:15:25Z</time>
      </trkpt>
      <trkpt lat="59.9248137" lon="17.7160044">
        <ele>54.4518</ele>
        <time>2014-06-04T14:15:26Z</time>
      </trkpt>
      <trkpt lat="59.9247992" lon="17.7159687">
        <ele>53.9712</ele>
        <time>2014-06-04T14:15:27Z</time>
      </trkpt>
      <trkpt lat="59.9247828" lon="17.7159304">
        <ele>54.9324</ele>
        <time>2014-06-04T14:15:28Z</time>
      </trkpt>
      <trkpt lat="59.9247629" lon="17.7158905">
        <ele>55.4131</ele>
        <time>2014-06-04T14:15:29Z</time>
      </trkpt>
      <trkpt lat="59.9247448" lon="17.7158538">
        <ele>54.9324</ele>
        <time>2014-06-04T14:15:30Z</time>
      </trkpt>
      <trkpt lat="59.9247285" lon="17.7158196">
        <ele>54.9324</ele>
        <time>2014-06-04T14:15:31Z</time>
      </trkpt>
      <trkpt lat="59.9247103" lon="17.7157955">
        <ele>54.9324</ele>
        <time>2014-06-04T14:15:32Z</time>
      </trkpt>
      <trkpt lat="59.9246902" lon="17.7157751">
        <ele>54.9324</ele>
        <time>2014-06-04T14:15:33Z</time>
      </trkpt>
      <trkpt lat="59.9246693" lon="17.7157574">
        <ele>55.4131</ele>
        <time>2014-06-04T14:15:34Z</time>
      </trkpt>
      <trkpt lat="59.9246502" lon="17.7157517">
        <ele>55.4131</ele>
        <time>2014-06-04T14:15:35Z</time>
      </trkpt>
      <trkpt lat="59.924637" lon="17.7157361">
        <ele>56.3745</ele>
        <time>2014-06-04T14:15:36Z</time>
      </trkpt>
      <trkpt lat="59.9246267" lon="17.7157183">
        <ele>57.3358</ele>
        <time>2014-06-04T14:15:37Z</time>
      </trkpt>
      <trkpt lat="59.9246123" lon="17.7156948">
        <ele>57.3358</ele>
        <time>2014-06-04T14:15:38Z</time>
      </trkpt>
      <trkpt lat="59.9245926" lon="17.715687">
        <ele>56.8551</ele>
        <time>2014-06-04T14:15:39Z</time>
      </trkpt>
      <trkpt lat="59.9245705" lon="17.7156921">
        <ele>55.8938</ele>
        <time>2014-06-04T14:15:40Z</time>
      </trkpt>
      <trkpt lat="59.924537" lon="17.7156938">
        <ele>53.0098</ele>
        <time>2014-06-04T14:15:41Z</time>
      </trkpt>
      <trkpt lat="59.9245195" lon="17.7156751">
        <ele>53.4905</ele>
        <time>2014-06-04T14:15:42Z</time>
      </trkpt>
      <trkpt lat="59.9245044" lon="17.7156676">
        <ele>53.4905</ele>
        <time>2014-06-04T14:15:43Z</time>
      </trkpt>
      <trkpt lat="59.9244864" lon="17.7156471">
        <ele>54.4518</ele>
        <time>2014-06-04T14:15:44Z</time>
      </trkpt>
      <trkpt lat="59.9244654" lon="17.7156264">
        <ele>54.4518</ele>
        <time>2014-06-04T14:15:45Z</time>
      </trkpt>
      <trkpt lat="59.9244454" lon="17.7155942">
        <ele>54.9324</ele>
        <time>2014-06-04T14:15:46Z</time>
      </trkpt>
      <trkpt lat="59.92443" lon="17.7155472">
        <ele>55.8938</ele>
        <time>2014-06-04T14:15:47Z</time>
      </trkpt>
      <trkpt lat="59.9244124" lon="17.715515">
        <ele>55.8938</ele>
        <time>2014-06-04T14:15:48Z</time>
      </trkpt>
      <trkpt lat="59.9243956" lon="17.7154822">
        <ele>55.8938</ele>
        <time>2014-06-04T14:15:49Z</time>
      </trkpt>
      <trkpt lat="59.924372" lon="17.7154415">
        <ele>55.8938</ele>
        <time>2014-06-04T14:15:50Z</time>
      </trkpt>
      <trkpt lat="59.9243503" lon="17.715414">
        <ele>56.3745</ele>
        <time>2014-06-04T14:15:51Z</time>
      </trkpt>
      <trkpt lat="59.9243243" lon="17.715392">
        <ele>55.8938</ele>
        <time>2014-06-04T14:15:52Z</time>
      </trkpt>
      <trkpt lat="59.9242977" lon="17.7153647">
        <ele>55.8938</ele>
        <time>2014-06-04T14:15:53Z</time>
      </trkpt>
      <trkpt lat="59.9242735" lon="17.7153528">
        <ele>56.3745</ele>
        <time>2014-06-04T14:15:54Z</time>
      </trkpt>
      <trkpt lat="59.9242467" lon="17.7153571">
        <ele>55.4131</ele>
        <time>2014-06-04T14:15:55Z</time>
      </trkpt>
      <trkpt lat="59.9242231" lon="17.7153418">
        <ele>55.4131</ele>
        <time>2014-06-04T14:15:56Z</time>
      </trkpt>
      <trkpt lat="59.9241858" lon="17.7153337">
        <ele>53.0098</ele>
        <time>2014-06-04T14:15:57Z</time>
      </trkpt>
      <trkpt lat="59.924156" lon="17.7153241">
        <ele>51.5679</ele>
        <time>2014-06-04T14:15:58Z</time>
      </trkpt>
      <trkpt lat="59.9241274" lon="17.7153009">
        <ele>50.6066</ele>
        <time>2014-06-04T14:15:59Z</time>
      </trkpt>
      <trkpt lat="59.9241001" lon="17.71526">
        <ele>50.126</ele>
        <time>2014-06-04T14:16:00Z</time>
      </trkpt>
      <trkpt lat="59.9240716" lon="17.715229">
        <ele>48.684</ele>
        <time>2014-06-04T14:16:01Z</time>
      </trkpt>
      <trkpt lat="59.924045" lon="17.7152057">
        <ele>48.2034</ele>
        <time>2014-06-04T14:16:02Z</time>
      </trkpt>
      <trkpt lat="59.924024" lon="17.7151892">
        <ele>47.2418</ele>
        <time>2014-06-04T14:16:03Z</time>
      </trkpt>
      <trkpt lat="59.9240066" lon="17.7151731">
        <ele>46.7612</ele>
        <time>2014-06-04T14:16:04Z</time>
      </trkpt>
      <trkpt lat="59.9239896" lon="17.7151533">
        <ele>45.7999</ele>
        <time>2014-06-04T14:16:05Z</time>
      </trkpt>
      <trkpt lat="59.9239673" lon="17.7151296">
        <ele>45.3192</ele>
        <time>2014-06-04T14:16:06Z</time>
      </trkpt>
      <trkpt lat="59.9239493" lon="17.7150866">
        <ele>44.8386</ele>
        <time>2014-06-04T14:16:07Z</time>
      </trkpt>
      <trkpt lat="59.9239305" lon="17.7150359">
        <ele>44.358</ele>
        <time>2014-06-04T14:16:08Z</time>
      </trkpt>
      <trkpt lat="59.9239134" lon="17.7150028">
        <ele>43.8773</ele>
        <time>2014-06-04T14:16:09Z</time>
      </trkpt>
      <trkpt lat="59.9238942" lon="17.7149743">
        <ele>43.3966</ele>
        <time>2014-06-04T14:16:10Z</time>
      </trkpt>
      <trkpt lat="59.9238807" lon="17.7149351">
        <ele>42.916</ele>
        <time>2014-06-04T14:16:11Z</time>
      </trkpt>
      <trkpt lat="59.9238654" lon="17.7149038">
        <ele>42.4354</ele>
        <time>2014-06-04T14:16:12Z</time>
      </trkpt>
      <trkpt lat="59.9238494" lon="17.7148716">
        <ele>41.9547</ele>
        <time>2014-06-04T14:16:13Z</time>
      </trkpt>
      <trkpt lat="59.9238307" lon="17.7148383">
        <ele>42.4354</ele>
        <time>2014-06-04T14:16:14Z</time>
      </trkpt>
      <trkpt lat="59.9238139" lon="17.714812">
        <ele>41.9547</ele>
        <time>2014-06-04T14:16:15Z</time>
      </trkpt>
      <trkpt lat="59.9237923" lon="17.7147861">
        <ele>42.4354</ele>
        <time>2014-06-04T14:16:16Z</time>
      </trkpt>
      <trkpt lat="59.9237747" lon="17.7147497">
        <ele>42.4354</ele>
        <time>2014-06-04T14:16:17Z</time>
      </trkpt>
      <trkpt lat="59.9237635" lon="17.7147194">
        <ele>42.916</ele>
        <time>2014-06-04T14:16:18Z</time>
      </trkpt>
      <trkpt lat="59.9237464" lon="17.714693">
        <ele>42.916</ele>
        <time>2014-06-04T14:16:19Z</time>
      </trkpt>
      <trkpt lat="59.9237193" lon="17.7146623">
        <ele>42.4354</ele>
        <time>2014-06-04T14:16:20Z</time>
      </trkpt>
      <trkpt lat="59.9236963" lon="17.7146148">
        <ele>42.4354</ele>
        <time>2014-06-04T14:16:21Z</time>
      </trkpt>
      <trkpt lat="59.9236769" lon="17.7145623">
        <ele>42.4354</ele>
        <time>2014-06-04T14:16:22Z</time>
      </trkpt>
      <trkpt lat="59.9236613" lon="17.7145231">
        <ele>42.4354</ele>
        <time>2014-06-04T14:16:23Z</time>
      </trkpt>
      <trkpt lat="59.9236453" lon="17.7144845">
        <ele>42.4354</ele>
        <time>2014-06-04T14:16:24Z</time>
      </trkpt>
      <trkpt lat="59.9236253" lon="17.7144286">
        <ele>43.3966</ele>
        <time>2014-06-04T14:16:25Z</time>
      </trkpt>
      <trkpt lat="59.9236055" lon="17.7143857">
        <ele>43.8773</ele>
        <time>2014-06-04T14:16:26Z</time>
      </trkpt>
      <trkpt lat="59.9235893" lon="17.7143369">
        <ele>44.8386</ele>
        <time>2014-06-04T14:16:27Z</time>
      </trkpt>
      <trkpt lat="59.9235712" lon="17.7142837">
        <ele>45.7999</ele>
        <time>2014-06-04T14:16:28Z</time>
      </trkpt>
      <trkpt lat="59.9235525" lon="17.7142586">
        <ele>46.2806</ele>
        <time>2014-06-04T14:16:29Z</time>
      </trkpt>
      <trkpt lat="59.9235298" lon="17.7142342">
        <ele>46.2806</ele>
        <time>2014-06-04T14:16:30Z</time>
      </trkpt>
      <trkpt lat="59.9235137" lon="17.7141996">
        <ele>47.2418</ele>
        <time>2014-06-04T14:16:31Z</time>
      </trkpt>
      <trkpt lat="59.9234993" lon="17.7141696">
        <ele>49.1646</ele>
        <time>2014-06-04T14:16:32Z</time>
      </trkpt>
      <trkpt lat="59.9234901" lon="17.7141252">
        <ele>51.0872</ele>
        <time>2014-06-04T14:16:33Z</time>
      </trkpt>
      <trkpt lat="59.9234816" lon="17.7140797">
        <ele>52.0486</ele>
        <time>2014-06-04T14:16:34Z</time>
      </trkpt>
      <trkpt lat="59.9234695" lon="17.7140454">
        <ele>53.0098</ele>
        <time>2014-06-04T14:16:35Z</time>
      </trkpt>
      <trkpt lat="59.9234484" lon="17.7140283">
        <ele>53.0098</ele>
        <time>2014-06-04T14:16:36Z</time>
      </trkpt>
      <trkpt lat="59.923428" lon="17.71402">
        <ele>53.4905</ele>
        <time>2014-06-04T14:16:37Z</time>
      </trkpt>
      <trkpt lat="59.923415" lon="17.7139925">
        <ele>53.9712</ele>
        <time>2014-06-04T14:16:38Z</time>
      </trkpt>
      <trkpt lat="59.9234017" lon="17.713963">
        <ele>53.9712</ele>
        <time>2014-06-04T14:16:39Z</time>
      </trkpt>
      <trkpt lat="59.9233852" lon="17.7139442">
        <ele>54.9324</ele>
        <time>2014-06-04T14:16:40Z</time>
      </trkpt>
      <trkpt lat="59.9233648" lon="17.7139356">
        <ele>53.9712</ele>
        <time>2014-06-04T14:16:41Z</time>
      </trkpt>
      <trkpt lat="59.9233437" lon="17.7139387">
        <ele>53.0098</ele>
        <time>2014-06-04T14:16:42Z</time>
      </trkpt>
      <trkpt lat="59.9233194" lon="17.7139396">
        <ele>52.5292</ele>
        <time>2014-06-04T14:16:43Z</time>
      </trkpt>
      <trkpt lat="59.923291" lon="17.7139354">
        <ele>52.5292</ele>
        <time>2014-06-04T14:16:44Z</time>
      </trkpt>
      <trkpt lat="59.9232644" lon="17.7139203">
        <ele>52.5292</ele>
        <time>2014-06-04T14:16:45Z</time>
      </trkpt>
      <trkpt lat="59.9232391" lon="17.7138979">
        <ele>52.0486</ele>
        <time>2014-06-04T14:16:46Z</time>
      </trkpt>
      <trkpt lat="59.9232163" lon="17.7138775">
        <ele>51.0872</ele>
        <time>2014-06-04T14:16:47Z</time>
      </trkpt>
      <trkpt lat="59.9231951" lon="17.7138588">
        <ele>51.0872</ele>
        <time>2014-06-04T14:16:48Z</time>
      </trkpt>
      <trkpt lat="59.9231726" lon="17.7138459">
        <ele>51.0872</ele>
        <time>2014-06-04T14:16:49Z</time>
      </trkpt>
      <trkpt lat="59.9231583" lon="17.7138222">
        <ele>51.5679</ele>
        <time>2014-06-04T14:16:50Z</time>
      </trkpt>
      <trkpt lat="59.9231458" lon="17.7137947">
        <ele>51.0872</ele>
        <time>2014-06-04T14:16:51Z</time>
      </trkpt>
      <trkpt lat="59.9231349" lon="17.7137675">
        <ele>51.0872</ele>
        <time>2014-06-04T14:16:52Z</time>
      </trkpt>
      <trkpt lat="59.923122" lon="17.7137486">
        <ele>51.5679</ele>
        <time>2014-06-04T14:16:53Z</time>
      </trkpt>
      <trkpt lat="59.923106" lon="17.7137307">
        <ele>51.0872</ele>
        <time>2014-06-04T14:16:54Z</time>
      </trkpt>
      <trkpt lat="59.9230897" lon="17.7137064">
        <ele>51.0872</ele>
        <time>2014-06-04T14:16:55Z</time>
      </trkpt>
      <trkpt lat="59.9230797" lon="17.7136658">
        <ele>52.0486</ele>
        <time>2014-06-04T14:16:56Z</time>
      </trkpt>
      <trkpt lat="59.9230723" lon="17.7136248">
        <ele>52.5292</ele>
        <time>2014-06-04T14:16:57Z</time>
      </trkpt>
      <trkpt lat="59.92306" lon="17.7135974">
        <ele>53.0098</ele>
        <time>2014-06-04T14:16:58Z</time>
      </trkpt>
      <trkpt lat="59.9230396" lon="17.7135624">
        <ele>53.4905</ele>
        <time>2014-06-04T14:16:59Z</time>
      </trkpt>
      <trkpt lat="59.9230108" lon="17.7135235">
        <ele>53.9712</ele>
        <time>2014-06-04T14:17:00Z</time>
      </trkpt>
      <trkpt lat="59.9229833" lon="17.7134942">
        <ele>54.4518</ele>
        <time>2014-06-04T14:17:01Z</time>
      </trkpt>
      <trkpt lat="59.9229576" lon="17.7134813">
        <ele>54.9324</ele>
        <time>2014-06-04T14:17:02Z</time>
      </trkpt>
      <trkpt lat="59.9229402" lon="17.7134542">
        <ele>55.8938</ele>
        <time>2014-06-04T14:17:03Z</time>
      </trkpt>
      <trkpt lat="59.9229255" lon="17.713421">
        <ele>56.3745</ele>
        <time>2014-06-04T14:17:04Z</time>
      </trkpt>
      <trkpt lat="59.9229076" lon="17.7133974">
        <ele>55.4131</ele>
        <time>2014-06-04T14:17:05Z</time>
      </trkpt>
      <trkpt lat="59.92289" lon="17.7133635">
        <ele>55.8938</ele>
        <time>2014-06-04T14:17:06Z</time>
      </trkpt>
      <trkpt lat="59.9228774" lon="17.7133259">
        <ele>55.4131</ele>
        <time>2014-06-04T14:17:07Z</time>
      </trkpt>
      <trkpt lat="59.9228666" lon="17.7132834">
        <ele>54.4518</ele>
        <time>2014-06-04T14:17:08Z</time>
      </trkpt>
      <trkpt lat="59.9228499" lon="17.7132544">
        <ele>53.4905</ele>
        <time>2014-06-04T14:17:09Z</time>
      </trkpt>
      <trkpt lat="59.9228314" lon="17.7132238">
        <ele>53.0098</ele>
        <time>2014-06-04T14:17:10Z</time>
      </trkpt>
      <trkpt lat="59.922819" lon="17.7131865">
        <ele>52.5292</ele>
        <time>2014-06-04T14:17:11Z</time>
      </trkpt>
      <trkpt lat="59.9228051" lon="17.7131451">
        <ele>52.5292</ele>
        <time>2014-06-04T14:17:12Z</time>
      </trkpt>
      <trkpt lat="59.9227929" lon="17.7131107">
        <ele>52.0486</ele>
        <time>2014-06-04T14:17:13Z</time>
      </trkpt>
      <trkpt lat="59.9227844" lon="17.7130689">
        <ele>52.0486</ele>
        <time>2014-06-04T14:17:14Z</time>
      </trkpt>
      <trkpt lat="59.9227662" lon="17.7130387">
        <ele>52.5292</ele>
        <time>2014-06-04T14:17:15Z</time>
      </trkpt>
      <trkpt lat="59.9227491" lon="17.713017">
        <ele>52.5292</ele>
        <time>2014-06-04T14:17:16Z</time>
      </trkpt>
      <trkpt lat="59.9227325" lon="17.7129963">
        <ele>52.5292</ele>
        <time>2014-06-04T14:17:17Z</time>
      </trkpt>
      <trkpt lat="59.9227207" lon="17.7129653">
        <ele>52.0486</ele>
        <time>2014-06-04T14:17:18Z</time>
      </trkpt>
      <trkpt lat="59.9227083" lon="17.7129383">
        <ele>52.0486</ele>
        <time>2014-06-04T14:17:19Z</time>
      </trkpt>
      <trkpt lat="59.9226977" lon="17.7129162">
        <ele>51.5679</ele>
        <time>2014-06-04T14:17:20Z</time>
      </trkpt>
      <trkpt lat="59.9226817" lon="17.7128895">
        <ele>51.5679</ele>
        <time>2014-06-04T14:17:21Z</time>
      </trkpt>
      <trkpt lat="59.922666" lon="17.7128566">
        <ele>51.5679</ele>
        <time>2014-06-04T14:17:22Z</time>
      </trkpt>
      <trkpt lat="59.9226511" lon="17.7128209">
        <ele>52.0486</ele>
        <time>2014-06-04T14:17:23Z</time>
      </trkpt>
      <trkpt lat="59.9226314" lon="17.7127804">
        <ele>52.0486</ele>
        <time>2014-06-04T14:17:24Z</time>
      </trkpt>
      <trkpt lat="59.9226154" lon="17.7127315">
        <ele>53.0098</ele>
        <time>2014-06-04T14:17:25Z</time>
      </trkpt>
      <trkpt lat="59.9226018" lon="17.7126695">
        <ele>53.4905</ele>
        <time>2014-06-04T14:17:26Z</time>
      </trkpt>
      <trkpt lat="59.9225943" lon="17.712595">
        <ele>53.9712</ele>
        <time>2014-06-04T14:17:27Z</time>
      </trkpt>
      <trkpt lat="59.9225921" lon="17.7125326">
        <ele>53.4905</ele>
        <time>2014-06-04T14:17:28Z</time>
      </trkpt>
      <trkpt lat="59.9226038" lon="17.7124804">
        <ele>53.9712</ele>
        <time>2014-06-04T14:17:29Z</time>
      </trkpt>
      <trkpt lat="59.9226129" lon="17.712426">
        <ele>53.4905</ele>
        <time>2014-06-04T14:17:30Z</time>
      </trkpt>
      <trkpt lat="59.9226211" lon="17.7123702">
        <ele>53.9712</ele>
        <time>2014-06-04T14:17:31Z</time>
      </trkpt>
      <trkpt lat="59.9226368" lon="17.7123302">
        <ele>53.4905</ele>
        <time>2014-06-04T14:17:32Z</time>
      </trkpt>
      <trkpt lat="59.9226538" lon="17.712301">
        <ele>53.4905</ele>
        <time>2014-06-04T14:17:33Z</time>
      </trkpt>
      <trkpt lat="59.9226713" lon="17.7122609">
        <ele>53.9712</ele>
        <time>2014-06-04T14:17:34Z</time>
      </trkpt>
      <trkpt lat="59.9226967" lon="17.7122374">
        <ele>54.9324</ele>
        <time>2014-06-04T14:17:35Z</time>
      </trkpt>
      <trkpt lat="59.9227245" lon="17.7122207">
        <ele>55.4131</ele>
        <time>2014-06-04T14:17:36Z</time>
      </trkpt>
      <trkpt lat="59.9227505" lon="17.7122007">
        <ele>55.4131</ele>
        <time>2014-06-04T14:17:37Z</time>
      </trkpt>
      <trkpt lat="59.9227763" lon="17.712195">
        <ele>55.4131</ele>
        <time>2014-06-04T14:17:38Z</time>
      </trkpt>
      <trkpt lat="59.9227969" lon="17.7121877">
        <ele>54.9324</ele>
        <time>2014-06-04T14:17:39Z</time>
      </trkpt>
      <trkpt lat="59.9228168" lon="17.7121628">
        <ele>55.4131</ele>
        <time>2014-06-04T14:17:40Z</time>
      </trkpt>
      <trkpt lat="59.9228319" lon="17.71214">
        <ele>55.4131</ele>
        <time>2014-06-04T14:17:41Z</time>
      </trkpt>
      <trkpt lat="59.9228475" lon="17.7121052">
        <ele>56.3745</ele>
        <time>2014-06-04T14:17:42Z</time>
      </trkpt>
      <trkpt lat="59.9228603" lon="17.7120644">
        <ele>55.8938</ele>
        <time>2014-06-04T14:17:43Z</time>
      </trkpt>
      <trkpt lat="59.9228711" lon="17.7120204">
        <ele>55.4131</ele>
        <time>2014-06-04T14:17:44Z</time>
      </trkpt>
      <trkpt lat="59.9228806" lon="17.7119661">
        <ele>55.4131</ele>
        <time>2014-06-04T14:17:45Z</time>
      </trkpt>
      <trkpt lat="59.9228868" lon="17.7119051">
        <ele>55.4131</ele>
        <time>2014-06-04T14:17:46Z</time>
      </trkpt>
      <trkpt lat="59.9228939" lon="17.7118376">
        <ele>55.4131</ele>
        <time>2014-06-04T14:17:47Z</time>
      </trkpt>
      <trkpt lat="59.9228972" lon="17.7117915">
        <ele>55.4131</ele>
        <time>2014-06-04T14:17:48Z</time>
      </trkpt>
      <trkpt lat="59.9229035" lon="17.7117411">
        <ele>54.4518</ele>
        <time>2014-06-04T14:17:49Z</time>
      </trkpt>
      <trkpt lat="59.9229081" lon="17.7116852">
        <ele>54.9324</ele>
        <time>2014-06-04T14:17:50Z</time>
      </trkpt>
      <trkpt lat="59.9229106" lon="17.7116269">
        <ele>54.4518</ele>
        <time>2014-06-04T14:17:51Z</time>
      </trkpt>
      <trkpt lat="59.9229159" lon="17.7115719">
        <ele>54.4518</ele>
        <time>2014-06-04T14:17:52Z</time>
      </trkpt>
      <trkpt lat="59.9229226" lon="17.7115235">
        <ele>54.4518</ele>
        <time>2014-06-04T14:17:53Z</time>
      </trkpt>
      <trkpt lat="59.9229234" lon="17.711486">
        <ele>54.9324</ele>
        <time>2014-06-04T14:17:54Z</time>
      </trkpt>
      <trkpt lat="59.9229274" lon="17.7114403">
        <ele>55.4131</ele>
        <time>2014-06-04T14:17:55Z</time>
      </trkpt>
      <trkpt lat="59.922935" lon="17.7113849">
        <ele>56.8551</ele>
        <time>2014-06-04T14:17:56Z</time>
      </trkpt>
      <trkpt lat="59.9229387" lon="17.7113454">
        <ele>56.8551</ele>
        <time>2014-06-04T14:17:57Z</time>
      </trkpt>
      <trkpt lat="59.9229475" lon="17.7113144">
        <ele>56.8551</ele>
        <time>2014-06-04T14:17:58Z</time>
      </trkpt>
      <trkpt lat="59.9229568" lon="17.7112787">
        <ele>56.8551</ele>
        <time>2014-06-04T14:17:59Z</time>
      </trkpt>
      <trkpt lat="59.9229638" lon="17.711245">
        <ele>56.3745</ele>
        <time>2014-06-04T14:18:00Z</time>
      </trkpt>
      <trkpt lat="59.9229677" lon="17.7112027">
        <ele>56.3745</ele>
        <time>2014-06-04T14:18:01Z</time>
      </trkpt>
      <trkpt lat="59.9229681" lon="17.7111574">
        <ele>56.3745</ele>
        <time>2014-06-04T14:18:02Z</time>
      </trkpt>
      <trkpt lat="59.922967" lon="17.7111062">
        <ele>56.3745</ele>
        <time>2014-06-04T14:18:03Z</time>
      </trkpt>
      <trkpt lat="59.9229625" lon="17.7110616">
        <ele>55.4131</ele>
        <time>2014-06-04T14:18:04Z</time>
      </trkpt>
      <trkpt lat="59.9229531" lon="17.7109957">
        <ele>55.8938</ele>
        <time>2014-06-04T14:18:05Z</time>
      </trkpt>
      <trkpt lat="59.9229449" lon="17.7109404">
        <ele>55.4131</ele>
        <time>2014-06-04T14:18:06Z</time>
      </trkpt>
      <trkpt lat="59.922937" lon="17.7109022">
        <ele>54.9324</ele>
        <time>2014-06-04T14:18:07Z</time>
      </trkpt>
      <trkpt lat="59.9229291" lon="17.7108658">
        <ele>54.4518</ele>
        <time>2014-06-04T14:18:08Z</time>
      </trkpt>
      <trkpt lat="59.9229229" lon="17.7108218">
        <ele>53.9712</ele>
        <time>2014-06-04T14:18:09Z</time>
      </trkpt>
      <trkpt lat="59.9229112" lon="17.7107798">
        <ele>53.4905</ele>
        <time>2014-06-04T14:18:10Z</time>
      </trkpt>
      <trkpt lat="59.922897" lon="17.7107594">
        <ele>52.5292</ele>
        <time>2014-06-04T14:18:11Z</time>
      </trkpt>
      <trkpt lat="59.9228865" lon="17.7107349">
        <ele>52.5292</ele>
        <time>2014-06-04T14:18:12Z</time>
      </trkpt>
      <trkpt lat="59.922877" lon="17.7107116">
        <ele>51.5679</ele>
        <time>2014-06-04T14:18:13Z</time>
      </trkpt>
      <trkpt lat="59.9228701" lon="17.7106751">
        <ele>51.5679</ele>
        <time>2014-06-04T14:18:14Z</time>
      </trkpt>
      <trkpt lat="59.9228659" lon="17.7106406">
        <ele>51.5679</ele>
        <time>2014-06-04T14:18:15Z</time>
      </trkpt>
      <trkpt lat="59.9228632" lon="17.7106">
        <ele>51.5679</ele>
        <time>2014-06-04T14:18:16Z</time>
      </trkpt>
      <trkpt lat="59.9228605" lon="17.710555">
        <ele>51.0872</ele>
        <time>2014-06-04T14:18:17Z</time>
      </trkpt>
      <trkpt lat="59.9228603" lon="17.7105113">
        <ele>50.6066</ele>
        <time>2014-06-04T14:18:18Z</time>
      </trkpt>
      <trkpt lat="59.9228547" lon="17.7104712">
        <ele>50.6066</ele>
        <time>2014-06-04T14:18:19Z</time>
      </trkpt>
      <trkpt lat="59.9228527" lon="17.7104168">
        <ele>49.6453</ele>
        <time>2014-06-04T14:18:20Z</time>
      </trkpt>
      <trkpt lat="59.9228496" lon="17.710358">
        <ele>49.6453</ele>
        <time>2014-06-04T14:18:21Z</time>
      </trkpt>
      <trkpt lat="59.922846" lon="17.7103032">
        <ele>49.6453</ele>
        <time>2014-06-04T14:18:22Z</time>
      </trkpt>
      <trkpt lat="59.9228423" lon="17.7102423">
        <ele>49.1646</ele>
        <time>2014-06-04T14:18:23Z</time>
      </trkpt>
      <trkpt lat="59.9228412" lon="17.7101841">
        <ele>50.126</ele>
        <time>2014-06-04T14:18:24Z</time>
      </trkpt>
      <trkpt lat="59.9228371" lon="17.7101277">
        <ele>50.6066</ele>
        <time>2014-06-04T14:18:25Z</time>
      </trkpt>
      <trkpt lat="59.9228292" lon="17.7100824">
        <ele>50.6066</ele>
        <time>2014-06-04T14:18:26Z</time>
      </trkpt>
      <trkpt lat="59.9228238" lon="17.7100453">
        <ele>50.126</ele>
        <time>2014-06-04T14:18:27Z</time>
      </trkpt>
      <trkpt lat="59.9228154" lon="17.710004">
        <ele>49.6453</ele>
        <time>2014-06-04T14:18:28Z</time>
      </trkpt>
      <trkpt lat="59.92281" lon="17.709955">
        <ele>49.1646</ele>
        <time>2014-06-04T14:18:29Z</time>
      </trkpt>
      <trkpt lat="59.9228138" lon="17.7099152">
        <ele>48.684</ele>
        <time>2014-06-04T14:18:30Z</time>
      </trkpt>
      <trkpt lat="59.9228247" lon="17.7098838">
        <ele>48.684</ele>
        <time>2014-06-04T14:18:31Z</time>
      </trkpt>
      <trkpt lat="59.9228312" lon="17.7098511">
        <ele>49.1646</ele>
        <time>2014-06-04T14:18:32Z</time>
      </trkpt>
      <trkpt lat="59.9228315" lon="17.7098141">
        <ele>48.2034</ele>
        <time>2014-06-04T14:18:33Z</time>
      </trkpt>
      <trkpt lat="59.9228386" lon="17.7097708">
        <ele>48.684</ele>
        <time>2014-06-04T14:18:34Z</time>
      </trkpt>
      <trkpt lat="59.9228433" lon="17.7097288">
        <ele>48.2034</ele>
        <time>2014-06-04T14:18:35Z</time>
      </trkpt>
      <trkpt lat="59.9228449" lon="17.7096853">
        <ele>47.7225</ele>
        <time>2014-06-04T14:18:36Z</time>
      </trkpt>
      <trkpt lat="59.9228442" lon="17.7096366">
        <ele>47.7225</ele>
        <time>2014-06-04T14:18:37Z</time>
      </trkpt>
      <trkpt lat="59.9228359" lon="17.7095847">
        <ele>48.2034</ele>
        <time>2014-06-04T14:18:38Z</time>
      </trkpt>
      <trkpt lat="59.922829" lon="17.7095455">
        <ele>48.2034</ele>
        <time>2014-06-04T14:18:39Z</time>
      </trkpt>
      <trkpt lat="59.9228206" lon="17.7095136">
        <ele>47.7225</ele>
        <time>2014-06-04T14:18:40Z</time>
      </trkpt>
      <trkpt lat="59.9228157" lon="17.709463">
        <ele>48.2034</ele>
        <time>2014-06-04T14:18:41Z</time>
      </trkpt>
      <trkpt lat="59.9228127" lon="17.7094103">
        <ele>47.7225</ele>
        <time>2014-06-04T14:18:42Z</time>
      </trkpt>
      <trkpt lat="59.9228046" lon="17.7093745">
        <ele>47.7225</ele>
        <time>2014-06-04T14:18:43Z</time>
      </trkpt>
      <trkpt lat="59.9227998" lon="17.7093251">
        <ele>47.2418</ele>
        <time>2014-06-04T14:18:44Z</time>
      </trkpt>
      <trkpt lat="59.9227952" lon="17.709272">
        <ele>46.7612</ele>
        <time>2014-06-04T14:18:45Z</time>
      </trkpt>
      <trkpt lat="59.9227915" lon="17.709227">
        <ele>46.7612</ele>
        <time>2014-06-04T14:18:46Z</time>
      </trkpt>
      <trkpt lat="59.9227955" lon="17.7091775">
        <ele>46.2806</ele>
        <time>2014-06-04T14:18:47Z</time>
      </trkpt>
      <trkpt lat="59.9227998" lon="17.7091309">
        <ele>46.2806</ele>
        <time>2014-06-04T14:18:48Z</time>
      </trkpt>
      <trkpt lat="59.9228009" lon="17.7090828">
        <ele>46.7612</ele>
        <time>2014-06-04T14:18:49Z</time>
      </trkpt>
      <trkpt lat="59.9228" lon="17.7090393">
        <ele>46.7612</ele>
        <time>2014-06-04T14:18:50Z</time>
      </trkpt>
      <trkpt lat="59.9227888" lon="17.7089989">
        <ele>46.2806</ele>
        <time>2014-06-04T14:18:51Z</time>
      </trkpt>
      <trkpt lat="59.9227828" lon="17.7089509">
        <ele>45.7999</ele>
        <time>2014-06-04T14:18:52Z</time>
      </trkpt>
      <trkpt lat="59.9227734" lon="17.7089187">
        <ele>45.3192</ele>
        <time>2014-06-04T14:18:53Z</time>
      </trkpt>
      <trkpt lat="59.9227635" lon="17.7088865">
        <ele>44.8386</ele>
        <time>2014-06-04T14:18:54Z</time>
      </trkpt>
      <trkpt lat="59.9227484" lon="17.7088503">
        <ele>44.358</ele>
        <time>2014-06-04T14:18:55Z</time>
      </trkpt>
      <trkpt lat="59.9227309" lon="17.7088164">
        <ele>43.8773</ele>
        <time>2014-06-04T14:18:56Z</time>
      </trkpt>
      <trkpt lat="59.9227118" lon="17.7087801">
        <ele>43.3966</ele>
        <time>2014-06-04T14:18:57Z</time>
      </trkpt>
      <trkpt lat="59.9226973" lon="17.7087461">
        <ele>43.3966</ele>
        <time>2014-06-04T14:18:58Z</time>
      </trkpt>
      <trkpt lat="59.9226881" lon="17.708712">
        <ele>43.8773</ele>
        <time>2014-06-04T14:18:59Z</time>
      </trkpt>
      <trkpt lat="59.9226696" lon="17.7086985">
        <ele>43.3966</ele>
        <time>2014-06-04T14:19:00Z</time>
      </trkpt>
      <trkpt lat="59.9226476" lon="17.7086747">
        <ele>43.3966</ele>
        <time>2014-06-04T14:19:01Z</time>
      </trkpt>
      <trkpt lat="59.9226233" lon="17.7086555">
        <ele>43.8773</ele>
        <time>2014-06-04T14:19:02Z</time>
      </trkpt>
      <trkpt lat="59.9226026" lon="17.7086399">
        <ele>44.358</ele>
        <time>2014-06-04T14:19:03Z</time>
      </trkpt>
      <trkpt lat="59.9225859" lon="17.7086121">
        <ele>44.358</ele>
        <time>2014-06-04T14:19:04Z</time>
      </trkpt>
      <trkpt lat="59.9225693" lon="17.7085782">
        <ele>44.8386</ele>
        <time>2014-06-04T14:19:05Z</time>
      </trkpt>
      <trkpt lat="59.9225465" lon="17.708555">
        <ele>44.358</ele>
        <time>2014-06-04T14:19:06Z</time>
      </trkpt>
      <trkpt lat="59.9225196" lon="17.7085462">
        <ele>44.358</ele>
        <time>2014-06-04T14:19:07Z</time>
      </trkpt>
      <trkpt lat="59.9224958" lon="17.7085304">
        <ele>44.8386</ele>
        <time>2014-06-04T14:19:08Z</time>
      </trkpt>
      <trkpt lat="59.922474" lon="17.708508">
        <ele>45.3192</ele>
        <time>2014-06-04T14:19:09Z</time>
      </trkpt>
      <trkpt lat="59.9224605" lon="17.7084939">
        <ele>45.3192</ele>
        <time>2014-06-04T14:19:10Z</time>
      </trkpt>
      <trkpt lat="59.92245" lon="17.7084652">
        <ele>45.7999</ele>
        <time>2014-06-04T14:19:11Z</time>
      </trkpt>
      <trkpt lat="59.9224366" lon="17.7084301">
        <ele>45.7999</ele>
        <time>2014-06-04T14:19:12Z</time>
      </trkpt>
      <trkpt lat="59.9224243" lon="17.7083891">
        <ele>46.2806</ele>
        <time>2014-06-04T14:19:13Z</time>
      </trkpt>
      <trkpt lat="59.922417" lon="17.7083541">
        <ele>46.2806</ele>
        <time>2014-06-04T14:19:14Z</time>
      </trkpt>
      <trkpt lat="59.9224054" lon="17.7083142">
        <ele>46.2806</ele>
        <time>2014-06-04T14:19:15Z</time>
      </trkpt>
      <trkpt lat="59.9224019" lon="17.7082488">
        <ele>46.2806</ele>
        <time>2014-06-04T14:19:16Z</time>
      </trkpt>
      <trkpt lat="59.9223861" lon="17.7081892">
        <ele>46.7612</ele>
        <time>2014-06-04T14:19:17Z</time>
      </trkpt>
      <trkpt lat="59.9223714" lon="17.7081276">
        <ele>47.7225</ele>
        <time>2014-06-04T14:19:18Z</time>
      </trkpt>
      <trkpt lat="59.9223605" lon="17.7080497">
        <ele>48.2034</ele>
        <time>2014-06-04T14:19:19Z</time>
      </trkpt>
      <trkpt lat="59.9223472" lon="17.7079639">
        <ele>49.1646</ele>
        <time>2014-06-04T14:19:20Z</time>
      </trkpt>
      <trkpt lat="59.9223373" lon="17.7079028">
        <ele>49.1646</ele>
        <time>2014-06-04T14:19:21Z</time>
      </trkpt>
      <trkpt lat="59.9223316" lon="17.7078423">
        <ele>49.1646</ele>
        <time>2014-06-04T14:19:22Z</time>
      </trkpt>
      <trkpt lat="59.9223267" lon="17.7077749">
        <ele>49.6453</ele>
        <time>2014-06-04T14:19:23Z</time>
      </trkpt>
      <trkpt lat="59.9223222" lon="17.7077231">
        <ele>50.126</ele>
        <time>2014-06-04T14:19:24Z</time>
      </trkpt>
      <trkpt lat="59.9223217" lon="17.7076804">
        <ele>50.6066</ele>
        <time>2014-06-04T14:19:25Z</time>
      </trkpt>
      <trkpt lat="59.9223171" lon="17.7076379">
        <ele>51.0872</ele>
        <time>2014-06-04T14:19:26Z</time>
      </trkpt>
      <trkpt lat="59.9223141" lon="17.7075818">
        <ele>51.5679</ele>
        <time>2014-06-04T14:19:27Z</time>
      </trkpt>
      <trkpt lat="59.9223185" lon="17.707524">
        <ele>52.0486</ele>
        <time>2014-06-04T14:19:28Z</time>
      </trkpt>
      <trkpt lat="59.9223097" lon="17.7074471">
        <ele>53.0098</ele>
        <time>2014-06-04T14:19:29Z</time>
      </trkpt>
      <trkpt lat="59.9223052" lon="17.7073816">
        <ele>53.4905</ele>
        <time>2014-06-04T14:19:30Z</time>
      </trkpt>
      <trkpt lat="59.9222984" lon="17.7073226">
        <ele>53.4905</ele>
        <time>2014-06-04T14:19:31Z</time>
      </trkpt>
      <trkpt lat="59.9222855" lon="17.7072549">
        <ele>54.9324</ele>
        <time>2014-06-04T14:19:32Z</time>
      </trkpt>
      <trkpt lat="59.922276" lon="17.7071854">
        <ele>54.9324</ele>
        <time>2014-06-04T14:19:33Z</time>
      </trkpt>
      <trkpt lat="59.9222694" lon="17.7071221">
        <ele>55.4131</ele>
        <time>2014-06-04T14:19:34Z</time>
      </trkpt>
      <trkpt lat="59.9222625" lon="17.7070546">
        <ele>55.8938</ele>
        <time>2014-06-04T14:19:35Z</time>
      </trkpt>
      <trkpt lat="59.9222632" lon="17.7070021">
        <ele>56.3745</ele>
        <time>2014-06-04T14:19:36Z</time>
      </trkpt>
      <trkpt lat="59.9222626" lon="17.7069469">
        <ele>56.8551</ele>
        <time>2014-06-04T14:19:37Z</time>
      </trkpt>
      <trkpt lat="59.9222642" lon="17.7068922">
        <ele>56.8551</ele>
        <time>2014-06-04T14:19:38Z</time>
      </trkpt>
      <trkpt lat="59.9222663" lon="17.7068445">
        <ele>56.3745</ele>
        <time>2014-06-04T14:19:39Z</time>
      </trkpt>
      <trkpt lat="59.9222737" lon="17.7068005">
        <ele>55.4131</ele>
        <time>2014-06-04T14:19:40Z</time>
      </trkpt>
      <trkpt lat="59.9222786" lon="17.7067647">
        <ele>55.8938</ele>
        <time>2014-06-04T14:19:41Z</time>
      </trkpt>
      <trkpt lat="59.9222801" lon="17.7067228">
        <ele>55.4131</ele>
        <time>2014-06-04T14:19:42Z</time>
      </trkpt>
      <trkpt lat="59.9222834" lon="17.706678">
        <ele>54.4518</ele>
        <time>2014-06-04T14:19:43Z</time>
      </trkpt>
      <trkpt lat="59.9222837" lon="17.7066387">
        <ele>53.9712</ele>
        <time>2014-06-04T14:19:44Z</time>
      </trkpt>
      <trkpt lat="59.9222777" lon="17.706598">
        <ele>53.4905</ele>
        <time>2014-06-04T14:19:45Z</time>
      </trkpt>
      <trkpt lat="59.9222719" lon="17.7065571">
        <ele>53.0098</ele>
        <time>2014-06-04T14:19:46Z</time>
      </trkpt>
      <trkpt lat="59.9222716" lon="17.7065019">
        <ele>53.0098</ele>
        <time>2014-06-04T14:19:47Z</time>
      </trkpt>
      <trkpt lat="59.9222682" lon="17.7064387">
        <ele>52.5292</ele>
        <time>2014-06-04T14:19:48Z</time>
      </trkpt>
      <trkpt lat="59.9222664" lon="17.7063828">
        <ele>53.0098</ele>
        <time>2014-06-04T14:19:49Z</time>
      </trkpt>
      <trkpt lat="59.9222687" lon="17.7063323">
        <ele>53.0098</ele>
        <time>2014-06-04T14:19:50Z</time>
      </trkpt>
      <trkpt lat="59.922272" lon="17.7062783">
        <ele>53.0098</ele>
        <time>2014-06-04T14:19:51Z</time>
      </trkpt>
      <trkpt lat="59.922275" lon="17.7062281">
        <ele>53.0098</ele>
        <time>2014-06-04T14:19:52Z</time>
      </trkpt>
      <trkpt lat="59.9222798" lon="17.7061805">
        <ele>53.0098</ele>
        <time>2014-06-04T14:19:53Z</time>
      </trkpt>
      <trkpt lat="59.9222839" lon="17.7061448">
        <ele>52.5292</ele>
        <time>2014-06-04T14:19:54Z</time>
      </trkpt>
      <trkpt lat="59.9222884" lon="17.7060965">
        <ele>52.5292</ele>
        <time>2014-06-04T14:19:55Z</time>
      </trkpt>
      <trkpt lat="59.9222901" lon="17.7060539">
        <ele>52.0486</ele>
        <time>2014-06-04T14:19:56Z</time>
      </trkpt>
      <trkpt lat="59.9222943" lon="17.7060124">
        <ele>51.5679</ele>
        <time>2014-06-04T14:19:57Z</time>
      </trkpt>
      <trkpt lat="59.9222989" lon="17.7059577">
        <ele>51.0872</ele>
        <time>2014-06-04T14:19:58Z</time>
      </trkpt>
      <trkpt lat="59.922302" lon="17.7059112">
        <ele>50.6066</ele>
        <time>2014-06-04T14:19:59Z</time>
      </trkpt>
      <trkpt lat="59.9222935" lon="17.7058686">
        <ele>50.126</ele>
        <time>2014-06-04T14:20:00Z</time>
      </trkpt>
      <trkpt lat="59.9222844" lon="17.7058335">
        <ele>50.126</ele>
        <time>2014-06-04T14:20:01Z</time>
      </trkpt>
      <trkpt lat="59.9222808" lon="17.7057972">
        <ele>50.6066</ele>
        <time>2014-06-04T14:20:02Z</time>
      </trkpt>
      <trkpt lat="59.9222787" lon="17.7057551">
        <ele>50.126</ele>
        <time>2014-06-04T14:20:03Z</time>
      </trkpt>
      <trkpt lat="59.9222741" lon="17.7056998">
        <ele>51.0872</ele>
        <time>2014-06-04T14:20:04Z</time>
      </trkpt>
      <trkpt lat="59.922261" lon="17.7056612">
        <ele>50.6066</ele>
        <time>2014-06-04T14:20:05Z</time>
      </trkpt>
      <trkpt lat="59.9222455" lon="17.7056059">
        <ele>51.5679</ele>
        <time>2014-06-04T14:20:06Z</time>
      </trkpt>
      <trkpt lat="59.9222371" lon="17.7055479">
        <ele>52.0486</ele>
        <time>2014-06-04T14:20:07Z</time>
      </trkpt>
      <trkpt lat="59.9222258" lon="17.705506">
        <ele>52.5292</ele>
        <time>2014-06-04T14:20:08Z</time>
      </trkpt>
      <trkpt lat="59.9222213" lon="17.7054538">
        <ele>53.4905</ele>
        <time>2014-06-04T14:20:09Z</time>
      </trkpt>
      <trkpt lat="59.9222213" lon="17.7054056">
        <ele>53.0098</ele>
        <time>2014-06-04T14:20:10Z</time>
      </trkpt>
      <trkpt lat="59.9222247" lon="17.7053693">
        <ele>52.0486</ele>
        <time>2014-06-04T14:20:11Z</time>
      </trkpt>
      <trkpt lat="59.9222236" lon="17.7053227">
        <ele>52.0486</ele>
        <time>2014-06-04T14:20:12Z</time>
      </trkpt>
      <trkpt lat="59.9222181" lon="17.705275">
        <ele>51.5679</ele>
        <time>2014-06-04T14:20:13Z</time>
      </trkpt>
      <trkpt lat="59.9222129" lon="17.7052352">
        <ele>51.0872</ele>
        <time>2014-06-04T14:20:14Z</time>
      </trkpt>
      <trkpt lat="59.9222024" lon="17.7051751">
        <ele>51.5679</ele>
        <time>2014-06-04T14:20:15Z</time>
      </trkpt>
      <trkpt lat="59.9221882" lon="17.7051248">
        <ele>51.5679</ele>
        <time>2014-06-04T14:20:16Z</time>
      </trkpt>
      <trkpt lat="59.9221756" lon="17.7050848">
        <ele>51.5679</ele>
        <time>2014-06-04T14:20:17Z</time>
      </trkpt>
      <trkpt lat="59.9221626" lon="17.7050258">
        <ele>53.0098</ele>
        <time>2014-06-04T14:20:18Z</time>
      </trkpt>
      <trkpt lat="59.9221523" lon="17.7049698">
        <ele>53.0098</ele>
        <time>2014-06-04T14:20:19Z</time>
      </trkpt>
      <trkpt lat="59.9221472" lon="17.704922">
        <ele>53.0098</ele>
        <time>2014-06-04T14:20:20Z</time>
      </trkpt>
      <trkpt lat="59.9221446" lon="17.7048865">
        <ele>52.0486</ele>
        <time>2014-06-04T14:20:21Z</time>
      </trkpt>
      <trkpt lat="59.9221431" lon="17.704852">
        <ele>51.0872</ele>
        <time>2014-06-04T14:20:22Z</time>
      </trkpt>
      <trkpt lat="59.9221385" lon="17.7048063">
        <ele>50.6066</ele>
        <time>2014-06-04T14:20:23Z</time>
      </trkpt>
      <trkpt lat="59.9221299" lon="17.7047428">
        <ele>51.5679</ele>
        <time>2014-06-04T14:20:24Z</time>
      </trkpt>
      <trkpt lat="59.9221165" lon="17.7046761">
        <ele>51.0872</ele>
        <time>2014-06-04T14:20:25Z</time>
      </trkpt>
      <trkpt lat="59.9221051" lon="17.704614">
        <ele>51.5679</ele>
        <time>2014-06-04T14:20:26Z</time>
      </trkpt>
      <trkpt lat="59.9221005" lon="17.7045637">
        <ele>51.5679</ele>
        <time>2014-06-04T14:20:27Z</time>
      </trkpt>
      <trkpt lat="59.9220999" lon="17.7045183">
        <ele>51.5679</ele>
        <time>2014-06-04T14:20:28Z</time>
      </trkpt>
      <trkpt lat="59.922097" lon="17.7044762">
        <ele>51.0872</ele>
        <time>2014-06-04T14:20:29Z</time>
      </trkpt>
      <trkpt lat="59.9221005" lon="17.7044352">
        <ele>50.6066</ele>
        <time>2014-06-04T14:20:30Z</time>
      </trkpt>
      <trkpt lat="59.9221021" lon="17.7043835">
        <ele>50.6066</ele>
        <time>2014-06-04T14:20:31Z</time>
      </trkpt>
      <trkpt lat="59.9221029" lon="17.7043378">
        <ele>50.6066</ele>
        <time>2014-06-04T14:20:32Z</time>
      </trkpt>
      <trkpt lat="59.9220964" lon="17.7042897">
        <ele>50.6066</ele>
        <time>2014-06-04T14:20:33Z</time>
      </trkpt>
      <trkpt lat="59.9220895" lon="17.7042372">
        <ele>50.126</ele>
        <time>2014-06-04T14:20:34Z</time>
      </trkpt>
      <trkpt lat="59.9220786" lon="17.7041839">
        <ele>50.126</ele>
        <time>2014-06-04T14:20:35Z</time>
      </trkpt>
      <trkpt lat="59.9220731" lon="17.7041261">
        <ele>50.126</ele>
        <time>2014-06-04T14:20:36Z</time>
      </trkpt>
      <trkpt lat="59.9220663" lon="17.7040683">
        <ele>50.126</ele>
        <time>2014-06-04T14:20:37Z</time>
      </trkpt>
      <trkpt lat="59.9220529" lon="17.7040175">
        <ele>50.6066</ele>
        <time>2014-06-04T14:20:38Z</time>
      </trkpt>
      <trkpt lat="59.9220439" lon="17.7039689">
        <ele>50.126</ele>
        <time>2014-06-04T14:20:39Z</time>
      </trkpt>
      <trkpt lat="59.9220316" lon="17.7039078">
        <ele>50.126</ele>
        <time>2014-06-04T14:20:40Z</time>
      </trkpt>
      <trkpt lat="59.9220171" lon="17.7038577">
        <ele>50.126</ele>
        <time>2014-06-04T14:20:41Z</time>
      </trkpt>
      <trkpt lat="59.922" lon="17.7038052">
        <ele>50.126</ele>
        <time>2014-06-04T14:20:42Z</time>
      </trkpt>
      <trkpt lat="59.9219819" lon="17.7037459">
        <ele>50.6066</ele>
        <time>2014-06-04T14:20:43Z</time>
      </trkpt>
      <trkpt lat="59.9219716" lon="17.703708">
        <ele>50.126</ele>
        <time>2014-06-04T14:20:44Z</time>
      </trkpt>
      <trkpt lat="59.9219597" lon="17.7036733">
        <ele>49.6453</ele>
        <time>2014-06-04T14:20:45Z</time>
      </trkpt>
      <trkpt lat="59.9219499" lon="17.7036373">
        <ele>49.6453</ele>
        <time>2014-06-04T14:20:46Z</time>
      </trkpt>
      <trkpt lat="59.9219509" lon="17.7036172">
        <ele>49.6453</ele>
        <time>2014-06-04T14:20:47Z</time>
      </trkpt>
      <trkpt lat="59.921955" lon="17.7035884">
        <ele>48.684</ele>
        <time>2014-06-04T14:20:48Z</time>
      </trkpt>
      <trkpt lat="59.9219603" lon="17.7035534">
        <ele>48.2034</ele>
        <time>2014-06-04T14:20:49Z</time>
      </trkpt>
      <trkpt lat="59.9219616" lon="17.703513">
        <ele>48.684</ele>
        <time>2014-06-04T14:20:50Z</time>
      </trkpt>
      <trkpt lat="59.9219592" lon="17.7034672">
        <ele>48.684</ele>
        <time>2014-06-04T14:20:51Z</time>
      </trkpt>
      <trkpt lat="59.9219584" lon="17.7034398">
        <ele>48.684</ele>
        <time>2014-06-04T14:20:52Z</time>
      </trkpt>
      <trkpt lat="59.9219584" lon="17.7034127">
        <ele>48.684</ele>
        <time>2014-06-04T14:20:53Z</time>
      </trkpt>
      <trkpt lat="59.9219576" lon="17.7033837">
        <ele>48.2034</ele>
        <time>2014-06-04T14:20:54Z</time>
      </trkpt>
      <trkpt lat="59.9219654" lon="17.7033441">
        <ele>47.7225</ele>
        <time>2014-06-04T14:20:55Z</time>
      </trkpt>
      <trkpt lat="59.9219727" lon="17.7032918">
        <ele>47.7225</ele>
        <time>2014-06-04T14:20:56Z</time>
      </trkpt>
      <trkpt lat="59.9219713" lon="17.7032465">
        <ele>47.7225</ele>
        <time>2014-06-04T14:20:57Z</time>
      </trkpt>
      <trkpt lat="59.9219652" lon="17.7032102">
        <ele>47.7225</ele>
        <time>2014-06-04T14:20:58Z</time>
      </trkpt>
      <trkpt lat="59.9219537" lon="17.7031816">
        <ele>47.2418</ele>
        <time>2014-06-04T14:20:59Z</time>
      </trkpt>
      <trkpt lat="59.9219439" lon="17.7031429">
        <ele>47.2418</ele>
        <time>2014-06-04T14:21:00Z</time>
      </trkpt>
      <trkpt lat="59.921939" lon="17.7031117">
        <ele>46.7612</ele>
        <time>2014-06-04T14:21:01Z</time>
      </trkpt>
      <trkpt lat="59.9219273" lon="17.7030689">
        <ele>46.2806</ele>
        <time>2014-06-04T14:21:02Z</time>
      </trkpt>
      <trkpt lat="59.921915" lon="17.7030165">
        <ele>46.2806</ele>
        <time>2014-06-04T14:21:03Z</time>
      </trkpt>
      <trkpt lat="59.9218995" lon="17.7029772">
        <ele>45.7999</ele>
        <time>2014-06-04T14:21:04Z</time>
      </trkpt>
      <trkpt lat="59.9218838" lon="17.7029406">
        <ele>45.7999</ele>
        <time>2014-06-04T14:21:05Z</time>
      </trkpt>
      <trkpt lat="59.9218617" lon="17.7029026">
        <ele>45.7999</ele>
        <time>2014-06-04T14:21:06Z</time>
      </trkpt>
      <trkpt lat="59.9218382" lon="17.7028652">
        <ele>45.7999</ele>
        <time>2014-06-04T14:21:07Z</time>
      </trkpt>
      <trkpt lat="59.9218182" lon="17.7028183">
        <ele>45.3192</ele>
        <time>2014-06-04T14:21:08Z</time>
      </trkpt>
      <trkpt lat="59.9217944" lon="17.7027832">
        <ele>45.3192</ele>
        <time>2014-06-04T14:21:09Z</time>
      </trkpt>
      <trkpt lat="59.9217695" lon="17.7027533">
        <ele>45.3192</ele>
        <time>2014-06-04T14:21:10Z</time>
      </trkpt>
      <trkpt lat="59.9217505" lon="17.7027191">
        <ele>44.8386</ele>
        <time>2014-06-04T14:21:11Z</time>
      </trkpt>
      <trkpt lat="59.9217294" lon="17.7026948">
        <ele>45.7999</ele>
        <time>2014-06-04T14:21:12Z</time>
      </trkpt>
      <trkpt lat="59.9217151" lon="17.7026646">
        <ele>46.2806</ele>
        <time>2014-06-04T14:21:13Z</time>
      </trkpt>
      <trkpt lat="59.9216902" lon="17.702641">
        <ele>45.3192</ele>
        <time>2014-06-04T14:21:14Z</time>
      </trkpt>
      <trkpt lat="59.9216742" lon="17.7026155">
        <ele>45.3192</ele>
        <time>2014-06-04T14:21:15Z</time>
      </trkpt>
      <trkpt lat="59.9216587" lon="17.702588">
        <ele>45.3192</ele>
        <time>2014-06-04T14:21:16Z</time>
      </trkpt>
      <trkpt lat="59.9216374" lon="17.7025806">
        <ele>44.8386</ele>
        <time>2014-06-04T14:21:17Z</time>
      </trkpt>
      <trkpt lat="59.9216236" lon="17.7025547">
        <ele>45.3192</ele>
        <time>2014-06-04T14:21:18Z</time>
      </trkpt>
      <trkpt lat="59.9216044" lon="17.7025253">
        <ele>45.3192</ele>
        <time>2014-06-04T14:21:19Z</time>
      </trkpt>
      <trkpt lat="59.9215806" lon="17.7025229">
        <ele>45.3192</ele>
        <time>2014-06-04T14:21:20Z</time>
      </trkpt>
      <trkpt lat="59.9215551" lon="17.7025133">
        <ele>45.7999</ele>
        <time>2014-06-04T14:21:21Z</time>
      </trkpt>
      <trkpt lat="59.9215298" lon="17.7025061">
        <ele>45.7999</ele>
        <time>2014-06-04T14:21:22Z</time>
      </trkpt>
      <trkpt lat="59.9215115" lon="17.7024864">
        <ele>46.7612</ele>
        <time>2014-06-04T14:21:23Z</time>
      </trkpt>
      <trkpt lat="59.921486" lon="17.7024798">
        <ele>47.2418</ele>
        <time>2014-06-04T14:21:24Z</time>
      </trkpt>
      <trkpt lat="59.9214697" lon="17.7024648">
        <ele>47.7225</ele>
        <time>2014-06-04T14:21:25Z</time>
      </trkpt>
      <trkpt lat="59.9214498" lon="17.7024552">
        <ele>47.7225</ele>
        <time>2014-06-04T14:21:26Z</time>
      </trkpt>
      <trkpt lat="59.9214248" lon="17.7024544">
        <ele>47.7225</ele>
        <time>2014-06-04T14:21:27Z</time>
      </trkpt>
      <trkpt lat="59.9213981" lon="17.7024465">
        <ele>47.2418</ele>
        <time>2014-06-04T14:21:28Z</time>
      </trkpt>
      <trkpt lat="59.9213759" lon="17.7024307">
        <ele>47.2418</ele>
        <time>2014-06-04T14:21:29Z</time>
      </trkpt>
      <trkpt lat="59.9213505" lon="17.7024128">
        <ele>47.7225</ele>
        <time>2014-06-04T14:21:30Z</time>
      </trkpt>
      <trkpt lat="59.9213215" lon="17.7023951">
        <ele>48.684</ele>
        <time>2014-06-04T14:21:31Z</time>
      </trkpt>
      <trkpt lat="59.9212931" lon="17.702374">
        <ele>49.6453</ele>
        <time>2014-06-04T14:21:32Z</time>
      </trkpt>
      <trkpt lat="59.921272" lon="17.7023408">
        <ele>50.6066</ele>
        <time>2014-06-04T14:21:33Z</time>
      </trkpt>
      <trkpt lat="59.9212591" lon="17.7023057">
        <ele>50.6066</ele>
        <time>2014-06-04T14:21:34Z</time>
      </trkpt>
      <trkpt lat="59.9212443" lon="17.7022762">
        <ele>51.5679</ele>
        <time>2014-06-04T14:21:35Z</time>
      </trkpt>
      <trkpt lat="59.9212444" lon="17.7022398">
        <ele>52.0486</ele>
        <time>2014-06-04T14:21:36Z</time>
      </trkpt>
      <trkpt lat="59.9212273" lon="17.7022081">
        <ele>52.5292</ele>
        <time>2014-06-04T14:21:37Z</time>
      </trkpt>
      <trkpt lat="59.9212086" lon="17.7021932">
        <ele>53.9712</ele>
        <time>2014-06-04T14:21:38Z</time>
      </trkpt>
      <trkpt lat="59.9211888" lon="17.7021884">
        <ele>54.4518</ele>
        <time>2014-06-04T14:21:39Z</time>
      </trkpt>
      <trkpt lat="59.9211675" lon="17.7021675">
        <ele>54.9324</ele>
        <time>2014-06-04T14:21:40Z</time>
      </trkpt>
      <trkpt lat="59.9211484" lon="17.7021398">
        <ele>54.9324</ele>
        <time>2014-06-04T14:21:41Z</time>
      </trkpt>
      <trkpt lat="59.9211358" lon="17.7021275">
        <ele>54.9324</ele>
        <time>2014-06-04T14:21:42Z</time>
      </trkpt>
      <trkpt lat="59.9211199" lon="17.7021021">
        <ele>54.9324</ele>
        <time>2014-06-04T14:21:43Z</time>
      </trkpt>
      <trkpt lat="59.9211054" lon="17.7020913">
        <ele>53.9712</ele>
        <time>2014-06-04T14:21:44Z</time>
      </trkpt>
      <trkpt lat="59.9210877" lon="17.7020658">
        <ele>53.9712</ele>
        <time>2014-06-04T14:21:45Z</time>
      </trkpt>
      <trkpt lat="59.9210666" lon="17.7020514">
        <ele>53.4905</ele>
        <time>2014-06-04T14:21:46Z</time>
      </trkpt>
      <trkpt lat="59.9210459" lon="17.7020437">
        <ele>53.0098</ele>
        <time>2014-06-04T14:21:47Z</time>
      </trkpt>
      <trkpt lat="59.9210226" lon="17.7020465">
        <ele>52.0486</ele>
        <time>2014-06-04T14:21:48Z</time>
      </trkpt>
      <trkpt lat="59.9209987" lon="17.7020463">
        <ele>51.0872</ele>
        <time>2014-06-04T14:21:49Z</time>
      </trkpt>
      <trkpt lat="59.9209661" lon="17.7020289">
        <ele>50.126</ele>
        <time>2014-06-04T14:21:50Z</time>
      </trkpt>
      <trkpt lat="59.9209371" lon="17.7020123">
        <ele>49.1646</ele>
        <time>2014-06-04T14:21:51Z</time>
      </trkpt>
      <trkpt lat="59.9208978" lon="17.7020151">
        <ele>48.684</ele>
        <time>2014-06-04T14:21:52Z</time>
      </trkpt>
      <trkpt lat="59.9208661" lon="17.702003">
        <ele>47.7225</ele>
        <time>2014-06-04T14:21:53Z</time>
      </trkpt>
      <trkpt lat="59.9208286" lon="17.702016">
        <ele>46.7612</ele>
        <time>2014-06-04T14:21:54Z</time>
      </trkpt>
      <trkpt lat="59.9208007" lon="17.702025">
        <ele>46.7612</ele>
        <time>2014-06-04T14:21:55Z</time>
      </trkpt>
      <trkpt lat="59.9207769" lon="17.7020084">
        <ele>45.7999</ele>
        <time>2014-06-04T14:21:56Z</time>
      </trkpt>
      <trkpt lat="59.9207542" lon="17.7019857">
        <ele>45.7999</ele>
        <time>2014-06-04T14:21:57Z</time>
      </trkpt>
      <trkpt lat="59.9207304" lon="17.7019696">
        <ele>45.3192</ele>
        <time>2014-06-04T14:21:58Z</time>
      </trkpt>
      <trkpt lat="59.9207054" lon="17.7019591">
        <ele>45.3192</ele>
        <time>2014-06-04T14:21:59Z</time>
      </trkpt>
      <trkpt lat="59.920677" lon="17.7019597">
        <ele>44.8386</ele>
        <time>2014-06-04T14:22:00Z</time>
      </trkpt>
      <trkpt lat="59.9206502" lon="17.7019545">
        <ele>44.358</ele>
        <time>2014-06-04T14:22:01Z</time>
      </trkpt>
      <trkpt lat="59.9206315" lon="17.701944">
        <ele>43.8773</ele>
        <time>2014-06-04T14:22:02Z</time>
      </trkpt>
      <trkpt lat="59.9206065" lon="17.7019351">
        <ele>43.8773</ele>
        <time>2014-06-04T14:22:03Z</time>
      </trkpt>
      <trkpt lat="59.9205922" lon="17.7019182">
        <ele>44.358</ele>
        <time>2014-06-04T14:22:04Z</time>
      </trkpt>
      <trkpt lat="59.9205668" lon="17.7019135">
        <ele>44.8386</ele>
        <time>2014-06-04T14:22:05Z</time>
      </trkpt>
      <trkpt lat="59.9205393" lon="17.7019126">
        <ele>44.8386</ele>
        <time>2014-06-04T14:22:06Z</time>
      </trkpt>
      <trkpt lat="59.9205178" lon="17.7018944">
        <ele>45.3192</ele>
        <time>2014-06-04T14:22:07Z</time>
      </trkpt>
      <trkpt lat="59.9205024" lon="17.7018721">
        <ele>45.3192</ele>
        <time>2014-06-04T14:22:08Z</time>
      </trkpt>
      <trkpt lat="59.92049" lon="17.7018363">
        <ele>44.8386</ele>
        <time>2014-06-04T14:22:09Z</time>
      </trkpt>
      <trkpt lat="59.9204751" lon="17.7017797">
        <ele>45.3192</ele>
        <time>2014-06-04T14:22:10Z</time>
      </trkpt>
      <trkpt lat="59.9204605" lon="17.7017189">
        <ele>45.7999</ele>
        <time>2014-06-04T14:22:11Z</time>
      </trkpt>
      <trkpt lat="59.9204502" lon="17.7016653">
        <ele>46.2806</ele>
        <time>2014-06-04T14:22:12Z</time>
      </trkpt>
      <trkpt lat="59.9204419" lon="17.7016119">
        <ele>46.7612</ele>
        <time>2014-06-04T14:22:13Z</time>
      </trkpt>
      <trkpt lat="59.9204346" lon="17.7015513">
        <ele>48.2034</ele>
        <time>2014-06-04T14:22:14Z</time>
      </trkpt>
      <trkpt lat="59.9204311" lon="17.7014975">
        <ele>49.1646</ele>
        <time>2014-06-04T14:22:15Z</time>
      </trkpt>
      <trkpt lat="59.9204227" lon="17.7014488">
        <ele>50.6066</ele>
        <time>2014-06-04T14:22:16Z</time>
      </trkpt>
      <trkpt lat="59.9204129" lon="17.7013993">
        <ele>50.6066</ele>
        <time>2014-06-04T14:22:17Z</time>
      </trkpt>
      <trkpt lat="59.9204081" lon="17.7013271">
        <ele>52.0486</ele>
        <time>2014-06-04T14:22:18Z</time>
      </trkpt>
      <trkpt lat="59.9204021" lon="17.7012666">
        <ele>52.5292</ele>
        <time>2014-06-04T14:22:19Z</time>
      </trkpt>
      <trkpt lat="59.9203954" lon="17.7012086">
        <ele>53.4905</ele>
        <time>2014-06-04T14:22:20Z</time>
      </trkpt>
      <trkpt lat="59.9203906" lon="17.7011521">
        <ele>54.4518</ele>
        <time>2014-06-04T14:22:21Z</time>
      </trkpt>
      <trkpt lat="59.9203859" lon="17.7011112">
        <ele>55.4131</ele>
        <time>2014-06-04T14:22:22Z</time>
      </trkpt>
      <trkpt lat="59.9203733" lon="17.7010504">
        <ele>57.3358</ele>
        <time>2014-06-04T14:22:23Z</time>
      </trkpt>
      <trkpt lat="59.9203637" lon="17.7009838">
        <ele>58.2971</ele>
        <time>2014-06-04T14:22:24Z</time>
      </trkpt>
      <trkpt lat="59.9203583" lon="17.7009247">
        <ele>59.2584</ele>
        <time>2014-06-04T14:22:25Z</time>
      </trkpt>
      <trkpt lat="59.9203512" lon="17.7008776">
        <ele>60.7003</ele>
        <time>2014-06-04T14:22:26Z</time>
      </trkpt>
      <trkpt lat="59.9203471" lon="17.7008325">
        <ele>61.181</ele>
        <time>2014-06-04T14:22:27Z</time>
      </trkpt>
      <trkpt lat="59.9203392" lon="17.7008019">
        <ele>61.6617</ele>
        <time>2014-06-04T14:22:28Z</time>
      </trkpt>
      <trkpt lat="59.9203331" lon="17.7007733">
        <ele>61.181</ele>
        <time>2014-06-04T14:22:29Z</time>
      </trkpt>
      <trkpt lat="59.9203326" lon="17.7007346">
        <ele>61.181</ele>
        <time>2014-06-04T14:22:30Z</time>
      </trkpt>
      <trkpt lat="59.9203349" lon="17.7006885">
        <ele>61.6617</ele>
        <time>2014-06-04T14:22:31Z</time>
      </trkpt>
      <trkpt lat="59.9203301" lon="17.7006398">
        <ele>60.7003</ele>
        <time>2014-06-04T14:22:32Z</time>
      </trkpt>
      <trkpt lat="59.9203195" lon="17.7005801">
        <ele>59.7391</ele>
        <time>2014-06-04T14:22:33Z</time>
      </trkpt>
      <trkpt lat="59.9203015" lon="17.7005272">
        <ele>59.2584</ele>
        <time>2014-06-04T14:22:34Z</time>
      </trkpt>
      <trkpt lat="59.9202958" lon="17.7004902">
        <ele>58.2971</ele>
        <time>2014-06-04T14:22:35Z</time>
      </trkpt>
      <trkpt lat="59.9202948" lon="17.7004516">
        <ele>56.8551</ele>
        <time>2014-06-04T14:22:36Z</time>
      </trkpt>
      <trkpt lat="59.9202871" lon="17.7003968">
        <ele>56.3745</ele>
        <time>2014-06-04T14:22:37Z</time>
      </trkpt>
      <trkpt lat="59.9202749" lon="17.7003404">
        <ele>55.4131</ele>
        <time>2014-06-04T14:22:38Z</time>
      </trkpt>
      <trkpt lat="59.9202694" lon="17.7002969">
        <ele>54.9324</ele>
        <time>2014-06-04T14:22:39Z</time>
      </trkpt>
      <trkpt lat="59.9202595" lon="17.7002594">
        <ele>54.4518</ele>
        <time>2014-06-04T14:22:40Z</time>
      </trkpt>
      <trkpt lat="59.9202512" lon="17.7002024">
        <ele>54.4518</ele>
        <time>2014-06-04T14:22:41Z</time>
      </trkpt>
      <trkpt lat="59.9202404" lon="17.7001379">
        <ele>54.9324</ele>
        <time>2014-06-04T14:22:42Z</time>
      </trkpt>
      <trkpt lat="59.9202246" lon="17.7000717">
        <ele>55.4131</ele>
        <time>2014-06-04T14:22:43Z</time>
      </trkpt>
      <trkpt lat="59.9202146" lon="17.7000102">
        <ele>56.3745</ele>
        <time>2014-06-04T14:22:44Z</time>
      </trkpt>
      <trkpt lat="59.9202039" lon="17.699956">
        <ele>56.3745</ele>
        <time>2014-06-04T14:22:45Z</time>
      </trkpt>
      <trkpt lat="59.9201958" lon="17.6999106">
        <ele>56.3745</ele>
        <time>2014-06-04T14:22:46Z</time>
      </trkpt>
      <trkpt lat="59.9201987" lon="17.6998726">
        <ele>55.8938</ele>
        <time>2014-06-04T14:22:47Z</time>
      </trkpt>
      <trkpt lat="59.9201983" lon="17.6998413">
        <ele>54.9324</ele>
        <time>2014-06-04T14:22:48Z</time>
      </trkpt>
      <trkpt lat="59.920193" lon="17.6998012">
        <ele>54.9324</ele>
        <time>2014-06-04T14:22:49Z</time>
      </trkpt>
      <trkpt lat="59.9201833" lon="17.6997394">
        <ele>55.4131</ele>
        <time>2014-06-04T14:22:50Z</time>
      </trkpt>
      <trkpt lat="59.9201744" lon="17.6996772">
        <ele>55.4131</ele>
        <time>2014-06-04T14:22:51Z</time>
      </trkpt>
      <trkpt lat="59.9201725" lon="17.6996353">
        <ele>55.4131</ele>
        <time>2014-06-04T14:22:52Z</time>
      </trkpt>
      <trkpt lat="59.9201709" lon="17.6995868">
        <ele>55.8938</ele>
        <time>2014-06-04T14:22:53Z</time>
      </trkpt>
      <trkpt lat="59.9201673" lon="17.6995292">
        <ele>56.3745</ele>
        <time>2014-06-04T14:22:54Z</time>
      </trkpt>
      <trkpt lat="59.9201656" lon="17.699482">
        <ele>57.3358</ele>
        <time>2014-06-04T14:22:55Z</time>
      </trkpt>
      <trkpt lat="59.9201578" lon="17.6994208">
        <ele>57.3358</ele>
        <time>2014-06-04T14:22:56Z</time>
      </trkpt>
      <trkpt lat="59.9201558" lon="17.6993628">
        <ele>58.2971</ele>
        <time>2014-06-04T14:22:57Z</time>
      </trkpt>
      <trkpt lat="59.9201539" lon="17.6993138">
        <ele>58.2971</ele>
        <time>2014-06-04T14:22:58Z</time>
      </trkpt>
      <trkpt lat="59.9201487" lon="17.6992655">
        <ele>58.7777</ele>
        <time>2014-06-04T14:22:59Z</time>
      </trkpt>
      <trkpt lat="59.9201435" lon="17.6992163">
        <ele>58.7777</ele>
        <time>2014-06-04T14:23:00Z</time>
      </trkpt>
      <trkpt lat="59.92014" lon="17.6991758">
        <ele>58.7777</ele>
        <time>2014-06-04T14:23:01Z</time>
      </trkpt>
      <trkpt lat="59.9201449" lon="17.6991475">
        <ele>59.2584</ele>
        <time>2014-06-04T14:23:02Z</time>
      </trkpt>
      <trkpt lat="59.9201472" lon="17.6991167">
        <ele>58.7777</ele>
        <time>2014-06-04T14:23:03Z</time>
      </trkpt>
      <trkpt lat="59.9201528" lon="17.6990679">
        <ele>58.7777</ele>
        <time>2014-06-04T14:23:04Z</time>
      </trkpt>
      <trkpt lat="59.9201518" lon="17.699024">
        <ele>58.2971</ele>
        <time>2014-06-04T14:23:05Z</time>
      </trkpt>
      <trkpt lat="59.9201522" lon="17.6989786">
        <ele>58.2971</ele>
        <time>2014-06-04T14:23:06Z</time>
      </trkpt>
      <trkpt lat="59.9201502" lon="17.6989241">
        <ele>59.2584</ele>
        <time>2014-06-04T14:23:07Z</time>
      </trkpt>
      <trkpt lat="59.9201429" lon="17.6988771">
        <ele>58.7777</ele>
        <time>2014-06-04T14:23:08Z</time>
      </trkpt>
      <trkpt lat="59.9201362" lon="17.6988295">
        <ele>58.2971</ele>
        <time>2014-06-04T14:23:09Z</time>
      </trkpt>
      <trkpt lat="59.920129" lon="17.6987828">
        <ele>58.2971</ele>
        <time>2014-06-04T14:23:10Z</time>
      </trkpt>
      <trkpt lat="59.9201217" lon="17.6987413">
        <ele>58.2971</ele>
        <time>2014-06-04T14:23:11Z</time>
      </trkpt>
      <trkpt lat="59.9201149" lon="17.6986883">
        <ele>59.2584</ele>
        <time>2014-06-04T14:23:12Z</time>
      </trkpt>
      <trkpt lat="59.9201139" lon="17.698633">
        <ele>59.2584</ele>
        <time>2014-06-04T14:23:13Z</time>
      </trkpt>
      <trkpt lat="59.9201062" lon="17.698589">
        <ele>58.7777</ele>
        <time>2014-06-04T14:23:14Z</time>
      </trkpt>
      <trkpt lat="59.9200968" lon="17.698559">
        <ele>57.3358</ele>
        <time>2014-06-04T14:23:15Z</time>
      </trkpt>
      <trkpt lat="59.9200813" lon="17.6985387">
        <ele>57.3358</ele>
        <time>2014-06-04T14:23:16Z</time>
      </trkpt>
      <trkpt lat="59.9200664" lon="17.6985305">
        <ele>56.8551</ele>
        <time>2014-06-04T14:23:17Z</time>
      </trkpt>
      <trkpt lat="59.9200513" lon="17.6985356">
        <ele>55.4131</ele>
        <time>2014-06-04T14:23:18Z</time>
      </trkpt>
      <trkpt lat="59.9200338" lon="17.6985497">
        <ele>54.4518</ele>
        <time>2014-06-04T14:23:19Z</time>
      </trkpt>
      <trkpt lat="59.9200135" lon="17.6985642">
        <ele>53.4905</ele>
        <time>2014-06-04T14:23:20Z</time>
      </trkpt>
      <trkpt lat="59.9199932" lon="17.6985853">
        <ele>52.5292</ele>
        <time>2014-06-04T14:23:21Z</time>
      </trkpt>
      <trkpt lat="59.9199757" lon="17.6986154">
        <ele>51.5679</ele>
        <time>2014-06-04T14:23:22Z</time>
      </trkpt>
      <trkpt lat="59.9199613" lon="17.6986575">
        <ele>50.6066</ele>
        <time>2014-06-04T14:23:23Z</time>
      </trkpt>
      <trkpt lat="59.9199568" lon="17.6986999">
        <ele>50.6066</ele>
        <time>2014-06-04T14:23:24Z</time>
      </trkpt>
      <trkpt lat="59.9199492" lon="17.6987495">
        <ele>50.126</ele>
        <time>2014-06-04T14:23:25Z</time>
      </trkpt>
      <trkpt lat="59.9199398" lon="17.6988015">
        <ele>50.126</ele>
        <time>2014-06-04T14:23:26Z</time>
      </trkpt>
      <trkpt lat="59.9199373" lon="17.6988423">
        <ele>50.126</ele>
        <time>2014-06-04T14:23:27Z</time>
      </trkpt>
      <trkpt lat="59.9199389" lon="17.6988911">
        <ele>50.126</ele>
        <time>2014-06-04T14:23:28Z</time>
      </trkpt>
      <trkpt lat="59.9199409" lon="17.698931">
        <ele>50.126</ele>
        <time>2014-06-04T14:23:29Z</time>
      </trkpt>
      <trkpt lat="59.9199467" lon="17.6989641">
        <ele>50.6066</ele>
        <time>2014-06-04T14:23:30Z</time>
      </trkpt>
      <trkpt lat="59.9199511" lon="17.6990013">
        <ele>52.5292</ele>
        <time>2014-06-04T14:23:31Z</time>
      </trkpt>
      <trkpt lat="59.9199508" lon="17.6990485">
        <ele>53.9712</ele>
        <time>2014-06-04T14:23:32Z</time>
      </trkpt>
      <trkpt lat="59.9199451" lon="17.6990983">
        <ele>56.3745</ele>
        <time>2014-06-04T14:23:33Z</time>
      </trkpt>
      <trkpt lat="59.9199382" lon="17.6991501">
        <ele>58.2971</ele>
        <time>2014-06-04T14:23:34Z</time>
      </trkpt>
      <trkpt lat="59.9199307" lon="17.6991894">
        <ele>59.7391</ele>
        <time>2014-06-04T14:23:35Z</time>
      </trkpt>
      <trkpt lat="59.919918" lon="17.6992323">
        <ele>61.6617</ele>
        <time>2014-06-04T14:23:36Z</time>
      </trkpt>
      <trkpt lat="59.9199083" lon="17.6992741">
        <ele>64.5457</ele>
        <time>2014-06-04T14:23:37Z</time>
      </trkpt>
      <trkpt lat="59.9199005" lon="17.6993204">
        <ele>66.949</ele>
        <time>2014-06-04T14:23:38Z</time>
      </trkpt>
      <trkpt lat="59.9198944" lon="17.6993655">
        <ele>68.8716</ele>
        <time>2014-06-04T14:23:39Z</time>
      </trkpt>
      <trkpt lat="59.9198845" lon="17.699409">
        <ele>70.3135</ele>
        <time>2014-06-04T14:23:40Z</time>
      </trkpt>
      <trkpt lat="59.9198775" lon="17.699453">
        <ele>73.1976</ele>
        <time>2014-06-04T14:23:41Z</time>
      </trkpt>
      <trkpt lat="59.91987" lon="17.699492">
        <ele>74.6395</ele>
        <time>2014-06-04T14:23:42Z</time>
      </trkpt>
      <trkpt lat="59.9198585" lon="17.6995285">
        <ele>76.0814</ele>
        <time>2014-06-04T14:23:43Z</time>
      </trkpt>
      <trkpt lat="59.9198486" lon="17.6995613">
        <ele>77.5234</ele>
        <time>2014-06-04T14:23:44Z</time>
      </trkpt>
      <trkpt lat="59.9198368" lon="17.6995909">
        <ele>78.004</ele>
        <time>2014-06-04T14:23:45Z</time>
      </trkpt>
      <trkpt lat="59.9198258" lon="17.6996261">
        <ele>79.446</ele>
        <time>2014-06-04T14:23:46Z</time>
      </trkpt>
      <trkpt lat="59.9198139" lon="17.6996737">
        <ele>81.3688</ele>
        <time>2014-06-04T14:23:47Z</time>
      </trkpt>
      <trkpt lat="59.9198016" lon="17.6997183">
        <ele>82.3301</ele>
        <time>2014-06-04T14:23:48Z</time>
      </trkpt>
      <trkpt lat="59.9197916" lon="17.699753">
        <ele>83.2914</ele>
        <time>2014-06-04T14:23:49Z</time>
      </trkpt>
      <trkpt lat="59.919776" lon="17.699794">
        <ele>83.772</ele>
        <time>2014-06-04T14:23:50Z</time>
      </trkpt>
      <trkpt lat="59.9197571" lon="17.6998312">
        <ele>82.8108</ele>
        <time>2014-06-04T14:23:51Z</time>
      </trkpt>
      <trkpt lat="59.9197366" lon="17.6998726">
        <ele>82.8108</ele>
        <time>2014-06-04T14:23:52Z</time>
      </trkpt>
      <trkpt lat="59.9197218" lon="17.699912">
        <ele>82.8108</ele>
        <time>2014-06-04T14:23:53Z</time>
      </trkpt>
      <trkpt lat="59.9197063" lon="17.6999478">
        <ele>82.8108</ele>
        <time>2014-06-04T14:23:54Z</time>
      </trkpt>
      <trkpt lat="59.9196923" lon="17.6999802">
        <ele>82.8108</ele>
        <time>2014-06-04T14:23:55Z</time>
      </trkpt>
      <trkpt lat="59.9196755" lon="17.700012">
        <ele>82.3301</ele>
        <time>2014-06-04T14:23:56Z</time>
      </trkpt>
      <trkpt lat="59.9196639" lon="17.7000385">
        <ele>83.2914</ele>
        <time>2014-06-04T14:23:57Z</time>
      </trkpt>
      <trkpt lat="59.9196507" lon="17.700069">
        <ele>83.772</ele>
        <time>2014-06-04T14:23:58Z</time>
      </trkpt>
      <trkpt lat="59.9196444" lon="17.7000985">
        <ele>84.7334</ele>
        <time>2014-06-04T14:23:59Z</time>
      </trkpt>
      <trkpt lat="59.9196281" lon="17.7001283">
        <ele>83.772</ele>
        <time>2014-06-04T14:24:00Z</time>
      </trkpt>
      <trkpt lat="59.9196125" lon="17.7001622">
        <ele>83.772</ele>
        <time>2014-06-04T14:24:01Z</time>
      </trkpt>
      <trkpt lat="59.919599" lon="17.7001943">
        <ele>84.2527</ele>
        <time>2014-06-04T14:24:02Z</time>
      </trkpt>
      <trkpt lat="59.9195855" lon="17.7002212">
        <ele>84.2527</ele>
        <time>2014-06-04T14:24:03Z</time>
      </trkpt>
      <trkpt lat="59.919567" lon="17.7002457">
        <ele>83.2914</ele>
        <time>2014-06-04T14:24:04Z</time>
      </trkpt>
      <trkpt lat="59.91955" lon="17.7002804">
        <ele>81.8494</ele>
        <time>2014-06-04T14:24:05Z</time>
      </trkpt>
      <trkpt lat="59.9195343" lon="17.7003156">
        <ele>82.8108</ele>
        <time>2014-06-04T14:24:06Z</time>
      </trkpt>
      <trkpt lat="59.9195184" lon="17.7003557">
        <ele>83.2914</ele>
        <time>2014-06-04T14:24:07Z</time>
      </trkpt>
      <trkpt lat="59.9195065" lon="17.7003895">
        <ele>84.2527</ele>
        <time>2014-06-04T14:24:08Z</time>
      </trkpt>
      <trkpt lat="59.919482" lon="17.7004335">
        <ele>82.3301</ele>
        <time>2014-06-04T14:24:09Z</time>
      </trkpt>
      <trkpt lat="59.9194669" lon="17.7004797">
        <ele>80.4075</ele>
        <time>2014-06-04T14:24:10Z</time>
      </trkpt>
      <trkpt lat="59.9194549" lon="17.7005197">
        <ele>78.4847</ele>
        <time>2014-06-04T14:24:11Z</time>
      </trkpt>
      <trkpt lat="59.9194426" lon="17.7005661">
        <ele>77.5234</ele>
        <time>2014-06-04T14:24:12Z</time>
      </trkpt>
      <trkpt lat="59.9194289" lon="17.7006175">
        <ele>75.1202</ele>
        <time>2014-06-04T14:24:13Z</time>
      </trkpt>
      <trkpt lat="59.9194187" lon="17.7006745">
        <ele>72.7169</ele>
        <time>2014-06-04T14:24:14Z</time>
      </trkpt>
      <trkpt lat="59.9194119" lon="17.7007444">
        <ele>70.7942</ele>
        <time>2014-06-04T14:24:15Z</time>
      </trkpt>
      <trkpt lat="59.9194079" lon="17.7008025">
        <ele>68.8716</ele>
        <time>2014-06-04T14:24:16Z</time>
      </trkpt>
      <trkpt lat="59.919402" lon="17.7008613">
        <ele>67.4297</ele>
        <time>2014-06-04T14:24:17Z</time>
      </trkpt>
      <trkpt lat="59.9193935" lon="17.7009224">
        <ele>65.5071</ele>
        <time>2014-06-04T14:24:18Z</time>
      </trkpt>
      <trkpt lat="59.9193818" lon="17.7009692">
        <ele>64.5457</ele>
        <time>2014-06-04T14:24:19Z</time>
      </trkpt>
      <trkpt lat="59.9193746" lon="17.7010133">
        <ele>64.5457</ele>
        <time>2014-06-04T14:24:20Z</time>
      </trkpt>
      <trkpt lat="59.9193717" lon="17.7010609">
        <ele>64.5457</ele>
        <time>2014-06-04T14:24:21Z</time>
      </trkpt>
      <trkpt lat="59.9193686" lon="17.701106">
        <ele>64.5457</ele>
        <time>2014-06-04T14:24:22Z</time>
      </trkpt>
      <trkpt lat="59.9193624" lon="17.7011402">
        <ele>64.0651</ele>
        <time>2014-06-04T14:24:23Z</time>
      </trkpt>
      <trkpt lat="59.9193495" lon="17.7011713">
        <ele>62.6229</ele>
        <time>2014-06-04T14:24:24Z</time>
      </trkpt>
      <trkpt lat="59.9193378" lon="17.7012068">
        <ele>61.6617</ele>
        <time>2014-06-04T14:24:25Z</time>
      </trkpt>
      <trkpt lat="59.919324" lon="17.701235">
        <ele>61.181</ele>
        <time>2014-06-04T14:24:26Z</time>
      </trkpt>
      <trkpt lat="59.9193111" lon="17.7012623">
        <ele>60.7003</ele>
        <time>2014-06-04T14:24:27Z</time>
      </trkpt>
      <trkpt lat="59.9192934" lon="17.7012966">
        <ele>60.2197</ele>
        <time>2014-06-04T14:24:28Z</time>
      </trkpt>
      <trkpt lat="59.9192726" lon="17.701318">
        <ele>60.2197</ele>
        <time>2014-06-04T14:24:29Z</time>
      </trkpt>
      <trkpt lat="59.9192508" lon="17.7013464">
        <ele>59.7391</ele>
        <time>2014-06-04T14:24:30Z</time>
      </trkpt>
      <trkpt lat="59.9192235" lon="17.7013863">
        <ele>59.2584</ele>
        <time>2014-06-04T14:24:31Z</time>
      </trkpt>
      <trkpt lat="59.9191862" lon="17.7014462">
        <ele>59.2584</ele>
        <time>2014-06-04T14:24:32Z</time>
      </trkpt>
      <trkpt lat="59.9191436" lon="17.7015212">
        <ele>58.7777</ele>
        <time>2014-06-04T14:24:33Z</time>
      </trkpt>
      <trkpt lat="59.9191099" lon="17.7015497">
        <ele>58.2971</ele>
        <time>2014-06-04T14:24:34Z</time>
      </trkpt>
      <trkpt lat="59.9190835" lon="17.7015426">
        <ele>57.8165</ele>
        <time>2014-06-04T14:24:35Z</time>
      </trkpt>
      <trkpt lat="59.9190449" lon="17.701576">
        <ele>57.8165</ele>
        <time>2014-06-04T14:24:36Z</time>
      </trkpt>
      <trkpt lat="59.9190076" lon="17.7016122">
        <ele>57.3358</ele>
        <time>2014-06-04T14:24:37Z</time>
      </trkpt>
      <trkpt lat="59.9189728" lon="17.7016229">
        <ele>57.3358</ele>
        <time>2014-06-04T14:24:38Z</time>
      </trkpt>
      <trkpt lat="59.9189391" lon="17.7016316">
        <ele>57.8165</ele>
        <time>2014-06-04T14:24:39Z</time>
      </trkpt>
      <trkpt lat="59.9189074" lon="17.7016473">
        <ele>57.3358</ele>
        <time>2014-06-04T14:24:40Z</time>
      </trkpt>
      <trkpt lat="59.918879" lon="17.7016432">
        <ele>56.3745</ele>
        <time>2014-06-04T14:24:41Z</time>
      </trkpt>
      <trkpt lat="59.9188562" lon="17.7016193">
        <ele>55.8938</ele>
        <time>2014-06-04T14:24:42Z</time>
      </trkpt>
      <trkpt lat="59.9188371" lon="17.7015939">
        <ele>56.3745</ele>
        <time>2014-06-04T14:24:43Z</time>
      </trkpt>
      <trkpt lat="59.9188198" lon="17.7015639">
        <ele>56.3745</ele>
        <time>2014-06-04T14:24:44Z</time>
      </trkpt>
      <trkpt lat="59.9187988" lon="17.7015414">
        <ele>56.8551</ele>
        <time>2014-06-04T14:24:45Z</time>
      </trkpt>
      <trkpt lat="59.9187853" lon="17.7015307">
        <ele>57.3358</ele>
        <time>2014-06-04T14:24:46Z</time>
      </trkpt>
      <trkpt lat="59.9187708" lon="17.701512">
        <ele>57.8165</ele>
        <time>2014-06-04T14:24:47Z</time>
      </trkpt>
      <trkpt lat="59.9187524" lon="17.7014924">
        <ele>57.3358</ele>
        <time>2014-06-04T14:24:48Z</time>
      </trkpt>
      <trkpt lat="59.9187266" lon="17.7014851">
        <ele>57.3358</ele>
        <time>2014-06-04T14:24:49Z</time>
      </trkpt>
      <trkpt lat="59.9187074" lon="17.7014793">
        <ele>57.3358</ele>
        <time>2014-06-04T14:24:50Z</time>
      </trkpt>
      <trkpt lat="59.9186866" lon="17.7014734">
        <ele>56.3745</ele>
        <time>2014-06-04T14:24:51Z</time>
      </trkpt>
      <trkpt lat="59.9186626" lon="17.7014604">
        <ele>56.3745</ele>
        <time>2014-06-04T14:24:52Z</time>
      </trkpt>
      <trkpt lat="59.9186371" lon="17.7014578">
        <ele>56.3745</ele>
        <time>2014-06-04T14:24:53Z</time>
      </trkpt>
      <trkpt lat="59.9186162" lon="17.7014561">
        <ele>56.3745</ele>
        <time>2014-06-04T14:24:54Z</time>
      </trkpt>
      <trkpt lat="59.9185901" lon="17.7014603">
        <ele>56.8551</ele>
        <time>2014-06-04T14:24:55Z</time>
      </trkpt>
      <trkpt lat="59.9185681" lon="17.7014577">
        <ele>57.3358</ele>
        <time>2014-06-04T14:24:56Z</time>
      </trkpt>
      <trkpt lat="59.9185483" lon="17.7014435">
        <ele>56.8551</ele>
        <time>2014-06-04T14:24:57Z</time>
      </trkpt>
      <trkpt lat="59.9185261" lon="17.7014278">
        <ele>56.3745</ele>
        <time>2014-06-04T14:24:58Z</time>
      </trkpt>
      <trkpt lat="59.9185071" lon="17.7014096">
        <ele>55.8938</ele>
        <time>2014-06-04T14:24:59Z</time>
      </trkpt>
      <trkpt lat="59.9184854" lon="17.7013883">
        <ele>55.4131</ele>
        <time>2014-06-04T14:25:00Z</time>
      </trkpt>
      <trkpt lat="59.9184642" lon="17.7013767">
        <ele>55.4131</ele>
        <time>2014-06-04T14:25:01Z</time>
      </trkpt>
      <trkpt lat="59.9184445" lon="17.7013718">
        <ele>54.9324</ele>
        <time>2014-06-04T14:25:02Z</time>
      </trkpt>
      <trkpt lat="59.9184262" lon="17.7013567">
        <ele>54.4518</ele>
        <time>2014-06-04T14:25:03Z</time>
      </trkpt>
      <trkpt lat="59.9184034" lon="17.7013433">
        <ele>54.9324</ele>
        <time>2014-06-04T14:25:04Z</time>
      </trkpt>
      <trkpt lat="59.9183824" lon="17.7013277">
        <ele>54.4518</ele>
        <time>2014-06-04T14:25:05Z</time>
      </trkpt>
      <trkpt lat="59.9183578" lon="17.7013266">
        <ele>53.4905</ele>
        <time>2014-06-04T14:25:06Z</time>
      </trkpt>
      <trkpt lat="59.9183326" lon="17.7013192">
        <ele>53.0098</ele>
        <time>2014-06-04T14:25:07Z</time>
      </trkpt>
      <trkpt lat="59.9183059" lon="17.7013194">
        <ele>53.0098</ele>
        <time>2014-06-04T14:25:08Z</time>
      </trkpt>
      <trkpt lat="59.9182753" lon="17.7013112">
        <ele>53.0098</ele>
        <time>2014-06-04T14:25:09Z</time>
      </trkpt>
      <trkpt lat="59.9182513" lon="17.7012967">
        <ele>52.5292</ele>
        <time>2014-06-04T14:25:10Z</time>
      </trkpt>
      <trkpt lat="59.9182275" lon="17.701292">
        <ele>52.5292</ele>
        <time>2014-06-04T14:25:11Z</time>
      </trkpt>
      <trkpt lat="59.9182067" lon="17.7012878">
        <ele>53.0098</ele>
        <time>2014-06-04T14:25:12Z</time>
      </trkpt>
      <trkpt lat="59.918188" lon="17.7012988">
        <ele>53.0098</ele>
        <time>2014-06-04T14:25:13Z</time>
      </trkpt>
      <trkpt lat="59.9181721" lon="17.7013092">
        <ele>53.0098</ele>
        <time>2014-06-04T14:25:14Z</time>
      </trkpt>
      <trkpt lat="59.918157" lon="17.7013075">
        <ele>52.5292</ele>
        <time>2014-06-04T14:25:15Z</time>
      </trkpt>
      <trkpt lat="59.9181396" lon="17.7013071">
        <ele>51.5679</ele>
        <time>2014-06-04T14:25:16Z</time>
      </trkpt>
      <trkpt lat="59.9181233" lon="17.7013106">
        <ele>51.5679</ele>
        <time>2014-06-04T14:25:17Z</time>
      </trkpt>
      <trkpt lat="59.9181041" lon="17.7013172">
        <ele>51.5679</ele>
        <time>2014-06-04T14:25:18Z</time>
      </trkpt>
      <trkpt lat="59.9180775" lon="17.7013225">
        <ele>51.5679</ele>
        <time>2014-06-04T14:25:19Z</time>
      </trkpt>
      <trkpt lat="59.9180479" lon="17.7013329">
        <ele>51.0872</ele>
        <time>2014-06-04T14:25:20Z</time>
      </trkpt>
      <trkpt lat="59.9180222" lon="17.7013432">
        <ele>51.0872</ele>
        <time>2014-06-04T14:25:21Z</time>
      </trkpt>
      <trkpt lat="59.9179942" lon="17.7013524">
        <ele>51.0872</ele>
        <time>2014-06-04T14:25:22Z</time>
      </trkpt>
      <trkpt lat="59.9179606" lon="17.7013775">
        <ele>51.5679</ele>
        <time>2014-06-04T14:25:23Z</time>
      </trkpt>
      <trkpt lat="59.9179315" lon="17.7013951">
        <ele>52.0486</ele>
        <time>2014-06-04T14:25:24Z</time>
      </trkpt>
      <trkpt lat="59.9179086" lon="17.7013959">
        <ele>52.0486</ele>
        <time>2014-06-04T14:25:25Z</time>
      </trkpt>
      <trkpt lat="59.9178868" lon="17.701378">
        <ele>52.0486</ele>
        <time>2014-06-04T14:25:26Z</time>
      </trkpt>
      <trkpt lat="59.9178563" lon="17.7013711">
        <ele>53.4905</ele>
        <time>2014-06-04T14:25:27Z</time>
      </trkpt>
      <trkpt lat="59.9178281" lon="17.7013619">
        <ele>53.9712</ele>
        <time>2014-06-04T14:25:28Z</time>
      </trkpt>
      <trkpt lat="59.9178021" lon="17.7013645">
        <ele>54.4518</ele>
        <time>2014-06-04T14:25:29Z</time>
      </trkpt>
      <trkpt lat="59.9177798" lon="17.7013624">
        <ele>54.9324</ele>
        <time>2014-06-04T14:25:30Z</time>
      </trkpt>
      <trkpt lat="59.9177687" lon="17.7013356">
        <ele>54.4518</ele>
        <time>2014-06-04T14:25:31Z</time>
      </trkpt>
      <trkpt lat="59.917752" lon="17.7013017">
        <ele>54.9324</ele>
        <time>2014-06-04T14:25:32Z</time>
      </trkpt>
      <trkpt lat="59.9177345" lon="17.7012703">
        <ele>54.9324</ele>
        <time>2014-06-04T14:25:33Z</time>
      </trkpt>
      <trkpt lat="59.9177219" lon="17.7012348">
        <ele>54.9324</ele>
        <time>2014-06-04T14:25:34Z</time>
      </trkpt>
      <trkpt lat="59.9177084" lon="17.7011806">
        <ele>54.9324</ele>
        <time>2014-06-04T14:25:35Z</time>
      </trkpt>
      <trkpt lat="59.9176923" lon="17.7011541">
        <ele>54.9324</ele>
        <time>2014-06-04T14:25:36Z</time>
      </trkpt>
      <trkpt lat="59.9176805" lon="17.7011182">
        <ele>54.9324</ele>
        <time>2014-06-04T14:25:37Z</time>
      </trkpt>
      <trkpt lat="59.9176571" lon="17.7010718">
        <ele>55.4131</ele>
        <time>2014-06-04T14:25:38Z</time>
      </trkpt>
      <trkpt lat="59.9176311" lon="17.7010288">
        <ele>55.4131</ele>
        <time>2014-06-04T14:25:39Z</time>
      </trkpt>
      <trkpt lat="59.9176035" lon="17.700963">
        <ele>55.8938</ele>
        <time>2014-06-04T14:25:40Z</time>
      </trkpt>
      <trkpt lat="59.9175804" lon="17.7009101">
        <ele>56.3745</ele>
        <time>2014-06-04T14:25:41Z</time>
      </trkpt>
      <trkpt lat="59.9175613" lon="17.7008776">
        <ele>56.8551</ele>
        <time>2014-06-04T14:25:42Z</time>
      </trkpt>
      <trkpt lat="59.9175477" lon="17.7008466">
        <ele>56.8551</ele>
        <time>2014-06-04T14:25:43Z</time>
      </trkpt>
      <trkpt lat="59.9175327" lon="17.7008087">
        <ele>56.3745</ele>
        <time>2014-06-04T14:25:44Z</time>
      </trkpt>
      <trkpt lat="59.9175172" lon="17.7007553">
        <ele>56.8551</ele>
        <time>2014-06-04T14:25:45Z</time>
      </trkpt>
      <trkpt lat="59.9174979" lon="17.7006927">
        <ele>56.8551</ele>
        <time>2014-06-04T14:25:46Z</time>
      </trkpt>
      <trkpt lat="59.9174824" lon="17.7006389">
        <ele>56.8551</ele>
        <time>2014-06-04T14:25:47Z</time>
      </trkpt>
      <trkpt lat="59.9174701" lon="17.7005993">
        <ele>56.3745</ele>
        <time>2014-06-04T14:25:48Z</time>
      </trkpt>
      <trkpt lat="59.9174618" lon="17.7005643">
        <ele>55.8938</ele>
        <time>2014-06-04T14:25:49Z</time>
      </trkpt>
      <trkpt lat="59.9174548" lon="17.7005087">
        <ele>55.4131</ele>
        <time>2014-06-04T14:25:50Z</time>
      </trkpt>
      <trkpt lat="59.9174417" lon="17.7004507">
        <ele>55.4131</ele>
        <time>2014-06-04T14:25:51Z</time>
      </trkpt>
      <trkpt lat="59.9174295" lon="17.7004013">
        <ele>55.4131</ele>
        <time>2014-06-04T14:25:52Z</time>
      </trkpt>
      <trkpt lat="59.9174197" lon="17.7003474">
        <ele>54.9324</ele>
        <time>2014-06-04T14:25:53Z</time>
      </trkpt>
      <trkpt lat="59.9174064" lon="17.7002922">
        <ele>54.4518</ele>
        <time>2014-06-04T14:25:54Z</time>
      </trkpt>
      <trkpt lat="59.9173934" lon="17.7002436">
        <ele>54.4518</ele>
        <time>2014-06-04T14:25:55Z</time>
      </trkpt>
      <trkpt lat="59.9173878" lon="17.7002019">
        <ele>53.9712</ele>
        <time>2014-06-04T14:25:56Z</time>
      </trkpt>
      <trkpt lat="59.9173778" lon="17.7001485">
        <ele>53.4905</ele>
        <time>2014-06-04T14:25:57Z</time>
      </trkpt>
      <trkpt lat="59.9173659" lon="17.7000963">
        <ele>53.4905</ele>
        <time>2014-06-04T14:25:58Z</time>
      </trkpt>
      <trkpt lat="59.9173539" lon="17.7000556">
        <ele>53.0098</ele>
        <time>2014-06-04T14:25:59Z</time>
      </trkpt>
      <trkpt lat="59.9173509" lon="17.7000229">
        <ele>53.0098</ele>
        <time>2014-06-04T14:26:00Z</time>
      </trkpt>
      <trkpt lat="59.9173457" lon="17.699998">
        <ele>53.0098</ele>
        <time>2014-06-04T14:26:01Z</time>
      </trkpt>
      <trkpt lat="59.9173285" lon="17.6999869">
        <ele>53.0098</ele>
        <time>2014-06-04T14:26:02Z</time>
      </trkpt>
      <trkpt lat="59.9173057" lon="17.6999819">
        <ele>53.0098</ele>
        <time>2014-06-04T14:26:03Z</time>
      </trkpt>
      <trkpt lat="59.9172816" lon="17.6999813">
        <ele>53.0098</ele>
        <time>2014-06-04T14:26:04Z</time>
      </trkpt>
      <trkpt lat="59.9172551" lon="17.69999">
        <ele>52.5292</ele>
        <time>2014-06-04T14:26:05Z</time>
      </trkpt>
      <trkpt lat="59.9172274" lon="17.7000027">
        <ele>52.5292</ele>
        <time>2014-06-04T14:26:06Z</time>
      </trkpt>
      <trkpt lat="59.9171991" lon="17.7000182">
        <ele>53.4905</ele>
        <time>2014-06-04T14:26:07Z</time>
      </trkpt>
      <trkpt lat="59.9171727" lon="17.7000269">
        <ele>53.4905</ele>
        <time>2014-06-04T14:26:08Z</time>
      </trkpt>
      <trkpt lat="59.9171478" lon="17.7000234">
        <ele>53.4905</ele>
        <time>2014-06-04T14:26:09Z</time>
      </trkpt>
      <trkpt lat="59.9171301" lon="17.7000108">
        <ele>53.9712</ele>
        <time>2014-06-04T14:26:10Z</time>
      </trkpt>
      <trkpt lat="59.9171099" lon="17.7000097">
        <ele>53.9712</ele>
        <time>2014-06-04T14:26:11Z</time>
      </trkpt>
      <trkpt lat="59.9170928" lon="17.6999984">
        <ele>53.4905</ele>
        <time>2014-06-04T14:26:12Z</time>
      </trkpt>
      <trkpt lat="59.9170756" lon="17.6999933">
        <ele>53.4905</ele>
        <time>2014-06-04T14:26:13Z</time>
      </trkpt>
      <trkpt lat="59.9170582" lon="17.6999938">
        <ele>53.0098</ele>
        <time>2014-06-04T14:26:14Z</time>
      </trkpt>
      <trkpt lat="59.917042" lon="17.6999949">
        <ele>52.5292</ele>
        <time>2014-06-04T14:26:15Z</time>
      </trkpt>
      <trkpt lat="59.9170256" lon="17.6999872">
        <ele>52.0486</ele>
        <time>2014-06-04T14:26:16Z</time>
      </trkpt>
      <trkpt lat="59.9170071" lon="17.6999903">
        <ele>52.5292</ele>
        <time>2014-06-04T14:26:17Z</time>
      </trkpt>
      <trkpt lat="59.9169853" lon="17.6999971">
        <ele>52.0486</ele>
        <time>2014-06-04T14:26:18Z</time>
      </trkpt>
      <trkpt lat="59.9169598" lon="17.7000138">
        <ele>52.5292</ele>
        <time>2014-06-04T14:26:19Z</time>
      </trkpt>
      <trkpt lat="59.9169375" lon="17.7000147">
        <ele>52.5292</ele>
        <time>2014-06-04T14:26:20Z</time>
      </trkpt>
      <trkpt lat="59.9169116" lon="17.7000196">
        <ele>52.5292</ele>
        <time>2014-06-04T14:26:21Z</time>
      </trkpt>
      <trkpt lat="59.9168898" lon="17.7000141">
        <ele>52.5292</ele>
        <time>2014-06-04T14:26:22Z</time>
      </trkpt>
      <trkpt lat="59.9168674" lon="17.7000176">
        <ele>53.0098</ele>
        <time>2014-06-04T14:26:23Z</time>
      </trkpt>
      <trkpt lat="59.9168475" lon="17.7000159">
        <ele>52.5292</ele>
        <time>2014-06-04T14:26:24Z</time>
      </trkpt>
      <trkpt lat="59.9168239" lon="17.7000162">
        <ele>53.4905</ele>
        <time>2014-06-04T14:26:25Z</time>
      </trkpt>
      <trkpt lat="59.9168039" lon="17.7000059">
        <ele>53.4905</ele>
        <time>2014-06-04T14:26:26Z</time>
      </trkpt>
      <trkpt lat="59.9167867" lon="17.7000041">
        <ele>53.0098</ele>
        <time>2014-06-04T14:26:27Z</time>
      </trkpt>
      <trkpt lat="59.9167727" lon="17.7000187">
        <ele>53.0098</ele>
        <time>2014-06-04T14:26:28Z</time>
      </trkpt>
      <trkpt lat="59.9167577" lon="17.7000229">
        <ele>52.0486</ele>
        <time>2014-06-04T14:26:29Z</time>
      </trkpt>
      <trkpt lat="59.9167387" lon="17.7000348">
        <ele>52.0486</ele>
        <time>2014-06-04T14:26:30Z</time>
      </trkpt>
      <trkpt lat="59.9167179" lon="17.7000458">
        <ele>51.5679</ele>
        <time>2014-06-04T14:26:31Z</time>
      </trkpt>
      <trkpt lat="59.9166967" lon="17.7000556">
        <ele>51.5679</ele>
        <time>2014-06-04T14:26:32Z</time>
      </trkpt>
      <trkpt lat="59.9166737" lon="17.7000659">
        <ele>51.5679</ele>
        <time>2014-06-04T14:26:33Z</time>
      </trkpt>
      <trkpt lat="59.91665" lon="17.7000814">
        <ele>51.5679</ele>
        <time>2014-06-04T14:26:34Z</time>
      </trkpt>
      <trkpt lat="59.9166294" lon="17.700095">
        <ele>52.0486</ele>
        <time>2014-06-04T14:26:35Z</time>
      </trkpt>
      <trkpt lat="59.9166054" lon="17.700106">
        <ele>52.0486</ele>
        <time>2014-06-04T14:26:36Z</time>
      </trkpt>
      <trkpt lat="59.9165867" lon="17.7001146">
        <ele>52.5292</ele>
        <time>2014-06-04T14:26:37Z</time>
      </trkpt>
      <trkpt lat="59.9165708" lon="17.7001175">
        <ele>52.5292</ele>
        <time>2014-06-04T14:26:38Z</time>
      </trkpt>
      <trkpt lat="59.9165519" lon="17.7001276">
        <ele>52.5292</ele>
        <time>2014-06-04T14:26:39Z</time>
      </trkpt>
      <trkpt lat="59.9165315" lon="17.7001435">
        <ele>52.5292</ele>
        <time>2014-06-04T14:26:40Z</time>
      </trkpt>
      <trkpt lat="59.9165158" lon="17.7001604">
        <ele>52.5292</ele>
        <time>2014-06-04T14:26:41Z</time>
      </trkpt>
      <trkpt lat="59.9164946" lon="17.7001823">
        <ele>52.5292</ele>
        <time>2014-06-04T14:26:42Z</time>
      </trkpt>
      <trkpt lat="59.9164755" lon="17.700202">
        <ele>52.0486</ele>
        <time>2014-06-04T14:26:43Z</time>
      </trkpt>
      <trkpt lat="59.9164594" lon="17.7002167">
        <ele>52.0486</ele>
        <time>2014-06-04T14:26:44Z</time>
      </trkpt>
      <trkpt lat="59.9164444" lon="17.7002301">
        <ele>52.0486</ele>
        <time>2014-06-04T14:26:45Z</time>
      </trkpt>
      <trkpt lat="59.916431" lon="17.7002522">
        <ele>52.0486</ele>
        <time>2014-06-04T14:26:46Z</time>
      </trkpt>
      <trkpt lat="59.9164219" lon="17.7002834">
        <ele>52.0486</ele>
        <time>2014-06-04T14:26:47Z</time>
      </trkpt>
      <trkpt lat="59.9164123" lon="17.7003155">
        <ele>52.0486</ele>
        <time>2014-06-04T14:26:48Z</time>
      </trkpt>
      <trkpt lat="59.9163991" lon="17.7003512">
        <ele>52.0486</ele>
        <time>2014-06-04T14:26:49Z</time>
      </trkpt>
      <trkpt lat="59.9163865" lon="17.700385">
        <ele>52.5292</ele>
        <time>2014-06-04T14:26:50Z</time>
      </trkpt>
      <trkpt lat="59.9163787" lon="17.7004198">
        <ele>52.5292</ele>
        <time>2014-06-04T14:26:51Z</time>
      </trkpt>
      <trkpt lat="59.9163708" lon="17.7004607">
        <ele>53.0098</ele>
        <time>2014-06-04T14:26:52Z</time>
      </trkpt>
      <trkpt lat="59.9163631" lon="17.7004974">
        <ele>53.4905</ele>
        <time>2014-06-04T14:26:53Z</time>
      </trkpt>
      <trkpt lat="59.9163546" lon="17.7005334">
        <ele>53.9712</ele>
        <time>2014-06-04T14:26:54Z</time>
      </trkpt>
      <trkpt lat="59.9163476" lon="17.7005718">
        <ele>54.4518</ele>
        <time>2014-06-04T14:26:55Z</time>
      </trkpt>
      <trkpt lat="59.9163406" lon="17.7006118">
        <ele>54.9324</ele>
        <time>2014-06-04T14:26:56Z</time>
      </trkpt>
      <trkpt lat="59.9163382" lon="17.7006475">
        <ele>55.4131</ele>
        <time>2014-06-04T14:26:57Z</time>
      </trkpt>
      <trkpt lat="59.9163344" lon="17.700689">
        <ele>55.4131</ele>
        <time>2014-06-04T14:26:58Z</time>
      </trkpt>
      <trkpt lat="59.9163263" lon="17.7007314">
        <ele>55.4131</ele>
        <time>2014-06-04T14:26:59Z</time>
      </trkpt>
      <trkpt lat="59.916317" lon="17.7007715">
        <ele>54.9324</ele>
        <time>2014-06-04T14:27:00Z</time>
      </trkpt>
      <trkpt lat="59.9163107" lon="17.7008109">
        <ele>54.9324</ele>
        <time>2014-06-04T14:27:01Z</time>
      </trkpt>
      <trkpt lat="59.9163009" lon="17.7008502">
        <ele>55.4131</ele>
        <time>2014-06-04T14:27:02Z</time>
      </trkpt>
      <trkpt lat="59.9162893" lon="17.70089">
        <ele>55.4131</ele>
        <time>2014-06-04T14:27:03Z</time>
      </trkpt>
      <trkpt lat="59.9162738" lon="17.7009366">
        <ele>55.4131</ele>
        <time>2014-06-04T14:27:04Z</time>
      </trkpt>
      <trkpt lat="59.9162605" lon="17.7009661">
        <ele>55.4131</ele>
        <time>2014-06-04T14:27:05Z</time>
      </trkpt>
      <trkpt lat="59.9162438" lon="17.7009983">
        <ele>54.9324</ele>
        <time>2014-06-04T14:27:06Z</time>
      </trkpt>
      <trkpt lat="59.9162238" lon="17.7010293">
        <ele>54.4518</ele>
        <time>2014-06-04T14:27:07Z</time>
      </trkpt>
      <trkpt lat="59.9162074" lon="17.7010676">
        <ele>54.9324</ele>
        <time>2014-06-04T14:27:08Z</time>
      </trkpt>
      <trkpt lat="59.9161922" lon="17.7010996">
        <ele>54.9324</ele>
        <time>2014-06-04T14:27:09Z</time>
      </trkpt>
      <trkpt lat="59.9161745" lon="17.7011375">
        <ele>55.8938</ele>
        <time>2014-06-04T14:27:10Z</time>
      </trkpt>
      <trkpt lat="59.9161578" lon="17.7011747">
        <ele>56.3745</ele>
        <time>2014-06-04T14:27:11Z</time>
      </trkpt>
      <trkpt lat="59.9161423" lon="17.7012061">
        <ele>56.8551</ele>
        <time>2014-06-04T14:27:12Z</time>
      </trkpt>
      <trkpt lat="59.9161248" lon="17.7012367">
        <ele>57.3358</ele>
        <time>2014-06-04T14:27:13Z</time>
      </trkpt>
      <trkpt lat="59.9161121" lon="17.7012624">
        <ele>57.3358</ele>
        <time>2014-06-04T14:27:14Z</time>
      </trkpt>
      <trkpt lat="59.9160994" lon="17.7012858">
        <ele>58.2971</ele>
        <time>2014-06-04T14:27:15Z</time>
      </trkpt>
      <trkpt lat="59.9160798" lon="17.7013127">
        <ele>58.2971</ele>
        <time>2014-06-04T14:27:16Z</time>
      </trkpt>
      <trkpt lat="59.9160564" lon="17.7013356">
        <ele>58.2971</ele>
        <time>2014-06-04T14:27:17Z</time>
      </trkpt>
      <trkpt lat="59.9160319" lon="17.7013629">
        <ele>58.7777</ele>
        <time>2014-06-04T14:27:18Z</time>
      </trkpt>
      <trkpt lat="59.9160077" lon="17.7013971">
        <ele>59.7391</ele>
        <time>2014-06-04T14:27:19Z</time>
      </trkpt>
      <trkpt lat="59.9159865" lon="17.7014282">
        <ele>59.7391</ele>
        <time>2014-06-04T14:27:20Z</time>
      </trkpt>
      <trkpt lat="59.9159695" lon="17.7014653">
        <ele>60.2197</ele>
        <time>2014-06-04T14:27:21Z</time>
      </trkpt>
      <trkpt lat="59.9159507" lon="17.7014975">
        <ele>61.181</ele>
        <time>2014-06-04T14:27:22Z</time>
      </trkpt>
      <trkpt lat="59.9159341" lon="17.7015224">
        <ele>60.7003</ele>
        <time>2014-06-04T14:27:23Z</time>
      </trkpt>
      <trkpt lat="59.9159243" lon="17.7015466">
        <ele>61.181</ele>
        <time>2014-06-04T14:27:24Z</time>
      </trkpt>
      <trkpt lat="59.9159114" lon="17.7015669">
        <ele>61.6617</ele>
        <time>2014-06-04T14:27:25Z</time>
      </trkpt>
      <trkpt lat="59.9158979" lon="17.7015878">
        <ele>62.1423</ele>
        <time>2014-06-04T14:27:26Z</time>
      </trkpt>
      <trkpt lat="59.9158884" lon="17.701608">
        <ele>62.1423</ele>
        <time>2014-06-04T14:27:27Z</time>
      </trkpt>
      <trkpt lat="59.9158736" lon="17.7016249">
        <ele>62.1423</ele>
        <time>2014-06-04T14:27:28Z</time>
      </trkpt>
      <trkpt lat="59.9158562" lon="17.7016287">
        <ele>60.7003</ele>
        <time>2014-06-04T14:27:29Z</time>
      </trkpt>
      <trkpt lat="59.9158346" lon="17.7016417">
        <ele>60.2197</ele>
        <time>2014-06-04T14:27:30Z</time>
      </trkpt>
      <trkpt lat="59.9158148" lon="17.7016604">
        <ele>59.2584</ele>
        <time>2014-06-04T14:27:31Z</time>
      </trkpt>
      <trkpt lat="59.9157998" lon="17.7016716">
        <ele>58.7777</ele>
        <time>2014-06-04T14:27:32Z</time>
      </trkpt>
      <trkpt lat="59.9157829" lon="17.7016974">
        <ele>58.2971</ele>
        <time>2014-06-04T14:27:33Z</time>
      </trkpt>
      <trkpt lat="59.9157549" lon="17.7017318">
        <ele>57.8165</ele>
        <time>2014-06-04T14:27:34Z</time>
      </trkpt>
      <trkpt lat="59.9157228" lon="17.7017896">
        <ele>59.2584</ele>
        <time>2014-06-04T14:27:35Z</time>
      </trkpt>
      <trkpt lat="59.9156954" lon="17.7018284">
        <ele>58.2971</ele>
        <time>2014-06-04T14:27:36Z</time>
      </trkpt>
      <trkpt lat="59.9156719" lon="17.7018576">
        <ele>58.2971</ele>
        <time>2014-06-04T14:27:37Z</time>
      </trkpt>
      <trkpt lat="59.9156506" lon="17.7018916">
        <ele>57.8165</ele>
        <time>2014-06-04T14:27:38Z</time>
      </trkpt>
      <trkpt lat="59.9156238" lon="17.7019271">
        <ele>57.8165</ele>
        <time>2014-06-04T14:27:39Z</time>
      </trkpt>
      <trkpt lat="59.9155984" lon="17.7019486">
        <ele>57.3358</ele>
        <time>2014-06-04T14:27:40Z</time>
      </trkpt>
      <trkpt lat="59.9155721" lon="17.7019721">
        <ele>56.3745</ele>
        <time>2014-06-04T14:27:41Z</time>
      </trkpt>
      <trkpt lat="59.915543" lon="17.7019903">
        <ele>55.8938</ele>
        <time>2014-06-04T14:27:42Z</time>
      </trkpt>
      <trkpt lat="59.9155156" lon="17.7019954">
        <ele>55.4131</ele>
        <time>2014-06-04T14:27:43Z</time>
      </trkpt>
      <trkpt lat="59.9154799" lon="17.7020125">
        <ele>55.8938</ele>
        <time>2014-06-04T14:27:44Z</time>
      </trkpt>
      <trkpt lat="59.9154446" lon="17.7020282">
        <ele>55.8938</ele>
        <time>2014-06-04T14:27:45Z</time>
      </trkpt>
      <trkpt lat="59.9154128" lon="17.7020379">
        <ele>56.3745</ele>
        <time>2014-06-04T14:27:46Z</time>
      </trkpt>
      <trkpt lat="59.9153895" lon="17.7020427">
        <ele>56.3745</ele>
        <time>2014-06-04T14:27:47Z</time>
      </trkpt>
      <trkpt lat="59.9153606" lon="17.7020396">
        <ele>56.3745</ele>
        <time>2014-06-04T14:27:48Z</time>
      </trkpt>
      <trkpt lat="59.9153279" lon="17.7020395">
        <ele>56.3745</ele>
        <time>2014-06-04T14:27:49Z</time>
      </trkpt>
      <trkpt lat="59.915297" lon="17.7020403">
        <ele>56.8551</ele>
        <time>2014-06-04T14:27:50Z</time>
      </trkpt>
      <trkpt lat="59.9152706" lon="17.7020343">
        <ele>57.8165</ele>
        <time>2014-06-04T14:27:51Z</time>
      </trkpt>
      <trkpt lat="59.9152476" lon="17.702023">
        <ele>57.3358</ele>
        <time>2014-06-04T14:27:52Z</time>
      </trkpt>
      <trkpt lat="59.9152285" lon="17.7020052">
        <ele>56.8551</ele>
        <time>2014-06-04T14:27:53Z</time>
      </trkpt>
      <trkpt lat="59.9152092" lon="17.7019727">
        <ele>56.3745</ele>
        <time>2014-06-04T14:27:54Z</time>
      </trkpt>
      <trkpt lat="59.9151825" lon="17.7019322">
        <ele>55.8938</ele>
        <time>2014-06-04T14:27:55Z</time>
      </trkpt>
      <trkpt lat="59.9151556" lon="17.7018944">
        <ele>55.8938</ele>
        <time>2014-06-04T14:27:56Z</time>
      </trkpt>
      <trkpt lat="59.9151276" lon="17.7018766">
        <ele>55.8938</ele>
        <time>2014-06-04T14:27:57Z</time>
      </trkpt>
      <trkpt lat="59.915103" lon="17.7018707">
        <ele>55.8938</ele>
        <time>2014-06-04T14:27:58Z</time>
      </trkpt>
      <trkpt lat="59.9150816" lon="17.7018657">
        <ele>55.8938</ele>
        <time>2014-06-04T14:27:59Z</time>
      </trkpt>
      <trkpt lat="59.9150617" lon="17.7018645">
        <ele>55.8938</ele>
        <time>2014-06-04T14:28:00Z</time>
      </trkpt>
      <trkpt lat="59.915038" lon="17.7018686">
        <ele>55.4131</ele>
        <time>2014-06-04T14:28:01Z</time>
      </trkpt>
      <trkpt lat="59.9150131" lon="17.7018761">
        <ele>54.9324</ele>
        <time>2014-06-04T14:28:02Z</time>
      </trkpt>
      <trkpt lat="59.9149877" lon="17.701881">
        <ele>54.9324</ele>
        <time>2014-06-04T14:28:03Z</time>
      </trkpt>
      <trkpt lat="59.914964" lon="17.7018793">
        <ele>54.4518</ele>
        <time>2014-06-04T14:28:04Z</time>
      </trkpt>
      <trkpt lat="59.9149365" lon="17.7018803">
        <ele>53.9712</ele>
        <time>2014-06-04T14:28:05Z</time>
      </trkpt>
      <trkpt lat="59.9149106" lon="17.7018783">
        <ele>53.9712</ele>
        <time>2014-06-04T14:28:06Z</time>
      </trkpt>
      <trkpt lat="59.9148887" lon="17.7018631">
        <ele>53.4905</ele>
        <time>2014-06-04T14:28:07Z</time>
      </trkpt>
      <trkpt lat="59.9148639" lon="17.7018576">
        <ele>53.4905</ele>
        <time>2014-06-04T14:28:08Z</time>
      </trkpt>
      <trkpt lat="59.9148399" lon="17.7018556">
        <ele>53.4905</ele>
        <time>2014-06-04T14:28:09Z</time>
      </trkpt>
      <trkpt lat="59.9148192" lon="17.7018457">
        <ele>53.4905</ele>
        <time>2014-06-04T14:28:10Z</time>
      </trkpt>
      <trkpt lat="59.9147928" lon="17.7018338">
        <ele>53.0098</ele>
        <time>2014-06-04T14:28:11Z</time>
      </trkpt>
      <trkpt lat="59.9147698" lon="17.7018223">
        <ele>52.5292</ele>
        <time>2014-06-04T14:28:12Z</time>
      </trkpt>
      <trkpt lat="59.9147467" lon="17.7018148">
        <ele>52.0486</ele>
        <time>2014-06-04T14:28:13Z</time>
      </trkpt>
      <trkpt lat="59.914721" lon="17.7018072">
        <ele>51.5679</ele>
        <time>2014-06-04T14:28:14Z</time>
      </trkpt>
      <trkpt lat="59.9147016" lon="17.7017984">
        <ele>51.0872</ele>
        <time>2014-06-04T14:28:15Z</time>
      </trkpt>
      <trkpt lat="59.9146831" lon="17.7017891">
        <ele>50.6066</ele>
        <time>2014-06-04T14:28:16Z</time>
      </trkpt>
      <trkpt lat="59.9146645" lon="17.7017867">
        <ele>50.6066</ele>
        <time>2014-06-04T14:28:17Z</time>
      </trkpt>
      <trkpt lat="59.9146411" lon="17.7017841">
        <ele>50.6066</ele>
        <time>2014-06-04T14:28:18Z</time>
      </trkpt>
      <trkpt lat="59.9146173" lon="17.7017818">
        <ele>50.6066</ele>
        <time>2014-06-04T14:28:19Z</time>
      </trkpt>
      <trkpt lat="59.9145965" lon="17.7017877">
        <ele>50.126</ele>
        <time>2014-06-04T14:28:20Z</time>
      </trkpt>
      <trkpt lat="59.9145717" lon="17.7017981">
        <ele>50.126</ele>
        <time>2014-06-04T14:28:21Z</time>
      </trkpt>
      <trkpt lat="59.9145458" lon="17.7018155">
        <ele>50.6066</ele>
        <time>2014-06-04T14:28:22Z</time>
      </trkpt>
      <trkpt lat="59.9145216" lon="17.7018359">
        <ele>50.6066</ele>
        <time>2014-06-04T14:28:23Z</time>
      </trkpt>
      <trkpt lat="59.9144951" lon="17.7018447">
        <ele>50.126</ele>
        <time>2014-06-04T14:28:24Z</time>
      </trkpt>
      <trkpt lat="59.9144692" lon="17.7018451">
        <ele>49.6453</ele>
        <time>2014-06-04T14:28:25Z</time>
      </trkpt>
      <trkpt lat="59.9144397" lon="17.7018621">
        <ele>49.6453</ele>
        <time>2014-06-04T14:28:26Z</time>
      </trkpt>
      <trkpt lat="59.9144208" lon="17.7018705">
        <ele>49.6453</ele>
        <time>2014-06-04T14:28:27Z</time>
      </trkpt>
      <trkpt lat="59.9144033" lon="17.7018799">
        <ele>49.6453</ele>
        <time>2014-06-04T14:28:28Z</time>
      </trkpt>
      <trkpt lat="59.914379" lon="17.7018875">
        <ele>49.1646</ele>
        <time>2014-06-04T14:28:29Z</time>
      </trkpt>
      <trkpt lat="59.9143546" lon="17.701897">
        <ele>48.684</ele>
        <time>2014-06-04T14:28:30Z</time>
      </trkpt>
      <trkpt lat="59.9143312" lon="17.70191">
        <ele>48.2034</ele>
        <time>2014-06-04T14:28:31Z</time>
      </trkpt>
      <trkpt lat="59.9143058" lon="17.7019254">
        <ele>47.7225</ele>
        <time>2014-06-04T14:28:32Z</time>
      </trkpt>
      <trkpt lat="59.9142817" lon="17.7019375">
        <ele>47.2418</ele>
        <time>2014-06-04T14:28:33Z</time>
      </trkpt>
      <trkpt lat="59.9142599" lon="17.701952">
        <ele>46.7612</ele>
        <time>2014-06-04T14:28:34Z</time>
      </trkpt>
      <trkpt lat="59.9142382" lon="17.7019649">
        <ele>46.2806</ele>
        <time>2014-06-04T14:28:35Z</time>
      </trkpt>
      <trkpt lat="59.9142194" lon="17.7019808">
        <ele>45.7999</ele>
        <time>2014-06-04T14:28:36Z</time>
      </trkpt>
      <trkpt lat="59.9142019" lon="17.7020104">
        <ele>45.3192</ele>
        <time>2014-06-04T14:28:37Z</time>
      </trkpt>
      <trkpt lat="59.9141899" lon="17.7020461">
        <ele>44.8386</ele>
        <time>2014-06-04T14:28:38Z</time>
      </trkpt>
      <trkpt lat="59.914179" lon="17.7020849">
        <ele>44.358</ele>
        <time>2014-06-04T14:28:39Z</time>
      </trkpt>
      <trkpt lat="59.9141696" lon="17.7021273">
        <ele>43.8773</ele>
        <time>2014-06-04T14:28:40Z</time>
      </trkpt>
      <trkpt lat="59.9141593" lon="17.7021792">
        <ele>42.916</ele>
        <time>2014-06-04T14:28:41Z</time>
      </trkpt>
      <trkpt lat="59.9141325" lon="17.7022677">
        <ele>41.9547</ele>
        <time>2014-06-04T14:28:43Z</time>
      </trkpt>
      <trkpt lat="59.9141206" lon="17.7023112">
        <ele>41.474</ele>
        <time>2014-06-04T14:28:44Z</time>
      </trkpt>
      <trkpt lat="59.9141092" lon="17.7023508">
        <ele>40.5128</ele>
        <time>2014-06-04T14:28:45Z</time>
      </trkpt>
      <trkpt lat="59.9140937" lon="17.702385">
        <ele>40.5128</ele>
        <time>2014-06-04T14:28:46Z</time>
      </trkpt>
      <trkpt lat="59.9140823" lon="17.7024145">
        <ele>40.0321</ele>
        <time>2014-06-04T14:28:47Z</time>
      </trkpt>
      <trkpt lat="59.9140719" lon="17.7024513">
        <ele>39.5513</ele>
        <time>2014-06-04T14:28:48Z</time>
      </trkpt>
      <trkpt lat="59.9140558" lon="17.7024927">
        <ele>39.0707</ele>
        <time>2014-06-04T14:28:49Z</time>
      </trkpt>
      <trkpt lat="59.9140403" lon="17.7025279">
        <ele>39.0707</ele>
        <time>2014-06-04T14:28:50Z</time>
      </trkpt>
      <trkpt lat="59.9140241" lon="17.7025611">
        <ele>38.5901</ele>
        <time>2014-06-04T14:28:51Z</time>
      </trkpt>
      <trkpt lat="59.914003" lon="17.7025863">
        <ele>38.1094</ele>
        <time>2014-06-04T14:28:52Z</time>
      </trkpt>
      <trkpt lat="59.9139829" lon="17.7026025">
        <ele>37.6287</ele>
        <time>2014-06-04T14:28:53Z</time>
      </trkpt>
      <trkpt lat="59.9139658" lon="17.7026251">
        <ele>37.6287</ele>
        <time>2014-06-04T14:28:54Z</time>
      </trkpt>
      <trkpt lat="59.9139476" lon="17.7026497">
        <ele>37.6287</ele>
        <time>2014-06-04T14:28:55Z</time>
      </trkpt>
      <trkpt lat="59.9139273" lon="17.7026839">
        <ele>37.6287</ele>
        <time>2014-06-04T14:28:56Z</time>
      </trkpt>
      <trkpt lat="59.9139056" lon="17.7027232">
        <ele>37.6287</ele>
        <time>2014-06-04T14:28:57Z</time>
      </trkpt>
      <trkpt lat="59.9138891" lon="17.7027599">
        <ele>37.6287</ele>
        <time>2014-06-04T14:28:58Z</time>
      </trkpt>
      <trkpt lat="59.9138739" lon="17.7027978">
        <ele>37.6287</ele>
        <time>2014-06-04T14:28:59Z</time>
      </trkpt>
      <trkpt lat="59.9138559" lon="17.7028378">
        <ele>38.1094</ele>
        <time>2014-06-04T14:29:00Z</time>
      </trkpt>
      <trkpt lat="59.9138422" lon="17.7028724">
        <ele>38.1094</ele>
        <time>2014-06-04T14:29:01Z</time>
      </trkpt>
      <trkpt lat="59.9138301" lon="17.7029108">
        <ele>38.1094</ele>
        <time>2014-06-04T14:29:02Z</time>
      </trkpt>
      <trkpt lat="59.9138135" lon="17.7029548">
        <ele>38.1094</ele>
        <time>2014-06-04T14:29:03Z</time>
      </trkpt>
      <trkpt lat="59.9137989" lon="17.7030074">
        <ele>38.5901</ele>
        <time>2014-06-04T14:29:04Z</time>
      </trkpt>
      <trkpt lat="59.9137899" lon="17.7030433">
        <ele>38.5901</ele>
        <time>2014-06-04T14:29:05Z</time>
      </trkpt>
      <trkpt lat="59.9137765" lon="17.7030789">
        <ele>38.5901</ele>
        <time>2014-06-04T14:29:06Z</time>
      </trkpt>
      <trkpt lat="59.9137604" lon="17.7031172">
        <ele>38.5901</ele>
        <time>2014-06-04T14:29:07Z</time>
      </trkpt>
      <trkpt lat="59.9137436" lon="17.7031525">
        <ele>39.0707</ele>
        <time>2014-06-04T14:29:08Z</time>
      </trkpt>
      <trkpt lat="59.9137295" lon="17.7031906">
        <ele>39.5513</ele>
        <time>2014-06-04T14:29:09Z</time>
      </trkpt>
      <trkpt lat="59.9137141" lon="17.7032291">
        <ele>40.0321</ele>
        <time>2014-06-04T14:29:10Z</time>
      </trkpt>
      <trkpt lat="59.9136979" lon="17.7032667">
        <ele>40.0321</ele>
        <time>2014-06-04T14:29:11Z</time>
      </trkpt>
      <trkpt lat="59.9136818" lon="17.7033097">
        <ele>40.5128</ele>
        <time>2014-06-04T14:29:12Z</time>
      </trkpt>
      <trkpt lat="59.9136672" lon="17.7033512">
        <ele>40.5128</ele>
        <time>2014-06-04T14:29:13Z</time>
      </trkpt>
      <trkpt lat="59.9136528" lon="17.7033871">
        <ele>40.5128</ele>
        <time>2014-06-04T14:29:14Z</time>
      </trkpt>
      <trkpt lat="59.9136377" lon="17.7034323">
        <ele>40.9934</ele>
        <time>2014-06-04T14:29:15Z</time>
      </trkpt>
      <trkpt lat="59.9136264" lon="17.7034721">
        <ele>41.474</ele>
        <time>2014-06-04T14:29:16Z</time>
      </trkpt>
      <trkpt lat="59.9136164" lon="17.7035157">
        <ele>41.474</ele>
        <time>2014-06-04T14:29:17Z</time>
      </trkpt>
      <trkpt lat="59.913612" lon="17.7035607">
        <ele>40.9934</ele>
        <time>2014-06-04T14:29:18Z</time>
      </trkpt>
      <trkpt lat="59.9136119" lon="17.7036083">
        <ele>40.9934</ele>
        <time>2014-06-04T14:29:19Z</time>
      </trkpt>
      <trkpt lat="59.9136119" lon="17.7036545">
        <ele>40.5128</ele>
        <time>2014-06-04T14:29:20Z</time>
      </trkpt>
      <trkpt lat="59.9136103" lon="17.7036982">
        <ele>40.0321</ele>
        <time>2014-06-04T14:29:21Z</time>
      </trkpt>
      <trkpt lat="59.9136098" lon="17.7037414">
        <ele>39.5513</ele>
        <time>2014-06-04T14:29:22Z</time>
      </trkpt>
      <trkpt lat="59.9136087" lon="17.7037821">
        <ele>39.0707</ele>
        <time>2014-06-04T14:29:23Z</time>
      </trkpt>
      <trkpt lat="59.9136097" lon="17.7038213">
        <ele>38.5901</ele>
        <time>2014-06-04T14:29:24Z</time>
      </trkpt>
      <trkpt lat="59.9136074" lon="17.7038618">
        <ele>38.1094</ele>
        <time>2014-06-04T14:29:25Z</time>
      </trkpt>
      <trkpt lat="59.9136041" lon="17.7039103">
        <ele>38.1094</ele>
        <time>2014-06-04T14:29:26Z</time>
      </trkpt>
      <trkpt lat="59.9136057" lon="17.7039596">
        <ele>38.1094</ele>
        <time>2014-06-04T14:29:27Z</time>
      </trkpt>
      <trkpt lat="59.9136105" lon="17.7040068">
        <ele>37.6287</ele>
        <time>2014-06-04T14:29:28Z</time>
      </trkpt>
      <trkpt lat="59.913614" lon="17.7040556">
        <ele>37.6287</ele>
        <time>2014-06-04T14:29:29Z</time>
      </trkpt>
      <trkpt lat="59.913614" lon="17.7041013">
        <ele>36.6675</ele>
        <time>2014-06-04T14:29:30Z</time>
      </trkpt>
      <trkpt lat="59.9136165" lon="17.7041436">
        <ele>36.1868</ele>
        <time>2014-06-04T14:29:31Z</time>
      </trkpt>
      <trkpt lat="59.9136213" lon="17.7041846">
        <ele>35.7061</ele>
        <time>2014-06-04T14:29:32Z</time>
      </trkpt>
      <trkpt lat="59.9136295" lon="17.7042291">
        <ele>35.2255</ele>
        <time>2014-06-04T14:29:33Z</time>
      </trkpt>
      <trkpt lat="59.9136392" lon="17.7042726">
        <ele>35.2255</ele>
        <time>2014-06-04T14:29:34Z</time>
      </trkpt>
      <trkpt lat="59.9136471" lon="17.7043159">
        <ele>35.2255</ele>
        <time>2014-06-04T14:29:35Z</time>
      </trkpt>
      <trkpt lat="59.9136521" lon="17.7043639">
        <ele>35.2255</ele>
        <time>2014-06-04T14:29:36Z</time>
      </trkpt>
      <trkpt lat="59.9136565" lon="17.7044113">
        <ele>34.7449</ele>
        <time>2014-06-04T14:29:37Z</time>
      </trkpt>
      <trkpt lat="59.9136657" lon="17.7044555">
        <ele>34.7449</ele>
        <time>2014-06-04T14:29:38Z</time>
      </trkpt>
      <trkpt lat="59.913672" lon="17.7045012">
        <ele>35.2255</ele>
        <time>2014-06-04T14:29:39Z</time>
      </trkpt>
      <trkpt lat="59.9136725" lon="17.704553">
        <ele>35.2255</ele>
        <time>2014-06-04T14:29:40Z</time>
      </trkpt>
      <trkpt lat="59.9136731" lon="17.7046005">
        <ele>35.7061</ele>
        <time>2014-06-04T14:29:41Z</time>
      </trkpt>
      <trkpt lat="59.9136744" lon="17.7046438">
        <ele>36.1868</ele>
        <time>2014-06-04T14:29:42Z</time>
      </trkpt>
      <trkpt lat="59.9136751" lon="17.704692">
        <ele>36.1868</ele>
        <time>2014-06-04T14:29:43Z</time>
      </trkpt>
      <trkpt lat="59.9136697" lon="17.7047355">
        <ele>36.6675</ele>
        <time>2014-06-04T14:29:44Z</time>
      </trkpt>
      <trkpt lat="59.9136616" lon="17.7047839">
        <ele>37.1481</ele>
        <time>2014-06-04T14:29:45Z</time>
      </trkpt>
      <trkpt lat="59.9136501" lon="17.7048372">
        <ele>38.1094</ele>
        <time>2014-06-04T14:29:46Z</time>
      </trkpt>
      <trkpt lat="59.9136404" lon="17.7048873">
        <ele>39.0707</ele>
        <time>2014-06-04T14:29:47Z</time>
      </trkpt>
      <trkpt lat="59.913633" lon="17.7049227">
        <ele>39.5513</ele>
        <time>2014-06-04T14:29:48Z</time>
      </trkpt>
      <trkpt lat="59.9136207" lon="17.704961">
        <ele>39.5513</ele>
        <time>2014-06-04T14:29:49Z</time>
      </trkpt>
      <trkpt lat="59.9136101" lon="17.7049916">
        <ele>40.0321</ele>
        <time>2014-06-04T14:29:50Z</time>
      </trkpt>
      <trkpt lat="59.9135946" lon="17.7050237">
        <ele>41.474</ele>
        <time>2014-06-04T14:29:51Z</time>
      </trkpt>
      <trkpt lat="59.9135799" lon="17.7050406">
        <ele>42.4354</ele>
        <time>2014-06-04T14:29:52Z</time>
      </trkpt>
      <trkpt lat="59.9135637" lon="17.7050767">
        <ele>43.3966</ele>
        <time>2014-06-04T14:29:53Z</time>
      </trkpt>
      <trkpt lat="59.9135481" lon="17.7051071">
        <ele>43.8773</ele>
        <time>2014-06-04T14:29:54Z</time>
      </trkpt>
      <trkpt lat="59.9135325" lon="17.7051307">
        <ele>44.358</ele>
        <time>2014-06-04T14:29:55Z</time>
      </trkpt>
      <trkpt lat="59.9135172" lon="17.7051499">
        <ele>45.3192</ele>
        <time>2014-06-04T14:29:56Z</time>
      </trkpt>
      <trkpt lat="59.9135016" lon="17.7051667">
        <ele>45.3192</ele>
        <time>2014-06-04T14:29:57Z</time>
      </trkpt>
      <trkpt lat="59.9134885" lon="17.705205">
        <ele>45.3192</ele>
        <time>2014-06-04T14:29:58Z</time>
      </trkpt>
      <trkpt lat="59.9134783" lon="17.7052392">
        <ele>45.3192</ele>
        <time>2014-06-04T14:29:59Z</time>
      </trkpt>
      <trkpt lat="59.9134677" lon="17.7052709">
        <ele>45.3192</ele>
        <time>2014-06-04T14:30:00Z</time>
      </trkpt>
      <trkpt lat="59.9134545" lon="17.7053126">
        <ele>44.8386</ele>
        <time>2014-06-04T14:30:01Z</time>
      </trkpt>
      <trkpt lat="59.9134439" lon="17.7053527">
        <ele>44.8386</ele>
        <time>2014-06-04T14:30:02Z</time>
      </trkpt>
      <trkpt lat="59.9134315" lon="17.7053986">
        <ele>45.3192</ele>
        <time>2014-06-04T14:30:03Z</time>
      </trkpt>
      <trkpt lat="59.9134192" lon="17.7054448">
        <ele>45.3192</ele>
        <time>2014-06-04T14:30:04Z</time>
      </trkpt>
      <trkpt lat="59.9134094" lon="17.7054899">
        <ele>45.3192</ele>
        <time>2014-06-04T14:30:05Z</time>
      </trkpt>
      <trkpt lat="59.9134041" lon="17.7055398">
        <ele>45.3192</ele>
        <time>2014-06-04T14:30:06Z</time>
      </trkpt>
      <trkpt lat="59.9133949" lon="17.7055944">
        <ele>45.7999</ele>
        <time>2014-06-04T14:30:07Z</time>
      </trkpt>
      <trkpt lat="59.9133905" lon="17.7056422">
        <ele>46.2806</ele>
        <time>2014-06-04T14:30:08Z</time>
      </trkpt>
      <trkpt lat="59.9133848" lon="17.7056846">
        <ele>46.7612</ele>
        <time>2014-06-04T14:30:09Z</time>
      </trkpt>
      <trkpt lat="59.913371" lon="17.7057359">
        <ele>48.2034</ele>
        <time>2014-06-04T14:30:10Z</time>
      </trkpt>
      <trkpt lat="59.9133529" lon="17.7057736">
        <ele>47.7225</ele>
        <time>2014-06-04T14:30:11Z</time>
      </trkpt>
      <trkpt lat="59.9133357" lon="17.7058256">
        <ele>48.2034</ele>
        <time>2014-06-04T14:30:12Z</time>
      </trkpt>
      <trkpt lat="59.913325" lon="17.7058717">
        <ele>48.2034</ele>
        <time>2014-06-04T14:30:13Z</time>
      </trkpt>
      <trkpt lat="59.9133103" lon="17.7059067">
        <ele>48.2034</ele>
        <time>2014-06-04T14:30:14Z</time>
      </trkpt>
      <trkpt lat="59.9132975" lon="17.7059435">
        <ele>48.684</ele>
        <time>2014-06-04T14:30:15Z</time>
      </trkpt>
      <trkpt lat="59.9132849" lon="17.705981">
        <ele>48.2034</ele>
        <time>2014-06-04T14:30:16Z</time>
      </trkpt>
      <trkpt lat="59.9132773" lon="17.7060231">
        <ele>48.2034</ele>
        <time>2014-06-04T14:30:17Z</time>
      </trkpt>
      <trkpt lat="59.9132719" lon="17.7060665">
        <ele>48.2034</ele>
        <time>2014-06-04T14:30:18Z</time>
      </trkpt>
      <trkpt lat="59.9132638" lon="17.7061038">
        <ele>48.2034</ele>
        <time>2014-06-04T14:30:19Z</time>
      </trkpt>
      <trkpt lat="59.9132595" lon="17.7061391">
        <ele>47.7225</ele>
        <time>2014-06-04T14:30:20Z</time>
      </trkpt>
      <trkpt lat="59.9132525" lon="17.7061704">
        <ele>47.2418</ele>
        <time>2014-06-04T14:30:21Z</time>
      </trkpt>
      <trkpt lat="59.9132346" lon="17.7062104">
        <ele>47.2418</ele>
        <time>2014-06-04T14:30:22Z</time>
      </trkpt>
      <trkpt lat="59.9132203" lon="17.7062482">
        <ele>46.7612</ele>
        <time>2014-06-04T14:30:23Z</time>
      </trkpt>
      <trkpt lat="59.9132073" lon="17.7062942">
        <ele>47.2418</ele>
        <time>2014-06-04T14:30:24Z</time>
      </trkpt>
      <trkpt lat="59.9131968" lon="17.7063318">
        <ele>47.7225</ele>
        <time>2014-06-04T14:30:25Z</time>
      </trkpt>
      <trkpt lat="59.9131844" lon="17.70637">
        <ele>48.2034</ele>
        <time>2014-06-04T14:30:26Z</time>
      </trkpt>
      <trkpt lat="59.9131633" lon="17.7064078">
        <ele>49.1646</ele>
        <time>2014-06-04T14:30:27Z</time>
      </trkpt>
      <trkpt lat="59.9131422" lon="17.706442">
        <ele>50.6066</ele>
        <time>2014-06-04T14:30:28Z</time>
      </trkpt>
      <trkpt lat="59.9131209" lon="17.7064721">
        <ele>51.5679</ele>
        <time>2014-06-04T14:30:29Z</time>
      </trkpt>
      <trkpt lat="59.9131006" lon="17.7065081">
        <ele>53.0098</ele>
        <time>2014-06-04T14:30:30Z</time>
      </trkpt>
      <trkpt lat="59.9130793" lon="17.7065437">
        <ele>54.4518</ele>
        <time>2014-06-04T14:30:31Z</time>
      </trkpt>
      <trkpt lat="59.9130626" lon="17.7065585">
        <ele>54.9324</ele>
        <time>2014-06-04T14:30:32Z</time>
      </trkpt>
      <trkpt lat="59.9130477" lon="17.7065991">
        <ele>56.3745</ele>
        <time>2014-06-04T14:30:33Z</time>
      </trkpt>
      <trkpt lat="59.9130281" lon="17.7066466">
        <ele>58.2971</ele>
        <time>2014-06-04T14:30:34Z</time>
      </trkpt>
      <trkpt lat="59.9130095" lon="17.7066772">
        <ele>58.7777</ele>
        <time>2014-06-04T14:30:35Z</time>
      </trkpt>
      <trkpt lat="59.9129875" lon="17.7067143">
        <ele>60.7003</ele>
        <time>2014-06-04T14:30:36Z</time>
      </trkpt>
      <trkpt lat="59.9129621" lon="17.7067539">
        <ele>63.1036</ele>
        <time>2014-06-04T14:30:37Z</time>
      </trkpt>
      <trkpt lat="59.9129349" lon="17.7067835">
        <ele>65.0264</ele>
        <time>2014-06-04T14:30:38Z</time>
      </trkpt>
      <trkpt lat="59.9129184" lon="17.7067881">
        <ele>65.5071</ele>
        <time>2014-06-04T14:30:39Z</time>
      </trkpt>
      <trkpt lat="59.9129095" lon="17.7067767">
        <ele>65.0264</ele>
        <time>2014-06-04T14:30:40Z</time>
      </trkpt>
      <trkpt lat="59.9128956" lon="17.7067791">
        <ele>65.5071</ele>
        <time>2014-06-04T14:30:41Z</time>
      </trkpt>
      <trkpt lat="59.9128718" lon="17.7067913">
        <ele>66.4683</ele>
        <time>2014-06-04T14:30:42Z</time>
      </trkpt>
      <trkpt lat="59.9128519" lon="17.7067886">
        <ele>66.949</ele>
        <time>2014-06-04T14:30:43Z</time>
      </trkpt>
      <trkpt lat="59.9128276" lon="17.7067912">
        <ele>67.4297</ele>
        <time>2014-06-04T14:30:44Z</time>
      </trkpt>
      <trkpt lat="59.9128042" lon="17.7067853">
        <ele>66.949</ele>
        <time>2014-06-04T14:30:45Z</time>
      </trkpt>
      <trkpt lat="59.9127791" lon="17.7067858">
        <ele>67.4297</ele>
        <time>2014-06-04T14:30:46Z</time>
      </trkpt>
      <trkpt lat="59.9127535" lon="17.7068018">
        <ele>68.3909</ele>
        <time>2014-06-04T14:30:47Z</time>
      </trkpt>
      <trkpt lat="59.9127324" lon="17.7068159">
        <ele>68.3909</ele>
        <time>2014-06-04T14:30:48Z</time>
      </trkpt>
      <trkpt lat="59.912713" lon="17.7068399">
        <ele>69.8329</ele>
        <time>2014-06-04T14:30:49Z</time>
      </trkpt>
      <trkpt lat="59.9126935" lon="17.7068487">
        <ele>70.7942</ele>
        <time>2014-06-04T14:30:50Z</time>
      </trkpt>
      <trkpt lat="59.9126772" lon="17.7068357">
        <ele>70.7942</ele>
        <time>2014-06-04T14:30:51Z</time>
      </trkpt>
      <trkpt lat="59.9126597" lon="17.7068215">
        <ele>70.3135</ele>
        <time>2014-06-04T14:30:52Z</time>
      </trkpt>
      <trkpt lat="59.912637" lon="17.7068309">
        <ele>69.8329</ele>
        <time>2014-06-04T14:30:53Z</time>
      </trkpt>
      <trkpt lat="59.9126172" lon="17.7068476">
        <ele>69.8329</ele>
        <time>2014-06-04T14:30:54Z</time>
      </trkpt>
      <trkpt lat="59.9125925" lon="17.7068615">
        <ele>69.3523</ele>
        <time>2014-06-04T14:30:55Z</time>
      </trkpt>
      <trkpt lat="59.9125676" lon="17.7068876">
        <ele>68.8716</ele>
        <time>2014-06-04T14:30:56Z</time>
      </trkpt>
      <trkpt lat="59.912536" lon="17.7069249">
        <ele>68.8716</ele>
        <time>2014-06-04T14:30:57Z</time>
      </trkpt>
      <trkpt lat="59.9125156" lon="17.7069453">
        <ele>67.9103</ele>
        <time>2014-06-04T14:30:58Z</time>
      </trkpt>
      <trkpt lat="59.9125023" lon="17.7069626">
        <ele>66.4683</ele>
        <time>2014-06-04T14:30:59Z</time>
      </trkpt>
      <trkpt lat="59.9124852" lon="17.7069926">
        <ele>65.9877</ele>
        <time>2014-06-04T14:31:00Z</time>
      </trkpt>
      <trkpt lat="59.912468" lon="17.7070166">
        <ele>64.5457</ele>
        <time>2014-06-04T14:31:01Z</time>
      </trkpt>
      <trkpt lat="59.9124535" lon="17.7070531">
        <ele>64.0651</ele>
        <time>2014-06-04T14:31:02Z</time>
      </trkpt>
      <trkpt lat="59.9124407" lon="17.7070915">
        <ele>63.5844</ele>
        <time>2014-06-04T14:31:03Z</time>
      </trkpt>
      <trkpt lat="59.9124339" lon="17.7071243">
        <ele>62.6229</ele>
        <time>2014-06-04T14:31:04Z</time>
      </trkpt>
      <trkpt lat="59.9124309" lon="17.7071574">
        <ele>61.181</ele>
        <time>2014-06-04T14:31:05Z</time>
      </trkpt>
      <trkpt lat="59.9124344" lon="17.7071964">
        <ele>60.7003</ele>
        <time>2014-06-04T14:31:06Z</time>
      </trkpt>
      <trkpt lat="59.9124361" lon="17.7072318">
        <ele>59.2584</ele>
        <time>2014-06-04T14:31:07Z</time>
      </trkpt>
      <trkpt lat="59.912441" lon="17.7072569">
        <ele>58.2971</ele>
        <time>2014-06-04T14:31:08Z</time>
      </trkpt>
      <trkpt lat="59.9124454" lon="17.7072874">
        <ele>56.8551</ele>
        <time>2014-06-04T14:31:09Z</time>
      </trkpt>
      <trkpt lat="59.9124453" lon="17.7073276">
        <ele>54.9324</ele>
        <time>2014-06-04T14:31:10Z</time>
      </trkpt>
      <trkpt lat="59.9124454" lon="17.7073723">
        <ele>53.9712</ele>
        <time>2014-06-04T14:31:11Z</time>
      </trkpt>
      <trkpt lat="59.9124423" lon="17.7074097">
        <ele>52.0486</ele>
        <time>2014-06-04T14:31:12Z</time>
      </trkpt>
      <trkpt lat="59.9124417" lon="17.7074507">
        <ele>50.6066</ele>
        <time>2014-06-04T14:31:13Z</time>
      </trkpt>
      <trkpt lat="59.9124412" lon="17.7074936">
        <ele>49.1646</ele>
        <time>2014-06-04T14:31:14Z</time>
      </trkpt>
      <trkpt lat="59.912439" lon="17.7075334">
        <ele>48.2034</ele>
        <time>2014-06-04T14:31:15Z</time>
      </trkpt>
      <trkpt lat="59.9124319" lon="17.7075742">
        <ele>47.7225</ele>
        <time>2014-06-04T14:31:16Z</time>
      </trkpt>
      <trkpt lat="59.9124246" lon="17.7076117">
        <ele>46.2806</ele>
        <time>2014-06-04T14:31:17Z</time>
      </trkpt>
      <trkpt lat="59.9124144" lon="17.7076516">
        <ele>44.8386</ele>
        <time>2014-06-04T14:31:18Z</time>
      </trkpt>
      <trkpt lat="59.9124023" lon="17.7077011">
        <ele>42.916</ele>
        <time>2014-06-04T14:31:19Z</time>
      </trkpt>
      <trkpt lat="59.9123884" lon="17.7077515">
        <ele>41.9547</ele>
        <time>2014-06-04T14:31:20Z</time>
      </trkpt>
      <trkpt lat="59.9123732" lon="17.7077914">
        <ele>40.9934</ele>
        <time>2014-06-04T14:31:21Z</time>
      </trkpt>
      <trkpt lat="59.9123553" lon="17.7078261">
        <ele>40.9934</ele>
        <time>2014-06-04T14:31:22Z</time>
      </trkpt>
      <trkpt lat="59.9123374" lon="17.707864">
        <ele>40.5128</ele>
        <time>2014-06-04T14:31:23Z</time>
      </trkpt>
      <trkpt lat="59.9123265" lon="17.7079028">
        <ele>39.0707</ele>
        <time>2014-06-04T14:31:24Z</time>
      </trkpt>
      <trkpt lat="59.9123164" lon="17.7079422">
        <ele>38.1094</ele>
        <time>2014-06-04T14:31:25Z</time>
      </trkpt>
      <trkpt lat="59.9123071" lon="17.7079882">
        <ele>38.1094</ele>
        <time>2014-06-04T14:31:26Z</time>
      </trkpt>
      <trkpt lat="59.9122981" lon="17.7080375">
        <ele>38.1094</ele>
        <time>2014-06-04T14:31:27Z</time>
      </trkpt>
      <trkpt lat="59.912291" lon="17.7080774">
        <ele>37.6287</ele>
        <time>2014-06-04T14:31:28Z</time>
      </trkpt>
      <trkpt lat="59.9122861" lon="17.7081131">
        <ele>36.1868</ele>
        <time>2014-06-04T14:31:29Z</time>
      </trkpt>
      <trkpt lat="59.9122779" lon="17.7081577">
        <ele>35.2255</ele>
        <time>2014-06-04T14:31:30Z</time>
      </trkpt>
      <trkpt lat="59.9122697" lon="17.7082006">
        <ele>34.7449</ele>
        <time>2014-06-04T14:31:31Z</time>
      </trkpt>
      <trkpt lat="59.9122642" lon="17.7082411">
        <ele>35.2255</ele>
        <time>2014-06-04T14:31:32Z</time>
      </trkpt>
      <trkpt lat="59.9122599" lon="17.7082866">
        <ele>34.7449</ele>
        <time>2014-06-04T14:31:33Z</time>
      </trkpt>
      <trkpt lat="59.9122543" lon="17.7083377">
        <ele>34.2642</ele>
        <time>2014-06-04T14:31:34Z</time>
      </trkpt>
      <trkpt lat="59.912251" lon="17.7083839">
        <ele>33.7834</ele>
        <time>2014-06-04T14:31:35Z</time>
      </trkpt>
      <trkpt lat="59.9122489" lon="17.7084286">
        <ele>33.7834</ele>
        <time>2014-06-04T14:31:36Z</time>
      </trkpt>
      <trkpt lat="59.9122414" lon="17.7084809">
        <ele>33.3029</ele>
        <time>2014-06-04T14:31:37Z</time>
      </trkpt>
      <trkpt lat="59.912231" lon="17.7085317">
        <ele>33.7834</ele>
        <time>2014-06-04T14:31:38Z</time>
      </trkpt>
      <trkpt lat="59.9122251" lon="17.7085787">
        <ele>33.7834</ele>
        <time>2014-06-04T14:31:39Z</time>
      </trkpt>
      <trkpt lat="59.9122183" lon="17.7086226">
        <ele>33.7834</ele>
        <time>2014-06-04T14:31:40Z</time>
      </trkpt>
      <trkpt lat="59.9122087" lon="17.70866">
        <ele>33.7834</ele>
        <time>2014-06-04T14:31:41Z</time>
      </trkpt>
      <trkpt lat="59.9121941" lon="17.7086972">
        <ele>34.2642</ele>
        <time>2014-06-04T14:31:42Z</time>
      </trkpt>
      <trkpt lat="59.9121796" lon="17.7087234">
        <ele>33.7834</ele>
        <time>2014-06-04T14:31:43Z</time>
      </trkpt>
      <trkpt lat="59.9121662" lon="17.7087596">
        <ele>34.7449</ele>
        <time>2014-06-04T14:31:44Z</time>
      </trkpt>
      <trkpt lat="59.9121489" lon="17.7087983">
        <ele>35.2255</ele>
        <time>2014-06-04T14:31:45Z</time>
      </trkpt>
      <trkpt lat="59.9121279" lon="17.7088321">
        <ele>35.7061</ele>
        <time>2014-06-04T14:31:46Z</time>
      </trkpt>
      <trkpt lat="59.9121097" lon="17.708863">
        <ele>35.7061</ele>
        <time>2014-06-04T14:31:47Z</time>
      </trkpt>
      <trkpt lat="59.9120936" lon="17.7089017">
        <ele>36.6675</ele>
        <time>2014-06-04T14:31:48Z</time>
      </trkpt>
      <trkpt lat="59.912078" lon="17.7089457">
        <ele>37.6287</ele>
        <time>2014-06-04T14:31:49Z</time>
      </trkpt>
      <trkpt lat="59.9120629" lon="17.7089859">
        <ele>38.5901</ele>
        <time>2014-06-04T14:31:50Z</time>
      </trkpt>
      <trkpt lat="59.9120465" lon="17.7090207">
        <ele>39.0707</ele>
        <time>2014-06-04T14:31:51Z</time>
      </trkpt>
      <trkpt lat="59.912034" lon="17.7090611">
        <ele>40.0321</ele>
        <time>2014-06-04T14:31:52Z</time>
      </trkpt>
      <trkpt lat="59.9120266" lon="17.7091041">
        <ele>40.5128</ele>
        <time>2014-06-04T14:31:53Z</time>
      </trkpt>
      <trkpt lat="59.9120179" lon="17.7091456">
        <ele>40.9934</ele>
        <time>2014-06-04T14:31:54Z</time>
      </trkpt>
      <trkpt lat="59.9120132" lon="17.709188">
        <ele>40.9934</ele>
        <time>2014-06-04T14:31:55Z</time>
      </trkpt>
      <trkpt lat="59.912015" lon="17.7092306">
        <ele>41.474</ele>
        <time>2014-06-04T14:31:56Z</time>
      </trkpt>
      <trkpt lat="59.9120144" lon="17.7092745">
        <ele>41.474</ele>
        <time>2014-06-04T14:31:57Z</time>
      </trkpt>
      <trkpt lat="59.9120145" lon="17.7093289">
        <ele>41.474</ele>
        <time>2014-06-04T14:31:58Z</time>
      </trkpt>
      <trkpt lat="59.9120162" lon="17.7093812">
        <ele>41.474</ele>
        <time>2014-06-04T14:31:59Z</time>
      </trkpt>
      <trkpt lat="59.9120183" lon="17.7094341">
        <ele>42.4354</ele>
        <time>2014-06-04T14:32:00Z</time>
      </trkpt>
      <trkpt lat="59.9120185" lon="17.7094815">
        <ele>43.3966</ele>
        <time>2014-06-04T14:32:01Z</time>
      </trkpt>
      <trkpt lat="59.9120183" lon="17.7095217">
        <ele>43.8773</ele>
        <time>2014-06-04T14:32:02Z</time>
      </trkpt>
      <trkpt lat="59.9120096" lon="17.7095634">
        <ele>44.358</ele>
        <time>2014-06-04T14:32:03Z</time>
      </trkpt>
      <trkpt lat="59.9119952" lon="17.7096043">
        <ele>45.3192</ele>
        <time>2014-06-04T14:32:04Z</time>
      </trkpt>
      <trkpt lat="59.9119816" lon="17.7096423">
        <ele>44.8386</ele>
        <time>2014-06-04T14:32:05Z</time>
      </trkpt>
      <trkpt lat="59.9119645" lon="17.7096806">
        <ele>45.3192</ele>
        <time>2014-06-04T14:32:06Z</time>
      </trkpt>
      <trkpt lat="59.9119442" lon="17.7097188">
        <ele>46.2806</ele>
        <time>2014-06-04T14:32:07Z</time>
      </trkpt>
      <trkpt lat="59.9119273" lon="17.7097541">
        <ele>46.2806</ele>
        <time>2014-06-04T14:32:08Z</time>
      </trkpt>
      <trkpt lat="59.9119108" lon="17.709795">
        <ele>46.7612</ele>
        <time>2014-06-04T14:32:09Z</time>
      </trkpt>
      <trkpt lat="59.9118973" lon="17.7098314">
        <ele>46.7612</ele>
        <time>2014-06-04T14:32:10Z</time>
      </trkpt>
      <trkpt lat="59.9118854" lon="17.7098602">
        <ele>46.7612</ele>
        <time>2014-06-04T14:32:11Z</time>
      </trkpt>
      <trkpt lat="59.9118678" lon="17.7098956">
        <ele>47.2418</ele>
        <time>2014-06-04T14:32:12Z</time>
      </trkpt>
      <trkpt lat="59.9118502" lon="17.7099256">
        <ele>46.7612</ele>
        <time>2014-06-04T14:32:13Z</time>
      </trkpt>
      <trkpt lat="59.9118334" lon="17.7099608">
        <ele>47.2418</ele>
        <time>2014-06-04T14:32:14Z</time>
      </trkpt>
      <trkpt lat="59.9118159" lon="17.7100038">
        <ele>47.7225</ele>
        <time>2014-06-04T14:32:15Z</time>
      </trkpt>
      <trkpt lat="59.9117999" lon="17.7100285">
        <ele>47.7225</ele>
        <time>2014-06-04T14:32:16Z</time>
      </trkpt>
      <trkpt lat="59.9117796" lon="17.7100501">
        <ele>47.7225</ele>
        <time>2014-06-04T14:32:17Z</time>
      </trkpt>
      <trkpt lat="59.9117553" lon="17.710064">
        <ele>48.684</ele>
        <time>2014-06-04T14:32:18Z</time>
      </trkpt>
      <trkpt lat="59.9117298" lon="17.7100724">
        <ele>49.6453</ele>
        <time>2014-06-04T14:32:19Z</time>
      </trkpt>
      <trkpt lat="59.9117052" lon="17.7100855">
        <ele>50.6066</ele>
        <time>2014-06-04T14:32:20Z</time>
      </trkpt>
      <trkpt lat="59.9116808" lon="17.7100991">
        <ele>51.5679</ele>
        <time>2014-06-04T14:32:21Z</time>
      </trkpt>
      <trkpt lat="59.9116533" lon="17.7101142">
        <ele>52.5292</ele>
        <time>2014-06-04T14:32:22Z</time>
      </trkpt>
      <trkpt lat="59.9116309" lon="17.7101272">
        <ele>53.4905</ele>
        <time>2014-06-04T14:32:23Z</time>
      </trkpt>
      <trkpt lat="59.9116109" lon="17.7101326">
        <ele>54.4518</ele>
        <time>2014-06-04T14:32:24Z</time>
      </trkpt>
      <trkpt lat="59.9115807" lon="17.7101556">
        <ele>56.3745</ele>
        <time>2014-06-04T14:32:25Z</time>
      </trkpt>
      <trkpt lat="59.9115631" lon="17.7101539">
        <ele>57.3358</ele>
        <time>2014-06-04T14:32:26Z</time>
      </trkpt>
      <trkpt lat="59.9115472" lon="17.7101497">
        <ele>58.7777</ele>
        <time>2014-06-04T14:32:27Z</time>
      </trkpt>
      <trkpt lat="59.9115352" lon="17.7101358">
        <ele>59.2584</ele>
        <time>2014-06-04T14:32:28Z</time>
      </trkpt>
      <trkpt lat="59.911529" lon="17.7100997">
        <ele>59.7391</ele>
        <time>2014-06-04T14:32:29Z</time>
      </trkpt>
      <trkpt lat="59.9115197" lon="17.710072">
        <ele>60.2197</ele>
        <time>2014-06-04T14:32:30Z</time>
      </trkpt>
      <trkpt lat="59.9115159" lon="17.7100386">
        <ele>61.181</ele>
        <time>2014-06-04T14:32:31Z</time>
      </trkpt>
      <trkpt lat="59.9115024" lon="17.709996">
        <ele>61.181</ele>
        <time>2014-06-04T14:32:32Z</time>
      </trkpt>
      <trkpt lat="59.9114881" lon="17.7099643">
        <ele>62.1423</ele>
        <time>2014-06-04T14:32:33Z</time>
      </trkpt>
      <trkpt lat="59.9114856" lon="17.7099241">
        <ele>62.6229</ele>
        <time>2014-06-04T14:32:34Z</time>
      </trkpt>
      <trkpt lat="59.9114817" lon="17.7098713">
        <ele>63.1036</ele>
        <time>2014-06-04T14:32:35Z</time>
      </trkpt>
      <trkpt lat="59.9114735" lon="17.7098184">
        <ele>63.1036</ele>
        <time>2014-06-04T14:32:36Z</time>
      </trkpt>
      <trkpt lat="59.9114657" lon="17.7097563">
        <ele>63.5844</ele>
        <time>2014-06-04T14:32:37Z</time>
      </trkpt>
      <trkpt lat="59.9114529" lon="17.7096815">
        <ele>63.1036</ele>
        <time>2014-06-04T14:32:38Z</time>
      </trkpt>
      <trkpt lat="59.9114378" lon="17.709611">
        <ele>62.1423</ele>
        <time>2014-06-04T14:32:39Z</time>
      </trkpt>
      <trkpt lat="59.9114263" lon="17.7095608">
        <ele>62.1423</ele>
        <time>2014-06-04T14:32:40Z</time>
      </trkpt>
      <trkpt lat="59.9114192" lon="17.709516">
        <ele>63.1036</ele>
        <time>2014-06-04T14:32:41Z</time>
      </trkpt>
      <trkpt lat="59.9114029" lon="17.7094684">
        <ele>62.6229</ele>
        <time>2014-06-04T14:32:42Z</time>
      </trkpt>
      <trkpt lat="59.9113792" lon="17.709429">
        <ele>61.6617</ele>
        <time>2014-06-04T14:32:43Z</time>
      </trkpt>
      <trkpt lat="59.9113597" lon="17.7093966">
        <ele>61.6617</ele>
        <time>2014-06-04T14:32:44Z</time>
      </trkpt>
      <trkpt lat="59.9113438" lon="17.7093888">
        <ele>62.6229</ele>
        <time>2014-06-04T14:32:45Z</time>
      </trkpt>
      <trkpt lat="59.9113295" lon="17.7093759">
        <ele>63.5844</ele>
        <time>2014-06-04T14:32:46Z</time>
      </trkpt>
      <trkpt lat="59.9113149" lon="17.709379">
        <ele>63.5844</ele>
        <time>2014-06-04T14:32:47Z</time>
      </trkpt>
      <trkpt lat="59.9113005" lon="17.7093724">
        <ele>63.5844</ele>
        <time>2014-06-04T14:32:48Z</time>
      </trkpt>
      <trkpt lat="59.9112896" lon="17.7093552">
        <ele>63.5844</ele>
        <time>2014-06-04T14:32:49Z</time>
      </trkpt>
      <trkpt lat="59.9112682" lon="17.7093304">
        <ele>63.1036</ele>
        <time>2014-06-04T14:32:50Z</time>
      </trkpt>
      <trkpt lat="59.9112487" lon="17.7093147">
        <ele>63.1036</ele>
        <time>2014-06-04T14:32:51Z</time>
      </trkpt>
      <trkpt lat="59.9112337" lon="17.7093052">
        <ele>63.5844</ele>
        <time>2014-06-04T14:32:52Z</time>
      </trkpt>
      <trkpt lat="59.9112156" lon="17.7092973">
        <ele>63.5844</ele>
        <time>2014-06-04T14:32:53Z</time>
      </trkpt>
      <trkpt lat="59.9111908" lon="17.7092966">
        <ele>64.0651</ele>
        <time>2014-06-04T14:32:54Z</time>
      </trkpt>
      <trkpt lat="59.9111633" lon="17.7092971">
        <ele>65.0264</ele>
        <time>2014-06-04T14:32:55Z</time>
      </trkpt>
      <trkpt lat="59.9111389" lon="17.7093029">
        <ele>65.5071</ele>
        <time>2014-06-04T14:32:56Z</time>
      </trkpt>
      <trkpt lat="59.9111186" lon="17.7093325">
        <ele>66.949</ele>
        <time>2014-06-04T14:32:57Z</time>
      </trkpt>
      <trkpt lat="59.911099" lon="17.7093481">
        <ele>67.9103</ele>
        <time>2014-06-04T14:32:58Z</time>
      </trkpt>
      <trkpt lat="59.9110845" lon="17.7093595">
        <ele>67.9103</ele>
        <time>2014-06-04T14:32:59Z</time>
      </trkpt>
      <trkpt lat="59.9110673" lon="17.709374">
        <ele>68.8716</ele>
        <time>2014-06-04T14:33:00Z</time>
      </trkpt>
      <trkpt lat="59.9110524" lon="17.7093847">
        <ele>69.3523</ele>
        <time>2014-06-04T14:33:01Z</time>
      </trkpt>
      <trkpt lat="59.9110374" lon="17.7093942">
        <ele>68.3909</ele>
        <time>2014-06-04T14:33:02Z</time>
      </trkpt>
      <trkpt lat="59.9110239" lon="17.7094118">
        <ele>68.8716</ele>
        <time>2014-06-04T14:33:03Z</time>
      </trkpt>
      <trkpt lat="59.9110056" lon="17.7094331">
        <ele>68.8716</ele>
        <time>2014-06-04T14:33:04Z</time>
      </trkpt>
      <trkpt lat="59.9109856" lon="17.7094329">
        <ele>67.9103</ele>
        <time>2014-06-04T14:33:05Z</time>
      </trkpt>
      <trkpt lat="59.910965" lon="17.7094398">
        <ele>68.8716</ele>
        <time>2014-06-04T14:33:06Z</time>
      </trkpt>
      <trkpt lat="59.9109391" lon="17.7094518">
        <ele>69.3523</ele>
        <time>2014-06-04T14:33:07Z</time>
      </trkpt>
      <trkpt lat="59.910911" lon="17.7094589">
        <ele>70.3135</ele>
        <time>2014-06-04T14:33:08Z</time>
      </trkpt>
      <trkpt lat="59.9108871" lon="17.7094598">
        <ele>70.3135</ele>
        <time>2014-06-04T14:33:09Z</time>
      </trkpt>
      <trkpt lat="59.9108591" lon="17.7094583">
        <ele>71.2749</ele>
        <time>2014-06-04T14:33:10Z</time>
      </trkpt>
      <trkpt lat="59.9108338" lon="17.7094338">
        <ele>71.2749</ele>
        <time>2014-06-04T14:33:11Z</time>
      </trkpt>
      <trkpt lat="59.9108158" lon="17.7093704">
        <ele>70.7942</ele>
        <time>2014-06-04T14:33:12Z</time>
      </trkpt>
      <trkpt lat="59.9107882" lon="17.7093016">
        <ele>71.2749</ele>
        <time>2014-06-04T14:33:13Z</time>
      </trkpt>
      <trkpt lat="59.9107483" lon="17.7092485">
        <ele>70.7942</ele>
        <time>2014-06-04T14:33:14Z</time>
      </trkpt>
      <trkpt lat="59.9107339" lon="17.7092243">
        <ele>71.2749</ele>
        <time>2014-06-04T14:33:15Z</time>
      </trkpt>
      <trkpt lat="59.9107091" lon="17.7091828">
        <ele>70.3135</ele>
        <time>2014-06-04T14:33:16Z</time>
      </trkpt>
      <trkpt lat="59.9107017" lon="17.7091678">
        <ele>68.8716</ele>
        <time>2014-06-04T14:33:17Z</time>
      </trkpt>
      <trkpt lat="59.9106924" lon="17.7091601">
        <ele>68.8716</ele>
        <time>2014-06-04T14:33:18Z</time>
      </trkpt>
      <trkpt lat="59.9106867" lon="17.7091581">
        <ele>68.8716</ele>
        <time>2014-06-04T14:33:19Z</time>
      </trkpt>
      <trkpt lat="59.9106831" lon="17.7091646">
        <ele>67.9103</ele>
        <time>2014-06-04T14:33:20Z</time>
      </trkpt>
      <trkpt lat="59.9106764" lon="17.7091702">
        <ele>67.4297</ele>
        <time>2014-06-04T14:33:21Z</time>
      </trkpt>
      <trkpt lat="59.9106629" lon="17.7091824">
        <ele>68.3909</ele>
        <time>2014-06-04T14:33:22Z</time>
      </trkpt>
      <trkpt lat="59.9106445" lon="17.7091896">
        <ele>68.8716</ele>
        <time>2014-06-04T14:33:23Z</time>
      </trkpt>
      <trkpt lat="59.9106246" lon="17.7092071">
        <ele>68.8716</ele>
        <time>2014-06-04T14:33:24Z</time>
      </trkpt>
      <trkpt lat="59.9106039" lon="17.7092329">
        <ele>68.8716</ele>
        <time>2014-06-04T14:33:25Z</time>
      </trkpt>
      <trkpt lat="59.910586" lon="17.7092526">
        <ele>69.8329</ele>
        <time>2014-06-04T14:33:26Z</time>
      </trkpt>
      <trkpt lat="59.9105665" lon="17.7092627">
        <ele>69.8329</ele>
        <time>2014-06-04T14:33:27Z</time>
      </trkpt>
      <trkpt lat="59.9105431" lon="17.7092703">
        <ele>69.8329</ele>
        <time>2014-06-04T14:33:28Z</time>
      </trkpt>
      <trkpt lat="59.9105219" lon="17.7092826">
        <ele>70.7942</ele>
        <time>2014-06-04T14:33:29Z</time>
      </trkpt>
      <trkpt lat="59.9104967" lon="17.7092995">
        <ele>71.7555</ele>
        <time>2014-06-04T14:33:30Z</time>
      </trkpt>
      <trkpt lat="59.9104784" lon="17.7092989">
        <ele>71.7555</ele>
        <time>2014-06-04T14:33:31Z</time>
      </trkpt>
      <trkpt lat="59.9104581" lon="17.7092937">
        <ele>72.2362</ele>
        <time>2014-06-04T14:33:32Z</time>
      </trkpt>
      <trkpt lat="59.9104411" lon="17.7092857">
        <ele>72.2362</ele>
        <time>2014-06-04T14:33:33Z</time>
      </trkpt>
      <trkpt lat="59.9104308" lon="17.7092621">
        <ele>71.7555</ele>
        <time>2014-06-04T14:33:34Z</time>
      </trkpt>
      <trkpt lat="59.9104266" lon="17.7092357">
        <ele>71.2749</ele>
        <time>2014-06-04T14:33:35Z</time>
      </trkpt>
      <trkpt lat="59.9104147" lon="17.7092087">
        <ele>70.3135</ele>
        <time>2014-06-04T14:33:36Z</time>
      </trkpt>
      <trkpt lat="59.9103975" lon="17.7091852">
        <ele>69.3523</ele>
        <time>2014-06-04T14:33:37Z</time>
      </trkpt>
      <trkpt lat="59.9103967" lon="17.7091669">
        <ele>69.8329</ele>
        <time>2014-06-04T14:33:38Z</time>
      </trkpt>
      <trkpt lat="59.9103769" lon="17.7091449">
        <ele>68.8716</ele>
        <time>2014-06-04T14:33:39Z</time>
      </trkpt>
      <trkpt lat="59.910363" lon="17.7091436">
        <ele>69.3523</ele>
        <time>2014-06-04T14:33:40Z</time>
      </trkpt>
      <trkpt lat="59.9103329" lon="17.7091558">
        <ele>68.8716</ele>
        <time>2014-06-04T14:33:41Z</time>
      </trkpt>
      <trkpt lat="59.9103038" lon="17.7091641">
        <ele>68.3909</ele>
        <time>2014-06-04T14:33:42Z</time>
      </trkpt>
      <trkpt lat="59.9102762" lon="17.7091626">
        <ele>67.4297</ele>
        <time>2014-06-04T14:33:43Z</time>
      </trkpt>
      <trkpt lat="59.9102519" lon="17.7091689">
        <ele>66.949</ele>
        <time>2014-06-04T14:33:44Z</time>
      </trkpt>
      <trkpt lat="59.9102266" lon="17.7091674">
        <ele>65.9877</ele>
        <time>2014-06-04T14:33:45Z</time>
      </trkpt>
      <trkpt lat="59.9102096" lon="17.709162">
        <ele>65.9877</ele>
        <time>2014-06-04T14:33:46Z</time>
      </trkpt>
      <trkpt lat="59.910193" lon="17.7091485">
        <ele>65.0264</ele>
        <time>2014-06-04T14:33:47Z</time>
      </trkpt>
      <trkpt lat="59.9101726" lon="17.7091581">
        <ele>65.5071</ele>
        <time>2014-06-04T14:33:48Z</time>
      </trkpt>
      <trkpt lat="59.9101396" lon="17.7091724">
        <ele>65.5071</ele>
        <time>2014-06-04T14:33:49Z</time>
      </trkpt>
      <trkpt lat="59.9101059" lon="17.7091993">
        <ele>65.5071</ele>
        <time>2014-06-04T14:33:50Z</time>
      </trkpt>
      <trkpt lat="59.910082" lon="17.7092092">
        <ele>64.5457</ele>
        <time>2014-06-04T14:33:51Z</time>
      </trkpt>
      <trkpt lat="59.9100504" lon="17.7092226">
        <ele>63.5844</ele>
        <time>2014-06-04T14:33:52Z</time>
      </trkpt>
      <trkpt lat="59.9100357" lon="17.7092357">
        <ele>63.1036</ele>
        <time>2014-06-04T14:33:53Z</time>
      </trkpt>
      <trkpt lat="59.9100032" lon="17.7092715">
        <ele>63.1036</ele>
        <time>2014-06-04T14:33:54Z</time>
      </trkpt>
      <trkpt lat="59.9099766" lon="17.7092719">
        <ele>61.6617</ele>
        <time>2014-06-04T14:33:55Z</time>
      </trkpt>
      <trkpt lat="59.9099475" lon="17.7092878">
        <ele>61.181</ele>
        <time>2014-06-04T14:33:56Z</time>
      </trkpt>
      <trkpt lat="59.9099183" lon="17.7092983">
        <ele>60.7003</ele>
        <time>2014-06-04T14:33:57Z</time>
      </trkpt>
      <trkpt lat="59.9098852" lon="17.70932">
        <ele>61.181</ele>
        <time>2014-06-04T14:33:58Z</time>
      </trkpt>
      <trkpt lat="59.9098551" lon="17.7093422">
        <ele>61.6617</ele>
        <time>2014-06-04T14:33:59Z</time>
      </trkpt>
      <trkpt lat="59.9098254" lon="17.7093587">
        <ele>61.6617</ele>
        <time>2014-06-04T14:34:00Z</time>
      </trkpt>
      <trkpt lat="59.9097968" lon="17.7093698">
        <ele>62.1423</ele>
        <time>2014-06-04T14:34:01Z</time>
      </trkpt>
      <trkpt lat="59.9097677" lon="17.7093699">
        <ele>61.181</ele>
        <time>2014-06-04T14:34:02Z</time>
      </trkpt>
      <trkpt lat="59.9097471" lon="17.7093763">
        <ele>60.7003</ele>
        <time>2014-06-04T14:34:03Z</time>
      </trkpt>
      <trkpt lat="59.9097319" lon="17.7093812">
        <ele>60.7003</ele>
        <time>2014-06-04T14:34:04Z</time>
      </trkpt>
      <trkpt lat="59.9097154" lon="17.7094041">
        <ele>62.1423</ele>
        <time>2014-06-04T14:34:05Z</time>
      </trkpt>
      <trkpt lat="59.9096907" lon="17.7094326">
        <ele>63.1036</ele>
        <time>2014-06-04T14:34:06Z</time>
      </trkpt>
      <trkpt lat="59.9096666" lon="17.7094723">
        <ele>64.5457</ele>
        <time>2014-06-04T14:34:07Z</time>
      </trkpt>
      <trkpt lat="59.9096522" lon="17.7094973">
        <ele>64.5457</ele>
        <time>2014-06-04T14:34:08Z</time>
      </trkpt>
      <trkpt lat="59.9096345" lon="17.7095185">
        <ele>64.0651</ele>
        <time>2014-06-04T14:34:09Z</time>
      </trkpt>
      <trkpt lat="59.9096139" lon="17.7095505">
        <ele>64.5457</ele>
        <time>2014-06-04T14:34:10Z</time>
      </trkpt>
      <trkpt lat="59.909595" lon="17.7095895">
        <ele>64.5457</ele>
        <time>2014-06-04T14:34:11Z</time>
      </trkpt>
      <trkpt lat="59.9095741" lon="17.7096159">
        <ele>63.5844</ele>
        <time>2014-06-04T14:34:12Z</time>
      </trkpt>
      <trkpt lat="59.9095523" lon="17.7096284">
        <ele>62.1423</ele>
        <time>2014-06-04T14:34:13Z</time>
      </trkpt>
      <trkpt lat="59.9095402" lon="17.709638">
        <ele>60.7003</ele>
        <time>2014-06-04T14:34:14Z</time>
      </trkpt>
      <trkpt lat="59.9095253" lon="17.7096537">
        <ele>59.2584</ele>
        <time>2014-06-04T14:34:15Z</time>
      </trkpt>
      <trkpt lat="59.9095006" lon="17.709677">
        <ele>58.2971</ele>
        <time>2014-06-04T14:34:16Z</time>
      </trkpt>
      <trkpt lat="59.9094813" lon="17.709709">
        <ele>58.2971</ele>
        <time>2014-06-04T14:34:17Z</time>
      </trkpt>
      <trkpt lat="59.9094637" lon="17.7097333">
        <ele>57.8165</ele>
        <time>2014-06-04T14:34:18Z</time>
      </trkpt>
      <trkpt lat="59.9094485" lon="17.7097516">
        <ele>56.3745</ele>
        <time>2014-06-04T14:34:19Z</time>
      </trkpt>
      <trkpt lat="59.9094274" lon="17.7097874">
        <ele>56.8551</ele>
        <time>2014-06-04T14:34:20Z</time>
      </trkpt>
      <trkpt lat="59.909402" lon="17.7098209">
        <ele>57.3358</ele>
        <time>2014-06-04T14:34:21Z</time>
      </trkpt>
      <trkpt lat="59.9093791" lon="17.7098509">
        <ele>56.3745</ele>
        <time>2014-06-04T14:34:22Z</time>
      </trkpt>
      <trkpt lat="59.9093583" lon="17.7098722">
        <ele>55.4131</ele>
        <time>2014-06-04T14:34:23Z</time>
      </trkpt>
      <trkpt lat="59.909336" lon="17.7098935">
        <ele>54.4518</ele>
        <time>2014-06-04T14:34:24Z</time>
      </trkpt>
      <trkpt lat="59.9093134" lon="17.7099173">
        <ele>54.4518</ele>
        <time>2014-06-04T14:34:25Z</time>
      </trkpt>
      <trkpt lat="59.9092901" lon="17.7099425">
        <ele>54.4518</ele>
        <time>2014-06-04T14:34:26Z</time>
      </trkpt>
      <trkpt lat="59.909274" lon="17.7099613">
        <ele>53.0098</ele>
        <time>2014-06-04T14:34:27Z</time>
      </trkpt>
      <trkpt lat="59.9092602" lon="17.7099895">
        <ele>53.0098</ele>
        <time>2014-06-04T14:34:28Z</time>
      </trkpt>
      <trkpt lat="59.9092439" lon="17.7100168">
        <ele>53.4905</ele>
        <time>2014-06-04T14:34:29Z</time>
      </trkpt>
      <trkpt lat="59.9092265" lon="17.710057">
        <ele>54.4518</ele>
        <time>2014-06-04T14:34:30Z</time>
      </trkpt>
      <trkpt lat="59.9092088" lon="17.7100846">
        <ele>54.4518</ele>
        <time>2014-06-04T14:34:31Z</time>
      </trkpt>
      <trkpt lat="59.9091887" lon="17.7101178">
        <ele>54.4518</ele>
        <time>2014-06-04T14:34:32Z</time>
      </trkpt>
      <trkpt lat="59.9091673" lon="17.7101717">
        <ele>55.8938</ele>
        <time>2014-06-04T14:34:33Z</time>
      </trkpt>
      <trkpt lat="59.9091491" lon="17.7102225">
        <ele>55.8938</ele>
        <time>2014-06-04T14:34:34Z</time>
      </trkpt>
      <trkpt lat="59.9091171" lon="17.710306">
        <ele>58.2971</ele>
        <time>2014-06-04T14:34:35Z</time>
      </trkpt>
      <trkpt lat="59.9090891" lon="17.7103648">
        <ele>58.7777</ele>
        <time>2014-06-04T14:34:36Z</time>
      </trkpt>
      <trkpt lat="59.9090633" lon="17.7104295">
        <ele>61.181</ele>
        <time>2014-06-04T14:34:37Z</time>
      </trkpt>
      <trkpt lat="59.9090461" lon="17.7104626">
        <ele>61.6617</ele>
        <time>2014-06-04T14:34:38Z</time>
      </trkpt>
      <trkpt lat="59.9090301" lon="17.7104943">
        <ele>62.6229</ele>
        <time>2014-06-04T14:34:39Z</time>
      </trkpt>
      <trkpt lat="59.9090135" lon="17.7105105">
        <ele>62.6229</ele>
        <time>2014-06-04T14:34:40Z</time>
      </trkpt>
      <trkpt lat="59.9089911" lon="17.7105146">
        <ele>60.2197</ele>
        <time>2014-06-04T14:34:41Z</time>
      </trkpt>
      <trkpt lat="59.9089734" lon="17.710532">
        <ele>59.7391</ele>
        <time>2014-06-04T14:34:42Z</time>
      </trkpt>
      <trkpt lat="59.9089581" lon="17.71055">
        <ele>58.7777</ele>
        <time>2014-06-04T14:34:43Z</time>
      </trkpt>
      <trkpt lat="59.9089418" lon="17.710569">
        <ele>58.2971</ele>
        <time>2014-06-04T14:34:44Z</time>
      </trkpt>
      <trkpt lat="59.9089225" lon="17.7105934">
        <ele>58.2971</ele>
        <time>2014-06-04T14:34:45Z</time>
      </trkpt>
      <trkpt lat="59.9089038" lon="17.7106099">
        <ele>56.8551</ele>
        <time>2014-06-04T14:34:46Z</time>
      </trkpt>
      <trkpt lat="59.9088856" lon="17.7106259">
        <ele>55.4131</ele>
        <time>2014-06-04T14:34:47Z</time>
      </trkpt>
      <trkpt lat="59.9088633" lon="17.710641">
        <ele>53.4905</ele>
        <time>2014-06-04T14:34:48Z</time>
      </trkpt>
      <trkpt lat="59.9088396" lon="17.710659">
        <ele>52.0486</ele>
        <time>2014-06-04T14:34:49Z</time>
      </trkpt>
      <trkpt lat="59.908816" lon="17.7106715">
        <ele>51.5679</ele>
        <time>2014-06-04T14:34:50Z</time>
      </trkpt>
      <trkpt lat="59.9087965" lon="17.7107084">
        <ele>52.5292</ele>
        <time>2014-06-04T14:34:51Z</time>
      </trkpt>
      <trkpt lat="59.9087752" lon="17.7107457">
        <ele>53.0098</ele>
        <time>2014-06-04T14:34:52Z</time>
      </trkpt>
      <trkpt lat="59.9087556" lon="17.7107667">
        <ele>53.0098</ele>
        <time>2014-06-04T14:34:53Z</time>
      </trkpt>
      <trkpt lat="59.9087395" lon="17.710789">
        <ele>53.0098</ele>
        <time>2014-06-04T14:34:54Z</time>
      </trkpt>
      <trkpt lat="59.908723" lon="17.7108011">
        <ele>51.5679</ele>
        <time>2014-06-04T14:34:55Z</time>
      </trkpt>
      <trkpt lat="59.9087053" lon="17.7108363">
        <ele>51.5679</ele>
        <time>2014-06-04T14:34:56Z</time>
      </trkpt>
      <trkpt lat="59.9086886" lon="17.7108752">
        <ele>52.0486</ele>
        <time>2014-06-04T14:34:57Z</time>
      </trkpt>
      <trkpt lat="59.9086711" lon="17.7109029">
        <ele>52.0486</ele>
        <time>2014-06-04T14:34:58Z</time>
      </trkpt>
      <trkpt lat="59.9086557" lon="17.7109151">
        <ele>50.6066</ele>
        <time>2014-06-04T14:34:59Z</time>
      </trkpt>
      <trkpt lat="59.908638" lon="17.7109285">
        <ele>49.1646</ele>
        <time>2014-06-04T14:35:00Z</time>
      </trkpt>
      <trkpt lat="59.9086194" lon="17.7109596">
        <ele>49.6453</ele>
        <time>2014-06-04T14:35:01Z</time>
      </trkpt>
      <trkpt lat="59.9086047" lon="17.7109839">
        <ele>49.1646</ele>
        <time>2014-06-04T14:35:02Z</time>
      </trkpt>
      <trkpt lat="59.908587" lon="17.711014">
        <ele>49.1646</ele>
        <time>2014-06-04T14:35:03Z</time>
      </trkpt>
      <trkpt lat="59.9085679" lon="17.71105">
        <ele>49.6453</ele>
        <time>2014-06-04T14:35:04Z</time>
      </trkpt>
      <trkpt lat="59.9085504" lon="17.7110669">
        <ele>49.1646</ele>
        <time>2014-06-04T14:35:05Z</time>
      </trkpt>
      <trkpt lat="59.908534" lon="17.711087">
        <ele>49.1646</ele>
        <time>2014-06-04T14:35:06Z</time>
      </trkpt>
      <trkpt lat="59.9085172" lon="17.7111269">
        <ele>49.6453</ele>
        <time>2014-06-04T14:35:07Z</time>
      </trkpt>
      <trkpt lat="59.9085015" lon="17.7111699">
        <ele>50.6066</ele>
        <time>2014-06-04T14:35:08Z</time>
      </trkpt>
      <trkpt lat="59.9084886" lon="17.7112034">
        <ele>50.126</ele>
        <time>2014-06-04T14:35:09Z</time>
      </trkpt>
      <trkpt lat="59.9084748" lon="17.7112479">
        <ele>50.6066</ele>
        <time>2014-06-04T14:35:10Z</time>
      </trkpt>
      <trkpt lat="59.9084602" lon="17.7112767">
        <ele>49.1646</ele>
        <time>2014-06-04T14:35:11Z</time>
      </trkpt>
      <trkpt lat="59.9084451" lon="17.7113114">
        <ele>48.684</ele>
        <time>2014-06-04T14:35:12Z</time>
      </trkpt>
      <trkpt lat="59.9084282" lon="17.7113647">
        <ele>49.6453</ele>
        <time>2014-06-04T14:35:13Z</time>
      </trkpt>
      <trkpt lat="59.908413" lon="17.7114087">
        <ele>49.1646</ele>
        <time>2014-06-04T14:35:14Z</time>
      </trkpt>
      <trkpt lat="59.9084027" lon="17.7114572">
        <ele>50.126</ele>
        <time>2014-06-04T14:35:15Z</time>
      </trkpt>
      <trkpt lat="59.9083944" lon="17.7114973">
        <ele>50.126</ele>
        <time>2014-06-04T14:35:16Z</time>
      </trkpt>
      <trkpt lat="59.9083873" lon="17.7115413">
        <ele>50.6066</ele>
        <time>2014-06-04T14:35:17Z</time>
      </trkpt>
      <trkpt lat="59.9083829" lon="17.7115846">
        <ele>51.5679</ele>
        <time>2014-06-04T14:35:18Z</time>
      </trkpt>
      <trkpt lat="59.9083821" lon="17.7116206">
        <ele>51.0872</ele>
        <time>2014-06-04T14:35:19Z</time>
      </trkpt>
      <trkpt lat="59.9083836" lon="17.7116665">
        <ele>51.0872</ele>
        <time>2014-06-04T14:35:20Z</time>
      </trkpt>
      <trkpt lat="59.9083858" lon="17.7117059">
        <ele>50.6066</ele>
        <time>2014-06-04T14:35:21Z</time>
      </trkpt>
      <trkpt lat="59.9083862" lon="17.7117452">
        <ele>50.6066</ele>
        <time>2014-06-04T14:35:22Z</time>
      </trkpt>
      <trkpt lat="59.9083893" lon="17.7117849">
        <ele>49.6453</ele>
        <time>2014-06-04T14:35:23Z</time>
      </trkpt>
      <trkpt lat="59.9083934" lon="17.7118262">
        <ele>49.1646</ele>
        <time>2014-06-04T14:35:24Z</time>
      </trkpt>
      <trkpt lat="59.9084012" lon="17.7118709">
        <ele>49.1646</ele>
        <time>2014-06-04T14:35:25Z</time>
      </trkpt>
      <trkpt lat="59.9084064" lon="17.7119102">
        <ele>47.7225</ele>
        <time>2014-06-04T14:35:26Z</time>
      </trkpt>
      <trkpt lat="59.9084091" lon="17.7119493">
        <ele>47.2418</ele>
        <time>2014-06-04T14:35:27Z</time>
      </trkpt>
      <trkpt lat="59.9084112" lon="17.7119793">
        <ele>46.7612</ele>
        <time>2014-06-04T14:35:28Z</time>
      </trkpt>
      <trkpt lat="59.9084119" lon="17.7120193">
        <ele>46.2806</ele>
        <time>2014-06-04T14:35:29Z</time>
      </trkpt>
      <trkpt lat="59.9084178" lon="17.7120609">
        <ele>46.2806</ele>
        <time>2014-06-04T14:35:30Z</time>
      </trkpt>
      <trkpt lat="59.9084231" lon="17.7120995">
        <ele>46.2806</ele>
        <time>2014-06-04T14:35:31Z</time>
      </trkpt>
      <trkpt lat="59.9084293" lon="17.7121428">
        <ele>46.7612</ele>
        <time>2014-06-04T14:35:32Z</time>
      </trkpt>
      <trkpt lat="59.908438" lon="17.7121929">
        <ele>47.2418</ele>
        <time>2014-06-04T14:35:33Z</time>
      </trkpt>
      <trkpt lat="59.9084462" lon="17.7122396">
        <ele>47.2418</ele>
        <time>2014-06-04T14:35:34Z</time>
      </trkpt>
      <trkpt lat="59.9084562" lon="17.7122826">
        <ele>47.2418</ele>
        <time>2014-06-04T14:35:35Z</time>
      </trkpt>
      <trkpt lat="59.908472" lon="17.7123235">
        <ele>47.7225</ele>
        <time>2014-06-04T14:35:36Z</time>
      </trkpt>
      <trkpt lat="59.9084913" lon="17.7123588">
        <ele>47.7225</ele>
        <time>2014-06-04T14:35:37Z</time>
      </trkpt>
      <trkpt lat="59.9085127" lon="17.7123936">
        <ele>47.2418</ele>
        <time>2014-06-04T14:35:38Z</time>
      </trkpt>
      <trkpt lat="59.9085373" lon="17.7124181">
        <ele>47.2418</ele>
        <time>2014-06-04T14:35:39Z</time>
      </trkpt>
      <trkpt lat="59.9085625" lon="17.7124513">
        <ele>47.7225</ele>
        <time>2014-06-04T14:35:40Z</time>
      </trkpt>
      <trkpt lat="59.9085872" lon="17.7124779">
        <ele>47.7225</ele>
        <time>2014-06-04T14:35:41Z</time>
      </trkpt>
      <trkpt lat="59.9086086" lon="17.712497">
        <ele>46.7612</ele>
        <time>2014-06-04T14:35:42Z</time>
      </trkpt>
      <trkpt lat="59.9086262" lon="17.7125193">
        <ele>46.2806</ele>
        <time>2014-06-04T14:35:43Z</time>
      </trkpt>
      <trkpt lat="59.9086483" lon="17.7125462">
        <ele>46.7612</ele>
        <time>2014-06-04T14:35:44Z</time>
      </trkpt>
      <trkpt lat="59.9086688" lon="17.7125825">
        <ele>46.7612</ele>
        <time>2014-06-04T14:35:45Z</time>
      </trkpt>
      <trkpt lat="59.9086877" lon="17.7126136">
        <ele>46.2806</ele>
        <time>2014-06-04T14:35:46Z</time>
      </trkpt>
      <trkpt lat="59.9087039" lon="17.7126442">
        <ele>45.3192</ele>
        <time>2014-06-04T14:35:47Z</time>
      </trkpt>
      <trkpt lat="59.9087223" lon="17.7126815">
        <ele>46.2806</ele>
        <time>2014-06-04T14:35:48Z</time>
      </trkpt>
      <trkpt lat="59.9087404" lon="17.7127113">
        <ele>47.7225</ele>
        <time>2014-06-04T14:35:49Z</time>
      </trkpt>
      <trkpt lat="59.9087566" lon="17.7127357">
        <ele>49.6453</ele>
        <time>2014-06-04T14:35:50Z</time>
      </trkpt>
      <trkpt lat="59.9087742" lon="17.7127763">
        <ele>49.6453</ele>
        <time>2014-06-04T14:35:51Z</time>
      </trkpt>
      <trkpt lat="59.9087893" lon="17.7128263">
        <ele>49.1646</ele>
        <time>2014-06-04T14:35:52Z</time>
      </trkpt>
      <trkpt lat="59.9088066" lon="17.7128783">
        <ele>48.2034</ele>
        <time>2014-06-04T14:35:53Z</time>
      </trkpt>
      <trkpt lat="59.9088263" lon="17.7129296">
        <ele>48.684</ele>
        <time>2014-06-04T14:35:54Z</time>
      </trkpt>
      <trkpt lat="59.9088489" lon="17.7129774">
        <ele>48.2034</ele>
        <time>2014-06-04T14:35:55Z</time>
      </trkpt>
      <trkpt lat="59.9088721" lon="17.7130263">
        <ele>48.684</ele>
        <time>2014-06-04T14:35:56Z</time>
      </trkpt>
      <trkpt lat="59.9088928" lon="17.7130699">
        <ele>49.6453</ele>
        <time>2014-06-04T14:35:57Z</time>
      </trkpt>
      <trkpt lat="59.9089119" lon="17.7131052">
        <ele>48.684</ele>
        <time>2014-06-04T14:35:58Z</time>
      </trkpt>
      <trkpt lat="59.9089343" lon="17.7131402">
        <ele>49.1646</ele>
        <time>2014-06-04T14:35:59Z</time>
      </trkpt>
      <trkpt lat="59.9089576" lon="17.7131729">
        <ele>49.1646</ele>
        <time>2014-06-04T14:36:00Z</time>
      </trkpt>
      <trkpt lat="59.9089809" lon="17.7132109">
        <ele>49.6453</ele>
        <time>2014-06-04T14:36:01Z</time>
      </trkpt>
      <trkpt lat="59.9090022" lon="17.7132553">
        <ele>50.6066</ele>
        <time>2014-06-04T14:36:02Z</time>
      </trkpt>
      <trkpt lat="59.9090224" lon="17.7132958">
        <ele>51.0872</ele>
        <time>2014-06-04T14:36:03Z</time>
      </trkpt>
      <trkpt lat="59.9090389" lon="17.7133345">
        <ele>51.5679</ele>
        <time>2014-06-04T14:36:04Z</time>
      </trkpt>
      <trkpt lat="59.9090492" lon="17.7133807">
        <ele>52.5292</ele>
        <time>2014-06-04T14:36:05Z</time>
      </trkpt>
      <trkpt lat="59.9090649" lon="17.7134241">
        <ele>53.9712</ele>
        <time>2014-06-04T14:36:06Z</time>
      </trkpt>
      <trkpt lat="59.9090855" lon="17.7134637">
        <ele>54.9324</ele>
        <time>2014-06-04T14:36:07Z</time>
      </trkpt>
      <trkpt lat="59.9090963" lon="17.7134967">
        <ele>53.9712</ele>
        <time>2014-06-04T14:36:08Z</time>
      </trkpt>
      <trkpt lat="59.9091097" lon="17.7135279">
        <ele>53.9712</ele>
        <time>2014-06-04T14:36:09Z</time>
      </trkpt>
      <trkpt lat="59.9091292" lon="17.7135668">
        <ele>54.9324</ele>
        <time>2014-06-04T14:36:10Z</time>
      </trkpt>
      <trkpt lat="59.9091466" lon="17.7136103">
        <ele>55.4131</ele>
        <time>2014-06-04T14:36:11Z</time>
      </trkpt>
      <trkpt lat="59.9091639" lon="17.7136465">
        <ele>54.4518</ele>
        <time>2014-06-04T14:36:12Z</time>
      </trkpt>
      <trkpt lat="59.9091721" lon="17.7136864">
        <ele>54.4518</ele>
        <time>2014-06-04T14:36:13Z</time>
      </trkpt>
      <trkpt lat="59.9091824" lon="17.7137237">
        <ele>54.4518</ele>
        <time>2014-06-04T14:36:14Z</time>
      </trkpt>
      <trkpt lat="59.9091986" lon="17.7137535">
        <ele>54.9324</ele>
        <time>2014-06-04T14:36:15Z</time>
      </trkpt>
      <trkpt lat="59.9092187" lon="17.7137753">
        <ele>55.8938</ele>
        <time>2014-06-04T14:36:16Z</time>
      </trkpt>
      <trkpt lat="59.9092336" lon="17.7137901">
        <ele>55.4131</ele>
        <time>2014-06-04T14:36:17Z</time>
      </trkpt>
      <trkpt lat="59.9092496" lon="17.7138024">
        <ele>54.4518</ele>
        <time>2014-06-04T14:36:18Z</time>
      </trkpt>
      <trkpt lat="59.9092697" lon="17.7138262">
        <ele>54.4518</ele>
        <time>2014-06-04T14:36:19Z</time>
      </trkpt>
      <trkpt lat="59.9092887" lon="17.7138545">
        <ele>54.4518</ele>
        <time>2014-06-04T14:36:20Z</time>
      </trkpt>
      <trkpt lat="59.9093108" lon="17.7138725">
        <ele>54.4518</ele>
        <time>2014-06-04T14:36:21Z</time>
      </trkpt>
      <trkpt lat="59.9093239" lon="17.7138921">
        <ele>53.9712</ele>
        <time>2014-06-04T14:36:22Z</time>
      </trkpt>
      <trkpt lat="59.9093425" lon="17.7139132">
        <ele>54.4518</ele>
        <time>2014-06-04T14:36:23Z</time>
      </trkpt>
      <trkpt lat="59.9093617" lon="17.71392">
        <ele>54.9324</ele>
        <time>2014-06-04T14:36:24Z</time>
      </trkpt>
      <trkpt lat="59.9093798" lon="17.7139177">
        <ele>55.4131</ele>
        <time>2014-06-04T14:36:25Z</time>
      </trkpt>
      <trkpt lat="59.9094009" lon="17.713916">
        <ele>56.3745</ele>
        <time>2014-06-04T14:36:26Z</time>
      </trkpt>
      <trkpt lat="59.9094255" lon="17.7139196">
        <ele>57.8165</ele>
        <time>2014-06-04T14:36:27Z</time>
      </trkpt>
      <trkpt lat="59.9094481" lon="17.7139242">
        <ele>59.7391</ele>
        <time>2014-06-04T14:36:28Z</time>
      </trkpt>
      <trkpt lat="59.9094709" lon="17.7139222">
        <ele>60.7003</ele>
        <time>2014-06-04T14:36:29Z</time>
      </trkpt>
      <trkpt lat="59.9094879" lon="17.713922">
        <ele>61.181</ele>
        <time>2014-06-04T14:36:30Z</time>
      </trkpt>
      <trkpt lat="59.909507" lon="17.7139287">
        <ele>61.6617</ele>
        <time>2014-06-04T14:36:31Z</time>
      </trkpt>
      <trkpt lat="59.9095257" lon="17.7139436">
        <ele>62.1423</ele>
        <time>2014-06-04T14:36:32Z</time>
      </trkpt>
      <trkpt lat="59.909547" lon="17.7139489">
        <ele>62.1423</ele>
        <time>2014-06-04T14:36:33Z</time>
      </trkpt>
      <trkpt lat="59.9095719" lon="17.7139556">
        <ele>64.0651</ele>
        <time>2014-06-04T14:36:34Z</time>
      </trkpt>
      <trkpt lat="59.9095925" lon="17.7139553">
        <ele>63.5844</ele>
        <time>2014-06-04T14:36:35Z</time>
      </trkpt>
      <trkpt lat="59.9096123" lon="17.7139495">
        <ele>63.1036</ele>
        <time>2014-06-04T14:36:36Z</time>
      </trkpt>
      <trkpt lat="59.9096384" lon="17.7139507">
        <ele>64.5457</ele>
        <time>2014-06-04T14:36:37Z</time>
      </trkpt>
      <trkpt lat="59.9096606" lon="17.7139556">
        <ele>65.0264</ele>
        <time>2014-06-04T14:36:38Z</time>
      </trkpt>
      <trkpt lat="59.9096833" lon="17.7139635">
        <ele>66.4683</ele>
        <time>2014-06-04T14:36:39Z</time>
      </trkpt>
      <trkpt lat="59.9097087" lon="17.7139685">
        <ele>67.4297</ele>
        <time>2014-06-04T14:36:40Z</time>
      </trkpt>
      <trkpt lat="59.909732" lon="17.7139811">
        <ele>69.3523</ele>
        <time>2014-06-04T14:36:41Z</time>
      </trkpt>
      <trkpt lat="59.909757" lon="17.71399">
        <ele>70.7942</ele>
        <time>2014-06-04T14:36:42Z</time>
      </trkpt>
      <trkpt lat="59.9097789" lon="17.7139905">
        <ele>69.8329</ele>
        <time>2014-06-04T14:36:43Z</time>
      </trkpt>
      <trkpt lat="59.9098095" lon="17.7139879">
        <ele>71.2749</ele>
        <time>2014-06-04T14:36:44Z</time>
      </trkpt>
      <trkpt lat="59.9098361" lon="17.7139848">
        <ele>71.7555</ele>
        <time>2014-06-04T14:36:45Z</time>
      </trkpt>
      <trkpt lat="59.9098588" lon="17.713979">
        <ele>72.2362</ele>
        <time>2014-06-04T14:36:46Z</time>
      </trkpt>
      <trkpt lat="59.9098823" lon="17.7139872">
        <ele>73.1976</ele>
        <time>2014-06-04T14:36:47Z</time>
      </trkpt>
      <trkpt lat="59.9098983" lon="17.7139963">
        <ele>71.7555</ele>
        <time>2014-06-04T14:36:48Z</time>
      </trkpt>
      <trkpt lat="59.9099152" lon="17.7139957">
        <ele>70.7942</ele>
        <time>2014-06-04T14:36:49Z</time>
      </trkpt>
      <trkpt lat="59.9099369" lon="17.7139977">
        <ele>70.7942</ele>
        <time>2014-06-04T14:36:50Z</time>
      </trkpt>
      <trkpt lat="59.9099625" lon="17.713996">
        <ele>71.7555</ele>
        <time>2014-06-04T14:36:51Z</time>
      </trkpt>
      <trkpt lat="59.9099929" lon="17.7139957">
        <ele>72.7169</ele>
        <time>2014-06-04T14:36:52Z</time>
      </trkpt>
      <trkpt lat="59.9100074" lon="17.7139931">
        <ele>72.2362</ele>
        <time>2014-06-04T14:36:53Z</time>
      </trkpt>
      <trkpt lat="59.910034" lon="17.7140003">
        <ele>72.7169</ele>
        <time>2014-06-04T14:36:54Z</time>
      </trkpt>
      <trkpt lat="59.9100682" lon="17.7140232">
        <ele>74.6395</ele>
        <time>2014-06-04T14:36:55Z</time>
      </trkpt>
      <trkpt lat="59.9100994" lon="17.7140472">
        <ele>75.6008</ele>
        <time>2014-06-04T14:36:56Z</time>
      </trkpt>
      <trkpt lat="59.9101216" lon="17.7140651">
        <ele>76.5621</ele>
        <time>2014-06-04T14:36:57Z</time>
      </trkpt>
      <trkpt lat="59.9101454" lon="17.7140714">
        <ele>77.5234</ele>
        <time>2014-06-04T14:36:58Z</time>
      </trkpt>
      <trkpt lat="59.91017" lon="17.7140754">
        <ele>78.004</ele>
        <time>2014-06-04T14:36:59Z</time>
      </trkpt>
      <trkpt lat="59.910197" lon="17.7140774">
        <ele>78.4847</ele>
        <time>2014-06-04T14:37:00Z</time>
      </trkpt>
      <trkpt lat="59.9102241" lon="17.7140753">
        <ele>79.446</ele>
        <time>2014-06-04T14:37:01Z</time>
      </trkpt>
      <trkpt lat="59.9102465" lon="17.7140765">
        <ele>79.9266</ele>
        <time>2014-06-04T14:37:02Z</time>
      </trkpt>
      <trkpt lat="59.9102639" lon="17.7140711">
        <ele>79.9266</ele>
        <time>2014-06-04T14:37:03Z</time>
      </trkpt>
      <trkpt lat="59.9102755" lon="17.7140624">
        <ele>80.8882</ele>
        <time>2014-06-04T14:37:04Z</time>
      </trkpt>
      <trkpt lat="59.9102991" lon="17.7140718">
        <ele>81.8494</ele>
        <time>2014-06-04T14:37:05Z</time>
      </trkpt>
      <trkpt lat="59.9103135" lon="17.714074">
        <ele>81.3688</ele>
        <time>2014-06-04T14:37:06Z</time>
      </trkpt>
      <trkpt lat="59.9103342" lon="17.7140822">
        <ele>80.8882</ele>
        <time>2014-06-04T14:37:07Z</time>
      </trkpt>
      <trkpt lat="59.9103666" lon="17.7140982">
        <ele>81.3688</ele>
        <time>2014-06-04T14:37:08Z</time>
      </trkpt>
      <trkpt lat="59.9103921" lon="17.7141239">
        <ele>80.8882</ele>
        <time>2014-06-04T14:37:09Z</time>
      </trkpt>
      <trkpt lat="59.9104147" lon="17.7141517">
        <ele>80.4075</ele>
        <time>2014-06-04T14:37:10Z</time>
      </trkpt>
      <trkpt lat="59.9104365" lon="17.714177">
        <ele>80.4075</ele>
        <time>2014-06-04T14:37:11Z</time>
      </trkpt>
      <trkpt lat="59.9104494" lon="17.7142095">
        <ele>79.9266</ele>
        <time>2014-06-04T14:37:12Z</time>
      </trkpt>
      <trkpt lat="59.9104645" lon="17.714242">
        <ele>78.4847</ele>
        <time>2014-06-04T14:37:13Z</time>
      </trkpt>
      <trkpt lat="59.9104757" lon="17.7142718">
        <ele>76.5621</ele>
        <time>2014-06-04T14:37:14Z</time>
      </trkpt>
      <trkpt lat="59.9104806" lon="17.7143089">
        <ele>75.1202</ele>
        <time>2014-06-04T14:37:15Z</time>
      </trkpt>
      <trkpt lat="59.9104939" lon="17.7143458">
        <ele>74.6395</ele>
        <time>2014-06-04T14:37:16Z</time>
      </trkpt>
      <trkpt lat="59.9105071" lon="17.7143827">
        <ele>74.6395</ele>
        <time>2014-06-04T14:37:17Z</time>
      </trkpt>
      <trkpt lat="59.9105318" lon="17.7144919">
        <ele>66.4683</ele>
        <time>2014-06-04T14:37:21Z</time>
      </trkpt>
      <trkpt lat="59.9105283" lon="17.7145405">
        <ele>65.0264</ele>
        <time>2014-06-04T14:37:22Z</time>
      </trkpt>
      <trkpt lat="59.9105183" lon="17.7146043">
        <ele>65.5071</ele>
        <time>2014-06-04T14:37:23Z</time>
      </trkpt>
      <trkpt lat="59.9105152" lon="17.7146538">
        <ele>64.5457</ele>
        <time>2014-06-04T14:37:24Z</time>
      </trkpt>
      <trkpt lat="59.9105055" lon="17.7147053">
        <ele>63.5844</ele>
        <time>2014-06-04T14:37:25Z</time>
      </trkpt>
      <trkpt lat="59.9104933" lon="17.7147811">
        <ele>64.0651</ele>
        <time>2014-06-04T14:37:26Z</time>
      </trkpt>
      <trkpt lat="59.9104869" lon="17.7148514">
        <ele>64.0651</ele>
        <time>2014-06-04T14:37:27Z</time>
      </trkpt>
      <trkpt lat="59.9104814" lon="17.7149105">
        <ele>64.0651</ele>
        <time>2014-06-04T14:37:28Z</time>
      </trkpt>
      <trkpt lat="59.9104727" lon="17.7149773">
        <ele>65.0264</ele>
        <time>2014-06-04T14:37:29Z</time>
      </trkpt>
      <trkpt lat="59.9104687" lon="17.7150399">
        <ele>65.0264</ele>
        <time>2014-06-04T14:37:30Z</time>
      </trkpt>
      <trkpt lat="59.910466" lon="17.7150836">
        <ele>63.5844</ele>
        <time>2014-06-04T14:37:31Z</time>
      </trkpt>
      <trkpt lat="59.9104588" lon="17.7151405">
        <ele>64.5457</ele>
        <time>2014-06-04T14:37:32Z</time>
      </trkpt>
      <trkpt lat="59.9104472" lon="17.7152032">
        <ele>64.5457</ele>
        <time>2014-06-04T14:37:33Z</time>
      </trkpt>
      <trkpt lat="59.910436" lon="17.7152545">
        <ele>63.1036</ele>
        <time>2014-06-04T14:37:34Z</time>
      </trkpt>
      <trkpt lat="59.9104287" lon="17.7153036">
        <ele>61.181</ele>
        <time>2014-06-04T14:37:35Z</time>
      </trkpt>
      <trkpt lat="59.9104214" lon="17.7153534">
        <ele>59.7391</ele>
        <time>2014-06-04T14:37:36Z</time>
      </trkpt>
      <trkpt lat="59.9104158" lon="17.7153947">
        <ele>58.2971</ele>
        <time>2014-06-04T14:37:37Z</time>
      </trkpt>
      <trkpt lat="59.9104178" lon="17.7154273">
        <ele>56.3745</ele>
        <time>2014-06-04T14:37:38Z</time>
      </trkpt>
      <trkpt lat="59.9104251" lon="17.7154715">
        <ele>55.4131</ele>
        <time>2014-06-04T14:37:39Z</time>
      </trkpt>
      <trkpt lat="59.9104334" lon="17.715507">
        <ele>53.9712</ele>
        <time>2014-06-04T14:37:40Z</time>
      </trkpt>
      <trkpt lat="59.9104425" lon="17.715548">
        <ele>53.0098</ele>
        <time>2014-06-04T14:37:41Z</time>
      </trkpt>
      <trkpt lat="59.9104546" lon="17.7155754">
        <ele>51.0872</ele>
        <time>2014-06-04T14:37:42Z</time>
      </trkpt>
      <trkpt lat="59.9104658" lon="17.715614">
        <ele>50.126</ele>
        <time>2014-06-04T14:37:43Z</time>
      </trkpt>
      <trkpt lat="59.9104712" lon="17.7156583">
        <ele>49.6453</ele>
        <time>2014-06-04T14:37:44Z</time>
      </trkpt>
      <trkpt lat="59.9104748" lon="17.7156958">
        <ele>48.2034</ele>
        <time>2014-06-04T14:37:45Z</time>
      </trkpt>
      <trkpt lat="59.910482" lon="17.7157362">
        <ele>46.7612</ele>
        <time>2014-06-04T14:37:46Z</time>
      </trkpt>
      <trkpt lat="59.9104934" lon="17.7157793">
        <ele>45.7999</ele>
        <time>2014-06-04T14:37:47Z</time>
      </trkpt>
      <trkpt lat="59.9105065" lon="17.7158243">
        <ele>45.3192</ele>
        <time>2014-06-04T14:37:48Z</time>
      </trkpt>
      <trkpt lat="59.9105179" lon="17.7158725">
        <ele>45.3192</ele>
        <time>2014-06-04T14:37:49Z</time>
      </trkpt>
      <trkpt lat="59.9105265" lon="17.7159237">
        <ele>45.3192</ele>
        <time>2014-06-04T14:37:50Z</time>
      </trkpt>
      <trkpt lat="59.9105322" lon="17.715972">
        <ele>44.8386</ele>
        <time>2014-06-04T14:37:51Z</time>
      </trkpt>
      <trkpt lat="59.910538" lon="17.7160167">
        <ele>44.8386</ele>
        <time>2014-06-04T14:37:52Z</time>
      </trkpt>
      <trkpt lat="59.9105448" lon="17.7160594">
        <ele>43.8773</ele>
        <time>2014-06-04T14:37:53Z</time>
      </trkpt>
      <trkpt lat="59.9105523" lon="17.716106">
        <ele>43.8773</ele>
        <time>2014-06-04T14:37:54Z</time>
      </trkpt>
      <trkpt lat="59.9105607" lon="17.7161454">
        <ele>43.3966</ele>
        <time>2014-06-04T14:37:55Z</time>
      </trkpt>
      <trkpt lat="59.9105682" lon="17.7161809">
        <ele>42.916</ele>
        <time>2014-06-04T14:37:56Z</time>
      </trkpt>
      <trkpt lat="59.910582" lon="17.716221">
        <ele>42.916</ele>
        <time>2014-06-04T14:37:57Z</time>
      </trkpt>
      <trkpt lat="59.9105984" lon="17.7162623">
        <ele>43.3966</ele>
        <time>2014-06-04T14:37:58Z</time>
      </trkpt>
      <trkpt lat="59.9106163" lon="17.7162977">
        <ele>43.8773</ele>
        <time>2014-06-04T14:37:59Z</time>
      </trkpt>
      <trkpt lat="59.9106371" lon="17.7163314">
        <ele>43.8773</ele>
        <time>2014-06-04T14:38:00Z</time>
      </trkpt>
      <trkpt lat="59.9106566" lon="17.7163675">
        <ele>44.8386</ele>
        <time>2014-06-04T14:38:01Z</time>
      </trkpt>
      <trkpt lat="59.9106767" lon="17.7164007">
        <ele>45.3192</ele>
        <time>2014-06-04T14:38:02Z</time>
      </trkpt>
      <trkpt lat="59.9106985" lon="17.7164311">
        <ele>45.7999</ele>
        <time>2014-06-04T14:38:03Z</time>
      </trkpt>
      <trkpt lat="59.9107212" lon="17.716464">
        <ele>46.2806</ele>
        <time>2014-06-04T14:38:04Z</time>
      </trkpt>
      <trkpt lat="59.9107414" lon="17.7164924">
        <ele>46.7612</ele>
        <time>2014-06-04T14:38:05Z</time>
      </trkpt>
      <trkpt lat="59.9107617" lon="17.7165146">
        <ele>46.7612</ele>
        <time>2014-06-04T14:38:06Z</time>
      </trkpt>
      <trkpt lat="59.9107835" lon="17.7165364">
        <ele>47.7225</ele>
        <time>2014-06-04T14:38:07Z</time>
      </trkpt>
      <trkpt lat="59.9108069" lon="17.7165529">
        <ele>47.7225</ele>
        <time>2014-06-04T14:38:08Z</time>
      </trkpt>
      <trkpt lat="59.9108349" lon="17.7165628">
        <ele>47.7225</ele>
        <time>2014-06-04T14:38:09Z</time>
      </trkpt>
      <trkpt lat="59.9108627" lon="17.7165707">
        <ele>48.2034</ele>
        <time>2014-06-04T14:38:10Z</time>
      </trkpt>
      <trkpt lat="59.9108899" lon="17.7165762">
        <ele>48.2034</ele>
        <time>2014-06-04T14:38:11Z</time>
      </trkpt>
      <trkpt lat="59.9109203" lon="17.7165826">
        <ele>49.1646</ele>
        <time>2014-06-04T14:38:12Z</time>
      </trkpt>
      <trkpt lat="59.9109538" lon="17.7165889">
        <ele>51.5679</ele>
        <time>2014-06-04T14:38:13Z</time>
      </trkpt>
      <trkpt lat="59.9109855" lon="17.7165872">
        <ele>53.4905</ele>
        <time>2014-06-04T14:38:14Z</time>
      </trkpt>
      <trkpt lat="59.9110187" lon="17.7165821">
        <ele>56.3745</ele>
        <time>2014-06-04T14:38:15Z</time>
      </trkpt>
      <trkpt lat="59.9110535" lon="17.7165703">
        <ele>59.2584</ele>
        <time>2014-06-04T14:38:16Z</time>
      </trkpt>
      <trkpt lat="59.9110876" lon="17.7165506">
        <ele>62.1423</ele>
        <time>2014-06-04T14:38:17Z</time>
      </trkpt>
      <trkpt lat="59.9111227" lon="17.7165365">
        <ele>64.5457</ele>
        <time>2014-06-04T14:38:18Z</time>
      </trkpt>
      <trkpt lat="59.911159" lon="17.7165229">
        <ele>66.4683</ele>
        <time>2014-06-04T14:38:19Z</time>
      </trkpt>
      <trkpt lat="59.9112005" lon="17.7165028">
        <ele>70.7942</ele>
        <time>2014-06-04T14:38:20Z</time>
      </trkpt>
      <trkpt lat="59.9112307" lon="17.7164882">
        <ele>71.7555</ele>
        <time>2014-06-04T14:38:21Z</time>
      </trkpt>
      <trkpt lat="59.9112605" lon="17.7164718">
        <ele>73.1976</ele>
        <time>2014-06-04T14:38:22Z</time>
      </trkpt>
      <trkpt lat="59.9112871" lon="17.7164583">
        <ele>74.6395</ele>
        <time>2014-06-04T14:38:23Z</time>
      </trkpt>
      <trkpt lat="59.9113226" lon="17.7164478">
        <ele>77.5234</ele>
        <time>2014-06-04T14:38:24Z</time>
      </trkpt>
      <trkpt lat="59.9113581" lon="17.7164373">
        <ele>80.4075</ele>
        <time>2014-06-04T14:38:25Z</time>
      </trkpt>
      <trkpt lat="59.91139" lon="17.7164286">
        <ele>83.772</ele>
        <time>2014-06-04T14:38:26Z</time>
      </trkpt>
      <trkpt lat="59.9114202" lon="17.7164276">
        <ele>85.214</ele>
        <time>2014-06-04T14:38:27Z</time>
      </trkpt>
      <trkpt lat="59.9114596" lon="17.7164314">
        <ele>89.0593</ele>
        <time>2014-06-04T14:38:28Z</time>
      </trkpt>
      <trkpt lat="59.9114943" lon="17.716437">
        <ele>90.9819</ele>
        <time>2014-06-04T14:38:29Z</time>
      </trkpt>
      <trkpt lat="59.9115103" lon="17.7164422">
        <ele>88.5787</ele>
        <time>2014-06-04T14:38:30Z</time>
      </trkpt>
      <trkpt lat="59.9115296" lon="17.7164464">
        <ele>87.1366</ele>
        <time>2014-06-04T14:38:31Z</time>
      </trkpt>
      <trkpt lat="59.9115381" lon="17.7164536">
        <ele>84.2527</ele>
        <time>2014-06-04T14:38:32Z</time>
      </trkpt>
      <trkpt lat="59.9115493" lon="17.7164614">
        <ele>82.3301</ele>
        <time>2014-06-04T14:38:33Z</time>
      </trkpt>
      <trkpt lat="59.9115676" lon="17.716463">
        <ele>81.3688</ele>
        <time>2014-06-04T14:38:34Z</time>
      </trkpt>
      <trkpt lat="59.9115819" lon="17.7164625">
        <ele>79.446</ele>
        <time>2014-06-04T14:38:35Z</time>
      </trkpt>
      <trkpt lat="59.9116" lon="17.7164653">
        <ele>77.5234</ele>
        <time>2014-06-04T14:38:36Z</time>
      </trkpt>
      <trkpt lat="59.9116182" lon="17.716461">
        <ele>75.1202</ele>
        <time>2014-06-04T14:38:37Z</time>
      </trkpt>
      <trkpt lat="59.9116356" lon="17.716452">
        <ele>74.1588</ele>
        <time>2014-06-04T14:38:38Z</time>
      </trkpt>
      <trkpt lat="59.9116464" lon="17.7164194">
        <ele>65.0264</ele>
        <time>2014-06-04T14:38:49Z</time>
      </trkpt>
      <trkpt lat="59.9116449" lon="17.7164081">
        <ele>64.0651</ele>
        <time>2014-06-04T14:38:50Z</time>
      </trkpt>
      <trkpt lat="59.9116496" lon="17.7164044">
        <ele>63.5844</ele>
        <time>2014-06-04T14:38:51Z</time>
      </trkpt>
      <trkpt lat="59.9116508" lon="17.7164106">
        <ele>62.6229</ele>
        <time>2014-06-04T14:38:52Z</time>
      </trkpt>
      <trkpt lat="59.9116641" lon="17.7163939">
        <ele>60.2197</ele>
        <time>2014-06-04T14:38:53Z</time>
      </trkpt>
      <trkpt lat="59.9116827" lon="17.7163686">
        <ele>58.7777</ele>
        <time>2014-06-04T14:38:54Z</time>
      </trkpt>
      <trkpt lat="59.9117034" lon="17.7163377">
        <ele>58.2971</ele>
        <time>2014-06-04T14:38:55Z</time>
      </trkpt>
      <trkpt lat="59.9117296" lon="17.7163111">
        <ele>59.7391</ele>
        <time>2014-06-04T14:38:56Z</time>
      </trkpt>
      <trkpt lat="59.9117533" lon="17.7162861">
        <ele>58.7777</ele>
        <time>2014-06-04T14:38:57Z</time>
      </trkpt>
      <trkpt lat="59.9117839" lon="17.7162564">
        <ele>59.2584</ele>
        <time>2014-06-04T14:38:58Z</time>
      </trkpt>
      <trkpt lat="59.9118154" lon="17.7162296">
        <ele>60.2197</ele>
        <time>2014-06-04T14:38:59Z</time>
      </trkpt>
      <trkpt lat="59.9118386" lon="17.7161955">
        <ele>60.7003</ele>
        <time>2014-06-04T14:39:00Z</time>
      </trkpt>
      <trkpt lat="59.9118532" lon="17.7161526">
        <ele>59.2584</ele>
        <time>2014-06-04T14:39:01Z</time>
      </trkpt>
      <trkpt lat="59.911874" lon="17.7161112">
        <ele>59.7391</ele>
        <time>2014-06-04T14:39:02Z</time>
      </trkpt>
      <trkpt lat="59.9118872" lon="17.7160708">
        <ele>57.8165</ele>
        <time>2014-06-04T14:39:03Z</time>
      </trkpt>
      <trkpt lat="59.9119046" lon="17.7160287">
        <ele>57.3358</ele>
        <time>2014-06-04T14:39:04Z</time>
      </trkpt>
      <trkpt lat="59.9119119" lon="17.7159882">
        <ele>54.4518</ele>
        <time>2014-06-04T14:39:05Z</time>
      </trkpt>
      <trkpt lat="59.9119159" lon="17.7159466">
        <ele>52.0486</ele>
        <time>2014-06-04T14:39:06Z</time>
      </trkpt>
      <trkpt lat="59.9119378" lon="17.7159044">
        <ele>53.0098</ele>
        <time>2014-06-04T14:39:07Z</time>
      </trkpt>
      <trkpt lat="59.9119469" lon="17.7158563">
        <ele>52.5292</ele>
        <time>2014-06-04T14:39:08Z</time>
      </trkpt>
      <trkpt lat="59.9119706" lon="17.7158139">
        <ele>54.4518</ele>
        <time>2014-06-04T14:39:09Z</time>
      </trkpt>
      <trkpt lat="59.9119858" lon="17.715762">
        <ele>55.8938</ele>
        <time>2014-06-04T14:39:10Z</time>
      </trkpt>
      <trkpt lat="59.9120142" lon="17.7157258">
        <ele>59.7391</ele>
        <time>2014-06-04T14:39:11Z</time>
      </trkpt>
      <trkpt lat="59.9120483" lon="17.715689">
        <ele>63.5844</ele>
        <time>2014-06-04T14:39:12Z</time>
      </trkpt>
      <trkpt lat="59.9120717" lon="17.7156501">
        <ele>65.5071</ele>
        <time>2014-06-04T14:39:13Z</time>
      </trkpt>
      <trkpt lat="59.9120833" lon="17.7156072">
        <ele>64.5457</ele>
        <time>2014-06-04T14:39:14Z</time>
      </trkpt>
      <trkpt lat="59.9121163" lon="17.7155895">
        <ele>66.4683</ele>
        <time>2014-06-04T14:39:15Z</time>
      </trkpt>
      <trkpt lat="59.9121442" lon="17.7155808">
        <ele>67.9103</ele>
        <time>2014-06-04T14:39:16Z</time>
      </trkpt>
      <trkpt lat="59.9121624" lon="17.7155519">
        <ele>68.3909</ele>
        <time>2014-06-04T14:39:17Z</time>
      </trkpt>
      <trkpt lat="59.9121797" lon="17.7155246">
        <ele>67.9103</ele>
        <time>2014-06-04T14:39:18Z</time>
      </trkpt>
      <trkpt lat="59.9122014" lon="17.7154941">
        <ele>68.8716</ele>
        <time>2014-06-04T14:39:19Z</time>
      </trkpt>
      <trkpt lat="59.9122276" lon="17.7154648">
        <ele>70.3135</ele>
        <time>2014-06-04T14:39:20Z</time>
      </trkpt>
      <trkpt lat="59.9122493" lon="17.7154331">
        <ele>71.2749</ele>
        <time>2014-06-04T14:39:21Z</time>
      </trkpt>
      <trkpt lat="59.9122799" lon="17.7154046">
        <ele>73.1976</ele>
        <time>2014-06-04T14:39:22Z</time>
      </trkpt>
      <trkpt lat="59.9123019" lon="17.7153818">
        <ele>71.7555</ele>
        <time>2014-06-04T14:39:23Z</time>
      </trkpt>
      <trkpt lat="59.9123219" lon="17.7153576">
        <ele>70.3135</ele>
        <time>2014-06-04T14:39:24Z</time>
      </trkpt>
      <trkpt lat="59.9123444" lon="17.7153347">
        <ele>69.3523</ele>
        <time>2014-06-04T14:39:25Z</time>
      </trkpt>
      <trkpt lat="59.9123635" lon="17.7153285">
        <ele>67.9103</ele>
        <time>2014-06-04T14:39:26Z</time>
      </trkpt>
      <trkpt lat="59.9123786" lon="17.7153376">
        <ele>65.9877</ele>
        <time>2014-06-04T14:39:27Z</time>
      </trkpt>
      <trkpt lat="59.9123959" lon="17.715356">
        <ele>64.0651</ele>
        <time>2014-06-04T14:39:28Z</time>
      </trkpt>
      <trkpt lat="59.9124126" lon="17.7153761">
        <ele>62.1423</ele>
        <time>2014-06-04T14:39:29Z</time>
      </trkpt>
      <trkpt lat="59.9124364" lon="17.7153996">
        <ele>61.6617</ele>
        <time>2014-06-04T14:39:30Z</time>
      </trkpt>
      <trkpt lat="59.9124583" lon="17.7154191">
        <ele>60.2197</ele>
        <time>2014-06-04T14:39:31Z</time>
      </trkpt>
      <trkpt lat="59.9124765" lon="17.7154362">
        <ele>58.7777</ele>
        <time>2014-06-04T14:39:32Z</time>
      </trkpt>
      <trkpt lat="59.912494" lon="17.715459">
        <ele>58.7777</ele>
        <time>2014-06-04T14:39:33Z</time>
      </trkpt>
      <trkpt lat="59.9125109" lon="17.7154777">
        <ele>57.8165</ele>
        <time>2014-06-04T14:39:34Z</time>
      </trkpt>
      <trkpt lat="59.9125329" lon="17.7154932">
        <ele>56.8551</ele>
        <time>2014-06-04T14:39:35Z</time>
      </trkpt>
      <trkpt lat="59.9125588" lon="17.7155144">
        <ele>56.8551</ele>
        <time>2014-06-04T14:39:36Z</time>
      </trkpt>
      <trkpt lat="59.9125835" lon="17.7155388">
        <ele>57.3358</ele>
        <time>2014-06-04T14:39:37Z</time>
      </trkpt>
      <trkpt lat="59.9126029" lon="17.7155745">
        <ele>57.3358</ele>
        <time>2014-06-04T14:39:38Z</time>
      </trkpt>
      <trkpt lat="59.9126203" lon="17.7156034">
        <ele>57.3358</ele>
        <time>2014-06-04T14:39:39Z</time>
      </trkpt>
      <trkpt lat="59.9126345" lon="17.7156372">
        <ele>57.8165</ele>
        <time>2014-06-04T14:39:40Z</time>
      </trkpt>
      <trkpt lat="59.912652" lon="17.7156682">
        <ele>57.3358</ele>
        <time>2014-06-04T14:39:41Z</time>
      </trkpt>
      <trkpt lat="59.9126729" lon="17.7156961">
        <ele>57.3358</ele>
        <time>2014-06-04T14:39:42Z</time>
      </trkpt>
      <trkpt lat="59.9126879" lon="17.7157292">
        <ele>57.3358</ele>
        <time>2014-06-04T14:39:43Z</time>
      </trkpt>
      <trkpt lat="59.9126966" lon="17.7157749">
        <ele>57.3358</ele>
        <time>2014-06-04T14:39:44Z</time>
      </trkpt>
      <trkpt lat="59.9127124" lon="17.7158154">
        <ele>56.8551</ele>
        <time>2014-06-04T14:39:45Z</time>
      </trkpt>
      <trkpt lat="59.9127333" lon="17.7158583">
        <ele>57.3358</ele>
        <time>2014-06-04T14:39:46Z</time>
      </trkpt>
      <trkpt lat="59.9127525" lon="17.7158963">
        <ele>56.8551</ele>
        <time>2014-06-04T14:39:47Z</time>
      </trkpt>
      <trkpt lat="59.9127665" lon="17.7159369">
        <ele>56.8551</ele>
        <time>2014-06-04T14:39:48Z</time>
      </trkpt>
      <trkpt lat="59.9127767" lon="17.7159751">
        <ele>55.8938</ele>
        <time>2014-06-04T14:39:49Z</time>
      </trkpt>
      <trkpt lat="59.9127846" lon="17.7160141">
        <ele>55.4131</ele>
        <time>2014-06-04T14:39:50Z</time>
      </trkpt>
      <trkpt lat="59.9128038" lon="17.7160422">
        <ele>54.4518</ele>
        <time>2014-06-04T14:39:51Z</time>
      </trkpt>
      <trkpt lat="59.9128241" lon="17.7160755">
        <ele>54.4518</ele>
        <time>2014-06-04T14:39:52Z</time>
      </trkpt>
      <trkpt lat="59.9128484" lon="17.7161115">
        <ele>54.9324</ele>
        <time>2014-06-04T14:39:53Z</time>
      </trkpt>
      <trkpt lat="59.9128686" lon="17.7161447">
        <ele>54.9324</ele>
        <time>2014-06-04T14:39:54Z</time>
      </trkpt>
      <trkpt lat="59.9128835" lon="17.7161739">
        <ele>54.9324</ele>
        <time>2014-06-04T14:39:55Z</time>
      </trkpt>
      <trkpt lat="59.9128981" lon="17.7162081">
        <ele>54.9324</ele>
        <time>2014-06-04T14:39:56Z</time>
      </trkpt>
      <trkpt lat="59.912914" lon="17.7162464">
        <ele>53.9712</ele>
        <time>2014-06-04T14:39:57Z</time>
      </trkpt>
      <trkpt lat="59.91293" lon="17.7162859">
        <ele>53.9712</ele>
        <time>2014-06-04T14:39:58Z</time>
      </trkpt>
      <trkpt lat="59.9129463" lon="17.7163166">
        <ele>54.4518</ele>
        <time>2014-06-04T14:39:59Z</time>
      </trkpt>
      <trkpt lat="59.9129654" lon="17.7163477">
        <ele>53.9712</ele>
        <time>2014-06-04T14:40:00Z</time>
      </trkpt>
      <trkpt lat="59.912983" lon="17.716383">
        <ele>53.4905</ele>
        <time>2014-06-04T14:40:01Z</time>
      </trkpt>
      <trkpt lat="59.9129975" lon="17.7164154">
        <ele>53.0098</ele>
        <time>2014-06-04T14:40:02Z</time>
      </trkpt>
      <trkpt lat="59.9130139" lon="17.716451">
        <ele>53.9712</ele>
        <time>2014-06-04T14:40:03Z</time>
      </trkpt>
      <trkpt lat="59.9130298" lon="17.7164886">
        <ele>54.9324</ele>
        <time>2014-06-04T14:40:04Z</time>
      </trkpt>
      <trkpt lat="59.9130442" lon="17.7165247">
        <ele>54.4518</ele>
        <time>2014-06-04T14:40:05Z</time>
      </trkpt>
      <trkpt lat="59.9130586" lon="17.7165676">
        <ele>53.9712</ele>
        <time>2014-06-04T14:40:06Z</time>
      </trkpt>
      <trkpt lat="59.9130732" lon="17.7166091">
        <ele>53.0098</ele>
        <time>2014-06-04T14:40:07Z</time>
      </trkpt>
      <trkpt lat="59.9130892" lon="17.7166477">
        <ele>53.0098</ele>
        <time>2014-06-04T14:40:08Z</time>
      </trkpt>
      <trkpt lat="59.9131036" lon="17.7166867">
        <ele>52.5292</ele>
        <time>2014-06-04T14:40:09Z</time>
      </trkpt>
      <trkpt lat="59.9131163" lon="17.7167287">
        <ele>52.5292</ele>
        <time>2014-06-04T14:40:10Z</time>
      </trkpt>
      <trkpt lat="59.9131281" lon="17.716768">
        <ele>52.5292</ele>
        <time>2014-06-04T14:40:11Z</time>
      </trkpt>
      <trkpt lat="59.9131353" lon="17.7168078">
        <ele>52.5292</ele>
        <time>2014-06-04T14:40:12Z</time>
      </trkpt>
      <trkpt lat="59.9131462" lon="17.7168536">
        <ele>52.5292</ele>
        <time>2014-06-04T14:40:13Z</time>
      </trkpt>
      <trkpt lat="59.913158" lon="17.7168942">
        <ele>51.0872</ele>
        <time>2014-06-04T14:40:14Z</time>
      </trkpt>
      <trkpt lat="59.9131685" lon="17.7169328">
        <ele>51.5679</ele>
        <time>2014-06-04T14:40:15Z</time>
      </trkpt>
      <trkpt lat="59.9131799" lon="17.7169731">
        <ele>52.0486</ele>
        <time>2014-06-04T14:40:16Z</time>
      </trkpt>
      <trkpt lat="59.9131942" lon="17.7170126">
        <ele>52.5292</ele>
        <time>2014-06-04T14:40:17Z</time>
      </trkpt>
      <trkpt lat="59.9132059" lon="17.7170462">
        <ele>52.5292</ele>
        <time>2014-06-04T14:40:18Z</time>
      </trkpt>
      <trkpt lat="59.9132172" lon="17.7170817">
        <ele>52.5292</ele>
        <time>2014-06-04T14:40:19Z</time>
      </trkpt>
      <trkpt lat="59.9132326" lon="17.7171242">
        <ele>52.5292</ele>
        <time>2014-06-04T14:40:20Z</time>
      </trkpt>
      <trkpt lat="59.9132476" lon="17.7171646">
        <ele>52.0486</ele>
        <time>2014-06-04T14:40:21Z</time>
      </trkpt>
      <trkpt lat="59.9132586" lon="17.7171975">
        <ele>51.5679</ele>
        <time>2014-06-04T14:40:22Z</time>
      </trkpt>
      <trkpt lat="59.9132696" lon="17.7172317">
        <ele>51.5679</ele>
        <time>2014-06-04T14:40:23Z</time>
      </trkpt>
      <trkpt lat="59.9132804" lon="17.7172633">
        <ele>51.0872</ele>
        <time>2014-06-04T14:40:24Z</time>
      </trkpt>
      <trkpt lat="59.9132919" lon="17.7172999">
        <ele>50.6066</ele>
        <time>2014-06-04T14:40:25Z</time>
      </trkpt>
      <trkpt lat="59.9133011" lon="17.7173363">
        <ele>49.1646</ele>
        <time>2014-06-04T14:40:26Z</time>
      </trkpt>
      <trkpt lat="59.913314" lon="17.7173761">
        <ele>49.1646</ele>
        <time>2014-06-04T14:40:27Z</time>
      </trkpt>
      <trkpt lat="59.913328" lon="17.7174218">
        <ele>48.684</ele>
        <time>2014-06-04T14:40:28Z</time>
      </trkpt>
      <trkpt lat="59.913346" lon="17.7174616">
        <ele>49.1646</ele>
        <time>2014-06-04T14:40:29Z</time>
      </trkpt>
      <trkpt lat="59.9133631" lon="17.7174949">
        <ele>49.1646</ele>
        <time>2014-06-04T14:40:30Z</time>
      </trkpt>
      <trkpt lat="59.9133798" lon="17.7175322">
        <ele>49.1646</ele>
        <time>2014-06-04T14:40:31Z</time>
      </trkpt>
      <trkpt lat="59.9134019" lon="17.7175679">
        <ele>49.6453</ele>
        <time>2014-06-04T14:40:32Z</time>
      </trkpt>
      <trkpt lat="59.9134234" lon="17.7176003">
        <ele>50.126</ele>
        <time>2014-06-04T14:40:33Z</time>
      </trkpt>
      <trkpt lat="59.9134472" lon="17.7176393">
        <ele>51.0872</ele>
        <time>2014-06-04T14:40:34Z</time>
      </trkpt>
      <trkpt lat="59.9134649" lon="17.7176791">
        <ele>51.5679</ele>
        <time>2014-06-04T14:40:35Z</time>
      </trkpt>
      <trkpt lat="59.9134814" lon="17.7177144">
        <ele>51.0872</ele>
        <time>2014-06-04T14:40:36Z</time>
      </trkpt>
      <trkpt lat="59.9134974" lon="17.717746">
        <ele>51.0872</ele>
        <time>2014-06-04T14:40:37Z</time>
      </trkpt>
      <trkpt lat="59.913512" lon="17.7177771">
        <ele>51.5679</ele>
        <time>2014-06-04T14:40:38Z</time>
      </trkpt>
      <trkpt lat="59.9135286" lon="17.7178122">
        <ele>51.5679</ele>
        <time>2014-06-04T14:40:39Z</time>
      </trkpt>
      <trkpt lat="59.9135483" lon="17.7178465">
        <ele>52.5292</ele>
        <time>2014-06-04T14:40:40Z</time>
      </trkpt>
      <trkpt lat="59.9135688" lon="17.7178822">
        <ele>53.4905</ele>
        <time>2014-06-04T14:40:41Z</time>
      </trkpt>
      <trkpt lat="59.9135896" lon="17.7179166">
        <ele>53.9712</ele>
        <time>2014-06-04T14:40:42Z</time>
      </trkpt>
      <trkpt lat="59.9136092" lon="17.7179521">
        <ele>54.4518</ele>
        <time>2014-06-04T14:40:43Z</time>
      </trkpt>
      <trkpt lat="59.913626" lon="17.7179873">
        <ele>54.4518</ele>
        <time>2014-06-04T14:40:44Z</time>
      </trkpt>
      <trkpt lat="59.9136439" lon="17.718017">
        <ele>54.4518</ele>
        <time>2014-06-04T14:40:45Z</time>
      </trkpt>
      <trkpt lat="59.9136647" lon="17.718047">
        <ele>54.9324</ele>
        <time>2014-06-04T14:40:46Z</time>
      </trkpt>
      <trkpt lat="59.9136878" lon="17.7180708">
        <ele>55.4131</ele>
        <time>2014-06-04T14:40:47Z</time>
      </trkpt>
      <trkpt lat="59.9137089" lon="17.7180829">
        <ele>55.8938</ele>
        <time>2014-06-04T14:40:48Z</time>
      </trkpt>
      <trkpt lat="59.9137355" lon="17.7180895">
        <ele>56.8551</ele>
        <time>2014-06-04T14:40:49Z</time>
      </trkpt>
      <trkpt lat="59.9137621" lon="17.7180957">
        <ele>57.8165</ele>
        <time>2014-06-04T14:40:50Z</time>
      </trkpt>
      <trkpt lat="59.9137876" lon="17.7180946">
        <ele>58.2971</ele>
        <time>2014-06-04T14:40:51Z</time>
      </trkpt>
      <trkpt lat="59.9138135" lon="17.7180911">
        <ele>58.7777</ele>
        <time>2014-06-04T14:40:52Z</time>
      </trkpt>
      <trkpt lat="59.913835" lon="17.7180859">
        <ele>58.7777</ele>
        <time>2014-06-04T14:40:53Z</time>
      </trkpt>
      <trkpt lat="59.9138576" lon="17.7180761">
        <ele>59.2584</ele>
        <time>2014-06-04T14:40:54Z</time>
      </trkpt>
      <trkpt lat="59.9138811" lon="17.7180587">
        <ele>59.7391</ele>
        <time>2014-06-04T14:40:55Z</time>
      </trkpt>
      <trkpt lat="59.9139078" lon="17.7180408">
        <ele>61.181</ele>
        <time>2014-06-04T14:40:56Z</time>
      </trkpt>
      <trkpt lat="59.9139298" lon="17.7180231">
        <ele>62.1423</ele>
        <time>2014-06-04T14:40:57Z</time>
      </trkpt>
      <trkpt lat="59.9139479" lon="17.7180052">
        <ele>62.1423</ele>
        <time>2014-06-04T14:40:58Z</time>
      </trkpt>
      <trkpt lat="59.9139651" lon="17.7179813">
        <ele>62.1423</ele>
        <time>2014-06-04T14:40:59Z</time>
      </trkpt>
      <trkpt lat="59.9139855" lon="17.7179593">
        <ele>62.1423</ele>
        <time>2014-06-04T14:41:00Z</time>
      </trkpt>
      <trkpt lat="59.9140092" lon="17.717946">
        <ele>62.6229</ele>
        <time>2014-06-04T14:41:01Z</time>
      </trkpt>
      <trkpt lat="59.9140294" lon="17.7179424">
        <ele>61.6617</ele>
        <time>2014-06-04T14:41:02Z</time>
      </trkpt>
      <trkpt lat="59.9140501" lon="17.7179569">
        <ele>61.181</ele>
        <time>2014-06-04T14:41:03Z</time>
      </trkpt>
      <trkpt lat="59.9140815" lon="17.7180017">
        <ele>59.2584</ele>
        <time>2014-06-04T14:41:04Z</time>
      </trkpt>
      <trkpt lat="59.9140994" lon="17.7180373">
        <ele>58.7777</ele>
        <time>2014-06-04T14:41:05Z</time>
      </trkpt>
      <trkpt lat="59.914116" lon="17.7180744">
        <ele>58.7777</ele>
        <time>2014-06-04T14:41:06Z</time>
      </trkpt>
      <trkpt lat="59.9141346" lon="17.7181076">
        <ele>58.7777</ele>
        <time>2014-06-04T14:41:07Z</time>
      </trkpt>
      <trkpt lat="59.9141533" lon="17.7181385">
        <ele>58.7777</ele>
        <time>2014-06-04T14:41:08Z</time>
      </trkpt>
      <trkpt lat="59.9141734" lon="17.7181729">
        <ele>57.8165</ele>
        <time>2014-06-04T14:41:09Z</time>
      </trkpt>
      <trkpt lat="59.9141967" lon="17.718203">
        <ele>57.8165</ele>
        <time>2014-06-04T14:41:10Z</time>
      </trkpt>
      <trkpt lat="59.9142168" lon="17.7182307">
        <ele>56.8551</ele>
        <time>2014-06-04T14:41:11Z</time>
      </trkpt>
      <trkpt lat="59.9142345" lon="17.7182609">
        <ele>56.3745</ele>
        <time>2014-06-04T14:41:12Z</time>
      </trkpt>
      <trkpt lat="59.9142499" lon="17.7182879">
        <ele>55.4131</ele>
        <time>2014-06-04T14:41:13Z</time>
      </trkpt>
      <trkpt lat="59.9142629" lon="17.7183126">
        <ele>54.9324</ele>
        <time>2014-06-04T14:41:14Z</time>
      </trkpt>
      <trkpt lat="59.9142785" lon="17.718339">
        <ele>54.4518</ele>
        <time>2014-06-04T14:41:15Z</time>
      </trkpt>
      <trkpt lat="59.9142967" lon="17.7183588">
        <ele>54.4518</ele>
        <time>2014-06-04T14:41:16Z</time>
      </trkpt>
      <trkpt lat="59.9143179" lon="17.7183745">
        <ele>53.9712</ele>
        <time>2014-06-04T14:41:17Z</time>
      </trkpt>
      <trkpt lat="59.9143412" lon="17.7183894">
        <ele>53.9712</ele>
        <time>2014-06-04T14:41:18Z</time>
      </trkpt>
      <trkpt lat="59.9143635" lon="17.7184004">
        <ele>54.4518</ele>
        <time>2014-06-04T14:41:19Z</time>
      </trkpt>
      <trkpt lat="59.9143851" lon="17.7184123">
        <ele>54.9324</ele>
        <time>2014-06-04T14:41:20Z</time>
      </trkpt>
      <trkpt lat="59.9144061" lon="17.718433">
        <ele>54.9324</ele>
        <time>2014-06-04T14:41:21Z</time>
      </trkpt>
      <trkpt lat="59.9144235" lon="17.7184553">
        <ele>54.4518</ele>
        <time>2014-06-04T14:41:22Z</time>
      </trkpt>
      <trkpt lat="59.9144413" lon="17.7184757">
        <ele>54.9324</ele>
        <time>2014-06-04T14:41:23Z</time>
      </trkpt>
      <trkpt lat="59.914462" lon="17.7185003">
        <ele>54.9324</ele>
        <time>2014-06-04T14:41:24Z</time>
      </trkpt>
      <trkpt lat="59.9144833" lon="17.7185294">
        <ele>54.4518</ele>
        <time>2014-06-04T14:41:25Z</time>
      </trkpt>
      <trkpt lat="59.9145043" lon="17.7185578">
        <ele>53.9712</ele>
        <time>2014-06-04T14:41:26Z</time>
      </trkpt>
      <trkpt lat="59.9145247" lon="17.718582">
        <ele>53.9712</ele>
        <time>2014-06-04T14:41:27Z</time>
      </trkpt>
      <trkpt lat="59.9145455" lon="17.7186075">
        <ele>54.4518</ele>
        <time>2014-06-04T14:41:28Z</time>
      </trkpt>
      <trkpt lat="59.9145656" lon="17.7186339">
        <ele>54.4518</ele>
        <time>2014-06-04T14:41:29Z</time>
      </trkpt>
      <trkpt lat="59.9145837" lon="17.7186607">
        <ele>53.9712</ele>
        <time>2014-06-04T14:41:30Z</time>
      </trkpt>
      <trkpt lat="59.9146021" lon="17.7186907">
        <ele>53.9712</ele>
        <time>2014-06-04T14:41:31Z</time>
      </trkpt>
      <trkpt lat="59.9146204" lon="17.7187168">
        <ele>54.4518</ele>
        <time>2014-06-04T14:41:32Z</time>
      </trkpt>
      <trkpt lat="59.9146368" lon="17.7187416">
        <ele>54.9324</ele>
        <time>2014-06-04T14:41:33Z</time>
      </trkpt>
      <trkpt lat="59.9146521" lon="17.7187759">
        <ele>54.9324</ele>
        <time>2014-06-04T14:41:34Z</time>
      </trkpt>
      <trkpt lat="59.9146635" lon="17.7188104">
        <ele>55.4131</ele>
        <time>2014-06-04T14:41:35Z</time>
      </trkpt>
      <trkpt lat="59.9146726" lon="17.7188416">
        <ele>54.9324</ele>
        <time>2014-06-04T14:41:36Z</time>
      </trkpt>
      <trkpt lat="59.9146863" lon="17.7188777">
        <ele>55.8938</ele>
        <time>2014-06-04T14:41:37Z</time>
      </trkpt>
      <trkpt lat="59.9147023" lon="17.7189178">
        <ele>56.3745</ele>
        <time>2014-06-04T14:41:38Z</time>
      </trkpt>
      <trkpt lat="59.9147179" lon="17.7189529">
        <ele>56.3745</ele>
        <time>2014-06-04T14:41:39Z</time>
      </trkpt>
      <trkpt lat="59.9147319" lon="17.7189841">
        <ele>56.8551</ele>
        <time>2014-06-04T14:41:40Z</time>
      </trkpt>
      <trkpt lat="59.9147453" lon="17.7190192">
        <ele>56.8551</ele>
        <time>2014-06-04T14:41:41Z</time>
      </trkpt>
      <trkpt lat="59.9147634" lon="17.71905">
        <ele>56.8551</ele>
        <time>2014-06-04T14:41:42Z</time>
      </trkpt>
      <trkpt lat="59.9147832" lon="17.719082">
        <ele>57.3358</ele>
        <time>2014-06-04T14:41:43Z</time>
      </trkpt>
      <trkpt lat="59.9147982" lon="17.7191181">
        <ele>56.8551</ele>
        <time>2014-06-04T14:41:44Z</time>
      </trkpt>
      <trkpt lat="59.9148145" lon="17.719152">
        <ele>56.8551</ele>
        <time>2014-06-04T14:41:45Z</time>
      </trkpt>
      <trkpt lat="59.9148326" lon="17.7191909">
        <ele>57.3358</ele>
        <time>2014-06-04T14:41:46Z</time>
      </trkpt>
      <trkpt lat="59.9148474" lon="17.7192333">
        <ele>57.8165</ele>
        <time>2014-06-04T14:41:47Z</time>
      </trkpt>
      <trkpt lat="59.9148542" lon="17.7192799">
        <ele>57.8165</ele>
        <time>2014-06-04T14:41:48Z</time>
      </trkpt>
      <trkpt lat="59.9148583" lon="17.719326">
        <ele>57.8165</ele>
        <time>2014-06-04T14:41:49Z</time>
      </trkpt>
      <trkpt lat="59.914866" lon="17.7193737">
        <ele>58.2971</ele>
        <time>2014-06-04T14:41:50Z</time>
      </trkpt>
      <trkpt lat="59.9148699" lon="17.719423">
        <ele>58.2971</ele>
        <time>2014-06-04T14:41:51Z</time>
      </trkpt>
      <trkpt lat="59.9148691" lon="17.7194715">
        <ele>58.2971</ele>
        <time>2014-06-04T14:41:52Z</time>
      </trkpt>
      <trkpt lat="59.9148748" lon="17.719519">
        <ele>58.7777</ele>
        <time>2014-06-04T14:41:53Z</time>
      </trkpt>
      <trkpt lat="59.9148789" lon="17.7195639">
        <ele>58.7777</ele>
        <time>2014-06-04T14:41:54Z</time>
      </trkpt>
      <trkpt lat="59.9148727" lon="17.7196026">
        <ele>57.3358</ele>
        <time>2014-06-04T14:41:55Z</time>
      </trkpt>
      <trkpt lat="59.9148713" lon="17.7196456">
        <ele>56.3745</ele>
        <time>2014-06-04T14:41:56Z</time>
      </trkpt>
      <trkpt lat="59.9148738" lon="17.7196915">
        <ele>56.3745</ele>
        <time>2014-06-04T14:41:57Z</time>
      </trkpt>
      <trkpt lat="59.9148712" lon="17.7197363">
        <ele>55.8938</ele>
        <time>2014-06-04T14:41:58Z</time>
      </trkpt>
      <trkpt lat="59.9148656" lon="17.7197739">
        <ele>55.4131</ele>
        <time>2014-06-04T14:41:59Z</time>
      </trkpt>
      <trkpt lat="59.9148659" lon="17.7198176">
        <ele>55.8938</ele>
        <time>2014-06-04T14:42:00Z</time>
      </trkpt>
      <trkpt lat="59.914867" lon="17.719864">
        <ele>55.8938</ele>
        <time>2014-06-04T14:42:01Z</time>
      </trkpt>
      <trkpt lat="59.9148671" lon="17.7199134">
        <ele>56.3745</ele>
        <time>2014-06-04T14:42:02Z</time>
      </trkpt>
      <trkpt lat="59.9148691" lon="17.7199622">
        <ele>56.8551</ele>
        <time>2014-06-04T14:42:03Z</time>
      </trkpt>
      <trkpt lat="59.9148692" lon="17.7200104">
        <ele>57.3358</ele>
        <time>2014-06-04T14:42:04Z</time>
      </trkpt>
      <trkpt lat="59.9148715" lon="17.7200564">
        <ele>57.3358</ele>
        <time>2014-06-04T14:42:05Z</time>
      </trkpt>
      <trkpt lat="59.9148748" lon="17.7201012">
        <ele>57.3358</ele>
        <time>2014-06-04T14:42:06Z</time>
      </trkpt>
      <trkpt lat="59.91488" lon="17.7201407">
        <ele>56.8551</ele>
        <time>2014-06-04T14:42:07Z</time>
      </trkpt>
      <trkpt lat="59.9148881" lon="17.720188">
        <ele>57.8165</ele>
        <time>2014-06-04T14:42:08Z</time>
      </trkpt>
      <trkpt lat="59.9148993" lon="17.7202298">
        <ele>57.8165</ele>
        <time>2014-06-04T14:42:09Z</time>
      </trkpt>
      <trkpt lat="59.914908" lon="17.7202698">
        <ele>57.3358</ele>
        <time>2014-06-04T14:42:10Z</time>
      </trkpt>
      <trkpt lat="59.9149186" lon="17.7203144">
        <ele>57.8165</ele>
        <time>2014-06-04T14:42:11Z</time>
      </trkpt>
      <trkpt lat="59.9149345" lon="17.7203568">
        <ele>58.7777</ele>
        <time>2014-06-04T14:42:12Z</time>
      </trkpt>
      <trkpt lat="59.9149544" lon="17.7203951">
        <ele>60.2197</ele>
        <time>2014-06-04T14:42:13Z</time>
      </trkpt>
      <trkpt lat="59.9149747" lon="17.7204266">
        <ele>61.181</ele>
        <time>2014-06-04T14:42:14Z</time>
      </trkpt>
      <trkpt lat="59.9150017" lon="17.7204521">
        <ele>62.6229</ele>
        <time>2014-06-04T14:42:15Z</time>
      </trkpt>
      <trkpt lat="59.9150235" lon="17.7204773">
        <ele>62.6229</ele>
        <time>2014-06-04T14:42:16Z</time>
      </trkpt>
      <trkpt lat="59.9150447" lon="17.7205017">
        <ele>63.5844</ele>
        <time>2014-06-04T14:42:17Z</time>
      </trkpt>
      <trkpt lat="59.9150576" lon="17.7205261">
        <ele>62.6229</ele>
        <time>2014-06-04T14:42:18Z</time>
      </trkpt>
      <trkpt lat="59.9150747" lon="17.7205536">
        <ele>63.1036</ele>
        <time>2014-06-04T14:42:19Z</time>
      </trkpt>
      <trkpt lat="59.9150919" lon="17.7205716">
        <ele>63.1036</ele>
        <time>2014-06-04T14:42:20Z</time>
      </trkpt>
      <trkpt lat="59.9151117" lon="17.7205792">
        <ele>64.5457</ele>
        <time>2014-06-04T14:42:21Z</time>
      </trkpt>
      <trkpt lat="59.9151346" lon="17.7205786">
        <ele>64.5457</ele>
        <time>2014-06-04T14:42:22Z</time>
      </trkpt>
      <trkpt lat="59.9151602" lon="17.7205816">
        <ele>65.9877</ele>
        <time>2014-06-04T14:42:23Z</time>
      </trkpt>
      <trkpt lat="59.9151878" lon="17.7205869">
        <ele>68.8716</ele>
        <time>2014-06-04T14:42:24Z</time>
      </trkpt>
      <trkpt lat="59.9152173" lon="17.7205823">
        <ele>71.7555</ele>
        <time>2014-06-04T14:42:25Z</time>
      </trkpt>
      <trkpt lat="59.9152455" lon="17.7205754">
        <ele>74.1588</ele>
        <time>2014-06-04T14:42:26Z</time>
      </trkpt>
      <trkpt lat="59.9152793" lon="17.7205773">
        <ele>77.0428</ele>
        <time>2014-06-04T14:42:27Z</time>
      </trkpt>
      <trkpt lat="59.9153176" lon="17.7205816">
        <ele>79.446</ele>
        <time>2014-06-04T14:42:28Z</time>
      </trkpt>
      <trkpt lat="59.9153446" lon="17.7205992">
        <ele>80.4075</ele>
        <time>2014-06-04T14:42:29Z</time>
      </trkpt>
      <trkpt lat="59.9153649" lon="17.7206195">
        <ele>80.8882</ele>
        <time>2014-06-04T14:42:30Z</time>
      </trkpt>
      <trkpt lat="59.9153809" lon="17.7206358">
        <ele>79.9266</ele>
        <time>2014-06-04T14:42:31Z</time>
      </trkpt>
      <trkpt lat="59.9153954" lon="17.7206548">
        <ele>78.4847</ele>
        <time>2014-06-04T14:42:32Z</time>
      </trkpt>
      <trkpt lat="59.9154134" lon="17.7206612">
        <ele>77.0428</ele>
        <time>2014-06-04T14:42:33Z</time>
      </trkpt>
      <trkpt lat="59.9154358" lon="17.7206682">
        <ele>76.5621</ele>
        <time>2014-06-04T14:42:34Z</time>
      </trkpt>
      <trkpt lat="59.915456" lon="17.7206826">
        <ele>75.1202</ele>
        <time>2014-06-04T14:42:35Z</time>
      </trkpt>
      <trkpt lat="59.9154747" lon="17.7206933">
        <ele>72.7169</ele>
        <time>2014-06-04T14:42:36Z</time>
      </trkpt>
      <trkpt lat="59.9155006" lon="17.720709">
        <ele>73.6782</ele>
        <time>2014-06-04T14:42:37Z</time>
      </trkpt>
      <trkpt lat="59.9155166" lon="17.7207338">
        <ele>72.7169</ele>
        <time>2014-06-04T14:42:38Z</time>
      </trkpt>
      <trkpt lat="59.9155337" lon="17.7207624">
        <ele>72.7169</ele>
        <time>2014-06-04T14:42:39Z</time>
      </trkpt>
      <trkpt lat="59.9155539" lon="17.7207742">
        <ele>72.2362</ele>
        <time>2014-06-04T14:42:40Z</time>
      </trkpt>
      <trkpt lat="59.915585" lon="17.7207884">
        <ele>72.2362</ele>
        <time>2014-06-04T14:42:41Z</time>
      </trkpt>
      <trkpt lat="59.9156182" lon="17.7208022">
        <ele>73.1976</ele>
        <time>2014-06-04T14:42:42Z</time>
      </trkpt>
      <trkpt lat="59.9156497" lon="17.720807">
        <ele>73.6782</ele>
        <time>2014-06-04T14:42:43Z</time>
      </trkpt>
      <trkpt lat="59.9156832" lon="17.7208176">
        <ele>74.6395</ele>
        <time>2014-06-04T14:42:44Z</time>
      </trkpt>
      <trkpt lat="59.9157202" lon="17.7208404">
        <ele>76.0814</ele>
        <time>2014-06-04T14:42:45Z</time>
      </trkpt>
      <trkpt lat="59.915753" lon="17.7208702">
        <ele>78.4847</ele>
        <time>2014-06-04T14:42:46Z</time>
      </trkpt>
      <trkpt lat="59.9157724" lon="17.7209022">
        <ele>79.446</ele>
        <time>2014-06-04T14:42:47Z</time>
      </trkpt>
      <trkpt lat="59.9157896" lon="17.7209229">
        <ele>78.9655</ele>
        <time>2014-06-04T14:42:48Z</time>
      </trkpt>
      <trkpt lat="59.9158098" lon="17.7209407">
        <ele>78.4847</ele>
        <time>2014-06-04T14:42:49Z</time>
      </trkpt>
      <trkpt lat="59.9158264" lon="17.7209593">
        <ele>77.0428</ele>
        <time>2014-06-04T14:42:50Z</time>
      </trkpt>
      <trkpt lat="59.9158493" lon="17.7209789">
        <ele>78.004</ele>
        <time>2014-06-04T14:42:51Z</time>
      </trkpt>
      <trkpt lat="59.9158653" lon="17.721005">
        <ele>76.0814</ele>
        <time>2014-06-04T14:42:52Z</time>
      </trkpt>
      <trkpt lat="59.9158886" lon="17.7210272">
        <ele>75.6008</ele>
        <time>2014-06-04T14:42:53Z</time>
      </trkpt>
      <trkpt lat="59.9159057" lon="17.7210494">
        <ele>75.6008</ele>
        <time>2014-06-04T14:42:54Z</time>
      </trkpt>
      <trkpt lat="59.9159233" lon="17.7210544">
        <ele>73.6782</ele>
        <time>2014-06-04T14:42:55Z</time>
      </trkpt>
      <trkpt lat="59.9159377" lon="17.7210663">
        <ele>72.2362</ele>
        <time>2014-06-04T14:42:56Z</time>
      </trkpt>
      <trkpt lat="59.9159531" lon="17.7210768">
        <ele>71.2749</ele>
        <time>2014-06-04T14:42:57Z</time>
      </trkpt>
      <trkpt lat="59.9159673" lon="17.7210816">
        <ele>70.3135</ele>
        <time>2014-06-04T14:42:58Z</time>
      </trkpt>
      <trkpt lat="59.9159923" lon="17.7210825">
        <ele>69.3523</ele>
        <time>2014-06-04T14:42:59Z</time>
      </trkpt>
      <trkpt lat="59.916014" lon="17.7210837">
        <ele>68.3909</ele>
        <time>2014-06-04T14:43:00Z</time>
      </trkpt>
      <trkpt lat="59.9160316" lon="17.721086">
        <ele>66.949</ele>
        <time>2014-06-04T14:43:01Z</time>
      </trkpt>
      <trkpt lat="59.9160503" lon="17.7210899">
        <ele>66.4683</ele>
        <time>2014-06-04T14:43:02Z</time>
      </trkpt>
      <trkpt lat="59.9160704" lon="17.7210963">
        <ele>66.4683</ele>
        <time>2014-06-04T14:43:03Z</time>
      </trkpt>
      <trkpt lat="59.9160978" lon="17.7211029">
        <ele>66.4683</ele>
        <time>2014-06-04T14:43:04Z</time>
      </trkpt>
      <trkpt lat="59.9161173" lon="17.7211119">
        <ele>65.0264</ele>
        <time>2014-06-04T14:43:05Z</time>
      </trkpt>
      <trkpt lat="59.9161367" lon="17.7211223">
        <ele>64.0651</ele>
        <time>2014-06-04T14:43:06Z</time>
      </trkpt>
      <trkpt lat="59.9161548" lon="17.7211219">
        <ele>63.1036</ele>
        <time>2014-06-04T14:43:07Z</time>
      </trkpt>
      <trkpt lat="59.9161714" lon="17.7211217">
        <ele>61.6617</ele>
        <time>2014-06-04T14:43:08Z</time>
      </trkpt>
      <trkpt lat="59.9161906" lon="17.7211287">
        <ele>60.2197</ele>
        <time>2014-06-04T14:43:09Z</time>
      </trkpt>
      <trkpt lat="59.9162074" lon="17.7211276">
        <ele>59.2584</ele>
        <time>2014-06-04T14:43:10Z</time>
      </trkpt>
      <trkpt lat="59.9162276" lon="17.721126">
        <ele>58.7777</ele>
        <time>2014-06-04T14:43:11Z</time>
      </trkpt>
      <trkpt lat="59.9162511" lon="17.721138">
        <ele>57.8165</ele>
        <time>2014-06-04T14:43:12Z</time>
      </trkpt>
      <trkpt lat="59.9162714" lon="17.7211461">
        <ele>57.3358</ele>
        <time>2014-06-04T14:43:13Z</time>
      </trkpt>
      <trkpt lat="59.9162916" lon="17.7211458">
        <ele>56.8551</ele>
        <time>2014-06-04T14:43:14Z</time>
      </trkpt>
      <trkpt lat="59.9163118" lon="17.7211547">
        <ele>56.3745</ele>
        <time>2014-06-04T14:43:15Z</time>
      </trkpt>
      <trkpt lat="59.9163339" lon="17.7211653">
        <ele>55.4131</ele>
        <time>2014-06-04T14:43:16Z</time>
      </trkpt>
      <trkpt lat="59.9163588" lon="17.72117">
        <ele>55.4131</ele>
        <time>2014-06-04T14:43:17Z</time>
      </trkpt>
      <trkpt lat="59.9163831" lon="17.7211764">
        <ele>54.9324</ele>
        <time>2014-06-04T14:43:18Z</time>
      </trkpt>
      <trkpt lat="59.9164009" lon="17.7211824">
        <ele>54.4518</ele>
        <time>2014-06-04T14:43:19Z</time>
      </trkpt>
      <trkpt lat="59.9164205" lon="17.721183">
        <ele>54.9324</ele>
        <time>2014-06-04T14:43:20Z</time>
      </trkpt>
      <trkpt lat="59.9164459" lon="17.721181">
        <ele>55.4131</ele>
        <time>2014-06-04T14:43:21Z</time>
      </trkpt>
      <trkpt lat="59.9164765" lon="17.7211789">
        <ele>57.3358</ele>
        <time>2014-06-04T14:43:22Z</time>
      </trkpt>
      <trkpt lat="59.9165045" lon="17.7211824">
        <ele>58.2971</ele>
        <time>2014-06-04T14:43:23Z</time>
      </trkpt>
      <trkpt lat="59.9165349" lon="17.72118">
        <ele>60.2197</ele>
        <time>2014-06-04T14:43:24Z</time>
      </trkpt>
      <trkpt lat="59.9165636" lon="17.7211716">
        <ele>62.1423</ele>
        <time>2014-06-04T14:43:25Z</time>
      </trkpt>
      <trkpt lat="59.9165965" lon="17.7211737">
        <ele>64.5457</ele>
        <time>2014-06-04T14:43:26Z</time>
      </trkpt>
      <trkpt lat="59.9166341" lon="17.7211828">
        <ele>67.9103</ele>
        <time>2014-06-04T14:43:27Z</time>
      </trkpt>
      <trkpt lat="59.9166634" lon="17.7211826">
        <ele>68.8716</ele>
        <time>2014-06-04T14:43:28Z</time>
      </trkpt>
      <trkpt lat="59.916689" lon="17.7211745">
        <ele>69.8329</ele>
        <time>2014-06-04T14:43:29Z</time>
      </trkpt>
      <trkpt lat="59.9167174" lon="17.7211673">
        <ele>71.2749</ele>
        <time>2014-06-04T14:43:30Z</time>
      </trkpt>
      <trkpt lat="59.9167459" lon="17.7211697">
        <ele>73.1976</ele>
        <time>2014-06-04T14:43:31Z</time>
      </trkpt>
      <trkpt lat="59.9167677" lon="17.7211715">
        <ele>73.6782</ele>
        <time>2014-06-04T14:43:32Z</time>
      </trkpt>
      <trkpt lat="59.9167795" lon="17.7211709">
        <ele>71.2749</ele>
        <time>2014-06-04T14:43:33Z</time>
      </trkpt>
      <trkpt lat="59.9167973" lon="17.7211722">
        <ele>70.7942</ele>
        <time>2014-06-04T14:43:34Z</time>
      </trkpt>
      <trkpt lat="59.9168246" lon="17.7211792">
        <ele>71.7555</ele>
        <time>2014-06-04T14:43:35Z</time>
      </trkpt>
      <trkpt lat="59.9168504" lon="17.7211929">
        <ele>72.2362</ele>
        <time>2014-06-04T14:43:36Z</time>
      </trkpt>
      <trkpt lat="59.9168687" lon="17.7212052">
        <ele>72.2362</ele>
        <time>2014-06-04T14:43:37Z</time>
      </trkpt>
      <trkpt lat="59.9168741" lon="17.7212146">
        <ele>71.2749</ele>
        <time>2014-06-04T14:43:38Z</time>
      </trkpt>
      <trkpt lat="59.9168857" lon="17.7212218">
        <ele>69.8329</ele>
        <time>2014-06-04T14:43:39Z</time>
      </trkpt>
      <trkpt lat="59.916905" lon="17.721235">
        <ele>69.8329</ele>
        <time>2014-06-04T14:43:40Z</time>
      </trkpt>
      <trkpt lat="59.9169329" lon="17.7212436">
        <ele>70.3135</ele>
        <time>2014-06-04T14:43:41Z</time>
      </trkpt>
      <trkpt lat="59.9169618" lon="17.7212555">
        <ele>72.2362</ele>
        <time>2014-06-04T14:43:42Z</time>
      </trkpt>
      <trkpt lat="59.9169858" lon="17.7212721">
        <ele>73.6782</ele>
        <time>2014-06-04T14:43:43Z</time>
      </trkpt>
      <trkpt lat="59.9170089" lon="17.7212772">
        <ele>74.1588</ele>
        <time>2014-06-04T14:43:44Z</time>
      </trkpt>
      <trkpt lat="59.9170406" lon="17.7212836">
        <ele>76.0814</ele>
        <time>2014-06-04T14:43:45Z</time>
      </trkpt>
      <trkpt lat="59.9170711" lon="17.7212975">
        <ele>78.004</ele>
        <time>2014-06-04T14:43:46Z</time>
      </trkpt>
      <trkpt lat="59.9171091" lon="17.7213084">
        <ele>80.8882</ele>
        <time>2014-06-04T14:43:47Z</time>
      </trkpt>
      <trkpt lat="59.9171466" lon="17.7213176">
        <ele>83.2914</ele>
        <time>2014-06-04T14:43:48Z</time>
      </trkpt>
      <trkpt lat="59.917186" lon="17.7213235">
        <ele>85.214</ele>
        <time>2014-06-04T14:43:49Z</time>
      </trkpt>
      <trkpt lat="59.9171925" lon="17.7213037">
        <ele>82.8108</ele>
        <time>2014-06-04T14:43:50Z</time>
      </trkpt>
      <trkpt lat="59.9171976" lon="17.7212774">
        <ele>80.4075</ele>
        <time>2014-06-04T14:43:51Z</time>
      </trkpt>
      <trkpt lat="59.9172043" lon="17.7212385">
        <ele>78.9655</ele>
        <time>2014-06-04T14:43:52Z</time>
      </trkpt>
      <trkpt lat="59.9172078" lon="17.721197">
        <ele>76.5621</ele>
        <time>2014-06-04T14:43:53Z</time>
      </trkpt>
      <trkpt lat="59.9172188" lon="17.7211748">
        <ele>76.0814</ele>
        <time>2014-06-04T14:43:54Z</time>
      </trkpt>
      <trkpt lat="59.9172348" lon="17.7211597">
        <ele>76.5621</ele>
        <time>2014-06-04T14:43:55Z</time>
      </trkpt>
      <trkpt lat="59.9172354" lon="17.7211345">
        <ele>73.1976</ele>
        <time>2014-06-04T14:43:56Z</time>
      </trkpt>
      <trkpt lat="59.9172456" lon="17.7211178">
        <ele>71.7555</ele>
        <time>2014-06-04T14:43:57Z</time>
      </trkpt>
      <trkpt lat="59.9172673" lon="17.7211091">
        <ele>71.2749</ele>
        <time>2014-06-04T14:43:58Z</time>
      </trkpt>
      <trkpt lat="59.9172933" lon="17.7210977">
        <ele>70.7942</ele>
        <time>2014-06-04T14:43:59Z</time>
      </trkpt>
      <trkpt lat="59.9173105" lon="17.7210867">
        <ele>69.3523</ele>
        <time>2014-06-04T14:44:00Z</time>
      </trkpt>
      <trkpt lat="59.9173208" lon="17.7210794">
        <ele>67.9103</ele>
        <time>2014-06-04T14:44:01Z</time>
      </trkpt>
      <trkpt lat="59.9173264" lon="17.7210665">
        <ele>65.9877</ele>
        <time>2014-06-04T14:44:02Z</time>
      </trkpt>
      <trkpt lat="59.9173398" lon="17.7210602">
        <ele>65.9877</ele>
        <time>2014-06-04T14:44:03Z</time>
      </trkpt>
      <trkpt lat="59.9173554" lon="17.7210524">
        <ele>65.5071</ele>
        <time>2014-06-04T14:44:04Z</time>
      </trkpt>
      <trkpt lat="59.9173726" lon="17.721036">
        <ele>65.0264</ele>
        <time>2014-06-04T14:44:05Z</time>
      </trkpt>
      <trkpt lat="59.9173935" lon="17.7210186">
        <ele>64.5457</ele>
        <time>2014-06-04T14:44:06Z</time>
      </trkpt>
      <trkpt lat="59.9174064" lon="17.7209954">
        <ele>63.1036</ele>
        <time>2014-06-04T14:44:07Z</time>
      </trkpt>
      <trkpt lat="59.9174176" lon="17.7209746">
        <ele>61.181</ele>
        <time>2014-06-04T14:44:08Z</time>
      </trkpt>
      <trkpt lat="59.9174311" lon="17.7209567">
        <ele>60.2197</ele>
        <time>2014-06-04T14:44:09Z</time>
      </trkpt>
      <trkpt lat="59.9174441" lon="17.7209414">
        <ele>58.7777</ele>
        <time>2014-06-04T14:44:10Z</time>
      </trkpt>
      <trkpt lat="59.917456" lon="17.7209247">
        <ele>56.3745</ele>
        <time>2014-06-04T14:44:11Z</time>
      </trkpt>
      <trkpt lat="59.9174716" lon="17.7209106">
        <ele>54.9324</ele>
        <time>2014-06-04T14:44:12Z</time>
      </trkpt>
      <trkpt lat="59.9174913" lon="17.7208996">
        <ele>53.9712</ele>
        <time>2014-06-04T14:44:13Z</time>
      </trkpt>
      <trkpt lat="59.917511" lon="17.7208881">
        <ele>53.9712</ele>
        <time>2014-06-04T14:44:14Z</time>
      </trkpt>
      <trkpt lat="59.9175311" lon="17.7208741">
        <ele>53.0098</ele>
        <time>2014-06-04T14:44:15Z</time>
      </trkpt>
      <trkpt lat="59.9175523" lon="17.7208607">
        <ele>52.5292</ele>
        <time>2014-06-04T14:44:16Z</time>
      </trkpt>
      <trkpt lat="59.9175693" lon="17.7208489">
        <ele>52.5292</ele>
        <time>2014-06-04T14:44:17Z</time>
      </trkpt>
      <trkpt lat="59.9175888" lon="17.7208292">
        <ele>51.5679</ele>
        <time>2014-06-04T14:44:18Z</time>
      </trkpt>
      <trkpt lat="59.9176146" lon="17.7208132">
        <ele>52.5292</ele>
        <time>2014-06-04T14:44:19Z</time>
      </trkpt>
      <trkpt lat="59.9176336" lon="17.7207955">
        <ele>51.5679</ele>
        <time>2014-06-04T14:44:20Z</time>
      </trkpt>
      <trkpt lat="59.9176519" lon="17.7207696">
        <ele>50.6066</ele>
        <time>2014-06-04T14:44:21Z</time>
      </trkpt>
      <trkpt lat="59.9176747" lon="17.7207428">
        <ele>50.6066</ele>
        <time>2014-06-04T14:44:22Z</time>
      </trkpt>
      <trkpt lat="59.9176954" lon="17.7207211">
        <ele>51.5679</ele>
        <time>2014-06-04T14:44:23Z</time>
      </trkpt>
      <trkpt lat="59.9177128" lon="17.720703">
        <ele>52.0486</ele>
        <time>2014-06-04T14:44:24Z</time>
      </trkpt>
      <trkpt lat="59.9177274" lon="17.7206828">
        <ele>53.4905</ele>
        <time>2014-06-04T14:44:25Z</time>
      </trkpt>
      <trkpt lat="59.9177503" lon="17.7206572">
        <ele>54.4518</ele>
        <time>2014-06-04T14:44:26Z</time>
      </trkpt>
      <trkpt lat="59.9177789" lon="17.7206317">
        <ele>56.3745</ele>
        <time>2014-06-04T14:44:27Z</time>
      </trkpt>
      <trkpt lat="59.9178172" lon="17.7206152">
        <ele>60.2197</ele>
        <time>2014-06-04T14:44:28Z</time>
      </trkpt>
      <trkpt lat="59.9178466" lon="17.7205879">
        <ele>62.1423</ele>
        <time>2014-06-04T14:44:29Z</time>
      </trkpt>
      <trkpt lat="59.9178653" lon="17.7205561">
        <ele>61.181</ele>
        <time>2014-06-04T14:44:30Z</time>
      </trkpt>
      <trkpt lat="59.9178884" lon="17.7205231">
        <ele>59.7391</ele>
        <time>2014-06-04T14:44:31Z</time>
      </trkpt>
      <trkpt lat="59.9179211" lon="17.7204978">
        <ele>60.2197</ele>
        <time>2014-06-04T14:44:32Z</time>
      </trkpt>
      <trkpt lat="59.9179419" lon="17.7204784">
        <ele>58.7777</ele>
        <time>2014-06-04T14:44:33Z</time>
      </trkpt>
      <trkpt lat="59.9179513" lon="17.7204474">
        <ele>57.3358</ele>
        <time>2014-06-04T14:44:34Z</time>
      </trkpt>
      <trkpt lat="59.9179649" lon="17.7204226">
        <ele>55.8938</ele>
        <time>2014-06-04T14:44:35Z</time>
      </trkpt>
      <trkpt lat="59.9179853" lon="17.720392">
        <ele>54.9324</ele>
        <time>2014-06-04T14:44:36Z</time>
      </trkpt>
      <trkpt lat="59.918001" lon="17.7203665">
        <ele>53.4905</ele>
        <time>2014-06-04T14:44:37Z</time>
      </trkpt>
      <trkpt lat="59.9180144" lon="17.7203407">
        <ele>52.5292</ele>
        <time>2014-06-04T14:44:38Z</time>
      </trkpt>
      <trkpt lat="59.9180205" lon="17.7203126">
        <ele>49.6453</ele>
        <time>2014-06-04T14:44:39Z</time>
      </trkpt>
      <trkpt lat="59.9180434" lon="17.7202849">
        <ele>50.126</ele>
        <time>2014-06-04T14:44:40Z</time>
      </trkpt>
      <trkpt lat="59.91806" lon="17.7202486">
        <ele>49.6453</ele>
        <time>2014-06-04T14:44:41Z</time>
      </trkpt>
      <trkpt lat="59.9180839" lon="17.7202245">
        <ele>50.6066</ele>
        <time>2014-06-04T14:44:42Z</time>
      </trkpt>
      <trkpt lat="59.9181082" lon="17.7201962">
        <ele>50.6066</ele>
        <time>2014-06-04T14:44:43Z</time>
      </trkpt>
      <trkpt lat="59.9181361" lon="17.720175">
        <ele>52.0486</ele>
        <time>2014-06-04T14:44:44Z</time>
      </trkpt>
      <trkpt lat="59.9181522" lon="17.7201504">
        <ele>52.5292</ele>
        <time>2014-06-04T14:44:45Z</time>
      </trkpt>
      <trkpt lat="59.918166" lon="17.7201249">
        <ele>51.5679</ele>
        <time>2014-06-04T14:44:46Z</time>
      </trkpt>
      <trkpt lat="59.91819" lon="17.7201018">
        <ele>53.4905</ele>
        <time>2014-06-04T14:44:47Z</time>
      </trkpt>
      <trkpt lat="59.9182072" lon="17.7200802">
        <ele>53.4905</ele>
        <time>2014-06-04T14:44:48Z</time>
      </trkpt>
      <trkpt lat="59.9182314" lon="17.7200448">
        <ele>54.4518</ele>
        <time>2014-06-04T14:44:49Z</time>
      </trkpt>
      <trkpt lat="59.9182529" lon="17.7200066">
        <ele>55.4131</ele>
        <time>2014-06-04T14:44:50Z</time>
      </trkpt>
      <trkpt lat="59.9182806" lon="17.7199891">
        <ele>56.3745</ele>
        <time>2014-06-04T14:44:51Z</time>
      </trkpt>
      <trkpt lat="59.9183002" lon="17.7199647">
        <ele>56.8551</ele>
        <time>2014-06-04T14:44:52Z</time>
      </trkpt>
      <trkpt lat="59.9183277" lon="17.7199249">
        <ele>59.7391</ele>
        <time>2014-06-04T14:44:53Z</time>
      </trkpt>
      <trkpt lat="59.918359" lon="17.7198878">
        <ele>61.181</ele>
        <time>2014-06-04T14:44:54Z</time>
      </trkpt>
      <trkpt lat="59.9183749" lon="17.7198309">
        <ele>61.6617</ele>
        <time>2014-06-04T14:44:55Z</time>
      </trkpt>
      <trkpt lat="59.9183957" lon="17.7197847">
        <ele>63.5844</ele>
        <time>2014-06-04T14:44:56Z</time>
      </trkpt>
      <trkpt lat="59.918432" lon="17.7197554">
        <ele>66.949</ele>
        <time>2014-06-04T14:44:57Z</time>
      </trkpt>
      <trkpt lat="59.9184593" lon="17.7197248">
        <ele>68.8716</ele>
        <time>2014-06-04T14:44:58Z</time>
      </trkpt>
      <trkpt lat="59.9184865" lon="17.7196972">
        <ele>71.2749</ele>
        <time>2014-06-04T14:44:59Z</time>
      </trkpt>
      <trkpt lat="59.9185149" lon="17.7196602">
        <ele>74.1588</ele>
        <time>2014-06-04T14:45:00Z</time>
      </trkpt>
      <trkpt lat="59.918552" lon="17.7196212">
        <ele>78.4847</ele>
        <time>2014-06-04T14:45:01Z</time>
      </trkpt>
      <trkpt lat="59.9185827" lon="17.7195824">
        <ele>80.4075</ele>
        <time>2014-06-04T14:45:02Z</time>
      </trkpt>
      <trkpt lat="59.918608" lon="17.7195452">
        <ele>82.3301</ele>
        <time>2014-06-04T14:45:03Z</time>
      </trkpt>
      <trkpt lat="59.9186247" lon="17.7195112">
        <ele>81.3688</ele>
        <time>2014-06-04T14:45:04Z</time>
      </trkpt>
      <trkpt lat="59.9186412" lon="17.7194736">
        <ele>80.4075</ele>
        <time>2014-06-04T14:45:05Z</time>
      </trkpt>
      <trkpt lat="59.9186505" lon="17.7194379">
        <ele>79.9266</ele>
        <time>2014-06-04T14:45:06Z</time>
      </trkpt>
      <trkpt lat="59.9186594" lon="17.7194">
        <ele>78.9655</ele>
        <time>2014-06-04T14:45:07Z</time>
      </trkpt>
      <trkpt lat="59.9186739" lon="17.7193621">
        <ele>78.004</ele>
        <time>2014-06-04T14:45:08Z</time>
      </trkpt>
      <trkpt lat="59.9186817" lon="17.71933">
        <ele>75.1202</ele>
        <time>2014-06-04T14:45:09Z</time>
      </trkpt>
      <trkpt lat="59.9186827" lon="17.7192918">
        <ele>71.2749</ele>
        <time>2014-06-04T14:45:10Z</time>
      </trkpt>
      <trkpt lat="59.9186863" lon="17.7192451">
        <ele>68.3909</ele>
        <time>2014-06-04T14:45:11Z</time>
      </trkpt>
      <trkpt lat="59.9186864" lon="17.7192057">
        <ele>65.9877</ele>
        <time>2014-06-04T14:45:12Z</time>
      </trkpt>
      <trkpt lat="59.9186841" lon="17.7191674">
        <ele>63.1036</ele>
        <time>2014-06-04T14:45:13Z</time>
      </trkpt>
      <trkpt lat="59.9186921" lon="17.7191277">
        <ele>62.1423</ele>
        <time>2014-06-04T14:45:14Z</time>
      </trkpt>
      <trkpt lat="59.9186946" lon="17.7190854">
        <ele>60.2197</ele>
        <time>2014-06-04T14:45:15Z</time>
      </trkpt>
      <trkpt lat="59.9186965" lon="17.7190431">
        <ele>57.3358</ele>
        <time>2014-06-04T14:45:16Z</time>
      </trkpt>
      <trkpt lat="59.9187051" lon="17.7190048">
        <ele>56.3745</ele>
        <time>2014-06-04T14:45:17Z</time>
      </trkpt>
      <trkpt lat="59.9187102" lon="17.7189642">
        <ele>54.9324</ele>
        <time>2014-06-04T14:45:18Z</time>
      </trkpt>
      <trkpt lat="59.91872" lon="17.7189241">
        <ele>53.9712</ele>
        <time>2014-06-04T14:45:19Z</time>
      </trkpt>
      <trkpt lat="59.918736" lon="17.7188896">
        <ele>52.5292</ele>
        <time>2014-06-04T14:45:20Z</time>
      </trkpt>
      <trkpt lat="59.9187433" lon="17.7188483">
        <ele>50.6066</ele>
        <time>2014-06-04T14:45:21Z</time>
      </trkpt>
      <trkpt lat="59.9187599" lon="17.7188094">
        <ele>49.6453</ele>
        <time>2014-06-04T14:45:22Z</time>
      </trkpt>
      <trkpt lat="59.9187791" lon="17.7187779">
        <ele>48.2034</ele>
        <time>2014-06-04T14:45:23Z</time>
      </trkpt>
      <trkpt lat="59.9187973" lon="17.718753">
        <ele>48.684</ele>
        <time>2014-06-04T14:45:24Z</time>
      </trkpt>
      <trkpt lat="59.9188061" lon="17.718715">
        <ele>48.2034</ele>
        <time>2014-06-04T14:45:25Z</time>
      </trkpt>
      <trkpt lat="59.9188221" lon="17.7186711">
        <ele>47.7225</ele>
        <time>2014-06-04T14:45:26Z</time>
      </trkpt>
      <trkpt lat="59.9188272" lon="17.7186123">
        <ele>45.3192</ele>
        <time>2014-06-04T14:45:27Z</time>
      </trkpt>
      <trkpt lat="59.9188395" lon="17.7185723">
        <ele>43.8773</ele>
        <time>2014-06-04T14:45:28Z</time>
      </trkpt>
      <trkpt lat="59.918851" lon="17.7185399">
        <ele>41.9547</ele>
        <time>2014-06-04T14:45:29Z</time>
      </trkpt>
      <trkpt lat="59.918875" lon="17.7185183">
        <ele>43.3966</ele>
        <time>2014-06-04T14:45:30Z</time>
      </trkpt>
      <trkpt lat="59.9188938" lon="17.7184949">
        <ele>43.3966</ele>
        <time>2014-06-04T14:45:31Z</time>
      </trkpt>
      <trkpt lat="59.9189154" lon="17.7184801">
        <ele>42.916</ele>
        <time>2014-06-04T14:45:32Z</time>
      </trkpt>
      <trkpt lat="59.9189384" lon="17.7184702">
        <ele>42.916</ele>
        <time>2014-06-04T14:45:33Z</time>
      </trkpt>
      <trkpt lat="59.9189597" lon="17.7184604">
        <ele>42.4354</ele>
        <time>2014-06-04T14:45:34Z</time>
      </trkpt>
      <trkpt lat="59.9189795" lon="17.7184516">
        <ele>41.474</ele>
        <time>2014-06-04T14:45:35Z</time>
      </trkpt>
      <trkpt lat="59.9190058" lon="17.7184465">
        <ele>41.474</ele>
        <time>2014-06-04T14:45:36Z</time>
      </trkpt>
      <trkpt lat="59.9190328" lon="17.7184386">
        <ele>42.4354</ele>
        <time>2014-06-04T14:45:37Z</time>
      </trkpt>
      <trkpt lat="59.919056" lon="17.7184252">
        <ele>42.916</ele>
        <time>2014-06-04T14:45:38Z</time>
      </trkpt>
      <trkpt lat="59.9190721" lon="17.7184077">
        <ele>42.4354</ele>
        <time>2014-06-04T14:45:39Z</time>
      </trkpt>
      <trkpt lat="59.9190955" lon="17.7183939">
        <ele>42.4354</ele>
        <time>2014-06-04T14:45:40Z</time>
      </trkpt>
      <trkpt lat="59.919123" lon="17.7183827">
        <ele>42.916</ele>
        <time>2014-06-04T14:45:41Z</time>
      </trkpt>
      <trkpt lat="59.9191461" lon="17.7183691">
        <ele>43.3966</ele>
        <time>2014-06-04T14:45:42Z</time>
      </trkpt>
      <trkpt lat="59.919164" lon="17.7183506">
        <ele>42.916</ele>
        <time>2014-06-04T14:45:43Z</time>
      </trkpt>
      <trkpt lat="59.9191862" lon="17.7183366">
        <ele>42.4354</ele>
        <time>2014-06-04T14:45:44Z</time>
      </trkpt>
      <trkpt lat="59.9192104" lon="17.7183239">
        <ele>42.4354</ele>
        <time>2014-06-04T14:45:45Z</time>
      </trkpt>
      <trkpt lat="59.9192324" lon="17.7183107">
        <ele>42.916</ele>
        <time>2014-06-04T14:45:46Z</time>
      </trkpt>
      <trkpt lat="59.9192582" lon="17.7182999">
        <ele>43.8773</ele>
        <time>2014-06-04T14:45:47Z</time>
      </trkpt>
      <trkpt lat="59.9192794" lon="17.7182863">
        <ele>43.8773</ele>
        <time>2014-06-04T14:45:48Z</time>
      </trkpt>
      <trkpt lat="59.9193043" lon="17.718277">
        <ele>44.358</ele>
        <time>2014-06-04T14:45:49Z</time>
      </trkpt>
      <trkpt lat="59.9193334" lon="17.7182738">
        <ele>45.3192</ele>
        <time>2014-06-04T14:45:50Z</time>
      </trkpt>
      <trkpt lat="59.9193575" lon="17.7182614">
        <ele>45.3192</ele>
        <time>2014-06-04T14:45:51Z</time>
      </trkpt>
      <trkpt lat="59.9193841" lon="17.7182517">
        <ele>45.7999</ele>
        <time>2014-06-04T14:45:52Z</time>
      </trkpt>
      <trkpt lat="59.9194099" lon="17.7182448">
        <ele>45.7999</ele>
        <time>2014-06-04T14:45:53Z</time>
      </trkpt>
      <trkpt lat="59.9194359" lon="17.7182365">
        <ele>46.2806</ele>
        <time>2014-06-04T14:45:54Z</time>
      </trkpt>
      <trkpt lat="59.9194609" lon="17.7182273">
        <ele>46.2806</ele>
        <time>2014-06-04T14:45:55Z</time>
      </trkpt>
      <trkpt lat="59.9194883" lon="17.7182162">
        <ele>47.2418</ele>
        <time>2014-06-04T14:45:56Z</time>
      </trkpt>
      <trkpt lat="59.9195114" lon="17.7182044">
        <ele>48.2034</ele>
        <time>2014-06-04T14:45:57Z</time>
      </trkpt>
      <trkpt lat="59.9195329" lon="17.7181919">
        <ele>47.7225</ele>
        <time>2014-06-04T14:45:58Z</time>
      </trkpt>
      <trkpt lat="59.9195611" lon="17.7181836">
        <ele>48.2034</ele>
        <time>2014-06-04T14:45:59Z</time>
      </trkpt>
      <trkpt lat="59.9195902" lon="17.7181732">
        <ele>49.1646</ele>
        <time>2014-06-04T14:46:00Z</time>
      </trkpt>
      <trkpt lat="59.919616" lon="17.7181719">
        <ele>49.1646</ele>
        <time>2014-06-04T14:46:01Z</time>
      </trkpt>
      <trkpt lat="59.9196399" lon="17.7181797">
        <ele>48.684</ele>
        <time>2014-06-04T14:46:02Z</time>
      </trkpt>
      <trkpt lat="59.9196672" lon="17.7181873">
        <ele>48.684</ele>
        <time>2014-06-04T14:46:03Z</time>
      </trkpt>
      <trkpt lat="59.9196933" lon="17.7181947">
        <ele>48.2034</ele>
        <time>2014-06-04T14:46:04Z</time>
      </trkpt>
      <trkpt lat="59.9197183" lon="17.7182009">
        <ele>47.7225</ele>
        <time>2014-06-04T14:46:05Z</time>
      </trkpt>
      <trkpt lat="59.9197446" lon="17.7182024">
        <ele>47.7225</ele>
        <time>2014-06-04T14:46:06Z</time>
      </trkpt>
      <trkpt lat="59.9197699" lon="17.7182089">
        <ele>47.7225</ele>
        <time>2014-06-04T14:46:07Z</time>
      </trkpt>
      <trkpt lat="59.919795" lon="17.7182146">
        <ele>47.2418</ele>
        <time>2014-06-04T14:46:08Z</time>
      </trkpt>
      <trkpt lat="59.9198191" lon="17.7182146">
        <ele>46.7612</ele>
        <time>2014-06-04T14:46:09Z</time>
      </trkpt>
      <trkpt lat="59.919841" lon="17.7182169">
        <ele>46.2806</ele>
        <time>2014-06-04T14:46:10Z</time>
      </trkpt>
      <trkpt lat="59.9198653" lon="17.7182226">
        <ele>46.2806</ele>
        <time>2014-06-04T14:46:11Z</time>
      </trkpt>
      <trkpt lat="59.9198903" lon="17.7182272">
        <ele>46.2806</ele>
        <time>2014-06-04T14:46:12Z</time>
      </trkpt>
      <trkpt lat="59.9199115" lon="17.7182351">
        <ele>45.7999</ele>
        <time>2014-06-04T14:46:13Z</time>
      </trkpt>
      <trkpt lat="59.9199322" lon="17.7182409">
        <ele>45.3192</ele>
        <time>2014-06-04T14:46:14Z</time>
      </trkpt>
      <trkpt lat="59.9199565" lon="17.7182433">
        <ele>44.8386</ele>
        <time>2014-06-04T14:46:15Z</time>
      </trkpt>
      <trkpt lat="59.9199839" lon="17.7182471">
        <ele>44.358</ele>
        <time>2014-06-04T14:46:16Z</time>
      </trkpt>
      <trkpt lat="59.9200104" lon="17.7182552">
        <ele>44.358</ele>
        <time>2014-06-04T14:46:17Z</time>
      </trkpt>
      <trkpt lat="59.9200369" lon="17.7182579">
        <ele>44.8386</ele>
        <time>2014-06-04T14:46:18Z</time>
      </trkpt>
      <trkpt lat="59.9200637" lon="17.7182625">
        <ele>45.3192</ele>
        <time>2014-06-04T14:46:19Z</time>
      </trkpt>
      <trkpt lat="59.9200891" lon="17.718269">
        <ele>46.2806</ele>
        <time>2014-06-04T14:46:20Z</time>
      </trkpt>
      <trkpt lat="59.9201122" lon="17.7182752">
        <ele>46.2806</ele>
        <time>2014-06-04T14:46:21Z</time>
      </trkpt>
      <trkpt lat="59.9201346" lon="17.7182888">
        <ele>45.7999</ele>
        <time>2014-06-04T14:46:22Z</time>
      </trkpt>
      <trkpt lat="59.9201606" lon="17.7183022">
        <ele>45.7999</ele>
        <time>2014-06-04T14:46:23Z</time>
      </trkpt>
      <trkpt lat="59.9201852" lon="17.7183045">
        <ele>44.8386</ele>
        <time>2014-06-04T14:46:24Z</time>
      </trkpt>
      <trkpt lat="59.9202108" lon="17.7183103">
        <ele>44.358</ele>
        <time>2014-06-04T14:46:25Z</time>
      </trkpt>
      <trkpt lat="59.9202336" lon="17.7183137">
        <ele>43.8773</ele>
        <time>2014-06-04T14:46:26Z</time>
      </trkpt>
      <trkpt lat="59.9202552" lon="17.7183154">
        <ele>43.3966</ele>
        <time>2014-06-04T14:46:27Z</time>
      </trkpt>
      <trkpt lat="59.920278" lon="17.7183221">
        <ele>42.916</ele>
        <time>2014-06-04T14:46:28Z</time>
      </trkpt>
      <trkpt lat="59.9202979" lon="17.7183229">
        <ele>40.9934</ele>
        <time>2014-06-04T14:46:29Z</time>
      </trkpt>
      <trkpt lat="59.9203211" lon="17.7183273">
        <ele>40.5128</ele>
        <time>2014-06-04T14:46:30Z</time>
      </trkpt>
      <trkpt lat="59.9203434" lon="17.718337">
        <ele>40.0321</ele>
        <time>2014-06-04T14:46:31Z</time>
      </trkpt>
      <trkpt lat="59.9203636" lon="17.7183468">
        <ele>40.0321</ele>
        <time>2014-06-04T14:46:32Z</time>
      </trkpt>
      <trkpt lat="59.9203823" lon="17.7183514">
        <ele>39.0707</ele>
        <time>2014-06-04T14:46:33Z</time>
      </trkpt>
      <trkpt lat="59.9204056" lon="17.7183587">
        <ele>38.5901</ele>
        <time>2014-06-04T14:46:34Z</time>
      </trkpt>
      <trkpt lat="59.9204314" lon="17.7183635">
        <ele>38.1094</ele>
        <time>2014-06-04T14:46:35Z</time>
      </trkpt>
      <trkpt lat="59.920456" lon="17.7183671">
        <ele>37.6287</ele>
        <time>2014-06-04T14:46:36Z</time>
      </trkpt>
      <trkpt lat="59.9204786" lon="17.7183727">
        <ele>36.6675</ele>
        <time>2014-06-04T14:46:37Z</time>
      </trkpt>
      <trkpt lat="59.9205002" lon="17.718379">
        <ele>36.1868</ele>
        <time>2014-06-04T14:46:38Z</time>
      </trkpt>
      <trkpt lat="59.9205274" lon="17.7183825">
        <ele>36.1868</ele>
        <time>2014-06-04T14:46:39Z</time>
      </trkpt>
      <trkpt lat="59.9205512" lon="17.7183906">
        <ele>36.1868</ele>
        <time>2014-06-04T14:46:40Z</time>
      </trkpt>
      <trkpt lat="59.920574" lon="17.7183982">
        <ele>35.7061</ele>
        <time>2014-06-04T14:46:41Z</time>
      </trkpt>
      <trkpt lat="59.9205963" lon="17.7184029">
        <ele>35.2255</ele>
        <time>2014-06-04T14:46:42Z</time>
      </trkpt>
      <trkpt lat="59.9206245" lon="17.7184121">
        <ele>35.7061</ele>
        <time>2014-06-04T14:46:43Z</time>
      </trkpt>
      <trkpt lat="59.9206506" lon="17.7184192">
        <ele>35.7061</ele>
        <time>2014-06-04T14:46:44Z</time>
      </trkpt>
      <trkpt lat="59.9206739" lon="17.7184216">
        <ele>35.2255</ele>
        <time>2014-06-04T14:46:45Z</time>
      </trkpt>
      <trkpt lat="59.9206967" lon="17.7184304">
        <ele>35.2255</ele>
        <time>2014-06-04T14:46:46Z</time>
      </trkpt>
      <trkpt lat="59.9207221" lon="17.7184371">
        <ele>35.2255</ele>
        <time>2014-06-04T14:46:47Z</time>
      </trkpt>
      <trkpt lat="59.9207501" lon="17.7184448">
        <ele>35.2255</ele>
        <time>2014-06-04T14:46:48Z</time>
      </trkpt>
      <trkpt lat="59.9207794" lon="17.7184489">
        <ele>34.7449</ele>
        <time>2014-06-04T14:46:49Z</time>
      </trkpt>
      <trkpt lat="59.9208067" lon="17.718453">
        <ele>35.2255</ele>
        <time>2014-06-04T14:46:50Z</time>
      </trkpt>
      <trkpt lat="59.9208357" lon="17.7184595">
        <ele>36.1868</ele>
        <time>2014-06-04T14:46:51Z</time>
      </trkpt>
      <trkpt lat="59.9208646" lon="17.718467">
        <ele>36.1868</ele>
        <time>2014-06-04T14:46:52Z</time>
      </trkpt>
      <trkpt lat="59.9208889" lon="17.7184654">
        <ele>36.1868</ele>
        <time>2014-06-04T14:46:53Z</time>
      </trkpt>
      <trkpt lat="59.9209137" lon="17.7184581">
        <ele>36.6675</ele>
        <time>2014-06-04T14:46:54Z</time>
      </trkpt>
      <trkpt lat="59.9209364" lon="17.7184566">
        <ele>36.6675</ele>
        <time>2014-06-04T14:46:55Z</time>
      </trkpt>
      <trkpt lat="59.9209569" lon="17.7184617">
        <ele>36.6675</ele>
        <time>2014-06-04T14:46:56Z</time>
      </trkpt>
      <trkpt lat="59.9209796" lon="17.7184592">
        <ele>37.1481</ele>
        <time>2014-06-04T14:46:57Z</time>
      </trkpt>
      <trkpt lat="59.9210003" lon="17.7184485">
        <ele>36.6675</ele>
        <time>2014-06-04T14:46:58Z</time>
      </trkpt>
      <trkpt lat="59.9210227" lon="17.7184392">
        <ele>36.1868</ele>
        <time>2014-06-04T14:46:59Z</time>
      </trkpt>
      <trkpt lat="59.9210474" lon="17.7184355">
        <ele>37.1481</ele>
        <time>2014-06-04T14:47:00Z</time>
      </trkpt>
      <trkpt lat="59.9210697" lon="17.7184323">
        <ele>36.6675</ele>
        <time>2014-06-04T14:47:01Z</time>
      </trkpt>
      <trkpt lat="59.9210925" lon="17.7184308">
        <ele>37.1481</ele>
        <time>2014-06-04T14:47:02Z</time>
      </trkpt>
      <trkpt lat="59.9211158" lon="17.7184185">
        <ele>36.6675</ele>
        <time>2014-06-04T14:47:03Z</time>
      </trkpt>
      <trkpt lat="59.9211391" lon="17.718407">
        <ele>36.6675</ele>
        <time>2014-06-04T14:47:04Z</time>
      </trkpt>
      <trkpt lat="59.9211613" lon="17.7183955">
        <ele>36.1868</ele>
        <time>2014-06-04T14:47:05Z</time>
      </trkpt>
      <trkpt lat="59.9211847" lon="17.7183893">
        <ele>36.1868</ele>
        <time>2014-06-04T14:47:06Z</time>
      </trkpt>
      <trkpt lat="59.9212073" lon="17.7183858">
        <ele>36.1868</ele>
        <time>2014-06-04T14:47:07Z</time>
      </trkpt>
      <trkpt lat="59.9212309" lon="17.7183765">
        <ele>36.1868</ele>
        <time>2014-06-04T14:47:08Z</time>
      </trkpt>
      <trkpt lat="59.9212529" lon="17.7183666">
        <ele>36.1868</ele>
        <time>2014-06-04T14:47:09Z</time>
      </trkpt>
      <trkpt lat="59.9212779" lon="17.7183516">
        <ele>35.2255</ele>
        <time>2014-06-04T14:47:10Z</time>
      </trkpt>
      <trkpt lat="59.9213041" lon="17.7183338">
        <ele>35.2255</ele>
        <time>2014-06-04T14:47:11Z</time>
      </trkpt>
      <trkpt lat="59.9213282" lon="17.7183224">
        <ele>35.2255</ele>
        <time>2014-06-04T14:47:12Z</time>
      </trkpt>
      <trkpt lat="59.9213508" lon="17.7183133">
        <ele>34.7449</ele>
        <time>2014-06-04T14:47:13Z</time>
      </trkpt>
      <trkpt lat="59.9213732" lon="17.7183023">
        <ele>34.7449</ele>
        <time>2014-06-04T14:47:14Z</time>
      </trkpt>
      <trkpt lat="59.9213974" lon="17.7182888">
        <ele>35.2255</ele>
        <time>2014-06-04T14:47:15Z</time>
      </trkpt>
      <trkpt lat="59.9214225" lon="17.7182749">
        <ele>36.1868</ele>
        <time>2014-06-04T14:47:16Z</time>
      </trkpt>
      <trkpt lat="59.921444" lon="17.7182636">
        <ele>36.1868</ele>
        <time>2014-06-04T14:47:17Z</time>
      </trkpt>
      <trkpt lat="59.9214649" lon="17.7182537">
        <ele>37.1481</ele>
        <time>2014-06-04T14:47:18Z</time>
      </trkpt>
      <trkpt lat="59.9214888" lon="17.7182439">
        <ele>37.6287</ele>
        <time>2014-06-04T14:47:19Z</time>
      </trkpt>
      <trkpt lat="59.9215094" lon="17.718235">
        <ele>38.1094</ele>
        <time>2014-06-04T14:47:20Z</time>
      </trkpt>
      <trkpt lat="59.9215321" lon="17.718222">
        <ele>38.1094</ele>
        <time>2014-06-04T14:47:21Z</time>
      </trkpt>
      <trkpt lat="59.9215566" lon="17.7182093">
        <ele>38.5901</ele>
        <time>2014-06-04T14:47:22Z</time>
      </trkpt>
      <trkpt lat="59.9215821" lon="17.7181952">
        <ele>39.0707</ele>
        <time>2014-06-04T14:47:23Z</time>
      </trkpt>
      <trkpt lat="59.9216057" lon="17.7181818">
        <ele>39.0707</ele>
        <time>2014-06-04T14:47:24Z</time>
      </trkpt>
      <trkpt lat="59.9216271" lon="17.7181672">
        <ele>39.0707</ele>
        <time>2014-06-04T14:47:25Z</time>
      </trkpt>
      <trkpt lat="59.9216462" lon="17.7181532">
        <ele>39.0707</ele>
        <time>2014-06-04T14:47:26Z</time>
      </trkpt>
      <trkpt lat="59.9216693" lon="17.7181426">
        <ele>39.0707</ele>
        <time>2014-06-04T14:47:27Z</time>
      </trkpt>
      <trkpt lat="59.9216899" lon="17.7181273">
        <ele>39.0707</ele>
        <time>2014-06-04T14:47:28Z</time>
      </trkpt>
      <trkpt lat="59.9217074" lon="17.7181106">
        <ele>38.5901</ele>
        <time>2014-06-04T14:47:29Z</time>
      </trkpt>
      <trkpt lat="59.9217329" lon="17.7180955">
        <ele>39.5513</ele>
        <time>2014-06-04T14:47:30Z</time>
      </trkpt>
      <trkpt lat="59.9217612" lon="17.7180828">
        <ele>40.0321</ele>
        <time>2014-06-04T14:47:31Z</time>
      </trkpt>
      <trkpt lat="59.9217917" lon="17.7180755">
        <ele>40.9934</ele>
        <time>2014-06-04T14:47:32Z</time>
      </trkpt>
      <trkpt lat="59.9218187" lon="17.7180585">
        <ele>41.474</ele>
        <time>2014-06-04T14:47:33Z</time>
      </trkpt>
      <trkpt lat="59.9218436" lon="17.7180486">
        <ele>41.9547</ele>
        <time>2014-06-04T14:47:34Z</time>
      </trkpt>
      <trkpt lat="59.9218664" lon="17.7180376">
        <ele>41.9547</ele>
        <time>2014-06-04T14:47:35Z</time>
      </trkpt>
      <trkpt lat="59.9218897" lon="17.7180212">
        <ele>42.4354</ele>
        <time>2014-06-04T14:47:36Z</time>
      </trkpt>
      <trkpt lat="59.9219128" lon="17.7180019">
        <ele>42.4354</ele>
        <time>2014-06-04T14:47:37Z</time>
      </trkpt>
      <trkpt lat="59.9219358" lon="17.7179807">
        <ele>42.4354</ele>
        <time>2014-06-04T14:47:38Z</time>
      </trkpt>
      <trkpt lat="59.9219615" lon="17.7179588">
        <ele>42.916</ele>
        <time>2014-06-04T14:47:39Z</time>
      </trkpt>
      <trkpt lat="59.9219853" lon="17.7179398">
        <ele>42.916</ele>
        <time>2014-06-04T14:47:40Z</time>
      </trkpt>
      <trkpt lat="59.9220105" lon="17.7179186">
        <ele>42.916</ele>
        <time>2014-06-04T14:47:41Z</time>
      </trkpt>
      <trkpt lat="59.9220358" lon="17.7178942">
        <ele>43.3966</ele>
        <time>2014-06-04T14:47:42Z</time>
      </trkpt>
      <trkpt lat="59.9220591" lon="17.7178753">
        <ele>43.3966</ele>
        <time>2014-06-04T14:47:43Z</time>
      </trkpt>
      <trkpt lat="59.9220838" lon="17.717857">
        <ele>43.8773</ele>
        <time>2014-06-04T14:47:44Z</time>
      </trkpt>
      <trkpt lat="59.9221079" lon="17.7178428">
        <ele>43.8773</ele>
        <time>2014-06-04T14:47:45Z</time>
      </trkpt>
      <trkpt lat="59.922133" lon="17.7178294">
        <ele>43.8773</ele>
        <time>2014-06-04T14:47:46Z</time>
      </trkpt>
      <trkpt lat="59.9221566" lon="17.7178052">
        <ele>44.358</ele>
        <time>2014-06-04T14:47:47Z</time>
      </trkpt>
      <trkpt lat="59.9221782" lon="17.7177844">
        <ele>43.8773</ele>
        <time>2014-06-04T14:47:48Z</time>
      </trkpt>
      <trkpt lat="59.9222008" lon="17.7177723">
        <ele>44.8386</ele>
        <time>2014-06-04T14:47:49Z</time>
      </trkpt>
      <trkpt lat="59.9222195" lon="17.717762">
        <ele>45.3192</ele>
        <time>2014-06-04T14:47:50Z</time>
      </trkpt>
      <trkpt lat="59.9222412" lon="17.7177477">
        <ele>46.2806</ele>
        <time>2014-06-04T14:47:51Z</time>
      </trkpt>
      <trkpt lat="59.9222612" lon="17.7177409">
        <ele>46.7612</ele>
        <time>2014-06-04T14:47:52Z</time>
      </trkpt>
      <trkpt lat="59.922279" lon="17.7177363">
        <ele>47.2418</ele>
        <time>2014-06-04T14:47:53Z</time>
      </trkpt>
      <trkpt lat="59.9222922" lon="17.717728">
        <ele>46.7612</ele>
        <time>2014-06-04T14:47:54Z</time>
      </trkpt>
      <trkpt lat="59.9223124" lon="17.7177114">
        <ele>46.7612</ele>
        <time>2014-06-04T14:47:55Z</time>
      </trkpt>
      <trkpt lat="59.9223384" lon="17.7176921">
        <ele>47.2418</ele>
        <time>2014-06-04T14:47:56Z</time>
      </trkpt>
      <trkpt lat="59.9223612" lon="17.717674">
        <ele>47.2418</ele>
        <time>2014-06-04T14:47:57Z</time>
      </trkpt>
      <trkpt lat="59.9223828" lon="17.7176574">
        <ele>47.2418</ele>
        <time>2014-06-04T14:47:58Z</time>
      </trkpt>
      <trkpt lat="59.922402" lon="17.7176357">
        <ele>47.2418</ele>
        <time>2014-06-04T14:47:59Z</time>
      </trkpt>
      <trkpt lat="59.9224222" lon="17.7176072">
        <ele>47.7225</ele>
        <time>2014-06-04T14:48:00Z</time>
      </trkpt>
      <trkpt lat="59.9224484" lon="17.7175737">
        <ele>48.684</ele>
        <time>2014-06-04T14:48:01Z</time>
      </trkpt>
      <trkpt lat="59.9224715" lon="17.7175402">
        <ele>49.6453</ele>
        <time>2014-06-04T14:48:02Z</time>
      </trkpt>
      <trkpt lat="59.9224885" lon="17.7175123">
        <ele>49.6453</ele>
        <time>2014-06-04T14:48:03Z</time>
      </trkpt>
      <trkpt lat="59.922507" lon="17.7174902">
        <ele>49.6453</ele>
        <time>2014-06-04T14:48:04Z</time>
      </trkpt>
      <trkpt lat="59.9225279" lon="17.7174689">
        <ele>50.6066</ele>
        <time>2014-06-04T14:48:05Z</time>
      </trkpt>
      <trkpt lat="59.9225437" lon="17.7174402">
        <ele>50.126</ele>
        <time>2014-06-04T14:48:06Z</time>
      </trkpt>
      <trkpt lat="59.92256" lon="17.7174107">
        <ele>50.6066</ele>
        <time>2014-06-04T14:48:07Z</time>
      </trkpt>
      <trkpt lat="59.9225787" lon="17.7173947">
        <ele>51.0872</ele>
        <time>2014-06-04T14:48:08Z</time>
      </trkpt>
      <trkpt lat="59.9226055" lon="17.7173741">
        <ele>52.0486</ele>
        <time>2014-06-04T14:48:09Z</time>
      </trkpt>
      <trkpt lat="59.9226313" lon="17.7173551">
        <ele>52.0486</ele>
        <time>2014-06-04T14:48:10Z</time>
      </trkpt>
      <trkpt lat="59.9226552" lon="17.7173408">
        <ele>52.0486</ele>
        <time>2014-06-04T14:48:11Z</time>
      </trkpt>
      <trkpt lat="59.9226755" lon="17.7173295">
        <ele>52.0486</ele>
        <time>2014-06-04T14:48:12Z</time>
      </trkpt>
      <trkpt lat="59.9226948" lon="17.717331">
        <ele>51.0872</ele>
        <time>2014-06-04T14:48:13Z</time>
      </trkpt>
      <trkpt lat="59.9227147" lon="17.7173327">
        <ele>50.6066</ele>
        <time>2014-06-04T14:48:14Z</time>
      </trkpt>
      <trkpt lat="59.9227394" lon="17.7173316">
        <ele>51.0872</ele>
        <time>2014-06-04T14:48:15Z</time>
      </trkpt>
      <trkpt lat="59.9227568" lon="17.7173368">
        <ele>51.0872</ele>
        <time>2014-06-04T14:48:16Z</time>
      </trkpt>
      <trkpt lat="59.9227744" lon="17.717339">
        <ele>50.126</ele>
        <time>2014-06-04T14:48:17Z</time>
      </trkpt>
      <trkpt lat="59.9227939" lon="17.7173362">
        <ele>49.6453</ele>
        <time>2014-06-04T14:48:18Z</time>
      </trkpt>
      <trkpt lat="59.922815" lon="17.7173342">
        <ele>48.684</ele>
        <time>2014-06-04T14:48:19Z</time>
      </trkpt>
      <trkpt lat="59.9228397" lon="17.7173363">
        <ele>47.7225</ele>
        <time>2014-06-04T14:48:20Z</time>
      </trkpt>
      <trkpt lat="59.9228615" lon="17.7173346">
        <ele>46.7612</ele>
        <time>2014-06-04T14:48:21Z</time>
      </trkpt>
      <trkpt lat="59.9228831" lon="17.7173332">
        <ele>46.2806</ele>
        <time>2014-06-04T14:48:22Z</time>
      </trkpt>
      <trkpt lat="59.9229043" lon="17.7173327">
        <ele>45.3192</ele>
        <time>2014-06-04T14:48:23Z</time>
      </trkpt>
      <trkpt lat="59.9229277" lon="17.7173306">
        <ele>44.8386</ele>
        <time>2014-06-04T14:48:24Z</time>
      </trkpt>
      <trkpt lat="59.92295" lon="17.7173354">
        <ele>44.8386</ele>
        <time>2014-06-04T14:48:25Z</time>
      </trkpt>
      <trkpt lat="59.9229683" lon="17.7173358">
        <ele>44.8386</ele>
        <time>2014-06-04T14:48:26Z</time>
      </trkpt>
      <trkpt lat="59.9229916" lon="17.717332">
        <ele>43.8773</ele>
        <time>2014-06-04T14:48:27Z</time>
      </trkpt>
      <trkpt lat="59.9230179" lon="17.717329">
        <ele>41.9547</ele>
        <time>2014-06-04T14:48:28Z</time>
      </trkpt>
      <trkpt lat="59.9230444" lon="17.7173347">
        <ele>40.5128</ele>
        <time>2014-06-04T14:48:29Z</time>
      </trkpt>
      <trkpt lat="59.923074" lon="17.7173347">
        <ele>40.0321</ele>
        <time>2014-06-04T14:48:30Z</time>
      </trkpt>
      <trkpt lat="59.9230983" lon="17.7173397">
        <ele>39.0707</ele>
        <time>2014-06-04T14:48:31Z</time>
      </trkpt>
      <trkpt lat="59.9231222" lon="17.7173544">
        <ele>39.5513</ele>
        <time>2014-06-04T14:48:32Z</time>
      </trkpt>
      <trkpt lat="59.9231391" lon="17.7173653">
        <ele>38.1094</ele>
        <time>2014-06-04T14:48:33Z</time>
      </trkpt>
      <trkpt lat="59.9231557" lon="17.7173706">
        <ele>37.1481</ele>
        <time>2014-06-04T14:48:34Z</time>
      </trkpt>
      <trkpt lat="59.9231771" lon="17.7173755">
        <ele>36.6675</ele>
        <time>2014-06-04T14:48:35Z</time>
      </trkpt>
      <trkpt lat="59.9231992" lon="17.7173813">
        <ele>36.6675</ele>
        <time>2014-06-04T14:48:36Z</time>
      </trkpt>
      <trkpt lat="59.9232153" lon="17.7173814">
        <ele>36.1868</ele>
        <time>2014-06-04T14:48:37Z</time>
      </trkpt>
      <trkpt lat="59.9232304" lon="17.7173814">
        <ele>34.7449</ele>
        <time>2014-06-04T14:48:38Z</time>
      </trkpt>
      <trkpt lat="59.9232535" lon="17.7173891">
        <ele>34.2642</ele>
        <time>2014-06-04T14:48:39Z</time>
      </trkpt>
      <trkpt lat="59.92328" lon="17.7173969">
        <ele>33.7834</ele>
        <time>2014-06-04T14:48:40Z</time>
      </trkpt>
      <trkpt lat="59.9233064" lon="17.717405">
        <ele>33.7834</ele>
        <time>2014-06-04T14:48:41Z</time>
      </trkpt>
      <trkpt lat="59.9233287" lon="17.7174">
        <ele>33.7834</ele>
        <time>2014-06-04T14:48:42Z</time>
      </trkpt>
      <trkpt lat="59.9233452" lon="17.7174048">
        <ele>32.8223</ele>
        <time>2014-06-04T14:48:43Z</time>
      </trkpt>
      <trkpt lat="59.923364" lon="17.7174202">
        <ele>32.8223</ele>
        <time>2014-06-04T14:48:44Z</time>
      </trkpt>
      <trkpt lat="59.9233888" lon="17.7174336">
        <ele>33.7834</ele>
        <time>2014-06-04T14:48:45Z</time>
      </trkpt>
      <trkpt lat="59.9234185" lon="17.7174591">
        <ele>36.1868</ele>
        <time>2014-06-04T14:48:46Z</time>
      </trkpt>
      <trkpt lat="59.92345" lon="17.7174694">
        <ele>35.7061</ele>
        <time>2014-06-04T14:48:47Z</time>
      </trkpt>
      <trkpt lat="59.9234831" lon="17.7174844">
        <ele>35.2255</ele>
        <time>2014-06-04T14:48:48Z</time>
      </trkpt>
      <trkpt lat="59.9235204" lon="17.7175056">
        <ele>35.2255</ele>
        <time>2014-06-04T14:48:49Z</time>
      </trkpt>
      <trkpt lat="59.9235518" lon="17.7175388">
        <ele>35.7061</ele>
        <time>2014-06-04T14:48:50Z</time>
      </trkpt>
      <trkpt lat="59.9235788" lon="17.71757">
        <ele>35.2255</ele>
        <time>2014-06-04T14:48:51Z</time>
      </trkpt>
      <trkpt lat="59.9236058" lon="17.7175983">
        <ele>35.7061</ele>
        <time>2014-06-04T14:48:52Z</time>
      </trkpt>
      <trkpt lat="59.923634" lon="17.7176329">
        <ele>36.6675</ele>
        <time>2014-06-04T14:48:53Z</time>
      </trkpt>
      <trkpt lat="59.9236489" lon="17.7176731">
        <ele>36.6675</ele>
        <time>2014-06-04T14:48:54Z</time>
      </trkpt>
      <trkpt lat="59.9236671" lon="17.7177199">
        <ele>37.1481</ele>
        <time>2014-06-04T14:48:55Z</time>
      </trkpt>
      <trkpt lat="59.9236886" lon="17.7177712">
        <ele>38.1094</ele>
        <time>2014-06-04T14:48:56Z</time>
      </trkpt>
      <trkpt lat="59.9237056" lon="17.717813">
        <ele>38.5901</ele>
        <time>2014-06-04T14:48:57Z</time>
      </trkpt>
      <trkpt lat="59.9237204" lon="17.7178534">
        <ele>39.0707</ele>
        <time>2014-06-04T14:48:58Z</time>
      </trkpt>
      <trkpt lat="59.9237395" lon="17.7178873">
        <ele>39.0707</ele>
        <time>2014-06-04T14:48:59Z</time>
      </trkpt>
      <trkpt lat="59.9237565" lon="17.7179226">
        <ele>39.5513</ele>
        <time>2014-06-04T14:49:00Z</time>
      </trkpt>
      <trkpt lat="59.9237721" lon="17.7179619">
        <ele>40.5128</ele>
        <time>2014-06-04T14:49:01Z</time>
      </trkpt>
      <trkpt lat="59.9237896" lon="17.7180071">
        <ele>41.9547</ele>
        <time>2014-06-04T14:49:02Z</time>
      </trkpt>
      <trkpt lat="59.9238058" lon="17.7180399">
        <ele>42.916</ele>
        <time>2014-06-04T14:49:03Z</time>
      </trkpt>
      <trkpt lat="59.9238166" lon="17.718067">
        <ele>43.3966</ele>
        <time>2014-06-04T14:49:04Z</time>
      </trkpt>
      <trkpt lat="59.9238253" lon="17.7180962">
        <ele>43.3966</ele>
        <time>2014-06-04T14:49:05Z</time>
      </trkpt>
      <trkpt lat="59.9238333" lon="17.7181305">
        <ele>44.358</ele>
        <time>2014-06-04T14:49:06Z</time>
      </trkpt>
      <trkpt lat="59.9238488" lon="17.7181685">
        <ele>45.3192</ele>
        <time>2014-06-04T14:49:07Z</time>
      </trkpt>
      <trkpt lat="59.9238694" lon="17.7181931">
        <ele>45.3192</ele>
        <time>2014-06-04T14:49:08Z</time>
      </trkpt>
      <trkpt lat="59.9238904" lon="17.7182309">
        <ele>45.3192</ele>
        <time>2014-06-04T14:49:09Z</time>
      </trkpt>
      <trkpt lat="59.9239079" lon="17.7182594">
        <ele>46.2806</ele>
        <time>2014-06-04T14:49:10Z</time>
      </trkpt>
      <trkpt lat="59.9239207" lon="17.718276">
        <ele>45.7999</ele>
        <time>2014-06-04T14:49:11Z</time>
      </trkpt>
      <trkpt lat="59.9239379" lon="17.7182893">
        <ele>44.358</ele>
        <time>2014-06-04T14:49:12Z</time>
      </trkpt>
      <trkpt lat="59.9239607" lon="17.718297">
        <ele>45.3192</ele>
        <time>2014-06-04T14:49:13Z</time>
      </trkpt>
      <trkpt lat="59.9239883" lon="17.7182893">
        <ele>45.7999</ele>
        <time>2014-06-04T14:49:14Z</time>
      </trkpt>
      <trkpt lat="59.9240019" lon="17.7182771">
        <ele>43.8773</ele>
        <time>2014-06-04T14:49:15Z</time>
      </trkpt>
      <trkpt lat="59.9240188" lon="17.7182576">
        <ele>43.8773</ele>
        <time>2014-06-04T14:49:16Z</time>
      </trkpt>
      <trkpt lat="59.9240331" lon="17.7182341">
        <ele>42.916</ele>
        <time>2014-06-04T14:49:17Z</time>
      </trkpt>
      <trkpt lat="59.9240533" lon="17.7182225">
        <ele>42.916</ele>
        <time>2014-06-04T14:49:18Z</time>
      </trkpt>
      <trkpt lat="59.9240708" lon="17.7181988">
        <ele>42.4354</ele>
        <time>2014-06-04T14:49:19Z</time>
      </trkpt>
      <trkpt lat="59.9240836" lon="17.7181749">
        <ele>41.474</ele>
        <time>2014-06-04T14:49:20Z</time>
      </trkpt>
      <trkpt lat="59.9240973" lon="17.7181554">
        <ele>40.5128</ele>
        <time>2014-06-04T14:49:21Z</time>
      </trkpt>
      <trkpt lat="59.9241138" lon="17.7181293">
        <ele>39.5513</ele>
        <time>2014-06-04T14:49:22Z</time>
      </trkpt>
      <trkpt lat="59.924132" lon="17.7181055">
        <ele>39.5513</ele>
        <time>2014-06-04T14:49:23Z</time>
      </trkpt>
      <trkpt lat="59.9241528" lon="17.7180841">
        <ele>40.0321</ele>
        <time>2014-06-04T14:49:24Z</time>
      </trkpt>
      <trkpt lat="59.9241639" lon="17.7180506">
        <ele>39.0707</ele>
        <time>2014-06-04T14:49:25Z</time>
      </trkpt>
      <trkpt lat="59.9241745" lon="17.7180274">
        <ele>37.6287</ele>
        <time>2014-06-04T14:49:26Z</time>
      </trkpt>
      <trkpt lat="59.9241933" lon="17.7180019">
        <ele>38.1094</ele>
        <time>2014-06-04T14:49:27Z</time>
      </trkpt>
      <trkpt lat="59.9242103" lon="17.7179625">
        <ele>38.1094</ele>
        <time>2014-06-04T14:49:28Z</time>
      </trkpt>
      <trkpt lat="59.9242247" lon="17.7179277">
        <ele>38.1094</ele>
        <time>2014-06-04T14:49:29Z</time>
      </trkpt>
      <trkpt lat="59.9242471" lon="17.7178886">
        <ele>38.1094</ele>
        <time>2014-06-04T14:49:30Z</time>
      </trkpt>
      <trkpt lat="59.9242698" lon="17.7178513">
        <ele>37.1481</ele>
        <time>2014-06-04T14:49:31Z</time>
      </trkpt>
      <trkpt lat="59.9242866" lon="17.7178156">
        <ele>36.6675</ele>
        <time>2014-06-04T14:49:32Z</time>
      </trkpt>
      <trkpt lat="59.9243098" lon="17.7177776">
        <ele>37.1481</ele>
        <time>2014-06-04T14:49:33Z</time>
      </trkpt>
      <trkpt lat="59.9243264" lon="17.7177405">
        <ele>37.1481</ele>
        <time>2014-06-04T14:49:34Z</time>
      </trkpt>
      <trkpt lat="59.9243399" lon="17.7177142">
        <ele>35.7061</ele>
        <time>2014-06-04T14:49:35Z</time>
      </trkpt>
      <trkpt lat="59.924359" lon="17.717679">
        <ele>36.1868</ele>
        <time>2014-06-04T14:49:36Z</time>
      </trkpt>
      <trkpt lat="59.9243755" lon="17.7176438">
        <ele>36.1868</ele>
        <time>2014-06-04T14:49:37Z</time>
      </trkpt>
      <trkpt lat="59.9243968" lon="17.7176202">
        <ele>36.6675</ele>
        <time>2014-06-04T14:49:38Z</time>
      </trkpt>
      <trkpt lat="59.9244128" lon="17.7175979">
        <ele>36.6675</ele>
        <time>2014-06-04T14:49:39Z</time>
      </trkpt>
      <trkpt lat="59.9244254" lon="17.7175761">
        <ele>36.6675</ele>
        <time>2014-06-04T14:49:40Z</time>
      </trkpt>
      <trkpt lat="59.9244415" lon="17.7175397">
        <ele>37.1481</ele>
        <time>2014-06-04T14:49:41Z</time>
      </trkpt>
      <trkpt lat="59.9244585" lon="17.7174965">
        <ele>37.6287</ele>
        <time>2014-06-04T14:49:42Z</time>
      </trkpt>
      <trkpt lat="59.9244756" lon="17.7174646">
        <ele>38.1094</ele>
        <time>2014-06-04T14:49:43Z</time>
      </trkpt>
      <trkpt lat="59.9244954" lon="17.7174293">
        <ele>40.0321</ele>
        <time>2014-06-04T14:49:44Z</time>
      </trkpt>
      <trkpt lat="59.9245088" lon="17.7173999">
        <ele>40.5128</ele>
        <time>2014-06-04T14:49:45Z</time>
      </trkpt>
      <trkpt lat="59.9245237" lon="17.7173663">
        <ele>40.0321</ele>
        <time>2014-06-04T14:49:46Z</time>
      </trkpt>
      <trkpt lat="59.9245409" lon="17.7173311">
        <ele>40.5128</ele>
        <time>2014-06-04T14:49:47Z</time>
      </trkpt>
      <trkpt lat="59.9245605" lon="17.7173029">
        <ele>40.9934</ele>
        <time>2014-06-04T14:49:48Z</time>
      </trkpt>
      <trkpt lat="59.9245827" lon="17.7172674">
        <ele>40.9934</ele>
        <time>2014-06-04T14:49:49Z</time>
      </trkpt>
      <trkpt lat="59.9246073" lon="17.7172299">
        <ele>41.474</ele>
        <time>2014-06-04T14:49:50Z</time>
      </trkpt>
      <trkpt lat="59.9246226" lon="17.7172133">
        <ele>40.5128</ele>
        <time>2014-06-04T14:49:51Z</time>
      </trkpt>
      <trkpt lat="59.9246367" lon="17.7171955">
        <ele>39.5513</ele>
        <time>2014-06-04T14:49:52Z</time>
      </trkpt>
      <trkpt lat="59.9246512" lon="17.7171693">
        <ele>39.0707</ele>
        <time>2014-06-04T14:49:53Z</time>
      </trkpt>
      <trkpt lat="59.9246746" lon="17.7171337">
        <ele>40.0321</ele>
        <time>2014-06-04T14:49:54Z</time>
      </trkpt>
      <trkpt lat="59.9246947" lon="17.7171025">
        <ele>40.0321</ele>
        <time>2014-06-04T14:49:55Z</time>
      </trkpt>
      <trkpt lat="59.9247108" lon="17.7170799">
        <ele>39.0707</ele>
        <time>2014-06-04T14:49:56Z</time>
      </trkpt>
      <trkpt lat="59.9247346" lon="17.7170535">
        <ele>40.0321</ele>
        <time>2014-06-04T14:49:57Z</time>
      </trkpt>
      <trkpt lat="59.9247501" lon="17.7170351">
        <ele>39.5513</ele>
        <time>2014-06-04T14:49:58Z</time>
      </trkpt>
      <trkpt lat="59.9247692" lon="17.7170151">
        <ele>40.5128</ele>
        <time>2014-06-04T14:49:59Z</time>
      </trkpt>
      <trkpt lat="59.9247895" lon="17.7170063">
        <ele>40.9934</ele>
        <time>2014-06-04T14:50:00Z</time>
      </trkpt>
      <trkpt lat="59.9248113" lon="17.7169959">
        <ele>41.474</ele>
        <time>2014-06-04T14:50:01Z</time>
      </trkpt>
      <trkpt lat="59.9248346" lon="17.716982">
        <ele>41.9547</ele>
        <time>2014-06-04T14:50:02Z</time>
      </trkpt>
      <trkpt lat="59.9248517" lon="17.7169637">
        <ele>41.474</ele>
        <time>2014-06-04T14:50:03Z</time>
      </trkpt>
      <trkpt lat="59.9248717" lon="17.716956">
        <ele>41.474</ele>
        <time>2014-06-04T14:50:04Z</time>
      </trkpt>
      <trkpt lat="59.9248888" lon="17.7169377">
        <ele>41.9547</ele>
        <time>2014-06-04T14:50:05Z</time>
      </trkpt>
      <trkpt lat="59.924907" lon="17.7169089">
        <ele>42.4354</ele>
        <time>2014-06-04T14:50:06Z</time>
      </trkpt>
      <trkpt lat="59.9249287" lon="17.7168873">
        <ele>43.3966</ele>
        <time>2014-06-04T14:50:07Z</time>
      </trkpt>
      <trkpt lat="59.9249505" lon="17.7168661">
        <ele>43.8773</ele>
        <time>2014-06-04T14:50:08Z</time>
      </trkpt>
      <trkpt lat="59.9249734" lon="17.7168417">
        <ele>44.358</ele>
        <time>2014-06-04T14:50:09Z</time>
      </trkpt>
      <trkpt lat="59.9249922" lon="17.7168121">
        <ele>44.8386</ele>
        <time>2014-06-04T14:50:10Z</time>
      </trkpt>
      <trkpt lat="59.9250077" lon="17.7167749">
        <ele>44.8386</ele>
        <time>2014-06-04T14:50:11Z</time>
      </trkpt>
      <trkpt lat="59.9250189" lon="17.7167357">
        <ele>43.8773</ele>
        <time>2014-06-04T14:50:12Z</time>
      </trkpt>
      <trkpt lat="59.9250295" lon="17.7166868">
        <ele>43.8773</ele>
        <time>2014-06-04T14:50:13Z</time>
      </trkpt>
      <trkpt lat="59.9250371" lon="17.7166405">
        <ele>43.3966</ele>
        <time>2014-06-04T14:50:14Z</time>
      </trkpt>
      <trkpt lat="59.9250514" lon="17.7165964">
        <ele>43.3966</ele>
        <time>2014-06-04T14:50:15Z</time>
      </trkpt>
      <trkpt lat="59.9250553" lon="17.7165592">
        <ele>43.3966</ele>
        <time>2014-06-04T14:50:16Z</time>
      </trkpt>
      <trkpt lat="59.925051" lon="17.716522">
        <ele>42.916</ele>
        <time>2014-06-04T14:50:17Z</time>
      </trkpt>
      <trkpt lat="59.9250501" lon="17.7164667">
        <ele>42.916</ele>
        <time>2014-06-04T14:50:18Z</time>
      </trkpt>
      <trkpt lat="59.9250431" lon="17.7164141">
        <ele>42.916</ele>
        <time>2014-06-04T14:50:19Z</time>
      </trkpt>
      <trkpt lat="59.9250387" lon="17.7163696">
        <ele>42.916</ele>
        <time>2014-06-04T14:50:20Z</time>
      </trkpt>
      <trkpt lat="59.9250303" lon="17.7163324">
        <ele>42.916</ele>
        <time>2014-06-04T14:50:21Z</time>
      </trkpt>
      <trkpt lat="59.9250168" lon="17.7162967">
        <ele>41.9547</ele>
        <time>2014-06-04T14:50:22Z</time>
      </trkpt>
      <trkpt lat="59.9249951" lon="17.716266">
        <ele>41.9547</ele>
        <time>2014-06-04T14:50:23Z</time>
      </trkpt>
      <trkpt lat="59.9249655" lon="17.7162443">
        <ele>41.474</ele>
        <time>2014-06-04T14:50:24Z</time>
      </trkpt>
      <trkpt lat="59.9249377" lon="17.7162193">
        <ele>41.474</ele>
        <time>2014-06-04T14:50:25Z</time>
      </trkpt>
      <trkpt lat="59.9249092" lon="17.7161975">
        <ele>40.9934</ele>
        <time>2014-06-04T14:50:26Z</time>
      </trkpt>
      <trkpt lat="59.9248782" lon="17.7161757">
        <ele>40.5128</ele>
        <time>2014-06-04T14:50:27Z</time>
      </trkpt>
      <trkpt lat="59.9248522" lon="17.7161536">
        <ele>40.5128</ele>
        <time>2014-06-04T14:50:28Z</time>
      </trkpt>
      <trkpt lat="59.9248299" lon="17.7161348">
        <ele>40.5128</ele>
        <time>2014-06-04T14:50:29Z</time>
      </trkpt>
      <trkpt lat="59.9248131" lon="17.7161067">
        <ele>40.5128</ele>
        <time>2014-06-04T14:50:30Z</time>
      </trkpt>
      <trkpt lat="59.9247973" lon="17.7160775">
        <ele>40.9934</ele>
        <time>2014-06-04T14:50:31Z</time>
      </trkpt>
      <trkpt lat="59.9247775" lon="17.7160485">
        <ele>40.5128</ele>
        <time>2014-06-04T14:50:32Z</time>
      </trkpt>
      <trkpt lat="59.9247525" lon="17.7160061">
        <ele>40.5128</ele>
        <time>2014-06-04T14:50:33Z</time>
      </trkpt>
      <trkpt lat="59.924729" lon="17.7159708">
        <ele>40.9934</ele>
        <time>2014-06-04T14:50:34Z</time>
      </trkpt>
      <trkpt lat="59.9247059" lon="17.7159426">
        <ele>41.474</ele>
        <time>2014-06-04T14:50:35Z</time>
      </trkpt>
      <trkpt lat="59.9246793" lon="17.7159034">
        <ele>41.9547</ele>
        <time>2014-06-04T14:50:36Z</time>
      </trkpt>
      <trkpt lat="59.9246482" lon="17.7158741">
        <ele>42.4354</ele>
        <time>2014-06-04T14:50:37Z</time>
      </trkpt>
      <trkpt lat="59.924632" lon="17.7158501">
        <ele>42.916</ele>
        <time>2014-06-04T14:50:38Z</time>
      </trkpt>
      <trkpt lat="59.9246179" lon="17.7158274">
        <ele>43.8773</ele>
        <time>2014-06-04T14:50:39Z</time>
      </trkpt>
      <trkpt lat="59.924602" lon="17.7158145">
        <ele>44.358</ele>
        <time>2014-06-04T14:50:40Z</time>
      </trkpt>
      <trkpt lat="59.9245804" lon="17.7157854">
        <ele>44.8386</ele>
        <time>2014-06-04T14:50:41Z</time>
      </trkpt>
      <trkpt lat="59.9245652" lon="17.7157655">
        <ele>45.3192</ele>
        <time>2014-06-04T14:50:42Z</time>
      </trkpt>
      <trkpt lat="59.9245467" lon="17.7157613">
        <ele>45.3192</ele>
        <time>2014-06-04T14:50:43Z</time>
      </trkpt>
      <trkpt lat="59.9245272" lon="17.7157507">
        <ele>45.3192</ele>
        <time>2014-06-04T14:50:44Z</time>
      </trkpt>
      <trkpt lat="59.9245084" lon="17.7157413">
        <ele>44.8386</ele>
        <time>2014-06-04T14:50:45Z</time>
      </trkpt>
      <trkpt lat="59.9244963" lon="17.7157354">
        <ele>45.3192</ele>
        <time>2014-06-04T14:50:46Z</time>
      </trkpt>
      <trkpt lat="59.9244844" lon="17.7157334">
        <ele>45.7999</ele>
        <time>2014-06-04T14:50:47Z</time>
      </trkpt>
      <trkpt lat="59.9244768" lon="17.7157282">
        <ele>45.7999</ele>
        <time>2014-06-04T14:50:48Z</time>
      </trkpt>
      <trkpt lat="59.9244647" lon="17.7157132">
        <ele>45.7999</ele>
        <time>2014-06-04T14:50:49Z</time>
      </trkpt>
      <trkpt lat="59.9244501" lon="17.7156819">
        <ele>46.2806</ele>
        <time>2014-06-04T14:50:50Z</time>
      </trkpt>
      <trkpt lat="59.9244263" lon="17.7156512">
        <ele>47.2418</ele>
        <time>2014-06-04T14:50:51Z</time>
      </trkpt>
      <trkpt lat="59.9244037" lon="17.7156273">
        <ele>47.2418</ele>
        <time>2014-06-04T14:50:52Z</time>
      </trkpt>
      <trkpt lat="59.9243798" lon="17.7156063">
        <ele>46.7612</ele>
        <time>2014-06-04T14:50:53Z</time>
      </trkpt>
      <trkpt lat="59.9243544" lon="17.7155859">
        <ele>46.7612</ele>
        <time>2014-06-04T14:50:54Z</time>
      </trkpt>
      <trkpt lat="59.9243296" lon="17.7155683">
        <ele>46.7612</ele>
        <time>2014-06-04T14:50:55Z</time>
      </trkpt>
      <trkpt lat="59.9243057" lon="17.7155523">
        <ele>47.2418</ele>
        <time>2014-06-04T14:50:56Z</time>
      </trkpt>
      <trkpt lat="59.9242799" lon="17.7155286">
        <ele>47.2418</ele>
        <time>2014-06-04T14:50:57Z</time>
      </trkpt>
      <trkpt lat="59.9242575" lon="17.7155106">
        <ele>47.2418</ele>
        <time>2014-06-04T14:50:58Z</time>
      </trkpt>
      <trkpt lat="59.9242337" lon="17.7154956">
        <ele>47.7225</ele>
        <time>2014-06-04T14:50:59Z</time>
      </trkpt>
      <trkpt lat="59.9242129" lon="17.7154854">
        <ele>47.2418</ele>
        <time>2014-06-04T14:51:00Z</time>
      </trkpt>
      <trkpt lat="59.9241898" lon="17.7154798">
        <ele>47.2418</ele>
        <time>2014-06-04T14:51:01Z</time>
      </trkpt>
      <trkpt lat="59.9241627" lon="17.7154684">
        <ele>46.2806</ele>
        <time>2014-06-04T14:51:02Z</time>
      </trkpt>
      <trkpt lat="59.924139" lon="17.7154632">
        <ele>45.7999</ele>
        <time>2014-06-04T14:51:03Z</time>
      </trkpt>
      <trkpt lat="59.9241138" lon="17.7154537">
        <ele>45.3192</ele>
        <time>2014-06-04T14:51:04Z</time>
      </trkpt>
      <trkpt lat="59.924099" lon="17.7154435">
        <ele>44.8386</ele>
        <time>2014-06-04T14:51:05Z</time>
      </trkpt>
      <trkpt lat="59.9240862" lon="17.71543">
        <ele>44.358</ele>
        <time>2014-06-04T14:51:06Z</time>
      </trkpt>
      <trkpt lat="59.9240734" lon="17.7154132">
        <ele>43.8773</ele>
        <time>2014-06-04T14:51:07Z</time>
      </trkpt>
      <trkpt lat="59.9240622" lon="17.7153937">
        <ele>42.916</ele>
        <time>2014-06-04T14:51:08Z</time>
      </trkpt>
      <trkpt lat="59.9240571" lon="17.7153732">
        <ele>42.916</ele>
        <time>2014-06-04T14:51:09Z</time>
      </trkpt>
      <trkpt lat="59.9240503" lon="17.7153491">
        <ele>42.916</ele>
        <time>2014-06-04T14:51:10Z</time>
      </trkpt>
      <trkpt lat="59.924042" lon="17.7153254">
        <ele>42.4354</ele>
        <time>2014-06-04T14:51:11Z</time>
      </trkpt>
      <trkpt lat="59.9240327" lon="17.7153052">
        <ele>42.916</ele>
        <time>2014-06-04T14:51:12Z</time>
      </trkpt>
      <trkpt lat="59.9240194" lon="17.7152775">
        <ele>42.916</ele>
        <time>2014-06-04T14:51:13Z</time>
      </trkpt>
      <trkpt lat="59.9240036" lon="17.7152491">
        <ele>42.4354</ele>
        <time>2014-06-04T14:51:14Z</time>
      </trkpt>
      <trkpt lat="59.9239877" lon="17.7152226">
        <ele>41.9547</ele>
        <time>2014-06-04T14:51:15Z</time>
      </trkpt>
      <trkpt lat="59.9239793" lon="17.7151928">
        <ele>41.9547</ele>
        <time>2014-06-04T14:51:16Z</time>
      </trkpt>
      <trkpt lat="59.9239741" lon="17.7151643">
        <ele>41.9547</ele>
        <time>2014-06-04T14:51:17Z</time>
      </trkpt>
      <trkpt lat="59.9239483" lon="17.71512">
        <ele>41.474</ele>
        <time>2014-06-04T14:51:18Z</time>
      </trkpt>
      <trkpt lat="59.9239248" lon="17.7150762">
        <ele>41.474</ele>
        <time>2014-06-04T14:51:19Z</time>
      </trkpt>
      <trkpt lat="59.9239006" lon="17.7150332">
        <ele>41.474</ele>
        <time>2014-06-04T14:51:20Z</time>
      </trkpt>
      <trkpt lat="59.9238804" lon="17.7150015">
        <ele>40.9934</ele>
        <time>2014-06-04T14:51:21Z</time>
      </trkpt>
      <trkpt lat="59.9238664" lon="17.7149684">
        <ele>40.9934</ele>
        <time>2014-06-04T14:51:22Z</time>
      </trkpt>
      <trkpt lat="59.9238519" lon="17.7149317">
        <ele>41.474</ele>
        <time>2014-06-04T14:51:23Z</time>
      </trkpt>
      <trkpt lat="59.9238316" lon="17.7148969">
        <ele>41.474</ele>
        <time>2014-06-04T14:51:24Z</time>
      </trkpt>
      <trkpt lat="59.9238084" lon="17.7148647">
        <ele>41.474</ele>
        <time>2014-06-04T14:51:25Z</time>
      </trkpt>
      <trkpt lat="59.9237867" lon="17.7148307">
        <ele>41.9547</ele>
        <time>2014-06-04T14:51:26Z</time>
      </trkpt>
      <trkpt lat="59.923768" lon="17.7147961">
        <ele>41.9547</ele>
        <time>2014-06-04T14:51:27Z</time>
      </trkpt>
      <trkpt lat="59.9237529" lon="17.7147666">
        <ele>41.474</ele>
        <time>2014-06-04T14:51:28Z</time>
      </trkpt>
      <trkpt lat="59.9237379" lon="17.7147355">
        <ele>41.9547</ele>
        <time>2014-06-04T14:51:29Z</time>
      </trkpt>
      <trkpt lat="59.923711" lon="17.7146925">
        <ele>41.474</ele>
        <time>2014-06-04T14:51:30Z</time>
      </trkpt>
      <trkpt lat="59.9236823" lon="17.7146635">
        <ele>41.474</ele>
        <time>2014-06-04T14:51:31Z</time>
      </trkpt>
      <trkpt lat="59.9236551" lon="17.7146338">
        <ele>40.9934</ele>
        <time>2014-06-04T14:51:32Z</time>
      </trkpt>
      <trkpt lat="59.9236291" lon="17.7146024">
        <ele>40.9934</ele>
        <time>2014-06-04T14:51:33Z</time>
      </trkpt>
      <trkpt lat="59.9236105" lon="17.7145685">
        <ele>40.9934</ele>
        <time>2014-06-04T14:51:34Z</time>
      </trkpt>
      <trkpt lat="59.9235935" lon="17.7145349">
        <ele>40.5128</ele>
        <time>2014-06-04T14:51:35Z</time>
      </trkpt>
      <trkpt lat="59.9235858" lon="17.7145052">
        <ele>40.5128</ele>
        <time>2014-06-04T14:51:36Z</time>
      </trkpt>
      <trkpt lat="59.9235761" lon="17.7144726">
        <ele>40.0321</ele>
        <time>2014-06-04T14:51:37Z</time>
      </trkpt>
      <trkpt lat="59.9235597" lon="17.7144466">
        <ele>39.0707</ele>
        <time>2014-06-04T14:51:38Z</time>
      </trkpt>
      <trkpt lat="59.9235502" lon="17.7144266">
        <ele>39.0707</ele>
        <time>2014-06-04T14:51:39Z</time>
      </trkpt>
      <trkpt lat="59.9235404" lon="17.7144097">
        <ele>39.0707</ele>
        <time>2014-06-04T14:51:40Z</time>
      </trkpt>
      <trkpt lat="59.9235319" lon="17.7143882">
        <ele>39.0707</ele>
        <time>2014-06-04T14:51:41Z</time>
      </trkpt>
      <trkpt lat="59.9235188" lon="17.7143514">
        <ele>39.0707</ele>
        <time>2014-06-04T14:51:42Z</time>
      </trkpt>
      <trkpt lat="59.9235023" lon="17.7143157">
        <ele>38.1094</ele>
        <time>2014-06-04T14:51:43Z</time>
      </trkpt>
      <trkpt lat="59.9234872" lon="17.7142723">
        <ele>37.1481</ele>
        <time>2014-06-04T14:51:44Z</time>
      </trkpt>
      <trkpt lat="59.9234744" lon="17.714232">
        <ele>36.6675</ele>
        <time>2014-06-04T14:51:45Z</time>
      </trkpt>
      <trkpt lat="59.9234642" lon="17.7142033">
        <ele>36.6675</ele>
        <time>2014-06-04T14:51:46Z</time>
      </trkpt>
      <trkpt lat="59.9234515" lon="17.71418">
        <ele>37.6287</ele>
        <time>2014-06-04T14:51:47Z</time>
      </trkpt>
      <trkpt lat="59.9234287" lon="17.7141666">
        <ele>37.6287</ele>
        <time>2014-06-04T14:51:48Z</time>
      </trkpt>
      <trkpt lat="59.9234071" lon="17.7141292">
        <ele>37.6287</ele>
        <time>2014-06-04T14:51:49Z</time>
      </trkpt>
      <trkpt lat="59.9233918" lon="17.7140858">
        <ele>36.6675</ele>
        <time>2014-06-04T14:51:50Z</time>
      </trkpt>
      <trkpt lat="59.9233798" lon="17.7140604">
        <ele>37.6287</ele>
        <time>2014-06-04T14:51:51Z</time>
      </trkpt>
      <trkpt lat="59.9233608" lon="17.7140415">
        <ele>37.6287</ele>
        <time>2014-06-04T14:51:52Z</time>
      </trkpt>
      <trkpt lat="59.9233427" lon="17.7140345">
        <ele>38.1094</ele>
        <time>2014-06-04T14:51:53Z</time>
      </trkpt>
      <trkpt lat="59.9233204" lon="17.7140281">
        <ele>39.0707</ele>
        <time>2014-06-04T14:51:54Z</time>
      </trkpt>
      <trkpt lat="59.9232957" lon="17.7140133">
        <ele>39.5513</ele>
        <time>2014-06-04T14:51:55Z</time>
      </trkpt>
      <trkpt lat="59.9232759" lon="17.7139988">
        <ele>40.5128</ele>
        <time>2014-06-04T14:51:56Z</time>
      </trkpt>
      <trkpt lat="59.9232553" lon="17.7139852">
        <ele>40.9934</ele>
        <time>2014-06-04T14:51:57Z</time>
      </trkpt>
      <trkpt lat="59.9232349" lon="17.7139744">
        <ele>41.474</ele>
        <time>2014-06-04T14:51:58Z</time>
      </trkpt>
      <trkpt lat="59.923212" lon="17.7139589">
        <ele>41.474</ele>
        <time>2014-06-04T14:51:59Z</time>
      </trkpt>
      <trkpt lat="59.9231961" lon="17.7139469">
        <ele>41.9547</ele>
        <time>2014-06-04T14:52:00Z</time>
      </trkpt>
      <trkpt lat="59.9231807" lon="17.7139279">
        <ele>41.9547</ele>
        <time>2014-06-04T14:52:01Z</time>
      </trkpt>
      <trkpt lat="59.9231623" lon="17.7138999">
        <ele>41.474</ele>
        <time>2014-06-04T14:52:02Z</time>
      </trkpt>
      <trkpt lat="59.923153" lon="17.7138825">
        <ele>41.9547</ele>
        <time>2014-06-04T14:52:03Z</time>
      </trkpt>
      <trkpt lat="59.9231418" lon="17.7138459">
        <ele>41.474</ele>
        <time>2014-06-04T14:52:04Z</time>
      </trkpt>
      <trkpt lat="59.9231324" lon="17.7138102">
        <ele>40.9934</ele>
        <time>2014-06-04T14:52:05Z</time>
      </trkpt>
      <trkpt lat="59.9231206" lon="17.713777">
        <ele>40.5128</ele>
        <time>2014-06-04T14:52:06Z</time>
      </trkpt>
      <trkpt lat="59.9230991" lon="17.7137413">
        <ele>40.5128</ele>
        <time>2014-06-04T14:52:07Z</time>
      </trkpt>
      <trkpt lat="59.9230821" lon="17.7137038">
        <ele>40.9934</ele>
        <time>2014-06-04T14:52:08Z</time>
      </trkpt>
      <trkpt lat="59.9230656" lon="17.7136657">
        <ele>40.9934</ele>
        <time>2014-06-04T14:52:09Z</time>
      </trkpt>
      <trkpt lat="59.9230464" lon="17.7136362">
        <ele>40.5128</ele>
        <time>2014-06-04T14:52:10Z</time>
      </trkpt>
      <trkpt lat="59.9230234" lon="17.7136009">
        <ele>40.0321</ele>
        <time>2014-06-04T14:52:11Z</time>
      </trkpt>
      <trkpt lat="59.9230045" lon="17.7135691">
        <ele>39.5513</ele>
        <time>2014-06-04T14:52:12Z</time>
      </trkpt>
      <trkpt lat="59.9229899" lon="17.7135403">
        <ele>39.5513</ele>
        <time>2014-06-04T14:52:13Z</time>
      </trkpt>
      <trkpt lat="59.9229756" lon="17.7135166">
        <ele>40.0321</ele>
        <time>2014-06-04T14:52:14Z</time>
      </trkpt>
      <trkpt lat="59.9229561" lon="17.7134901">
        <ele>40.0321</ele>
        <time>2014-06-04T14:52:15Z</time>
      </trkpt>
      <trkpt lat="59.9229361" lon="17.7134663">
        <ele>40.5128</ele>
        <time>2014-06-04T14:52:16Z</time>
      </trkpt>
      <trkpt lat="59.9229087" lon="17.7134315">
        <ele>40.0321</ele>
        <time>2014-06-04T14:52:17Z</time>
      </trkpt>
      <trkpt lat="59.9228909" lon="17.7134028">
        <ele>40.0321</ele>
        <time>2014-06-04T14:52:18Z</time>
      </trkpt>
      <trkpt lat="59.9228739" lon="17.7133718">
        <ele>39.5513</ele>
        <time>2014-06-04T14:52:19Z</time>
      </trkpt>
      <trkpt lat="59.9228553" lon="17.7133472">
        <ele>39.0707</ele>
        <time>2014-06-04T14:52:20Z</time>
      </trkpt>
      <trkpt lat="59.922845" lon="17.7133229">
        <ele>39.0707</ele>
        <time>2014-06-04T14:52:21Z</time>
      </trkpt>
      <trkpt lat="59.922834" lon="17.7132854">
        <ele>39.5513</ele>
        <time>2014-06-04T14:52:22Z</time>
      </trkpt>
      <trkpt lat="59.9228226" lon="17.7132512">
        <ele>39.5513</ele>
        <time>2014-06-04T14:52:23Z</time>
      </trkpt>
      <trkpt lat="59.922809" lon="17.7132184">
        <ele>39.5513</ele>
        <time>2014-06-04T14:52:24Z</time>
      </trkpt>
      <trkpt lat="59.9227952" lon="17.7131824">
        <ele>40.0321</ele>
        <time>2014-06-04T14:52:25Z</time>
      </trkpt>
      <trkpt lat="59.9227775" lon="17.7131355">
        <ele>40.0321</ele>
        <time>2014-06-04T14:52:26Z</time>
      </trkpt>
      <trkpt lat="59.9227686" lon="17.7130931">
        <ele>39.5513</ele>
        <time>2014-06-04T14:52:27Z</time>
      </trkpt>
      <trkpt lat="59.9227618" lon="17.7130545">
        <ele>39.5513</ele>
        <time>2014-06-04T14:52:28Z</time>
      </trkpt>
      <trkpt lat="59.9227501" lon="17.7130327">
        <ele>40.0321</ele>
        <time>2014-06-04T14:52:29Z</time>
      </trkpt>
      <trkpt lat="59.9227328" lon="17.7130228">
        <ele>40.5128</ele>
        <time>2014-06-04T14:52:30Z</time>
      </trkpt>
      <trkpt lat="59.9227142" lon="17.7130174">
        <ele>40.9934</ele>
        <time>2014-06-04T14:52:31Z</time>
      </trkpt>
      <trkpt lat="59.9226942" lon="17.7130025">
        <ele>41.474</ele>
        <time>2014-06-04T14:52:32Z</time>
      </trkpt>
      <trkpt lat="59.9226829" lon="17.7129973">
        <ele>41.474</ele>
        <time>2014-06-04T14:52:33Z</time>
      </trkpt>
      <trkpt lat="59.9226758" lon="17.7129845">
        <ele>41.474</ele>
        <time>2014-06-04T14:52:34Z</time>
      </trkpt>
      <trkpt lat="59.9226648" lon="17.7129612">
        <ele>41.474</ele>
        <time>2014-06-04T14:52:35Z</time>
      </trkpt>
      <trkpt lat="59.922656" lon="17.712934">
        <ele>41.474</ele>
        <time>2014-06-04T14:52:36Z</time>
      </trkpt>
      <trkpt lat="59.9226453" lon="17.7129041">
        <ele>41.9547</ele>
        <time>2014-06-04T14:52:37Z</time>
      </trkpt>
      <trkpt lat="59.9226391" lon="17.7128631">
        <ele>41.9547</ele>
        <time>2014-06-04T14:52:38Z</time>
      </trkpt>
      <trkpt lat="59.9226392" lon="17.7128161">
        <ele>42.4354</ele>
        <time>2014-06-04T14:52:39Z</time>
      </trkpt>
      <trkpt lat="59.9226359" lon="17.7127737">
        <ele>42.916</ele>
        <time>2014-06-04T14:52:40Z</time>
      </trkpt>
      <trkpt lat="59.9226282" lon="17.712729">
        <ele>42.916</ele>
        <time>2014-06-04T14:52:41Z</time>
      </trkpt>
      <trkpt lat="59.9226218" lon="17.71268">
        <ele>43.3966</ele>
        <time>2014-06-04T14:52:42Z</time>
      </trkpt>
      <trkpt lat="59.9226257" lon="17.7126317">
        <ele>43.3966</ele>
        <time>2014-06-04T14:52:43Z</time>
      </trkpt>
      <trkpt lat="59.9226349" lon="17.712586">
        <ele>44.358</ele>
        <time>2014-06-04T14:52:44Z</time>
      </trkpt>
      <trkpt lat="59.9226429" lon="17.7125538">
        <ele>44.358</ele>
        <time>2014-06-04T14:52:45Z</time>
      </trkpt>
      <trkpt lat="59.92265" lon="17.7125117">
        <ele>44.358</ele>
        <time>2014-06-04T14:52:46Z</time>
      </trkpt>
      <trkpt lat="59.9226507" lon="17.7124494">
        <ele>44.358</ele>
        <time>2014-06-04T14:52:47Z</time>
      </trkpt>
      <trkpt lat="59.9226533" lon="17.7123932">
        <ele>44.358</ele>
        <time>2014-06-04T14:52:48Z</time>
      </trkpt>
      <trkpt lat="59.9226582" lon="17.7123448">
        <ele>44.8386</ele>
        <time>2014-06-04T14:52:49Z</time>
      </trkpt>
      <trkpt lat="59.9226684" lon="17.712305">
        <ele>44.8386</ele>
        <time>2014-06-04T14:52:50Z</time>
      </trkpt>
      <trkpt lat="59.9226819" lon="17.7122753">
        <ele>44.8386</ele>
        <time>2014-06-04T14:52:51Z</time>
      </trkpt>
      <trkpt lat="59.9227044" lon="17.7122608">
        <ele>45.3192</ele>
        <time>2014-06-04T14:52:52Z</time>
      </trkpt>
      <trkpt lat="59.922728" lon="17.7122473">
        <ele>45.3192</ele>
        <time>2014-06-04T14:52:53Z</time>
      </trkpt>
      <trkpt lat="59.9227452" lon="17.7122229">
        <ele>45.3192</ele>
        <time>2014-06-04T14:52:54Z</time>
      </trkpt>
      <trkpt lat="59.9227589" lon="17.7121955">
        <ele>45.3192</ele>
        <time>2014-06-04T14:52:55Z</time>
      </trkpt>
      <trkpt lat="59.9227836" lon="17.7121744">
        <ele>45.3192</ele>
        <time>2014-06-04T14:52:56Z</time>
      </trkpt>
      <trkpt lat="59.922795" lon="17.7121338">
        <ele>45.7999</ele>
        <time>2014-06-04T14:52:57Z</time>
      </trkpt>
      <trkpt lat="59.9228072" lon="17.7120895">
        <ele>47.2418</ele>
        <time>2014-06-04T14:52:58Z</time>
      </trkpt>
      <trkpt lat="59.9228251" lon="17.7120469">
        <ele>47.7225</ele>
        <time>2014-06-04T14:52:59Z</time>
      </trkpt>
      <trkpt lat="59.9228335" lon="17.712005">
        <ele>47.7225</ele>
        <time>2014-06-04T14:53:00Z</time>
      </trkpt>
      <trkpt lat="59.9228313" lon="17.7119546">
        <ele>48.684</ele>
        <time>2014-06-04T14:53:01Z</time>
      </trkpt>
      <trkpt lat="59.922831" lon="17.7118962">
        <ele>49.6453</ele>
        <time>2014-06-04T14:53:02Z</time>
      </trkpt>
      <trkpt lat="59.9228382" lon="17.7118421">
        <ele>50.6066</ele>
        <time>2014-06-04T14:53:03Z</time>
      </trkpt>
      <trkpt lat="59.922844" lon="17.71179">
        <ele>51.5679</ele>
        <time>2014-06-04T14:53:04Z</time>
      </trkpt>
      <trkpt lat="59.9228478" lon="17.7117433">
        <ele>52.0486</ele>
        <time>2014-06-04T14:53:05Z</time>
      </trkpt>
      <trkpt lat="59.9228525" lon="17.7117013">
        <ele>53.0098</ele>
        <time>2014-06-04T14:53:06Z</time>
      </trkpt>
      <trkpt lat="59.9228572" lon="17.7116537">
        <ele>53.0098</ele>
        <time>2014-06-04T14:53:07Z</time>
      </trkpt>
      <trkpt lat="59.9228624" lon="17.7116045">
        <ele>53.4905</ele>
        <time>2014-06-04T14:53:08Z</time>
      </trkpt>
      <trkpt lat="59.9228708" lon="17.7115559">
        <ele>53.9712</ele>
        <time>2014-06-04T14:53:09Z</time>
      </trkpt>
      <trkpt lat="59.9228838" lon="17.7115178">
        <ele>54.9324</ele>
        <time>2014-06-04T14:53:10Z</time>
      </trkpt>
      <trkpt lat="59.9228936" lon="17.7114746">
        <ele>55.8938</ele>
        <time>2014-06-04T14:53:11Z</time>
      </trkpt>
      <trkpt lat="59.9229044" lon="17.7114119">
        <ele>57.3358</ele>
        <time>2014-06-04T14:53:12Z</time>
      </trkpt>
      <trkpt lat="59.9229067" lon="17.7113486">
        <ele>58.2971</ele>
        <time>2014-06-04T14:53:13Z</time>
      </trkpt>
      <trkpt lat="59.9229106" lon="17.7113011">
        <ele>58.7777</ele>
        <time>2014-06-04T14:53:14Z</time>
      </trkpt>
      <trkpt lat="59.9229164" lon="17.7112655">
        <ele>58.7777</ele>
        <time>2014-06-04T14:53:15Z</time>
      </trkpt>
      <trkpt lat="59.9229222" lon="17.7112347">
        <ele>58.2971</ele>
        <time>2014-06-04T14:53:16Z</time>
      </trkpt>
      <trkpt lat="59.922926" lon="17.7112067">
        <ele>57.8165</ele>
        <time>2014-06-04T14:53:17Z</time>
      </trkpt>
      <trkpt lat="59.9229238" lon="17.7111638">
        <ele>57.8165</ele>
        <time>2014-06-04T14:53:18Z</time>
      </trkpt>
      <trkpt lat="59.922924" lon="17.7111176">
        <ele>58.2971</ele>
        <time>2014-06-04T14:53:19Z</time>
      </trkpt>
      <trkpt lat="59.9229224" lon="17.7110638">
        <ele>58.2971</ele>
        <time>2014-06-04T14:53:20Z</time>
      </trkpt>
      <trkpt lat="59.9229207" lon="17.7110324">
        <ele>57.3358</ele>
        <time>2014-06-04T14:53:21Z</time>
      </trkpt>
      <trkpt lat="59.9229169" lon="17.7109991">
        <ele>56.8551</ele>
        <time>2014-06-04T14:53:22Z</time>
      </trkpt>
      <trkpt lat="59.922924" lon="17.7109606">
        <ele>57.3358</ele>
        <time>2014-06-04T14:53:23Z</time>
      </trkpt>
      <trkpt lat="59.9229278" lon="17.7109208">
        <ele>55.8938</ele>
        <time>2014-06-04T14:53:24Z</time>
      </trkpt>
      <trkpt lat="59.9229258" lon="17.7108804">
        <ele>54.9324</ele>
        <time>2014-06-04T14:53:25Z</time>
      </trkpt>
      <trkpt lat="59.9229266" lon="17.7108436">
        <ele>54.4518</ele>
        <time>2014-06-04T14:53:26Z</time>
      </trkpt>
      <trkpt lat="59.9229252" lon="17.7108052">
        <ele>53.0098</ele>
        <time>2014-06-04T14:53:27Z</time>
      </trkpt>
      <trkpt lat="59.922919" lon="17.710772">
        <ele>51.5679</ele>
        <time>2014-06-04T14:53:28Z</time>
      </trkpt>
      <trkpt lat="59.9229113" lon="17.7107354">
        <ele>50.6066</ele>
        <time>2014-06-04T14:53:29Z</time>
      </trkpt>
      <trkpt lat="59.9229038" lon="17.7106882">
        <ele>50.126</ele>
        <time>2014-06-04T14:53:30Z</time>
      </trkpt>
      <trkpt lat="59.9229025" lon="17.7106383">
        <ele>49.6453</ele>
        <time>2014-06-04T14:53:31Z</time>
      </trkpt>
      <trkpt lat="59.9228987" lon="17.7105829">
        <ele>49.1646</ele>
        <time>2014-06-04T14:53:32Z</time>
      </trkpt>
      <trkpt lat="59.9228961" lon="17.710523">
        <ele>49.1646</ele>
        <time>2014-06-04T14:53:33Z</time>
      </trkpt>
      <trkpt lat="59.9228895" lon="17.7104727">
        <ele>48.684</ele>
        <time>2014-06-04T14:53:34Z</time>
      </trkpt>
      <trkpt lat="59.9228847" lon="17.7104317">
        <ele>48.2034</ele>
        <time>2014-06-04T14:53:35Z</time>
      </trkpt>
      <trkpt lat="59.9228775" lon="17.7103863">
        <ele>47.2418</ele>
        <time>2014-06-04T14:53:36Z</time>
      </trkpt>
      <trkpt lat="59.9228779" lon="17.7103419">
        <ele>47.2418</ele>
        <time>2014-06-04T14:53:37Z</time>
      </trkpt>
      <trkpt lat="59.9228795" lon="17.710298">
        <ele>46.7612</ele>
        <time>2014-06-04T14:53:38Z</time>
      </trkpt>
      <trkpt lat="59.922879" lon="17.7102472">
        <ele>47.2418</ele>
        <time>2014-06-04T14:53:39Z</time>
      </trkpt>
      <trkpt lat="59.9228743" lon="17.7102106">
        <ele>47.2418</ele>
        <time>2014-06-04T14:53:40Z</time>
      </trkpt>
      <trkpt lat="59.9228662" lon="17.7101702">
        <ele>47.7225</ele>
        <time>2014-06-04T14:53:41Z</time>
      </trkpt>
      <trkpt lat="59.9228578" lon="17.7101147">
        <ele>47.7225</ele>
        <time>2014-06-04T14:53:42Z</time>
      </trkpt>
      <trkpt lat="59.9228504" lon="17.7100622">
        <ele>47.7225</ele>
        <time>2014-06-04T14:53:43Z</time>
      </trkpt>
      <trkpt lat="59.9228459" lon="17.7100188">
        <ele>48.2034</ele>
        <time>2014-06-04T14:53:44Z</time>
      </trkpt>
      <trkpt lat="59.9228414" lon="17.7099742">
        <ele>48.2034</ele>
        <time>2014-06-04T14:53:45Z</time>
      </trkpt>
      <trkpt lat="59.9228411" lon="17.709932">
        <ele>47.7225</ele>
        <time>2014-06-04T14:53:46Z</time>
      </trkpt>
      <trkpt lat="59.9228439" lon="17.7098847">
        <ele>48.2034</ele>
        <time>2014-06-04T14:53:47Z</time>
      </trkpt>
      <trkpt lat="59.9228464" lon="17.7098551">
        <ele>48.2034</ele>
        <time>2014-06-04T14:53:48Z</time>
      </trkpt>
      <trkpt lat="59.922847" lon="17.7098205">
        <ele>48.684</ele>
        <time>2014-06-04T14:53:49Z</time>
      </trkpt>
      <trkpt lat="59.9228449" lon="17.7097737">
        <ele>48.684</ele>
        <time>2014-06-04T14:53:50Z</time>
      </trkpt>
      <trkpt lat="59.9228392" lon="17.7097194">
        <ele>48.684</ele>
        <time>2014-06-04T14:53:51Z</time>
      </trkpt>
      <trkpt lat="59.9228268" lon="17.7096668">
        <ele>48.684</ele>
        <time>2014-06-04T14:53:52Z</time>
      </trkpt>
      <trkpt lat="59.9228144" lon="17.7096188">
        <ele>48.2034</ele>
        <time>2014-06-04T14:53:53Z</time>
      </trkpt>
      <trkpt lat="59.9228035" lon="17.709568">
        <ele>48.2034</ele>
        <time>2014-06-04T14:53:54Z</time>
      </trkpt>
      <trkpt lat="59.9227993" lon="17.7095257">
        <ele>48.2034</ele>
        <time>2014-06-04T14:53:55Z</time>
      </trkpt>
      <trkpt lat="59.9227958" lon="17.7094805">
        <ele>48.2034</ele>
        <time>2014-06-04T14:53:56Z</time>
      </trkpt>
      <trkpt lat="59.9227993" lon="17.7094406">
        <ele>47.7225</ele>
        <time>2014-06-04T14:53:57Z</time>
      </trkpt>
      <trkpt lat="59.9228023" lon="17.7093956">
        <ele>48.684</ele>
        <time>2014-06-04T14:53:58Z</time>
      </trkpt>
      <trkpt lat="59.9228023" lon="17.7093491">
        <ele>47.7225</ele>
        <time>2014-06-04T14:53:59Z</time>
      </trkpt>
      <trkpt lat="59.9228009" lon="17.7093078">
        <ele>47.2418</ele>
        <time>2014-06-04T14:54:00Z</time>
      </trkpt>
      <trkpt lat="59.9227948" lon="17.7092616">
        <ele>47.7225</ele>
        <time>2014-06-04T14:54:01Z</time>
      </trkpt>
      <trkpt lat="59.9227924" lon="17.7092134">
        <ele>47.2418</ele>
        <time>2014-06-04T14:54:02Z</time>
      </trkpt>
      <trkpt lat="59.9227869" lon="17.709158">
        <ele>47.2418</ele>
        <time>2014-06-04T14:54:03Z</time>
      </trkpt>
      <trkpt lat="59.9227772" lon="17.709101">
        <ele>47.7225</ele>
        <time>2014-06-04T14:54:04Z</time>
      </trkpt>
      <trkpt lat="59.9227712" lon="17.7090467">
        <ele>47.7225</ele>
        <time>2014-06-04T14:54:05Z</time>
      </trkpt>
      <trkpt lat="59.9227687" lon="17.7089984">
        <ele>47.2418</ele>
        <time>2014-06-04T14:54:06Z</time>
      </trkpt>
      <trkpt lat="59.9227682" lon="17.7089448">
        <ele>48.2034</ele>
        <time>2014-06-04T14:54:07Z</time>
      </trkpt>
      <trkpt lat="59.9227631" lon="17.7088968">
        <ele>48.2034</ele>
        <time>2014-06-04T14:54:08Z</time>
      </trkpt>
      <trkpt lat="59.9227479" lon="17.708847">
        <ele>48.684</ele>
        <time>2014-06-04T14:54:09Z</time>
      </trkpt>
      <trkpt lat="59.9227393" lon="17.7088166">
        <ele>49.1646</ele>
        <time>2014-06-04T14:54:10Z</time>
      </trkpt>
      <trkpt lat="59.9227335" lon="17.7087959">
        <ele>48.2034</ele>
        <time>2014-06-04T14:54:11Z</time>
      </trkpt>
      <trkpt lat="59.9227246" lon="17.7087721">
        <ele>47.7225</ele>
        <time>2014-06-04T14:54:12Z</time>
      </trkpt>
      <trkpt lat="59.9227122" lon="17.7087506">
        <ele>46.7612</ele>
        <time>2014-06-04T14:54:13Z</time>
      </trkpt>
      <trkpt lat="59.9226992" lon="17.708728">
        <ele>46.2806</ele>
        <time>2014-06-04T14:54:14Z</time>
      </trkpt>
      <trkpt lat="59.9226838" lon="17.7087047">
        <ele>44.8386</ele>
        <time>2014-06-04T14:54:15Z</time>
      </trkpt>
      <trkpt lat="59.9226686" lon="17.7086841">
        <ele>43.8773</ele>
        <time>2014-06-04T14:54:16Z</time>
      </trkpt>
      <trkpt lat="59.9226553" lon="17.7086663">
        <ele>43.3966</ele>
        <time>2014-06-04T14:54:17Z</time>
      </trkpt>
      <trkpt lat="59.9226413" lon="17.7086428">
        <ele>41.9547</ele>
        <time>2014-06-04T14:54:18Z</time>
      </trkpt>
      <trkpt lat="59.9226345" lon="17.7086071">
        <ele>41.474</ele>
        <time>2014-06-04T14:54:19Z</time>
      </trkpt>
      <trkpt lat="59.9226205" lon="17.7085758">
        <ele>40.9934</ele>
        <time>2014-06-04T14:54:20Z</time>
      </trkpt>
      <trkpt lat="59.9225979" lon="17.7085475">
        <ele>40.5128</ele>
        <time>2014-06-04T14:54:21Z</time>
      </trkpt>
      <trkpt lat="59.9225805" lon="17.7085244">
        <ele>40.0321</ele>
        <time>2014-06-04T14:54:22Z</time>
      </trkpt>
      <trkpt lat="59.9225585" lon="17.7084922">
        <ele>39.5513</ele>
        <time>2014-06-04T14:54:23Z</time>
      </trkpt>
      <trkpt lat="59.9225344" lon="17.7084701">
        <ele>39.0707</ele>
        <time>2014-06-04T14:54:24Z</time>
      </trkpt>
      <trkpt lat="59.9225044" lon="17.7084365">
        <ele>38.5901</ele>
        <time>2014-06-04T14:54:25Z</time>
      </trkpt>
      <trkpt lat="59.9224791" lon="17.7083987">
        <ele>37.6287</ele>
        <time>2014-06-04T14:54:26Z</time>
      </trkpt>
      <trkpt lat="59.9224647" lon="17.7083763">
        <ele>36.6675</ele>
        <time>2014-06-04T14:54:27Z</time>
      </trkpt>
      <trkpt lat="59.9224462" lon="17.7083494">
        <ele>34.7449</ele>
        <time>2014-06-04T14:54:28Z</time>
      </trkpt>
      <trkpt lat="59.9224223" lon="17.7083114">
        <ele>32.8223</ele>
        <time>2014-06-04T14:54:29Z</time>
      </trkpt>
      <trkpt lat="59.9224176" lon="17.7082726">
        <ele>33.3029</ele>
        <time>2014-06-04T14:54:30Z</time>
      </trkpt>
      <trkpt lat="59.9224108" lon="17.7082254">
        <ele>33.7834</ele>
        <time>2014-06-04T14:54:31Z</time>
      </trkpt>
      <trkpt lat="59.9224031" lon="17.7081716">
        <ele>33.3029</ele>
        <time>2014-06-04T14:54:32Z</time>
      </trkpt>
      <trkpt lat="59.9223958" lon="17.7081173">
        <ele>33.7834</ele>
        <time>2014-06-04T14:54:33Z</time>
      </trkpt>
      <trkpt lat="59.9223875" lon="17.7080582">
        <ele>34.2642</ele>
        <time>2014-06-04T14:54:34Z</time>
      </trkpt>
      <trkpt lat="59.9223778" lon="17.7079934">
        <ele>34.7449</ele>
        <time>2014-06-04T14:54:35Z</time>
      </trkpt>
      <trkpt lat="59.9223733" lon="17.7079406">
        <ele>34.7449</ele>
        <time>2014-06-04T14:54:36Z</time>
      </trkpt>
      <trkpt lat="59.922373" lon="17.7078993">
        <ele>34.7449</ele>
        <time>2014-06-04T14:54:37Z</time>
      </trkpt>
      <trkpt lat="59.9223782" lon="17.7078575">
        <ele>34.7449</ele>
        <time>2014-06-04T14:54:38Z</time>
      </trkpt>
      <trkpt lat="59.9223787" lon="17.7078221">
        <ele>35.2255</ele>
        <time>2014-06-04T14:54:39Z</time>
      </trkpt>
      <trkpt lat="59.9223746" lon="17.7077904">
        <ele>35.7061</ele>
        <time>2014-06-04T14:54:40Z</time>
      </trkpt>
      <trkpt lat="59.9223762" lon="17.707751">
        <ele>35.7061</ele>
        <time>2014-06-04T14:54:41Z</time>
      </trkpt>
      <trkpt lat="59.9223728" lon="17.7077006">
        <ele>34.7449</ele>
        <time>2014-06-04T14:54:42Z</time>
      </trkpt>
      <trkpt lat="59.9223692" lon="17.7076385">
        <ele>35.7061</ele>
        <time>2014-06-04T14:54:43Z</time>
      </trkpt>
      <trkpt lat="59.9223676" lon="17.7075868">
        <ele>35.7061</ele>
        <time>2014-06-04T14:54:44Z</time>
      </trkpt>
      <trkpt lat="59.9223612" lon="17.7075411">
        <ele>35.7061</ele>
        <time>2014-06-04T14:54:45Z</time>
      </trkpt>
      <trkpt lat="59.922358" lon="17.7074817">
        <ele>37.1481</ele>
        <time>2014-06-04T14:54:46Z</time>
      </trkpt>
      <trkpt lat="59.9223564" lon="17.7074238">
        <ele>37.6287</ele>
        <time>2014-06-04T14:54:47Z</time>
      </trkpt>
      <trkpt lat="59.9223578" lon="17.7073786">
        <ele>38.5901</ele>
        <time>2014-06-04T14:54:48Z</time>
      </trkpt>
      <trkpt lat="59.9223612" lon="17.7073326">
        <ele>39.5513</ele>
        <time>2014-06-04T14:54:49Z</time>
      </trkpt>
      <trkpt lat="59.922363" lon="17.7072812">
        <ele>40.0321</ele>
        <time>2014-06-04T14:54:50Z</time>
      </trkpt>
      <trkpt lat="59.9223667" lon="17.7072294">
        <ele>40.9934</ele>
        <time>2014-06-04T14:54:51Z</time>
      </trkpt>
      <trkpt lat="59.9223658" lon="17.7071774">
        <ele>41.9547</ele>
        <time>2014-06-04T14:54:52Z</time>
      </trkpt>
      <trkpt lat="59.9223584" lon="17.7070966">
        <ele>41.9547</ele>
        <time>2014-06-04T14:54:54Z</time>
      </trkpt>
      <trkpt lat="59.9223422" lon="17.7070315">
        <ele>42.4354</ele>
        <time>2014-06-04T14:54:55Z</time>
      </trkpt>
      <trkpt lat="59.9223457" lon="17.7069912">
        <ele>42.4354</ele>
        <time>2014-06-04T14:54:56Z</time>
      </trkpt>
      <trkpt lat="59.9223357" lon="17.7069459">
        <ele>41.474</ele>
        <time>2014-06-04T14:54:57Z</time>
      </trkpt>
      <trkpt lat="59.9223367" lon="17.7069196">
        <ele>41.474</ele>
        <time>2014-06-04T14:54:58Z</time>
      </trkpt>
      <trkpt lat="59.9223336" lon="17.7068874">
        <ele>40.5128</ele>
        <time>2014-06-04T14:54:59Z</time>
      </trkpt>
      <trkpt lat="59.922336" lon="17.7068486">
        <ele>39.5513</ele>
        <time>2014-06-04T14:55:00Z</time>
      </trkpt>
      <trkpt lat="59.9223301" lon="17.7068014">
        <ele>38.5901</ele>
        <time>2014-06-04T14:55:01Z</time>
      </trkpt>
      <trkpt lat="59.9223331" lon="17.7067651">
        <ele>38.1094</ele>
        <time>2014-06-04T14:55:02Z</time>
      </trkpt>
      <trkpt lat="59.9223291" lon="17.7067087">
        <ele>38.5901</ele>
        <time>2014-06-04T14:55:03Z</time>
      </trkpt>
      <trkpt lat="59.9223293" lon="17.7066561">
        <ele>39.0707</ele>
        <time>2014-06-04T14:55:04Z</time>
      </trkpt>
      <trkpt lat="59.9223304" lon="17.7066161">
        <ele>38.5901</ele>
        <time>2014-06-04T14:55:05Z</time>
      </trkpt>
      <trkpt lat="59.9223393" lon="17.7065709">
        <ele>38.5901</ele>
        <time>2014-06-04T14:55:06Z</time>
      </trkpt>
      <trkpt lat="59.9223507" lon="17.7065312">
        <ele>37.6287</ele>
        <time>2014-06-04T14:55:07Z</time>
      </trkpt>
      <trkpt lat="59.9223616" lon="17.7065017">
        <ele>37.1481</ele>
        <time>2014-06-04T14:55:08Z</time>
      </trkpt>
      <trkpt lat="59.9223638" lon="17.7064533">
        <ele>37.1481</ele>
        <time>2014-06-04T14:55:09Z</time>
      </trkpt>
      <trkpt lat="59.9223693" lon="17.7064005">
        <ele>37.1481</ele>
        <time>2014-06-04T14:55:10Z</time>
      </trkpt>
      <trkpt lat="59.9223757" lon="17.7063285">
        <ele>38.5901</ele>
        <time>2014-06-04T14:55:11Z</time>
      </trkpt>
      <trkpt lat="59.9223791" lon="17.7062587">
        <ele>39.0707</ele>
        <time>2014-06-04T14:55:12Z</time>
      </trkpt>
      <trkpt lat="59.9223889" lon="17.7061959">
        <ele>40.9934</ele>
        <time>2014-06-04T14:55:13Z</time>
      </trkpt>
      <trkpt lat="59.9224019" lon="17.706138">
        <ele>42.4354</ele>
        <time>2014-06-04T14:55:14Z</time>
      </trkpt>
      <trkpt lat="59.9224115" lon="17.7060965">
        <ele>42.4354</ele>
        <time>2014-06-04T14:55:15Z</time>
      </trkpt>
      <trkpt lat="59.9224123" lon="17.7060525">
        <ele>43.8773</ele>
        <time>2014-06-04T14:55:16Z</time>
      </trkpt>
      <trkpt lat="59.9224077" lon="17.7060106">
        <ele>44.358</ele>
        <time>2014-06-04T14:55:17Z</time>
      </trkpt>
      <trkpt lat="59.9223963" lon="17.7059608">
        <ele>44.8386</ele>
        <time>2014-06-04T14:55:18Z</time>
      </trkpt>
      <trkpt lat="59.9223895" lon="17.7059147">
        <ele>45.3192</ele>
        <time>2014-06-04T14:55:19Z</time>
      </trkpt>
      <trkpt lat="59.9223775" lon="17.7058692">
        <ele>45.3192</ele>
        <time>2014-06-04T14:55:20Z</time>
      </trkpt>
      <trkpt lat="59.9223624" lon="17.70582">
        <ele>44.8386</ele>
        <time>2014-06-04T14:55:21Z</time>
      </trkpt>
      <trkpt lat="59.9223552" lon="17.705776">
        <ele>45.3192</ele>
        <time>2014-06-04T14:55:22Z</time>
      </trkpt>
      <trkpt lat="59.9223449" lon="17.7057247">
        <ele>44.8386</ele>
        <time>2014-06-04T14:55:23Z</time>
      </trkpt>
      <trkpt lat="59.9223311" lon="17.705669">
        <ele>44.8386</ele>
        <time>2014-06-04T14:55:24Z</time>
      </trkpt>
      <trkpt lat="59.9223198" lon="17.7056131">
        <ele>44.358</ele>
        <time>2014-06-04T14:55:25Z</time>
      </trkpt>
      <trkpt lat="59.9223117" lon="17.7055634">
        <ele>43.8773</ele>
        <time>2014-06-04T14:55:26Z</time>
      </trkpt>
      <trkpt lat="59.9223042" lon="17.7055132">
        <ele>42.916</ele>
        <time>2014-06-04T14:55:27Z</time>
      </trkpt>
      <trkpt lat="59.9223014" lon="17.7054722">
        <ele>42.916</ele>
        <time>2014-06-04T14:55:28Z</time>
      </trkpt>
      <trkpt lat="59.922297" lon="17.7054304">
        <ele>42.916</ele>
        <time>2014-06-04T14:55:29Z</time>
      </trkpt>
      <trkpt lat="59.9222895" lon="17.705378">
        <ele>42.4354</ele>
        <time>2014-06-04T14:55:30Z</time>
      </trkpt>
      <trkpt lat="59.9222782" lon="17.7053257">
        <ele>41.9547</ele>
        <time>2014-06-04T14:55:31Z</time>
      </trkpt>
      <trkpt lat="59.9222638" lon="17.7052723">
        <ele>42.4354</ele>
        <time>2014-06-04T14:55:32Z</time>
      </trkpt>
      <trkpt lat="59.9222508" lon="17.7052195">
        <ele>42.4354</ele>
        <time>2014-06-04T14:55:33Z</time>
      </trkpt>
      <trkpt lat="59.9222444" lon="17.7051739">
        <ele>42.4354</ele>
        <time>2014-06-04T14:55:34Z</time>
      </trkpt>
      <trkpt lat="59.9222394" lon="17.7051261">
        <ele>42.4354</ele>
        <time>2014-06-04T14:55:35Z</time>
      </trkpt>
      <trkpt lat="59.9222293" lon="17.705074">
        <ele>41.9547</ele>
        <time>2014-06-04T14:55:36Z</time>
      </trkpt>
      <trkpt lat="59.9222192" lon="17.7050247">
        <ele>41.9547</ele>
        <time>2014-06-04T14:55:37Z</time>
      </trkpt>
      <trkpt lat="59.9221963" lon="17.7049559">
        <ele>41.474</ele>
        <time>2014-06-04T14:55:38Z</time>
      </trkpt>
      <trkpt lat="59.9221728" lon="17.7048937">
        <ele>41.474</ele>
        <time>2014-06-04T14:55:39Z</time>
      </trkpt>
      <trkpt lat="59.9221679" lon="17.7048517">
        <ele>40.9934</ele>
        <time>2014-06-04T14:55:40Z</time>
      </trkpt>
      <trkpt lat="59.9221669" lon="17.7048103">
        <ele>40.5128</ele>
        <time>2014-06-04T14:55:41Z</time>
      </trkpt>
      <trkpt lat="59.92217" lon="17.7047714">
        <ele>40.5128</ele>
        <time>2014-06-04T14:55:42Z</time>
      </trkpt>
      <trkpt lat="59.9221706" lon="17.7047275">
        <ele>40.0321</ele>
        <time>2014-06-04T14:55:43Z</time>
      </trkpt>
      <trkpt lat="59.9221643" lon="17.7046786">
        <ele>39.5513</ele>
        <time>2014-06-04T14:55:44Z</time>
      </trkpt>
      <trkpt lat="59.9221564" lon="17.7046398">
        <ele>39.5513</ele>
        <time>2014-06-04T14:55:45Z</time>
      </trkpt>
      <trkpt lat="59.9221513" lon="17.7046">
        <ele>39.0707</ele>
        <time>2014-06-04T14:55:46Z</time>
      </trkpt>
      <trkpt lat="59.922145" lon="17.7045481">
        <ele>38.5901</ele>
        <time>2014-06-04T14:55:47Z</time>
      </trkpt>
      <trkpt lat="59.9221409" lon="17.7045097">
        <ele>38.1094</ele>
        <time>2014-06-04T14:55:48Z</time>
      </trkpt>
      <trkpt lat="59.9221408" lon="17.7044713">
        <ele>37.6287</ele>
        <time>2014-06-04T14:55:49Z</time>
      </trkpt>
      <trkpt lat="59.9221395" lon="17.7044288">
        <ele>37.1481</ele>
        <time>2014-06-04T14:55:50Z</time>
      </trkpt>
      <trkpt lat="59.9221352" lon="17.7043867">
        <ele>37.1481</ele>
        <time>2014-06-04T14:55:51Z</time>
      </trkpt>
      <trkpt lat="59.9221332" lon="17.7043431">
        <ele>36.6675</ele>
        <time>2014-06-04T14:55:52Z</time>
      </trkpt>
      <trkpt lat="59.9221269" lon="17.7042989">
        <ele>36.6675</ele>
        <time>2014-06-04T14:55:53Z</time>
      </trkpt>
      <trkpt lat="59.9221141" lon="17.7042559">
        <ele>36.6675</ele>
        <time>2014-06-04T14:55:54Z</time>
      </trkpt>
      <trkpt lat="59.9220983" lon="17.7042023">
        <ele>36.1868</ele>
        <time>2014-06-04T14:55:55Z</time>
      </trkpt>
      <trkpt lat="59.9220833" lon="17.7041482">
        <ele>36.1868</ele>
        <time>2014-06-04T14:55:56Z</time>
      </trkpt>
      <trkpt lat="59.9220708" lon="17.7040995">
        <ele>36.6675</ele>
        <time>2014-06-04T14:55:57Z</time>
      </trkpt>
      <trkpt lat="59.9220568" lon="17.7040457">
        <ele>36.1868</ele>
        <time>2014-06-04T14:55:58Z</time>
      </trkpt>
      <trkpt lat="59.9220441" lon="17.7039892">
        <ele>36.6675</ele>
        <time>2014-06-04T14:55:59Z</time>
      </trkpt>
      <trkpt lat="59.9220316" lon="17.7039355">
        <ele>37.1481</ele>
        <time>2014-06-04T14:56:00Z</time>
      </trkpt>
      <trkpt lat="59.9220099" lon="17.7038748">
        <ele>38.1094</ele>
        <time>2014-06-04T14:56:01Z</time>
      </trkpt>
      <trkpt lat="59.9219954" lon="17.7038259">
        <ele>39.5513</ele>
        <time>2014-06-04T14:56:02Z</time>
      </trkpt>
      <trkpt lat="59.9219953" lon="17.7037749">
        <ele>41.474</ele>
        <time>2014-06-04T14:56:03Z</time>
      </trkpt>
      <trkpt lat="59.9219975" lon="17.7037218">
        <ele>42.916</ele>
        <time>2014-06-04T14:56:04Z</time>
      </trkpt>
      <trkpt lat="59.9220048" lon="17.7036826">
        <ele>42.916</ele>
        <time>2014-06-04T14:56:05Z</time>
      </trkpt>
      <trkpt lat="59.9220088" lon="17.7036417">
        <ele>42.916</ele>
        <time>2014-06-04T14:56:06Z</time>
      </trkpt>
      <trkpt lat="59.9220019" lon="17.7035909">
        <ele>43.3966</ele>
        <time>2014-06-04T14:56:07Z</time>
      </trkpt>
      <trkpt lat="59.9219846" lon="17.7035355">
        <ele>43.8773</ele>
        <time>2014-06-04T14:56:08Z</time>
      </trkpt>
      <trkpt lat="59.9219742" lon="17.7034903">
        <ele>43.3966</ele>
        <time>2014-06-04T14:56:09Z</time>
      </trkpt>
      <trkpt lat="59.9219633" lon="17.7034468">
        <ele>43.8773</ele>
        <time>2014-06-04T14:56:10Z</time>
      </trkpt>
      <trkpt lat="59.9219559" lon="17.7034081">
        <ele>43.3966</ele>
        <time>2014-06-04T14:56:11Z</time>
      </trkpt>
      <trkpt lat="59.9219457" lon="17.7033648">
        <ele>43.8773</ele>
        <time>2014-06-04T14:56:12Z</time>
      </trkpt>
      <trkpt lat="59.9219361" lon="17.7033199">
        <ele>44.358</ele>
        <time>2014-06-04T14:56:13Z</time>
      </trkpt>
      <trkpt lat="59.9219217" lon="17.7032765">
        <ele>43.8773</ele>
        <time>2014-06-04T14:56:14Z</time>
      </trkpt>
      <trkpt lat="59.9219087" lon="17.703226">
        <ele>44.358</ele>
        <time>2014-06-04T14:56:15Z</time>
      </trkpt>
      <trkpt lat="59.9218891" lon="17.7031709">
        <ele>45.3192</ele>
        <time>2014-06-04T14:56:16Z</time>
      </trkpt>
      <trkpt lat="59.9218721" lon="17.7031291">
        <ele>46.7612</ele>
        <time>2014-06-04T14:56:17Z</time>
      </trkpt>
      <trkpt lat="59.921854" lon="17.7030882">
        <ele>47.7225</ele>
        <time>2014-06-04T14:56:18Z</time>
      </trkpt>
      <trkpt lat="59.9218435" lon="17.7030486">
        <ele>48.2034</ele>
        <time>2014-06-04T14:56:19Z</time>
      </trkpt>
      <trkpt lat="59.9218284" lon="17.7030154">
        <ele>48.2034</ele>
        <time>2014-06-04T14:56:20Z</time>
      </trkpt>
      <trkpt lat="59.921813" lon="17.7029717">
        <ele>48.684</ele>
        <time>2014-06-04T14:56:21Z</time>
      </trkpt>
      <trkpt lat="59.9218032" lon="17.7029387">
        <ele>48.684</ele>
        <time>2014-06-04T14:56:22Z</time>
      </trkpt>
      <trkpt lat="59.9217844" lon="17.7029116">
        <ele>48.2034</ele>
        <time>2014-06-04T14:56:23Z</time>
      </trkpt>
      <trkpt lat="59.9217683" lon="17.7028837">
        <ele>48.2034</ele>
        <time>2014-06-04T14:56:24Z</time>
      </trkpt>
      <trkpt lat="59.9217535" lon="17.7028538">
        <ele>48.2034</ele>
        <time>2014-06-04T14:56:25Z</time>
      </trkpt>
      <trkpt lat="59.9217417" lon="17.7028346">
        <ele>48.684</ele>
        <time>2014-06-04T14:56:26Z</time>
      </trkpt>
      <trkpt lat="59.9217312" lon="17.7028116">
        <ele>48.684</ele>
        <time>2014-06-04T14:56:27Z</time>
      </trkpt>
      <trkpt lat="59.9217224" lon="17.7027875">
        <ele>50.126</ele>
        <time>2014-06-04T14:56:28Z</time>
      </trkpt>
      <trkpt lat="59.9217093" lon="17.7027631">
        <ele>49.6453</ele>
        <time>2014-06-04T14:56:29Z</time>
      </trkpt>
      <trkpt lat="59.9217074" lon="17.7027511">
        <ele>49.6453</ele>
        <time>2014-06-04T14:56:30Z</time>
      </trkpt>
      <trkpt lat="59.9216986" lon="17.7027233">
        <ele>50.126</ele>
        <time>2014-06-04T14:56:31Z</time>
      </trkpt>
      <trkpt lat="59.9216847" lon="17.7026963">
        <ele>50.126</ele>
        <time>2014-06-04T14:56:32Z</time>
      </trkpt>
      <trkpt lat="59.9216705" lon="17.7026725">
        <ele>50.6066</ele>
        <time>2014-06-04T14:56:33Z</time>
      </trkpt>
      <trkpt lat="59.9216559" lon="17.7026549">
        <ele>50.6066</ele>
        <time>2014-06-04T14:56:34Z</time>
      </trkpt>
      <trkpt lat="59.9216434" lon="17.7026455">
        <ele>51.5679</ele>
        <time>2014-06-04T14:56:35Z</time>
      </trkpt>
      <trkpt lat="59.92163" lon="17.7026305">
        <ele>52.5292</ele>
        <time>2014-06-04T14:56:36Z</time>
      </trkpt>
      <trkpt lat="59.921622" lon="17.7026179">
        <ele>52.5292</ele>
        <time>2014-06-04T14:56:37Z</time>
      </trkpt>
      <trkpt lat="59.9216065" lon="17.7026058">
        <ele>52.0486</ele>
        <time>2014-06-04T14:56:38Z</time>
      </trkpt>
      <trkpt lat="59.9215829" lon="17.7025673">
        <ele>49.6453</ele>
        <time>2014-06-04T14:56:39Z</time>
      </trkpt>
      <trkpt lat="59.9215706" lon="17.702548">
        <ele>50.126</ele>
        <time>2014-06-04T14:56:40Z</time>
      </trkpt>
      <trkpt lat="59.92155" lon="17.702522">
        <ele>47.7225</ele>
        <time>2014-06-04T14:56:41Z</time>
      </trkpt>
      <trkpt lat="59.9215274" lon="17.7025055">
        <ele>45.7999</ele>
        <time>2014-06-04T14:56:42Z</time>
      </trkpt>
      <trkpt lat="59.9215058" lon="17.7024803">
        <ele>44.8386</ele>
        <time>2014-06-04T14:56:43Z</time>
      </trkpt>
      <trkpt lat="59.9214915" lon="17.7024557">
        <ele>43.3966</ele>
        <time>2014-06-04T14:56:44Z</time>
      </trkpt>
      <trkpt lat="59.9214749" lon="17.702432">
        <ele>42.916</ele>
        <time>2014-06-04T14:56:45Z</time>
      </trkpt>
      <trkpt lat="59.9214575" lon="17.7024149">
        <ele>42.916</ele>
        <time>2014-06-04T14:56:46Z</time>
      </trkpt>
      <trkpt lat="59.9214322" lon="17.7024036">
        <ele>43.8773</ele>
        <time>2014-06-04T14:56:47Z</time>
      </trkpt>
      <trkpt lat="59.9214059" lon="17.7023858">
        <ele>44.8386</ele>
        <time>2014-06-04T14:56:48Z</time>
      </trkpt>
      <trkpt lat="59.9213841" lon="17.702361">
        <ele>44.358</ele>
        <time>2014-06-04T14:56:49Z</time>
      </trkpt>
      <trkpt lat="59.921367" lon="17.7023316">
        <ele>42.4354</ele>
        <time>2014-06-04T14:56:50Z</time>
      </trkpt>
      <trkpt lat="59.9213534" lon="17.7023057">
        <ele>41.9547</ele>
        <time>2014-06-04T14:56:51Z</time>
      </trkpt>
      <trkpt lat="59.9213282" lon="17.7022778">
        <ele>40.9934</ele>
        <time>2014-06-04T14:56:52Z</time>
      </trkpt>
      <trkpt lat="59.9212991" lon="17.7022439">
        <ele>39.5513</ele>
        <time>2014-06-04T14:56:53Z</time>
      </trkpt>
      <trkpt lat="59.9212715" lon="17.7022171">
        <ele>38.1094</ele>
        <time>2014-06-04T14:56:54Z</time>
      </trkpt>
      <trkpt lat="59.9212484" lon="17.7021882">
        <ele>37.1481</ele>
        <time>2014-06-04T14:56:55Z</time>
      </trkpt>
      <trkpt lat="59.921223" lon="17.7021683">
        <ele>35.2255</ele>
        <time>2014-06-04T14:56:56Z</time>
      </trkpt>
      <trkpt lat="59.9212035" lon="17.7021684">
        <ele>35.7061</ele>
        <time>2014-06-04T14:56:57Z</time>
      </trkpt>
      <trkpt lat="59.9211894" lon="17.7021586">
        <ele>36.1868</ele>
        <time>2014-06-04T14:56:58Z</time>
      </trkpt>
      <trkpt lat="59.9211718" lon="17.7021426">
        <ele>37.1481</ele>
        <time>2014-06-04T14:56:59Z</time>
      </trkpt>
      <trkpt lat="59.9211407" lon="17.7021208">
        <ele>37.1481</ele>
        <time>2014-06-04T14:57:00Z</time>
      </trkpt>
      <trkpt lat="59.9211003" lon="17.7020838">
        <ele>35.7061</ele>
        <time>2014-06-04T14:57:01Z</time>
      </trkpt>
      <trkpt lat="59.9210757" lon="17.7020602">
        <ele>35.7061</ele>
        <time>2014-06-04T14:57:02Z</time>
      </trkpt>
      <trkpt lat="59.9210375" lon="17.7020328">
        <ele>34.7449</ele>
        <time>2014-06-04T14:57:03Z</time>
      </trkpt>
      <trkpt lat="59.9210025" lon="17.7020111">
        <ele>34.7449</ele>
        <time>2014-06-04T14:57:04Z</time>
      </trkpt>
      <trkpt lat="59.9209687" lon="17.7019897">
        <ele>34.2642</ele>
        <time>2014-06-04T14:57:05Z</time>
      </trkpt>
      <trkpt lat="59.9209292" lon="17.7019655">
        <ele>33.3029</ele>
        <time>2014-06-04T14:57:06Z</time>
      </trkpt>
      <trkpt lat="59.9208915" lon="17.7019533">
        <ele>33.7834</ele>
        <time>2014-06-04T14:57:07Z</time>
      </trkpt>
      <trkpt lat="59.9208581" lon="17.7019359">
        <ele>33.3029</ele>
        <time>2014-06-04T14:57:08Z</time>
      </trkpt>
      <trkpt lat="59.920833" lon="17.7019193">
        <ele>33.3029</ele>
        <time>2014-06-04T14:57:09Z</time>
      </trkpt>
      <trkpt lat="59.9208091" lon="17.7019082">
        <ele>33.3029</ele>
        <time>2014-06-04T14:57:10Z</time>
      </trkpt>
      <trkpt lat="59.9207877" lon="17.7018995">
        <ele>33.3029</ele>
        <time>2014-06-04T14:57:11Z</time>
      </trkpt>
      <trkpt lat="59.9207724" lon="17.7018934">
        <ele>34.2642</ele>
        <time>2014-06-04T14:57:12Z</time>
      </trkpt>
      <trkpt lat="59.9207506" lon="17.7018867">
        <ele>34.7449</ele>
        <time>2014-06-04T14:57:13Z</time>
      </trkpt>
      <trkpt lat="59.9207221" lon="17.7018789">
        <ele>34.7449</ele>
        <time>2014-06-04T14:57:14Z</time>
      </trkpt>
      <trkpt lat="59.9206978" lon="17.7018704">
        <ele>34.7449</ele>
        <time>2014-06-04T14:57:15Z</time>
      </trkpt>
      <trkpt lat="59.9206791" lon="17.701868">
        <ele>35.7061</ele>
        <time>2014-06-04T14:57:16Z</time>
      </trkpt>
      <trkpt lat="59.9206556" lon="17.7018649">
        <ele>35.7061</ele>
        <time>2014-06-04T14:57:17Z</time>
      </trkpt>
      <trkpt lat="59.9206357" lon="17.7018742">
        <ele>37.1481</ele>
        <time>2014-06-04T14:57:18Z</time>
      </trkpt>
      <trkpt lat="59.9206149" lon="17.7018901">
        <ele>38.5901</ele>
        <time>2014-06-04T14:57:19Z</time>
      </trkpt>
      <trkpt lat="59.9205977" lon="17.701898">
        <ele>39.5513</ele>
        <time>2014-06-04T14:57:20Z</time>
      </trkpt>
      <trkpt lat="59.9205822" lon="17.7018939">
        <ele>40.0321</ele>
        <time>2014-06-04T14:57:21Z</time>
      </trkpt>
      <trkpt lat="59.920562" lon="17.7018917">
        <ele>40.0321</ele>
        <time>2014-06-04T14:57:22Z</time>
      </trkpt>
      <trkpt lat="59.9205404" lon="17.7018861">
        <ele>40.0321</ele>
        <time>2014-06-04T14:57:23Z</time>
      </trkpt>
      <trkpt lat="59.9205222" lon="17.7018825">
        <ele>40.9934</ele>
        <time>2014-06-04T14:57:24Z</time>
      </trkpt>
      <trkpt lat="59.9204999" lon="17.7018793">
        <ele>42.4354</ele>
        <time>2014-06-04T14:57:25Z</time>
      </trkpt>
      <trkpt lat="59.920475" lon="17.7018572">
        <ele>42.4354</ele>
        <time>2014-06-04T14:57:26Z</time>
      </trkpt>
      <trkpt lat="59.920464" lon="17.7018266">
        <ele>42.4354</ele>
        <time>2014-06-04T14:57:27Z</time>
      </trkpt>
      <trkpt lat="59.9204643" lon="17.7017934">
        <ele>41.9547</ele>
        <time>2014-06-04T14:57:28Z</time>
      </trkpt>
      <trkpt lat="59.9204636" lon="17.7017613">
        <ele>41.9547</ele>
        <time>2014-06-04T14:57:29Z</time>
      </trkpt>
      <trkpt lat="59.9204635" lon="17.7017313">
        <ele>41.9547</ele>
        <time>2014-06-04T14:57:30Z</time>
      </trkpt>
      <trkpt lat="59.9204615" lon="17.7016976">
        <ele>41.474</ele>
        <time>2014-06-04T14:57:31Z</time>
      </trkpt>
      <trkpt lat="59.9204531" lon="17.7016535">
        <ele>41.474</ele>
        <time>2014-06-04T14:57:32Z</time>
      </trkpt>
      <trkpt lat="59.9204527" lon="17.7016067">
        <ele>40.9934</ele>
        <time>2014-06-04T14:57:33Z</time>
      </trkpt>
      <trkpt lat="59.9204476" lon="17.7015532">
        <ele>40.5128</ele>
        <time>2014-06-04T14:57:34Z</time>
      </trkpt>
      <trkpt lat="59.9204446" lon="17.7015034">
        <ele>40.5128</ele>
        <time>2014-06-04T14:57:35Z</time>
      </trkpt>
      <trkpt lat="59.9204409" lon="17.7014483">
        <ele>40.5128</ele>
        <time>2014-06-04T14:57:36Z</time>
      </trkpt>
      <trkpt lat="59.9204331" lon="17.701385">
        <ele>40.9934</ele>
        <time>2014-06-04T14:57:37Z</time>
      </trkpt>
      <trkpt lat="59.9204251" lon="17.701324">
        <ele>41.474</ele>
        <time>2014-06-04T14:57:38Z</time>
      </trkpt>
      <trkpt lat="59.9204116" lon="17.7012685">
        <ele>41.9547</ele>
        <time>2014-06-04T14:57:39Z</time>
      </trkpt>
      <trkpt lat="59.9203997" lon="17.7012151">
        <ele>42.916</ele>
        <time>2014-06-04T14:57:40Z</time>
      </trkpt>
      <trkpt lat="59.9203883" lon="17.7011573">
        <ele>43.3966</ele>
        <time>2014-06-04T14:57:41Z</time>
      </trkpt>
      <trkpt lat="59.9203684" lon="17.7010897">
        <ele>44.358</ele>
        <time>2014-06-04T14:57:42Z</time>
      </trkpt>
      <trkpt lat="59.9203498" lon="17.7010252">
        <ele>45.7999</ele>
        <time>2014-06-04T14:57:43Z</time>
      </trkpt>
      <trkpt lat="59.9203346" lon="17.7009738">
        <ele>45.7999</ele>
        <time>2014-06-04T14:57:44Z</time>
      </trkpt>
      <trkpt lat="59.9203153" lon="17.7009212">
        <ele>46.2806</ele>
        <time>2014-06-04T14:57:45Z</time>
      </trkpt>
      <trkpt lat="59.9202974" lon="17.7008658">
        <ele>47.7225</ele>
        <time>2014-06-04T14:57:46Z</time>
      </trkpt>
      <trkpt lat="59.9202793" lon="17.7008025">
        <ele>49.1646</ele>
        <time>2014-06-04T14:57:47Z</time>
      </trkpt>
      <trkpt lat="59.9202686" lon="17.7007468">
        <ele>50.126</ele>
        <time>2014-06-04T14:57:48Z</time>
      </trkpt>
      <trkpt lat="59.9202606" lon="17.7006956">
        <ele>50.126</ele>
        <time>2014-06-04T14:57:49Z</time>
      </trkpt>
      <trkpt lat="59.9202588" lon="17.7006465">
        <ele>50.6066</ele>
        <time>2014-06-04T14:57:50Z</time>
      </trkpt>
      <trkpt lat="59.920256" lon="17.7005978">
        <ele>50.6066</ele>
        <time>2014-06-04T14:57:51Z</time>
      </trkpt>
      <trkpt lat="59.9202526" lon="17.7005543">
        <ele>51.0872</ele>
        <time>2014-06-04T14:57:52Z</time>
      </trkpt>
      <trkpt lat="59.9202518" lon="17.7005013">
        <ele>51.0872</ele>
        <time>2014-06-04T14:57:53Z</time>
      </trkpt>
      <trkpt lat="59.920248" lon="17.7004461">
        <ele>51.5679</ele>
        <time>2014-06-04T14:57:54Z</time>
      </trkpt>
      <trkpt lat="59.9202454" lon="17.7004062">
        <ele>51.5679</ele>
        <time>2014-06-04T14:57:55Z</time>
      </trkpt>
      <trkpt lat="59.9202367" lon="17.7003508">
        <ele>51.5679</ele>
        <time>2014-06-04T14:57:56Z</time>
      </trkpt>
      <trkpt lat="59.9202262" lon="17.7003004">
        <ele>51.5679</ele>
        <time>2014-06-04T14:57:57Z</time>
      </trkpt>
      <trkpt lat="59.9202225" lon="17.7002565">
        <ele>51.5679</ele>
        <time>2014-06-04T14:57:58Z</time>
      </trkpt>
      <trkpt lat="59.920215" lon="17.7002017">
        <ele>51.0872</ele>
        <time>2014-06-04T14:57:59Z</time>
      </trkpt>
      <trkpt lat="59.9202114" lon="17.7001533">
        <ele>50.126</ele>
        <time>2014-06-04T14:58:00Z</time>
      </trkpt>
      <trkpt lat="59.9202072" lon="17.7001088">
        <ele>50.126</ele>
        <time>2014-06-04T14:58:01Z</time>
      </trkpt>
      <trkpt lat="59.9202027" lon="17.7000622">
        <ele>49.1646</ele>
        <time>2014-06-04T14:58:02Z</time>
      </trkpt>
      <trkpt lat="59.9201989" lon="17.7000088">
        <ele>49.6453</ele>
        <time>2014-06-04T14:58:03Z</time>
      </trkpt>
      <trkpt lat="59.9201967" lon="17.6999659">
        <ele>48.684</ele>
        <time>2014-06-04T14:58:04Z</time>
      </trkpt>
      <trkpt lat="59.9201845" lon="17.6999229">
        <ele>48.2034</ele>
        <time>2014-06-04T14:58:05Z</time>
      </trkpt>
      <trkpt lat="59.9201792" lon="17.6998825">
        <ele>47.2418</ele>
        <time>2014-06-04T14:58:06Z</time>
      </trkpt>
      <trkpt lat="59.9201818" lon="17.6998474">
        <ele>46.2806</ele>
        <time>2014-06-04T14:58:07Z</time>
      </trkpt>
      <trkpt lat="59.9201785" lon="17.6998069">
        <ele>45.3192</ele>
        <time>2014-06-04T14:58:08Z</time>
      </trkpt>
      <trkpt lat="59.9201759" lon="17.6997598">
        <ele>45.7999</ele>
        <time>2014-06-04T14:58:09Z</time>
      </trkpt>
      <trkpt lat="59.9201761" lon="17.6997224">
        <ele>45.3192</ele>
        <time>2014-06-04T14:58:10Z</time>
      </trkpt>
      <trkpt lat="59.9201707" lon="17.6996845">
        <ele>44.358</ele>
        <time>2014-06-04T14:58:11Z</time>
      </trkpt>
      <trkpt lat="59.9201697" lon="17.6996436">
        <ele>43.8773</ele>
        <time>2014-06-04T14:58:12Z</time>
      </trkpt>
      <trkpt lat="59.9201689" lon="17.6996033">
        <ele>43.3966</ele>
        <time>2014-06-04T14:58:13Z</time>
      </trkpt>
      <trkpt lat="59.9201716" lon="17.6995711">
        <ele>42.916</ele>
        <time>2014-06-04T14:58:14Z</time>
      </trkpt>
      <trkpt lat="59.9201694" lon="17.6995337">
        <ele>42.916</ele>
        <time>2014-06-04T14:58:15Z</time>
      </trkpt>
      <trkpt lat="59.9201678" lon="17.699497">
        <ele>42.4354</ele>
        <time>2014-06-04T14:58:16Z</time>
      </trkpt>
      <trkpt lat="59.9201651" lon="17.6994628">
        <ele>41.9547</ele>
        <time>2014-06-04T14:58:17Z</time>
      </trkpt>
      <trkpt lat="59.9201604" lon="17.6994169">
        <ele>41.9547</ele>
        <time>2014-06-04T14:58:18Z</time>
      </trkpt>
      <trkpt lat="59.9201529" lon="17.6993613">
        <ele>40.9934</ele>
        <time>2014-06-04T14:58:19Z</time>
      </trkpt>
      <trkpt lat="59.9201495" lon="17.6993132">
        <ele>40.9934</ele>
        <time>2014-06-04T14:58:20Z</time>
      </trkpt>
      <trkpt lat="59.9201451" lon="17.6992697">
        <ele>40.0321</ele>
        <time>2014-06-04T14:58:21Z</time>
      </trkpt>
      <trkpt lat="59.9201448" lon="17.6992173">
        <ele>40.0321</ele>
        <time>2014-06-04T14:58:22Z</time>
      </trkpt>
      <trkpt lat="59.9201399" lon="17.6991662">
        <ele>39.0707</ele>
        <time>2014-06-04T14:58:23Z</time>
      </trkpt>
      <trkpt lat="59.9201353" lon="17.6991143">
        <ele>38.5901</ele>
        <time>2014-06-04T14:58:24Z</time>
      </trkpt>
      <trkpt lat="59.9201262" lon="17.6990635">
        <ele>38.1094</ele>
        <time>2014-06-04T14:58:25Z</time>
      </trkpt>
      <trkpt lat="59.9201139" lon="17.6990048">
        <ele>38.1094</ele>
        <time>2014-06-04T14:58:26Z</time>
      </trkpt>
      <trkpt lat="59.9201071" lon="17.6989464">
        <ele>38.1094</ele>
        <time>2014-06-04T14:58:27Z</time>
      </trkpt>
      <trkpt lat="59.920104" lon="17.6988993">
        <ele>37.6287</ele>
        <time>2014-06-04T14:58:28Z</time>
      </trkpt>
      <trkpt lat="59.9201009" lon="17.6988428">
        <ele>37.1481</ele>
        <time>2014-06-04T14:58:29Z</time>
      </trkpt>
      <trkpt lat="59.9200995" lon="17.6987936">
        <ele>36.1868</ele>
        <time>2014-06-04T14:58:30Z</time>
      </trkpt>
      <trkpt lat="59.9200943" lon="17.6987439">
        <ele>35.2255</ele>
        <time>2014-06-04T14:58:31Z</time>
      </trkpt>
      <trkpt lat="59.920082" lon="17.6986994">
        <ele>34.2642</ele>
        <time>2014-06-04T14:58:32Z</time>
      </trkpt>
      <trkpt lat="59.9200709" lon="17.6986634">
        <ele>34.2642</ele>
        <time>2014-06-04T14:58:33Z</time>
      </trkpt>
      <trkpt lat="59.9200606" lon="17.6986284">
        <ele>34.2642</ele>
        <time>2014-06-04T14:58:34Z</time>
      </trkpt>
      <trkpt lat="59.9200464" lon="17.6986012">
        <ele>34.2642</ele>
        <time>2014-06-04T14:58:35Z</time>
      </trkpt>
      <trkpt lat="59.9200276" lon="17.6985883">
        <ele>34.2642</ele>
        <time>2014-06-04T14:58:36Z</time>
      </trkpt>
      <trkpt lat="59.9200088" lon="17.6985841">
        <ele>33.7834</ele>
        <time>2014-06-04T14:58:37Z</time>
      </trkpt>
      <trkpt lat="59.9199907" lon="17.6985891">
        <ele>33.7834</ele>
        <time>2014-06-04T14:58:38Z</time>
      </trkpt>
      <trkpt lat="59.9199756" lon="17.6986057">
        <ele>33.3029</ele>
        <time>2014-06-04T14:58:39Z</time>
      </trkpt>
      <trkpt lat="59.9199668" lon="17.6986304">
        <ele>32.3416</ele>
        <time>2014-06-04T14:58:40Z</time>
      </trkpt>
      <trkpt lat="59.9199501" lon="17.6986623">
        <ele>32.3416</ele>
        <time>2014-06-04T14:58:41Z</time>
      </trkpt>
      <trkpt lat="59.9199347" lon="17.6987017">
        <ele>31.8607</ele>
        <time>2014-06-04T14:58:42Z</time>
      </trkpt>
      <trkpt lat="59.9199178" lon="17.6987433">
        <ele>31.3801</ele>
        <time>2014-06-04T14:58:43Z</time>
      </trkpt>
      <trkpt lat="59.9199042" lon="17.6987842">
        <ele>31.3801</ele>
        <time>2014-06-04T14:58:44Z</time>
      </trkpt>
      <trkpt lat="59.9198988" lon="17.6988321">
        <ele>31.3801</ele>
        <time>2014-06-04T14:58:45Z</time>
      </trkpt>
      <trkpt lat="59.9198916" lon="17.6988697">
        <ele>30.4188</ele>
        <time>2014-06-04T14:58:46Z</time>
      </trkpt>
      <trkpt lat="59.9198905" lon="17.6989082">
        <ele>29.9381</ele>
        <time>2014-06-04T14:58:47Z</time>
      </trkpt>
      <trkpt lat="59.9198905" lon="17.6989434">
        <ele>29.4575</ele>
        <time>2014-06-04T14:58:48Z</time>
      </trkpt>
      <trkpt lat="59.919884" lon="17.6989897">
        <ele>28.4962</ele>
        <time>2014-06-04T14:58:49Z</time>
      </trkpt>
      <trkpt lat="59.9198789" lon="17.6990396">
        <ele>28.4962</ele>
        <time>2014-06-04T14:58:50Z</time>
      </trkpt>
      <trkpt lat="59.9198693" lon="17.6990868">
        <ele>28.0155</ele>
        <time>2014-06-04T14:58:51Z</time>
      </trkpt>
      <trkpt lat="59.9198514" lon="17.699126">
        <ele>28.4962</ele>
        <time>2014-06-04T14:58:52Z</time>
      </trkpt>
      <trkpt lat="59.9198332" lon="17.6991578">
        <ele>28.9769</ele>
        <time>2014-06-04T14:58:53Z</time>
      </trkpt>
      <trkpt lat="59.9198095" lon="17.6991929">
        <ele>28.4962</ele>
        <time>2014-06-04T14:58:54Z</time>
      </trkpt>
      <trkpt lat="59.9197947" lon="17.6992272">
        <ele>28.9769</ele>
        <time>2014-06-04T14:58:55Z</time>
      </trkpt>
      <trkpt lat="59.9197854" lon="17.6992666">
        <ele>28.9769</ele>
        <time>2014-06-04T14:58:56Z</time>
      </trkpt>
      <trkpt lat="59.9197884" lon="17.6993166">
        <ele>31.8607</ele>
        <time>2014-06-04T14:58:57Z</time>
      </trkpt>
      <trkpt lat="59.9197763" lon="17.699356">
        <ele>32.3416</ele>
        <time>2014-06-04T14:58:58Z</time>
      </trkpt>
      <trkpt lat="59.9197648" lon="17.6993988">
        <ele>34.2642</ele>
        <time>2014-06-04T14:58:59Z</time>
      </trkpt>
      <trkpt lat="59.919754" lon="17.6994271">
        <ele>35.2255</ele>
        <time>2014-06-04T14:59:00Z</time>
      </trkpt>
      <trkpt lat="59.9197394" lon="17.6994629">
        <ele>36.6675</ele>
        <time>2014-06-04T14:59:01Z</time>
      </trkpt>
      <trkpt lat="59.9197223" lon="17.6995106">
        <ele>38.5901</ele>
        <time>2014-06-04T14:59:02Z</time>
      </trkpt>
      <trkpt lat="59.9197058" lon="17.6995656">
        <ele>40.9934</ele>
        <time>2014-06-04T14:59:03Z</time>
      </trkpt>
      <trkpt lat="59.9196886" lon="17.6996017">
        <ele>41.474</ele>
        <time>2014-06-04T14:59:04Z</time>
      </trkpt>
      <trkpt lat="59.919668" lon="17.6996424">
        <ele>40.9934</ele>
        <time>2014-06-04T14:59:05Z</time>
      </trkpt>
      <trkpt lat="59.9196487" lon="17.6996837">
        <ele>40.5128</ele>
        <time>2014-06-04T14:59:06Z</time>
      </trkpt>
      <trkpt lat="59.9196333" lon="17.6997232">
        <ele>40.5128</ele>
        <time>2014-06-04T14:59:07Z</time>
      </trkpt>
      <trkpt lat="59.9196197" lon="17.6997685">
        <ele>40.9934</ele>
        <time>2014-06-04T14:59:08Z</time>
      </trkpt>
      <trkpt lat="59.9196011" lon="17.6998125">
        <ele>42.4354</ele>
        <time>2014-06-04T14:59:09Z</time>
      </trkpt>
      <trkpt lat="59.9195873" lon="17.6998499">
        <ele>42.916</ele>
        <time>2014-06-04T14:59:10Z</time>
      </trkpt>
      <trkpt lat="59.9195798" lon="17.6999006">
        <ele>44.8386</ele>
        <time>2014-06-04T14:59:11Z</time>
      </trkpt>
      <trkpt lat="59.9195699" lon="17.6999558">
        <ele>45.7999</ele>
        <time>2014-06-04T14:59:12Z</time>
      </trkpt>
      <trkpt lat="59.9195539" lon="17.699994">
        <ele>44.358</ele>
        <time>2014-06-04T14:59:13Z</time>
      </trkpt>
      <trkpt lat="59.9195404" lon="17.700026">
        <ele>44.358</ele>
        <time>2014-06-04T14:59:14Z</time>
      </trkpt>
      <trkpt lat="59.9195302" lon="17.7000472">
        <ele>43.8773</ele>
        <time>2014-06-04T14:59:15Z</time>
      </trkpt>
      <trkpt lat="59.9195215" lon="17.7000737">
        <ele>42.916</ele>
        <time>2014-06-04T14:59:16Z</time>
      </trkpt>
      <trkpt lat="59.9195074" lon="17.7001046">
        <ele>42.916</ele>
        <time>2014-06-04T14:59:17Z</time>
      </trkpt>
      <trkpt lat="59.9194943" lon="17.7001332">
        <ele>42.4354</ele>
        <time>2014-06-04T14:59:18Z</time>
      </trkpt>
      <trkpt lat="59.9194768" lon="17.7001558">
        <ele>41.474</ele>
        <time>2014-06-04T14:59:19Z</time>
      </trkpt>
      <trkpt lat="59.9194659" lon="17.7001885">
        <ele>41.474</ele>
        <time>2014-06-04T14:59:20Z</time>
      </trkpt>
      <trkpt lat="59.9194571" lon="17.700225">
        <ele>42.4354</ele>
        <time>2014-06-04T14:59:21Z</time>
      </trkpt>
      <trkpt lat="59.9194395" lon="17.7002591">
        <ele>42.4354</ele>
        <time>2014-06-04T14:59:22Z</time>
      </trkpt>
      <trkpt lat="59.9194218" lon="17.7003006">
        <ele>43.3966</ele>
        <time>2014-06-04T14:59:23Z</time>
      </trkpt>
      <trkpt lat="59.9194036" lon="17.7003273">
        <ele>43.8773</ele>
        <time>2014-06-04T14:59:24Z</time>
      </trkpt>
      <trkpt lat="59.9193794" lon="17.7003508">
        <ele>43.8773</ele>
        <time>2014-06-04T14:59:25Z</time>
      </trkpt>
      <trkpt lat="59.9193565" lon="17.7003737">
        <ele>43.3966</ele>
        <time>2014-06-04T14:59:26Z</time>
      </trkpt>
      <trkpt lat="59.9193326" lon="17.700393">
        <ele>41.474</ele>
        <time>2014-06-04T14:59:27Z</time>
      </trkpt>
      <trkpt lat="59.9193179" lon="17.7004205">
        <ele>41.474</ele>
        <time>2014-06-04T14:59:28Z</time>
      </trkpt>
      <trkpt lat="59.9192985" lon="17.7004472">
        <ele>40.5128</ele>
        <time>2014-06-04T14:59:29Z</time>
      </trkpt>
      <trkpt lat="59.9192907" lon="17.7004914">
        <ele>40.5128</ele>
        <time>2014-06-04T14:59:30Z</time>
      </trkpt>
      <trkpt lat="59.9192815" lon="17.7005386">
        <ele>39.0707</ele>
        <time>2014-06-04T14:59:31Z</time>
      </trkpt>
      <trkpt lat="59.9192701" lon="17.7005839">
        <ele>37.6287</ele>
        <time>2014-06-04T14:59:32Z</time>
      </trkpt>
      <trkpt lat="59.9192666" lon="17.7006437">
        <ele>39.5513</ele>
        <time>2014-06-04T14:59:33Z</time>
      </trkpt>
      <trkpt lat="59.9192597" lon="17.7006959">
        <ele>39.0707</ele>
        <time>2014-06-04T14:59:34Z</time>
      </trkpt>
      <trkpt lat="59.919256" lon="17.7007237">
        <ele>37.6287</ele>
        <time>2014-06-04T14:59:35Z</time>
      </trkpt>
      <trkpt lat="59.9192585" lon="17.7007651">
        <ele>38.1094</ele>
        <time>2014-06-04T14:59:36Z</time>
      </trkpt>
      <trkpt lat="59.9192616" lon="17.7008127">
        <ele>37.6287</ele>
        <time>2014-06-04T14:59:37Z</time>
      </trkpt>
      <trkpt lat="59.919253" lon="17.7008621">
        <ele>36.6675</ele>
        <time>2014-06-04T14:59:38Z</time>
      </trkpt>
      <trkpt lat="59.9192451" lon="17.7009124">
        <ele>34.2642</ele>
        <time>2014-06-04T14:59:39Z</time>
      </trkpt>
      <trkpt lat="59.9192419" lon="17.7009563">
        <ele>34.2642</ele>
        <time>2014-06-04T14:59:40Z</time>
      </trkpt>
      <trkpt lat="59.9192349" lon="17.7010018">
        <ele>34.2642</ele>
        <time>2014-06-04T14:59:41Z</time>
      </trkpt>
      <trkpt lat="59.91923" lon="17.7010486">
        <ele>34.7449</ele>
        <time>2014-06-04T14:59:42Z</time>
      </trkpt>
      <trkpt lat="59.9192251" lon="17.7010936">
        <ele>36.1868</ele>
        <time>2014-06-04T14:59:43Z</time>
      </trkpt>
      <trkpt lat="59.9192111" lon="17.7011293">
        <ele>36.1868</ele>
        <time>2014-06-04T14:59:44Z</time>
      </trkpt>
      <trkpt lat="59.9191981" lon="17.7011576">
        <ele>34.7449</ele>
        <time>2014-06-04T14:59:45Z</time>
      </trkpt>
      <trkpt lat="59.9191801" lon="17.7011999">
        <ele>35.2255</ele>
        <time>2014-06-04T14:59:46Z</time>
      </trkpt>
      <trkpt lat="59.9191611" lon="17.7012377">
        <ele>35.2255</ele>
        <time>2014-06-04T14:59:47Z</time>
      </trkpt>
      <trkpt lat="59.9191443" lon="17.7012845">
        <ele>35.7061</ele>
        <time>2014-06-04T14:59:48Z</time>
      </trkpt>
      <trkpt lat="59.9191161" lon="17.7013251">
        <ele>34.7449</ele>
        <time>2014-06-04T14:59:49Z</time>
      </trkpt>
      <trkpt lat="59.9190941" lon="17.701353">
        <ele>36.1868</ele>
        <time>2014-06-04T14:59:50Z</time>
      </trkpt>
      <trkpt lat="59.9190722" lon="17.7013743">
        <ele>37.6287</ele>
        <time>2014-06-04T14:59:51Z</time>
      </trkpt>
      <trkpt lat="59.9190713" lon="17.701418">
        <ele>43.8773</ele>
        <time>2014-06-04T14:59:52Z</time>
      </trkpt>
      <trkpt lat="59.9190599" lon="17.7014229">
        <ele>43.8773</ele>
        <time>2014-06-04T14:59:53Z</time>
      </trkpt>
      <trkpt lat="59.9190522" lon="17.7014314">
        <ele>45.3192</ele>
        <time>2014-06-04T14:59:54Z</time>
      </trkpt>
      <trkpt lat="59.919034" lon="17.701433">
        <ele>46.7612</ele>
        <time>2014-06-04T14:59:55Z</time>
      </trkpt>
      <trkpt lat="59.919008" lon="17.7014392">
        <ele>45.7999</ele>
        <time>2014-06-04T14:59:56Z</time>
      </trkpt>
      <trkpt lat="59.9189789" lon="17.7014454">
        <ele>45.3192</ele>
        <time>2014-06-04T14:59:57Z</time>
      </trkpt>
      <trkpt lat="59.9189458" lon="17.7014541">
        <ele>45.3192</ele>
        <time>2014-06-04T14:59:58Z</time>
      </trkpt>
      <trkpt lat="59.9189263" lon="17.7014667">
        <ele>45.7999</ele>
        <time>2014-06-04T14:59:59Z</time>
      </trkpt>
      <trkpt lat="59.9189002" lon="17.7014705">
        <ele>45.3192</ele>
        <time>2014-06-04T15:00:00Z</time>
      </trkpt>
      <trkpt lat="59.9188669" lon="17.701464">
        <ele>44.358</ele>
        <time>2014-06-04T15:00:01Z</time>
      </trkpt>
      <trkpt lat="59.9188478" lon="17.7014689">
        <ele>44.358</ele>
        <time>2014-06-04T15:00:02Z</time>
      </trkpt>
      <trkpt lat="59.9188334" lon="17.7014655">
        <ele>44.8386</ele>
        <time>2014-06-04T15:00:03Z</time>
      </trkpt>
      <trkpt lat="59.9188224" lon="17.7014475">
        <ele>44.8386</ele>
        <time>2014-06-04T15:00:04Z</time>
      </trkpt>
      <trkpt lat="59.9188056" lon="17.7014343">
        <ele>44.8386</ele>
        <time>2014-06-04T15:00:05Z</time>
      </trkpt>
      <trkpt lat="59.9187871" lon="17.7014153">
        <ele>44.8386</ele>
        <time>2014-06-04T15:00:06Z</time>
      </trkpt>
      <trkpt lat="59.9187661" lon="17.7014012">
        <ele>44.8386</ele>
        <time>2014-06-04T15:00:07Z</time>
      </trkpt>
      <trkpt lat="59.918754" lon="17.7013956">
        <ele>45.3192</ele>
        <time>2014-06-04T15:00:08Z</time>
      </trkpt>
      <trkpt lat="59.9187348" lon="17.7013827">
        <ele>45.7999</ele>
        <time>2014-06-04T15:00:09Z</time>
      </trkpt>
      <trkpt lat="59.9187136" lon="17.701375">
        <ele>45.3192</ele>
        <time>2014-06-04T15:00:10Z</time>
      </trkpt>
      <trkpt lat="59.9186993" lon="17.7013763">
        <ele>46.2806</ele>
        <time>2014-06-04T15:00:11Z</time>
      </trkpt>
      <trkpt lat="59.9186838" lon="17.701381">
        <ele>46.2806</ele>
        <time>2014-06-04T15:00:12Z</time>
      </trkpt>
      <trkpt lat="59.9186656" lon="17.7013887">
        <ele>45.7999</ele>
        <time>2014-06-04T15:00:13Z</time>
      </trkpt>
      <trkpt lat="59.9186502" lon="17.7013914">
        <ele>44.8386</ele>
        <time>2014-06-04T15:00:14Z</time>
      </trkpt>
      <trkpt lat="59.9186371" lon="17.7013882">
        <ele>44.358</ele>
        <time>2014-06-04T15:00:15Z</time>
      </trkpt>
      <trkpt lat="59.9186209" lon="17.7013843">
        <ele>44.8386</ele>
        <time>2014-06-04T15:00:16Z</time>
      </trkpt>
      <trkpt lat="59.9186004" lon="17.7013718">
        <ele>44.358</ele>
        <time>2014-06-04T15:00:17Z</time>
      </trkpt>
      <trkpt lat="59.918576" lon="17.7013635">
        <ele>43.8773</ele>
        <time>2014-06-04T15:00:18Z</time>
      </trkpt>
      <trkpt lat="59.9185547" lon="17.7013511">
        <ele>43.8773</ele>
        <time>2014-06-04T15:00:19Z</time>
      </trkpt>
      <trkpt lat="59.9185246" lon="17.7013463">
        <ele>43.3966</ele>
        <time>2014-06-04T15:00:20Z</time>
      </trkpt>
      <trkpt lat="59.9185035" lon="17.7013225">
        <ele>42.4354</ele>
        <time>2014-06-04T15:00:21Z</time>
      </trkpt>
      <trkpt lat="59.9184909" lon="17.7012997">
        <ele>42.916</ele>
        <time>2014-06-04T15:00:22Z</time>
      </trkpt>
      <trkpt lat="59.9184707" lon="17.7012916">
        <ele>41.474</ele>
        <time>2014-06-04T15:00:23Z</time>
      </trkpt>
      <trkpt lat="59.9184458" lon="17.7012905">
        <ele>41.9547</ele>
        <time>2014-06-04T15:00:24Z</time>
      </trkpt>
      <trkpt lat="59.9184273" lon="17.7012841">
        <ele>41.474</ele>
        <time>2014-06-04T15:00:25Z</time>
      </trkpt>
      <trkpt lat="59.9184093" lon="17.7012785">
        <ele>40.5128</ele>
        <time>2014-06-04T15:00:26Z</time>
      </trkpt>
      <trkpt lat="59.91839" lon="17.7012593">
        <ele>40.9934</ele>
        <time>2014-06-04T15:00:27Z</time>
      </trkpt>
      <trkpt lat="59.9183774" lon="17.7012496">
        <ele>42.916</ele>
        <time>2014-06-04T15:00:28Z</time>
      </trkpt>
      <trkpt lat="59.9183619" lon="17.7012443">
        <ele>44.358</ele>
        <time>2014-06-04T15:00:29Z</time>
      </trkpt>
      <trkpt lat="59.9183382" lon="17.7012417">
        <ele>44.8386</ele>
        <time>2014-06-04T15:00:30Z</time>
      </trkpt>
      <trkpt lat="59.9182974" lon="17.7012299">
        <ele>43.8773</ele>
        <time>2014-06-04T15:00:31Z</time>
      </trkpt>
      <trkpt lat="59.9182688" lon="17.7012387">
        <ele>43.8773</ele>
        <time>2014-06-04T15:00:32Z</time>
      </trkpt>
      <trkpt lat="59.9182408" lon="17.7012488">
        <ele>43.3966</ele>
        <time>2014-06-04T15:00:33Z</time>
      </trkpt>
      <trkpt lat="59.9182187" lon="17.7012568">
        <ele>43.8773</ele>
        <time>2014-06-04T15:00:34Z</time>
      </trkpt>
      <trkpt lat="59.9181983" lon="17.7012661">
        <ele>44.358</ele>
        <time>2014-06-04T15:00:35Z</time>
      </trkpt>
      <trkpt lat="59.9181823" lon="17.7012966">
        <ele>45.7999</ele>
        <time>2014-06-04T15:00:36Z</time>
      </trkpt>
      <trkpt lat="59.9181563" lon="17.7013195">
        <ele>45.7999</ele>
        <time>2014-06-04T15:00:37Z</time>
      </trkpt>
      <trkpt lat="59.9181339" lon="17.7013426">
        <ele>46.2806</ele>
        <time>2014-06-04T15:00:38Z</time>
      </trkpt>
      <trkpt lat="59.9181146" lon="17.7013617">
        <ele>46.2806</ele>
        <time>2014-06-04T15:00:39Z</time>
      </trkpt>
      <trkpt lat="59.9180911" lon="17.7013605">
        <ele>46.2806</ele>
        <time>2014-06-04T15:00:40Z</time>
      </trkpt>
      <trkpt lat="59.9180678" lon="17.7013573">
        <ele>46.2806</ele>
        <time>2014-06-04T15:00:41Z</time>
      </trkpt>
      <trkpt lat="59.9180502" lon="17.7013596">
        <ele>46.2806</ele>
        <time>2014-06-04T15:00:42Z</time>
      </trkpt>
      <trkpt lat="59.9180286" lon="17.7013596">
        <ele>46.2806</ele>
        <time>2014-06-04T15:00:43Z</time>
      </trkpt>
      <trkpt lat="59.9180108" lon="17.7013587">
        <ele>46.7612</ele>
        <time>2014-06-04T15:00:44Z</time>
      </trkpt>
      <trkpt lat="59.9179897" lon="17.7013541">
        <ele>47.2418</ele>
        <time>2014-06-04T15:00:45Z</time>
      </trkpt>
      <trkpt lat="59.9179746" lon="17.7013501">
        <ele>47.7225</ele>
        <time>2014-06-04T15:00:46Z</time>
      </trkpt>
      <trkpt lat="59.9179568" lon="17.7013426">
        <ele>47.7225</ele>
        <time>2014-06-04T15:00:47Z</time>
      </trkpt>
      <trkpt lat="59.9179348" lon="17.7013401">
        <ele>47.2418</ele>
        <time>2014-06-04T15:00:48Z</time>
      </trkpt>
      <trkpt lat="59.9179191" lon="17.7013315">
        <ele>47.7225</ele>
        <time>2014-06-04T15:00:49Z</time>
      </trkpt>
      <trkpt lat="59.917902" lon="17.7013144">
        <ele>46.7612</ele>
        <time>2014-06-04T15:00:50Z</time>
      </trkpt>
      <trkpt lat="59.9178865" lon="17.7012982">
        <ele>46.2806</ele>
        <time>2014-06-04T15:00:51Z</time>
      </trkpt>
      <trkpt lat="59.9178711" lon="17.7012738">
        <ele>45.7999</ele>
        <time>2014-06-04T15:00:52Z</time>
      </trkpt>
      <trkpt lat="59.9178539" lon="17.7012371">
        <ele>45.7999</ele>
        <time>2014-06-04T15:00:53Z</time>
      </trkpt>
      <trkpt lat="59.9178317" lon="17.7011925">
        <ele>45.3192</ele>
        <time>2014-06-04T15:00:54Z</time>
      </trkpt>
      <trkpt lat="59.9178093" lon="17.7011548">
        <ele>44.358</ele>
        <time>2014-06-04T15:00:55Z</time>
      </trkpt>
      <trkpt lat="59.9177848" lon="17.7011236">
        <ele>44.358</ele>
        <time>2014-06-04T15:00:56Z</time>
      </trkpt>
      <trkpt lat="59.9177584" lon="17.7010956">
        <ele>43.8773</ele>
        <time>2014-06-04T15:00:57Z</time>
      </trkpt>
      <trkpt lat="59.9177395" lon="17.7010672">
        <ele>43.3966</ele>
        <time>2014-06-04T15:00:58Z</time>
      </trkpt>
      <trkpt lat="59.9177198" lon="17.701036">
        <ele>42.4354</ele>
        <time>2014-06-04T15:00:59Z</time>
      </trkpt>
      <trkpt lat="59.9177014" lon="17.7010159">
        <ele>41.9547</ele>
        <time>2014-06-04T15:01:00Z</time>
      </trkpt>
      <trkpt lat="59.9176772" lon="17.7009863">
        <ele>41.474</ele>
        <time>2014-06-04T15:01:01Z</time>
      </trkpt>
      <trkpt lat="59.9176581" lon="17.7009447">
        <ele>41.474</ele>
        <time>2014-06-04T15:01:02Z</time>
      </trkpt>
      <trkpt lat="59.9176466" lon="17.7009102">
        <ele>40.9934</ele>
        <time>2014-06-04T15:01:03Z</time>
      </trkpt>
      <trkpt lat="59.9176336" lon="17.7008735">
        <ele>41.9547</ele>
        <time>2014-06-04T15:01:04Z</time>
      </trkpt>
      <trkpt lat="59.9176177" lon="17.700832">
        <ele>41.9547</ele>
        <time>2014-06-04T15:01:05Z</time>
      </trkpt>
      <trkpt lat="59.9176007" lon="17.700786">
        <ele>41.474</ele>
        <time>2014-06-04T15:01:06Z</time>
      </trkpt>
      <trkpt lat="59.9175844" lon="17.7007403">
        <ele>41.9547</ele>
        <time>2014-06-04T15:01:07Z</time>
      </trkpt>
      <trkpt lat="59.9175696" lon="17.7006976">
        <ele>40.9934</ele>
        <time>2014-06-04T15:01:08Z</time>
      </trkpt>
      <trkpt lat="59.9175566" lon="17.7006562">
        <ele>40.9934</ele>
        <time>2014-06-04T15:01:09Z</time>
      </trkpt>
      <trkpt lat="59.9175465" lon="17.700618">
        <ele>40.9934</ele>
        <time>2014-06-04T15:01:10Z</time>
      </trkpt>
      <trkpt lat="59.9175305" lon="17.7005755">
        <ele>40.5128</ele>
        <time>2014-06-04T15:01:11Z</time>
      </trkpt>
      <trkpt lat="59.9175188" lon="17.7005342">
        <ele>40.9934</ele>
        <time>2014-06-04T15:01:12Z</time>
      </trkpt>
      <trkpt lat="59.9175115" lon="17.7004941">
        <ele>40.9934</ele>
        <time>2014-06-04T15:01:13Z</time>
      </trkpt>
      <trkpt lat="59.9175058" lon="17.7004585">
        <ele>40.9934</ele>
        <time>2014-06-04T15:01:14Z</time>
      </trkpt>
      <trkpt lat="59.9174944" lon="17.700416">
        <ele>40.9934</ele>
        <time>2014-06-04T15:01:15Z</time>
      </trkpt>
      <trkpt lat="59.9174824" lon="17.7003646">
        <ele>40.9934</ele>
        <time>2014-06-04T15:01:16Z</time>
      </trkpt>
      <trkpt lat="59.9174716" lon="17.7003153">
        <ele>40.9934</ele>
        <time>2014-06-04T15:01:17Z</time>
      </trkpt>
      <trkpt lat="59.9174601" lon="17.7002662">
        <ele>40.9934</ele>
        <time>2014-06-04T15:01:18Z</time>
      </trkpt>
      <trkpt lat="59.9174585" lon="17.7002218">
        <ele>41.474</ele>
        <time>2014-06-04T15:01:19Z</time>
      </trkpt>
      <trkpt lat="59.917459" lon="17.7001802">
        <ele>41.474</ele>
        <time>2014-06-04T15:01:20Z</time>
      </trkpt>
      <trkpt lat="59.9174504" lon="17.7001384">
        <ele>41.474</ele>
        <time>2014-06-04T15:01:21Z</time>
      </trkpt>
      <trkpt lat="59.9174286" lon="17.7000937">
        <ele>41.474</ele>
        <time>2014-06-04T15:01:22Z</time>
      </trkpt>
      <trkpt lat="59.917409" lon="17.7000596">
        <ele>41.474</ele>
        <time>2014-06-04T15:01:23Z</time>
      </trkpt>
      <trkpt lat="59.9173913" lon="17.7000421">
        <ele>41.474</ele>
        <time>2014-06-04T15:01:24Z</time>
      </trkpt>
      <trkpt lat="59.9173771" lon="17.700026">
        <ele>41.9547</ele>
        <time>2014-06-04T15:01:25Z</time>
      </trkpt>
      <trkpt lat="59.9173644" lon="17.7000107">
        <ele>41.9547</ele>
        <time>2014-06-04T15:01:26Z</time>
      </trkpt>
      <trkpt lat="59.9173498" lon="17.7000066">
        <ele>42.4354</ele>
        <time>2014-06-04T15:01:27Z</time>
      </trkpt>
      <trkpt lat="59.9173355" lon="17.7000035">
        <ele>42.916</ele>
        <time>2014-06-04T15:01:28Z</time>
      </trkpt>
      <trkpt lat="59.917316" lon="17.6999974">
        <ele>43.3966</ele>
        <time>2014-06-04T15:01:29Z</time>
      </trkpt>
      <trkpt lat="59.9172935" lon="17.6999949">
        <ele>43.3966</ele>
        <time>2014-06-04T15:01:30Z</time>
      </trkpt>
      <trkpt lat="59.9172694" lon="17.6999905">
        <ele>43.3966</ele>
        <time>2014-06-04T15:01:31Z</time>
      </trkpt>
      <trkpt lat="59.9172421" lon="17.6999822">
        <ele>43.8773</ele>
        <time>2014-06-04T15:01:32Z</time>
      </trkpt>
      <trkpt lat="59.9172184" lon="17.6999695">
        <ele>44.358</ele>
        <time>2014-06-04T15:01:33Z</time>
      </trkpt>
      <trkpt lat="59.9172046" lon="17.6999695">
        <ele>44.358</ele>
        <time>2014-06-04T15:01:34Z</time>
      </trkpt>
      <trkpt lat="59.9171934" lon="17.6999712">
        <ele>44.8386</ele>
        <time>2014-06-04T15:01:35Z</time>
      </trkpt>
      <trkpt lat="59.9171779" lon="17.6999715">
        <ele>45.3192</ele>
        <time>2014-06-04T15:01:36Z</time>
      </trkpt>
      <trkpt lat="59.9171591" lon="17.6999739">
        <ele>45.7999</ele>
        <time>2014-06-04T15:01:37Z</time>
      </trkpt>
      <trkpt lat="59.9171318" lon="17.699969">
        <ele>46.2806</ele>
        <time>2014-06-04T15:01:38Z</time>
      </trkpt>
      <trkpt lat="59.9171039" lon="17.699974">
        <ele>45.7999</ele>
        <time>2014-06-04T15:01:39Z</time>
      </trkpt>
      <trkpt lat="59.9170814" lon="17.6999757">
        <ele>45.7999</ele>
        <time>2014-06-04T15:01:40Z</time>
      </trkpt>
      <trkpt lat="59.9170686" lon="17.6999814">
        <ele>46.7612</ele>
        <time>2014-06-04T15:01:41Z</time>
      </trkpt>
      <trkpt lat="59.9170519" lon="17.6999818">
        <ele>47.2418</ele>
        <time>2014-06-04T15:01:42Z</time>
      </trkpt>
      <trkpt lat="59.9170308" lon="17.699984">
        <ele>47.7225</ele>
        <time>2014-06-04T15:01:43Z</time>
      </trkpt>
      <trkpt lat="59.917009" lon="17.699981">
        <ele>47.2418</ele>
        <time>2014-06-04T15:01:44Z</time>
      </trkpt>
      <trkpt lat="59.9169868" lon="17.6999773">
        <ele>46.2806</ele>
        <time>2014-06-04T15:01:45Z</time>
      </trkpt>
      <trkpt lat="59.9169598" lon="17.6999798">
        <ele>46.2806</ele>
        <time>2014-06-04T15:01:46Z</time>
      </trkpt>
      <trkpt lat="59.9169338" lon="17.6999813">
        <ele>46.7612</ele>
        <time>2014-06-04T15:01:47Z</time>
      </trkpt>
      <trkpt lat="59.9169069" lon="17.6999756">
        <ele>46.7612</ele>
        <time>2014-06-04T15:01:48Z</time>
      </trkpt>
      <trkpt lat="59.916878" lon="17.6999638">
        <ele>46.2806</ele>
        <time>2014-06-04T15:01:49Z</time>
      </trkpt>
      <trkpt lat="59.9168526" lon="17.699969">
        <ele>45.7999</ele>
        <time>2014-06-04T15:01:50Z</time>
      </trkpt>
      <trkpt lat="59.9168302" lon="17.6999788">
        <ele>45.3192</ele>
        <time>2014-06-04T15:01:51Z</time>
      </trkpt>
      <trkpt lat="59.9168128" lon="17.699995">
        <ele>45.3192</ele>
        <time>2014-06-04T15:01:52Z</time>
      </trkpt>
      <trkpt lat="59.9167962" lon="17.7000083">
        <ele>45.3192</ele>
        <time>2014-06-04T15:01:53Z</time>
      </trkpt>
      <trkpt lat="59.916779" lon="17.7000218">
        <ele>45.3192</ele>
        <time>2014-06-04T15:01:54Z</time>
      </trkpt>
      <trkpt lat="59.9167567" lon="17.7000354">
        <ele>45.7999</ele>
        <time>2014-06-04T15:01:55Z</time>
      </trkpt>
      <trkpt lat="59.9167307" lon="17.7000571">
        <ele>46.2806</ele>
        <time>2014-06-04T15:01:56Z</time>
      </trkpt>
      <trkpt lat="59.9167074" lon="17.7000612">
        <ele>46.7612</ele>
        <time>2014-06-04T15:01:57Z</time>
      </trkpt>
      <trkpt lat="59.9166832" lon="17.7000623">
        <ele>46.2806</ele>
        <time>2014-06-04T15:01:58Z</time>
      </trkpt>
      <trkpt lat="59.9166542" lon="17.7000684">
        <ele>45.3192</ele>
        <time>2014-06-04T15:01:59Z</time>
      </trkpt>
      <trkpt lat="59.9166304" lon="17.7000745">
        <ele>44.8386</ele>
        <time>2014-06-04T15:02:00Z</time>
      </trkpt>
      <trkpt lat="59.916612" lon="17.7000884">
        <ele>46.2806</ele>
        <time>2014-06-04T15:02:01Z</time>
      </trkpt>
      <trkpt lat="59.9165955" lon="17.7001042">
        <ele>46.2806</ele>
        <time>2014-06-04T15:02:02Z</time>
      </trkpt>
      <trkpt lat="59.9165802" lon="17.700114">
        <ele>47.2418</ele>
        <time>2014-06-04T15:02:03Z</time>
      </trkpt>
      <trkpt lat="59.9165645" lon="17.7001169">
        <ele>48.2034</ele>
        <time>2014-06-04T15:02:04Z</time>
      </trkpt>
      <trkpt lat="59.9165509" lon="17.7001223">
        <ele>49.1646</ele>
        <time>2014-06-04T15:02:05Z</time>
      </trkpt>
      <trkpt lat="59.9165345" lon="17.700131">
        <ele>49.6453</ele>
        <time>2014-06-04T15:02:06Z</time>
      </trkpt>
      <trkpt lat="59.9165162" lon="17.7001501">
        <ele>49.6453</ele>
        <time>2014-06-04T15:02:07Z</time>
      </trkpt>
      <trkpt lat="59.9164983" lon="17.7001601">
        <ele>50.6066</ele>
        <time>2014-06-04T15:02:08Z</time>
      </trkpt>
      <trkpt lat="59.9164801" lon="17.700172">
        <ele>50.126</ele>
        <time>2014-06-04T15:02:09Z</time>
      </trkpt>
      <trkpt lat="59.9164666" lon="17.7001896">
        <ele>50.6066</ele>
        <time>2014-06-04T15:02:10Z</time>
      </trkpt>
      <trkpt lat="59.9164528" lon="17.7002245">
        <ele>50.126</ele>
        <time>2014-06-04T15:02:11Z</time>
      </trkpt>
      <trkpt lat="59.9164398" lon="17.700261">
        <ele>50.126</ele>
        <time>2014-06-04T15:02:12Z</time>
      </trkpt>
      <trkpt lat="59.9164253" lon="17.7002934">
        <ele>50.126</ele>
        <time>2014-06-04T15:02:13Z</time>
      </trkpt>
      <trkpt lat="59.9164108" lon="17.7003191">
        <ele>51.0872</ele>
        <time>2014-06-04T15:02:14Z</time>
      </trkpt>
      <trkpt lat="59.9163948" lon="17.7003531">
        <ele>51.0872</ele>
        <time>2014-06-04T15:02:15Z</time>
      </trkpt>
      <trkpt lat="59.9163807" lon="17.7003917">
        <ele>51.0872</ele>
        <time>2014-06-04T15:02:16Z</time>
      </trkpt>
      <trkpt lat="59.9163683" lon="17.7004289">
        <ele>50.6066</ele>
        <time>2014-06-04T15:02:17Z</time>
      </trkpt>
      <trkpt lat="59.9163572" lon="17.700464">
        <ele>50.6066</ele>
        <time>2014-06-04T15:02:18Z</time>
      </trkpt>
      <trkpt lat="59.9163461" lon="17.7005059">
        <ele>51.5679</ele>
        <time>2014-06-04T15:02:19Z</time>
      </trkpt>
      <trkpt lat="59.9163344" lon="17.7005538">
        <ele>50.6066</ele>
        <time>2014-06-04T15:02:20Z</time>
      </trkpt>
      <trkpt lat="59.9163247" lon="17.7006007">
        <ele>49.6453</ele>
        <time>2014-06-04T15:02:21Z</time>
      </trkpt>
      <trkpt lat="59.9163107" lon="17.7006476">
        <ele>48.684</ele>
        <time>2014-06-04T15:02:22Z</time>
      </trkpt>
      <trkpt lat="59.9163015" lon="17.7006948">
        <ele>47.7225</ele>
        <time>2014-06-04T15:02:23Z</time>
      </trkpt>
      <trkpt lat="59.9162936" lon="17.7007402">
        <ele>47.2418</ele>
        <time>2014-06-04T15:02:24Z</time>
      </trkpt>
      <trkpt lat="59.9162815" lon="17.7007817">
        <ele>46.7612</ele>
        <time>2014-06-04T15:02:25Z</time>
      </trkpt>
      <trkpt lat="59.9162641" lon="17.7008226">
        <ele>45.7999</ele>
        <time>2014-06-04T15:02:26Z</time>
      </trkpt>
      <trkpt lat="59.9162502" lon="17.7008625">
        <ele>46.2806</ele>
        <time>2014-06-04T15:02:27Z</time>
      </trkpt>
      <trkpt lat="59.9162377" lon="17.7009045">
        <ele>46.7612</ele>
        <time>2014-06-04T15:02:28Z</time>
      </trkpt>
      <trkpt lat="59.9162269" lon="17.7009556">
        <ele>47.7225</ele>
        <time>2014-06-04T15:02:29Z</time>
      </trkpt>
      <trkpt lat="59.9162153" lon="17.7009989">
        <ele>48.2034</ele>
        <time>2014-06-04T15:02:30Z</time>
      </trkpt>
      <trkpt lat="59.9162038" lon="17.701037">
        <ele>48.2034</ele>
        <time>2014-06-04T15:02:31Z</time>
      </trkpt>
      <trkpt lat="59.9161945" lon="17.7010659">
        <ele>48.2034</ele>
        <time>2014-06-04T15:02:32Z</time>
      </trkpt>
      <trkpt lat="59.9161816" lon="17.7011011">
        <ele>48.684</ele>
        <time>2014-06-04T15:02:33Z</time>
      </trkpt>
      <trkpt lat="59.9161703" lon="17.7011387">
        <ele>48.684</ele>
        <time>2014-06-04T15:02:34Z</time>
      </trkpt>
      <trkpt lat="59.9161579" lon="17.7011685">
        <ele>48.684</ele>
        <time>2014-06-04T15:02:35Z</time>
      </trkpt>
      <trkpt lat="59.9161403" lon="17.7012028">
        <ele>49.6453</ele>
        <time>2014-06-04T15:02:36Z</time>
      </trkpt>
      <trkpt lat="59.9161206" lon="17.7012301">
        <ele>49.1646</ele>
        <time>2014-06-04T15:02:37Z</time>
      </trkpt>
      <trkpt lat="59.9161077" lon="17.7012597">
        <ele>50.126</ele>
        <time>2014-06-04T15:02:38Z</time>
      </trkpt>
      <trkpt lat="59.9160919" lon="17.7012764">
        <ele>50.126</ele>
        <time>2014-06-04T15:02:39Z</time>
      </trkpt>
      <trkpt lat="59.9160741" lon="17.7012992">
        <ele>51.0872</ele>
        <time>2014-06-04T15:02:40Z</time>
      </trkpt>
      <trkpt lat="59.9160577" lon="17.7013194">
        <ele>52.0486</ele>
        <time>2014-06-04T15:02:41Z</time>
      </trkpt>
      <trkpt lat="59.9160376" lon="17.7013407">
        <ele>51.5679</ele>
        <time>2014-06-04T15:02:42Z</time>
      </trkpt>
      <trkpt lat="59.9160243" lon="17.7013641">
        <ele>51.5679</ele>
        <time>2014-06-04T15:02:43Z</time>
      </trkpt>
      <trkpt lat="59.9160073" lon="17.7013966">
        <ele>52.0486</ele>
        <time>2014-06-04T15:02:44Z</time>
      </trkpt>
      <trkpt lat="59.9159876" lon="17.7014236">
        <ele>52.5292</ele>
        <time>2014-06-04T15:02:45Z</time>
      </trkpt>
      <trkpt lat="59.9159668" lon="17.7014515">
        <ele>52.0486</ele>
        <time>2014-06-04T15:02:46Z</time>
      </trkpt>
      <trkpt lat="59.9159445" lon="17.7014902">
        <ele>51.5679</ele>
        <time>2014-06-04T15:02:47Z</time>
      </trkpt>
      <trkpt lat="59.9159275" lon="17.7015364">
        <ele>53.0098</ele>
        <time>2014-06-04T15:02:48Z</time>
      </trkpt>
      <trkpt lat="59.9159112" lon="17.7015918">
        <ele>53.9712</ele>
        <time>2014-06-04T15:02:49Z</time>
      </trkpt>
      <trkpt lat="59.9158935" lon="17.7016433">
        <ele>55.4131</ele>
        <time>2014-06-04T15:02:50Z</time>
      </trkpt>
      <trkpt lat="59.9158735" lon="17.7016774">
        <ele>56.3745</ele>
        <time>2014-06-04T15:02:51Z</time>
      </trkpt>
      <trkpt lat="59.9158521" lon="17.7017018">
        <ele>55.4131</ele>
        <time>2014-06-04T15:02:52Z</time>
      </trkpt>
      <trkpt lat="59.9158229" lon="17.7017057">
        <ele>53.0098</ele>
        <time>2014-06-04T15:02:53Z</time>
      </trkpt>
      <trkpt lat="59.9158039" lon="17.7017187">
        <ele>53.0098</ele>
        <time>2014-06-04T15:02:54Z</time>
      </trkpt>
      <trkpt lat="59.9157881" lon="17.7017292">
        <ele>53.4905</ele>
        <time>2014-06-04T15:02:55Z</time>
      </trkpt>
      <trkpt lat="59.9157653" lon="17.7017341">
        <ele>53.9712</ele>
        <time>2014-06-04T15:02:56Z</time>
      </trkpt>
      <trkpt lat="59.9157504" lon="17.7017461">
        <ele>54.9324</ele>
        <time>2014-06-04T15:02:57Z</time>
      </trkpt>
      <trkpt lat="59.9157382" lon="17.7017638">
        <ele>54.9324</ele>
        <time>2014-06-04T15:02:58Z</time>
      </trkpt>
      <trkpt lat="59.9157258" lon="17.7017795">
        <ele>54.9324</ele>
        <time>2014-06-04T15:02:59Z</time>
      </trkpt>
      <trkpt lat="59.9157107" lon="17.7017939">
        <ele>54.4518</ele>
        <time>2014-06-04T15:03:00Z</time>
      </trkpt>
      <trkpt lat="59.9156932" lon="17.701827">
        <ele>55.4131</ele>
        <time>2014-06-04T15:03:01Z</time>
      </trkpt>
      <trkpt lat="59.915675" lon="17.70185">
        <ele>56.3745</ele>
        <time>2014-06-04T15:03:02Z</time>
      </trkpt>
      <trkpt lat="59.9156495" lon="17.7018762">
        <ele>56.3745</ele>
        <time>2014-06-04T15:03:03Z</time>
      </trkpt>
      <trkpt lat="59.9156275" lon="17.7018973">
        <ele>55.8938</ele>
        <time>2014-06-04T15:03:04Z</time>
      </trkpt>
      <trkpt lat="59.9156083" lon="17.7019214">
        <ele>56.8551</ele>
        <time>2014-06-04T15:03:05Z</time>
      </trkpt>
      <trkpt lat="59.9155871" lon="17.7019473">
        <ele>57.8165</ele>
        <time>2014-06-04T15:03:06Z</time>
      </trkpt>
      <trkpt lat="59.915562" lon="17.7019654">
        <ele>57.3358</ele>
        <time>2014-06-04T15:03:07Z</time>
      </trkpt>
      <trkpt lat="59.9155366" lon="17.701996">
        <ele>58.2971</ele>
        <time>2014-06-04T15:03:08Z</time>
      </trkpt>
      <trkpt lat="59.9155171" lon="17.7020197">
        <ele>57.8165</ele>
        <time>2014-06-04T15:03:09Z</time>
      </trkpt>
      <trkpt lat="59.9155" lon="17.7020302">
        <ele>55.8938</ele>
        <time>2014-06-04T15:03:10Z</time>
      </trkpt>
      <trkpt lat="59.9154827" lon="17.7020171">
        <ele>54.9324</ele>
        <time>2014-06-04T15:03:11Z</time>
      </trkpt>
      <trkpt lat="59.9154664" lon="17.7020099">
        <ele>53.9712</ele>
        <time>2014-06-04T15:03:12Z</time>
      </trkpt>
      <trkpt lat="59.9154575" lon="17.7020015">
        <ele>53.0098</ele>
        <time>2014-06-04T15:03:13Z</time>
      </trkpt>
      <trkpt lat="59.9154426" lon="17.70199">
        <ele>52.0486</ele>
        <time>2014-06-04T15:03:14Z</time>
      </trkpt>
      <trkpt lat="59.9154175" lon="17.7019711">
        <ele>50.126</ele>
        <time>2014-06-04T15:03:15Z</time>
      </trkpt>
      <trkpt lat="59.9153909" lon="17.7019549">
        <ele>49.1646</ele>
        <time>2014-06-04T15:03:16Z</time>
      </trkpt>
      <trkpt lat="59.9153652" lon="17.7019295">
        <ele>48.684</ele>
        <time>2014-06-04T15:03:17Z</time>
      </trkpt>
      <trkpt lat="59.9153387" lon="17.7019043">
        <ele>47.7225</ele>
        <time>2014-06-04T15:03:18Z</time>
      </trkpt>
      <trkpt lat="59.9153151" lon="17.7018902">
        <ele>47.2418</ele>
        <time>2014-06-04T15:03:19Z</time>
      </trkpt>
      <trkpt lat="59.9152872" lon="17.7018771">
        <ele>48.2034</ele>
        <time>2014-06-04T15:03:20Z</time>
      </trkpt>
      <trkpt lat="59.9152588" lon="17.7018572">
        <ele>47.2418</ele>
        <time>2014-06-04T15:03:21Z</time>
      </trkpt>
      <trkpt lat="59.9152307" lon="17.7018435">
        <ele>46.7612</ele>
        <time>2014-06-04T15:03:22Z</time>
      </trkpt>
      <trkpt lat="59.9151999" lon="17.7018313">
        <ele>47.2418</ele>
        <time>2014-06-04T15:03:23Z</time>
      </trkpt>
      <trkpt lat="59.9151662" lon="17.701828">
        <ele>46.7612</ele>
        <time>2014-06-04T15:03:24Z</time>
      </trkpt>
      <trkpt lat="59.9151234" lon="17.7018224">
        <ele>46.2806</ele>
        <time>2014-06-04T15:03:25Z</time>
      </trkpt>
      <trkpt lat="59.9150901" lon="17.7018235">
        <ele>45.7999</ele>
        <time>2014-06-04T15:03:26Z</time>
      </trkpt>
      <trkpt lat="59.9150562" lon="17.7018196">
        <ele>45.3192</ele>
        <time>2014-06-04T15:03:27Z</time>
      </trkpt>
      <trkpt lat="59.9150204" lon="17.7018205">
        <ele>45.3192</ele>
        <time>2014-06-04T15:03:28Z</time>
      </trkpt>
      <trkpt lat="59.9149915" lon="17.7018306">
        <ele>45.7999</ele>
        <time>2014-06-04T15:03:29Z</time>
      </trkpt>
      <trkpt lat="59.9149603" lon="17.7018323">
        <ele>45.7999</ele>
        <time>2014-06-04T15:03:30Z</time>
      </trkpt>
      <trkpt lat="59.9149257" lon="17.7018259">
        <ele>45.7999</ele>
        <time>2014-06-04T15:03:31Z</time>
      </trkpt>
      <trkpt lat="59.9148974" lon="17.7018184">
        <ele>45.7999</ele>
        <time>2014-06-04T15:03:32Z</time>
      </trkpt>
      <trkpt lat="59.9148707" lon="17.701809">
        <ele>45.7999</ele>
        <time>2014-06-04T15:03:33Z</time>
      </trkpt>
      <trkpt lat="59.9148464" lon="17.7018006">
        <ele>45.7999</ele>
        <time>2014-06-04T15:03:34Z</time>
      </trkpt>
      <trkpt lat="59.9148213" lon="17.7017924">
        <ele>45.3192</ele>
        <time>2014-06-04T15:03:35Z</time>
      </trkpt>
      <trkpt lat="59.9147953" lon="17.7017826">
        <ele>45.3192</ele>
        <time>2014-06-04T15:03:36Z</time>
      </trkpt>
      <trkpt lat="59.9147687" lon="17.7017883">
        <ele>45.3192</ele>
        <time>2014-06-04T15:03:37Z</time>
      </trkpt>
      <trkpt lat="59.9147447" lon="17.7017995">
        <ele>44.8386</ele>
        <time>2014-06-04T15:03:38Z</time>
      </trkpt>
      <trkpt lat="59.9147188" lon="17.7017986">
        <ele>43.8773</ele>
        <time>2014-06-04T15:03:39Z</time>
      </trkpt>
      <trkpt lat="59.9146951" lon="17.7018006">
        <ele>43.3966</ele>
        <time>2014-06-04T15:03:40Z</time>
      </trkpt>
      <trkpt lat="59.9146749" lon="17.7018008">
        <ele>43.3966</ele>
        <time>2014-06-04T15:03:41Z</time>
      </trkpt>
      <trkpt lat="59.9146505" lon="17.701807">
        <ele>43.8773</ele>
        <time>2014-06-04T15:03:42Z</time>
      </trkpt>
      <trkpt lat="59.9146268" lon="17.7018088">
        <ele>44.358</ele>
        <time>2014-06-04T15:03:43Z</time>
      </trkpt>
      <trkpt lat="59.9146039" lon="17.7018087">
        <ele>43.3966</ele>
        <time>2014-06-04T15:03:44Z</time>
      </trkpt>
      <trkpt lat="59.9145817" lon="17.701814">
        <ele>43.8773</ele>
        <time>2014-06-04T15:03:45Z</time>
      </trkpt>
      <trkpt lat="59.9145566" lon="17.7018183">
        <ele>43.8773</ele>
        <time>2014-06-04T15:03:46Z</time>
      </trkpt>
      <trkpt lat="59.9145312" lon="17.7018214">
        <ele>43.3966</ele>
        <time>2014-06-04T15:03:47Z</time>
      </trkpt>
      <trkpt lat="59.9145066" lon="17.7018326">
        <ele>42.916</ele>
        <time>2014-06-04T15:03:48Z</time>
      </trkpt>
      <trkpt lat="59.9144792" lon="17.701839">
        <ele>42.4354</ele>
        <time>2014-06-04T15:03:49Z</time>
      </trkpt>
      <trkpt lat="59.914453" lon="17.7018417">
        <ele>41.9547</ele>
        <time>2014-06-04T15:03:50Z</time>
      </trkpt>
      <trkpt lat="59.9144319" lon="17.7018437">
        <ele>42.4354</ele>
        <time>2014-06-04T15:03:51Z</time>
      </trkpt>
      <trkpt lat="59.9144106" lon="17.701846">
        <ele>41.9547</ele>
        <time>2014-06-04T15:03:52Z</time>
      </trkpt>
      <trkpt lat="59.9143884" lon="17.7018466">
        <ele>42.4354</ele>
        <time>2014-06-04T15:03:53Z</time>
      </trkpt>
      <trkpt lat="59.9143661" lon="17.7018478">
        <ele>42.916</ele>
        <time>2014-06-04T15:03:54Z</time>
      </trkpt>
      <trkpt lat="59.9143375" lon="17.7018593">
        <ele>42.4354</ele>
        <time>2014-06-04T15:03:55Z</time>
      </trkpt>
      <trkpt lat="59.9143069" lon="17.7018779">
        <ele>42.4354</ele>
        <time>2014-06-04T15:03:56Z</time>
      </trkpt>
      <trkpt lat="59.9142797" lon="17.7018991">
        <ele>41.9547</ele>
        <time>2014-06-04T15:03:57Z</time>
      </trkpt>
      <trkpt lat="59.9142528" lon="17.7019239">
        <ele>42.4354</ele>
        <time>2014-06-04T15:03:58Z</time>
      </trkpt>
      <trkpt lat="59.9142271" lon="17.701943">
        <ele>42.4354</ele>
        <time>2014-06-04T15:03:59Z</time>
      </trkpt>
      <trkpt lat="59.9142075" lon="17.701958">
        <ele>42.916</ele>
        <time>2014-06-04T15:04:00Z</time>
      </trkpt>
      <trkpt lat="59.9141889" lon="17.7019783">
        <ele>42.4354</ele>
        <time>2014-06-04T15:04:01Z</time>
      </trkpt>
      <trkpt lat="59.9141729" lon="17.7020052">
        <ele>41.474</ele>
        <time>2014-06-04T15:04:02Z</time>
      </trkpt>
      <trkpt lat="59.9141614" lon="17.702047">
        <ele>41.474</ele>
        <time>2014-06-04T15:04:03Z</time>
      </trkpt>
      <trkpt lat="59.9141497" lon="17.702101">
        <ele>40.9934</ele>
        <time>2014-06-04T15:04:04Z</time>
      </trkpt>
      <trkpt lat="59.9141382" lon="17.7021523">
        <ele>40.5128</ele>
        <time>2014-06-04T15:04:05Z</time>
      </trkpt>
      <trkpt lat="59.9141272" lon="17.7022042">
        <ele>40.0321</ele>
        <time>2014-06-04T15:04:06Z</time>
      </trkpt>
      <trkpt lat="59.9141163" lon="17.7022545">
        <ele>39.0707</ele>
        <time>2014-06-04T15:04:07Z</time>
      </trkpt>
      <trkpt lat="59.9141081" lon="17.7023016">
        <ele>39.0707</ele>
        <time>2014-06-04T15:04:08Z</time>
      </trkpt>
      <trkpt lat="59.9140946" lon="17.702346">
        <ele>38.5901</ele>
        <time>2014-06-04T15:04:09Z</time>
      </trkpt>
      <trkpt lat="59.9140792" lon="17.7023859">
        <ele>37.6287</ele>
        <time>2014-06-04T15:04:10Z</time>
      </trkpt>
      <trkpt lat="59.9140651" lon="17.7024198">
        <ele>37.1481</ele>
        <time>2014-06-04T15:04:11Z</time>
      </trkpt>
      <trkpt lat="59.9140494" lon="17.7024504">
        <ele>36.1868</ele>
        <time>2014-06-04T15:04:12Z</time>
      </trkpt>
      <trkpt lat="59.9140365" lon="17.702482">
        <ele>36.1868</ele>
        <time>2014-06-04T15:04:13Z</time>
      </trkpt>
      <trkpt lat="59.9140242" lon="17.7025186">
        <ele>36.6675</ele>
        <time>2014-06-04T15:04:14Z</time>
      </trkpt>
      <trkpt lat="59.9140164" lon="17.702551">
        <ele>36.1868</ele>
        <time>2014-06-04T15:04:15Z</time>
      </trkpt>
      <trkpt lat="59.914006" lon="17.702589">
        <ele>35.7061</ele>
        <time>2014-06-04T15:04:16Z</time>
      </trkpt>
      <trkpt lat="59.9139862" lon="17.7026187">
        <ele>35.7061</ele>
        <time>2014-06-04T15:04:17Z</time>
      </trkpt>
      <trkpt lat="59.9139672" lon="17.7026391">
        <ele>35.7061</ele>
        <time>2014-06-04T15:04:18Z</time>
      </trkpt>
      <trkpt lat="59.9139471" lon="17.7026643">
        <ele>34.7449</ele>
        <time>2014-06-04T15:04:19Z</time>
      </trkpt>
      <trkpt lat="59.9139273" lon="17.7026916">
        <ele>35.2255</ele>
        <time>2014-06-04T15:04:20Z</time>
      </trkpt>
      <trkpt lat="59.9139014" lon="17.7027216">
        <ele>34.7449</ele>
        <time>2014-06-04T15:04:21Z</time>
      </trkpt>
      <trkpt lat="59.9138885" lon="17.7027691">
        <ele>37.6287</ele>
        <time>2014-06-04T15:04:22Z</time>
      </trkpt>
      <trkpt lat="59.9138721" lon="17.7028025">
        <ele>38.1094</ele>
        <time>2014-06-04T15:04:23Z</time>
      </trkpt>
      <trkpt lat="59.9138594" lon="17.702832">
        <ele>38.5901</ele>
        <time>2014-06-04T15:04:24Z</time>
      </trkpt>
      <trkpt lat="59.913846" lon="17.7028585">
        <ele>38.1094</ele>
        <time>2014-06-04T15:04:25Z</time>
      </trkpt>
      <trkpt lat="59.91383" lon="17.7028895">
        <ele>37.6287</ele>
        <time>2014-06-04T15:04:26Z</time>
      </trkpt>
      <trkpt lat="59.9138151" lon="17.7029283">
        <ele>37.6287</ele>
        <time>2014-06-04T15:04:27Z</time>
      </trkpt>
      <trkpt lat="59.913804" lon="17.7029753">
        <ele>38.1094</ele>
        <time>2014-06-04T15:04:28Z</time>
      </trkpt>
      <trkpt lat="59.9137909" lon="17.7030277">
        <ele>37.6287</ele>
        <time>2014-06-04T15:04:29Z</time>
      </trkpt>
      <trkpt lat="59.9137761" lon="17.7030709">
        <ele>37.6287</ele>
        <time>2014-06-04T15:04:30Z</time>
      </trkpt>
      <trkpt lat="59.9137595" lon="17.7030977">
        <ele>37.6287</ele>
        <time>2014-06-04T15:04:31Z</time>
      </trkpt>
      <trkpt lat="59.9137418" lon="17.703133">
        <ele>37.1481</ele>
        <time>2014-06-04T15:04:32Z</time>
      </trkpt>
      <trkpt lat="59.9137244" lon="17.703173">
        <ele>36.6675</ele>
        <time>2014-06-04T15:04:33Z</time>
      </trkpt>
      <trkpt lat="59.913707" lon="17.7032082">
        <ele>35.7061</ele>
        <time>2014-06-04T15:04:34Z</time>
      </trkpt>
      <trkpt lat="59.9136939" lon="17.7032495">
        <ele>35.2255</ele>
        <time>2014-06-04T15:04:35Z</time>
      </trkpt>
      <trkpt lat="59.9136799" lon="17.7032972">
        <ele>34.7449</ele>
        <time>2014-06-04T15:04:36Z</time>
      </trkpt>
      <trkpt lat="59.9136637" lon="17.7033415">
        <ele>35.7061</ele>
        <time>2014-06-04T15:04:37Z</time>
      </trkpt>
      <trkpt lat="59.9136476" lon="17.7033744">
        <ele>35.7061</ele>
        <time>2014-06-04T15:04:38Z</time>
      </trkpt>
      <trkpt lat="59.9136357" lon="17.7034064">
        <ele>36.1868</ele>
        <time>2014-06-04T15:04:39Z</time>
      </trkpt>
      <trkpt lat="59.9136238" lon="17.7034451">
        <ele>36.1868</ele>
        <time>2014-06-04T15:04:40Z</time>
      </trkpt>
      <trkpt lat="59.913617" lon="17.7034866">
        <ele>36.6675</ele>
        <time>2014-06-04T15:04:41Z</time>
      </trkpt>
      <trkpt lat="59.9136114" lon="17.7035324">
        <ele>37.1481</ele>
        <time>2014-06-04T15:04:42Z</time>
      </trkpt>
      <trkpt lat="59.9136112" lon="17.7035868">
        <ele>38.1094</ele>
        <time>2014-06-04T15:04:43Z</time>
      </trkpt>
      <trkpt lat="59.9136119" lon="17.7036399">
        <ele>39.0707</ele>
        <time>2014-06-04T15:04:44Z</time>
      </trkpt>
      <trkpt lat="59.9136171" lon="17.7036943">
        <ele>39.5513</ele>
        <time>2014-06-04T15:04:45Z</time>
      </trkpt>
      <trkpt lat="59.9136179" lon="17.7037513">
        <ele>40.0321</ele>
        <time>2014-06-04T15:04:46Z</time>
      </trkpt>
      <trkpt lat="59.913618" lon="17.7038105">
        <ele>40.5128</ele>
        <time>2014-06-04T15:04:47Z</time>
      </trkpt>
      <trkpt lat="59.9136233" lon="17.7038616">
        <ele>40.9934</ele>
        <time>2014-06-04T15:04:48Z</time>
      </trkpt>
      <trkpt lat="59.9136274" lon="17.7039158">
        <ele>40.9934</ele>
        <time>2014-06-04T15:04:49Z</time>
      </trkpt>
      <trkpt lat="59.9136346" lon="17.7039731">
        <ele>41.474</ele>
        <time>2014-06-04T15:04:50Z</time>
      </trkpt>
      <trkpt lat="59.9136399" lon="17.7040275">
        <ele>41.474</ele>
        <time>2014-06-04T15:04:51Z</time>
      </trkpt>
      <trkpt lat="59.9136461" lon="17.7040842">
        <ele>41.474</ele>
        <time>2014-06-04T15:04:52Z</time>
      </trkpt>
      <trkpt lat="59.9136497" lon="17.7041404">
        <ele>41.9547</ele>
        <time>2014-06-04T15:04:53Z</time>
      </trkpt>
      <trkpt lat="59.9136555" lon="17.7041923">
        <ele>41.9547</ele>
        <time>2014-06-04T15:04:54Z</time>
      </trkpt>
      <trkpt lat="59.9136631" lon="17.7042415">
        <ele>41.9547</ele>
        <time>2014-06-04T15:04:55Z</time>
      </trkpt>
      <trkpt lat="59.9136715" lon="17.7042849">
        <ele>41.474</ele>
        <time>2014-06-04T15:04:56Z</time>
      </trkpt>
      <trkpt lat="59.9136813" lon="17.7043305">
        <ele>41.9547</ele>
        <time>2014-06-04T15:04:57Z</time>
      </trkpt>
      <trkpt lat="59.9136884" lon="17.7043781">
        <ele>41.9547</ele>
        <time>2014-06-04T15:04:58Z</time>
      </trkpt>
      <trkpt lat="59.9136978" lon="17.7044271">
        <ele>42.4354</ele>
        <time>2014-06-04T15:04:59Z</time>
      </trkpt>
      <trkpt lat="59.9137035" lon="17.7044775">
        <ele>42.916</ele>
        <time>2014-06-04T15:05:00Z</time>
      </trkpt>
      <trkpt lat="59.9137057" lon="17.7045249">
        <ele>43.3966</ele>
        <time>2014-06-04T15:05:01Z</time>
      </trkpt>
      <trkpt lat="59.9137091" lon="17.7045711">
        <ele>44.358</ele>
        <time>2014-06-04T15:05:02Z</time>
      </trkpt>
      <trkpt lat="59.913707" lon="17.7046119">
        <ele>43.8773</ele>
        <time>2014-06-04T15:05:03Z</time>
      </trkpt>
      <trkpt lat="59.9137042" lon="17.7046554">
        <ele>44.358</ele>
        <time>2014-06-04T15:05:04Z</time>
      </trkpt>
      <trkpt lat="59.9137016" lon="17.7046969">
        <ele>44.8386</ele>
        <time>2014-06-04T15:05:05Z</time>
      </trkpt>
      <trkpt lat="59.9136935" lon="17.7047397">
        <ele>44.358</ele>
        <time>2014-06-04T15:05:06Z</time>
      </trkpt>
      <trkpt lat="59.9136842" lon="17.7047823">
        <ele>44.8386</ele>
        <time>2014-06-04T15:05:07Z</time>
      </trkpt>
      <trkpt lat="59.9136733" lon="17.7048185">
        <ele>44.8386</ele>
        <time>2014-06-04T15:05:08Z</time>
      </trkpt>
      <trkpt lat="59.9136578" lon="17.7048517">
        <ele>45.3192</ele>
        <time>2014-06-04T15:05:09Z</time>
      </trkpt>
      <trkpt lat="59.9136417" lon="17.7048852">
        <ele>45.3192</ele>
        <time>2014-06-04T15:05:10Z</time>
      </trkpt>
      <trkpt lat="59.9136239" lon="17.704901">
        <ele>44.8386</ele>
        <time>2014-06-04T15:05:11Z</time>
      </trkpt>
      <trkpt lat="59.9136091" lon="17.7049259">
        <ele>45.3192</ele>
        <time>2014-06-04T15:05:12Z</time>
      </trkpt>
      <trkpt lat="59.9135905" lon="17.7049569">
        <ele>44.8386</ele>
        <time>2014-06-04T15:05:13Z</time>
      </trkpt>
      <trkpt lat="59.91357" lon="17.7049818">
        <ele>43.8773</ele>
        <time>2014-06-04T15:05:14Z</time>
      </trkpt>
      <trkpt lat="59.9135579" lon="17.7050232">
        <ele>44.358</ele>
        <time>2014-06-04T15:05:15Z</time>
      </trkpt>
      <trkpt lat="59.9135424" lon="17.7050564">
        <ele>42.916</ele>
        <time>2014-06-04T15:05:16Z</time>
      </trkpt>
      <trkpt lat="59.9135259" lon="17.7050926">
        <ele>43.3966</ele>
        <time>2014-06-04T15:05:17Z</time>
      </trkpt>
      <trkpt lat="59.9135073" lon="17.7051252">
        <ele>42.916</ele>
        <time>2014-06-04T15:05:18Z</time>
      </trkpt>
      <trkpt lat="59.9134955" lon="17.7051691">
        <ele>44.358</ele>
        <time>2014-06-04T15:05:19Z</time>
      </trkpt>
      <trkpt lat="59.9134874" lon="17.7052136">
        <ele>45.3192</ele>
        <time>2014-06-04T15:05:20Z</time>
      </trkpt>
      <trkpt lat="59.9134761" lon="17.7052657">
        <ele>45.3192</ele>
        <time>2014-06-04T15:05:21Z</time>
      </trkpt>
      <trkpt lat="59.9134653" lon="17.7053242">
        <ele>45.7999</ele>
        <time>2014-06-04T15:05:22Z</time>
      </trkpt>
      <trkpt lat="59.9134517" lon="17.7053745">
        <ele>46.2806</ele>
        <time>2014-06-04T15:05:23Z</time>
      </trkpt>
      <trkpt lat="59.9134362" lon="17.7054225">
        <ele>47.2418</ele>
        <time>2014-06-04T15:05:24Z</time>
      </trkpt>
      <trkpt lat="59.9134221" lon="17.7054571">
        <ele>46.7612</ele>
        <time>2014-06-04T15:05:25Z</time>
      </trkpt>
      <trkpt lat="59.9134104" lon="17.7054931">
        <ele>46.7612</ele>
        <time>2014-06-04T15:05:26Z</time>
      </trkpt>
      <trkpt lat="59.9134032" lon="17.705536">
        <ele>46.7612</ele>
        <time>2014-06-04T15:05:27Z</time>
      </trkpt>
      <trkpt lat="59.9133975" lon="17.7055822">
        <ele>47.2418</ele>
        <time>2014-06-04T15:05:28Z</time>
      </trkpt>
      <trkpt lat="59.9133926" lon="17.705632">
        <ele>47.7225</ele>
        <time>2014-06-04T15:05:29Z</time>
      </trkpt>
      <trkpt lat="59.9133854" lon="17.7056764">
        <ele>48.2034</ele>
        <time>2014-06-04T15:05:30Z</time>
      </trkpt>
      <trkpt lat="59.9133791" lon="17.7057252">
        <ele>47.7225</ele>
        <time>2014-06-04T15:05:31Z</time>
      </trkpt>
      <trkpt lat="59.9133714" lon="17.7057737">
        <ele>48.2034</ele>
        <time>2014-06-04T15:05:32Z</time>
      </trkpt>
      <trkpt lat="59.9133591" lon="17.7058109">
        <ele>47.7225</ele>
        <time>2014-06-04T15:05:33Z</time>
      </trkpt>
      <trkpt lat="59.9133513" lon="17.7058479">
        <ele>48.2034</ele>
        <time>2014-06-04T15:05:34Z</time>
      </trkpt>
      <trkpt lat="59.9133392" lon="17.7058938">
        <ele>49.1646</ele>
        <time>2014-06-04T15:05:35Z</time>
      </trkpt>
      <trkpt lat="59.9133244" lon="17.7059402">
        <ele>50.6066</ele>
        <time>2014-06-04T15:05:36Z</time>
      </trkpt>
      <trkpt lat="59.9133042" lon="17.7059748">
        <ele>49.6453</ele>
        <time>2014-06-04T15:05:37Z</time>
      </trkpt>
      <trkpt lat="59.9132945" lon="17.7060168">
        <ele>50.126</ele>
        <time>2014-06-04T15:05:38Z</time>
      </trkpt>
      <trkpt lat="59.9132912" lon="17.7060722">
        <ele>51.0872</ele>
        <time>2014-06-04T15:05:39Z</time>
      </trkpt>
      <trkpt lat="59.913289" lon="17.7061307">
        <ele>53.4905</ele>
        <time>2014-06-04T15:05:40Z</time>
      </trkpt>
      <trkpt lat="59.9132751" lon="17.7061833">
        <ele>53.9712</ele>
        <time>2014-06-04T15:05:41Z</time>
      </trkpt>
      <trkpt lat="59.9132605" lon="17.7062124">
        <ele>51.5679</ele>
        <time>2014-06-04T15:05:42Z</time>
      </trkpt>
      <trkpt lat="59.9132476" lon="17.7062498">
        <ele>50.6066</ele>
        <time>2014-06-04T15:05:43Z</time>
      </trkpt>
      <trkpt lat="59.9132368" lon="17.7063072">
        <ele>51.0872</ele>
        <time>2014-06-04T15:05:44Z</time>
      </trkpt>
      <trkpt lat="59.9132187" lon="17.7064061">
        <ele>53.0098</ele>
        <time>2014-06-04T15:05:46Z</time>
      </trkpt>
      <trkpt lat="59.9132106" lon="17.7064487">
        <ele>53.9712</ele>
        <time>2014-06-04T15:05:47Z</time>
      </trkpt>
      <trkpt lat="59.9131991" lon="17.7064871">
        <ele>55.4131</ele>
        <time>2014-06-04T15:05:48Z</time>
      </trkpt>
      <trkpt lat="59.9131828" lon="17.7065296">
        <ele>56.8551</ele>
        <time>2014-06-04T15:05:49Z</time>
      </trkpt>
      <trkpt lat="59.9131602" lon="17.7065656">
        <ele>57.3358</ele>
        <time>2014-06-04T15:05:50Z</time>
      </trkpt>
      <trkpt lat="59.9131384" lon="17.7066094">
        <ele>59.7391</ele>
        <time>2014-06-04T15:05:51Z</time>
      </trkpt>
      <trkpt lat="59.9131211" lon="17.7066553">
        <ele>62.1423</ele>
        <time>2014-06-04T15:05:52Z</time>
      </trkpt>
      <trkpt lat="59.9131038" lon="17.7066983">
        <ele>64.0651</ele>
        <time>2014-06-04T15:05:53Z</time>
      </trkpt>
      <trkpt lat="59.9130861" lon="17.7067342">
        <ele>65.9877</ele>
        <time>2014-06-04T15:05:54Z</time>
      </trkpt>
      <trkpt lat="59.9130654" lon="17.7067806">
        <ele>67.9103</ele>
        <time>2014-06-04T15:05:55Z</time>
      </trkpt>
      <trkpt lat="59.9130473" lon="17.7068251">
        <ele>70.3135</ele>
        <time>2014-06-04T15:05:56Z</time>
      </trkpt>
      <trkpt lat="59.9130303" lon="17.7068595">
        <ele>72.7169</ele>
        <time>2014-06-04T15:05:57Z</time>
      </trkpt>
      <trkpt lat="59.9130089" lon="17.7068681">
        <ele>72.7169</ele>
        <time>2014-06-04T15:05:58Z</time>
      </trkpt>
      <trkpt lat="59.9129832" lon="17.7068709">
        <ele>73.6782</ele>
        <time>2014-06-04T15:05:59Z</time>
      </trkpt>
      <trkpt lat="59.9129556" lon="17.7068782">
        <ele>74.1588</ele>
        <time>2014-06-04T15:06:00Z</time>
      </trkpt>
      <trkpt lat="59.9129282" lon="17.7068813">
        <ele>72.7169</ele>
        <time>2014-06-04T15:06:01Z</time>
      </trkpt>
      <trkpt lat="59.9129104" lon="17.7068768">
        <ele>72.7169</ele>
        <time>2014-06-04T15:06:02Z</time>
      </trkpt>
      <trkpt lat="59.9128823" lon="17.7068465">
        <ele>70.3135</ele>
        <time>2014-06-04T15:06:03Z</time>
      </trkpt>
      <trkpt lat="59.9128502" lon="17.7068143">
        <ele>66.949</ele>
        <time>2014-06-04T15:06:04Z</time>
      </trkpt>
      <trkpt lat="59.9128171" lon="17.7067904">
        <ele>64.0651</ele>
        <time>2014-06-04T15:06:05Z</time>
      </trkpt>
      <trkpt lat="59.9127929" lon="17.7067907">
        <ele>64.5457</ele>
        <time>2014-06-04T15:06:06Z</time>
      </trkpt>
      <trkpt lat="59.9127639" lon="17.706799">
        <ele>64.5457</ele>
        <time>2014-06-04T15:06:07Z</time>
      </trkpt>
      <trkpt lat="59.9127368" lon="17.7068042">
        <ele>63.5844</ele>
        <time>2014-06-04T15:06:08Z</time>
      </trkpt>
      <trkpt lat="59.9127159" lon="17.7068144">
        <ele>64.0651</ele>
        <time>2014-06-04T15:06:09Z</time>
      </trkpt>
      <trkpt lat="59.9126977" lon="17.7068154">
        <ele>64.5457</ele>
        <time>2014-06-04T15:06:10Z</time>
      </trkpt>
      <trkpt lat="59.9126763" lon="17.706807">
        <ele>63.1036</ele>
        <time>2014-06-04T15:06:11Z</time>
      </trkpt>
      <trkpt lat="59.9126529" lon="17.7068274">
        <ele>64.0651</ele>
        <time>2014-06-04T15:06:12Z</time>
      </trkpt>
      <trkpt lat="59.9126287" lon="17.706845">
        <ele>64.0651</ele>
        <time>2014-06-04T15:06:13Z</time>
      </trkpt>
      <trkpt lat="59.9126033" lon="17.7068575">
        <ele>62.6229</ele>
        <time>2014-06-04T15:06:14Z</time>
      </trkpt>
      <trkpt lat="59.9125847" lon="17.7068824">
        <ele>63.5844</ele>
        <time>2014-06-04T15:06:15Z</time>
      </trkpt>
      <trkpt lat="59.9125655" lon="17.7069029">
        <ele>64.0651</ele>
        <time>2014-06-04T15:06:16Z</time>
      </trkpt>
      <trkpt lat="59.9125464" lon="17.7069251">
        <ele>65.0264</ele>
        <time>2014-06-04T15:06:17Z</time>
      </trkpt>
      <trkpt lat="59.9125297" lon="17.70695">
        <ele>66.4683</ele>
        <time>2014-06-04T15:06:18Z</time>
      </trkpt>
      <trkpt lat="59.9125127" lon="17.7069885">
        <ele>67.9103</ele>
        <time>2014-06-04T15:06:19Z</time>
      </trkpt>
      <trkpt lat="59.9124918" lon="17.7070175">
        <ele>66.949</ele>
        <time>2014-06-04T15:06:20Z</time>
      </trkpt>
      <trkpt lat="59.912477" lon="17.7070399">
        <ele>65.0264</ele>
        <time>2014-06-04T15:06:21Z</time>
      </trkpt>
      <trkpt lat="59.9124619" lon="17.7070652">
        <ele>64.5457</ele>
        <time>2014-06-04T15:06:22Z</time>
      </trkpt>
      <trkpt lat="59.9124526" lon="17.7070938">
        <ele>64.5457</ele>
        <time>2014-06-04T15:06:23Z</time>
      </trkpt>
      <trkpt lat="59.9124462" lon="17.7071272">
        <ele>63.5844</ele>
        <time>2014-06-04T15:06:24Z</time>
      </trkpt>
      <trkpt lat="59.912441" lon="17.7071713">
        <ele>62.1423</ele>
        <time>2014-06-04T15:06:25Z</time>
      </trkpt>
      <trkpt lat="59.9124394" lon="17.7072009">
        <ele>60.2197</ele>
        <time>2014-06-04T15:06:26Z</time>
      </trkpt>
      <trkpt lat="59.9124412" lon="17.7072409">
        <ele>59.7391</ele>
        <time>2014-06-04T15:06:27Z</time>
      </trkpt>
      <trkpt lat="59.9124433" lon="17.7072738">
        <ele>58.2971</ele>
        <time>2014-06-04T15:06:28Z</time>
      </trkpt>
      <trkpt lat="59.9124428" lon="17.7073127">
        <ele>57.3358</ele>
        <time>2014-06-04T15:06:29Z</time>
      </trkpt>
      <trkpt lat="59.9124441" lon="17.707363">
        <ele>56.8551</ele>
        <time>2014-06-04T15:06:30Z</time>
      </trkpt>
      <trkpt lat="59.9124468" lon="17.7074062">
        <ele>56.3745</ele>
        <time>2014-06-04T15:06:31Z</time>
      </trkpt>
      <trkpt lat="59.9124483" lon="17.7074495">
        <ele>55.8938</ele>
        <time>2014-06-04T15:06:32Z</time>
      </trkpt>
      <trkpt lat="59.9124509" lon="17.7074923">
        <ele>54.9324</ele>
        <time>2014-06-04T15:06:33Z</time>
      </trkpt>
      <trkpt lat="59.912449" lon="17.7075365">
        <ele>53.9712</ele>
        <time>2014-06-04T15:06:34Z</time>
      </trkpt>
      <trkpt lat="59.9124504" lon="17.7075804">
        <ele>54.4518</ele>
        <time>2014-06-04T15:06:35Z</time>
      </trkpt>
      <trkpt lat="59.9124443" lon="17.707621">
        <ele>53.0098</ele>
        <time>2014-06-04T15:06:36Z</time>
      </trkpt>
      <trkpt lat="59.912436" lon="17.7076705">
        <ele>52.5292</ele>
        <time>2014-06-04T15:06:37Z</time>
      </trkpt>
      <trkpt lat="59.9124385" lon="17.707738">
        <ele>55.8938</ele>
        <time>2014-06-04T15:06:38Z</time>
      </trkpt>
      <trkpt lat="59.9124281" lon="17.7077846">
        <ele>56.3745</ele>
        <time>2014-06-04T15:06:39Z</time>
      </trkpt>
      <trkpt lat="59.9124148" lon="17.7078228">
        <ele>55.8938</ele>
        <time>2014-06-04T15:06:40Z</time>
      </trkpt>
      <trkpt lat="59.9123996" lon="17.7078601">
        <ele>54.9324</ele>
        <time>2014-06-04T15:06:41Z</time>
      </trkpt>
      <trkpt lat="59.9123812" lon="17.7079023">
        <ele>54.9324</ele>
        <time>2014-06-04T15:06:42Z</time>
      </trkpt>
      <trkpt lat="59.9123607" lon="17.7079511">
        <ele>54.9324</ele>
        <time>2014-06-04T15:06:43Z</time>
      </trkpt>
      <trkpt lat="59.9123459" lon="17.7079935">
        <ele>55.8938</ele>
        <time>2014-06-04T15:06:44Z</time>
      </trkpt>
      <trkpt lat="59.9123279" lon="17.7080335">
        <ele>54.9324</ele>
        <time>2014-06-04T15:06:45Z</time>
      </trkpt>
      <trkpt lat="59.9123187" lon="17.7080857">
        <ele>55.8938</ele>
        <time>2014-06-04T15:06:46Z</time>
      </trkpt>
      <trkpt lat="59.9123127" lon="17.7081371">
        <ele>56.8551</ele>
        <time>2014-06-04T15:06:47Z</time>
      </trkpt>
      <trkpt lat="59.9123055" lon="17.7081835">
        <ele>57.3358</ele>
        <time>2014-06-04T15:06:48Z</time>
      </trkpt>
      <trkpt lat="59.9122973" lon="17.7082208">
        <ele>56.8551</ele>
        <time>2014-06-04T15:06:49Z</time>
      </trkpt>
      <trkpt lat="59.9122915" lon="17.7082534">
        <ele>56.3745</ele>
        <time>2014-06-04T15:06:50Z</time>
      </trkpt>
      <trkpt lat="59.9122926" lon="17.7082898">
        <ele>56.8551</ele>
        <time>2014-06-04T15:06:51Z</time>
      </trkpt>
      <trkpt lat="59.9122909" lon="17.708331">
        <ele>56.3745</ele>
        <time>2014-06-04T15:06:52Z</time>
      </trkpt>
      <trkpt lat="59.9122853" lon="17.7083717">
        <ele>55.8938</ele>
        <time>2014-06-04T15:06:53Z</time>
      </trkpt>
      <trkpt lat="59.9122796" lon="17.7084108">
        <ele>55.4131</ele>
        <time>2014-06-04T15:06:54Z</time>
      </trkpt>
      <trkpt lat="59.9122703" lon="17.7084497">
        <ele>54.4518</ele>
        <time>2014-06-04T15:06:55Z</time>
      </trkpt>
      <trkpt lat="59.9122608" lon="17.7084952">
        <ele>53.4905</ele>
        <time>2014-06-04T15:06:56Z</time>
      </trkpt>
      <trkpt lat="59.9122528" lon="17.708545">
        <ele>53.4905</ele>
        <time>2014-06-04T15:06:57Z</time>
      </trkpt>
      <trkpt lat="59.9122444" lon="17.7085937">
        <ele>53.4905</ele>
        <time>2014-06-04T15:06:58Z</time>
      </trkpt>
      <trkpt lat="59.912237" lon="17.7086356">
        <ele>53.4905</ele>
        <time>2014-06-04T15:06:59Z</time>
      </trkpt>
      <trkpt lat="59.9122302" lon="17.7086756">
        <ele>53.0098</ele>
        <time>2014-06-04T15:07:00Z</time>
      </trkpt>
      <trkpt lat="59.9122144" lon="17.7087155">
        <ele>51.5679</ele>
        <time>2014-06-04T15:07:01Z</time>
      </trkpt>
      <trkpt lat="59.9121987" lon="17.7087565">
        <ele>52.0486</ele>
        <time>2014-06-04T15:07:02Z</time>
      </trkpt>
      <trkpt lat="59.9121821" lon="17.7087907">
        <ele>52.0486</ele>
        <time>2014-06-04T15:07:03Z</time>
      </trkpt>
      <trkpt lat="59.9121661" lon="17.7088274">
        <ele>52.5292</ele>
        <time>2014-06-04T15:07:04Z</time>
      </trkpt>
      <trkpt lat="59.9121506" lon="17.7088709">
        <ele>53.4905</ele>
        <time>2014-06-04T15:07:05Z</time>
      </trkpt>
      <trkpt lat="59.9121325" lon="17.708915">
        <ele>53.9712</ele>
        <time>2014-06-04T15:07:06Z</time>
      </trkpt>
      <trkpt lat="59.9121153" lon="17.7089544">
        <ele>54.4518</ele>
        <time>2014-06-04T15:07:07Z</time>
      </trkpt>
      <trkpt lat="59.9121038" lon="17.7090042">
        <ele>55.8938</ele>
        <time>2014-06-04T15:07:08Z</time>
      </trkpt>
      <trkpt lat="59.9120888" lon="17.7090523">
        <ele>56.8551</ele>
        <time>2014-06-04T15:07:09Z</time>
      </trkpt>
      <trkpt lat="59.9120759" lon="17.7090977">
        <ele>57.3358</ele>
        <time>2014-06-04T15:07:10Z</time>
      </trkpt>
      <trkpt lat="59.9120618" lon="17.7091482">
        <ele>58.2971</ele>
        <time>2014-06-04T15:07:11Z</time>
      </trkpt>
      <trkpt lat="59.9120461" lon="17.7092056">
        <ele>58.7777</ele>
        <time>2014-06-04T15:07:12Z</time>
      </trkpt>
      <trkpt lat="59.9120361" lon="17.7092619">
        <ele>60.2197</ele>
        <time>2014-06-04T15:07:13Z</time>
      </trkpt>
      <trkpt lat="59.9120253" lon="17.7093016">
        <ele>59.2584</ele>
        <time>2014-06-04T15:07:14Z</time>
      </trkpt>
      <trkpt lat="59.9120227" lon="17.7093412">
        <ele>58.2971</ele>
        <time>2014-06-04T15:07:15Z</time>
      </trkpt>
      <trkpt lat="59.9120237" lon="17.7093907">
        <ele>57.8165</ele>
        <time>2014-06-04T15:07:16Z</time>
      </trkpt>
      <trkpt lat="59.9120247" lon="17.7094315">
        <ele>57.3358</ele>
        <time>2014-06-04T15:07:17Z</time>
      </trkpt>
      <trkpt lat="59.9120224" lon="17.7094708">
        <ele>56.3745</ele>
        <time>2014-06-04T15:07:18Z</time>
      </trkpt>
      <trkpt lat="59.9120207" lon="17.7095091">
        <ele>55.4131</ele>
        <time>2014-06-04T15:07:19Z</time>
      </trkpt>
      <trkpt lat="59.9120165" lon="17.7095459">
        <ele>54.4518</ele>
        <time>2014-06-04T15:07:20Z</time>
      </trkpt>
      <trkpt lat="59.9120041" lon="17.7095812">
        <ele>53.4905</ele>
        <time>2014-06-04T15:07:21Z</time>
      </trkpt>
      <trkpt lat="59.9119916" lon="17.7096204">
        <ele>52.5292</ele>
        <time>2014-06-04T15:07:22Z</time>
      </trkpt>
      <trkpt lat="59.9119758" lon="17.7096516">
        <ele>50.6066</ele>
        <time>2014-06-04T15:07:23Z</time>
      </trkpt>
      <trkpt lat="59.9119574" lon="17.7096702">
        <ele>48.684</ele>
        <time>2014-06-04T15:07:24Z</time>
      </trkpt>
      <trkpt lat="59.9119394" lon="17.7096952">
        <ele>46.7612</ele>
        <time>2014-06-04T15:07:25Z</time>
      </trkpt>
      <trkpt lat="59.9119227" lon="17.7097251">
        <ele>45.7999</ele>
        <time>2014-06-04T15:07:26Z</time>
      </trkpt>
      <trkpt lat="59.9119097" lon="17.7097636">
        <ele>45.3192</ele>
        <time>2014-06-04T15:07:27Z</time>
      </trkpt>
      <trkpt lat="59.9118999" lon="17.7097982">
        <ele>45.7999</ele>
        <time>2014-06-04T15:07:28Z</time>
      </trkpt>
      <trkpt lat="59.9118943" lon="17.7098303">
        <ele>45.7999</ele>
        <time>2014-06-04T15:07:29Z</time>
      </trkpt>
      <trkpt lat="59.911889" lon="17.7098736">
        <ele>46.7612</ele>
        <time>2014-06-04T15:07:30Z</time>
      </trkpt>
      <trkpt lat="59.9118739" lon="17.7099185">
        <ele>46.2806</ele>
        <time>2014-06-04T15:07:31Z</time>
      </trkpt>
      <trkpt lat="59.9118596" lon="17.7099686">
        <ele>46.7612</ele>
        <time>2014-06-04T15:07:32Z</time>
      </trkpt>
      <trkpt lat="59.9118446" lon="17.7100203">
        <ele>48.684</ele>
        <time>2014-06-04T15:07:33Z</time>
      </trkpt>
      <trkpt lat="59.9118192" lon="17.7100448">
        <ele>47.7225</ele>
        <time>2014-06-04T15:07:34Z</time>
      </trkpt>
      <trkpt lat="59.9117931" lon="17.7100698">
        <ele>47.2418</ele>
        <time>2014-06-04T15:07:35Z</time>
      </trkpt>
      <trkpt lat="59.9117754" lon="17.710109">
        <ele>49.6453</ele>
        <time>2014-06-04T15:07:36Z</time>
      </trkpt>
      <trkpt lat="59.9117551" lon="17.7101546">
        <ele>52.5292</ele>
        <time>2014-06-04T15:07:37Z</time>
      </trkpt>
      <trkpt lat="59.9117295" lon="17.710187">
        <ele>53.9712</ele>
        <time>2014-06-04T15:07:38Z</time>
      </trkpt>
      <trkpt lat="59.9117049" lon="17.7102186">
        <ele>56.8551</ele>
        <time>2014-06-04T15:07:39Z</time>
      </trkpt>
      <trkpt lat="59.9116787" lon="17.7102142">
        <ele>55.4131</ele>
        <time>2014-06-04T15:07:40Z</time>
      </trkpt>
      <trkpt lat="59.9116564" lon="17.7102116">
        <ele>55.8938</ele>
        <time>2014-06-04T15:07:41Z</time>
      </trkpt>
      <trkpt lat="59.9116269" lon="17.7102017">
        <ele>55.4131</ele>
        <time>2014-06-04T15:07:42Z</time>
      </trkpt>
      <trkpt lat="59.9115968" lon="17.7101928">
        <ele>54.4518</ele>
        <time>2014-06-04T15:07:43Z</time>
      </trkpt>
      <trkpt lat="59.9115707" lon="17.7101668">
        <ele>53.4905</ele>
        <time>2014-06-04T15:07:44Z</time>
      </trkpt>
      <trkpt lat="59.9115585" lon="17.7101435">
        <ele>53.4905</ele>
        <time>2014-06-04T15:07:45Z</time>
      </trkpt>
      <trkpt lat="59.9115422" lon="17.7101249">
        <ele>53.9712</ele>
        <time>2014-06-04T15:07:46Z</time>
      </trkpt>
      <trkpt lat="59.911529" lon="17.7101054">
        <ele>52.5292</ele>
        <time>2014-06-04T15:07:47Z</time>
      </trkpt>
      <trkpt lat="59.911513" lon="17.7100742">
        <ele>52.0486</ele>
        <time>2014-06-04T15:07:48Z</time>
      </trkpt>
      <trkpt lat="59.9115025" lon="17.7100404">
        <ele>50.6066</ele>
        <time>2014-06-04T15:07:49Z</time>
      </trkpt>
      <trkpt lat="59.9114927" lon="17.7100013">
        <ele>49.1646</ele>
        <time>2014-06-04T15:07:50Z</time>
      </trkpt>
      <trkpt lat="59.9114873" lon="17.7099692">
        <ele>49.1646</ele>
        <time>2014-06-04T15:07:51Z</time>
      </trkpt>
      <trkpt lat="59.9114865" lon="17.7099372">
        <ele>47.7225</ele>
        <time>2014-06-04T15:07:52Z</time>
      </trkpt>
      <trkpt lat="59.9114745" lon="17.7098951">
        <ele>47.7225</ele>
        <time>2014-06-04T15:07:53Z</time>
      </trkpt>
      <trkpt lat="59.9114752" lon="17.7098486">
        <ele>47.2418</ele>
        <time>2014-06-04T15:07:54Z</time>
      </trkpt>
      <trkpt lat="59.91147" lon="17.7098011">
        <ele>46.2806</ele>
        <time>2014-06-04T15:07:55Z</time>
      </trkpt>
      <trkpt lat="59.9114645" lon="17.7097364">
        <ele>46.2806</ele>
        <time>2014-06-04T15:07:56Z</time>
      </trkpt>
      <trkpt lat="59.9114575" lon="17.7096884">
        <ele>45.3192</ele>
        <time>2014-06-04T15:07:57Z</time>
      </trkpt>
      <trkpt lat="59.9114386" lon="17.7096283">
        <ele>44.8386</ele>
        <time>2014-06-04T15:07:58Z</time>
      </trkpt>
      <trkpt lat="59.9114237" lon="17.7095794">
        <ele>44.8386</ele>
        <time>2014-06-04T15:07:59Z</time>
      </trkpt>
      <trkpt lat="59.9114083" lon="17.7095369">
        <ele>44.8386</ele>
        <time>2014-06-04T15:08:00Z</time>
      </trkpt>
      <trkpt lat="59.9113927" lon="17.7094921">
        <ele>46.2806</ele>
        <time>2014-06-04T15:08:01Z</time>
      </trkpt>
      <trkpt lat="59.9113839" lon="17.7094512">
        <ele>46.7612</ele>
        <time>2014-06-04T15:08:02Z</time>
      </trkpt>
      <trkpt lat="59.9113745" lon="17.7093999">
        <ele>47.2418</ele>
        <time>2014-06-04T15:08:03Z</time>
      </trkpt>
      <trkpt lat="59.9113643" lon="17.7093605">
        <ele>47.2418</ele>
        <time>2014-06-04T15:08:04Z</time>
      </trkpt>
      <trkpt lat="59.9113548" lon="17.709343">
        <ele>47.7225</ele>
        <time>2014-06-04T15:08:05Z</time>
      </trkpt>
      <trkpt lat="59.9113442" lon="17.709338">
        <ele>47.2418</ele>
        <time>2014-06-04T15:08:06Z</time>
      </trkpt>
      <trkpt lat="59.911334" lon="17.7093449">
        <ele>48.2034</ele>
        <time>2014-06-04T15:08:07Z</time>
      </trkpt>
      <trkpt lat="59.9113239" lon="17.7093387">
        <ele>48.684</ele>
        <time>2014-06-04T15:08:08Z</time>
      </trkpt>
      <trkpt lat="59.9113061" lon="17.7093233">
        <ele>49.1646</ele>
        <time>2014-06-04T15:08:09Z</time>
      </trkpt>
      <trkpt lat="59.9112879" lon="17.7093056">
        <ele>49.6453</ele>
        <time>2014-06-04T15:08:10Z</time>
      </trkpt>
      <trkpt lat="59.9112713" lon="17.7092983">
        <ele>49.6453</ele>
        <time>2014-06-04T15:08:11Z</time>
      </trkpt>
      <trkpt lat="59.9112554" lon="17.709279">
        <ele>50.126</ele>
        <time>2014-06-04T15:08:12Z</time>
      </trkpt>
      <trkpt lat="59.9112349" lon="17.7092692">
        <ele>49.6453</ele>
        <time>2014-06-04T15:08:13Z</time>
      </trkpt>
      <trkpt lat="59.9112089" lon="17.7092543">
        <ele>50.126</ele>
        <time>2014-06-04T15:08:14Z</time>
      </trkpt>
      <trkpt lat="59.9111869" lon="17.7092425">
        <ele>50.126</ele>
        <time>2014-06-04T15:08:15Z</time>
      </trkpt>
      <trkpt lat="59.9111612" lon="17.7092377">
        <ele>50.6066</ele>
        <time>2014-06-04T15:08:16Z</time>
      </trkpt>
      <trkpt lat="59.9111394" lon="17.7092366">
        <ele>51.0872</ele>
        <time>2014-06-04T15:08:17Z</time>
      </trkpt>
      <trkpt lat="59.9111218" lon="17.7092396">
        <ele>52.0486</ele>
        <time>2014-06-04T15:08:18Z</time>
      </trkpt>
      <trkpt lat="59.9111038" lon="17.7092542">
        <ele>53.0098</ele>
        <time>2014-06-04T15:08:19Z</time>
      </trkpt>
      <trkpt lat="59.9110866" lon="17.7092745">
        <ele>53.9712</ele>
        <time>2014-06-04T15:08:20Z</time>
      </trkpt>
      <trkpt lat="59.9110745" lon="17.7092978">
        <ele>54.9324</ele>
        <time>2014-06-04T15:08:21Z</time>
      </trkpt>
      <trkpt lat="59.9110626" lon="17.7093109">
        <ele>55.4131</ele>
        <time>2014-06-04T15:08:22Z</time>
      </trkpt>
      <trkpt lat="59.9110475" lon="17.709322">
        <ele>56.8551</ele>
        <time>2014-06-04T15:08:23Z</time>
      </trkpt>
      <trkpt lat="59.9110323" lon="17.7093373">
        <ele>56.8551</ele>
        <time>2014-06-04T15:08:24Z</time>
      </trkpt>
      <trkpt lat="59.9110129" lon="17.709345">
        <ele>57.3358</ele>
        <time>2014-06-04T15:08:25Z</time>
      </trkpt>
      <trkpt lat="59.9109893" lon="17.7093528">
        <ele>57.3358</ele>
        <time>2014-06-04T15:08:26Z</time>
      </trkpt>
      <trkpt lat="59.9109612" lon="17.7093583">
        <ele>57.8165</ele>
        <time>2014-06-04T15:08:27Z</time>
      </trkpt>
      <trkpt lat="59.9109364" lon="17.7093681">
        <ele>58.2971</ele>
        <time>2014-06-04T15:08:28Z</time>
      </trkpt>
      <trkpt lat="59.9109151" lon="17.7093538">
        <ele>58.2971</ele>
        <time>2014-06-04T15:08:29Z</time>
      </trkpt>
      <trkpt lat="59.9109022" lon="17.7093409">
        <ele>57.3358</ele>
        <time>2014-06-04T15:08:30Z</time>
      </trkpt>
      <trkpt lat="59.9108898" lon="17.7093368">
        <ele>57.8165</ele>
        <time>2014-06-04T15:08:31Z</time>
      </trkpt>
      <trkpt lat="59.9108783" lon="17.7093236">
        <ele>57.3358</ele>
        <time>2014-06-04T15:08:32Z</time>
      </trkpt>
      <trkpt lat="59.9108683" lon="17.7093093">
        <ele>56.8551</ele>
        <time>2014-06-04T15:08:33Z</time>
      </trkpt>
      <trkpt lat="59.9108596" lon="17.7092906">
        <ele>56.8551</ele>
        <time>2014-06-04T15:08:34Z</time>
      </trkpt>
      <trkpt lat="59.910854" lon="17.7092824">
        <ele>56.8551</ele>
        <time>2014-06-04T15:08:35Z</time>
      </trkpt>
      <trkpt lat="59.9108431" lon="17.7092731">
        <ele>56.3745</ele>
        <time>2014-06-04T15:08:36Z</time>
      </trkpt>
      <trkpt lat="59.9108315" lon="17.7092617">
        <ele>56.3745</ele>
        <time>2014-06-04T15:08:37Z</time>
      </trkpt>
      <trkpt lat="59.9108208" lon="17.7092455">
        <ele>56.3745</ele>
        <time>2014-06-04T15:08:38Z</time>
      </trkpt>
      <trkpt lat="59.910808" lon="17.7092295">
        <ele>56.3745</ele>
        <time>2014-06-04T15:08:39Z</time>
      </trkpt>
      <trkpt lat="59.910796" lon="17.7092134">
        <ele>56.3745</ele>
        <time>2014-06-04T15:08:40Z</time>
      </trkpt>
      <trkpt lat="59.9107854" lon="17.7091995">
        <ele>56.3745</ele>
        <time>2014-06-04T15:08:41Z</time>
      </trkpt>
      <trkpt lat="59.9107728" lon="17.7091911">
        <ele>56.3745</ele>
        <time>2014-06-04T15:08:42Z</time>
      </trkpt>
      <trkpt lat="59.9107583" lon="17.7091795">
        <ele>55.8938</ele>
        <time>2014-06-04T15:08:43Z</time>
      </trkpt>
      <trkpt lat="59.9107416" lon="17.7091682">
        <ele>55.8938</ele>
        <time>2014-06-04T15:08:44Z</time>
      </trkpt>
      <trkpt lat="59.9107236" lon="17.7091673">
        <ele>55.8938</ele>
        <time>2014-06-04T15:08:45Z</time>
      </trkpt>
      <trkpt lat="59.9107018" lon="17.7091751">
        <ele>55.8938</ele>
        <time>2014-06-04T15:08:46Z</time>
      </trkpt>
      <trkpt lat="59.9106795" lon="17.7091842">
        <ele>55.4131</ele>
        <time>2014-06-04T15:08:47Z</time>
      </trkpt>
      <trkpt lat="59.9106598" lon="17.709188">
        <ele>54.4518</ele>
        <time>2014-06-04T15:08:48Z</time>
      </trkpt>
      <trkpt lat="59.91064" lon="17.7091982">
        <ele>54.4518</ele>
        <time>2014-06-04T15:08:49Z</time>
      </trkpt>
      <trkpt lat="59.9106205" lon="17.7092092">
        <ele>54.4518</ele>
        <time>2014-06-04T15:08:50Z</time>
      </trkpt>
      <trkpt lat="59.9105893" lon="17.7092292">
        <ele>55.4131</ele>
        <time>2014-06-04T15:08:51Z</time>
      </trkpt>
      <trkpt lat="59.9105592" lon="17.709237">
        <ele>55.8938</ele>
        <time>2014-06-04T15:08:52Z</time>
      </trkpt>
      <trkpt lat="59.9105314" lon="17.7092329">
        <ele>55.4131</ele>
        <time>2014-06-04T15:08:53Z</time>
      </trkpt>
      <trkpt lat="59.9105124" lon="17.7092235">
        <ele>55.8938</ele>
        <time>2014-06-04T15:08:54Z</time>
      </trkpt>
      <trkpt lat="59.9104974" lon="17.7092055">
        <ele>55.8938</ele>
        <time>2014-06-04T15:08:55Z</time>
      </trkpt>
      <trkpt lat="59.9104772" lon="17.7091896">
        <ele>55.8938</ele>
        <time>2014-06-04T15:08:56Z</time>
      </trkpt>
      <trkpt lat="59.9104603" lon="17.7091787">
        <ele>55.8938</ele>
        <time>2014-06-04T15:08:57Z</time>
      </trkpt>
      <trkpt lat="59.9104444" lon="17.7091629">
        <ele>56.3745</ele>
        <time>2014-06-04T15:08:58Z</time>
      </trkpt>
      <trkpt lat="59.9104261" lon="17.7091413">
        <ele>55.8938</ele>
        <time>2014-06-04T15:08:59Z</time>
      </trkpt>
      <trkpt lat="59.9104101" lon="17.7091176">
        <ele>55.8938</ele>
        <time>2014-06-04T15:09:00Z</time>
      </trkpt>
      <trkpt lat="59.9103938" lon="17.7090984">
        <ele>55.4131</ele>
        <time>2014-06-04T15:09:01Z</time>
      </trkpt>
      <trkpt lat="59.91038" lon="17.7090904">
        <ele>55.4131</ele>
        <time>2014-06-04T15:09:02Z</time>
      </trkpt>
      <trkpt lat="59.9103691" lon="17.7090951">
        <ele>54.9324</ele>
        <time>2014-06-04T15:09:03Z</time>
      </trkpt>
      <trkpt lat="59.9103484" lon="17.7090914">
        <ele>54.9324</ele>
        <time>2014-06-04T15:09:04Z</time>
      </trkpt>
      <trkpt lat="59.9103241" lon="17.7090946">
        <ele>55.4131</ele>
        <time>2014-06-04T15:09:05Z</time>
      </trkpt>
      <trkpt lat="59.9103034" lon="17.7091002">
        <ele>55.4131</ele>
        <time>2014-06-04T15:09:06Z</time>
      </trkpt>
      <trkpt lat="59.9102852" lon="17.7090992">
        <ele>55.4131</ele>
        <time>2014-06-04T15:09:07Z</time>
      </trkpt>
      <trkpt lat="59.9102723" lon="17.7090989">
        <ele>55.4131</ele>
        <time>2014-06-04T15:09:08Z</time>
      </trkpt>
      <trkpt lat="59.9102516" lon="17.7091051">
        <ele>55.8938</ele>
        <time>2014-06-04T15:09:09Z</time>
      </trkpt>
      <trkpt lat="59.9102235" lon="17.7091181">
        <ele>56.8551</ele>
        <time>2014-06-04T15:09:10Z</time>
      </trkpt>
      <trkpt lat="59.9101951" lon="17.7091227">
        <ele>56.8551</ele>
        <time>2014-06-04T15:09:11Z</time>
      </trkpt>
      <trkpt lat="59.9101744" lon="17.7091347">
        <ele>56.8551</ele>
        <time>2014-06-04T15:09:12Z</time>
      </trkpt>
      <trkpt lat="59.9101488" lon="17.7091518">
        <ele>57.8165</ele>
        <time>2014-06-04T15:09:13Z</time>
      </trkpt>
      <trkpt lat="59.9101241" lon="17.7091647">
        <ele>59.2584</ele>
        <time>2014-06-04T15:09:14Z</time>
      </trkpt>
      <trkpt lat="59.9101055" lon="17.7091713">
        <ele>59.7391</ele>
        <time>2014-06-04T15:09:15Z</time>
      </trkpt>
      <trkpt lat="59.9100827" lon="17.7091756">
        <ele>59.7391</ele>
        <time>2014-06-04T15:09:16Z</time>
      </trkpt>
      <trkpt lat="59.9100597" lon="17.709184">
        <ele>59.2584</ele>
        <time>2014-06-04T15:09:17Z</time>
      </trkpt>
      <trkpt lat="59.9100329" lon="17.709188">
        <ele>58.7777</ele>
        <time>2014-06-04T15:09:18Z</time>
      </trkpt>
      <trkpt lat="59.9100103" lon="17.7092047">
        <ele>59.7391</ele>
        <time>2014-06-04T15:09:19Z</time>
      </trkpt>
      <trkpt lat="59.9099838" lon="17.7092113">
        <ele>59.7391</ele>
        <time>2014-06-04T15:09:20Z</time>
      </trkpt>
      <trkpt lat="59.9099551" lon="17.7092195">
        <ele>59.7391</ele>
        <time>2014-06-04T15:09:21Z</time>
      </trkpt>
      <trkpt lat="59.9099305" lon="17.7092334">
        <ele>59.2584</ele>
        <time>2014-06-04T15:09:22Z</time>
      </trkpt>
      <trkpt lat="59.9099064" lon="17.7092662">
        <ele>60.2197</ele>
        <time>2014-06-04T15:09:23Z</time>
      </trkpt>
      <trkpt lat="59.9098768" lon="17.7092833">
        <ele>60.7003</ele>
        <time>2014-06-04T15:09:24Z</time>
      </trkpt>
      <trkpt lat="59.9098547" lon="17.7092952">
        <ele>61.6617</ele>
        <time>2014-06-04T15:09:25Z</time>
      </trkpt>
      <trkpt lat="59.9098304" lon="17.7092968">
        <ele>60.7003</ele>
        <time>2014-06-04T15:09:26Z</time>
      </trkpt>
      <trkpt lat="59.9098079" lon="17.7092992">
        <ele>59.7391</ele>
        <time>2014-06-04T15:09:27Z</time>
      </trkpt>
      <trkpt lat="59.9097811" lon="17.709307">
        <ele>58.7777</ele>
        <time>2014-06-04T15:09:28Z</time>
      </trkpt>
      <trkpt lat="59.9097558" lon="17.7093191">
        <ele>59.2584</ele>
        <time>2014-06-04T15:09:29Z</time>
      </trkpt>
      <trkpt lat="59.9097288" lon="17.7093215">
        <ele>58.2971</ele>
        <time>2014-06-04T15:09:30Z</time>
      </trkpt>
      <trkpt lat="59.9097004" lon="17.7093386">
        <ele>57.8165</ele>
        <time>2014-06-04T15:09:31Z</time>
      </trkpt>
      <trkpt lat="59.9096826" lon="17.709363">
        <ele>59.2584</ele>
        <time>2014-06-04T15:09:32Z</time>
      </trkpt>
      <trkpt lat="59.909666" lon="17.7093759">
        <ele>59.2584</ele>
        <time>2014-06-04T15:09:33Z</time>
      </trkpt>
      <trkpt lat="59.9096406" lon="17.7094091">
        <ele>59.2584</ele>
        <time>2014-06-04T15:09:34Z</time>
      </trkpt>
      <trkpt lat="59.9096231" lon="17.7094336">
        <ele>59.7391</ele>
        <time>2014-06-04T15:09:35Z</time>
      </trkpt>
      <trkpt lat="59.9096121" lon="17.7094655">
        <ele>61.181</ele>
        <time>2014-06-04T15:09:36Z</time>
      </trkpt>
      <trkpt lat="59.9095969" lon="17.7094936">
        <ele>61.6617</ele>
        <time>2014-06-04T15:09:37Z</time>
      </trkpt>
      <trkpt lat="59.9095787" lon="17.709532">
        <ele>62.1423</ele>
        <time>2014-06-04T15:09:38Z</time>
      </trkpt>
      <trkpt lat="59.9095555" lon="17.7095827">
        <ele>63.1036</ele>
        <time>2014-06-04T15:09:39Z</time>
      </trkpt>
      <trkpt lat="59.9095382" lon="17.7096252">
        <ele>63.5844</ele>
        <time>2014-06-04T15:09:40Z</time>
      </trkpt>
      <trkpt lat="59.9095238" lon="17.7096635">
        <ele>64.0651</ele>
        <time>2014-06-04T15:09:41Z</time>
      </trkpt>
      <trkpt lat="59.9095056" lon="17.7096817">
        <ele>62.6229</ele>
        <time>2014-06-04T15:09:42Z</time>
      </trkpt>
      <trkpt lat="59.9094866" lon="17.709702">
        <ele>61.181</ele>
        <time>2014-06-04T15:09:43Z</time>
      </trkpt>
      <trkpt lat="59.9094689" lon="17.7097324">
        <ele>62.1423</ele>
        <time>2014-06-04T15:09:44Z</time>
      </trkpt>
      <trkpt lat="59.9094508" lon="17.7097578">
        <ele>62.6229</ele>
        <time>2014-06-04T15:09:45Z</time>
      </trkpt>
      <trkpt lat="59.9094357" lon="17.7097785">
        <ele>62.6229</ele>
        <time>2014-06-04T15:09:46Z</time>
      </trkpt>
      <trkpt lat="59.9094207" lon="17.7098048">
        <ele>62.6229</ele>
        <time>2014-06-04T15:09:47Z</time>
      </trkpt>
      <trkpt lat="59.9093984" lon="17.7098408">
        <ele>62.1423</ele>
        <time>2014-06-04T15:09:48Z</time>
      </trkpt>
      <trkpt lat="59.9093735" lon="17.7098873">
        <ele>63.1036</ele>
        <time>2014-06-04T15:09:49Z</time>
      </trkpt>
      <trkpt lat="59.9093513" lon="17.709918">
        <ele>63.5844</ele>
        <time>2014-06-04T15:09:50Z</time>
      </trkpt>
      <trkpt lat="59.909328" lon="17.7099422">
        <ele>63.5844</ele>
        <time>2014-06-04T15:09:51Z</time>
      </trkpt>
      <trkpt lat="59.9093114" lon="17.709964">
        <ele>63.1036</ele>
        <time>2014-06-04T15:09:52Z</time>
      </trkpt>
      <trkpt lat="59.9092974" lon="17.7099934">
        <ele>63.1036</ele>
        <time>2014-06-04T15:09:53Z</time>
      </trkpt>
      <trkpt lat="59.9092747" lon="17.7100135">
        <ele>62.1423</ele>
        <time>2014-06-04T15:09:54Z</time>
      </trkpt>
      <trkpt lat="59.909253" lon="17.7100437">
        <ele>62.1423</ele>
        <time>2014-06-04T15:09:55Z</time>
      </trkpt>
      <trkpt lat="59.9092305" lon="17.7100734">
        <ele>61.6617</ele>
        <time>2014-06-04T15:09:56Z</time>
      </trkpt>
      <trkpt lat="59.9092093" lon="17.7100976">
        <ele>61.181</ele>
        <time>2014-06-04T15:09:57Z</time>
      </trkpt>
      <trkpt lat="59.9091881" lon="17.7101198">
        <ele>60.2197</ele>
        <time>2014-06-04T15:09:58Z</time>
      </trkpt>
      <trkpt lat="59.9091672" lon="17.7101479">
        <ele>59.7391</ele>
        <time>2014-06-04T15:09:59Z</time>
      </trkpt>
      <trkpt lat="59.9091446" lon="17.7101817">
        <ele>58.7777</ele>
        <time>2014-06-04T15:10:00Z</time>
      </trkpt>
      <trkpt lat="59.9091198" lon="17.7102164">
        <ele>57.8165</ele>
        <time>2014-06-04T15:10:01Z</time>
      </trkpt>
      <trkpt lat="59.909095" lon="17.7102554">
        <ele>57.3358</ele>
        <time>2014-06-04T15:10:02Z</time>
      </trkpt>
      <trkpt lat="59.9090721" lon="17.7102953">
        <ele>58.2971</ele>
        <time>2014-06-04T15:10:03Z</time>
      </trkpt>
      <trkpt lat="59.9090534" lon="17.710325">
        <ele>57.8165</ele>
        <time>2014-06-04T15:10:04Z</time>
      </trkpt>
      <trkpt lat="59.9090327" lon="17.710359">
        <ele>57.3358</ele>
        <time>2014-06-04T15:10:05Z</time>
      </trkpt>
      <trkpt lat="59.909011" lon="17.7103852">
        <ele>57.3358</ele>
        <time>2014-06-04T15:10:06Z</time>
      </trkpt>
      <trkpt lat="59.9089912" lon="17.7104084">
        <ele>56.8551</ele>
        <time>2014-06-04T15:10:07Z</time>
      </trkpt>
      <trkpt lat="59.9089746" lon="17.7104269">
        <ele>56.3745</ele>
        <time>2014-06-04T15:10:08Z</time>
      </trkpt>
      <trkpt lat="59.9089548" lon="17.7104425">
        <ele>56.8551</ele>
        <time>2014-06-04T15:10:09Z</time>
      </trkpt>
      <trkpt lat="59.9089347" lon="17.7104572">
        <ele>56.3745</ele>
        <time>2014-06-04T15:10:10Z</time>
      </trkpt>
      <trkpt lat="59.9089115" lon="17.7104841">
        <ele>55.8938</ele>
        <time>2014-06-04T15:10:11Z</time>
      </trkpt>
      <trkpt lat="59.9088887" lon="17.7105056">
        <ele>55.8938</ele>
        <time>2014-06-04T15:10:12Z</time>
      </trkpt>
      <trkpt lat="59.9088631" lon="17.7105248">
        <ele>53.9712</ele>
        <time>2014-06-04T15:10:13Z</time>
      </trkpt>
      <trkpt lat="59.9088414" lon="17.7105436">
        <ele>53.4905</ele>
        <time>2014-06-04T15:10:14Z</time>
      </trkpt>
      <trkpt lat="59.9088234" lon="17.7105592">
        <ele>53.0098</ele>
        <time>2014-06-04T15:10:15Z</time>
      </trkpt>
      <trkpt lat="59.9088062" lon="17.7105737">
        <ele>52.5292</ele>
        <time>2014-06-04T15:10:16Z</time>
      </trkpt>
      <trkpt lat="59.9087918" lon="17.7105996">
        <ele>53.4905</ele>
        <time>2014-06-04T15:10:17Z</time>
      </trkpt>
      <trkpt lat="59.9087782" lon="17.7106239">
        <ele>54.4518</ele>
        <time>2014-06-04T15:10:18Z</time>
      </trkpt>
      <trkpt lat="59.9087675" lon="17.7106577">
        <ele>55.4131</ele>
        <time>2014-06-04T15:10:19Z</time>
      </trkpt>
      <trkpt lat="59.908755" lon="17.7106862">
        <ele>55.4131</ele>
        <time>2014-06-04T15:10:20Z</time>
      </trkpt>
      <trkpt lat="59.9087443" lon="17.7107168">
        <ele>54.9324</ele>
        <time>2014-06-04T15:10:21Z</time>
      </trkpt>
      <trkpt lat="59.9087285" lon="17.7107445">
        <ele>54.4518</ele>
        <time>2014-06-04T15:10:22Z</time>
      </trkpt>
      <trkpt lat="59.9087053" lon="17.7107805">
        <ele>53.9712</ele>
        <time>2014-06-04T15:10:23Z</time>
      </trkpt>
      <trkpt lat="59.9086856" lon="17.710811">
        <ele>53.4905</ele>
        <time>2014-06-04T15:10:24Z</time>
      </trkpt>
      <trkpt lat="59.9086685" lon="17.7108444">
        <ele>53.4905</ele>
        <time>2014-06-04T15:10:25Z</time>
      </trkpt>
      <trkpt lat="59.9086514" lon="17.710886">
        <ele>54.4518</ele>
        <time>2014-06-04T15:10:26Z</time>
      </trkpt>
      <trkpt lat="59.9086331" lon="17.7109319">
        <ele>55.4131</ele>
        <time>2014-06-04T15:10:27Z</time>
      </trkpt>
      <trkpt lat="59.9086156" lon="17.7109872">
        <ele>57.3358</ele>
        <time>2014-06-04T15:10:28Z</time>
      </trkpt>
      <trkpt lat="59.9085945" lon="17.7110197">
        <ele>57.3358</ele>
        <time>2014-06-04T15:10:29Z</time>
      </trkpt>
      <trkpt lat="59.9085743" lon="17.7110455">
        <ele>57.3358</ele>
        <time>2014-06-04T15:10:30Z</time>
      </trkpt>
      <trkpt lat="59.9085577" lon="17.711078">
        <ele>57.8165</ele>
        <time>2014-06-04T15:10:31Z</time>
      </trkpt>
      <trkpt lat="59.9085404" lon="17.7111106">
        <ele>57.8165</ele>
        <time>2014-06-04T15:10:32Z</time>
      </trkpt>
      <trkpt lat="59.9085219" lon="17.7111381">
        <ele>57.3358</ele>
        <time>2014-06-04T15:10:33Z</time>
      </trkpt>
      <trkpt lat="59.9085057" lon="17.7111775">
        <ele>57.8165</ele>
        <time>2014-06-04T15:10:34Z</time>
      </trkpt>
      <trkpt lat="59.9084858" lon="17.7112101">
        <ele>56.3745</ele>
        <time>2014-06-04T15:10:35Z</time>
      </trkpt>
      <trkpt lat="59.9084686" lon="17.7112371">
        <ele>55.4131</ele>
        <time>2014-06-04T15:10:36Z</time>
      </trkpt>
      <trkpt lat="59.9084537" lon="17.7112761">
        <ele>55.8938</ele>
        <time>2014-06-04T15:10:37Z</time>
      </trkpt>
      <trkpt lat="59.9084395" lon="17.7113078">
        <ele>55.8938</ele>
        <time>2014-06-04T15:10:38Z</time>
      </trkpt>
      <trkpt lat="59.9084278" lon="17.7113337">
        <ele>54.9324</ele>
        <time>2014-06-04T15:10:39Z</time>
      </trkpt>
      <trkpt lat="59.9084164" lon="17.7113619">
        <ele>53.4905</ele>
        <time>2014-06-04T15:10:40Z</time>
      </trkpt>
      <trkpt lat="59.9084071" lon="17.7113927">
        <ele>53.0098</ele>
        <time>2014-06-04T15:10:41Z</time>
      </trkpt>
      <trkpt lat="59.9083954" lon="17.711428">
        <ele>52.5292</ele>
        <time>2014-06-04T15:10:42Z</time>
      </trkpt>
      <trkpt lat="59.9083862" lon="17.7114698">
        <ele>52.0486</ele>
        <time>2014-06-04T15:10:43Z</time>
      </trkpt>
      <trkpt lat="59.9083816" lon="17.7115183">
        <ele>51.5679</ele>
        <time>2014-06-04T15:10:44Z</time>
      </trkpt>
      <trkpt lat="59.9083831" lon="17.711571">
        <ele>51.0872</ele>
        <time>2014-06-04T15:10:45Z</time>
      </trkpt>
      <trkpt lat="59.9083847" lon="17.7116222">
        <ele>50.6066</ele>
        <time>2014-06-04T15:10:46Z</time>
      </trkpt>
      <trkpt lat="59.9083865" lon="17.7116746">
        <ele>50.6066</ele>
        <time>2014-06-04T15:10:47Z</time>
      </trkpt>
      <trkpt lat="59.9083919" lon="17.7117195">
        <ele>50.126</ele>
        <time>2014-06-04T15:10:48Z</time>
      </trkpt>
      <trkpt lat="59.9083976" lon="17.7117607">
        <ele>50.126</ele>
        <time>2014-06-04T15:10:49Z</time>
      </trkpt>
      <trkpt lat="59.9083997" lon="17.7118017">
        <ele>49.6453</ele>
        <time>2014-06-04T15:10:50Z</time>
      </trkpt>
      <trkpt lat="59.908401" lon="17.7118493">
        <ele>48.684</ele>
        <time>2014-06-04T15:10:51Z</time>
      </trkpt>
      <trkpt lat="59.9084085" lon="17.7119004">
        <ele>49.1646</ele>
        <time>2014-06-04T15:10:52Z</time>
      </trkpt>
      <trkpt lat="59.908415" lon="17.7119483">
        <ele>49.6453</ele>
        <time>2014-06-04T15:10:53Z</time>
      </trkpt>
      <trkpt lat="59.908423" lon="17.7119899">
        <ele>49.6453</ele>
        <time>2014-06-04T15:10:54Z</time>
      </trkpt>
      <trkpt lat="59.9084312" lon="17.7120296">
        <ele>49.1646</ele>
        <time>2014-06-04T15:10:55Z</time>
      </trkpt>
      <trkpt lat="59.9084375" lon="17.7120714">
        <ele>47.7225</ele>
        <time>2014-06-04T15:10:56Z</time>
      </trkpt>
      <trkpt lat="59.9084453" lon="17.7121166">
        <ele>48.2034</ele>
        <time>2014-06-04T15:10:57Z</time>
      </trkpt>
      <trkpt lat="59.9084458" lon="17.7121632">
        <ele>47.2418</ele>
        <time>2014-06-04T15:10:58Z</time>
      </trkpt>
      <trkpt lat="59.9084505" lon="17.7122115">
        <ele>47.2418</ele>
        <time>2014-06-04T15:10:59Z</time>
      </trkpt>
      <trkpt lat="59.9084536" lon="17.7122567">
        <ele>46.2806</ele>
        <time>2014-06-04T15:11:00Z</time>
      </trkpt>
      <trkpt lat="59.9084619" lon="17.7122998">
        <ele>45.7999</ele>
        <time>2014-06-04T15:11:01Z</time>
      </trkpt>
      <trkpt lat="59.9084722" lon="17.7123335">
        <ele>44.8386</ele>
        <time>2014-06-04T15:11:02Z</time>
      </trkpt>
      <trkpt lat="59.9084818" lon="17.7123692">
        <ele>43.3966</ele>
        <time>2014-06-04T15:11:03Z</time>
      </trkpt>
      <trkpt lat="59.9084987" lon="17.7123991">
        <ele>42.916</ele>
        <time>2014-06-04T15:11:04Z</time>
      </trkpt>
      <trkpt lat="59.9085141" lon="17.7124204">
        <ele>41.9547</ele>
        <time>2014-06-04T15:11:05Z</time>
      </trkpt>
      <trkpt lat="59.9085271" lon="17.7124467">
        <ele>40.0321</ele>
        <time>2014-06-04T15:11:06Z</time>
      </trkpt>
      <trkpt lat="59.908541" lon="17.7124775">
        <ele>38.5901</ele>
        <time>2014-06-04T15:11:07Z</time>
      </trkpt>
      <trkpt lat="59.9085535" lon="17.7125069">
        <ele>36.6675</ele>
        <time>2014-06-04T15:11:08Z</time>
      </trkpt>
      <trkpt lat="59.9085695" lon="17.7125344">
        <ele>35.2255</ele>
        <time>2014-06-04T15:11:09Z</time>
      </trkpt>
      <trkpt lat="59.9085871" lon="17.7125624">
        <ele>35.2255</ele>
        <time>2014-06-04T15:11:10Z</time>
      </trkpt>
      <trkpt lat="59.9086104" lon="17.7125883">
        <ele>35.2255</ele>
        <time>2014-06-04T15:11:11Z</time>
      </trkpt>
      <trkpt lat="59.9086345" lon="17.7126213">
        <ele>35.7061</ele>
        <time>2014-06-04T15:11:12Z</time>
      </trkpt>
      <trkpt lat="59.9086509" lon="17.7126503">
        <ele>34.7449</ele>
        <time>2014-06-04T15:11:13Z</time>
      </trkpt>
      <trkpt lat="59.9086655" lon="17.7126804">
        <ele>34.2642</ele>
        <time>2014-06-04T15:11:14Z</time>
      </trkpt>
      <trkpt lat="59.9086836" lon="17.7127141">
        <ele>34.2642</ele>
        <time>2014-06-04T15:11:15Z</time>
      </trkpt>
      <trkpt lat="59.9087101" lon="17.7127525">
        <ele>35.2255</ele>
        <time>2014-06-04T15:11:16Z</time>
      </trkpt>
      <trkpt lat="59.9087302" lon="17.7127912">
        <ele>35.2255</ele>
        <time>2014-06-04T15:11:17Z</time>
      </trkpt>
      <trkpt lat="59.9087488" lon="17.7128255">
        <ele>35.7061</ele>
        <time>2014-06-04T15:11:18Z</time>
      </trkpt>
      <trkpt lat="59.9087659" lon="17.7128616">
        <ele>35.7061</ele>
        <time>2014-06-04T15:11:19Z</time>
      </trkpt>
      <trkpt lat="59.9087809" lon="17.7129017">
        <ele>35.2255</ele>
        <time>2014-06-04T15:11:20Z</time>
      </trkpt>
      <trkpt lat="59.9087996" lon="17.7129389">
        <ele>36.1868</ele>
        <time>2014-06-04T15:11:21Z</time>
      </trkpt>
      <trkpt lat="59.9088193" lon="17.7129701">
        <ele>36.1868</ele>
        <time>2014-06-04T15:11:22Z</time>
      </trkpt>
      <trkpt lat="59.90884" lon="17.7130083">
        <ele>37.1481</ele>
        <time>2014-06-04T15:11:23Z</time>
      </trkpt>
      <trkpt lat="59.9088546" lon="17.7130478">
        <ele>36.1868</ele>
        <time>2014-06-04T15:11:24Z</time>
      </trkpt>
      <trkpt lat="59.9088695" lon="17.713084">
        <ele>35.7061</ele>
        <time>2014-06-04T15:11:25Z</time>
      </trkpt>
      <trkpt lat="59.9088892" lon="17.7131205">
        <ele>36.6675</ele>
        <time>2014-06-04T15:11:26Z</time>
      </trkpt>
      <trkpt lat="59.9089094" lon="17.7131614">
        <ele>36.6675</ele>
        <time>2014-06-04T15:11:27Z</time>
      </trkpt>
      <trkpt lat="59.9089273" lon="17.7132035">
        <ele>37.6287</ele>
        <time>2014-06-04T15:11:28Z</time>
      </trkpt>
      <trkpt lat="59.9089471" lon="17.7132425">
        <ele>38.5901</ele>
        <time>2014-06-04T15:11:29Z</time>
      </trkpt>
      <trkpt lat="59.9089652" lon="17.7132827">
        <ele>40.0321</ele>
        <time>2014-06-04T15:11:30Z</time>
      </trkpt>
      <trkpt lat="59.9089812" lon="17.7133189">
        <ele>40.5128</ele>
        <time>2014-06-04T15:11:31Z</time>
      </trkpt>
      <trkpt lat="59.9089996" lon="17.7133502">
        <ele>41.474</ele>
        <time>2014-06-04T15:11:32Z</time>
      </trkpt>
      <trkpt lat="59.909024" lon="17.7133828">
        <ele>42.916</ele>
        <time>2014-06-04T15:11:33Z</time>
      </trkpt>
      <trkpt lat="59.9090471" lon="17.7134156">
        <ele>43.3966</ele>
        <time>2014-06-04T15:11:34Z</time>
      </trkpt>
      <trkpt lat="59.9090626" lon="17.7134523">
        <ele>43.8773</ele>
        <time>2014-06-04T15:11:35Z</time>
      </trkpt>
      <trkpt lat="59.9090779" lon="17.7134937">
        <ele>44.8386</ele>
        <time>2014-06-04T15:11:36Z</time>
      </trkpt>
      <trkpt lat="59.9090912" lon="17.7135253">
        <ele>44.8386</ele>
        <time>2014-06-04T15:11:37Z</time>
      </trkpt>
      <trkpt lat="59.9091098" lon="17.7135615">
        <ele>44.8386</ele>
        <time>2014-06-04T15:11:38Z</time>
      </trkpt>
      <trkpt lat="59.9091264" lon="17.7135926">
        <ele>45.3192</ele>
        <time>2014-06-04T15:11:39Z</time>
      </trkpt>
      <trkpt lat="59.9091436" lon="17.7136253">
        <ele>45.7999</ele>
        <time>2014-06-04T15:11:40Z</time>
      </trkpt>
      <trkpt lat="59.9091538" lon="17.7136714">
        <ele>45.3192</ele>
        <time>2014-06-04T15:11:41Z</time>
      </trkpt>
      <trkpt lat="59.9091678" lon="17.7137189">
        <ele>45.7999</ele>
        <time>2014-06-04T15:11:42Z</time>
      </trkpt>
      <trkpt lat="59.9091864" lon="17.7137518">
        <ele>45.7999</ele>
        <time>2014-06-04T15:11:43Z</time>
      </trkpt>
      <trkpt lat="59.909205" lon="17.7137863">
        <ele>46.2806</ele>
        <time>2014-06-04T15:11:44Z</time>
      </trkpt>
      <trkpt lat="59.9092191" lon="17.7138129">
        <ele>45.7999</ele>
        <time>2014-06-04T15:11:45Z</time>
      </trkpt>
      <trkpt lat="59.909242" lon="17.7138409">
        <ele>47.7225</ele>
        <time>2014-06-04T15:11:46Z</time>
      </trkpt>
      <trkpt lat="59.9092874" lon="17.7138708">
        <ele>48.684</ele>
        <time>2014-06-04T15:11:48Z</time>
      </trkpt>
      <trkpt lat="59.9093135" lon="17.7138775">
        <ele>49.1646</ele>
        <time>2014-06-04T15:11:49Z</time>
      </trkpt>
      <trkpt lat="59.9093397" lon="17.7138895">
        <ele>50.126</ele>
        <time>2014-06-04T15:11:50Z</time>
      </trkpt>
      <trkpt lat="59.9093646" lon="17.7138951">
        <ele>51.0872</ele>
        <time>2014-06-04T15:11:51Z</time>
      </trkpt>
      <trkpt lat="59.9093762" lon="17.7138994">
        <ele>50.6066</ele>
        <time>2014-06-04T15:11:52Z</time>
      </trkpt>
      <trkpt lat="59.9093983" lon="17.7139084">
        <ele>51.0872</ele>
        <time>2014-06-04T15:11:53Z</time>
      </trkpt>
      <trkpt lat="59.9094252" lon="17.7139133">
        <ele>52.0486</ele>
        <time>2014-06-04T15:11:54Z</time>
      </trkpt>
      <trkpt lat="59.9094497" lon="17.7139116">
        <ele>52.5292</ele>
        <time>2014-06-04T15:11:55Z</time>
      </trkpt>
      <trkpt lat="59.909484" lon="17.7138936">
        <ele>53.9712</ele>
        <time>2014-06-04T15:11:56Z</time>
      </trkpt>
      <trkpt lat="59.9095023" lon="17.713894">
        <ele>53.9712</ele>
        <time>2014-06-04T15:11:57Z</time>
      </trkpt>
      <trkpt lat="59.9095191" lon="17.7138984">
        <ele>53.9712</ele>
        <time>2014-06-04T15:11:58Z</time>
      </trkpt>
      <trkpt lat="59.9095381" lon="17.7138994">
        <ele>53.9712</ele>
        <time>2014-06-04T15:11:59Z</time>
      </trkpt>
      <trkpt lat="59.9095549" lon="17.7139038">
        <ele>53.9712</ele>
        <time>2014-06-04T15:12:00Z</time>
      </trkpt>
      <trkpt lat="59.9095771" lon="17.71391">
        <ele>54.4518</ele>
        <time>2014-06-04T15:12:01Z</time>
      </trkpt>
      <trkpt lat="59.9096026" lon="17.7139086">
        <ele>55.4131</ele>
        <time>2014-06-04T15:12:02Z</time>
      </trkpt>
      <trkpt lat="59.9096339" lon="17.7138984">
        <ele>56.8551</ele>
        <time>2014-06-04T15:12:03Z</time>
      </trkpt>
      <trkpt lat="59.9096646" lon="17.7138936">
        <ele>57.8165</ele>
        <time>2014-06-04T15:12:04Z</time>
      </trkpt>
      <trkpt lat="59.9096977" lon="17.7138994">
        <ele>58.2971</ele>
        <time>2014-06-04T15:12:05Z</time>
      </trkpt>
      <trkpt lat="59.909716" lon="17.7139065">
        <ele>57.8165</ele>
        <time>2014-06-04T15:12:06Z</time>
      </trkpt>
      <trkpt lat="59.9097354" lon="17.7139191">
        <ele>57.3358</ele>
        <time>2014-06-04T15:12:07Z</time>
      </trkpt>
      <trkpt lat="59.9097536" lon="17.7139195">
        <ele>57.3358</ele>
        <time>2014-06-04T15:12:08Z</time>
      </trkpt>
      <trkpt lat="59.9097709" lon="17.7139258">
        <ele>57.8165</ele>
        <time>2014-06-04T15:12:09Z</time>
      </trkpt>
      <trkpt lat="59.9097884" lon="17.7139309">
        <ele>57.3358</ele>
        <time>2014-06-04T15:12:10Z</time>
      </trkpt>
      <trkpt lat="59.9097997" lon="17.7139387">
        <ele>56.3745</ele>
        <time>2014-06-04T15:12:11Z</time>
      </trkpt>
      <trkpt lat="59.9098102" lon="17.7139428">
        <ele>56.3745</ele>
        <time>2014-06-04T15:12:12Z</time>
      </trkpt>
      <trkpt lat="59.9098258" lon="17.713947">
        <ele>56.3745</ele>
        <time>2014-06-04T15:12:13Z</time>
      </trkpt>
      <trkpt lat="59.9098424" lon="17.7139501">
        <ele>55.8938</ele>
        <time>2014-06-04T15:12:14Z</time>
      </trkpt>
      <trkpt lat="59.9098598" lon="17.7139571">
        <ele>56.3745</ele>
        <time>2014-06-04T15:12:15Z</time>
      </trkpt>
      <trkpt lat="59.9098789" lon="17.7139624">
        <ele>56.8551</ele>
        <time>2014-06-04T15:12:16Z</time>
      </trkpt>
      <trkpt lat="59.9099035" lon="17.713963">
        <ele>57.8165</ele>
        <time>2014-06-04T15:12:17Z</time>
      </trkpt>
      <trkpt lat="59.9099246" lon="17.7139625">
        <ele>57.8165</ele>
        <time>2014-06-04T15:12:18Z</time>
      </trkpt>
      <trkpt lat="59.9099448" lon="17.7139614">
        <ele>58.2971</ele>
        <time>2014-06-04T15:12:19Z</time>
      </trkpt>
      <trkpt lat="59.9099616" lon="17.7139602">
        <ele>57.8165</ele>
        <time>2014-06-04T15:12:20Z</time>
      </trkpt>
      <trkpt lat="59.9099773" lon="17.7139599">
        <ele>57.3358</ele>
        <time>2014-06-04T15:12:21Z</time>
      </trkpt>
      <trkpt lat="59.9099946" lon="17.7139651">
        <ele>57.3358</ele>
        <time>2014-06-04T15:12:22Z</time>
      </trkpt>
      <trkpt lat="59.9100185" lon="17.7139681">
        <ele>57.8165</ele>
        <time>2014-06-04T15:12:23Z</time>
      </trkpt>
      <trkpt lat="59.9100366" lon="17.7139718">
        <ele>57.3358</ele>
        <time>2014-06-04T15:12:24Z</time>
      </trkpt>
      <trkpt lat="59.9100542" lon="17.7139749">
        <ele>57.3358</ele>
        <time>2014-06-04T15:12:25Z</time>
      </trkpt>
      <trkpt lat="59.9100687" lon="17.713983">
        <ele>57.3358</ele>
        <time>2014-06-04T15:12:26Z</time>
      </trkpt>
      <trkpt lat="59.9100879" lon="17.7139937">
        <ele>57.3358</ele>
        <time>2014-06-04T15:12:27Z</time>
      </trkpt>
      <trkpt lat="59.910106" lon="17.7139998">
        <ele>57.3358</ele>
        <time>2014-06-04T15:12:28Z</time>
      </trkpt>
      <trkpt lat="59.910124" lon="17.7140024">
        <ele>57.3358</ele>
        <time>2014-06-04T15:12:29Z</time>
      </trkpt>
      <trkpt lat="59.9101548" lon="17.7140045">
        <ele>57.8165</ele>
        <time>2014-06-04T15:12:30Z</time>
      </trkpt>
      <trkpt lat="59.9101778" lon="17.7140048">
        <ele>57.8165</ele>
        <time>2014-06-04T15:12:31Z</time>
      </trkpt>
      <trkpt lat="59.9101966" lon="17.7139977">
        <ele>57.3358</ele>
        <time>2014-06-04T15:12:32Z</time>
      </trkpt>
      <trkpt lat="59.9102143" lon="17.7139936">
        <ele>57.3358</ele>
        <time>2014-06-04T15:12:33Z</time>
      </trkpt>
      <trkpt lat="59.9102271" lon="17.7139981">
        <ele>57.3358</ele>
        <time>2014-06-04T15:12:34Z</time>
      </trkpt>
      <trkpt lat="59.9102413" lon="17.7140063">
        <ele>57.3358</ele>
        <time>2014-06-04T15:12:35Z</time>
      </trkpt>
      <trkpt lat="59.9102645" lon="17.7140143">
        <ele>57.3358</ele>
        <time>2014-06-04T15:12:36Z</time>
      </trkpt>
      <trkpt lat="59.9102842" lon="17.7140276">
        <ele>57.8165</ele>
        <time>2014-06-04T15:12:37Z</time>
      </trkpt>
      <trkpt lat="59.9103106" lon="17.7140464">
        <ele>58.7777</ele>
        <time>2014-06-04T15:12:38Z</time>
      </trkpt>
      <trkpt lat="59.9103345" lon="17.714068">
        <ele>58.2971</ele>
        <time>2014-06-04T15:12:39Z</time>
      </trkpt>
      <trkpt lat="59.910365" lon="17.7140848">
        <ele>58.2971</ele>
        <time>2014-06-04T15:12:40Z</time>
      </trkpt>
      <trkpt lat="59.9103938" lon="17.7141056">
        <ele>58.7777</ele>
        <time>2014-06-04T15:12:41Z</time>
      </trkpt>
      <trkpt lat="59.9104043" lon="17.7141384">
        <ele>58.7777</ele>
        <time>2014-06-04T15:12:42Z</time>
      </trkpt>
      <trkpt lat="59.9104168" lon="17.7141812">
        <ele>58.7777</ele>
        <time>2014-06-04T15:12:43Z</time>
      </trkpt>
      <trkpt lat="59.9104395" lon="17.7142143">
        <ele>58.7777</ele>
        <time>2014-06-04T15:12:44Z</time>
      </trkpt>
      <trkpt lat="59.9104435" lon="17.7142513">
        <ele>57.3358</ele>
        <time>2014-06-04T15:12:45Z</time>
      </trkpt>
      <trkpt lat="59.9104499" lon="17.7142992">
        <ele>57.3358</ele>
        <time>2014-06-04T15:12:46Z</time>
      </trkpt>
      <trkpt lat="59.9104601" lon="17.7143382">
        <ele>57.3358</ele>
        <time>2014-06-04T15:12:47Z</time>
      </trkpt>
      <trkpt lat="59.9104742" lon="17.7143845">
        <ele>57.8165</ele>
        <time>2014-06-04T15:12:48Z</time>
      </trkpt>
      <trkpt lat="59.9104795" lon="17.7144342">
        <ele>57.3358</ele>
        <time>2014-06-04T15:12:49Z</time>
      </trkpt>
      <trkpt lat="59.9104824" lon="17.7144789">
        <ele>56.8551</ele>
        <time>2014-06-04T15:12:50Z</time>
      </trkpt>
      <trkpt lat="59.9104827" lon="17.7145245">
        <ele>55.8938</ele>
        <time>2014-06-04T15:12:51Z</time>
      </trkpt>
      <trkpt lat="59.9104872" lon="17.7145805">
        <ele>55.4131</ele>
        <time>2014-06-04T15:12:52Z</time>
      </trkpt>
      <trkpt lat="59.910486" lon="17.7146384">
        <ele>55.4131</ele>
        <time>2014-06-04T15:12:53Z</time>
      </trkpt>
      <trkpt lat="59.9104816" lon="17.7146892">
        <ele>54.9324</ele>
        <time>2014-06-04T15:12:54Z</time>
      </trkpt>
      <trkpt lat="59.9104778" lon="17.7147414">
        <ele>54.4518</ele>
        <time>2014-06-04T15:12:55Z</time>
      </trkpt>
      <trkpt lat="59.9104697" lon="17.7147944">
        <ele>53.9712</ele>
        <time>2014-06-04T15:12:56Z</time>
      </trkpt>
      <trkpt lat="59.9104659" lon="17.7148497">
        <ele>54.4518</ele>
        <time>2014-06-04T15:12:57Z</time>
      </trkpt>
      <trkpt lat="59.9104653" lon="17.7149082">
        <ele>54.9324</ele>
        <time>2014-06-04T15:12:58Z</time>
      </trkpt>
      <trkpt lat="59.9104583" lon="17.7149639">
        <ele>54.9324</ele>
        <time>2014-06-04T15:12:59Z</time>
      </trkpt>
      <trkpt lat="59.9104468" lon="17.7150199">
        <ele>54.9324</ele>
        <time>2014-06-04T15:13:00Z</time>
      </trkpt>
      <trkpt lat="59.910439" lon="17.7150726">
        <ele>54.9324</ele>
        <time>2014-06-04T15:13:01Z</time>
      </trkpt>
      <trkpt lat="59.9104335" lon="17.7151248">
        <ele>54.4518</ele>
        <time>2014-06-04T15:13:02Z</time>
      </trkpt>
      <trkpt lat="59.9104282" lon="17.7151756">
        <ele>53.9712</ele>
        <time>2014-06-04T15:13:03Z</time>
      </trkpt>
      <trkpt lat="59.9104241" lon="17.7152248">
        <ele>54.4518</ele>
        <time>2014-06-04T15:13:04Z</time>
      </trkpt>
      <trkpt lat="59.9104205" lon="17.7152752">
        <ele>53.9712</ele>
        <time>2014-06-04T15:13:05Z</time>
      </trkpt>
      <trkpt lat="59.9104184" lon="17.715332">
        <ele>53.0098</ele>
        <time>2014-06-04T15:13:06Z</time>
      </trkpt>
      <trkpt lat="59.9104225" lon="17.7153844">
        <ele>52.5292</ele>
        <time>2014-06-04T15:13:07Z</time>
      </trkpt>
      <trkpt lat="59.9104322" lon="17.7154368">
        <ele>52.5292</ele>
        <time>2014-06-04T15:13:08Z</time>
      </trkpt>
      <trkpt lat="59.9104422" lon="17.7154904">
        <ele>52.5292</ele>
        <time>2014-06-04T15:13:09Z</time>
      </trkpt>
      <trkpt lat="59.9104475" lon="17.7155382">
        <ele>52.0486</ele>
        <time>2014-06-04T15:13:10Z</time>
      </trkpt>
      <trkpt lat="59.9104557" lon="17.7155909">
        <ele>52.0486</ele>
        <time>2014-06-04T15:13:11Z</time>
      </trkpt>
      <trkpt lat="59.9104665" lon="17.7156412">
        <ele>51.5679</ele>
        <time>2014-06-04T15:13:12Z</time>
      </trkpt>
      <trkpt lat="59.9104777" lon="17.7156874">
        <ele>51.0872</ele>
        <time>2014-06-04T15:13:13Z</time>
      </trkpt>
      <trkpt lat="59.9104876" lon="17.715746">
        <ele>51.5679</ele>
        <time>2014-06-04T15:13:14Z</time>
      </trkpt>
      <trkpt lat="59.9104982" lon="17.7158007">
        <ele>51.0872</ele>
        <time>2014-06-04T15:13:15Z</time>
      </trkpt>
      <trkpt lat="59.910506" lon="17.7158489">
        <ele>50.6066</ele>
        <time>2014-06-04T15:13:16Z</time>
      </trkpt>
      <trkpt lat="59.9105124" lon="17.7158997">
        <ele>49.6453</ele>
        <time>2014-06-04T15:13:17Z</time>
      </trkpt>
      <trkpt lat="59.9105173" lon="17.7159511">
        <ele>49.1646</ele>
        <time>2014-06-04T15:13:18Z</time>
      </trkpt>
      <trkpt lat="59.9105231" lon="17.716004">
        <ele>48.684</ele>
        <time>2014-06-04T15:13:19Z</time>
      </trkpt>
      <trkpt lat="59.9105281" lon="17.7160553">
        <ele>47.7225</ele>
        <time>2014-06-04T15:13:20Z</time>
      </trkpt>
      <trkpt lat="59.9105354" lon="17.716106">
        <ele>47.2418</ele>
        <time>2014-06-04T15:13:21Z</time>
      </trkpt>
      <trkpt lat="59.9105461" lon="17.7161511">
        <ele>46.7612</ele>
        <time>2014-06-04T15:13:22Z</time>
      </trkpt>
      <trkpt lat="59.9105582" lon="17.7161883">
        <ele>46.2806</ele>
        <time>2014-06-04T15:13:23Z</time>
      </trkpt>
      <trkpt lat="59.9105679" lon="17.7162231">
        <ele>45.3192</ele>
        <time>2014-06-04T15:13:24Z</time>
      </trkpt>
      <trkpt lat="59.9105827" lon="17.7162636">
        <ele>45.3192</ele>
        <time>2014-06-04T15:13:25Z</time>
      </trkpt>
      <trkpt lat="59.9106069" lon="17.7163085">
        <ele>44.8386</ele>
        <time>2014-06-04T15:13:26Z</time>
      </trkpt>
      <trkpt lat="59.910634" lon="17.7163458">
        <ele>44.8386</ele>
        <time>2014-06-04T15:13:27Z</time>
      </trkpt>
      <trkpt lat="59.9106529" lon="17.7163755">
        <ele>44.358</ele>
        <time>2014-06-04T15:13:28Z</time>
      </trkpt>
      <trkpt lat="59.9106675" lon="17.7164038">
        <ele>43.3966</ele>
        <time>2014-06-04T15:13:29Z</time>
      </trkpt>
      <trkpt lat="59.9106888" lon="17.7164291">
        <ele>43.3966</ele>
        <time>2014-06-04T15:13:30Z</time>
      </trkpt>
      <trkpt lat="59.910713" lon="17.7164552">
        <ele>42.916</ele>
        <time>2014-06-04T15:13:31Z</time>
      </trkpt>
      <trkpt lat="59.910738" lon="17.7164848">
        <ele>42.916</ele>
        <time>2014-06-04T15:13:32Z</time>
      </trkpt>
      <trkpt lat="59.9107603" lon="17.7165085">
        <ele>42.4354</ele>
        <time>2014-06-04T15:13:33Z</time>
      </trkpt>
      <trkpt lat="59.9107841" lon="17.7165301">
        <ele>41.9547</ele>
        <time>2014-06-04T15:13:34Z</time>
      </trkpt>
      <trkpt lat="59.9108079" lon="17.7165407">
        <ele>41.474</ele>
        <time>2014-06-04T15:13:35Z</time>
      </trkpt>
      <trkpt lat="59.9108354" lon="17.7165441">
        <ele>41.9547</ele>
        <time>2014-06-04T15:13:36Z</time>
      </trkpt>
      <trkpt lat="59.9108623" lon="17.7165459">
        <ele>41.9547</ele>
        <time>2014-06-04T15:13:37Z</time>
      </trkpt>
      <trkpt lat="59.9108844" lon="17.7165494">
        <ele>41.474</ele>
        <time>2014-06-04T15:13:38Z</time>
      </trkpt>
      <trkpt lat="59.9109104" lon="17.7165556">
        <ele>41.474</ele>
        <time>2014-06-04T15:13:39Z</time>
      </trkpt>
      <trkpt lat="59.9109398" lon="17.7165593">
        <ele>41.9547</ele>
        <time>2014-06-04T15:13:40Z</time>
      </trkpt>
      <trkpt lat="59.9109673" lon="17.7165557">
        <ele>41.9547</ele>
        <time>2014-06-04T15:13:41Z</time>
      </trkpt>
      <trkpt lat="59.9109938" lon="17.7165433">
        <ele>42.4354</ele>
        <time>2014-06-04T15:13:42Z</time>
      </trkpt>
      <trkpt lat="59.9110224" lon="17.7165231">
        <ele>42.916</ele>
        <time>2014-06-04T15:13:43Z</time>
      </trkpt>
      <trkpt lat="59.9110493" lon="17.7165037">
        <ele>43.3966</ele>
        <time>2014-06-04T15:13:44Z</time>
      </trkpt>
      <trkpt lat="59.9110794" lon="17.716483">
        <ele>43.8773</ele>
        <time>2014-06-04T15:13:45Z</time>
      </trkpt>
      <trkpt lat="59.9111094" lon="17.7164575">
        <ele>44.358</ele>
        <time>2014-06-04T15:13:46Z</time>
      </trkpt>
      <trkpt lat="59.9111374" lon="17.7164289">
        <ele>45.3192</ele>
        <time>2014-06-04T15:13:47Z</time>
      </trkpt>
      <trkpt lat="59.9111653" lon="17.7164127">
        <ele>45.3192</ele>
        <time>2014-06-04T15:13:48Z</time>
      </trkpt>
      <trkpt lat="59.9111941" lon="17.7164003">
        <ele>45.3192</ele>
        <time>2014-06-04T15:13:49Z</time>
      </trkpt>
      <trkpt lat="59.9112214" lon="17.716394">
        <ele>45.3192</ele>
        <time>2014-06-04T15:13:50Z</time>
      </trkpt>
      <trkpt lat="59.9112487" lon="17.7163914">
        <ele>45.3192</ele>
        <time>2014-06-04T15:13:51Z</time>
      </trkpt>
      <trkpt lat="59.9112771" lon="17.71639">
        <ele>45.3192</ele>
        <time>2014-06-04T15:13:52Z</time>
      </trkpt>
      <trkpt lat="59.9113042" lon="17.7163863">
        <ele>45.7999</ele>
        <time>2014-06-04T15:13:53Z</time>
      </trkpt>
      <trkpt lat="59.9113302" lon="17.7163889">
        <ele>45.3192</ele>
        <time>2014-06-04T15:13:54Z</time>
      </trkpt>
      <trkpt lat="59.9113599" lon="17.716392">
        <ele>45.7999</ele>
        <time>2014-06-04T15:13:55Z</time>
      </trkpt>
      <trkpt lat="59.9113918" lon="17.7163982">
        <ele>46.2806</ele>
        <time>2014-06-04T15:13:56Z</time>
      </trkpt>
      <trkpt lat="59.9114167" lon="17.7164037">
        <ele>46.2806</ele>
        <time>2014-06-04T15:13:57Z</time>
      </trkpt>
      <trkpt lat="59.9114397" lon="17.7164111">
        <ele>46.2806</ele>
        <time>2014-06-04T15:13:58Z</time>
      </trkpt>
      <trkpt lat="59.9114652" lon="17.7164188">
        <ele>46.7612</ele>
        <time>2014-06-04T15:13:59Z</time>
      </trkpt>
      <trkpt lat="59.9114921" lon="17.7164214">
        <ele>47.2418</ele>
        <time>2014-06-04T15:14:00Z</time>
      </trkpt>
      <trkpt lat="59.9115207" lon="17.716425">
        <ele>48.2034</ele>
        <time>2014-06-04T15:14:01Z</time>
      </trkpt>
      <trkpt lat="59.9115488" lon="17.7164261">
        <ele>48.684</ele>
        <time>2014-06-04T15:14:02Z</time>
      </trkpt>
      <trkpt lat="59.9115695" lon="17.7164225">
        <ele>48.684</ele>
        <time>2014-06-04T15:14:03Z</time>
      </trkpt>
      <trkpt lat="59.9115922" lon="17.716408">
        <ele>49.1646</ele>
        <time>2014-06-04T15:14:04Z</time>
      </trkpt>
      <trkpt lat="59.9116149" lon="17.7163852">
        <ele>49.1646</ele>
        <time>2014-06-04T15:14:05Z</time>
      </trkpt>
      <trkpt lat="59.9116393" lon="17.7163579">
        <ele>49.1646</ele>
        <time>2014-06-04T15:14:06Z</time>
      </trkpt>
      <trkpt lat="59.9116586" lon="17.7163315">
        <ele>48.2034</ele>
        <time>2014-06-04T15:14:07Z</time>
      </trkpt>
      <trkpt lat="59.9116803" lon="17.7163074">
        <ele>48.684</ele>
        <time>2014-06-04T15:14:08Z</time>
      </trkpt>
      <trkpt lat="59.9117009" lon="17.716284">
        <ele>48.684</ele>
        <time>2014-06-04T15:14:09Z</time>
      </trkpt>
      <trkpt lat="59.9117186" lon="17.71626">
        <ele>48.684</ele>
        <time>2014-06-04T15:14:10Z</time>
      </trkpt>
      <trkpt lat="59.9117346" lon="17.7162397">
        <ele>48.2034</ele>
        <time>2014-06-04T15:14:11Z</time>
      </trkpt>
      <trkpt lat="59.9117489" lon="17.716216">
        <ele>47.7225</ele>
        <time>2014-06-04T15:14:12Z</time>
      </trkpt>
      <trkpt lat="59.9117665" lon="17.7161931">
        <ele>47.2418</ele>
        <time>2014-06-04T15:14:13Z</time>
      </trkpt>
      <trkpt lat="59.9117821" lon="17.7161708">
        <ele>46.7612</ele>
        <time>2014-06-04T15:14:14Z</time>
      </trkpt>
      <trkpt lat="59.9117952" lon="17.7161448">
        <ele>45.7999</ele>
        <time>2014-06-04T15:14:15Z</time>
      </trkpt>
      <trkpt lat="59.9118166" lon="17.7161054">
        <ele>45.7999</ele>
        <time>2014-06-04T15:14:16Z</time>
      </trkpt>
      <trkpt lat="59.9118356" lon="17.7160603">
        <ele>45.3192</ele>
        <time>2014-06-04T15:14:17Z</time>
      </trkpt>
      <trkpt lat="59.91185" lon="17.716018">
        <ele>45.3192</ele>
        <time>2014-06-04T15:14:18Z</time>
      </trkpt>
      <trkpt lat="59.9118689" lon="17.7159801">
        <ele>44.8386</ele>
        <time>2014-06-04T15:14:19Z</time>
      </trkpt>
      <trkpt lat="59.9118876" lon="17.7159397">
        <ele>44.8386</ele>
        <time>2014-06-04T15:14:20Z</time>
      </trkpt>
      <trkpt lat="59.9119049" lon="17.7158924">
        <ele>44.8386</ele>
        <time>2014-06-04T15:14:21Z</time>
      </trkpt>
      <trkpt lat="59.9119197" lon="17.7158487">
        <ele>44.8386</ele>
        <time>2014-06-04T15:14:22Z</time>
      </trkpt>
      <trkpt lat="59.9119339" lon="17.7158088">
        <ele>44.358</ele>
        <time>2014-06-04T15:14:23Z</time>
      </trkpt>
      <trkpt lat="59.9119496" lon="17.7157563">
        <ele>44.8386</ele>
        <time>2014-06-04T15:14:24Z</time>
      </trkpt>
      <trkpt lat="59.9119626" lon="17.7157108">
        <ele>45.3192</ele>
        <time>2014-06-04T15:14:25Z</time>
      </trkpt>
      <trkpt lat="59.9119738" lon="17.7156725">
        <ele>45.3192</ele>
        <time>2014-06-04T15:14:26Z</time>
      </trkpt>
      <trkpt lat="59.9119791" lon="17.7156336">
        <ele>45.3192</ele>
        <time>2014-06-04T15:14:27Z</time>
      </trkpt>
      <trkpt lat="59.9119962" lon="17.715607">
        <ele>45.7999</ele>
        <time>2014-06-04T15:14:28Z</time>
      </trkpt>
      <trkpt lat="59.9120188" lon="17.7155855">
        <ele>45.7999</ele>
        <time>2014-06-04T15:14:29Z</time>
      </trkpt>
      <trkpt lat="59.9120439" lon="17.7155599">
        <ele>45.7999</ele>
        <time>2014-06-04T15:14:30Z</time>
      </trkpt>
      <trkpt lat="59.9120656" lon="17.7155279">
        <ele>46.2806</ele>
        <time>2014-06-04T15:14:31Z</time>
      </trkpt>
      <trkpt lat="59.9120856" lon="17.7154973">
        <ele>46.2806</ele>
        <time>2014-06-04T15:14:32Z</time>
      </trkpt>
      <trkpt lat="59.9121062" lon="17.7154683">
        <ele>45.7999</ele>
        <time>2014-06-04T15:14:33Z</time>
      </trkpt>
      <trkpt lat="59.9121221" lon="17.7154419">
        <ele>45.7999</ele>
        <time>2014-06-04T15:14:34Z</time>
      </trkpt>
      <trkpt lat="59.9121434" lon="17.7154166">
        <ele>45.3192</ele>
        <time>2014-06-04T15:14:35Z</time>
      </trkpt>
      <trkpt lat="59.9121656" lon="17.715387">
        <ele>44.8386</ele>
        <time>2014-06-04T15:14:36Z</time>
      </trkpt>
      <trkpt lat="59.9121858" lon="17.7153502">
        <ele>44.8386</ele>
        <time>2014-06-04T15:14:37Z</time>
      </trkpt>
      <trkpt lat="59.9122129" lon="17.7153255">
        <ele>44.358</ele>
        <time>2014-06-04T15:14:38Z</time>
      </trkpt>
      <trkpt lat="59.9122417" lon="17.7153071">
        <ele>43.8773</ele>
        <time>2014-06-04T15:14:39Z</time>
      </trkpt>
      <trkpt lat="59.9122609" lon="17.7152871">
        <ele>42.916</ele>
        <time>2014-06-04T15:14:40Z</time>
      </trkpt>
      <trkpt lat="59.912279" lon="17.715271">
        <ele>42.916</ele>
        <time>2014-06-04T15:14:41Z</time>
      </trkpt>
      <trkpt lat="59.9123018" lon="17.7152647">
        <ele>42.4354</ele>
        <time>2014-06-04T15:14:42Z</time>
      </trkpt>
      <trkpt lat="59.9123205" lon="17.7152741">
        <ele>41.474</ele>
        <time>2014-06-04T15:14:43Z</time>
      </trkpt>
      <trkpt lat="59.9123431" lon="17.7152896">
        <ele>41.474</ele>
        <time>2014-06-04T15:14:44Z</time>
      </trkpt>
      <trkpt lat="59.912367" lon="17.7153041">
        <ele>40.9934</ele>
        <time>2014-06-04T15:14:45Z</time>
      </trkpt>
      <trkpt lat="59.9123975" lon="17.7153176">
        <ele>40.5128</ele>
        <time>2014-06-04T15:14:46Z</time>
      </trkpt>
      <trkpt lat="59.9124224" lon="17.7153327">
        <ele>40.5128</ele>
        <time>2014-06-04T15:14:47Z</time>
      </trkpt>
      <trkpt lat="59.9124485" lon="17.7153504">
        <ele>40.5128</ele>
        <time>2014-06-04T15:14:48Z</time>
      </trkpt>
      <trkpt lat="59.9124707" lon="17.7153682">
        <ele>40.0321</ele>
        <time>2014-06-04T15:14:49Z</time>
      </trkpt>
      <trkpt lat="59.9124894" lon="17.715374">
        <ele>39.5513</ele>
        <time>2014-06-04T15:14:50Z</time>
      </trkpt>
      <trkpt lat="59.9125001" lon="17.7153911">
        <ele>39.0707</ele>
        <time>2014-06-04T15:14:51Z</time>
      </trkpt>
      <trkpt lat="59.9125174" lon="17.715414">
        <ele>39.0707</ele>
        <time>2014-06-04T15:14:52Z</time>
      </trkpt>
      <trkpt lat="59.9125355" lon="17.7154429">
        <ele>39.0707</ele>
        <time>2014-06-04T15:14:53Z</time>
      </trkpt>
      <trkpt lat="59.9125529" lon="17.7154689">
        <ele>39.0707</ele>
        <time>2014-06-04T15:14:54Z</time>
      </trkpt>
      <trkpt lat="59.9125739" lon="17.7154956">
        <ele>39.0707</ele>
        <time>2014-06-04T15:14:55Z</time>
      </trkpt>
      <trkpt lat="59.9126001" lon="17.7155114">
        <ele>39.0707</ele>
        <time>2014-06-04T15:14:56Z</time>
      </trkpt>
      <trkpt lat="59.9126282" lon="17.7155246">
        <ele>40.0321</ele>
        <time>2014-06-04T15:14:57Z</time>
      </trkpt>
      <trkpt lat="59.9126549" lon="17.7155324">
        <ele>40.5128</ele>
        <time>2014-06-04T15:14:58Z</time>
      </trkpt>
      <trkpt lat="59.9126765" lon="17.7155377">
        <ele>40.5128</ele>
        <time>2014-06-04T15:14:59Z</time>
      </trkpt>
      <trkpt lat="59.9126914" lon="17.7155383">
        <ele>40.0321</ele>
        <time>2014-06-04T15:15:00Z</time>
      </trkpt>
      <trkpt lat="59.9127058" lon="17.7155371">
        <ele>40.0321</ele>
        <time>2014-06-04T15:15:01Z</time>
      </trkpt>
      <trkpt lat="59.9127187" lon="17.7155466">
        <ele>39.5513</ele>
        <time>2014-06-04T15:15:02Z</time>
      </trkpt>
      <trkpt lat="59.9127376" lon="17.7155476">
        <ele>39.0707</ele>
        <time>2014-06-04T15:15:03Z</time>
      </trkpt>
      <trkpt lat="59.9127586" lon="17.7155461">
        <ele>39.0707</ele>
        <time>2014-06-04T15:15:04Z</time>
      </trkpt>
      <trkpt lat="59.9127809" lon="17.7155523">
        <ele>39.5513</ele>
        <time>2014-06-04T15:15:05Z</time>
      </trkpt>
      <trkpt lat="59.912798" lon="17.7155512">
        <ele>40.0321</ele>
        <time>2014-06-04T15:15:06Z</time>
      </trkpt>
      <trkpt lat="59.912822" lon="17.7155488">
        <ele>40.9934</ele>
        <time>2014-06-04T15:15:07Z</time>
      </trkpt>
      <trkpt lat="59.91284" lon="17.7155449">
        <ele>40.5128</ele>
        <time>2014-06-04T15:15:08Z</time>
      </trkpt>
      <trkpt lat="59.9128606" lon="17.7155479">
        <ele>40.5128</ele>
        <time>2014-06-04T15:15:09Z</time>
      </trkpt>
      <trkpt lat="59.9128852" lon="17.7155476">
        <ele>40.9934</ele>
        <time>2014-06-04T15:15:10Z</time>
      </trkpt>
      <trkpt lat="59.9129073" lon="17.7155387">
        <ele>40.9934</ele>
        <time>2014-06-04T15:15:11Z</time>
      </trkpt>
      <trkpt lat="59.9129276" lon="17.7155283">
        <ele>40.9934</ele>
        <time>2014-06-04T15:15:12Z</time>
      </trkpt>
      <trkpt lat="59.9129433" lon="17.7155093">
        <ele>40.9934</ele>
        <time>2014-06-04T15:15:13Z</time>
      </trkpt>
      <trkpt lat="59.9129621" lon="17.7154852">
        <ele>40.9934</ele>
        <time>2014-06-04T15:15:14Z</time>
      </trkpt>
      <trkpt lat="59.9129789" lon="17.7154581">
        <ele>40.9934</ele>
        <time>2014-06-04T15:15:15Z</time>
      </trkpt>
      <trkpt lat="59.9129917" lon="17.7154428">
        <ele>40.9934</ele>
        <time>2014-06-04T15:15:16Z</time>
      </trkpt>
      <trkpt lat="59.9130074" lon="17.7154234">
        <ele>41.474</ele>
        <time>2014-06-04T15:15:17Z</time>
      </trkpt>
      <trkpt lat="59.9130194" lon="17.7153968">
        <ele>40.9934</ele>
        <time>2014-06-04T15:15:18Z</time>
      </trkpt>
      <trkpt lat="59.9130403" lon="17.7153698">
        <ele>40.9934</ele>
        <time>2014-06-04T15:15:19Z</time>
      </trkpt>
      <trkpt lat="59.9130629" lon="17.7153535">
        <ele>41.474</ele>
        <time>2014-06-04T15:15:20Z</time>
      </trkpt>
      <trkpt lat="59.9130831" lon="17.7153356">
        <ele>41.474</ele>
        <time>2014-06-04T15:15:21Z</time>
      </trkpt>
      <trkpt lat="59.9131043" lon="17.715315">
        <ele>41.9547</ele>
        <time>2014-06-04T15:15:22Z</time>
      </trkpt>
      <trkpt lat="59.9131245" lon="17.7153014">
        <ele>41.9547</ele>
        <time>2014-06-04T15:15:23Z</time>
      </trkpt>
      <trkpt lat="59.9131482" lon="17.7152865">
        <ele>42.4354</ele>
        <time>2014-06-04T15:15:24Z</time>
      </trkpt>
      <trkpt lat="59.9131695" lon="17.7152808">
        <ele>42.916</ele>
        <time>2014-06-04T15:15:25Z</time>
      </trkpt>
      <trkpt lat="59.9131923" lon="17.7152925">
        <ele>42.916</ele>
        <time>2014-06-04T15:15:26Z</time>
      </trkpt>
      <trkpt lat="59.913211" lon="17.7153161">
        <ele>42.916</ele>
        <time>2014-06-04T15:15:27Z</time>
      </trkpt>
      <trkpt lat="59.9132237" lon="17.7153495">
        <ele>42.4354</ele>
        <time>2014-06-04T15:15:28Z</time>
      </trkpt>
      <trkpt lat="59.9132513" lon="17.7153695">
        <ele>42.916</ele>
        <time>2014-06-04T15:15:29Z</time>
      </trkpt>
      <trkpt lat="59.9132782" lon="17.715372">
        <ele>44.358</ele>
        <time>2014-06-04T15:15:30Z</time>
      </trkpt>
      <trkpt lat="59.9133084" lon="17.7153578">
        <ele>45.3192</ele>
        <time>2014-06-04T15:15:31Z</time>
      </trkpt>
      <trkpt lat="59.9133349" lon="17.7153464">
        <ele>45.7999</ele>
        <time>2014-06-04T15:15:32Z</time>
      </trkpt>
      <trkpt lat="59.9133644" lon="17.7153405">
        <ele>46.2806</ele>
        <time>2014-06-04T15:15:33Z</time>
      </trkpt>
      <trkpt lat="59.9133887" lon="17.7153452">
        <ele>46.2806</ele>
        <time>2014-06-04T15:15:34Z</time>
      </trkpt>
      <trkpt lat="59.913414" lon="17.7153538">
        <ele>46.7612</ele>
        <time>2014-06-04T15:15:35Z</time>
      </trkpt>
      <trkpt lat="59.9134319" lon="17.7153688">
        <ele>46.2806</ele>
        <time>2014-06-04T15:15:36Z</time>
      </trkpt>
      <trkpt lat="59.9134522" lon="17.7153816">
        <ele>46.2806</ele>
        <time>2014-06-04T15:15:37Z</time>
      </trkpt>
      <trkpt lat="59.9134778" lon="17.7153964">
        <ele>46.2806</ele>
        <time>2014-06-04T15:15:38Z</time>
      </trkpt>
      <trkpt lat="59.9135004" lon="17.7154154">
        <ele>46.2806</ele>
        <time>2014-06-04T15:15:39Z</time>
      </trkpt>
      <trkpt lat="59.9135202" lon="17.7154288">
        <ele>45.7999</ele>
        <time>2014-06-04T15:15:40Z</time>
      </trkpt>
      <trkpt lat="59.9135471" lon="17.7154393">
        <ele>45.7999</ele>
        <time>2014-06-04T15:15:41Z</time>
      </trkpt>
      <trkpt lat="59.9135819" lon="17.7154543">
        <ele>47.2418</ele>
        <time>2014-06-04T15:15:42Z</time>
      </trkpt>
      <trkpt lat="59.9136036" lon="17.7154689">
        <ele>46.7612</ele>
        <time>2014-06-04T15:15:43Z</time>
      </trkpt>
      <trkpt lat="59.9136304" lon="17.7154808">
        <ele>47.7225</ele>
        <time>2014-06-04T15:15:44Z</time>
      </trkpt>
      <trkpt lat="59.9136513" lon="17.7154886">
        <ele>47.7225</ele>
        <time>2014-06-04T15:15:45Z</time>
      </trkpt>
      <trkpt lat="59.9136737" lon="17.7155006">
        <ele>48.2034</ele>
        <time>2014-06-04T15:15:46Z</time>
      </trkpt>
      <trkpt lat="59.9136983" lon="17.7155169">
        <ele>49.1646</ele>
        <time>2014-06-04T15:15:47Z</time>
      </trkpt>
      <trkpt lat="59.9137197" lon="17.7155355">
        <ele>49.6453</ele>
        <time>2014-06-04T15:15:48Z</time>
      </trkpt>
      <trkpt lat="59.913748" lon="17.7155481">
        <ele>50.126</ele>
        <time>2014-06-04T15:15:49Z</time>
      </trkpt>
      <trkpt lat="59.9137752" lon="17.715559">
        <ele>50.126</ele>
        <time>2014-06-04T15:15:50Z</time>
      </trkpt>
      <trkpt lat="59.9138056" lon="17.7155751">
        <ele>50.6066</ele>
        <time>2014-06-04T15:15:51Z</time>
      </trkpt>
      <trkpt lat="59.9138342" lon="17.7155849">
        <ele>50.6066</ele>
        <time>2014-06-04T15:15:52Z</time>
      </trkpt>
      <trkpt lat="59.9138646" lon="17.7155922">
        <ele>50.6066</ele>
        <time>2014-06-04T15:15:53Z</time>
      </trkpt>
      <trkpt lat="59.9138921" lon="17.7156009">
        <ele>50.6066</ele>
        <time>2014-06-04T15:15:54Z</time>
      </trkpt>
      <trkpt lat="59.913914" lon="17.7156151">
        <ele>50.6066</ele>
        <time>2014-06-04T15:15:55Z</time>
      </trkpt>
      <trkpt lat="59.9139397" lon="17.715635">
        <ele>51.0872</ele>
        <time>2014-06-04T15:15:56Z</time>
      </trkpt>
      <trkpt lat="59.91396" lon="17.7156603">
        <ele>50.6066</ele>
        <time>2014-06-04T15:15:57Z</time>
      </trkpt>
      <trkpt lat="59.9139823" lon="17.71568">
        <ele>51.0872</ele>
        <time>2014-06-04T15:15:58Z</time>
      </trkpt>
      <trkpt lat="59.9140009" lon="17.7156938">
        <ele>51.0872</ele>
        <time>2014-06-04T15:15:59Z</time>
      </trkpt>
      <trkpt lat="59.9140176" lon="17.7157044">
        <ele>51.5679</ele>
        <time>2014-06-04T15:16:00Z</time>
      </trkpt>
      <trkpt lat="59.9140263" lon="17.7157149">
        <ele>51.5679</ele>
        <time>2014-06-04T15:16:01Z</time>
      </trkpt>
      <trkpt lat="59.9140401" lon="17.7157153">
        <ele>51.5679</ele>
        <time>2014-06-04T15:16:02Z</time>
      </trkpt>
      <trkpt lat="59.9140459" lon="17.715714">
        <ele>51.5679</ele>
        <time>2014-06-04T15:16:03Z</time>
      </trkpt>
      <trkpt lat="59.9140556" lon="17.7157139">
        <ele>52.0486</ele>
        <time>2014-06-04T15:16:04Z</time>
      </trkpt>
      <trkpt lat="59.9140722" lon="17.7157108">
        <ele>53.0098</ele>
        <time>2014-06-04T15:16:05Z</time>
      </trkpt>
      <trkpt lat="59.9140854" lon="17.7157059">
        <ele>53.0098</ele>
        <time>2014-06-04T15:16:06Z</time>
      </trkpt>
      <trkpt lat="59.9140942" lon="17.7157044">
        <ele>53.4905</ele>
        <time>2014-06-04T15:16:07Z</time>
      </trkpt>
      <trkpt lat="59.9141162" lon="17.7156957">
        <ele>54.9324</ele>
        <time>2014-06-04T15:16:08Z</time>
      </trkpt>
      <trkpt lat="59.9141392" lon="17.7156915">
        <ele>56.3745</ele>
        <time>2014-06-04T15:16:09Z</time>
      </trkpt>
      <trkpt lat="59.9141532" lon="17.7156914">
        <ele>55.8938</ele>
        <time>2014-06-04T15:16:10Z</time>
      </trkpt>
      <trkpt lat="59.9141745" lon="17.7156873">
        <ele>56.3745</ele>
        <time>2014-06-04T15:16:11Z</time>
      </trkpt>
      <trkpt lat="59.9142185" lon="17.7156854">
        <ele>57.8165</ele>
        <time>2014-06-04T15:16:12Z</time>
      </trkpt>
      <trkpt lat="59.9142496" lon="17.715694">
        <ele>58.2971</ele>
        <time>2014-06-04T15:16:13Z</time>
      </trkpt>
      <trkpt lat="59.9142745" lon="17.7156917">
        <ele>58.7777</ele>
        <time>2014-06-04T15:16:14Z</time>
      </trkpt>
      <trkpt lat="59.9143002" lon="17.7156896">
        <ele>59.2584</ele>
        <time>2014-06-04T15:16:15Z</time>
      </trkpt>
      <trkpt lat="59.9143185" lon="17.7156914">
        <ele>59.7391</ele>
        <time>2014-06-04T15:16:16Z</time>
      </trkpt>
      <trkpt lat="59.9143318" lon="17.7156966">
        <ele>59.7391</ele>
        <time>2014-06-04T15:16:17Z</time>
      </trkpt>
      <trkpt lat="59.9143537" lon="17.7156938">
        <ele>60.2197</ele>
        <time>2014-06-04T15:16:18Z</time>
      </trkpt>
      <trkpt lat="59.9143696" lon="17.7156818">
        <ele>59.7391</ele>
        <time>2014-06-04T15:16:19Z</time>
      </trkpt>
      <trkpt lat="59.9143934" lon="17.715659">
        <ele>60.2197</ele>
        <time>2014-06-04T15:16:20Z</time>
      </trkpt>
      <trkpt lat="59.9144137" lon="17.7156377">
        <ele>60.7003</ele>
        <time>2014-06-04T15:16:21Z</time>
      </trkpt>
      <trkpt lat="59.91443" lon="17.7156144">
        <ele>60.7003</ele>
        <time>2014-06-04T15:16:22Z</time>
      </trkpt>
      <trkpt lat="59.914447" lon="17.7155911">
        <ele>60.7003</ele>
        <time>2014-06-04T15:16:23Z</time>
      </trkpt>
      <trkpt lat="59.9144682" lon="17.7155678">
        <ele>61.181</ele>
        <time>2014-06-04T15:16:24Z</time>
      </trkpt>
      <trkpt lat="59.9144871" lon="17.7155559">
        <ele>60.7003</ele>
        <time>2014-06-04T15:16:25Z</time>
      </trkpt>
      <trkpt lat="59.914511" lon="17.7155394">
        <ele>61.181</ele>
        <time>2014-06-04T15:16:26Z</time>
      </trkpt>
      <trkpt lat="59.9145306" lon="17.7155117">
        <ele>61.6617</ele>
        <time>2014-06-04T15:16:27Z</time>
      </trkpt>
      <trkpt lat="59.9145538" lon="17.7154796">
        <ele>62.1423</ele>
        <time>2014-06-04T15:16:28Z</time>
      </trkpt>
      <trkpt lat="59.9145762" lon="17.7154607">
        <ele>62.6229</ele>
        <time>2014-06-04T15:16:29Z</time>
      </trkpt>
      <trkpt lat="59.9145898" lon="17.7154438">
        <ele>62.6229</ele>
        <time>2014-06-04T15:16:30Z</time>
      </trkpt>
      <trkpt lat="59.9146008" lon="17.7154367">
        <ele>62.1423</ele>
        <time>2014-06-04T15:16:31Z</time>
      </trkpt>
      <trkpt lat="59.9146149" lon="17.7154257">
        <ele>62.1423</ele>
        <time>2014-06-04T15:16:32Z</time>
      </trkpt>
      <trkpt lat="59.9146267" lon="17.7154148">
        <ele>61.6617</ele>
        <time>2014-06-04T15:16:33Z</time>
      </trkpt>
      <trkpt lat="59.9146427" lon="17.7153959">
        <ele>60.2197</ele>
        <time>2014-06-04T15:16:34Z</time>
      </trkpt>
      <trkpt lat="59.9146645" lon="17.7153747">
        <ele>59.7391</ele>
        <time>2014-06-04T15:16:35Z</time>
      </trkpt>
      <trkpt lat="59.9146872" lon="17.7153642">
        <ele>59.7391</ele>
        <time>2014-06-04T15:16:36Z</time>
      </trkpt>
      <trkpt lat="59.9146951" lon="17.7153533">
        <ele>58.2971</ele>
        <time>2014-06-04T15:16:37Z</time>
      </trkpt>
      <trkpt lat="59.9147104" lon="17.7153435">
        <ele>57.3358</ele>
        <time>2014-06-04T15:16:38Z</time>
      </trkpt>
      <trkpt lat="59.9147296" lon="17.7153352">
        <ele>56.3745</ele>
        <time>2014-06-04T15:16:39Z</time>
      </trkpt>
      <trkpt lat="59.9147508" lon="17.7153275">
        <ele>55.8938</ele>
        <time>2014-06-04T15:16:40Z</time>
      </trkpt>
      <trkpt lat="59.9147729" lon="17.7153269">
        <ele>55.4131</ele>
        <time>2014-06-04T15:16:41Z</time>
      </trkpt>
      <trkpt lat="59.9147935" lon="17.7153311">
        <ele>54.4518</ele>
        <time>2014-06-04T15:16:42Z</time>
      </trkpt>
      <trkpt lat="59.9148154" lon="17.7153374">
        <ele>54.4518</ele>
        <time>2014-06-04T15:16:43Z</time>
      </trkpt>
      <trkpt lat="59.9148458" lon="17.7153371">
        <ele>55.4131</ele>
        <time>2014-06-04T15:16:44Z</time>
      </trkpt>
      <trkpt lat="59.9148749" lon="17.715332">
        <ele>55.8938</ele>
        <time>2014-06-04T15:16:45Z</time>
      </trkpt>
      <trkpt lat="59.9148992" lon="17.7153176">
        <ele>55.4131</ele>
        <time>2014-06-04T15:16:46Z</time>
      </trkpt>
      <trkpt lat="59.9149147" lon="17.7152818">
        <ele>54.9324</ele>
        <time>2014-06-04T15:16:47Z</time>
      </trkpt>
      <trkpt lat="59.9149231" lon="17.7152534">
        <ele>53.9712</ele>
        <time>2014-06-04T15:16:48Z</time>
      </trkpt>
      <trkpt lat="59.9149199" lon="17.7152093">
        <ele>53.4905</ele>
        <time>2014-06-04T15:16:49Z</time>
      </trkpt>
      <trkpt lat="59.9149209" lon="17.7151632">
        <ele>53.4905</ele>
        <time>2014-06-04T15:16:50Z</time>
      </trkpt>
      <trkpt lat="59.9149235" lon="17.7151195">
        <ele>53.0098</ele>
        <time>2014-06-04T15:16:51Z</time>
      </trkpt>
      <trkpt lat="59.9149371" lon="17.715089">
        <ele>53.0098</ele>
        <time>2014-06-04T15:16:52Z</time>
      </trkpt>
      <trkpt lat="59.9149583" lon="17.7150716">
        <ele>52.0486</ele>
        <time>2014-06-04T15:16:53Z</time>
      </trkpt>
      <trkpt lat="59.9149815" lon="17.7150586">
        <ele>52.5292</ele>
        <time>2014-06-04T15:16:54Z</time>
      </trkpt>
      <trkpt lat="59.9149976" lon="17.7150556">
        <ele>52.0486</ele>
        <time>2014-06-04T15:16:55Z</time>
      </trkpt>
      <trkpt lat="59.9150174" lon="17.7150594">
        <ele>51.5679</ele>
        <time>2014-06-04T15:16:56Z</time>
      </trkpt>
      <trkpt lat="59.9150426" lon="17.7150679">
        <ele>52.0486</ele>
        <time>2014-06-04T15:16:57Z</time>
      </trkpt>
      <trkpt lat="59.9150634" lon="17.7150721">
        <ele>51.5679</ele>
        <time>2014-06-04T15:16:58Z</time>
      </trkpt>
      <trkpt lat="59.9150862" lon="17.7150737">
        <ele>51.5679</ele>
        <time>2014-06-04T15:16:59Z</time>
      </trkpt>
      <trkpt lat="59.9151074" lon="17.7150747">
        <ele>51.5679</ele>
        <time>2014-06-04T15:17:00Z</time>
      </trkpt>
      <trkpt lat="59.915129" lon="17.715077">
        <ele>51.0872</ele>
        <time>2014-06-04T15:17:01Z</time>
      </trkpt>
      <trkpt lat="59.9151543" lon="17.7150756">
        <ele>51.5679</ele>
        <time>2014-06-04T15:17:02Z</time>
      </trkpt>
      <trkpt lat="59.9151803" lon="17.7150685">
        <ele>52.0486</ele>
        <time>2014-06-04T15:17:03Z</time>
      </trkpt>
      <trkpt lat="59.9152059" lon="17.71507">
        <ele>52.0486</ele>
        <time>2014-06-04T15:17:04Z</time>
      </trkpt>
      <trkpt lat="59.9152269" lon="17.7150689">
        <ele>51.5679</ele>
        <time>2014-06-04T15:17:05Z</time>
      </trkpt>
      <trkpt lat="59.9152488" lon="17.7150592">
        <ele>51.5679</ele>
        <time>2014-06-04T15:17:06Z</time>
      </trkpt>
      <trkpt lat="59.9152685" lon="17.7150416">
        <ele>52.0486</ele>
        <time>2014-06-04T15:17:07Z</time>
      </trkpt>
      <trkpt lat="59.9152818" lon="17.7150265">
        <ele>51.5679</ele>
        <time>2014-06-04T15:17:08Z</time>
      </trkpt>
      <trkpt lat="59.915287" lon="17.7150069">
        <ele>51.0872</ele>
        <time>2014-06-04T15:17:09Z</time>
      </trkpt>
      <trkpt lat="59.9152926" lon="17.7149735">
        <ele>50.6066</ele>
        <time>2014-06-04T15:17:10Z</time>
      </trkpt>
      <trkpt lat="59.915298" lon="17.7149346">
        <ele>50.6066</ele>
        <time>2014-06-04T15:17:11Z</time>
      </trkpt>
      <trkpt lat="59.9153057" lon="17.7148865">
        <ele>50.6066</ele>
        <time>2014-06-04T15:17:12Z</time>
      </trkpt>
      <trkpt lat="59.9153124" lon="17.7148329">
        <ele>50.6066</ele>
        <time>2014-06-04T15:17:13Z</time>
      </trkpt>
      <trkpt lat="59.9153163" lon="17.7147795">
        <ele>49.6453</ele>
        <time>2014-06-04T15:17:14Z</time>
      </trkpt>
      <trkpt lat="59.9153269" lon="17.7147286">
        <ele>49.1646</ele>
        <time>2014-06-04T15:17:15Z</time>
      </trkpt>
      <trkpt lat="59.915344" lon="17.7146836">
        <ele>49.6453</ele>
        <time>2014-06-04T15:17:16Z</time>
      </trkpt>
      <trkpt lat="59.9153536" lon="17.7146447">
        <ele>49.6453</ele>
        <time>2014-06-04T15:17:17Z</time>
      </trkpt>
      <trkpt lat="59.9153597" lon="17.7145989">
        <ele>49.1646</ele>
        <time>2014-06-04T15:17:18Z</time>
      </trkpt>
      <trkpt lat="59.9153637" lon="17.7145489">
        <ele>48.684</ele>
        <time>2014-06-04T15:17:19Z</time>
      </trkpt>
      <trkpt lat="59.9153553" lon="17.7144867">
        <ele>49.1646</ele>
        <time>2014-06-04T15:17:20Z</time>
      </trkpt>
      <trkpt lat="59.9153493" lon="17.7144366">
        <ele>48.2034</ele>
        <time>2014-06-04T15:17:21Z</time>
      </trkpt>
      <trkpt lat="59.9153659" lon="17.7143956">
        <ele>48.684</ele>
        <time>2014-06-04T15:17:22Z</time>
      </trkpt>
      <trkpt lat="59.9153974" lon="17.7143675">
        <ele>48.2034</ele>
        <time>2014-06-04T15:17:23Z</time>
      </trkpt>
      <trkpt lat="59.9154033" lon="17.714327">
        <ele>48.2034</ele>
        <time>2014-06-04T15:17:24Z</time>
      </trkpt>
      <trkpt lat="59.9153983" lon="17.7142798">
        <ele>47.7225</ele>
        <time>2014-06-04T15:17:25Z</time>
      </trkpt>
      <trkpt lat="59.915396" lon="17.7142307">
        <ele>47.7225</ele>
        <time>2014-06-04T15:17:26Z</time>
      </trkpt>
      <trkpt lat="59.9153978" lon="17.7141795">
        <ele>48.2034</ele>
        <time>2014-06-04T15:17:27Z</time>
      </trkpt>
      <trkpt lat="59.915403" lon="17.7141361">
        <ele>48.2034</ele>
        <time>2014-06-04T15:17:28Z</time>
      </trkpt>
      <trkpt lat="59.9154115" lon="17.7140864">
        <ele>48.2034</ele>
        <time>2014-06-04T15:17:29Z</time>
      </trkpt>
      <trkpt lat="59.9154218" lon="17.7140382">
        <ele>48.684</ele>
        <time>2014-06-04T15:17:30Z</time>
      </trkpt>
      <trkpt lat="59.9154312" lon="17.7139973">
        <ele>49.1646</ele>
        <time>2014-06-04T15:17:31Z</time>
      </trkpt>
      <trkpt lat="59.9154461" lon="17.7139546">
        <ele>49.1646</ele>
        <time>2014-06-04T15:17:32Z</time>
      </trkpt>
      <trkpt lat="59.9154565" lon="17.713902">
        <ele>49.6453</ele>
        <time>2014-06-04T15:17:33Z</time>
      </trkpt>
      <trkpt lat="59.9154608" lon="17.7138535">
        <ele>49.1646</ele>
        <time>2014-06-04T15:17:34Z</time>
      </trkpt>
      <trkpt lat="59.9154628" lon="17.7138076">
        <ele>48.684</ele>
        <time>2014-06-04T15:17:35Z</time>
      </trkpt>
      <trkpt lat="59.9154613" lon="17.7137657">
        <ele>48.2034</ele>
        <time>2014-06-04T15:17:36Z</time>
      </trkpt>
      <trkpt lat="59.9154608" lon="17.7137159">
        <ele>47.7225</ele>
        <time>2014-06-04T15:17:37Z</time>
      </trkpt>
      <trkpt lat="59.915466" lon="17.7136689">
        <ele>47.7225</ele>
        <time>2014-06-04T15:17:38Z</time>
      </trkpt>
      <trkpt lat="59.9154742" lon="17.7136302">
        <ele>47.7225</ele>
        <time>2014-06-04T15:17:39Z</time>
      </trkpt>
      <trkpt lat="59.9154753" lon="17.7135858">
        <ele>47.7225</ele>
        <time>2014-06-04T15:17:40Z</time>
      </trkpt>
      <trkpt lat="59.915482" lon="17.7135413">
        <ele>47.7225</ele>
        <time>2014-06-04T15:17:41Z</time>
      </trkpt>
      <trkpt lat="59.9154892" lon="17.7134994">
        <ele>48.2034</ele>
        <time>2014-06-04T15:17:42Z</time>
      </trkpt>
      <trkpt lat="59.9155071" lon="17.7134579">
        <ele>47.7225</ele>
        <time>2014-06-04T15:17:43Z</time>
      </trkpt>
      <trkpt lat="59.9155161" lon="17.7134098">
        <ele>48.2034</ele>
        <time>2014-06-04T15:17:44Z</time>
      </trkpt>
      <trkpt lat="59.9155248" lon="17.7133658">
        <ele>48.684</ele>
        <time>2014-06-04T15:17:45Z</time>
      </trkpt>
      <trkpt lat="59.9155312" lon="17.7133114">
        <ele>49.1646</ele>
        <time>2014-06-04T15:17:46Z</time>
      </trkpt>
      <trkpt lat="59.9155353" lon="17.7132619">
        <ele>49.1646</ele>
        <time>2014-06-04T15:17:47Z</time>
      </trkpt>
      <trkpt lat="59.9155405" lon="17.7132247">
        <ele>49.1646</ele>
        <time>2014-06-04T15:17:48Z</time>
      </trkpt>
      <trkpt lat="59.9155613" lon="17.7131876">
        <ele>49.1646</ele>
        <time>2014-06-04T15:17:49Z</time>
      </trkpt>
      <trkpt lat="59.9155773" lon="17.7131591">
        <ele>48.684</ele>
        <time>2014-06-04T15:17:50Z</time>
      </trkpt>
      <trkpt lat="59.9155974" lon="17.7131285">
        <ele>48.684</ele>
        <time>2014-06-04T15:17:51Z</time>
      </trkpt>
      <trkpt lat="59.9156201" lon="17.7130979">
        <ele>48.684</ele>
        <time>2014-06-04T15:17:52Z</time>
      </trkpt>
      <trkpt lat="59.9156367" lon="17.7130597">
        <ele>48.2034</ele>
        <time>2014-06-04T15:17:53Z</time>
      </trkpt>
      <trkpt lat="59.9156573" lon="17.7130258">
        <ele>48.684</ele>
        <time>2014-06-04T15:17:54Z</time>
      </trkpt>
      <trkpt lat="59.9156735" lon="17.7129933">
        <ele>48.2034</ele>
        <time>2014-06-04T15:17:55Z</time>
      </trkpt>
      <trkpt lat="59.9156814" lon="17.712954">
        <ele>48.2034</ele>
        <time>2014-06-04T15:17:56Z</time>
      </trkpt>
      <trkpt lat="59.9156855" lon="17.7129271">
        <ele>47.7225</ele>
        <time>2014-06-04T15:17:57Z</time>
      </trkpt>
      <trkpt lat="59.9156957" lon="17.7129098">
        <ele>47.2418</ele>
        <time>2014-06-04T15:17:58Z</time>
      </trkpt>
      <trkpt lat="59.9157098" lon="17.712901">
        <ele>47.2418</ele>
        <time>2014-06-04T15:17:59Z</time>
      </trkpt>
      <trkpt lat="59.9157299" lon="17.7128861">
        <ele>47.2418</ele>
        <time>2014-06-04T15:18:00Z</time>
      </trkpt>
      <trkpt lat="59.9157425" lon="17.7128745">
        <ele>46.7612</ele>
        <time>2014-06-04T15:18:01Z</time>
      </trkpt>
      <trkpt lat="59.915758" lon="17.7128701">
        <ele>46.7612</ele>
        <time>2014-06-04T15:18:02Z</time>
      </trkpt>
      <trkpt lat="59.9157793" lon="17.7128595">
        <ele>47.2418</ele>
        <time>2014-06-04T15:18:03Z</time>
      </trkpt>
      <trkpt lat="59.9157954" lon="17.7128525">
        <ele>47.2418</ele>
        <time>2014-06-04T15:18:04Z</time>
      </trkpt>
      <trkpt lat="59.9158133" lon="17.7128493">
        <ele>47.2418</ele>
        <time>2014-06-04T15:18:05Z</time>
      </trkpt>
      <trkpt lat="59.9158268" lon="17.7128492">
        <ele>46.7612</ele>
        <time>2014-06-04T15:18:06Z</time>
      </trkpt>
      <trkpt lat="59.9158472" lon="17.712844">
        <ele>46.7612</ele>
        <time>2014-06-04T15:18:07Z</time>
      </trkpt>
      <trkpt lat="59.9158682" lon="17.7128396">
        <ele>47.2418</ele>
        <time>2014-06-04T15:18:08Z</time>
      </trkpt>
      <trkpt lat="59.915885" lon="17.7128306">
        <ele>47.2418</ele>
        <time>2014-06-04T15:18:09Z</time>
      </trkpt>
      <trkpt lat="59.9159076" lon="17.7128223">
        <ele>47.2418</ele>
        <time>2014-06-04T15:18:10Z</time>
      </trkpt>
      <trkpt lat="59.9159279" lon="17.712811">
        <ele>47.2418</ele>
        <time>2014-06-04T15:18:11Z</time>
      </trkpt>
      <trkpt lat="59.9159502" lon="17.7128011">
        <ele>47.7225</ele>
        <time>2014-06-04T15:18:12Z</time>
      </trkpt>
      <trkpt lat="59.9159712" lon="17.7128001">
        <ele>47.7225</ele>
        <time>2014-06-04T15:18:13Z</time>
      </trkpt>
      <trkpt lat="59.9159859" lon="17.7127919">
        <ele>47.2418</ele>
        <time>2014-06-04T15:18:14Z</time>
      </trkpt>
      <trkpt lat="59.9160062" lon="17.7127767">
        <ele>48.2034</ele>
        <time>2014-06-04T15:18:15Z</time>
      </trkpt>
      <trkpt lat="59.9160227" lon="17.7127685">
        <ele>48.2034</ele>
        <time>2014-06-04T15:18:16Z</time>
      </trkpt>
      <trkpt lat="59.9160498" lon="17.7127675">
        <ele>48.684</ele>
        <time>2014-06-04T15:18:17Z</time>
      </trkpt>
      <trkpt lat="59.9160766" lon="17.7127667">
        <ele>49.1646</ele>
        <time>2014-06-04T15:18:18Z</time>
      </trkpt>
      <trkpt lat="59.9161015" lon="17.7127633">
        <ele>49.1646</ele>
        <time>2014-06-04T15:18:19Z</time>
      </trkpt>
      <trkpt lat="59.9161252" lon="17.712759">
        <ele>49.1646</ele>
        <time>2014-06-04T15:18:20Z</time>
      </trkpt>
      <trkpt lat="59.9161476" lon="17.7127565">
        <ele>49.1646</ele>
        <time>2014-06-04T15:18:21Z</time>
      </trkpt>
      <trkpt lat="59.9161662" lon="17.7127498">
        <ele>49.1646</ele>
        <time>2014-06-04T15:18:22Z</time>
      </trkpt>
      <trkpt lat="59.9161849" lon="17.7127349">
        <ele>49.1646</ele>
        <time>2014-06-04T15:18:23Z</time>
      </trkpt>
      <trkpt lat="59.9161983" lon="17.7127163">
        <ele>49.1646</ele>
        <time>2014-06-04T15:18:24Z</time>
      </trkpt>
      <trkpt lat="59.9162154" lon="17.7126924">
        <ele>49.1646</ele>
        <time>2014-06-04T15:18:25Z</time>
      </trkpt>
      <trkpt lat="59.9162387" lon="17.7126731">
        <ele>49.6453</ele>
        <time>2014-06-04T15:18:26Z</time>
      </trkpt>
      <trkpt lat="59.9162558" lon="17.7126565">
        <ele>49.6453</ele>
        <time>2014-06-04T15:18:27Z</time>
      </trkpt>
      <trkpt lat="59.9162727" lon="17.7126381">
        <ele>49.6453</ele>
        <time>2014-06-04T15:18:28Z</time>
      </trkpt>
      <trkpt lat="59.91629" lon="17.7126153">
        <ele>50.126</ele>
        <time>2014-06-04T15:18:29Z</time>
      </trkpt>
      <trkpt lat="59.9163045" lon="17.7125808">
        <ele>50.6066</ele>
        <time>2014-06-04T15:18:30Z</time>
      </trkpt>
      <trkpt lat="59.9163157" lon="17.7125417">
        <ele>51.0872</ele>
        <time>2014-06-04T15:18:31Z</time>
      </trkpt>
      <trkpt lat="59.916322" lon="17.7125005">
        <ele>52.0486</ele>
        <time>2014-06-04T15:18:32Z</time>
      </trkpt>
      <trkpt lat="59.9163325" lon="17.7124603">
        <ele>53.0098</ele>
        <time>2014-06-04T15:18:33Z</time>
      </trkpt>
      <trkpt lat="59.9163372" lon="17.7124364">
        <ele>53.0098</ele>
        <time>2014-06-04T15:18:34Z</time>
      </trkpt>
      <trkpt lat="59.9163512" lon="17.712409">
        <ele>53.9712</ele>
        <time>2014-06-04T15:18:35Z</time>
      </trkpt>
      <trkpt lat="59.9163681" lon="17.712381">
        <ele>53.9712</ele>
        <time>2014-06-04T15:18:36Z</time>
      </trkpt>
      <trkpt lat="59.9163817" lon="17.7123505">
        <ele>54.4518</ele>
        <time>2014-06-04T15:18:37Z</time>
      </trkpt>
      <trkpt lat="59.9163941" lon="17.7123147">
        <ele>54.9324</ele>
        <time>2014-06-04T15:18:38Z</time>
      </trkpt>
      <trkpt lat="59.9164044" lon="17.7122669">
        <ele>55.4131</ele>
        <time>2014-06-04T15:18:39Z</time>
      </trkpt>
      <trkpt lat="59.916416" lon="17.7122224">
        <ele>55.8938</ele>
        <time>2014-06-04T15:18:40Z</time>
      </trkpt>
      <trkpt lat="59.9164279" lon="17.7122023">
        <ele>55.8938</ele>
        <time>2014-06-04T15:18:41Z</time>
      </trkpt>
      <trkpt lat="59.916433" lon="17.7121741">
        <ele>55.4131</ele>
        <time>2014-06-04T15:18:42Z</time>
      </trkpt>
      <trkpt lat="59.9164449" lon="17.7121355">
        <ele>55.8938</ele>
        <time>2014-06-04T15:18:43Z</time>
      </trkpt>
      <trkpt lat="59.9164602" lon="17.7121055">
        <ele>55.8938</ele>
        <time>2014-06-04T15:18:44Z</time>
      </trkpt>
      <trkpt lat="59.9164739" lon="17.7120762">
        <ele>55.8938</ele>
        <time>2014-06-04T15:18:45Z</time>
      </trkpt>
      <trkpt lat="59.9164869" lon="17.7120496">
        <ele>55.8938</ele>
        <time>2014-06-04T15:18:46Z</time>
      </trkpt>
      <trkpt lat="59.9165037" lon="17.7120211">
        <ele>56.3745</ele>
        <time>2014-06-04T15:18:47Z</time>
      </trkpt>
      <trkpt lat="59.9165242" lon="17.7119861">
        <ele>57.3358</ele>
        <time>2014-06-04T15:18:48Z</time>
      </trkpt>
      <trkpt lat="59.9165401" lon="17.7119485">
        <ele>57.8165</ele>
        <time>2014-06-04T15:18:49Z</time>
      </trkpt>
      <trkpt lat="59.9165537" lon="17.7119262">
        <ele>58.2971</ele>
        <time>2014-06-04T15:18:50Z</time>
      </trkpt>
      <trkpt lat="59.9165631" lon="17.7119037">
        <ele>57.8165</ele>
        <time>2014-06-04T15:18:51Z</time>
      </trkpt>
      <trkpt lat="59.9165734" lon="17.7118743">
        <ele>57.8165</ele>
        <time>2014-06-04T15:18:52Z</time>
      </trkpt>
      <trkpt lat="59.9165858" lon="17.7118331">
        <ele>57.3358</ele>
        <time>2014-06-04T15:18:53Z</time>
      </trkpt>
      <trkpt lat="59.9165941" lon="17.7117875">
        <ele>57.8165</ele>
        <time>2014-06-04T15:18:54Z</time>
      </trkpt>
      <trkpt lat="59.9166013" lon="17.7117402">
        <ele>58.2971</ele>
        <time>2014-06-04T15:18:55Z</time>
      </trkpt>
      <trkpt lat="59.9166045" lon="17.7116935">
        <ele>58.2971</ele>
        <time>2014-06-04T15:18:56Z</time>
      </trkpt>
      <trkpt lat="59.9166075" lon="17.7116466">
        <ele>59.2584</ele>
        <time>2014-06-04T15:18:57Z</time>
      </trkpt>
      <trkpt lat="59.9166091" lon="17.7115976">
        <ele>60.2197</ele>
        <time>2014-06-04T15:18:58Z</time>
      </trkpt>
      <trkpt lat="59.9166127" lon="17.7115553">
        <ele>61.181</ele>
        <time>2014-06-04T15:18:59Z</time>
      </trkpt>
      <trkpt lat="59.9166256" lon="17.7115247">
        <ele>61.181</ele>
        <time>2014-06-04T15:19:00Z</time>
      </trkpt>
      <trkpt lat="59.9166334" lon="17.7114878">
        <ele>61.181</ele>
        <time>2014-06-04T15:19:01Z</time>
      </trkpt>
      <trkpt lat="59.9166491" lon="17.7114506">
        <ele>62.1423</ele>
        <time>2014-06-04T15:19:02Z</time>
      </trkpt>
      <trkpt lat="59.9166682" lon="17.7114241">
        <ele>61.6617</ele>
        <time>2014-06-04T15:19:03Z</time>
      </trkpt>
      <trkpt lat="59.9166719" lon="17.7113889">
        <ele>61.6617</ele>
        <time>2014-06-04T15:19:04Z</time>
      </trkpt>
      <trkpt lat="59.9166797" lon="17.7113579">
        <ele>61.6617</ele>
        <time>2014-06-04T15:19:05Z</time>
      </trkpt>
      <trkpt lat="59.9166869" lon="17.7113341">
        <ele>61.6617</ele>
        <time>2014-06-04T15:19:06Z</time>
      </trkpt>
      <trkpt lat="59.9166945" lon="17.7113106">
        <ele>61.181</ele>
        <time>2014-06-04T15:19:07Z</time>
      </trkpt>
      <trkpt lat="59.9167068" lon="17.7112848">
        <ele>61.181</ele>
        <time>2014-06-04T15:19:08Z</time>
      </trkpt>
      <trkpt lat="59.9167133" lon="17.7112553">
        <ele>60.7003</ele>
        <time>2014-06-04T15:19:09Z</time>
      </trkpt>
      <trkpt lat="59.9167168" lon="17.7112191">
        <ele>60.2197</ele>
        <time>2014-06-04T15:19:10Z</time>
      </trkpt>
      <trkpt lat="59.9167148" lon="17.7111808">
        <ele>59.7391</ele>
        <time>2014-06-04T15:19:11Z</time>
      </trkpt>
      <trkpt lat="59.9167097" lon="17.7111394">
        <ele>59.2584</ele>
        <time>2014-06-04T15:19:12Z</time>
      </trkpt>
      <trkpt lat="59.9167092" lon="17.7110999">
        <ele>58.2971</ele>
        <time>2014-06-04T15:19:13Z</time>
      </trkpt>
      <trkpt lat="59.9167099" lon="17.7110531">
        <ele>58.2971</ele>
        <time>2014-06-04T15:19:14Z</time>
      </trkpt>
      <trkpt lat="59.9167216" lon="17.7110066">
        <ele>57.8165</ele>
        <time>2014-06-04T15:19:15Z</time>
      </trkpt>
      <trkpt lat="59.91674" lon="17.7109534">
        <ele>57.3358</ele>
        <time>2014-06-04T15:19:16Z</time>
      </trkpt>
      <trkpt lat="59.9167561" lon="17.7109104">
        <ele>57.3358</ele>
        <time>2014-06-04T15:19:17Z</time>
      </trkpt>
      <trkpt lat="59.916762" lon="17.7108747">
        <ele>56.8551</ele>
        <time>2014-06-04T15:19:18Z</time>
      </trkpt>
      <trkpt lat="59.916775" lon="17.7108353">
        <ele>56.3745</ele>
        <time>2014-06-04T15:19:19Z</time>
      </trkpt>
      <trkpt lat="59.9167873" lon="17.7107907">
        <ele>56.3745</ele>
        <time>2014-06-04T15:19:20Z</time>
      </trkpt>
      <trkpt lat="59.916796" lon="17.7107555">
        <ele>56.3745</ele>
        <time>2014-06-04T15:19:21Z</time>
      </trkpt>
      <trkpt lat="59.9168023" lon="17.7107166">
        <ele>56.3745</ele>
        <time>2014-06-04T15:19:22Z</time>
      </trkpt>
      <trkpt lat="59.9168107" lon="17.710682">
        <ele>56.3745</ele>
        <time>2014-06-04T15:19:23Z</time>
      </trkpt>
      <trkpt lat="59.9168101" lon="17.7106501">
        <ele>56.8551</ele>
        <time>2014-06-04T15:19:24Z</time>
      </trkpt>
      <trkpt lat="59.9168149" lon="17.7106134">
        <ele>56.8551</ele>
        <time>2014-06-04T15:19:25Z</time>
      </trkpt>
      <trkpt lat="59.9168194" lon="17.7105725">
        <ele>56.8551</ele>
        <time>2014-06-04T15:19:26Z</time>
      </trkpt>
      <trkpt lat="59.9168174" lon="17.7105251">
        <ele>56.8551</ele>
        <time>2014-06-04T15:19:27Z</time>
      </trkpt>
      <trkpt lat="59.9168172" lon="17.7104856">
        <ele>57.3358</ele>
        <time>2014-06-04T15:19:28Z</time>
      </trkpt>
      <trkpt lat="59.916818" lon="17.7104492">
        <ele>57.8165</ele>
        <time>2014-06-04T15:19:29Z</time>
      </trkpt>
      <trkpt lat="59.9168132" lon="17.7104049">
        <ele>58.2971</ele>
        <time>2014-06-04T15:19:30Z</time>
      </trkpt>
      <trkpt lat="59.9168091" lon="17.710366">
        <ele>58.2971</ele>
        <time>2014-06-04T15:19:31Z</time>
      </trkpt>
      <trkpt lat="59.916804" lon="17.7103301">
        <ele>57.8165</ele>
        <time>2014-06-04T15:19:32Z</time>
      </trkpt>
      <trkpt lat="59.9167942" lon="17.7102965">
        <ele>58.2971</ele>
        <time>2014-06-04T15:19:33Z</time>
      </trkpt>
      <trkpt lat="59.9167789" lon="17.710259">
        <ele>58.2971</ele>
        <time>2014-06-04T15:19:34Z</time>
      </trkpt>
      <trkpt lat="59.9167657" lon="17.7102271">
        <ele>58.2971</ele>
        <time>2014-06-04T15:19:35Z</time>
      </trkpt>
      <trkpt lat="59.9167551" lon="17.7102018">
        <ele>57.3358</ele>
        <time>2014-06-04T15:19:36Z</time>
      </trkpt>
      <trkpt lat="59.9167465" lon="17.7101684">
        <ele>56.8551</ele>
        <time>2014-06-04T15:19:37Z</time>
      </trkpt>
      <trkpt lat="59.9167385" lon="17.7101335">
        <ele>56.8551</ele>
        <time>2014-06-04T15:19:38Z</time>
      </trkpt>
      <trkpt lat="59.9167265" lon="17.7100872">
        <ele>56.8551</ele>
        <time>2014-06-04T15:19:39Z</time>
      </trkpt>
      <trkpt lat="59.9167144" lon="17.7100428">
        <ele>56.3745</ele>
        <time>2014-06-04T15:19:40Z</time>
      </trkpt>
      <trkpt lat="59.916705" lon="17.7100027">
        <ele>56.3745</ele>
        <time>2014-06-04T15:19:41Z</time>
      </trkpt>
      <trkpt lat="59.9166962" lon="17.7099728">
        <ele>55.8938</ele>
        <time>2014-06-04T15:19:42Z</time>
      </trkpt>
      <trkpt lat="59.9166817" lon="17.7099487">
        <ele>55.4131</ele>
        <time>2014-06-04T15:19:43Z</time>
      </trkpt>
      <trkpt lat="59.9166621" lon="17.7099174">
        <ele>55.4131</ele>
        <time>2014-06-04T15:19:44Z</time>
      </trkpt>
      <trkpt lat="59.9166426" lon="17.7098781">
        <ele>55.4131</ele>
        <time>2014-06-04T15:19:45Z</time>
      </trkpt>
      <trkpt lat="59.9166293" lon="17.7098459">
        <ele>54.9324</ele>
        <time>2014-06-04T15:19:46Z</time>
      </trkpt>
      <trkpt lat="59.9166184" lon="17.7098196">
        <ele>54.4518</ele>
        <time>2014-06-04T15:19:47Z</time>
      </trkpt>
      <trkpt lat="59.9166053" lon="17.7097924">
        <ele>54.4518</ele>
        <time>2014-06-04T15:19:48Z</time>
      </trkpt>
      <trkpt lat="59.9165955" lon="17.7097643">
        <ele>54.9324</ele>
        <time>2014-06-04T15:19:49Z</time>
      </trkpt>
      <trkpt lat="59.9165828" lon="17.7097369">
        <ele>54.9324</ele>
        <time>2014-06-04T15:19:50Z</time>
      </trkpt>
      <trkpt lat="59.9165747" lon="17.7097229">
        <ele>54.9324</ele>
        <time>2014-06-04T15:19:51Z</time>
      </trkpt>
      <trkpt lat="59.9165639" lon="17.7097006">
        <ele>54.9324</ele>
        <time>2014-06-04T15:19:52Z</time>
      </trkpt>
      <trkpt lat="59.9165516" lon="17.7096677">
        <ele>54.4518</ele>
        <time>2014-06-04T15:19:53Z</time>
      </trkpt>
      <trkpt lat="59.9165351" lon="17.7096234">
        <ele>54.4518</ele>
        <time>2014-06-04T15:19:54Z</time>
      </trkpt>
      <trkpt lat="59.9165195" lon="17.7095738">
        <ele>53.9712</ele>
        <time>2014-06-04T15:19:55Z</time>
      </trkpt>
      <trkpt lat="59.9165122" lon="17.7095261">
        <ele>53.9712</ele>
        <time>2014-06-04T15:19:56Z</time>
      </trkpt>
      <trkpt lat="59.9165089" lon="17.7094739">
        <ele>54.4518</ele>
        <time>2014-06-04T15:19:57Z</time>
      </trkpt>
      <trkpt lat="59.9165025" lon="17.7094205">
        <ele>54.4518</ele>
        <time>2014-06-04T15:19:58Z</time>
      </trkpt>
      <trkpt lat="59.9165006" lon="17.7093667">
        <ele>54.9324</ele>
        <time>2014-06-04T15:19:59Z</time>
      </trkpt>
      <trkpt lat="59.9165105" lon="17.7093147">
        <ele>55.4131</ele>
        <time>2014-06-04T15:20:00Z</time>
      </trkpt>
      <trkpt lat="59.9165164" lon="17.7092665">
        <ele>56.3745</ele>
        <time>2014-06-04T15:20:01Z</time>
      </trkpt>
      <trkpt lat="59.9165276" lon="17.7092251">
        <ele>56.3745</ele>
        <time>2014-06-04T15:20:02Z</time>
      </trkpt>
      <trkpt lat="59.916535" lon="17.7091745">
        <ele>57.8165</ele>
        <time>2014-06-04T15:20:03Z</time>
      </trkpt>
      <trkpt lat="59.9165381" lon="17.7091393">
        <ele>58.2971</ele>
        <time>2014-06-04T15:20:04Z</time>
      </trkpt>
      <trkpt lat="59.9165423" lon="17.7091123">
        <ele>58.2971</ele>
        <time>2014-06-04T15:20:05Z</time>
      </trkpt>
      <trkpt lat="59.9165495" lon="17.7090896">
        <ele>58.2971</ele>
        <time>2014-06-04T15:20:06Z</time>
      </trkpt>
      <trkpt lat="59.9165615" lon="17.7090729">
        <ele>57.8165</ele>
        <time>2014-06-04T15:20:07Z</time>
      </trkpt>
      <trkpt lat="59.9165652" lon="17.7090526">
        <ele>58.2971</ele>
        <time>2014-06-04T15:20:08Z</time>
      </trkpt>
      <trkpt lat="59.9165704" lon="17.709017">
        <ele>58.2971</ele>
        <time>2014-06-04T15:20:09Z</time>
      </trkpt>
      <trkpt lat="59.9165708" lon="17.7089679">
        <ele>58.2971</ele>
        <time>2014-06-04T15:20:10Z</time>
      </trkpt>
      <trkpt lat="59.9165692" lon="17.7089171">
        <ele>58.2971</ele>
        <time>2014-06-04T15:20:11Z</time>
      </trkpt>
      <trkpt lat="59.9165758" lon="17.7088692">
        <ele>59.2584</ele>
        <time>2014-06-04T15:20:12Z</time>
      </trkpt>
      <trkpt lat="59.9165885" lon="17.7088244">
        <ele>60.2197</ele>
        <time>2014-06-04T15:20:13Z</time>
      </trkpt>
      <trkpt lat="59.916602" lon="17.7087778">
        <ele>61.181</ele>
        <time>2014-06-04T15:20:14Z</time>
      </trkpt>
      <trkpt lat="59.9166158" lon="17.7087301">
        <ele>62.1423</ele>
        <time>2014-06-04T15:20:15Z</time>
      </trkpt>
      <trkpt lat="59.9166288" lon="17.7086922">
        <ele>63.1036</ele>
        <time>2014-06-04T15:20:16Z</time>
      </trkpt>
      <trkpt lat="59.9166335" lon="17.7086435">
        <ele>63.5844</ele>
        <time>2014-06-04T15:20:17Z</time>
      </trkpt>
      <trkpt lat="59.9166405" lon="17.7085967">
        <ele>64.5457</ele>
        <time>2014-06-04T15:20:18Z</time>
      </trkpt>
      <trkpt lat="59.9166538" lon="17.7085565">
        <ele>64.5457</ele>
        <time>2014-06-04T15:20:19Z</time>
      </trkpt>
      <trkpt lat="59.9166748" lon="17.7085142">
        <ele>65.0264</ele>
        <time>2014-06-04T15:20:20Z</time>
      </trkpt>
      <trkpt lat="59.916674" lon="17.7084771">
        <ele>65.0264</ele>
        <time>2014-06-04T15:20:21Z</time>
      </trkpt>
      <trkpt lat="59.9166742" lon="17.708455">
        <ele>64.5457</ele>
        <time>2014-06-04T15:20:22Z</time>
      </trkpt>
      <trkpt lat="59.9166801" lon="17.7084343">
        <ele>64.5457</ele>
        <time>2014-06-04T15:20:23Z</time>
      </trkpt>
      <trkpt lat="59.9166785" lon="17.7083986">
        <ele>63.5844</ele>
        <time>2014-06-04T15:20:24Z</time>
      </trkpt>
      <trkpt lat="59.9166728" lon="17.7083596">
        <ele>63.1036</ele>
        <time>2014-06-04T15:20:25Z</time>
      </trkpt>
      <trkpt lat="59.9166649" lon="17.7083359">
        <ele>62.1423</ele>
        <time>2014-06-04T15:20:26Z</time>
      </trkpt>
      <trkpt lat="59.9166569" lon="17.70831">
        <ele>61.6617</ele>
        <time>2014-06-04T15:20:27Z</time>
      </trkpt>
      <trkpt lat="59.9166483" lon="17.7082773">
        <ele>60.7003</ele>
        <time>2014-06-04T15:20:28Z</time>
      </trkpt>
      <trkpt lat="59.9166392" lon="17.7082427">
        <ele>60.2197</ele>
        <time>2014-06-04T15:20:29Z</time>
      </trkpt>
      <trkpt lat="59.9166299" lon="17.7081959">
        <ele>59.7391</ele>
        <time>2014-06-04T15:20:30Z</time>
      </trkpt>
      <trkpt lat="59.9166215" lon="17.7081414">
        <ele>59.7391</ele>
        <time>2014-06-04T15:20:31Z</time>
      </trkpt>
      <trkpt lat="59.9166288" lon="17.7081116">
        <ele>59.2584</ele>
        <time>2014-06-04T15:20:32Z</time>
      </trkpt>
      <trkpt lat="59.9166515" lon="17.708084">
        <ele>58.7777</ele>
        <time>2014-06-04T15:20:33Z</time>
      </trkpt>
      <trkpt lat="59.9166749" lon="17.7080454">
        <ele>58.7777</ele>
        <time>2014-06-04T15:20:34Z</time>
      </trkpt>
      <trkpt lat="59.9166841" lon="17.7080067">
        <ele>58.2971</ele>
        <time>2014-06-04T15:20:35Z</time>
      </trkpt>
      <trkpt lat="59.9166929" lon="17.7079722">
        <ele>58.7777</ele>
        <time>2014-06-04T15:20:36Z</time>
      </trkpt>
      <trkpt lat="59.9167023" lon="17.7079484">
        <ele>58.2971</ele>
        <time>2014-06-04T15:20:37Z</time>
      </trkpt>
      <trkpt lat="59.9167166" lon="17.7079293">
        <ele>58.2971</ele>
        <time>2014-06-04T15:20:38Z</time>
      </trkpt>
      <trkpt lat="59.9167323" lon="17.7079132">
        <ele>58.2971</ele>
        <time>2014-06-04T15:20:39Z</time>
      </trkpt>
      <trkpt lat="59.91674" lon="17.7079033">
        <ele>57.8165</ele>
        <time>2014-06-04T15:20:40Z</time>
      </trkpt>
      <trkpt lat="59.9167412" lon="17.7078899">
        <ele>56.3745</ele>
        <time>2014-06-04T15:20:41Z</time>
      </trkpt>
      <trkpt lat="59.9167439" lon="17.7078685">
        <ele>55.8938</ele>
        <time>2014-06-04T15:20:42Z</time>
      </trkpt>
      <trkpt lat="59.9167511" lon="17.7078346">
        <ele>56.3745</ele>
        <time>2014-06-04T15:20:43Z</time>
      </trkpt>
      <trkpt lat="59.9167624" lon="17.7077995">
        <ele>56.3745</ele>
        <time>2014-06-04T15:20:44Z</time>
      </trkpt>
      <trkpt lat="59.9167728" lon="17.7077547">
        <ele>57.3358</ele>
        <time>2014-06-04T15:20:45Z</time>
      </trkpt>
      <trkpt lat="59.916778" lon="17.7076998">
        <ele>57.8165</ele>
        <time>2014-06-04T15:20:46Z</time>
      </trkpt>
      <trkpt lat="59.9167774" lon="17.7076474">
        <ele>57.8165</ele>
        <time>2014-06-04T15:20:47Z</time>
      </trkpt>
      <trkpt lat="59.9167819" lon="17.7076076">
        <ele>57.8165</ele>
        <time>2014-06-04T15:20:48Z</time>
      </trkpt>
      <trkpt lat="59.9167893" lon="17.7075743">
        <ele>57.8165</ele>
        <time>2014-06-04T15:20:49Z</time>
      </trkpt>
      <trkpt lat="59.9167957" lon="17.707534">
        <ele>57.8165</ele>
        <time>2014-06-04T15:20:50Z</time>
      </trkpt>
      <trkpt lat="59.9168055" lon="17.7074931">
        <ele>58.2971</ele>
        <time>2014-06-04T15:20:51Z</time>
      </trkpt>
      <trkpt lat="59.9168162" lon="17.707447">
        <ele>58.7777</ele>
        <time>2014-06-04T15:20:52Z</time>
      </trkpt>
      <trkpt lat="59.9168302" lon="17.7074001">
        <ele>59.7391</ele>
        <time>2014-06-04T15:20:53Z</time>
      </trkpt>
      <trkpt lat="59.9168438" lon="17.7073657">
        <ele>60.2197</ele>
        <time>2014-06-04T15:20:54Z</time>
      </trkpt>
      <trkpt lat="59.9168555" lon="17.7073338">
        <ele>59.7391</ele>
        <time>2014-06-04T15:20:55Z</time>
      </trkpt>
      <trkpt lat="59.9168697" lon="17.7072898">
        <ele>60.2197</ele>
        <time>2014-06-04T15:20:56Z</time>
      </trkpt>
      <trkpt lat="59.9168926" lon="17.7072418">
        <ele>61.181</ele>
        <time>2014-06-04T15:20:57Z</time>
      </trkpt>
      <trkpt lat="59.9169132" lon="17.7072036">
        <ele>61.6617</ele>
        <time>2014-06-04T15:20:58Z</time>
      </trkpt>
      <trkpt lat="59.916937" lon="17.7071749">
        <ele>62.1423</ele>
        <time>2014-06-04T15:20:59Z</time>
      </trkpt>
      <trkpt lat="59.9169583" lon="17.7071393">
        <ele>62.1423</ele>
        <time>2014-06-04T15:21:00Z</time>
      </trkpt>
      <trkpt lat="59.9169814" lon="17.7071012">
        <ele>62.6229</ele>
        <time>2014-06-04T15:21:01Z</time>
      </trkpt>
      <trkpt lat="59.9170032" lon="17.7070823">
        <ele>61.6617</ele>
        <time>2014-06-04T15:21:02Z</time>
      </trkpt>
      <trkpt lat="59.9170226" lon="17.7070652">
        <ele>60.7003</ele>
        <time>2014-06-04T15:21:03Z</time>
      </trkpt>
      <trkpt lat="59.9170414" lon="17.7070532">
        <ele>59.7391</ele>
        <time>2014-06-04T15:21:04Z</time>
      </trkpt>
      <trkpt lat="59.9170607" lon="17.7070455">
        <ele>59.2584</ele>
        <time>2014-06-04T15:21:05Z</time>
      </trkpt>
      <trkpt lat="59.9170765" lon="17.7070352">
        <ele>58.7777</ele>
        <time>2014-06-04T15:21:06Z</time>
      </trkpt>
      <trkpt lat="59.9170875" lon="17.7070232">
        <ele>57.3358</ele>
        <time>2014-06-04T15:21:07Z</time>
      </trkpt>
      <trkpt lat="59.9171005" lon="17.7069985">
        <ele>56.8551</ele>
        <time>2014-06-04T15:21:08Z</time>
      </trkpt>
      <trkpt lat="59.9171146" lon="17.7069754">
        <ele>56.3745</ele>
        <time>2014-06-04T15:21:09Z</time>
      </trkpt>
      <trkpt lat="59.9171235" lon="17.7069495">
        <ele>55.8938</ele>
        <time>2014-06-04T15:21:10Z</time>
      </trkpt>
      <trkpt lat="59.9171223" lon="17.7069114">
        <ele>55.4131</ele>
        <time>2014-06-04T15:21:11Z</time>
      </trkpt>
      <trkpt lat="59.9171186" lon="17.7068622">
        <ele>54.9324</ele>
        <time>2014-06-04T15:21:12Z</time>
      </trkpt>
      <trkpt lat="59.9171287" lon="17.7068223">
        <ele>54.9324</ele>
        <time>2014-06-04T15:21:13Z</time>
      </trkpt>
      <trkpt lat="59.9171368" lon="17.7067908">
        <ele>54.9324</ele>
        <time>2014-06-04T15:21:14Z</time>
      </trkpt>
      <trkpt lat="59.9171349" lon="17.7067583">
        <ele>54.4518</ele>
        <time>2014-06-04T15:21:15Z</time>
      </trkpt>
      <trkpt lat="59.9171349" lon="17.7067268">
        <ele>53.4905</ele>
        <time>2014-06-04T15:21:16Z</time>
      </trkpt>
      <trkpt lat="59.9171374" lon="17.7066884">
        <ele>53.4905</ele>
        <time>2014-06-04T15:21:17Z</time>
      </trkpt>
      <trkpt lat="59.9171328" lon="17.7066498">
        <ele>53.0098</ele>
        <time>2014-06-04T15:21:18Z</time>
      </trkpt>
      <trkpt lat="59.9171171" lon="17.706613">
        <ele>53.0098</ele>
        <time>2014-06-04T15:21:19Z</time>
      </trkpt>
      <trkpt lat="59.917094" lon="17.7065726">
        <ele>53.0098</ele>
        <time>2014-06-04T15:21:20Z</time>
      </trkpt>
      <trkpt lat="59.9170706" lon="17.7065235">
        <ele>53.4905</ele>
        <time>2014-06-04T15:21:21Z</time>
      </trkpt>
      <trkpt lat="59.9170387" lon="17.7064743">
        <ele>53.4905</ele>
        <time>2014-06-04T15:21:22Z</time>
      </trkpt>
      <trkpt lat="59.9170259" lon="17.7064416">
        <ele>53.4905</ele>
        <time>2014-06-04T15:21:23Z</time>
      </trkpt>
      <trkpt lat="59.9170212" lon="17.7064041">
        <ele>53.4905</ele>
        <time>2014-06-04T15:21:24Z</time>
      </trkpt>
      <trkpt lat="59.9170127" lon="17.7063538">
        <ele>53.4905</ele>
        <time>2014-06-04T15:21:25Z</time>
      </trkpt>
      <trkpt lat="59.9169981" lon="17.7062933">
        <ele>54.4518</ele>
        <time>2014-06-04T15:21:26Z</time>
      </trkpt>
      <trkpt lat="59.9169922" lon="17.7062415">
        <ele>54.9324</ele>
        <time>2014-06-04T15:21:27Z</time>
      </trkpt>
      <trkpt lat="59.9169903" lon="17.7061922">
        <ele>54.9324</ele>
        <time>2014-06-04T15:21:28Z</time>
      </trkpt>
      <trkpt lat="59.9169816" lon="17.7061462">
        <ele>55.4131</ele>
        <time>2014-06-04T15:21:29Z</time>
      </trkpt>
      <trkpt lat="59.9169523" lon="17.7061064">
        <ele>55.4131</ele>
        <time>2014-06-04T15:21:30Z</time>
      </trkpt>
      <trkpt lat="59.916936" lon="17.7060779">
        <ele>55.4131</ele>
        <time>2014-06-04T15:21:31Z</time>
      </trkpt>
      <trkpt lat="59.9169142" lon="17.7060494">
        <ele>55.4131</ele>
        <time>2014-06-04T15:21:32Z</time>
      </trkpt>
      <trkpt lat="59.9168998" lon="17.7060241">
        <ele>55.4131</ele>
        <time>2014-06-04T15:21:33Z</time>
      </trkpt>
      <trkpt lat="59.9168929" lon="17.7060055">
        <ele>55.4131</ele>
        <time>2014-06-04T15:21:34Z</time>
      </trkpt>
      <trkpt lat="59.9168826" lon="17.7059846">
        <ele>55.4131</ele>
        <time>2014-06-04T15:21:35Z</time>
      </trkpt>
      <trkpt lat="59.9168597" lon="17.705955">
        <ele>55.4131</ele>
        <time>2014-06-04T15:21:36Z</time>
      </trkpt>
      <trkpt lat="59.9168444" lon="17.7059235">
        <ele>55.4131</ele>
        <time>2014-06-04T15:21:37Z</time>
      </trkpt>
      <trkpt lat="59.9168349" lon="17.7058889">
        <ele>55.4131</ele>
        <time>2014-06-04T15:21:38Z</time>
      </trkpt>
      <trkpt lat="59.9168312" lon="17.7058554">
        <ele>54.9324</ele>
        <time>2014-06-04T15:21:39Z</time>
      </trkpt>
      <trkpt lat="59.9168392" lon="17.7058278">
        <ele>54.9324</ele>
        <time>2014-06-04T15:21:40Z</time>
      </trkpt>
      <trkpt lat="59.9168496" lon="17.7058017">
        <ele>54.9324</ele>
        <time>2014-06-04T15:21:41Z</time>
      </trkpt>
      <trkpt lat="59.9168438" lon="17.7057518">
        <ele>54.9324</ele>
        <time>2014-06-04T15:21:42Z</time>
      </trkpt>
      <trkpt lat="59.9168387" lon="17.7056957">
        <ele>55.4131</ele>
        <time>2014-06-04T15:21:43Z</time>
      </trkpt>
      <trkpt lat="59.9168318" lon="17.705634">
        <ele>55.8938</ele>
        <time>2014-06-04T15:21:44Z</time>
      </trkpt>
      <trkpt lat="59.9168311" lon="17.7055811">
        <ele>56.3745</ele>
        <time>2014-06-04T15:21:45Z</time>
      </trkpt>
      <trkpt lat="59.9168344" lon="17.7055314">
        <ele>56.8551</ele>
        <time>2014-06-04T15:21:46Z</time>
      </trkpt>
      <trkpt lat="59.9168365" lon="17.7054847">
        <ele>56.8551</ele>
        <time>2014-06-04T15:21:47Z</time>
      </trkpt>
      <trkpt lat="59.9168427" lon="17.7054388">
        <ele>56.3745</ele>
        <time>2014-06-04T15:21:48Z</time>
      </trkpt>
      <trkpt lat="59.9168433" lon="17.70539">
        <ele>56.8551</ele>
        <time>2014-06-04T15:21:49Z</time>
      </trkpt>
      <trkpt lat="59.9168427" lon="17.7053525">
        <ele>56.8551</ele>
        <time>2014-06-04T15:21:50Z</time>
      </trkpt>
      <trkpt lat="59.9168322" lon="17.7053174">
        <ele>56.3745</ele>
        <time>2014-06-04T15:21:51Z</time>
      </trkpt>
      <trkpt lat="59.9168183" lon="17.7052816">
        <ele>56.3745</ele>
        <time>2014-06-04T15:21:52Z</time>
      </trkpt>
      <trkpt lat="59.9168069" lon="17.7052439">
        <ele>56.8551</ele>
        <time>2014-06-04T15:21:53Z</time>
      </trkpt>
      <trkpt lat="59.9167951" lon="17.7052102">
        <ele>57.3358</ele>
        <time>2014-06-04T15:21:54Z</time>
      </trkpt>
      <trkpt lat="59.9167785" lon="17.7051853">
        <ele>57.3358</ele>
        <time>2014-06-04T15:21:55Z</time>
      </trkpt>
      <trkpt lat="59.9167562" lon="17.7051707">
        <ele>57.3358</ele>
        <time>2014-06-04T15:21:56Z</time>
      </trkpt>
      <trkpt lat="59.9167308" lon="17.7051553">
        <ele>57.3358</ele>
        <time>2014-06-04T15:21:57Z</time>
      </trkpt>
      <trkpt lat="59.916709" lon="17.7051413">
        <ele>56.8551</ele>
        <time>2014-06-04T15:21:58Z</time>
      </trkpt>
      <trkpt lat="59.9166887" lon="17.7051258">
        <ele>57.3358</ele>
        <time>2014-06-04T15:21:59Z</time>
      </trkpt>
      <trkpt lat="59.9166682" lon="17.7050998">
        <ele>57.3358</ele>
        <time>2014-06-04T15:22:00Z</time>
      </trkpt>
      <trkpt lat="59.9166498" lon="17.7050706">
        <ele>57.3358</ele>
        <time>2014-06-04T15:22:01Z</time>
      </trkpt>
      <trkpt lat="59.9166318" lon="17.7050476">
        <ele>57.3358</ele>
        <time>2014-06-04T15:22:02Z</time>
      </trkpt>
      <trkpt lat="59.9166137" lon="17.7050206">
        <ele>57.8165</ele>
        <time>2014-06-04T15:22:03Z</time>
      </trkpt>
      <trkpt lat="59.916593" lon="17.704994">
        <ele>57.8165</ele>
        <time>2014-06-04T15:22:04Z</time>
      </trkpt>
      <trkpt lat="59.9165701" lon="17.7049796">
        <ele>57.8165</ele>
        <time>2014-06-04T15:22:05Z</time>
      </trkpt>
      <trkpt lat="59.9165469" lon="17.7049709">
        <ele>57.8165</ele>
        <time>2014-06-04T15:22:06Z</time>
      </trkpt>
      <trkpt lat="59.9165225" lon="17.704959">
        <ele>57.8165</ele>
        <time>2014-06-04T15:22:07Z</time>
      </trkpt>
      <trkpt lat="59.9164997" lon="17.7049495">
        <ele>57.8165</ele>
        <time>2014-06-04T15:22:08Z</time>
      </trkpt>
      <trkpt lat="59.9164786" lon="17.7049456">
        <ele>57.8165</ele>
        <time>2014-06-04T15:22:09Z</time>
      </trkpt>
      <trkpt lat="59.9164521" lon="17.7049446">
        <ele>57.8165</ele>
        <time>2014-06-04T15:22:10Z</time>
      </trkpt>
      <trkpt lat="59.9164246" lon="17.7049384">
        <ele>57.8165</ele>
        <time>2014-06-04T15:22:11Z</time>
      </trkpt>
      <trkpt lat="59.9163986" lon="17.7049269">
        <ele>57.3358</ele>
        <time>2014-06-04T15:22:12Z</time>
      </trkpt>
      <trkpt lat="59.9163779" lon="17.7049033">
        <ele>56.8551</ele>
        <time>2014-06-04T15:22:13Z</time>
      </trkpt>
      <trkpt lat="59.9163629" lon="17.704879">
        <ele>56.8551</ele>
        <time>2014-06-04T15:22:14Z</time>
      </trkpt>
      <trkpt lat="59.9163444" lon="17.7048579">
        <ele>56.3745</ele>
        <time>2014-06-04T15:22:15Z</time>
      </trkpt>
      <trkpt lat="59.9163243" lon="17.7048339">
        <ele>55.4131</ele>
        <time>2014-06-04T15:22:16Z</time>
      </trkpt>
      <trkpt lat="59.9163055" lon="17.7047923">
        <ele>54.4518</ele>
        <time>2014-06-04T15:22:17Z</time>
      </trkpt>
      <trkpt lat="59.9162843" lon="17.7047322">
        <ele>53.4905</ele>
        <time>2014-06-04T15:22:18Z</time>
      </trkpt>
      <trkpt lat="59.916264" lon="17.704683">
        <ele>54.4518</ele>
        <time>2014-06-04T15:22:19Z</time>
      </trkpt>
      <trkpt lat="59.9162475" lon="17.7046319">
        <ele>55.4131</ele>
        <time>2014-06-04T15:22:20Z</time>
      </trkpt>
      <trkpt lat="59.9162417" lon="17.7045828">
        <ele>54.9324</ele>
        <time>2014-06-04T15:22:21Z</time>
      </trkpt>
      <trkpt lat="59.9162406" lon="17.7045449">
        <ele>54.4518</ele>
        <time>2014-06-04T15:22:22Z</time>
      </trkpt>
      <trkpt lat="59.9162383" lon="17.7045094">
        <ele>53.4905</ele>
        <time>2014-06-04T15:22:23Z</time>
      </trkpt>
      <trkpt lat="59.9162325" lon="17.7044658">
        <ele>53.0098</ele>
        <time>2014-06-04T15:22:24Z</time>
      </trkpt>
      <trkpt lat="59.9162297" lon="17.7044315">
        <ele>51.5679</ele>
        <time>2014-06-04T15:22:25Z</time>
      </trkpt>
      <trkpt lat="59.9162219" lon="17.7044003">
        <ele>51.0872</ele>
        <time>2014-06-04T15:22:26Z</time>
      </trkpt>
      <trkpt lat="59.9162117" lon="17.7043636">
        <ele>50.6066</ele>
        <time>2014-06-04T15:22:27Z</time>
      </trkpt>
      <trkpt lat="59.9162051" lon="17.7043358">
        <ele>50.126</ele>
        <time>2014-06-04T15:22:28Z</time>
      </trkpt>
      <trkpt lat="59.9161933" lon="17.7043025">
        <ele>50.126</ele>
        <time>2014-06-04T15:22:29Z</time>
      </trkpt>
      <trkpt lat="59.9161788" lon="17.7042658">
        <ele>50.126</ele>
        <time>2014-06-04T15:22:30Z</time>
      </trkpt>
      <trkpt lat="59.9161629" lon="17.7042394">
        <ele>49.6453</ele>
        <time>2014-06-04T15:22:31Z</time>
      </trkpt>
      <trkpt lat="59.9161477" lon="17.7042269">
        <ele>49.6453</ele>
        <time>2014-06-04T15:22:32Z</time>
      </trkpt>
      <trkpt lat="59.9161284" lon="17.7042114">
        <ele>49.6453</ele>
        <time>2014-06-04T15:22:33Z</time>
      </trkpt>
      <trkpt lat="59.9161092" lon="17.704189">
        <ele>49.6453</ele>
        <time>2014-06-04T15:22:34Z</time>
      </trkpt>
      <trkpt lat="59.9160909" lon="17.7041712">
        <ele>49.6453</ele>
        <time>2014-06-04T15:22:35Z</time>
      </trkpt>
      <trkpt lat="59.9160677" lon="17.7041587">
        <ele>49.6453</ele>
        <time>2014-06-04T15:22:36Z</time>
      </trkpt>
      <trkpt lat="59.9160445" lon="17.7041441">
        <ele>50.126</ele>
        <time>2014-06-04T15:22:37Z</time>
      </trkpt>
      <trkpt lat="59.9160254" lon="17.7041348">
        <ele>50.126</ele>
        <time>2014-06-04T15:22:38Z</time>
      </trkpt>
      <trkpt lat="59.9160046" lon="17.7041264">
        <ele>50.6066</ele>
        <time>2014-06-04T15:22:39Z</time>
      </trkpt>
      <trkpt lat="59.9159853" lon="17.7041137">
        <ele>50.6066</ele>
        <time>2014-06-04T15:22:40Z</time>
      </trkpt>
      <trkpt lat="59.9159704" lon="17.7041058">
        <ele>51.0872</ele>
        <time>2014-06-04T15:22:41Z</time>
      </trkpt>
      <trkpt lat="59.9159492" lon="17.7041054">
        <ele>51.5679</ele>
        <time>2014-06-04T15:22:42Z</time>
      </trkpt>
      <trkpt lat="59.9159233" lon="17.704114">
        <ele>51.5679</ele>
        <time>2014-06-04T15:22:43Z</time>
      </trkpt>
      <trkpt lat="59.9158984" lon="17.7041196">
        <ele>51.5679</ele>
        <time>2014-06-04T15:22:44Z</time>
      </trkpt>
      <trkpt lat="59.9158756" lon="17.7041253">
        <ele>51.5679</ele>
        <time>2014-06-04T15:22:45Z</time>
      </trkpt>
      <trkpt lat="59.9158518" lon="17.7041369">
        <ele>51.0872</ele>
        <time>2014-06-04T15:22:46Z</time>
      </trkpt>
      <trkpt lat="59.9158284" lon="17.7041486">
        <ele>51.5679</ele>
        <time>2014-06-04T15:22:47Z</time>
      </trkpt>
      <trkpt lat="59.9158051" lon="17.7041705">
        <ele>52.5292</ele>
        <time>2014-06-04T15:22:48Z</time>
      </trkpt>
      <trkpt lat="59.9157835" lon="17.7041916">
        <ele>53.0098</ele>
        <time>2014-06-04T15:22:49Z</time>
      </trkpt>
      <trkpt lat="59.9157614" lon="17.7042105">
        <ele>53.0098</ele>
        <time>2014-06-04T15:22:50Z</time>
      </trkpt>
      <trkpt lat="59.9157387" lon="17.7042358">
        <ele>53.0098</ele>
        <time>2014-06-04T15:22:51Z</time>
      </trkpt>
      <trkpt lat="59.9157177" lon="17.7042589">
        <ele>52.5292</ele>
        <time>2014-06-04T15:22:52Z</time>
      </trkpt>
      <trkpt lat="59.9156991" lon="17.7042841">
        <ele>52.5292</ele>
        <time>2014-06-04T15:22:53Z</time>
      </trkpt>
      <trkpt lat="59.9156869" lon="17.7043079">
        <ele>52.0486</ele>
        <time>2014-06-04T15:22:54Z</time>
      </trkpt>
      <trkpt lat="59.9156746" lon="17.7043393">
        <ele>52.0486</ele>
        <time>2014-06-04T15:22:55Z</time>
      </trkpt>
      <trkpt lat="59.9156648" lon="17.7043846">
        <ele>52.5292</ele>
        <time>2014-06-04T15:22:56Z</time>
      </trkpt>
      <trkpt lat="59.9156544" lon="17.7044317">
        <ele>53.0098</ele>
        <time>2014-06-04T15:22:57Z</time>
      </trkpt>
      <trkpt lat="59.9156395" lon="17.7044849">
        <ele>53.4905</ele>
        <time>2014-06-04T15:22:58Z</time>
      </trkpt>
      <trkpt lat="59.9156222" lon="17.7045342">
        <ele>53.0098</ele>
        <time>2014-06-04T15:22:59Z</time>
      </trkpt>
      <trkpt lat="59.9156126" lon="17.7045703">
        <ele>53.0098</ele>
        <time>2014-06-04T15:23:00Z</time>
      </trkpt>
      <trkpt lat="59.9156042" lon="17.7046072">
        <ele>52.5292</ele>
        <time>2014-06-04T15:23:01Z</time>
      </trkpt>
      <trkpt lat="59.9155923" lon="17.7046445">
        <ele>52.0486</ele>
        <time>2014-06-04T15:23:02Z</time>
      </trkpt>
      <trkpt lat="59.9155794" lon="17.7046821">
        <ele>52.0486</ele>
        <time>2014-06-04T15:23:03Z</time>
      </trkpt>
      <trkpt lat="59.9155611" lon="17.7047138">
        <ele>51.5679</ele>
        <time>2014-06-04T15:23:04Z</time>
      </trkpt>
      <trkpt lat="59.9155397" lon="17.7047528">
        <ele>52.0486</ele>
        <time>2014-06-04T15:23:05Z</time>
      </trkpt>
      <trkpt lat="59.9155186" lon="17.7047764">
        <ele>51.0872</ele>
        <time>2014-06-04T15:23:06Z</time>
      </trkpt>
      <trkpt lat="59.9155007" lon="17.7048134">
        <ele>51.0872</ele>
        <time>2014-06-04T15:23:07Z</time>
      </trkpt>
      <trkpt lat="59.915485" lon="17.7048513">
        <ele>50.6066</ele>
        <time>2014-06-04T15:23:08Z</time>
      </trkpt>
      <trkpt lat="59.9154711" lon="17.7048963">
        <ele>50.6066</ele>
        <time>2014-06-04T15:23:09Z</time>
      </trkpt>
      <trkpt lat="59.9154586" lon="17.7049356">
        <ele>50.126</ele>
        <time>2014-06-04T15:23:10Z</time>
      </trkpt>
      <trkpt lat="59.9154442" lon="17.7049745">
        <ele>50.126</ele>
        <time>2014-06-04T15:23:11Z</time>
      </trkpt>
      <trkpt lat="59.9154313" lon="17.7050169">
        <ele>50.126</ele>
        <time>2014-06-04T15:23:12Z</time>
      </trkpt>
      <trkpt lat="59.9154193" lon="17.7050569">
        <ele>49.6453</ele>
        <time>2014-06-04T15:23:13Z</time>
      </trkpt>
      <trkpt lat="59.9154072" lon="17.7051023">
        <ele>50.126</ele>
        <time>2014-06-04T15:23:14Z</time>
      </trkpt>
      <trkpt lat="59.9153923" lon="17.7051499">
        <ele>50.126</ele>
        <time>2014-06-04T15:23:15Z</time>
      </trkpt>
      <trkpt lat="59.9153776" lon="17.7051895">
        <ele>49.6453</ele>
        <time>2014-06-04T15:23:16Z</time>
      </trkpt>
      <trkpt lat="59.9153669" lon="17.7052366">
        <ele>50.126</ele>
        <time>2014-06-04T15:23:17Z</time>
      </trkpt>
      <trkpt lat="59.9153536" lon="17.7052896">
        <ele>50.6066</ele>
        <time>2014-06-04T15:23:18Z</time>
      </trkpt>
      <trkpt lat="59.9153387" lon="17.7053283">
        <ele>50.6066</ele>
        <time>2014-06-04T15:23:19Z</time>
      </trkpt>
      <trkpt lat="59.915326" lon="17.705366">
        <ele>50.6066</ele>
        <time>2014-06-04T15:23:20Z</time>
      </trkpt>
      <trkpt lat="59.9153094" lon="17.7054034">
        <ele>50.126</ele>
        <time>2014-06-04T15:23:21Z</time>
      </trkpt>
      <trkpt lat="59.9152955" lon="17.7054416">
        <ele>50.126</ele>
        <time>2014-06-04T15:23:22Z</time>
      </trkpt>
      <trkpt lat="59.9152875" lon="17.7054817">
        <ele>50.126</ele>
        <time>2014-06-04T15:23:23Z</time>
      </trkpt>
      <trkpt lat="59.9152784" lon="17.7055184">
        <ele>49.6453</ele>
        <time>2014-06-04T15:23:24Z</time>
      </trkpt>
      <trkpt lat="59.9152655" lon="17.7055602">
        <ele>50.126</ele>
        <time>2014-06-04T15:23:25Z</time>
      </trkpt>
      <trkpt lat="59.9152524" lon="17.7056063">
        <ele>50.126</ele>
        <time>2014-06-04T15:23:26Z</time>
      </trkpt>
      <trkpt lat="59.9152414" lon="17.7056444">
        <ele>50.126</ele>
        <time>2014-06-04T15:23:27Z</time>
      </trkpt>
      <trkpt lat="59.9152305" lon="17.7056798">
        <ele>50.126</ele>
        <time>2014-06-04T15:23:28Z</time>
      </trkpt>
      <trkpt lat="59.9152162" lon="17.7057163">
        <ele>49.6453</ele>
        <time>2014-06-04T15:23:29Z</time>
      </trkpt>
      <trkpt lat="59.9152021" lon="17.705761">
        <ele>50.126</ele>
        <time>2014-06-04T15:23:30Z</time>
      </trkpt>
      <trkpt lat="59.9151876" lon="17.7057998">
        <ele>50.126</ele>
        <time>2014-06-04T15:23:31Z</time>
      </trkpt>
      <trkpt lat="59.915173" lon="17.7058259">
        <ele>50.126</ele>
        <time>2014-06-04T15:23:32Z</time>
      </trkpt>
      <trkpt lat="59.915155" lon="17.705854">
        <ele>50.126</ele>
        <time>2014-06-04T15:23:33Z</time>
      </trkpt>
      <trkpt lat="59.9151317" lon="17.7058866">
        <ele>50.126</ele>
        <time>2014-06-04T15:23:34Z</time>
      </trkpt>
      <trkpt lat="59.9151093" lon="17.7059135">
        <ele>49.6453</ele>
        <time>2014-06-04T15:23:35Z</time>
      </trkpt>
      <trkpt lat="59.9150906" lon="17.7059411">
        <ele>50.126</ele>
        <time>2014-06-04T15:23:36Z</time>
      </trkpt>
      <trkpt lat="59.915072" lon="17.7059665">
        <ele>50.126</ele>
        <time>2014-06-04T15:23:37Z</time>
      </trkpt>
      <trkpt lat="59.9150515" lon="17.7059872">
        <ele>50.126</ele>
        <time>2014-06-04T15:23:38Z</time>
      </trkpt>
      <trkpt lat="59.9150326" lon="17.7059913">
        <ele>49.6453</ele>
        <time>2014-06-04T15:23:39Z</time>
      </trkpt>
      <trkpt lat="59.9150108" lon="17.7059851">
        <ele>49.1646</ele>
        <time>2014-06-04T15:23:40Z</time>
      </trkpt>
      <trkpt lat="59.9149891" lon="17.7059823">
        <ele>48.684</ele>
        <time>2014-06-04T15:23:41Z</time>
      </trkpt>
      <trkpt lat="59.9149718" lon="17.7059762">
        <ele>48.2034</ele>
        <time>2014-06-04T15:23:42Z</time>
      </trkpt>
      <trkpt lat="59.914953" lon="17.7059673">
        <ele>47.7225</ele>
        <time>2014-06-04T15:23:43Z</time>
      </trkpt>
      <trkpt lat="59.9149304" lon="17.7059567">
        <ele>47.7225</ele>
        <time>2014-06-04T15:23:44Z</time>
      </trkpt>
      <trkpt lat="59.914907" lon="17.7059406">
        <ele>47.2418</ele>
        <time>2014-06-04T15:23:45Z</time>
      </trkpt>
      <trkpt lat="59.9148862" lon="17.7059318">
        <ele>46.7612</ele>
        <time>2014-06-04T15:23:46Z</time>
      </trkpt>
      <trkpt lat="59.9148632" lon="17.7059191">
        <ele>46.7612</ele>
        <time>2014-06-04T15:23:47Z</time>
      </trkpt>
      <trkpt lat="59.9148394" lon="17.7059064">
        <ele>46.2806</ele>
        <time>2014-06-04T15:23:48Z</time>
      </trkpt>
      <trkpt lat="59.9148195" lon="17.7058927">
        <ele>46.2806</ele>
        <time>2014-06-04T15:23:49Z</time>
      </trkpt>
      <trkpt lat="59.9147997" lon="17.705876">
        <ele>46.2806</ele>
        <time>2014-06-04T15:23:50Z</time>
      </trkpt>
      <trkpt lat="59.9147779" lon="17.7058624">
        <ele>45.7999</ele>
        <time>2014-06-04T15:23:51Z</time>
      </trkpt>
      <trkpt lat="59.9147572" lon="17.7058479">
        <ele>45.3192</ele>
        <time>2014-06-04T15:23:52Z</time>
      </trkpt>
      <trkpt lat="59.9147396" lon="17.7058386">
        <ele>44.8386</ele>
        <time>2014-06-04T15:23:53Z</time>
      </trkpt>
      <trkpt lat="59.9147225" lon="17.7058371">
        <ele>44.358</ele>
        <time>2014-06-04T15:23:54Z</time>
      </trkpt>
      <trkpt lat="59.9147039" lon="17.7058291">
        <ele>43.8773</ele>
        <time>2014-06-04T15:23:55Z</time>
      </trkpt>
      <trkpt lat="59.914689" lon="17.7058204">
        <ele>43.8773</ele>
        <time>2014-06-04T15:23:56Z</time>
      </trkpt>
      <trkpt lat="59.9146723" lon="17.7058048">
        <ele>43.3966</ele>
        <time>2014-06-04T15:23:57Z</time>
      </trkpt>
      <trkpt lat="59.9146561" lon="17.7057929">
        <ele>43.3966</ele>
        <time>2014-06-04T15:23:58Z</time>
      </trkpt>
      <trkpt lat="59.9146394" lon="17.7057793">
        <ele>42.916</ele>
        <time>2014-06-04T15:23:59Z</time>
      </trkpt>
      <trkpt lat="59.914625" lon="17.7057767">
        <ele>42.4354</ele>
        <time>2014-06-04T15:24:00Z</time>
      </trkpt>
      <trkpt lat="59.9146117" lon="17.7057811">
        <ele>42.4354</ele>
        <time>2014-06-04T15:24:01Z</time>
      </trkpt>
      <trkpt lat="59.9145951" lon="17.7057905">
        <ele>42.4354</ele>
        <time>2014-06-04T15:24:02Z</time>
      </trkpt>
      <trkpt lat="59.914575" lon="17.705792">
        <ele>42.916</ele>
        <time>2014-06-04T15:24:03Z</time>
      </trkpt>
      <trkpt lat="59.9145582" lon="17.705785">
        <ele>43.3966</ele>
        <time>2014-06-04T15:24:04Z</time>
      </trkpt>
      <trkpt lat="59.91454" lon="17.7057748">
        <ele>43.3966</ele>
        <time>2014-06-04T15:24:05Z</time>
      </trkpt>
      <trkpt lat="59.9145183" lon="17.7057601">
        <ele>43.3966</ele>
        <time>2014-06-04T15:24:06Z</time>
      </trkpt>
      <trkpt lat="59.9144942" lon="17.7057411">
        <ele>43.3966</ele>
        <time>2014-06-04T15:24:07Z</time>
      </trkpt>
      <trkpt lat="59.9144722" lon="17.7057256">
        <ele>43.3966</ele>
        <time>2014-06-04T15:24:08Z</time>
      </trkpt>
      <trkpt lat="59.9144521" lon="17.705706">
        <ele>42.916</ele>
        <time>2014-06-04T15:24:09Z</time>
      </trkpt>
      <trkpt lat="59.91443" lon="17.7056873">
        <ele>42.4354</ele>
        <time>2014-06-04T15:24:10Z</time>
      </trkpt>
      <trkpt lat="59.914408" lon="17.7056728">
        <ele>42.4354</ele>
        <time>2014-06-04T15:24:11Z</time>
      </trkpt>
      <trkpt lat="59.9143877" lon="17.7056515">
        <ele>42.916</ele>
        <time>2014-06-04T15:24:12Z</time>
      </trkpt>
      <trkpt lat="59.9143678" lon="17.705635">
        <ele>42.916</ele>
        <time>2014-06-04T15:24:13Z</time>
      </trkpt>
      <trkpt lat="59.9143466" lon="17.7056225">
        <ele>43.3966</ele>
        <time>2014-06-04T15:24:14Z</time>
      </trkpt>
      <trkpt lat="59.9143264" lon="17.7056153">
        <ele>43.8773</ele>
        <time>2014-06-04T15:24:15Z</time>
      </trkpt>
      <trkpt lat="59.9143023" lon="17.7056019">
        <ele>43.3966</ele>
        <time>2014-06-04T15:24:16Z</time>
      </trkpt>
      <trkpt lat="59.9142768" lon="17.7055887">
        <ele>43.3966</ele>
        <time>2014-06-04T15:24:17Z</time>
      </trkpt>
      <trkpt lat="59.9142537" lon="17.705579">
        <ele>43.8773</ele>
        <time>2014-06-04T15:24:18Z</time>
      </trkpt>
      <trkpt lat="59.9142319" lon="17.7055703">
        <ele>43.8773</ele>
        <time>2014-06-04T15:24:19Z</time>
      </trkpt>
      <trkpt lat="59.9142097" lon="17.7055541">
        <ele>44.358</ele>
        <time>2014-06-04T15:24:20Z</time>
      </trkpt>
      <trkpt lat="59.9141843" lon="17.7055376">
        <ele>43.8773</ele>
        <time>2014-06-04T15:24:21Z</time>
      </trkpt>
      <trkpt lat="59.9141593" lon="17.7055234">
        <ele>43.8773</ele>
        <time>2014-06-04T15:24:22Z</time>
      </trkpt>
      <trkpt lat="59.9141395" lon="17.7054936">
        <ele>43.8773</ele>
        <time>2014-06-04T15:24:23Z</time>
      </trkpt>
      <trkpt lat="59.9141238" lon="17.7054657">
        <ele>43.8773</ele>
        <time>2014-06-04T15:24:24Z</time>
      </trkpt>
      <trkpt lat="59.914105" lon="17.7054402">
        <ele>43.8773</ele>
        <time>2014-06-04T15:24:25Z</time>
      </trkpt>
      <trkpt lat="59.9140864" lon="17.7054042">
        <ele>43.8773</ele>
        <time>2014-06-04T15:24:26Z</time>
      </trkpt>
      <trkpt lat="59.9140699" lon="17.7053656">
        <ele>43.3966</ele>
        <time>2014-06-04T15:24:27Z</time>
      </trkpt>
      <trkpt lat="59.9140533" lon="17.7053232">
        <ele>43.8773</ele>
        <time>2014-06-04T15:24:28Z</time>
      </trkpt>
      <trkpt lat="59.9140376" lon="17.7052915">
        <ele>43.8773</ele>
        <time>2014-06-04T15:24:29Z</time>
      </trkpt>
      <trkpt lat="59.913981" lon="17.7052594">
        <ele>43.8773</ele>
        <time>2014-06-04T15:24:30Z</time>
      </trkpt>
      <trkpt lat="59.9139522" lon="17.7052222">
        <ele>44.358</ele>
        <time>2014-06-04T15:24:31Z</time>
      </trkpt>
      <trkpt lat="59.9139409" lon="17.7051805">
        <ele>44.8386</ele>
        <time>2014-06-04T15:24:32Z</time>
      </trkpt>
      <trkpt lat="59.9139289" lon="17.7051459">
        <ele>44.8386</ele>
        <time>2014-06-04T15:24:33Z</time>
      </trkpt>
      <trkpt lat="59.9139168" lon="17.7051102">
        <ele>45.3192</ele>
        <time>2014-06-04T15:24:34Z</time>
      </trkpt>
      <trkpt lat="59.9139087" lon="17.7050766">
        <ele>45.3192</ele>
        <time>2014-06-04T15:24:35Z</time>
      </trkpt>
      <trkpt lat="59.913898" lon="17.705043">
        <ele>45.7999</ele>
        <time>2014-06-04T15:24:36Z</time>
      </trkpt>
      <trkpt lat="59.9138806" lon="17.7050062">
        <ele>45.7999</ele>
        <time>2014-06-04T15:24:37Z</time>
      </trkpt>
      <trkpt lat="59.9138611" lon="17.7049754">
        <ele>46.2806</ele>
        <time>2014-06-04T15:24:38Z</time>
      </trkpt>
      <trkpt lat="59.9138465" lon="17.7049552">
        <ele>46.7612</ele>
        <time>2014-06-04T15:24:39Z</time>
      </trkpt>
      <trkpt lat="59.9138275" lon="17.7049356">
        <ele>47.2418</ele>
        <time>2014-06-04T15:24:40Z</time>
      </trkpt>
      <trkpt lat="59.9138021" lon="17.7049076">
        <ele>47.2418</ele>
        <time>2014-06-04T15:24:41Z</time>
      </trkpt>
      <trkpt lat="59.9137782" lon="17.7048994">
        <ele>47.7225</ele>
        <time>2014-06-04T15:24:42Z</time>
      </trkpt>
      <trkpt lat="59.9137569" lon="17.7049036">
        <ele>47.7225</ele>
        <time>2014-06-04T15:24:43Z</time>
      </trkpt>
      <trkpt lat="59.913736" lon="17.7049239">
        <ele>47.7225</ele>
        <time>2014-06-04T15:24:44Z</time>
      </trkpt>
      <trkpt lat="59.9137176" lon="17.7049465">
        <ele>48.2034</ele>
        <time>2014-06-04T15:24:45Z</time>
      </trkpt>
      <trkpt lat="59.913699" lon="17.7049511">
        <ele>47.7225</ele>
        <time>2014-06-04T15:24:46Z</time>
      </trkpt>
      <trkpt lat="59.9136751" lon="17.704948">
        <ele>47.2418</ele>
        <time>2014-06-04T15:24:47Z</time>
      </trkpt>
      <trkpt lat="59.9136558" lon="17.7049534">
        <ele>46.7612</ele>
        <time>2014-06-04T15:24:48Z</time>
      </trkpt>
      <trkpt lat="59.913635" lon="17.7049629">
        <ele>46.7612</ele>
        <time>2014-06-04T15:24:49Z</time>
      </trkpt>
      <trkpt lat="59.9136166" lon="17.70498">
        <ele>46.2806</ele>
        <time>2014-06-04T15:24:50Z</time>
      </trkpt>
      <trkpt lat="59.9135936" lon="17.7049962">
        <ele>46.2806</ele>
        <time>2014-06-04T15:24:51Z</time>
      </trkpt>
      <trkpt lat="59.913574" lon="17.7050195">
        <ele>46.2806</ele>
        <time>2014-06-04T15:24:52Z</time>
      </trkpt>
      <trkpt lat="59.9135549" lon="17.7050311">
        <ele>46.7612</ele>
        <time>2014-06-04T15:24:53Z</time>
      </trkpt>
      <trkpt lat="59.913534" lon="17.7050287">
        <ele>46.2806</ele>
        <time>2014-06-04T15:24:54Z</time>
      </trkpt>
      <trkpt lat="59.9135122" lon="17.7050305">
        <ele>45.7999</ele>
        <time>2014-06-04T15:24:55Z</time>
      </trkpt>
      <trkpt lat="59.9135035" lon="17.7050639">
        <ele>45.3192</ele>
        <time>2014-06-04T15:24:56Z</time>
      </trkpt>
      <trkpt lat="59.9134955" lon="17.7051048">
        <ele>44.8386</ele>
        <time>2014-06-04T15:24:57Z</time>
      </trkpt>
      <trkpt lat="59.9134848" lon="17.7051572">
        <ele>44.8386</ele>
        <time>2014-06-04T15:24:58Z</time>
      </trkpt>
      <trkpt lat="59.9134682" lon="17.7051981">
        <ele>44.358</ele>
        <time>2014-06-04T15:24:59Z</time>
      </trkpt>
      <trkpt lat="59.9134545" lon="17.7052525">
        <ele>44.358</ele>
        <time>2014-06-04T15:25:00Z</time>
      </trkpt>
      <trkpt lat="59.9134353" lon="17.705347">
        <ele>45.7999</ele>
        <time>2014-06-04T15:25:02Z</time>
      </trkpt>
      <trkpt lat="59.9134245" lon="17.7053985">
        <ele>46.2806</ele>
        <time>2014-06-04T15:25:03Z</time>
      </trkpt>
      <trkpt lat="59.9134185" lon="17.7054426">
        <ele>46.7612</ele>
        <time>2014-06-04T15:25:04Z</time>
      </trkpt>
      <trkpt lat="59.9134145" lon="17.7054825">
        <ele>46.2806</ele>
        <time>2014-06-04T15:25:05Z</time>
      </trkpt>
      <trkpt lat="59.9134113" lon="17.7055277">
        <ele>46.2806</ele>
        <time>2014-06-04T15:25:06Z</time>
      </trkpt>
      <trkpt lat="59.9134047" lon="17.7055811">
        <ele>45.7999</ele>
        <time>2014-06-04T15:25:07Z</time>
      </trkpt>
      <trkpt lat="59.9133994" lon="17.7056221">
        <ele>45.7999</ele>
        <time>2014-06-04T15:25:08Z</time>
      </trkpt>
      <trkpt lat="59.9133962" lon="17.7056555">
        <ele>45.7999</ele>
        <time>2014-06-04T15:25:09Z</time>
      </trkpt>
      <trkpt lat="59.913387" lon="17.7056969">
        <ele>45.7999</ele>
        <time>2014-06-04T15:25:10Z</time>
      </trkpt>
      <trkpt lat="59.9133757" lon="17.7057428">
        <ele>45.7999</ele>
        <time>2014-06-04T15:25:11Z</time>
      </trkpt>
      <trkpt lat="59.9133684" lon="17.7057878">
        <ele>45.7999</ele>
        <time>2014-06-04T15:25:12Z</time>
      </trkpt>
      <trkpt lat="59.9133511" lon="17.7058414">
        <ele>45.7999</ele>
        <time>2014-06-04T15:25:13Z</time>
      </trkpt>
      <trkpt lat="59.9133321" lon="17.705901">
        <ele>46.7612</ele>
        <time>2014-06-04T15:25:14Z</time>
      </trkpt>
      <trkpt lat="59.9133114" lon="17.7059483">
        <ele>47.7225</ele>
        <time>2014-06-04T15:25:15Z</time>
      </trkpt>
      <trkpt lat="59.9132923" lon="17.7059984">
        <ele>48.684</ele>
        <time>2014-06-04T15:25:16Z</time>
      </trkpt>
      <trkpt lat="59.9132789" lon="17.7060298">
        <ele>48.2034</ele>
        <time>2014-06-04T15:25:17Z</time>
      </trkpt>
      <trkpt lat="59.9132695" lon="17.7060758">
        <ele>48.684</ele>
        <time>2014-06-04T15:25:18Z</time>
      </trkpt>
      <trkpt lat="59.9132627" lon="17.7061116">
        <ele>48.2034</ele>
        <time>2014-06-04T15:25:19Z</time>
      </trkpt>
      <trkpt lat="59.9132566" lon="17.7061468">
        <ele>48.2034</ele>
        <time>2014-06-04T15:25:20Z</time>
      </trkpt>
      <trkpt lat="59.9132496" lon="17.7061795">
        <ele>47.2418</ele>
        <time>2014-06-04T15:25:21Z</time>
      </trkpt>
      <trkpt lat="59.9132482" lon="17.706208">
        <ele>47.2418</ele>
        <time>2014-06-04T15:25:22Z</time>
      </trkpt>
      <trkpt lat="59.9132508" lon="17.7062498">
        <ele>48.2034</ele>
        <time>2014-06-04T15:25:23Z</time>
      </trkpt>
      <trkpt lat="59.9132479" lon="17.7062906">
        <ele>49.1646</ele>
        <time>2014-06-04T15:25:24Z</time>
      </trkpt>
      <trkpt lat="59.9132374" lon="17.7063291">
        <ele>49.1646</ele>
        <time>2014-06-04T15:25:25Z</time>
      </trkpt>
      <trkpt lat="59.913227" lon="17.7063615">
        <ele>49.1646</ele>
        <time>2014-06-04T15:25:26Z</time>
      </trkpt>
      <trkpt lat="59.913215" lon="17.7063795">
        <ele>48.684</ele>
        <time>2014-06-04T15:25:27Z</time>
      </trkpt>
      <trkpt lat="59.9132006" lon="17.706395">
        <ele>48.2034</ele>
        <time>2014-06-04T15:25:28Z</time>
      </trkpt>
      <trkpt lat="59.9131815" lon="17.7064266">
        <ele>49.1646</ele>
        <time>2014-06-04T15:25:29Z</time>
      </trkpt>
      <trkpt lat="59.9131619" lon="17.7064468">
        <ele>48.684</ele>
        <time>2014-06-04T15:25:30Z</time>
      </trkpt>
      <trkpt lat="59.9131396" lon="17.7064659">
        <ele>48.684</ele>
        <time>2014-06-04T15:25:31Z</time>
      </trkpt>
      <trkpt lat="59.9131167" lon="17.7064901">
        <ele>48.684</ele>
        <time>2014-06-04T15:25:32Z</time>
      </trkpt>
      <trkpt lat="59.9130942" lon="17.7065178">
        <ele>49.1646</ele>
        <time>2014-06-04T15:25:33Z</time>
      </trkpt>
      <trkpt lat="59.9130779" lon="17.7065415">
        <ele>49.6453</ele>
        <time>2014-06-04T15:25:34Z</time>
      </trkpt>
      <trkpt lat="59.9130644" lon="17.7065623">
        <ele>49.6453</ele>
        <time>2014-06-04T15:25:35Z</time>
      </trkpt>
      <trkpt lat="59.9130456" lon="17.7065815">
        <ele>49.6453</ele>
        <time>2014-06-04T15:25:36Z</time>
      </trkpt>
      <trkpt lat="59.91303" lon="17.7066058">
        <ele>50.126</ele>
        <time>2014-06-04T15:25:37Z</time>
      </trkpt>
      <trkpt lat="59.9130167" lon="17.7066185">
        <ele>49.6453</ele>
        <time>2014-06-04T15:25:38Z</time>
      </trkpt>
      <trkpt lat="59.9130043" lon="17.7066294">
        <ele>49.1646</ele>
        <time>2014-06-04T15:25:39Z</time>
      </trkpt>
      <trkpt lat="59.912986" lon="17.7066264">
        <ele>47.7225</ele>
        <time>2014-06-04T15:25:40Z</time>
      </trkpt>
      <trkpt lat="59.9129609" lon="17.7066325">
        <ele>47.2418</ele>
        <time>2014-06-04T15:25:41Z</time>
      </trkpt>
      <trkpt lat="59.9129308" lon="17.706642">
        <ele>45.7999</ele>
        <time>2014-06-04T15:25:42Z</time>
      </trkpt>
      <trkpt lat="59.9129016" lon="17.7066352">
        <ele>43.8773</ele>
        <time>2014-06-04T15:25:43Z</time>
      </trkpt>
      <trkpt lat="59.9128748" lon="17.7066253">
        <ele>42.4354</ele>
        <time>2014-06-04T15:25:44Z</time>
      </trkpt>
      <trkpt lat="59.9128473" lon="17.7066128">
        <ele>41.474</ele>
        <time>2014-06-04T15:25:45Z</time>
      </trkpt>
      <trkpt lat="59.9128256" lon="17.7066035">
        <ele>40.5128</ele>
        <time>2014-06-04T15:25:46Z</time>
      </trkpt>
      <trkpt lat="59.9128039" lon="17.7065943">
        <ele>39.0707</ele>
        <time>2014-06-04T15:25:47Z</time>
      </trkpt>
      <trkpt lat="59.9127805" lon="17.7066005">
        <ele>38.5901</ele>
        <time>2014-06-04T15:25:48Z</time>
      </trkpt>
      <trkpt lat="59.9127529" lon="17.7066079">
        <ele>38.1094</ele>
        <time>2014-06-04T15:25:49Z</time>
      </trkpt>
      <trkpt lat="59.9127272" lon="17.7066181">
        <ele>37.6287</ele>
        <time>2014-06-04T15:25:50Z</time>
      </trkpt>
      <trkpt lat="59.9127044" lon="17.7066228">
        <ele>36.6675</ele>
        <time>2014-06-04T15:25:51Z</time>
      </trkpt>
      <trkpt lat="59.9126815" lon="17.7066222">
        <ele>35.2255</ele>
        <time>2014-06-04T15:25:52Z</time>
      </trkpt>
      <trkpt lat="59.9126619" lon="17.7066367">
        <ele>35.2255</ele>
        <time>2014-06-04T15:25:53Z</time>
      </trkpt>
      <trkpt lat="59.912636" lon="17.7066585">
        <ele>35.7061</ele>
        <time>2014-06-04T15:25:54Z</time>
      </trkpt>
      <trkpt lat="59.9126039" lon="17.7066783">
        <ele>35.7061</ele>
        <time>2014-06-04T15:25:55Z</time>
      </trkpt>
      <trkpt lat="59.9125749" lon="17.7067016">
        <ele>36.6675</ele>
        <time>2014-06-04T15:25:56Z</time>
      </trkpt>
      <trkpt lat="59.9125537" lon="17.7067176">
        <ele>37.1481</ele>
        <time>2014-06-04T15:25:57Z</time>
      </trkpt>
      <trkpt lat="59.912535" lon="17.7067337">
        <ele>38.1094</ele>
        <time>2014-06-04T15:25:58Z</time>
      </trkpt>
      <trkpt lat="59.9125151" lon="17.7067527">
        <ele>38.1094</ele>
        <time>2014-06-04T15:25:59Z</time>
      </trkpt>
      <trkpt lat="59.9124961" lon="17.7067802">
        <ele>38.5901</ele>
        <time>2014-06-04T15:26:00Z</time>
      </trkpt>
      <trkpt lat="59.9124754" lon="17.7068218">
        <ele>40.5128</ele>
        <time>2014-06-04T15:26:01Z</time>
      </trkpt>
      <trkpt lat="59.9124566" lon="17.7068569">
        <ele>40.9934</ele>
        <time>2014-06-04T15:26:02Z</time>
      </trkpt>
      <trkpt lat="59.9124394" lon="17.7068946">
        <ele>41.9547</ele>
        <time>2014-06-04T15:26:03Z</time>
      </trkpt>
      <trkpt lat="59.9124275" lon="17.7069244">
        <ele>41.474</ele>
        <time>2014-06-04T15:26:04Z</time>
      </trkpt>
      <trkpt lat="59.9124126" lon="17.7069747">
        <ele>43.3966</ele>
        <time>2014-06-04T15:26:05Z</time>
      </trkpt>
      <trkpt lat="59.912404" lon="17.7070265">
        <ele>43.3966</ele>
        <time>2014-06-04T15:26:06Z</time>
      </trkpt>
      <trkpt lat="59.9123972" lon="17.7070726">
        <ele>43.8773</ele>
        <time>2014-06-04T15:26:07Z</time>
      </trkpt>
      <trkpt lat="59.9123977" lon="17.7071218">
        <ele>44.8386</ele>
        <time>2014-06-04T15:26:08Z</time>
      </trkpt>
      <trkpt lat="59.9124018" lon="17.7071802">
        <ele>45.7999</ele>
        <time>2014-06-04T15:26:09Z</time>
      </trkpt>
      <trkpt lat="59.912408" lon="17.7072372">
        <ele>46.2806</ele>
        <time>2014-06-04T15:26:10Z</time>
      </trkpt>
      <trkpt lat="59.9124135" lon="17.7072827">
        <ele>45.7999</ele>
        <time>2014-06-04T15:26:11Z</time>
      </trkpt>
      <trkpt lat="59.9124225" lon="17.7073167">
        <ele>45.7999</ele>
        <time>2014-06-04T15:26:12Z</time>
      </trkpt>
      <trkpt lat="59.9124275" lon="17.7073532">
        <ele>45.7999</ele>
        <time>2014-06-04T15:26:13Z</time>
      </trkpt>
      <trkpt lat="59.9124371" lon="17.7073841">
        <ele>44.8386</ele>
        <time>2014-06-04T15:26:14Z</time>
      </trkpt>
      <trkpt lat="59.9124415" lon="17.707421">
        <ele>44.8386</ele>
        <time>2014-06-04T15:26:15Z</time>
      </trkpt>
      <trkpt lat="59.91244" lon="17.7074692">
        <ele>45.3192</ele>
        <time>2014-06-04T15:26:16Z</time>
      </trkpt>
      <trkpt lat="59.9124443" lon="17.7075085">
        <ele>45.3192</ele>
        <time>2014-06-04T15:26:17Z</time>
      </trkpt>
      <trkpt lat="59.9124467" lon="17.7075445">
        <ele>45.3192</ele>
        <time>2014-06-04T15:26:18Z</time>
      </trkpt>
      <trkpt lat="59.9124439" lon="17.7075847">
        <ele>44.8386</ele>
        <time>2014-06-04T15:26:19Z</time>
      </trkpt>
      <trkpt lat="59.9124451" lon="17.7076351">
        <ele>45.7999</ele>
        <time>2014-06-04T15:26:20Z</time>
      </trkpt>
      <trkpt lat="59.9124451" lon="17.7076646">
        <ele>45.7999</ele>
        <time>2014-06-04T15:26:21Z</time>
      </trkpt>
      <trkpt lat="59.9124396" lon="17.707706">
        <ele>46.2806</ele>
        <time>2014-06-04T15:26:22Z</time>
      </trkpt>
      <trkpt lat="59.9124224" lon="17.7077562">
        <ele>46.7612</ele>
        <time>2014-06-04T15:26:23Z</time>
      </trkpt>
      <trkpt lat="59.9124049" lon="17.7077873">
        <ele>45.7999</ele>
        <time>2014-06-04T15:26:24Z</time>
      </trkpt>
      <trkpt lat="59.9123885" lon="17.7078334">
        <ele>47.2418</ele>
        <time>2014-06-04T15:26:25Z</time>
      </trkpt>
      <trkpt lat="59.9123734" lon="17.7078768">
        <ele>48.2034</ele>
        <time>2014-06-04T15:26:26Z</time>
      </trkpt>
      <trkpt lat="59.9123595" lon="17.7079225">
        <ele>48.684</ele>
        <time>2014-06-04T15:26:27Z</time>
      </trkpt>
      <trkpt lat="59.9123462" lon="17.7079546">
        <ele>48.684</ele>
        <time>2014-06-04T15:26:28Z</time>
      </trkpt>
      <trkpt lat="59.9123329" lon="17.7079816">
        <ele>48.684</ele>
        <time>2014-06-04T15:26:29Z</time>
      </trkpt>
      <trkpt lat="59.9123232" lon="17.7080303">
        <ele>49.6453</ele>
        <time>2014-06-04T15:26:30Z</time>
      </trkpt>
      <trkpt lat="59.912321" lon="17.708078">
        <ele>51.0872</ele>
        <time>2014-06-04T15:26:31Z</time>
      </trkpt>
      <trkpt lat="59.9123167" lon="17.7081293">
        <ele>52.0486</ele>
        <time>2014-06-04T15:26:32Z</time>
      </trkpt>
      <trkpt lat="59.9123107" lon="17.7081831">
        <ele>53.9712</ele>
        <time>2014-06-04T15:26:33Z</time>
      </trkpt>
      <trkpt lat="59.9122982" lon="17.7082303">
        <ele>54.4518</ele>
        <time>2014-06-04T15:26:34Z</time>
      </trkpt>
      <trkpt lat="59.9122901" lon="17.7082747">
        <ele>54.9324</ele>
        <time>2014-06-04T15:26:35Z</time>
      </trkpt>
      <trkpt lat="59.9122785" lon="17.708312">
        <ele>54.4518</ele>
        <time>2014-06-04T15:26:36Z</time>
      </trkpt>
      <trkpt lat="59.912269" lon="17.7083493">
        <ele>53.9712</ele>
        <time>2014-06-04T15:26:37Z</time>
      </trkpt>
      <trkpt lat="59.912262" lon="17.7083859">
        <ele>53.0098</ele>
        <time>2014-06-04T15:26:38Z</time>
      </trkpt>
      <trkpt lat="59.9122537" lon="17.7084253">
        <ele>51.5679</ele>
        <time>2014-06-04T15:26:39Z</time>
      </trkpt>
      <trkpt lat="59.9122488" lon="17.7084623">
        <ele>51.0872</ele>
        <time>2014-06-04T15:26:40Z</time>
      </trkpt>
      <trkpt lat="59.9122447" lon="17.7085002">
        <ele>50.6066</ele>
        <time>2014-06-04T15:26:41Z</time>
      </trkpt>
      <trkpt lat="59.9122319" lon="17.708542">
        <ele>49.1646</ele>
        <time>2014-06-04T15:26:42Z</time>
      </trkpt>
      <trkpt lat="59.9122216" lon="17.7085857">
        <ele>48.2034</ele>
        <time>2014-06-04T15:26:43Z</time>
      </trkpt>
      <trkpt lat="59.9122138" lon="17.7086315">
        <ele>48.2034</ele>
        <time>2014-06-04T15:26:44Z</time>
      </trkpt>
      <trkpt lat="59.9122003" lon="17.708671">
        <ele>47.2418</ele>
        <time>2014-06-04T15:26:45Z</time>
      </trkpt>
      <trkpt lat="59.9121883" lon="17.708716">
        <ele>47.2418</ele>
        <time>2014-06-04T15:26:46Z</time>
      </trkpt>
      <trkpt lat="59.9121712" lon="17.7087476">
        <ele>46.2806</ele>
        <time>2014-06-04T15:26:47Z</time>
      </trkpt>
      <trkpt lat="59.9121507" lon="17.7087757">
        <ele>45.7999</ele>
        <time>2014-06-04T15:26:48Z</time>
      </trkpt>
      <trkpt lat="59.9121336" lon="17.708802">
        <ele>44.8386</ele>
        <time>2014-06-04T15:26:49Z</time>
      </trkpt>
      <trkpt lat="59.91212" lon="17.7088399">
        <ele>45.3192</ele>
        <time>2014-06-04T15:26:50Z</time>
      </trkpt>
      <trkpt lat="59.9121071" lon="17.7088631">
        <ele>44.358</ele>
        <time>2014-06-04T15:26:51Z</time>
      </trkpt>
      <trkpt lat="59.9120911" lon="17.7088871">
        <ele>43.8773</ele>
        <time>2014-06-04T15:26:52Z</time>
      </trkpt>
      <trkpt lat="59.9120732" lon="17.7089167">
        <ele>43.3966</ele>
        <time>2014-06-04T15:26:53Z</time>
      </trkpt>
      <trkpt lat="59.9120561" lon="17.7089414">
        <ele>42.916</ele>
        <time>2014-06-04T15:26:54Z</time>
      </trkpt>
      <trkpt lat="59.9120445" lon="17.7089783">
        <ele>42.916</ele>
        <time>2014-06-04T15:26:55Z</time>
      </trkpt>
      <trkpt lat="59.9120341" lon="17.7090137">
        <ele>42.4354</ele>
        <time>2014-06-04T15:26:56Z</time>
      </trkpt>
      <trkpt lat="59.912021" lon="17.7090533">
        <ele>41.9547</ele>
        <time>2014-06-04T15:26:57Z</time>
      </trkpt>
      <trkpt lat="59.9120093" lon="17.7090958">
        <ele>42.4354</ele>
        <time>2014-06-04T15:26:58Z</time>
      </trkpt>
      <trkpt lat="59.9120051" lon="17.7091287">
        <ele>41.9547</ele>
        <time>2014-06-04T15:26:59Z</time>
      </trkpt>
      <trkpt lat="59.9120017" lon="17.7091708">
        <ele>41.9547</ele>
        <time>2014-06-04T15:27:00Z</time>
      </trkpt>
      <trkpt lat="59.9119988" lon="17.7092182">
        <ele>41.474</ele>
        <time>2014-06-04T15:27:01Z</time>
      </trkpt>
      <trkpt lat="59.9119989" lon="17.7092647">
        <ele>41.9547</ele>
        <time>2014-06-04T15:27:02Z</time>
      </trkpt>
      <trkpt lat="59.9119935" lon="17.7093237">
        <ele>41.9547</ele>
        <time>2014-06-04T15:27:03Z</time>
      </trkpt>
      <trkpt lat="59.9119888" lon="17.7093787">
        <ele>41.9547</ele>
        <time>2014-06-04T15:27:04Z</time>
      </trkpt>
      <trkpt lat="59.9119862" lon="17.7094278">
        <ele>41.474</ele>
        <time>2014-06-04T15:27:05Z</time>
      </trkpt>
      <trkpt lat="59.9119838" lon="17.7094782">
        <ele>41.474</ele>
        <time>2014-06-04T15:27:06Z</time>
      </trkpt>
      <trkpt lat="59.91198" lon="17.7095283">
        <ele>41.9547</ele>
        <time>2014-06-04T15:27:07Z</time>
      </trkpt>
      <trkpt lat="59.9119706" lon="17.7095735">
        <ele>41.9547</ele>
        <time>2014-06-04T15:27:08Z</time>
      </trkpt>
      <trkpt lat="59.9119589" lon="17.7096163">
        <ele>41.9547</ele>
        <time>2014-06-04T15:27:09Z</time>
      </trkpt>
      <trkpt lat="59.911948" lon="17.709662">
        <ele>42.4354</ele>
        <time>2014-06-04T15:27:10Z</time>
      </trkpt>
      <trkpt lat="59.9119367" lon="17.7096966">
        <ele>42.916</ele>
        <time>2014-06-04T15:27:11Z</time>
      </trkpt>
      <trkpt lat="59.9119197" lon="17.7097257">
        <ele>43.3966</ele>
        <time>2014-06-04T15:27:12Z</time>
      </trkpt>
      <trkpt lat="59.9119031" lon="17.7097556">
        <ele>43.8773</ele>
        <time>2014-06-04T15:27:13Z</time>
      </trkpt>
      <trkpt lat="59.9118898" lon="17.7097662">
        <ele>43.8773</ele>
        <time>2014-06-04T15:27:14Z</time>
      </trkpt>
      <trkpt lat="59.9118744" lon="17.7097748">
        <ele>43.8773</ele>
        <time>2014-06-04T15:27:15Z</time>
      </trkpt>
      <trkpt lat="59.9118567" lon="17.7098025">
        <ele>44.8386</ele>
        <time>2014-06-04T15:27:16Z</time>
      </trkpt>
      <trkpt lat="59.9118381" lon="17.7098226">
        <ele>44.8386</ele>
        <time>2014-06-04T15:27:17Z</time>
      </trkpt>
      <trkpt lat="59.9118253" lon="17.7098447">
        <ele>44.358</ele>
        <time>2014-06-04T15:27:18Z</time>
      </trkpt>
      <trkpt lat="59.9118126" lon="17.7098628">
        <ele>43.8773</ele>
        <time>2014-06-04T15:27:19Z</time>
      </trkpt>
      <trkpt lat="59.911792" lon="17.7098785">
        <ele>43.3966</ele>
        <time>2014-06-04T15:27:20Z</time>
      </trkpt>
      <trkpt lat="59.9117687" lon="17.7098911">
        <ele>43.3966</ele>
        <time>2014-06-04T15:27:21Z</time>
      </trkpt>
      <trkpt lat="59.9117476" lon="17.7099063">
        <ele>42.916</ele>
        <time>2014-06-04T15:27:22Z</time>
      </trkpt>
      <trkpt lat="59.9117253" lon="17.7099218">
        <ele>42.916</ele>
        <time>2014-06-04T15:27:23Z</time>
      </trkpt>
      <trkpt lat="59.9117008" lon="17.7099385">
        <ele>43.8773</ele>
        <time>2014-06-04T15:27:24Z</time>
      </trkpt>
      <trkpt lat="59.9116782" lon="17.7099489">
        <ele>42.916</ele>
        <time>2014-06-04T15:27:25Z</time>
      </trkpt>
      <trkpt lat="59.911648" lon="17.7099568">
        <ele>42.916</ele>
        <time>2014-06-04T15:27:26Z</time>
      </trkpt>
      <trkpt lat="59.9116273" lon="17.7099655">
        <ele>43.8773</ele>
        <time>2014-06-04T15:27:27Z</time>
      </trkpt>
      <trkpt lat="59.9116041" lon="17.7099757">
        <ele>44.358</ele>
        <time>2014-06-04T15:27:28Z</time>
      </trkpt>
      <trkpt lat="59.9115803" lon="17.7099827">
        <ele>45.3192</ele>
        <time>2014-06-04T15:27:29Z</time>
      </trkpt>
      <trkpt lat="59.9115625" lon="17.7099883">
        <ele>45.7999</ele>
        <time>2014-06-04T15:27:30Z</time>
      </trkpt>
      <trkpt lat="59.9115459" lon="17.7099977">
        <ele>47.2418</ele>
        <time>2014-06-04T15:27:31Z</time>
      </trkpt>
      <trkpt lat="59.9115272" lon="17.7099923">
        <ele>47.2418</ele>
        <time>2014-06-04T15:27:32Z</time>
      </trkpt>
      <trkpt lat="59.9115129" lon="17.7099858">
        <ele>47.2418</ele>
        <time>2014-06-04T15:27:33Z</time>
      </trkpt>
      <trkpt lat="59.9114968" lon="17.7099739">
        <ele>48.2034</ele>
        <time>2014-06-04T15:27:34Z</time>
      </trkpt>
      <trkpt lat="59.9114859" lon="17.7099382">
        <ele>47.2418</ele>
        <time>2014-06-04T15:27:35Z</time>
      </trkpt>
      <trkpt lat="59.911473" lon="17.7098988">
        <ele>46.2806</ele>
        <time>2014-06-04T15:27:36Z</time>
      </trkpt>
      <trkpt lat="59.9114606" lon="17.7098625">
        <ele>45.7999</ele>
        <time>2014-06-04T15:27:37Z</time>
      </trkpt>
      <trkpt lat="59.9114561" lon="17.7098268">
        <ele>45.3192</ele>
        <time>2014-06-04T15:27:38Z</time>
      </trkpt>
      <trkpt lat="59.9114581" lon="17.7097885">
        <ele>45.3192</ele>
        <time>2014-06-04T15:27:39Z</time>
      </trkpt>
      <trkpt lat="59.9114566" lon="17.7097514">
        <ele>45.3192</ele>
        <time>2014-06-04T15:27:40Z</time>
      </trkpt>
      <trkpt lat="59.9114568" lon="17.7097215">
        <ele>45.3192</ele>
        <time>2014-06-04T15:27:41Z</time>
      </trkpt>
      <trkpt lat="59.9114503" lon="17.7096801">
        <ele>46.2806</ele>
        <time>2014-06-04T15:27:42Z</time>
      </trkpt>
      <trkpt lat="59.9114568" lon="17.7096329">
        <ele>46.7612</ele>
        <time>2014-06-04T15:27:43Z</time>
      </trkpt>
      <trkpt lat="59.9114504" lon="17.7095931">
        <ele>47.2418</ele>
        <time>2014-06-04T15:27:44Z</time>
      </trkpt>
      <trkpt lat="59.9114357" lon="17.7095509">
        <ele>47.2418</ele>
        <time>2014-06-04T15:27:45Z</time>
      </trkpt>
      <trkpt lat="59.9114212" lon="17.709506">
        <ele>47.7225</ele>
        <time>2014-06-04T15:27:46Z</time>
      </trkpt>
      <trkpt lat="59.9114073" lon="17.7094667">
        <ele>47.7225</ele>
        <time>2014-06-04T15:27:47Z</time>
      </trkpt>
      <trkpt lat="59.9113988" lon="17.7094366">
        <ele>47.7225</ele>
        <time>2014-06-04T15:27:48Z</time>
      </trkpt>
      <trkpt lat="59.9113885" lon="17.709401">
        <ele>48.2034</ele>
        <time>2014-06-04T15:27:49Z</time>
      </trkpt>
      <trkpt lat="59.9113768" lon="17.7093684">
        <ele>48.2034</ele>
        <time>2014-06-04T15:27:50Z</time>
      </trkpt>
      <trkpt lat="59.9113605" lon="17.7093339">
        <ele>48.2034</ele>
        <time>2014-06-04T15:27:51Z</time>
      </trkpt>
      <trkpt lat="59.9113524" lon="17.7093106">
        <ele>48.2034</ele>
        <time>2014-06-04T15:27:52Z</time>
      </trkpt>
      <trkpt lat="59.911341" lon="17.7092989">
        <ele>47.7225</ele>
        <time>2014-06-04T15:27:53Z</time>
      </trkpt>
      <trkpt lat="59.9113342" lon="17.7092874">
        <ele>47.7225</ele>
        <time>2014-06-04T15:27:54Z</time>
      </trkpt>
      <trkpt lat="59.9113263" lon="17.7092755">
        <ele>47.2418</ele>
        <time>2014-06-04T15:27:55Z</time>
      </trkpt>
      <trkpt lat="59.9113169" lon="17.7092705">
        <ele>46.7612</ele>
        <time>2014-06-04T15:27:56Z</time>
      </trkpt>
      <trkpt lat="59.9113042" lon="17.7092661">
        <ele>46.2806</ele>
        <time>2014-06-04T15:27:57Z</time>
      </trkpt>
      <trkpt lat="59.9112955" lon="17.7092531">
        <ele>45.3192</ele>
        <time>2014-06-04T15:27:58Z</time>
      </trkpt>
      <trkpt lat="59.9112854" lon="17.7092346">
        <ele>45.3192</ele>
        <time>2014-06-04T15:27:59Z</time>
      </trkpt>
      <trkpt lat="59.9112768" lon="17.7092263">
        <ele>44.8386</ele>
        <time>2014-06-04T15:28:00Z</time>
      </trkpt>
      <trkpt lat="59.9112636" lon="17.7092123">
        <ele>44.8386</ele>
        <time>2014-06-04T15:28:01Z</time>
      </trkpt>
      <trkpt lat="59.9112487" lon="17.7091897">
        <ele>44.358</ele>
        <time>2014-06-04T15:28:02Z</time>
      </trkpt>
      <trkpt lat="59.9112366" lon="17.7091751">
        <ele>43.8773</ele>
        <time>2014-06-04T15:28:03Z</time>
      </trkpt>
      <trkpt lat="59.9112175" lon="17.7091695">
        <ele>43.8773</ele>
        <time>2014-06-04T15:28:04Z</time>
      </trkpt>
      <trkpt lat="59.9111973" lon="17.709174">
        <ele>43.8773</ele>
        <time>2014-06-04T15:28:05Z</time>
      </trkpt>
      <trkpt lat="59.9111762" lon="17.7091808">
        <ele>44.358</ele>
        <time>2014-06-04T15:28:06Z</time>
      </trkpt>
      <trkpt lat="59.9111515" lon="17.7092036">
        <ele>45.3192</ele>
        <time>2014-06-04T15:28:07Z</time>
      </trkpt>
      <trkpt lat="59.911126" lon="17.7092184">
        <ele>45.3192</ele>
        <time>2014-06-04T15:28:08Z</time>
      </trkpt>
      <trkpt lat="59.9111027" lon="17.7092393">
        <ele>45.3192</ele>
        <time>2014-06-04T15:28:09Z</time>
      </trkpt>
      <trkpt lat="59.9110836" lon="17.7092564">
        <ele>45.7999</ele>
        <time>2014-06-04T15:28:10Z</time>
      </trkpt>
      <trkpt lat="59.911065" lon="17.7092842">
        <ele>45.7999</ele>
        <time>2014-06-04T15:28:11Z</time>
      </trkpt>
      <trkpt lat="59.9110424" lon="17.7093039">
        <ele>45.7999</ele>
        <time>2014-06-04T15:28:12Z</time>
      </trkpt>
      <trkpt lat="59.9110202" lon="17.7093277">
        <ele>45.7999</ele>
        <time>2014-06-04T15:28:13Z</time>
      </trkpt>
      <trkpt lat="59.9110011" lon="17.7093448">
        <ele>46.7612</ele>
        <time>2014-06-04T15:28:14Z</time>
      </trkpt>
      <trkpt lat="59.910986" lon="17.7093641">
        <ele>47.2418</ele>
        <time>2014-06-04T15:28:15Z</time>
      </trkpt>
      <trkpt lat="59.9109667" lon="17.7093684">
        <ele>47.7225</ele>
        <time>2014-06-04T15:28:16Z</time>
      </trkpt>
      <trkpt lat="59.9109467" lon="17.7093564">
        <ele>47.2418</ele>
        <time>2014-06-04T15:28:17Z</time>
      </trkpt>
      <trkpt lat="59.9109281" lon="17.709342">
        <ele>47.2418</ele>
        <time>2014-06-04T15:28:18Z</time>
      </trkpt>
      <trkpt lat="59.910909" lon="17.7093194">
        <ele>47.2418</ele>
        <time>2014-06-04T15:28:19Z</time>
      </trkpt>
      <trkpt lat="59.9108927" lon="17.7092978">
        <ele>46.7612</ele>
        <time>2014-06-04T15:28:20Z</time>
      </trkpt>
      <trkpt lat="59.9108836" lon="17.7092829">
        <ele>46.7612</ele>
        <time>2014-06-04T15:28:21Z</time>
      </trkpt>
      <trkpt lat="59.9108675" lon="17.7092615">
        <ele>47.7225</ele>
        <time>2014-06-04T15:28:22Z</time>
      </trkpt>
      <trkpt lat="59.9108546" lon="17.7092458">
        <ele>47.7225</ele>
        <time>2014-06-04T15:28:23Z</time>
      </trkpt>
      <trkpt lat="59.9108391" lon="17.7092257">
        <ele>47.7225</ele>
        <time>2014-06-04T15:28:24Z</time>
      </trkpt>
      <trkpt lat="59.9108193" lon="17.709207">
        <ele>48.2034</ele>
        <time>2014-06-04T15:28:25Z</time>
      </trkpt>
      <trkpt lat="59.9108103" lon="17.7091901">
        <ele>48.2034</ele>
        <time>2014-06-04T15:28:26Z</time>
      </trkpt>
      <trkpt lat="59.9108017" lon="17.7091765">
        <ele>48.2034</ele>
        <time>2014-06-04T15:28:27Z</time>
      </trkpt>
      <trkpt lat="59.9107896" lon="17.7091661">
        <ele>48.684</ele>
        <time>2014-06-04T15:28:28Z</time>
      </trkpt>
      <trkpt lat="59.9107722" lon="17.7091521">
        <ele>48.684</ele>
        <time>2014-06-04T15:28:29Z</time>
      </trkpt>
      <trkpt lat="59.9107461" lon="17.7091441">
        <ele>49.6453</ele>
        <time>2014-06-04T15:28:30Z</time>
      </trkpt>
      <trkpt lat="59.9107162" lon="17.7091366">
        <ele>49.6453</ele>
        <time>2014-06-04T15:28:31Z</time>
      </trkpt>
      <trkpt lat="59.9106937" lon="17.7091301">
        <ele>49.6453</ele>
        <time>2014-06-04T15:28:32Z</time>
      </trkpt>
      <trkpt lat="59.9106717" lon="17.7091402">
        <ele>50.6066</ele>
        <time>2014-06-04T15:28:33Z</time>
      </trkpt>
      <trkpt lat="59.9106499" lon="17.7091462">
        <ele>50.6066</ele>
        <time>2014-06-04T15:28:34Z</time>
      </trkpt>
      <trkpt lat="59.9106265" lon="17.7091559">
        <ele>50.6066</ele>
        <time>2014-06-04T15:28:35Z</time>
      </trkpt>
      <trkpt lat="59.9106022" lon="17.7091688">
        <ele>50.6066</ele>
        <time>2014-06-04T15:28:36Z</time>
      </trkpt>
      <trkpt lat="59.9105796" lon="17.7091864">
        <ele>51.0872</ele>
        <time>2014-06-04T15:28:37Z</time>
      </trkpt>
      <trkpt lat="59.9105572" lon="17.7092026">
        <ele>51.0872</ele>
        <time>2014-06-04T15:28:38Z</time>
      </trkpt>
      <trkpt lat="59.9105353" lon="17.7092099">
        <ele>51.5679</ele>
        <time>2014-06-04T15:28:39Z</time>
      </trkpt>
      <trkpt lat="59.9105095" lon="17.709213">
        <ele>52.5292</ele>
        <time>2014-06-04T15:28:40Z</time>
      </trkpt>
      <trkpt lat="59.910486" lon="17.7092124">
        <ele>52.5292</ele>
        <time>2014-06-04T15:28:41Z</time>
      </trkpt>
      <trkpt lat="59.9104617" lon="17.7092123">
        <ele>52.5292</ele>
        <time>2014-06-04T15:28:42Z</time>
      </trkpt>
      <trkpt lat="59.9104402" lon="17.7092034">
        <ele>53.0098</ele>
        <time>2014-06-04T15:28:43Z</time>
      </trkpt>
      <trkpt lat="59.9104168" lon="17.7091818">
        <ele>53.0098</ele>
        <time>2014-06-04T15:28:44Z</time>
      </trkpt>
      <trkpt lat="59.9103987" lon="17.7091652">
        <ele>53.0098</ele>
        <time>2014-06-04T15:28:45Z</time>
      </trkpt>
      <trkpt lat="59.9103852" lon="17.7091438">
        <ele>52.0486</ele>
        <time>2014-06-04T15:28:46Z</time>
      </trkpt>
      <trkpt lat="59.9103732" lon="17.709131">
        <ele>52.5292</ele>
        <time>2014-06-04T15:28:47Z</time>
      </trkpt>
      <trkpt lat="59.9103593" lon="17.7091159">
        <ele>52.5292</ele>
        <time>2014-06-04T15:28:48Z</time>
      </trkpt>
      <trkpt lat="59.910342" lon="17.7090932">
        <ele>53.0098</ele>
        <time>2014-06-04T15:28:49Z</time>
      </trkpt>
      <trkpt lat="59.9103223" lon="17.7090721">
        <ele>53.0098</ele>
        <time>2014-06-04T15:28:50Z</time>
      </trkpt>
      <trkpt lat="59.9103047" lon="17.7090576">
        <ele>53.0098</ele>
        <time>2014-06-04T15:28:51Z</time>
      </trkpt>
      <trkpt lat="59.9102842" lon="17.70905">
        <ele>53.4905</ele>
        <time>2014-06-04T15:28:52Z</time>
      </trkpt>
      <trkpt lat="59.9102604" lon="17.7090383">
        <ele>53.4905</ele>
        <time>2014-06-04T15:28:53Z</time>
      </trkpt>
      <trkpt lat="59.9102432" lon="17.7090289">
        <ele>53.4905</ele>
        <time>2014-06-04T15:28:54Z</time>
      </trkpt>
      <trkpt lat="59.910231" lon="17.7090285">
        <ele>53.4905</ele>
        <time>2014-06-04T15:28:55Z</time>
      </trkpt>
      <trkpt lat="59.9102148" lon="17.7090372">
        <ele>53.4905</ele>
        <time>2014-06-04T15:28:56Z</time>
      </trkpt>
      <trkpt lat="59.9101925" lon="17.7090431">
        <ele>53.4905</ele>
        <time>2014-06-04T15:28:57Z</time>
      </trkpt>
      <trkpt lat="59.9101696" lon="17.7090538">
        <ele>53.4905</ele>
        <time>2014-06-04T15:28:58Z</time>
      </trkpt>
      <trkpt lat="59.9101454" lon="17.709063">
        <ele>53.9712</ele>
        <time>2014-06-04T15:28:59Z</time>
      </trkpt>
      <trkpt lat="59.9101273" lon="17.7090689">
        <ele>53.4905</ele>
        <time>2014-06-04T15:29:00Z</time>
      </trkpt>
      <trkpt lat="59.910112" lon="17.7090702">
        <ele>52.5292</ele>
        <time>2014-06-04T15:29:01Z</time>
      </trkpt>
      <trkpt lat="59.9100949" lon="17.7090839">
        <ele>52.5292</ele>
        <time>2014-06-04T15:29:02Z</time>
      </trkpt>
      <trkpt lat="59.9100804" lon="17.7090923">
        <ele>52.0486</ele>
        <time>2014-06-04T15:29:03Z</time>
      </trkpt>
      <trkpt lat="59.9100638" lon="17.709106">
        <ele>51.5679</ele>
        <time>2014-06-04T15:29:04Z</time>
      </trkpt>
      <trkpt lat="59.9100408" lon="17.7091151">
        <ele>51.0872</ele>
        <time>2014-06-04T15:29:05Z</time>
      </trkpt>
      <trkpt lat="59.9100154" lon="17.7091185">
        <ele>50.6066</ele>
        <time>2014-06-04T15:29:06Z</time>
      </trkpt>
      <trkpt lat="59.9099901" lon="17.709144">
        <ele>51.0872</ele>
        <time>2014-06-04T15:29:07Z</time>
      </trkpt>
      <trkpt lat="59.9099662" lon="17.7091635">
        <ele>50.6066</ele>
        <time>2014-06-04T15:29:08Z</time>
      </trkpt>
      <trkpt lat="59.9099442" lon="17.7091725">
        <ele>50.126</ele>
        <time>2014-06-04T15:29:09Z</time>
      </trkpt>
      <trkpt lat="59.9099252" lon="17.7091864">
        <ele>49.6453</ele>
        <time>2014-06-04T15:29:10Z</time>
      </trkpt>
      <trkpt lat="59.9099019" lon="17.7092045">
        <ele>50.126</ele>
        <time>2014-06-04T15:29:11Z</time>
      </trkpt>
      <trkpt lat="59.9098737" lon="17.709217">
        <ele>50.126</ele>
        <time>2014-06-04T15:29:12Z</time>
      </trkpt>
      <trkpt lat="59.9098444" lon="17.7092318">
        <ele>50.6066</ele>
        <time>2014-06-04T15:29:13Z</time>
      </trkpt>
      <trkpt lat="59.9098171" lon="17.709245">
        <ele>51.0872</ele>
        <time>2014-06-04T15:29:14Z</time>
      </trkpt>
      <trkpt lat="59.9097901" lon="17.7092515">
        <ele>50.6066</ele>
        <time>2014-06-04T15:29:15Z</time>
      </trkpt>
      <trkpt lat="59.909767" lon="17.7092522">
        <ele>50.6066</ele>
        <time>2014-06-04T15:29:16Z</time>
      </trkpt>
      <trkpt lat="59.9097458" lon="17.709259">
        <ele>51.0872</ele>
        <time>2014-06-04T15:29:17Z</time>
      </trkpt>
      <trkpt lat="59.9097253" lon="17.7092625">
        <ele>50.6066</ele>
        <time>2014-06-04T15:29:18Z</time>
      </trkpt>
      <trkpt lat="59.909706" lon="17.7092812">
        <ele>51.0872</ele>
        <time>2014-06-04T15:29:19Z</time>
      </trkpt>
      <trkpt lat="59.9096828" lon="17.709292">
        <ele>51.5679</ele>
        <time>2014-06-04T15:29:20Z</time>
      </trkpt>
      <trkpt lat="59.9096585" lon="17.7093092">
        <ele>52.0486</ele>
        <time>2014-06-04T15:29:21Z</time>
      </trkpt>
      <trkpt lat="59.9096401" lon="17.709333">
        <ele>52.0486</ele>
        <time>2014-06-04T15:29:22Z</time>
      </trkpt>
      <trkpt lat="59.9096243" lon="17.7093522">
        <ele>51.5679</ele>
        <time>2014-06-04T15:29:23Z</time>
      </trkpt>
      <trkpt lat="59.9096064" lon="17.7093787">
        <ele>52.0486</ele>
        <time>2014-06-04T15:29:24Z</time>
      </trkpt>
      <trkpt lat="59.9095854" lon="17.7094102">
        <ele>52.5292</ele>
        <time>2014-06-04T15:29:25Z</time>
      </trkpt>
      <trkpt lat="59.9095699" lon="17.7094418">
        <ele>52.0486</ele>
        <time>2014-06-04T15:29:26Z</time>
      </trkpt>
      <trkpt lat="59.9095531" lon="17.709473">
        <ele>51.5679</ele>
        <time>2014-06-04T15:29:27Z</time>
      </trkpt>
      <trkpt lat="59.9095335" lon="17.7095179">
        <ele>52.0486</ele>
        <time>2014-06-04T15:29:28Z</time>
      </trkpt>
      <trkpt lat="59.9095132" lon="17.7095639">
        <ele>52.5292</ele>
        <time>2014-06-04T15:29:29Z</time>
      </trkpt>
      <trkpt lat="59.9094941" lon="17.7096044">
        <ele>52.5292</ele>
        <time>2014-06-04T15:29:30Z</time>
      </trkpt>
      <trkpt lat="59.9094766" lon="17.7096387">
        <ele>53.0098</ele>
        <time>2014-06-04T15:29:31Z</time>
      </trkpt>
      <trkpt lat="59.909458" lon="17.7096769">
        <ele>53.4905</ele>
        <time>2014-06-04T15:29:32Z</time>
      </trkpt>
      <trkpt lat="59.9094386" lon="17.709723">
        <ele>54.4518</ele>
        <time>2014-06-04T15:29:33Z</time>
      </trkpt>
      <trkpt lat="59.9094171" lon="17.7097702">
        <ele>55.4131</ele>
        <time>2014-06-04T15:29:34Z</time>
      </trkpt>
      <trkpt lat="59.9093958" lon="17.7097906">
        <ele>55.4131</ele>
        <time>2014-06-04T15:29:35Z</time>
      </trkpt>
      <trkpt lat="59.9093751" lon="17.7098111">
        <ele>55.4131</ele>
        <time>2014-06-04T15:29:36Z</time>
      </trkpt>
      <trkpt lat="59.9093575" lon="17.7098298">
        <ele>55.4131</ele>
        <time>2014-06-04T15:29:37Z</time>
      </trkpt>
      <trkpt lat="59.9093389" lon="17.7098517">
        <ele>55.4131</ele>
        <time>2014-06-04T15:29:38Z</time>
      </trkpt>
      <trkpt lat="59.9093186" lon="17.7098753">
        <ele>54.9324</ele>
        <time>2014-06-04T15:29:39Z</time>
      </trkpt>
      <trkpt lat="59.9093" lon="17.7098926">
        <ele>54.4518</ele>
        <time>2014-06-04T15:29:40Z</time>
      </trkpt>
      <trkpt lat="59.9092834" lon="17.7099138">
        <ele>54.9324</ele>
        <time>2014-06-04T15:29:41Z</time>
      </trkpt>
      <trkpt lat="59.9092749" lon="17.7099298">
        <ele>54.4518</ele>
        <time>2014-06-04T15:29:42Z</time>
      </trkpt>
      <trkpt lat="59.9092604" lon="17.7099474">
        <ele>53.4905</ele>
        <time>2014-06-04T15:29:43Z</time>
      </trkpt>
      <trkpt lat="59.9092444" lon="17.7099748">
        <ele>53.0098</ele>
        <time>2014-06-04T15:29:44Z</time>
      </trkpt>
      <trkpt lat="59.9092288" lon="17.7100018">
        <ele>52.5292</ele>
        <time>2014-06-04T15:29:45Z</time>
      </trkpt>
      <trkpt lat="59.9092135" lon="17.7100188">
        <ele>52.0486</ele>
        <time>2014-06-04T15:29:46Z</time>
      </trkpt>
      <trkpt lat="59.9091938" lon="17.7100458">
        <ele>52.0486</ele>
        <time>2014-06-04T15:29:47Z</time>
      </trkpt>
      <trkpt lat="59.9091752" lon="17.7100799">
        <ele>51.5679</ele>
        <time>2014-06-04T15:29:48Z</time>
      </trkpt>
      <trkpt lat="59.9091608" lon="17.710135">
        <ele>52.5292</ele>
        <time>2014-06-04T15:29:49Z</time>
      </trkpt>
      <trkpt lat="59.909143" lon="17.7101789">
        <ele>53.0098</ele>
        <time>2014-06-04T15:29:50Z</time>
      </trkpt>
      <trkpt lat="59.9091275" lon="17.7102101">
        <ele>52.0486</ele>
        <time>2014-06-04T15:29:51Z</time>
      </trkpt>
      <trkpt lat="59.9091114" lon="17.7102443">
        <ele>51.0872</ele>
        <time>2014-06-04T15:29:52Z</time>
      </trkpt>
      <trkpt lat="59.9090938" lon="17.7102727">
        <ele>51.0872</ele>
        <time>2014-06-04T15:29:53Z</time>
      </trkpt>
      <trkpt lat="59.9090747" lon="17.7102965">
        <ele>50.126</ele>
        <time>2014-06-04T15:29:54Z</time>
      </trkpt>
      <trkpt lat="59.9090532" lon="17.7103295">
        <ele>50.6066</ele>
        <time>2014-06-04T15:29:55Z</time>
      </trkpt>
      <trkpt lat="59.9090325" lon="17.7103617">
        <ele>50.6066</ele>
        <time>2014-06-04T15:29:56Z</time>
      </trkpt>
      <trkpt lat="59.9090152" lon="17.7103917">
        <ele>50.6066</ele>
        <time>2014-06-04T15:29:57Z</time>
      </trkpt>
      <trkpt lat="59.9090027" lon="17.710417">
        <ele>50.6066</ele>
        <time>2014-06-04T15:29:58Z</time>
      </trkpt>
      <trkpt lat="59.9089913" lon="17.7104481">
        <ele>51.0872</ele>
        <time>2014-06-04T15:29:59Z</time>
      </trkpt>
      <trkpt lat="59.9089755" lon="17.7104833">
        <ele>51.5679</ele>
        <time>2014-06-04T15:30:00Z</time>
      </trkpt>
      <trkpt lat="59.9089554" lon="17.7105214">
        <ele>52.5292</ele>
        <time>2014-06-04T15:30:01Z</time>
      </trkpt>
      <trkpt lat="59.9089384" lon="17.7105395">
        <ele>51.5679</ele>
        <time>2014-06-04T15:30:02Z</time>
      </trkpt>
      <trkpt lat="59.9089204" lon="17.7105545">
        <ele>51.0872</ele>
        <time>2014-06-04T15:30:03Z</time>
      </trkpt>
      <trkpt lat="59.9089018" lon="17.7105755">
        <ele>51.5679</ele>
        <time>2014-06-04T15:30:04Z</time>
      </trkpt>
      <trkpt lat="59.9088854" lon="17.7105892">
        <ele>51.5679</ele>
        <time>2014-06-04T15:30:05Z</time>
      </trkpt>
      <trkpt lat="59.9088694" lon="17.7106135">
        <ele>52.0486</ele>
        <time>2014-06-04T15:30:06Z</time>
      </trkpt>
      <trkpt lat="59.9088534" lon="17.7106332">
        <ele>52.5292</ele>
        <time>2014-06-04T15:30:07Z</time>
      </trkpt>
      <trkpt lat="59.9088372" lon="17.7106427">
        <ele>52.5292</ele>
        <time>2014-06-04T15:30:08Z</time>
      </trkpt>
      <trkpt lat="59.9088228" lon="17.710654">
        <ele>52.0486</ele>
        <time>2014-06-04T15:30:09Z</time>
      </trkpt>
      <trkpt lat="59.9088074" lon="17.710672">
        <ele>51.5679</ele>
        <time>2014-06-04T15:30:10Z</time>
      </trkpt>
      <trkpt lat="59.9087876" lon="17.7106949">
        <ele>51.5679</ele>
        <time>2014-06-04T15:30:11Z</time>
      </trkpt>
      <trkpt lat="59.9087697" lon="17.7107146">
        <ele>51.5679</ele>
        <time>2014-06-04T15:30:12Z</time>
      </trkpt>
      <trkpt lat="59.9087577" lon="17.7107348">
        <ele>51.0872</ele>
        <time>2014-06-04T15:30:13Z</time>
      </trkpt>
      <trkpt lat="59.9087463" lon="17.7107577">
        <ele>51.0872</ele>
        <time>2014-06-04T15:30:14Z</time>
      </trkpt>
      <trkpt lat="59.9087295" lon="17.7107797">
        <ele>50.6066</ele>
        <time>2014-06-04T15:30:15Z</time>
      </trkpt>
      <trkpt lat="59.9087089" lon="17.7108036">
        <ele>50.126</ele>
        <time>2014-06-04T15:30:16Z</time>
      </trkpt>
      <trkpt lat="59.9086929" lon="17.7108322">
        <ele>50.126</ele>
        <time>2014-06-04T15:30:17Z</time>
      </trkpt>
      <trkpt lat="59.908679" lon="17.710859">
        <ele>49.6453</ele>
        <time>2014-06-04T15:30:18Z</time>
      </trkpt>
      <trkpt lat="59.9086616" lon="17.7108808">
        <ele>49.1646</ele>
        <time>2014-06-04T15:30:19Z</time>
      </trkpt>
      <trkpt lat="59.908644" lon="17.7109112">
        <ele>49.1646</ele>
        <time>2014-06-04T15:30:20Z</time>
      </trkpt>
      <trkpt lat="59.9086255" lon="17.7109315">
        <ele>48.684</ele>
        <time>2014-06-04T15:30:21Z</time>
      </trkpt>
      <trkpt lat="59.9086046" lon="17.7109419">
        <ele>48.2034</ele>
        <time>2014-06-04T15:30:22Z</time>
      </trkpt>
      <trkpt lat="59.9085845" lon="17.7109617">
        <ele>47.7225</ele>
        <time>2014-06-04T15:30:23Z</time>
      </trkpt>
      <trkpt lat="59.908566" lon="17.7109927">
        <ele>47.7225</ele>
        <time>2014-06-04T15:30:24Z</time>
      </trkpt>
      <trkpt lat="59.9085509" lon="17.7110127">
        <ele>47.7225</ele>
        <time>2014-06-04T15:30:25Z</time>
      </trkpt>
      <trkpt lat="59.9085326" lon="17.7110402">
        <ele>47.7225</ele>
        <time>2014-06-04T15:30:26Z</time>
      </trkpt>
      <trkpt lat="59.9084997" lon="17.7110901">
        <ele>46.7612</ele>
        <time>2014-06-04T15:30:28Z</time>
      </trkpt>
      <trkpt lat="59.9084844" lon="17.7111279">
        <ele>47.2418</ele>
        <time>2014-06-04T15:30:29Z</time>
      </trkpt>
      <trkpt lat="59.9084637" lon="17.711178">
        <ele>48.2034</ele>
        <time>2014-06-04T15:30:30Z</time>
      </trkpt>
      <trkpt lat="59.9084471" lon="17.7112222">
        <ele>48.2034</ele>
        <time>2014-06-04T15:30:31Z</time>
      </trkpt>
      <trkpt lat="59.9084338" lon="17.711275">
        <ele>48.684</ele>
        <time>2014-06-04T15:30:32Z</time>
      </trkpt>
      <trkpt lat="59.9084188" lon="17.7113221">
        <ele>49.1646</ele>
        <time>2014-06-04T15:30:33Z</time>
      </trkpt>
      <trkpt lat="59.9084052" lon="17.711364">
        <ele>49.1646</ele>
        <time>2014-06-04T15:30:34Z</time>
      </trkpt>
      <trkpt lat="59.9083969" lon="17.7113998">
        <ele>49.1646</ele>
        <time>2014-06-04T15:30:35Z</time>
      </trkpt>
      <trkpt lat="59.9083879" lon="17.7114381">
        <ele>48.684</ele>
        <time>2014-06-04T15:30:36Z</time>
      </trkpt>
      <trkpt lat="59.9083764" lon="17.7114723">
        <ele>48.2034</ele>
        <time>2014-06-04T15:30:37Z</time>
      </trkpt>
      <trkpt lat="59.9083711" lon="17.7115047">
        <ele>48.2034</ele>
        <time>2014-06-04T15:30:38Z</time>
      </trkpt>
      <trkpt lat="59.9083686" lon="17.7115455">
        <ele>47.7225</ele>
        <time>2014-06-04T15:30:39Z</time>
      </trkpt>
      <trkpt lat="59.9083669" lon="17.7115849">
        <ele>47.7225</ele>
        <time>2014-06-04T15:30:40Z</time>
      </trkpt>
      <trkpt lat="59.9083661" lon="17.7116248">
        <ele>47.2418</ele>
        <time>2014-06-04T15:30:41Z</time>
      </trkpt>
      <trkpt lat="59.908366" lon="17.7116667">
        <ele>46.7612</ele>
        <time>2014-06-04T15:30:42Z</time>
      </trkpt>
      <trkpt lat="59.9083656" lon="17.7117119">
        <ele>46.7612</ele>
        <time>2014-06-04T15:30:43Z</time>
      </trkpt>
      <trkpt lat="59.9083686" lon="17.7117484">
        <ele>46.2806</ele>
        <time>2014-06-04T15:30:44Z</time>
      </trkpt>
      <trkpt lat="59.9083764" lon="17.7117866">
        <ele>45.7999</ele>
        <time>2014-06-04T15:30:45Z</time>
      </trkpt>
      <trkpt lat="59.9083883" lon="17.7118277">
        <ele>45.3192</ele>
        <time>2014-06-04T15:30:46Z</time>
      </trkpt>
      <trkpt lat="59.9084002" lon="17.711869">
        <ele>44.8386</ele>
        <time>2014-06-04T15:30:47Z</time>
      </trkpt>
      <trkpt lat="59.9084038" lon="17.711906">
        <ele>44.358</ele>
        <time>2014-06-04T15:30:48Z</time>
      </trkpt>
      <trkpt lat="59.9084069" lon="17.7119441">
        <ele>43.8773</ele>
        <time>2014-06-04T15:30:49Z</time>
      </trkpt>
      <trkpt lat="59.9084124" lon="17.7119793">
        <ele>42.916</ele>
        <time>2014-06-04T15:30:50Z</time>
      </trkpt>
      <trkpt lat="59.9084182" lon="17.7120133">
        <ele>41.9547</ele>
        <time>2014-06-04T15:30:51Z</time>
      </trkpt>
      <trkpt lat="59.9084292" lon="17.7120485">
        <ele>41.9547</ele>
        <time>2014-06-04T15:30:52Z</time>
      </trkpt>
      <trkpt lat="59.9084338" lon="17.7120817">
        <ele>40.9934</ele>
        <time>2014-06-04T15:30:53Z</time>
      </trkpt>
      <trkpt lat="59.9084396" lon="17.712124">
        <ele>40.5128</ele>
        <time>2014-06-04T15:30:54Z</time>
      </trkpt>
      <trkpt lat="59.908452" lon="17.7121765">
        <ele>40.5128</ele>
        <time>2014-06-04T15:30:55Z</time>
      </trkpt>
      <trkpt lat="59.9084676" lon="17.7122306">
        <ele>40.5128</ele>
        <time>2014-06-04T15:30:56Z</time>
      </trkpt>
      <trkpt lat="59.9084871" lon="17.7122613">
        <ele>40.5128</ele>
        <time>2014-06-04T15:30:57Z</time>
      </trkpt>
      <trkpt lat="59.9084991" lon="17.712291">
        <ele>40.5128</ele>
        <time>2014-06-04T15:30:58Z</time>
      </trkpt>
      <trkpt lat="59.9085085" lon="17.7123236">
        <ele>40.0321</ele>
        <time>2014-06-04T15:30:59Z</time>
      </trkpt>
      <trkpt lat="59.9085214" lon="17.7123515">
        <ele>40.5128</ele>
        <time>2014-06-04T15:31:00Z</time>
      </trkpt>
      <trkpt lat="59.9085327" lon="17.712381">
        <ele>40.5128</ele>
        <time>2014-06-04T15:31:01Z</time>
      </trkpt>
      <trkpt lat="59.9085446" lon="17.7124074">
        <ele>40.5128</ele>
        <time>2014-06-04T15:31:02Z</time>
      </trkpt>
      <trkpt lat="59.908559" lon="17.7124297">
        <ele>40.9934</ele>
        <time>2014-06-04T15:31:03Z</time>
      </trkpt>
      <trkpt lat="59.9085689" lon="17.7124524">
        <ele>40.5128</ele>
        <time>2014-06-04T15:31:04Z</time>
      </trkpt>
      <trkpt lat="59.908585" lon="17.7124769">
        <ele>40.5128</ele>
        <time>2014-06-04T15:31:05Z</time>
      </trkpt>
      <trkpt lat="59.9086018" lon="17.712501">
        <ele>40.9934</ele>
        <time>2014-06-04T15:31:06Z</time>
      </trkpt>
      <trkpt lat="59.9086158" lon="17.7125198">
        <ele>40.5128</ele>
        <time>2014-06-04T15:31:07Z</time>
      </trkpt>
      <trkpt lat="59.9086318" lon="17.712536">
        <ele>41.474</ele>
        <time>2014-06-04T15:31:08Z</time>
      </trkpt>
      <trkpt lat="59.9086445" lon="17.7125483">
        <ele>41.474</ele>
        <time>2014-06-04T15:31:09Z</time>
      </trkpt>
      <trkpt lat="59.9086628" lon="17.7125623">
        <ele>41.9547</ele>
        <time>2014-06-04T15:31:10Z</time>
      </trkpt>
      <trkpt lat="59.9086829" lon="17.7125885">
        <ele>41.9547</ele>
        <time>2014-06-04T15:31:11Z</time>
      </trkpt>
      <trkpt lat="59.9086987" lon="17.712624">
        <ele>41.9547</ele>
        <time>2014-06-04T15:31:12Z</time>
      </trkpt>
      <trkpt lat="59.9087163" lon="17.7126697">
        <ele>41.9547</ele>
        <time>2014-06-04T15:31:13Z</time>
      </trkpt>
      <trkpt lat="59.9087321" lon="17.7127058">
        <ele>41.9547</ele>
        <time>2014-06-04T15:31:14Z</time>
      </trkpt>
      <trkpt lat="59.908739" lon="17.7127436">
        <ele>41.474</ele>
        <time>2014-06-04T15:31:15Z</time>
      </trkpt>
      <trkpt lat="59.9087495" lon="17.7127834">
        <ele>40.5128</ele>
        <time>2014-06-04T15:31:16Z</time>
      </trkpt>
      <trkpt lat="59.9087613" lon="17.7128194">
        <ele>40.0321</ele>
        <time>2014-06-04T15:31:17Z</time>
      </trkpt>
      <trkpt lat="59.9087725" lon="17.7128473">
        <ele>39.5513</ele>
        <time>2014-06-04T15:31:18Z</time>
      </trkpt>
      <trkpt lat="59.9087794" lon="17.7128825">
        <ele>39.0707</ele>
        <time>2014-06-04T15:31:19Z</time>
      </trkpt>
      <trkpt lat="59.9087944" lon="17.7129192">
        <ele>38.5901</ele>
        <time>2014-06-04T15:31:20Z</time>
      </trkpt>
      <trkpt lat="59.9088135" lon="17.7129477">
        <ele>38.1094</ele>
        <time>2014-06-04T15:31:21Z</time>
      </trkpt>
      <trkpt lat="59.9088281" lon="17.7129794">
        <ele>37.6287</ele>
        <time>2014-06-04T15:31:22Z</time>
      </trkpt>
      <trkpt lat="59.9088375" lon="17.7130229">
        <ele>37.6287</ele>
        <time>2014-06-04T15:31:23Z</time>
      </trkpt>
      <trkpt lat="59.9088488" lon="17.7130694">
        <ele>37.6287</ele>
        <time>2014-06-04T15:31:24Z</time>
      </trkpt>
      <trkpt lat="59.9088647" lon="17.7131122">
        <ele>38.1094</ele>
        <time>2014-06-04T15:31:25Z</time>
      </trkpt>
      <trkpt lat="59.9088851" lon="17.7131614">
        <ele>39.0707</ele>
        <time>2014-06-04T15:31:26Z</time>
      </trkpt>
      <trkpt lat="59.9088999" lon="17.713206">
        <ele>39.5513</ele>
        <time>2014-06-04T15:31:27Z</time>
      </trkpt>
      <trkpt lat="59.9089076" lon="17.7132457">
        <ele>38.5901</ele>
        <time>2014-06-04T15:31:28Z</time>
      </trkpt>
      <trkpt lat="59.9089228" lon="17.7132843">
        <ele>38.5901</ele>
        <time>2014-06-04T15:31:29Z</time>
      </trkpt>
      <trkpt lat="59.9089338" lon="17.7133197">
        <ele>38.5901</ele>
        <time>2014-06-04T15:31:30Z</time>
      </trkpt>
      <trkpt lat="59.9089475" lon="17.7133573">
        <ele>38.5901</ele>
        <time>2014-06-04T15:31:31Z</time>
      </trkpt>
      <trkpt lat="59.908961" lon="17.7133879">
        <ele>39.0707</ele>
        <time>2014-06-04T15:31:32Z</time>
      </trkpt>
      <trkpt lat="59.9089771" lon="17.7134213">
        <ele>39.5513</ele>
        <time>2014-06-04T15:31:33Z</time>
      </trkpt>
      <trkpt lat="59.9089871" lon="17.7134575">
        <ele>39.0707</ele>
        <time>2014-06-04T15:31:34Z</time>
      </trkpt>
      <trkpt lat="59.9090011" lon="17.7135011">
        <ele>40.0321</ele>
        <time>2014-06-04T15:31:35Z</time>
      </trkpt>
      <trkpt lat="59.9090165" lon="17.7135496">
        <ele>39.5513</ele>
        <time>2014-06-04T15:31:36Z</time>
      </trkpt>
      <trkpt lat="59.909042" lon="17.7135981">
        <ele>39.5513</ele>
        <time>2014-06-04T15:31:37Z</time>
      </trkpt>
      <trkpt lat="59.9090699" lon="17.7136414">
        <ele>40.0321</ele>
        <time>2014-06-04T15:31:38Z</time>
      </trkpt>
      <trkpt lat="59.9090928" lon="17.7136789">
        <ele>40.9934</ele>
        <time>2014-06-04T15:31:39Z</time>
      </trkpt>
      <trkpt lat="59.9091152" lon="17.7137142">
        <ele>40.5128</ele>
        <time>2014-06-04T15:31:40Z</time>
      </trkpt>
      <trkpt lat="59.9091333" lon="17.7137418">
        <ele>40.0321</ele>
        <time>2014-06-04T15:31:41Z</time>
      </trkpt>
      <trkpt lat="59.9091451" lon="17.7137812">
        <ele>40.9934</ele>
        <time>2014-06-04T15:31:42Z</time>
      </trkpt>
      <trkpt lat="59.9091612" lon="17.7138076">
        <ele>41.474</ele>
        <time>2014-06-04T15:31:43Z</time>
      </trkpt>
      <trkpt lat="59.9091683" lon="17.7138326">
        <ele>41.9547</ele>
        <time>2014-06-04T15:31:44Z</time>
      </trkpt>
      <trkpt lat="59.909191" lon="17.713854">
        <ele>41.9547</ele>
        <time>2014-06-04T15:31:45Z</time>
      </trkpt>
      <trkpt lat="59.9092167" lon="17.7138796">
        <ele>42.4354</ele>
        <time>2014-06-04T15:31:46Z</time>
      </trkpt>
      <trkpt lat="59.9092321" lon="17.7139012">
        <ele>42.4354</ele>
        <time>2014-06-04T15:31:47Z</time>
      </trkpt>
      <trkpt lat="59.9092574" lon="17.7139184">
        <ele>43.3966</ele>
        <time>2014-06-04T15:31:48Z</time>
      </trkpt>
      <trkpt lat="59.9092729" lon="17.7139112">
        <ele>43.3966</ele>
        <time>2014-06-04T15:31:49Z</time>
      </trkpt>
      <trkpt lat="59.9092701" lon="17.7138877">
        <ele>43.3966</ele>
        <time>2014-06-04T15:31:50Z</time>
      </trkpt>
      <trkpt lat="59.9092575" lon="17.713872">
        <ele>43.8773</ele>
        <time>2014-06-04T15:31:51Z</time>
      </trkpt>
      <trkpt lat="59.9092492" lon="17.7138661">
        <ele>44.8386</ele>
        <time>2014-06-04T15:31:52Z</time>
      </trkpt>
      <trkpt lat="59.9092315" lon="17.7138556">
        <ele>44.8386</ele>
        <time>2014-06-04T15:31:53Z</time>
      </trkpt>
      <trkpt lat="59.9092114" lon="17.7138371">
        <ele>44.8386</ele>
        <time>2014-06-04T15:31:54Z</time>
      </trkpt>
      <trkpt lat="59.9091912" lon="17.7138217">
        <ele>44.8386</ele>
        <time>2014-06-04T15:31:55Z</time>
      </trkpt>
      <trkpt lat="59.9091724" lon="17.7138017">
        <ele>44.358</ele>
        <time>2014-06-04T15:31:56Z</time>
      </trkpt>
      <trkpt lat="59.9091658" lon="17.7137743">
        <ele>43.8773</ele>
        <time>2014-06-04T15:31:57Z</time>
      </trkpt>
      <trkpt lat="59.9091518" lon="17.7137404">
        <ele>43.8773</ele>
        <time>2014-06-04T15:31:58Z</time>
      </trkpt>
      <trkpt lat="59.9091322" lon="17.7137076">
        <ele>43.3966</ele>
        <time>2014-06-04T15:31:59Z</time>
      </trkpt>
      <trkpt lat="59.9091228" lon="17.7136708">
        <ele>42.4354</ele>
        <time>2014-06-04T15:32:00Z</time>
      </trkpt>
      <trkpt lat="59.9091161" lon="17.7136377">
        <ele>41.9547</ele>
        <time>2014-06-04T15:32:01Z</time>
      </trkpt>
      <trkpt lat="59.9091078" lon="17.713618">
        <ele>42.916</ele>
        <time>2014-06-04T15:32:02Z</time>
      </trkpt>
      <trkpt lat="59.9091021" lon="17.7136033">
        <ele>42.4354</ele>
        <time>2014-06-04T15:32:03Z</time>
      </trkpt>
      <trkpt lat="59.9090919" lon="17.713577">
        <ele>42.4354</ele>
        <time>2014-06-04T15:32:04Z</time>
      </trkpt>
      <trkpt lat="59.9090649" lon="17.7135425">
        <ele>42.4354</ele>
        <time>2014-06-04T15:32:05Z</time>
      </trkpt>
      <trkpt lat="59.9090337" lon="17.7135054">
        <ele>42.4354</ele>
        <time>2014-06-04T15:32:06Z</time>
      </trkpt>
      <trkpt lat="59.9090043" lon="17.7134676">
        <ele>42.916</ele>
        <time>2014-06-04T15:32:07Z</time>
      </trkpt>
      <trkpt lat="59.9089788" lon="17.7134372">
        <ele>42.916</ele>
        <time>2014-06-04T15:32:08Z</time>
      </trkpt>
      <trkpt lat="59.9089564" lon="17.7134094">
        <ele>43.3966</ele>
        <time>2014-06-04T15:32:09Z</time>
      </trkpt>
      <trkpt lat="59.9089322" lon="17.7133783">
        <ele>43.8773</ele>
        <time>2014-06-04T15:32:10Z</time>
      </trkpt>
      <trkpt lat="59.9089085" lon="17.7133453">
        <ele>43.8773</ele>
        <time>2014-06-04T15:32:11Z</time>
      </trkpt>
      <trkpt lat="59.9088841" lon="17.7133091">
        <ele>43.8773</ele>
        <time>2014-06-04T15:32:12Z</time>
      </trkpt>
      <trkpt lat="59.9088595" lon="17.7132651">
        <ele>43.8773</ele>
        <time>2014-06-04T15:32:13Z</time>
      </trkpt>
      <trkpt lat="59.9088382" lon="17.7132267">
        <ele>43.8773</ele>
        <time>2014-06-04T15:32:14Z</time>
      </trkpt>
      <trkpt lat="59.9088144" lon="17.7131885">
        <ele>43.3966</ele>
        <time>2014-06-04T15:32:15Z</time>
      </trkpt>
      <trkpt lat="59.9087394" lon="17.7130064">
        <ele>45.3192</ele>
        <time>2014-06-04T15:33:49Z</time>
      </trkpt>
      <trkpt lat="59.90874" lon="17.7130087">
        <ele>45.3192</ele>
        <time>2014-06-04T15:33:50Z</time>
      </trkpt>
      <trkpt lat="59.9087462" lon="17.7130062">
        <ele>44.8386</ele>
        <time>2014-06-04T15:33:51Z</time>
      </trkpt>
      <trkpt lat="59.9087534" lon="17.7130003">
        <ele>44.358</ele>
        <time>2014-06-04T15:33:52Z</time>
      </trkpt>
      <trkpt lat="59.9087577" lon="17.7129959">
        <ele>44.8386</ele>
        <time>2014-06-04T15:33:53Z</time>
      </trkpt>
      <trkpt lat="59.9087691" lon="17.7129948">
        <ele>44.8386</ele>
        <time>2014-06-04T15:33:54Z</time>
      </trkpt>
      <trkpt lat="59.9087741" lon="17.7129944">
        <ele>44.8386</ele>
        <time>2014-06-04T15:33:55Z</time>
      </trkpt>
      <trkpt lat="59.9087774" lon="17.7129996">
        <ele>44.358</ele>
        <time>2014-06-04T15:33:56Z</time>
      </trkpt>
      <trkpt lat="59.9087798" lon="17.7130026">
        <ele>44.358</ele>
        <time>2014-06-04T15:33:57Z</time>
      </trkpt>
      <trkpt lat="59.908782" lon="17.7130036">
        <ele>44.358</ele>
        <time>2014-06-04T15:33:58Z</time>
      </trkpt>
    </trkseg>
  </trk>
</gpx>